<?xml version='1.0' encoding='UTF-8'?><gpx version="1.1" creator="JPX - https://github.com/jenetics/jpx" xmlns="http://www.topografix.com/GPX/1/1"><trk><trkseg><trkpt lat="42.4097083" lon="11.2083108"><ele>7.999999999999999</ele><time>2026-05-02T08:33:18.577Z</time></trkpt><trkpt lat="42.4096735" lon="11.2083878"><ele>8.0</ele><time>2026-05-02T08:33:20.578Z</time></trkpt><trkpt lat="42.40957" lon="11.2083823"><ele>8.0</ele><time>2026-05-02T08:33:23.578Z</time></trkpt><trkpt lat="42.4094997" lon="11.2083771"><ele>8.0</ele><time>2026-05-02T08:33:25.576Z</time></trkpt><trkpt lat="42.4094224" lon="11.2083895"><ele>7.999999999999999</ele><time>2026-05-02T08:33:28.578Z</time></trkpt><trkpt lat="42.4093871" lon="11.2084724"><ele>8.0</ele><time>2026-05-02T08:33:33.577Z</time></trkpt><trkpt lat="42.4094302" lon="11.2085739"><ele>7.999999999999999</ele><time>2026-05-02T08:33:35.579Z</time></trkpt><trkpt lat="42.4094581" lon="11.2086715"><ele>8.0</ele><time>2026-05-02T08:33:37.577Z</time></trkpt><trkpt lat="42.409495" lon="11.2087492"><ele>8.0</ele><time>2026-05-02T08:33:39.578Z</time></trkpt><trkpt lat="42.4095275" lon="11.2088309"><ele>8.0</ele><time>2026-05-02T08:33:41.578Z</time></trkpt><trkpt lat="42.409566" lon="11.2089425"><ele>7.999999999999999</ele><time>2026-05-02T08:33:43.577Z</time></trkpt><trkpt lat="42.4096137" lon="11.2090679"><ele>8.0</ele><time>2026-05-02T08:33:45.578Z</time></trkpt><trkpt lat="42.4096618" lon="11.2091802"><ele>8.4</ele><time>2026-05-02T08:33:47.578Z</time></trkpt><trkpt lat="42.4097218" lon="11.2092822"><ele>8.8</ele><time>2026-05-02T08:33:49.577Z</time></trkpt><trkpt lat="42.4097871" lon="11.209371"><ele>9.2</ele><time>2026-05-02T08:33:51.579Z</time></trkpt><trkpt lat="42.4098622" lon="11.2094428"><ele>9.6</ele><time>2026-05-02T08:33:53.578Z</time></trkpt><trkpt lat="42.409923" lon="11.2095004"><ele>10.0</ele><time>2026-05-02T08:33:55.577Z</time></trkpt><trkpt lat="42.4099829" lon="11.2096139"><ele>10.0</ele><time>2026-05-02T08:33:57.576Z</time></trkpt><trkpt lat="42.4100578" lon="11.2098234"><ele>10.0</ele><time>2026-05-02T08:34:00.578Z</time></trkpt><trkpt lat="42.4101437" lon="11.2099392"><ele>10.0</ele><time>2026-05-02T08:34:02.577Z</time></trkpt><trkpt lat="42.4102014" lon="11.2099756"><ele>10.0</ele><time>2026-05-02T08:34:03.577Z</time></trkpt><trkpt lat="42.4102812" lon="11.2099964"><ele>10.0</ele><time>2026-05-02T08:34:04.578Z</time></trkpt><trkpt lat="42.4103548" lon="11.2100196"><ele>10.0</ele><time>2026-05-02T08:34:05.578Z</time></trkpt><trkpt lat="42.4104234" lon="11.2100451"><ele>10.0</ele><time>2026-05-02T08:34:06.577Z</time></trkpt><trkpt lat="42.4105371" lon="11.2100719"><ele>10.0</ele><time>2026-05-02T08:34:08.578Z</time></trkpt><trkpt lat="42.4106351" lon="11.2100892"><ele>10.0</ele><time>2026-05-02T08:34:10.577Z</time></trkpt><trkpt lat="42.4107032" lon="11.210096"><ele>10.0</ele><time>2026-05-02T08:34:14.579Z</time></trkpt><trkpt lat="42.4107723" lon="11.2101047"><ele>10.0</ele><time>2026-05-02T08:34:17.579Z</time></trkpt><trkpt lat="42.4108753" lon="11.2101276"><ele>10.8</ele><time>2026-05-02T08:34:19.578Z</time></trkpt><trkpt lat="42.4109859" lon="11.2101722"><ele>11.6</ele><time>2026-05-02T08:34:21.576Z</time></trkpt><trkpt lat="42.4110483" lon="11.210193"><ele>12.399999999999999</ele><time>2026-05-02T08:34:22.578Z</time></trkpt><trkpt lat="42.4111479" lon="11.2102429"><ele>13.2</ele><time>2026-05-02T08:34:24.576Z</time></trkpt><trkpt lat="42.4112711" lon="11.2102868"><ele>14.0</ele><time>2026-05-02T08:34:26.579Z</time></trkpt><trkpt lat="42.4113297" lon="11.2103278"><ele>14.571428571428571</ele><time>2026-05-02T08:34:27.577Z</time></trkpt><trkpt lat="42.411388" lon="11.2103689"><ele>15.142857142857142</ele><time>2026-05-02T08:34:28.577Z</time></trkpt><trkpt lat="42.4114531" lon="11.2103955"><ele>15.714285714285715</ele><time>2026-05-02T08:34:29.578Z</time></trkpt><trkpt lat="42.4115141" lon="11.2104324"><ele>16.285714285714285</ele><time>2026-05-02T08:34:30.577Z</time></trkpt><trkpt lat="42.4115807" lon="11.2104608"><ele>16.857142857142858</ele><time>2026-05-02T08:34:31.577Z</time></trkpt><trkpt lat="42.4116453" lon="11.2104949"><ele>17.42857142857143</ele><time>2026-05-02T08:34:32.577Z</time></trkpt><trkpt lat="42.4117097" lon="11.2105221"><ele>18.0</ele><time>2026-05-02T08:34:33.577Z</time></trkpt><trkpt lat="42.4118037" lon="11.210576"><ele>18.0</ele><time>2026-05-02T08:34:35.577Z</time></trkpt><trkpt lat="42.4118736" lon="11.2106135"><ele>18.0</ele><time>2026-05-02T08:34:37.579Z</time></trkpt><trkpt lat="42.4119443" lon="11.2106483"><ele>18.0</ele><time>2026-05-02T08:34:40.578Z</time></trkpt><trkpt lat="42.4120122" lon="11.2106816"><ele>18.0</ele><time>2026-05-02T08:34:44.577Z</time></trkpt><trkpt lat="42.4120947" lon="11.2107193"><ele>18.0</ele><time>2026-05-02T08:34:48.577Z</time></trkpt><trkpt lat="42.4121663" lon="11.2107575"><ele>18.0</ele><time>2026-05-02T08:34:51.577Z</time></trkpt><trkpt lat="42.4122347" lon="11.2107841"><ele>16.857142857142858</ele><time>2026-05-02T08:34:55.577Z</time></trkpt><trkpt lat="42.4122978" lon="11.2108274"><ele>15.714285714285715</ele><time>2026-05-02T08:34:57.576Z</time></trkpt><trkpt lat="42.412363" lon="11.2108562"><ele>14.571428571428573</ele><time>2026-05-02T08:34:59.577Z</time></trkpt><trkpt lat="42.4124297" lon="11.210883"><ele>13.42857142857143</ele><time>2026-05-02T08:35:02.577Z</time></trkpt><trkpt lat="42.4125005" lon="11.2109182"><ele>12.285714285714286</ele><time>2026-05-02T08:35:06.577Z</time></trkpt><trkpt lat="42.4125702" lon="11.2109547"><ele>11.142857142857142</ele><time>2026-05-02T08:35:09.577Z</time></trkpt><trkpt lat="42.4126364" lon="11.2109849"><ele>10.0</ele><time>2026-05-02T08:35:12.576Z</time></trkpt><trkpt lat="42.412701" lon="11.2110326"><ele>10.0</ele><time>2026-05-02T08:35:15.578Z</time></trkpt><trkpt lat="42.4127756" lon="11.2110781"><ele>10.0</ele><time>2026-05-02T08:35:18.577Z</time></trkpt><trkpt lat="42.4128652" lon="11.2111387"><ele>10.0</ele><time>2026-05-02T08:35:21.577Z</time></trkpt><trkpt lat="42.4129407" lon="11.2111892"><ele>10.0</ele><time>2026-05-02T08:35:23.578Z</time></trkpt><trkpt lat="42.413017" lon="11.2112444"><ele>10.0</ele><time>2026-05-02T08:35:25.578Z</time></trkpt><trkpt lat="42.4130892" lon="11.211298"><ele>10.0</ele><time>2026-05-02T08:35:27.576Z</time></trkpt><trkpt lat="42.4131526" lon="11.2113427"><ele>8.8</ele><time>2026-05-02T08:35:29.577Z</time></trkpt><trkpt lat="42.4132384" lon="11.2114016"><ele>7.6</ele><time>2026-05-02T08:35:32.577Z</time></trkpt><trkpt lat="42.4133064" lon="11.2114551"><ele>6.4</ele><time>2026-05-02T08:35:34.577Z</time></trkpt><trkpt lat="42.4134005" lon="11.2115262"><ele>5.2</ele><time>2026-05-02T08:35:36.578Z</time></trkpt><trkpt lat="42.4135154" lon="11.2116012"><ele>4.0</ele><time>2026-05-02T08:35:38.578Z</time></trkpt><trkpt lat="42.4135689" lon="11.2116469"><ele>4.0</ele><time>2026-05-02T08:35:39.578Z</time></trkpt><trkpt lat="42.4136272" lon="11.2116916"><ele>3.9999999999999996</ele><time>2026-05-02T08:35:40.577Z</time></trkpt><trkpt lat="42.413683" lon="11.2117371"><ele>4.0</ele><time>2026-05-02T08:35:41.576Z</time></trkpt><trkpt lat="42.4137416" lon="11.2117798"><ele>4.0</ele><time>2026-05-02T08:35:42.576Z</time></trkpt><trkpt lat="42.4138061" lon="11.2118227"><ele>3.9999999999999996</ele><time>2026-05-02T08:35:43.576Z</time></trkpt><trkpt lat="42.4138746" lon="11.2118745"><ele>4.0</ele><time>2026-05-02T08:35:44.577Z</time></trkpt><trkpt lat="42.4139413" lon="11.2119233"><ele>4.0</ele><time>2026-05-02T08:35:45.577Z</time></trkpt><trkpt lat="42.4140131" lon="11.2119668"><ele>4.714285714285714</ele><time>2026-05-02T08:35:46.577Z</time></trkpt><trkpt lat="42.4140795" lon="11.212"><ele>5.428571428571429</ele><time>2026-05-02T08:35:47.577Z</time></trkpt><trkpt lat="42.4141472" lon="11.212032"><ele>6.142857142857143</ele><time>2026-05-02T08:35:48.576Z</time></trkpt><trkpt lat="42.4142178" lon="11.2120552"><ele>6.857142857142858</ele><time>2026-05-02T08:35:49.577Z</time></trkpt><trkpt lat="42.4142888" lon="11.2120789"><ele>7.571428571428571</ele><time>2026-05-02T08:35:50.577Z</time></trkpt><trkpt lat="42.4143606" lon="11.2121014"><ele>8.285714285714286</ele><time>2026-05-02T08:35:51.576Z</time></trkpt><trkpt lat="42.4144273" lon="11.2121236"><ele>9.0</ele><time>2026-05-02T08:35:52.576Z</time></trkpt><trkpt lat="42.4144955" lon="11.2121432"><ele>9.0</ele><time>2026-05-02T08:35:53.578Z</time></trkpt><trkpt lat="42.4145592" lon="11.2121576"><ele>9.0</ele><time>2026-05-02T08:35:54.577Z</time></trkpt><trkpt lat="42.4146799" lon="11.2121702"><ele>9.0</ele><time>2026-05-02T08:35:56.576Z</time></trkpt><trkpt lat="42.4147452" lon="11.2121727"><ele>9.0</ele><time>2026-05-02T08:35:57.578Z</time></trkpt><trkpt lat="42.4148169" lon="11.2121542"><ele>9.0</ele><time>2026-05-02T08:35:58.576Z</time></trkpt><trkpt lat="42.4148785" lon="11.2121297"><ele>9.0</ele><time>2026-05-02T08:35:59.578Z</time></trkpt><trkpt lat="42.4149832" lon="11.2120646"><ele>8.5</ele><time>2026-05-02T08:36:01.578Z</time></trkpt><trkpt lat="42.4150352" lon="11.2120137"><ele>8.0</ele><time>2026-05-02T08:36:02.577Z</time></trkpt><trkpt lat="42.4151019" lon="11.2119211"><ele>7.5</ele><time>2026-05-02T08:36:04.577Z</time></trkpt><trkpt lat="42.4151585" lon="11.2118264"><ele>7.0</ele><time>2026-05-02T08:36:06.577Z</time></trkpt><trkpt lat="42.4152127" lon="11.2117261"><ele>6.5</ele><time>2026-05-02T08:36:08.578Z</time></trkpt><trkpt lat="42.4152712" lon="11.2116084"><ele>6.0</ele><time>2026-05-02T08:36:10.577Z</time></trkpt><trkpt lat="42.4153372" lon="11.2114832"><ele>5.2</ele><time>2026-05-02T08:36:12.576Z</time></trkpt><trkpt lat="42.4153953" lon="11.2113649"><ele>4.3999999999999995</ele><time>2026-05-02T08:36:14.577Z</time></trkpt><trkpt lat="42.4154394" lon="11.2112468"><ele>3.6</ele><time>2026-05-02T08:36:16.577Z</time></trkpt><trkpt lat="42.4154673" lon="11.211123"><ele>2.8</ele><time>2026-05-02T08:36:18.576Z</time></trkpt><trkpt lat="42.4154895" lon="11.2109991"><ele>2.0</ele><time>2026-05-02T08:36:20.577Z</time></trkpt><trkpt lat="42.4155227" lon="11.2108581"><ele>2.0</ele><time>2026-05-02T08:36:22.577Z</time></trkpt><trkpt lat="42.4155518" lon="11.2107749"><ele>1.9999999999999998</ele><time>2026-05-02T08:36:23.577Z</time></trkpt><trkpt lat="42.415591" lon="11.2106994"><ele>2.0</ele><time>2026-05-02T08:36:24.576Z</time></trkpt><trkpt lat="42.4156249" lon="11.2106165"><ele>2.0</ele><time>2026-05-02T08:36:25.576Z</time></trkpt><trkpt lat="42.4156662" lon="11.2105284"><ele>1.9999999999999998</ele><time>2026-05-02T08:36:26.578Z</time></trkpt><trkpt lat="42.4157014" lon="11.2104351"><ele>2.0</ele><time>2026-05-02T08:36:27.577Z</time></trkpt><trkpt lat="42.4157462" lon="11.2103397"><ele>2.0</ele><time>2026-05-02T08:36:28.576Z</time></trkpt><trkpt lat="42.4157842" lon="11.210252"><ele>2.6666666666666665</ele><time>2026-05-02T08:36:29.577Z</time></trkpt><trkpt lat="42.415823" lon="11.210156"><ele>3.333333333333333</ele><time>2026-05-02T08:36:30.577Z</time></trkpt><trkpt lat="42.4158658" lon="11.2100601"><ele>4.0</ele><time>2026-05-02T08:36:31.578Z</time></trkpt><trkpt lat="42.4159099" lon="11.2099622"><ele>4.666666666666667</ele><time>2026-05-02T08:36:32.578Z</time></trkpt><trkpt lat="42.4159531" lon="11.2098661"><ele>5.333333333333333</ele><time>2026-05-02T08:36:33.577Z</time></trkpt><trkpt lat="42.4159953" lon="11.2097684"><ele>6.0</ele><time>2026-05-02T08:36:34.576Z</time></trkpt><trkpt lat="42.4160388" lon="11.20967"><ele>6.142857142857142</ele><time>2026-05-02T08:36:35.577Z</time></trkpt><trkpt lat="42.4160779" lon="11.2095806"><ele>6.285714285714286</ele><time>2026-05-02T08:36:36.576Z</time></trkpt><trkpt lat="42.4161091" lon="11.2094872"><ele>6.428571428571429</ele><time>2026-05-02T08:36:37.577Z</time></trkpt><trkpt lat="42.4161385" lon="11.209393"><ele>6.571428571428571</ele><time>2026-05-02T08:36:38.577Z</time></trkpt><trkpt lat="42.4161492" lon="11.2093011"><ele>6.714285714285714</ele><time>2026-05-02T08:36:39.577Z</time></trkpt><trkpt lat="42.416154" lon="11.2092062"><ele>6.857142857142857</ele><time>2026-05-02T08:36:40.577Z</time></trkpt><trkpt lat="42.4161419" lon="11.2091031"><ele>7.0</ele><time>2026-05-02T08:36:41.577Z</time></trkpt><trkpt lat="42.4161195" lon="11.2090019"><ele>6.333333333333334</ele><time>2026-05-02T08:36:42.577Z</time></trkpt><trkpt lat="42.4160921" lon="11.2089021"><ele>5.666666666666667</ele><time>2026-05-02T08:36:43.577Z</time></trkpt><trkpt lat="42.4160445" lon="11.2088159"><ele>5.0</ele><time>2026-05-02T08:36:44.577Z</time></trkpt><trkpt lat="42.4159924" lon="11.2087318"><ele>4.333333333333334</ele><time>2026-05-02T08:36:45.577Z</time></trkpt><trkpt lat="42.4159417" lon="11.2086481"><ele>3.666666666666667</ele><time>2026-05-02T08:36:46.576Z</time></trkpt><trkpt lat="42.4158788" lon="11.208569"><ele>3.0</ele><time>2026-05-02T08:36:47.577Z</time></trkpt><trkpt lat="42.4158187" lon="11.2085092"><ele>2.9999999999999996</ele><time>2026-05-02T08:36:48.577Z</time></trkpt><trkpt lat="42.4157632" lon="11.2084444"><ele>3.0</ele><time>2026-05-02T08:36:49.578Z</time></trkpt><trkpt lat="42.4157074" lon="11.2083888"><ele>3.0</ele><time>2026-05-02T08:36:50.577Z</time></trkpt><trkpt lat="42.4156513" lon="11.2083332"><ele>3.0</ele><time>2026-05-02T08:36:51.576Z</time></trkpt><trkpt lat="42.4155976" lon="11.2082826"><ele>3.0</ele><time>2026-05-02T08:36:52.577Z</time></trkpt><trkpt lat="42.4155444" lon="11.2082227"><ele>2.9999999999999996</ele><time>2026-05-02T08:36:53.577Z</time></trkpt><trkpt lat="42.4154997" lon="11.2081625"><ele>3.0</ele><time>2026-05-02T08:36:54.577Z</time></trkpt><trkpt lat="42.4154417" lon="11.2080109"><ele>3.3333333333333335</ele><time>2026-05-02T08:36:56.577Z</time></trkpt><trkpt lat="42.415438" lon="11.2079087"><ele>3.666666666666667</ele><time>2026-05-02T08:36:57.576Z</time></trkpt><trkpt lat="42.4154498" lon="11.2078033"><ele>4.0</ele><time>2026-05-02T08:36:58.577Z</time></trkpt><trkpt lat="42.4154641" lon="11.2076951"><ele>4.333333333333334</ele><time>2026-05-02T08:36:59.577Z</time></trkpt><trkpt lat="42.415487" lon="11.2075811"><ele>4.666666666666667</ele><time>2026-05-02T08:37:00.577Z</time></trkpt><trkpt lat="42.4155147" lon="11.2074659"><ele>5.0</ele><time>2026-05-02T08:37:01.577Z</time></trkpt><trkpt lat="42.4155447" lon="11.2073534"><ele>4.0</ele><time>2026-05-02T08:37:02.576Z</time></trkpt><trkpt lat="42.4155752" lon="11.2072397"><ele>3.0</ele><time>2026-05-02T08:37:03.575Z</time></trkpt><trkpt lat="42.4156095" lon="11.2071245"><ele>2.0</ele><time>2026-05-02T08:37:04.577Z</time></trkpt><trkpt lat="42.4156472" lon="11.2070148"><ele>1.0</ele><time>2026-05-02T08:37:05.576Z</time></trkpt><trkpt lat="42.4156819" lon="11.2069057"><ele>0.0</ele><time>2026-05-02T08:37:06.577Z</time></trkpt><trkpt lat="42.4157133" lon="11.2067868"><ele>0.0</ele><time>2026-05-02T08:37:07.577Z</time></trkpt><trkpt lat="42.4157464" lon="11.2066726"><ele>0.0</ele><time>2026-05-02T08:37:08.577Z</time></trkpt><trkpt lat="42.4157769" lon="11.2065535"><ele>0.0</ele><time>2026-05-02T08:37:09.576Z</time></trkpt><trkpt lat="42.4158017" lon="11.2064415"><ele>0.0</ele><time>2026-05-02T08:37:10.577Z</time></trkpt><trkpt lat="42.4158277" lon="11.2063387"><ele>0.0</ele><time>2026-05-02T08:37:11.576Z</time></trkpt><trkpt lat="42.415852" lon="11.2062409"><ele>0.0</ele><time>2026-05-02T08:37:12.577Z</time></trkpt><trkpt lat="42.4158743" lon="11.2061528"><ele>0.2</ele><time>2026-05-02T08:37:13.577Z</time></trkpt><trkpt lat="42.4158966" lon="11.2060649"><ele>0.4</ele><time>2026-05-02T08:37:14.575Z</time></trkpt><trkpt lat="42.4159221" lon="11.2059834"><ele>0.6000000000000001</ele><time>2026-05-02T08:37:15.577Z</time></trkpt><trkpt lat="42.415967" lon="11.2058312"><ele>0.8</ele><time>2026-05-02T08:37:17.578Z</time></trkpt><trkpt lat="42.4160024" lon="11.2056787"><ele>1.0</ele><time>2026-05-02T08:37:19.575Z</time></trkpt><trkpt lat="42.4160337" lon="11.2055402"><ele>1.4</ele><time>2026-05-02T08:37:21.576Z</time></trkpt><trkpt lat="42.4160714" lon="11.2053936"><ele>1.8</ele><time>2026-05-02T08:37:23.578Z</time></trkpt><trkpt lat="42.4161065" lon="11.2052476"><ele>2.1999999999999997</ele><time>2026-05-02T08:37:25.575Z</time></trkpt><trkpt lat="42.4161355" lon="11.2051127"><ele>2.6</ele><time>2026-05-02T08:37:27.578Z</time></trkpt><trkpt lat="42.4161621" lon="11.2049991"><ele>3.0</ele><time>2026-05-02T08:37:29.577Z</time></trkpt><trkpt lat="42.4161814" lon="11.2049001"><ele>5.0</ele><time>2026-05-02T08:37:31.576Z</time></trkpt><trkpt lat="42.4162032" lon="11.2047964"><ele>7.0</ele><time>2026-05-02T08:37:34.577Z</time></trkpt><trkpt lat="42.4161695" lon="11.2047075"><ele>9.0</ele><time>2026-05-02T08:37:37.576Z</time></trkpt><trkpt lat="42.4161223" lon="11.2046454"><ele>11.0</ele><time>2026-05-02T08:37:39.576Z</time></trkpt><trkpt lat="42.4160628" lon="11.2045866"><ele>13.0</ele><time>2026-05-02T08:37:57.576Z</time></trkpt><trkpt lat="42.4159817" lon="11.2045705"><ele>15.0</ele><time>2026-05-02T08:37:59.577Z</time></trkpt><trkpt lat="42.415896" lon="11.2045905"><ele>15.0</ele><time>2026-05-02T08:38:00.575Z</time></trkpt><trkpt lat="42.4158051" lon="11.2046131"><ele>15.0</ele><time>2026-05-02T08:38:01.576Z</time></trkpt><trkpt lat="42.4157004" lon="11.2046391"><ele>15.0</ele><time>2026-05-02T08:38:02.575Z</time></trkpt><trkpt lat="42.415592" lon="11.2046699"><ele>15.0</ele><time>2026-05-02T08:38:03.575Z</time></trkpt><trkpt lat="42.4154518" lon="11.2046854"><ele>17.0</ele><time>2026-05-02T08:38:04.577Z</time></trkpt><trkpt lat="42.4153089" lon="11.2046958"><ele>19.0</ele><time>2026-05-02T08:38:05.577Z</time></trkpt><trkpt lat="42.4151503" lon="11.2047029"><ele>21.0</ele><time>2026-05-02T08:38:06.578Z</time></trkpt><trkpt lat="42.4149811" lon="11.2047108"><ele>21.0</ele><time>2026-05-02T08:38:07.575Z</time></trkpt><trkpt lat="42.4148158" lon="11.2047112"><ele>21.0</ele><time>2026-05-02T08:38:08.575Z</time></trkpt><trkpt lat="42.4146599" lon="11.2047114"><ele>21.0</ele><time>2026-05-02T08:38:09.577Z</time></trkpt><trkpt lat="42.4145142" lon="11.2047139"><ele>20.5</ele><time>2026-05-02T08:38:10.576Z</time></trkpt><trkpt lat="42.4143768" lon="11.204714"><ele>20.0</ele><time>2026-05-02T08:38:11.575Z</time></trkpt><trkpt lat="42.4142403" lon="11.204717"><ele>19.5</ele><time>2026-05-02T08:38:12.575Z</time></trkpt><trkpt lat="42.4140989" lon="11.2047162"><ele>19.0</ele><time>2026-05-02T08:38:13.577Z</time></trkpt><trkpt lat="42.4139568" lon="11.2047123"><ele>18.0</ele><time>2026-05-02T08:38:14.577Z</time></trkpt><trkpt lat="42.4138111" lon="11.204705"><ele>17.0</ele><time>2026-05-02T08:38:15.577Z</time></trkpt><trkpt lat="42.4136689" lon="11.2046917"><ele>16.0</ele><time>2026-05-02T08:38:16.577Z</time></trkpt><trkpt lat="42.4135229" lon="11.2046522"><ele>15.0</ele><time>2026-05-02T08:38:17.577Z</time></trkpt><trkpt lat="42.4133775" lon="11.2046065"><ele>15.0</ele><time>2026-05-02T08:38:18.575Z</time></trkpt><trkpt lat="42.4132366" lon="11.2045479"><ele>15.0</ele><time>2026-05-02T08:38:19.575Z</time></trkpt><trkpt lat="42.4130982" lon="11.2044736"><ele>15.0</ele><time>2026-05-02T08:38:20.577Z</time></trkpt><trkpt lat="42.4129587" lon="11.2043988"><ele>15.0</ele><time>2026-05-02T08:38:21.577Z</time></trkpt><trkpt lat="42.4128266" lon="11.204313"><ele>13.75</ele><time>2026-05-02T08:38:22.577Z</time></trkpt><trkpt lat="42.412701" lon="11.2042222"><ele>12.5</ele><time>2026-05-02T08:38:23.577Z</time></trkpt><trkpt lat="42.4125695" lon="11.2041345"><ele>11.25</ele><time>2026-05-02T08:38:24.575Z</time></trkpt><trkpt lat="42.4124469" lon="11.2040437"><ele>10.0</ele><time>2026-05-02T08:38:25.577Z</time></trkpt><trkpt lat="42.4123267" lon="11.2039495"><ele>11.25</ele><time>2026-05-02T08:38:26.576Z</time></trkpt><trkpt lat="42.4122011" lon="11.2038549"><ele>12.5</ele><time>2026-05-02T08:38:27.578Z</time></trkpt><trkpt lat="42.4120762" lon="11.2037668"><ele>13.75</ele><time>2026-05-02T08:38:28.576Z</time></trkpt><trkpt lat="42.4119544" lon="11.2036783"><ele>15.0</ele><time>2026-05-02T08:38:29.575Z</time></trkpt><trkpt lat="42.411832" lon="11.2035859"><ele>15.0</ele><time>2026-05-02T08:38:30.576Z</time></trkpt><trkpt lat="42.4117104" lon="11.2034872"><ele>15.0</ele><time>2026-05-02T08:38:31.576Z</time></trkpt><trkpt lat="42.4115889" lon="11.2033871"><ele>15.0</ele><time>2026-05-02T08:38:32.577Z</time></trkpt><trkpt lat="42.4114658" lon="11.2032915"><ele>15.0</ele><time>2026-05-02T08:38:33.575Z</time></trkpt><trkpt lat="42.4113469" lon="11.2032015"><ele>15.75</ele><time>2026-05-02T08:38:34.577Z</time></trkpt><trkpt lat="42.4112344" lon="11.2031095"><ele>16.5</ele><time>2026-05-02T08:38:35.576Z</time></trkpt><trkpt lat="42.4111239" lon="11.2030177"><ele>17.25</ele><time>2026-05-02T08:38:36.575Z</time></trkpt><trkpt lat="42.4110145" lon="11.2029252"><ele>18.0</ele><time>2026-05-02T08:38:37.575Z</time></trkpt><trkpt lat="42.41091" lon="11.2028272"><ele>18.0</ele><time>2026-05-02T08:38:38.576Z</time></trkpt><trkpt lat="42.4108091" lon="11.2027249"><ele>18.0</ele><time>2026-05-02T08:38:39.577Z</time></trkpt><trkpt lat="42.4107182" lon="11.2026126"><ele>18.0</ele><time>2026-05-02T08:38:40.576Z</time></trkpt><trkpt lat="42.4106225" lon="11.2025121"><ele>18.0</ele><time>2026-05-02T08:38:41.575Z</time></trkpt><trkpt lat="42.4105278" lon="11.2024087"><ele>18.25</ele><time>2026-05-02T08:38:42.576Z</time></trkpt><trkpt lat="42.4104347" lon="11.2023038"><ele>18.5</ele><time>2026-05-02T08:38:43.575Z</time></trkpt><trkpt lat="42.4103406" lon="11.2022028"><ele>18.75</ele><time>2026-05-02T08:38:44.577Z</time></trkpt><trkpt lat="42.4102431" lon="11.2020943"><ele>19.0</ele><time>2026-05-02T08:38:45.575Z</time></trkpt><trkpt lat="42.4101451" lon="11.2019839"><ele>19.0</ele><time>2026-05-02T08:38:46.576Z</time></trkpt><trkpt lat="42.4100449" lon="11.2018786"><ele>19.0</ele><time>2026-05-02T08:38:47.576Z</time></trkpt><trkpt lat="42.4099373" lon="11.2017661"><ele>19.0</ele><time>2026-05-02T08:38:48.576Z</time></trkpt><trkpt lat="42.4098309" lon="11.2016591"><ele>19.0</ele><time>2026-05-02T08:38:49.575Z</time></trkpt><trkpt lat="42.4097277" lon="11.2015401"><ele>20.0</ele><time>2026-05-02T08:38:50.576Z</time></trkpt><trkpt lat="42.4096262" lon="11.2014195"><ele>21.0</ele><time>2026-05-02T08:38:51.576Z</time></trkpt><trkpt lat="42.4095193" lon="11.2013018"><ele>22.0</ele><time>2026-05-02T08:38:52.575Z</time></trkpt><trkpt lat="42.4094134" lon="11.2011802"><ele>23.0</ele><time>2026-05-02T08:38:53.576Z</time></trkpt><trkpt lat="42.4093099" lon="11.2010603"><ele>23.0</ele><time>2026-05-02T08:38:54.576Z</time></trkpt><trkpt lat="42.4092019" lon="11.2009442"><ele>23.0</ele><time>2026-05-02T08:38:55.577Z</time></trkpt><trkpt lat="42.4090973" lon="11.2008234"><ele>23.0</ele><time>2026-05-02T08:38:56.576Z</time></trkpt><trkpt lat="42.4089894" lon="11.2007161"><ele>23.0</ele><time>2026-05-02T08:38:57.575Z</time></trkpt><trkpt lat="42.4088682" lon="11.200623"><ele>24.25</ele><time>2026-05-02T08:38:58.577Z</time></trkpt><trkpt lat="42.4087421" lon="11.2005433"><ele>25.5</ele><time>2026-05-02T08:38:59.576Z</time></trkpt><trkpt lat="42.4086079" lon="11.2004758"><ele>26.75</ele><time>2026-05-02T08:39:00.575Z</time></trkpt><trkpt lat="42.4084698" lon="11.2004244"><ele>28.0</ele><time>2026-05-02T08:39:01.575Z</time></trkpt><trkpt lat="42.4083162" lon="11.2003962"><ele>28.0</ele><time>2026-05-02T08:39:02.577Z</time></trkpt><trkpt lat="42.4081646" lon="11.2003698"><ele>28.0</ele><time>2026-05-02T08:39:03.577Z</time></trkpt><trkpt lat="42.4080127" lon="11.2003608"><ele>28.0</ele><time>2026-05-02T08:39:04.577Z</time></trkpt><trkpt lat="42.4078441" lon="11.2003626"><ele>29.333333333333336</ele><time>2026-05-02T08:39:05.576Z</time></trkpt><trkpt lat="42.4076779" lon="11.2003738"><ele>30.666666666666664</ele><time>2026-05-02T08:39:06.575Z</time></trkpt><trkpt lat="42.4075027" lon="11.2003795"><ele>32.0</ele><time>2026-05-02T08:39:07.576Z</time></trkpt><trkpt lat="42.4073308" lon="11.2003779"><ele>32.0</ele><time>2026-05-02T08:39:08.575Z</time></trkpt><trkpt lat="42.4071627" lon="11.2003813"><ele>32.0</ele><time>2026-05-02T08:39:09.575Z</time></trkpt><trkpt lat="42.4069973" lon="11.2003794"><ele>32.0</ele><time>2026-05-02T08:39:10.578Z</time></trkpt><trkpt lat="42.4068356" lon="11.2003798"><ele>29.333333333333332</ele><time>2026-05-02T08:39:11.575Z</time></trkpt><trkpt lat="42.4066743" lon="11.2003747"><ele>26.666666666666664</ele><time>2026-05-02T08:39:12.577Z</time></trkpt><trkpt lat="42.4065084" lon="11.2003806"><ele>24.0</ele><time>2026-05-02T08:39:13.576Z</time></trkpt><trkpt lat="42.4063485" lon="11.2003883"><ele>22.25</ele><time>2026-05-02T08:39:14.575Z</time></trkpt><trkpt lat="42.4062074" lon="11.2003908"><ele>20.5</ele><time>2026-05-02T08:39:15.576Z</time></trkpt><trkpt lat="42.4060804" lon="11.2003935"><ele>18.75</ele><time>2026-05-02T08:39:16.577Z</time></trkpt><trkpt lat="42.405969" lon="11.2003912"><ele>17.0</ele><time>2026-05-02T08:39:17.576Z</time></trkpt><trkpt lat="42.4058769" lon="11.2003931"><ele>17.0</ele><time>2026-05-02T08:39:18.578Z</time></trkpt><trkpt lat="42.4057998" lon="11.2003847"><ele>17.0</ele><time>2026-05-02T08:39:19.577Z</time></trkpt><trkpt lat="42.4057307" lon="11.2003578"><ele>17.0</ele><time>2026-05-02T08:39:20.576Z</time></trkpt><trkpt lat="42.4056425" lon="11.2002927"><ele>17.0</ele><time>2026-05-02T08:39:22.576Z</time></trkpt><trkpt lat="42.4055795" lon="11.2002574"><ele>17.0</ele><time>2026-05-02T08:39:24.577Z</time></trkpt><trkpt lat="42.4055057" lon="11.2002228"><ele>17.0</ele><time>2026-05-02T08:39:40.575Z</time></trkpt><trkpt lat="42.405405" lon="11.200227"><ele>16.5</ele><time>2026-05-02T08:39:42.576Z</time></trkpt><trkpt lat="42.4053366" lon="11.2002823"><ele>16.0</ele><time>2026-05-02T08:39:44.577Z</time></trkpt><trkpt lat="42.4052818" lon="11.200336"><ele>15.5</ele><time>2026-05-02T08:39:46.577Z</time></trkpt><trkpt lat="42.4051821" lon="11.2003817"><ele>15.0</ele><time>2026-05-02T08:39:55.576Z</time></trkpt><trkpt lat="42.4050627" lon="11.2003951"><ele>14.500000000000002</ele><time>2026-05-02T08:39:57.576Z</time></trkpt><trkpt lat="42.4049917" lon="11.2003963"><ele>14.0</ele><time>2026-05-02T08:39:58.577Z</time></trkpt><trkpt lat="42.4049106" lon="11.200401"><ele>14.0</ele><time>2026-05-02T08:39:59.575Z</time></trkpt><trkpt lat="42.4048185" lon="11.2004014"><ele>13.999999999999998</ele><time>2026-05-02T08:40:00.575Z</time></trkpt><trkpt lat="42.4047263" lon="11.2004035"><ele>13.999999999999998</ele><time>2026-05-02T08:40:01.576Z</time></trkpt><trkpt lat="42.4046307" lon="11.2004051"><ele>14.0</ele><time>2026-05-02T08:40:02.576Z</time></trkpt><trkpt lat="42.4045361" lon="11.2004072"><ele>14.0</ele><time>2026-05-02T08:40:03.575Z</time></trkpt><trkpt lat="42.4044403" lon="11.2004084"><ele>12.799999999999999</ele><time>2026-05-02T08:40:04.575Z</time></trkpt><trkpt lat="42.4043453" lon="11.2004075"><ele>11.599999999999998</ele><time>2026-05-02T08:40:05.577Z</time></trkpt><trkpt lat="42.4042418" lon="11.2004026"><ele>10.4</ele><time>2026-05-02T08:40:06.575Z</time></trkpt><trkpt lat="42.40414" lon="11.2003895"><ele>9.2</ele><time>2026-05-02T08:40:07.575Z</time></trkpt><trkpt lat="42.4040349" lon="11.2003729"><ele>8.0</ele><time>2026-05-02T08:40:08.575Z</time></trkpt><trkpt lat="42.4039218" lon="11.2003427"><ele>7.75</ele><time>2026-05-02T08:40:09.577Z</time></trkpt><trkpt lat="42.4038142" lon="11.2002972"><ele>7.5</ele><time>2026-05-02T08:40:10.576Z</time></trkpt><trkpt lat="42.4036977" lon="11.2002468"><ele>7.25</ele><time>2026-05-02T08:40:11.575Z</time></trkpt><trkpt lat="42.4035771" lon="11.2001921"><ele>7.0</ele><time>2026-05-02T08:40:12.576Z</time></trkpt><trkpt lat="42.4034562" lon="11.2001341"><ele>7.0</ele><time>2026-05-02T08:40:13.575Z</time></trkpt><trkpt lat="42.4033399" lon="11.200076"><ele>7.0</ele><time>2026-05-02T08:40:14.576Z</time></trkpt><trkpt lat="42.4032239" lon="11.2000162"><ele>7.0</ele><time>2026-05-02T08:40:15.576Z</time></trkpt><trkpt lat="42.4031035" lon="11.1999538"><ele>7.0</ele><time>2026-05-02T08:40:16.576Z</time></trkpt><trkpt lat="42.4029827" lon="11.1998855"><ele>7.0</ele><time>2026-05-02T08:40:17.576Z</time></trkpt><trkpt lat="42.402866" lon="11.199824"><ele>7.0</ele><time>2026-05-02T08:40:18.576Z</time></trkpt><trkpt lat="42.4027431" lon="11.1997615"><ele>7.0</ele><time>2026-05-02T08:40:19.575Z</time></trkpt><trkpt lat="42.4026244" lon="11.1997002"><ele>7.0</ele><time>2026-05-02T08:40:20.576Z</time></trkpt><trkpt lat="42.4025148" lon="11.1996306"><ele>7.0</ele><time>2026-05-02T08:40:21.575Z</time></trkpt><trkpt lat="42.4023977" lon="11.19957"><ele>7.0</ele><time>2026-05-02T08:40:22.576Z</time></trkpt><trkpt lat="42.4022753" lon="11.1995057"><ele>7.0</ele><time>2026-05-02T08:40:23.576Z</time></trkpt><trkpt lat="42.402159" lon="11.1994524"><ele>7.0</ele><time>2026-05-02T08:40:24.575Z</time></trkpt><trkpt lat="42.4020426" lon="11.1994046"><ele>7.199999999999999</ele><time>2026-05-02T08:40:25.576Z</time></trkpt><trkpt lat="42.4019299" lon="11.1993621"><ele>7.3999999999999995</ele><time>2026-05-02T08:40:26.576Z</time></trkpt><trkpt lat="42.4018203" lon="11.199332"><ele>7.6000000000000005</ele><time>2026-05-02T08:40:27.575Z</time></trkpt><trkpt lat="42.4017201" lon="11.1993049"><ele>7.800000000000001</ele><time>2026-05-02T08:40:28.576Z</time></trkpt><trkpt lat="42.4016372" lon="11.1992814"><ele>8.0</ele><time>2026-05-02T08:40:29.575Z</time></trkpt><trkpt lat="42.4015607" lon="11.1992495"><ele>8.0</ele><time>2026-05-02T08:40:30.576Z</time></trkpt><trkpt lat="42.4014991" lon="11.1992009"><ele>7.999999999999999</ele><time>2026-05-02T08:40:31.574Z</time></trkpt><trkpt lat="42.4014409" lon="11.1991552"><ele>8.0</ele><time>2026-05-02T08:40:32.576Z</time></trkpt><trkpt lat="42.4013816" lon="11.1991219"><ele>8.0</ele><time>2026-05-02T08:40:33.575Z</time></trkpt><trkpt lat="42.4013177" lon="11.1991198"><ele>7.999999999999999</ele><time>2026-05-02T08:40:34.576Z</time></trkpt><trkpt lat="42.4012591" lon="11.1991549"><ele>8.0</ele><time>2026-05-02T08:40:35.576Z</time></trkpt><trkpt lat="42.4012077" lon="11.1992157"><ele>8.0</ele><time>2026-05-02T08:40:36.576Z</time></trkpt><trkpt lat="42.4011643" lon="11.1992991"><ele>8.4</ele><time>2026-05-02T08:40:37.575Z</time></trkpt><trkpt lat="42.401099" lon="11.1993939"><ele>8.8</ele><time>2026-05-02T08:40:38.575Z</time></trkpt><trkpt lat="42.4010212" lon="11.1994759"><ele>9.2</ele><time>2026-05-02T08:40:39.577Z</time></trkpt><trkpt lat="42.4009398" lon="11.1995604"><ele>9.6</ele><time>2026-05-02T08:40:40.576Z</time></trkpt><trkpt lat="42.4008563" lon="11.199636"><ele>10.0</ele><time>2026-05-02T08:40:41.576Z</time></trkpt><trkpt lat="42.4007601" lon="11.1997108"><ele>10.0</ele><time>2026-05-02T08:40:42.576Z</time></trkpt><trkpt lat="42.4006541" lon="11.1997972"><ele>10.0</ele><time>2026-05-02T08:40:43.577Z</time></trkpt><trkpt lat="42.400526" lon="11.1998969"><ele>10.0</ele><time>2026-05-02T08:40:44.576Z</time></trkpt><trkpt lat="42.400399" lon="11.199985"><ele>10.0</ele><time>2026-05-02T08:40:45.577Z</time></trkpt><trkpt lat="42.4002688" lon="11.2000767"><ele>10.25</ele><time>2026-05-02T08:40:46.576Z</time></trkpt><trkpt lat="42.4001461" lon="11.2001653"><ele>10.5</ele><time>2026-05-02T08:40:47.576Z</time></trkpt><trkpt lat="42.40003" lon="11.2002533"><ele>10.75</ele><time>2026-05-02T08:40:48.574Z</time></trkpt><trkpt lat="42.3999189" lon="11.2003318"><ele>11.0</ele><time>2026-05-02T08:40:49.576Z</time></trkpt><trkpt lat="42.3998044" lon="11.2004149"><ele>11.0</ele><time>2026-05-02T08:40:50.576Z</time></trkpt><trkpt lat="42.3996894" lon="11.200497"><ele>11.0</ele><time>2026-05-02T08:40:51.575Z</time></trkpt><trkpt lat="42.3995769" lon="11.2005811"><ele>11.0</ele><time>2026-05-02T08:40:52.576Z</time></trkpt><trkpt lat="42.3994678" lon="11.2006631"><ele>11.0</ele><time>2026-05-02T08:40:53.576Z</time></trkpt><trkpt lat="42.3993556" lon="11.2007406"><ele>11.0</ele><time>2026-05-02T08:40:54.574Z</time></trkpt><trkpt lat="42.3992457" lon="11.2008127"><ele>11.0</ele><time>2026-05-02T08:40:55.575Z</time></trkpt><trkpt lat="42.3991386" lon="11.2008902"><ele>11.0</ele><time>2026-05-02T08:40:56.576Z</time></trkpt><trkpt lat="42.3990327" lon="11.2009608"><ele>11.0</ele><time>2026-05-02T08:40:57.577Z</time></trkpt><trkpt lat="42.3989227" lon="11.201037"><ele>11.75</ele><time>2026-05-02T08:40:58.576Z</time></trkpt><trkpt lat="42.3988159" lon="11.2011121"><ele>12.5</ele><time>2026-05-02T08:40:59.575Z</time></trkpt><trkpt lat="42.3987076" lon="11.2011862"><ele>13.25</ele><time>2026-05-02T08:41:00.576Z</time></trkpt><trkpt lat="42.3985938" lon="11.201263"><ele>14.0</ele><time>2026-05-02T08:41:01.576Z</time></trkpt><trkpt lat="42.398483" lon="11.2013411"><ele>14.0</ele><time>2026-05-02T08:41:02.574Z</time></trkpt><trkpt lat="42.3983753" lon="11.2014114"><ele>13.999999999999998</ele><time>2026-05-02T08:41:03.575Z</time></trkpt><trkpt lat="42.3982727" lon="11.201475"><ele>13.999999999999998</ele><time>2026-05-02T08:41:04.576Z</time></trkpt><trkpt lat="42.3981912" lon="11.2015336"><ele>14.0</ele><time>2026-05-02T08:41:05.577Z</time></trkpt><trkpt lat="42.3981145" lon="11.2015834"><ele>14.0</ele><time>2026-05-02T08:41:06.575Z</time></trkpt><trkpt lat="42.3980352" lon="11.2016269"><ele>14.799999999999999</ele><time>2026-05-02T08:41:07.575Z</time></trkpt><trkpt lat="42.3979554" lon="11.2016738"><ele>15.599999999999998</ele><time>2026-05-02T08:41:08.576Z</time></trkpt><trkpt lat="42.3978696" lon="11.2017126"><ele>16.4</ele><time>2026-05-02T08:41:09.575Z</time></trkpt><trkpt lat="42.3977763" lon="11.2017431"><ele>17.2</ele><time>2026-05-02T08:41:10.576Z</time></trkpt><trkpt lat="42.3976783" lon="11.2017751"><ele>18.0</ele><time>2026-05-02T08:41:11.575Z</time></trkpt><trkpt lat="42.397576" lon="11.20179"><ele>18.0</ele><time>2026-05-02T08:41:12.575Z</time></trkpt><trkpt lat="42.3974684" lon="11.2017792"><ele>18.0</ele><time>2026-05-02T08:41:13.575Z</time></trkpt><trkpt lat="42.3973709" lon="11.2017815"><ele>18.0</ele><time>2026-05-02T08:41:14.575Z</time></trkpt><trkpt lat="42.397282" lon="11.2017909"><ele>18.0</ele><time>2026-05-02T08:41:15.575Z</time></trkpt><trkpt lat="42.3971928" lon="11.2017915"><ele>18.0</ele><time>2026-05-02T08:41:16.575Z</time></trkpt><trkpt lat="42.3971149" lon="11.2017889"><ele>18.8</ele><time>2026-05-02T08:41:17.575Z</time></trkpt><trkpt lat="42.3970517" lon="11.201788"><ele>19.6</ele><time>2026-05-02T08:41:18.575Z</time></trkpt><trkpt lat="42.3969679" lon="11.201778"><ele>20.400000000000002</ele><time>2026-05-02T08:41:20.576Z</time></trkpt><trkpt lat="42.3968775" lon="11.2017872"><ele>21.200000000000003</ele><time>2026-05-02T08:41:33.574Z</time></trkpt><trkpt lat="42.3967754" lon="11.2018383"><ele>22.0</ele><time>2026-05-02T08:41:35.574Z</time></trkpt><trkpt lat="42.3966696" lon="11.2018875"><ele>22.0</ele><time>2026-05-02T08:41:37.576Z</time></trkpt><trkpt lat="42.3966049" lon="11.2019285"><ele>22.0</ele><time>2026-05-02T08:41:38.575Z</time></trkpt><trkpt lat="42.3965379" lon="11.2019769"><ele>22.0</ele><time>2026-05-02T08:41:39.574Z</time></trkpt><trkpt lat="42.3964639" lon="11.2020254"><ele>22.0</ele><time>2026-05-02T08:41:40.576Z</time></trkpt><trkpt lat="42.3963913" lon="11.2020701"><ele>22.0</ele><time>2026-05-02T08:41:41.575Z</time></trkpt><trkpt lat="42.3963296" lon="11.2021096"><ele>22.0</ele><time>2026-05-02T08:41:42.576Z</time></trkpt><trkpt lat="42.3962692" lon="11.2021516"><ele>22.0</ele><time>2026-05-02T08:41:43.575Z</time></trkpt><trkpt lat="42.3962113" lon="11.2021967"><ele>23.142857142857142</ele><time>2026-05-02T08:41:44.574Z</time></trkpt><trkpt lat="42.3961512" lon="11.2022461"><ele>24.285714285714285</ele><time>2026-05-02T08:41:45.575Z</time></trkpt><trkpt lat="42.3960904" lon="11.202294"><ele>25.42857142857143</ele><time>2026-05-02T08:41:46.575Z</time></trkpt><trkpt lat="42.3960364" lon="11.2023434"><ele>26.57142857142857</ele><time>2026-05-02T08:41:47.576Z</time></trkpt><trkpt lat="42.3959886" lon="11.2024111"><ele>27.71428571428571</ele><time>2026-05-02T08:41:48.575Z</time></trkpt><trkpt lat="42.3959462" lon="11.2024857"><ele>28.857142857142858</ele><time>2026-05-02T08:41:49.576Z</time></trkpt><trkpt lat="42.3959083" lon="11.2025586"><ele>30.0</ele><time>2026-05-02T08:41:50.576Z</time></trkpt><trkpt lat="42.3958501" lon="11.2026691"><ele>30.0</ele><time>2026-05-02T08:41:52.576Z</time></trkpt><trkpt lat="42.3957907" lon="11.202773"><ele>30.0</ele><time>2026-05-02T08:41:54.574Z</time></trkpt><trkpt lat="42.3957276" lon="11.2028893"><ele>30.0</ele><time>2026-05-02T08:41:56.575Z</time></trkpt><trkpt lat="42.3956915" lon="11.202961"><ele>30.0</ele><time>2026-05-02T08:41:57.576Z</time></trkpt><trkpt lat="42.3956184" lon="11.2030993"><ele>30.0</ele><time>2026-05-02T08:41:59.575Z</time></trkpt><trkpt lat="42.3955324" lon="11.2032241"><ele>28.2</ele><time>2026-05-02T08:42:01.574Z</time></trkpt><trkpt lat="42.3954465" lon="11.2033398"><ele>26.4</ele><time>2026-05-02T08:42:03.575Z</time></trkpt><trkpt lat="42.3953531" lon="11.2034342"><ele>24.6</ele><time>2026-05-02T08:42:05.576Z</time></trkpt><trkpt lat="42.3952543" lon="11.2035061"><ele>22.8</ele><time>2026-05-02T08:42:07.575Z</time></trkpt><trkpt lat="42.3951926" lon="11.2035446"><ele>21.0</ele><time>2026-05-02T08:42:08.575Z</time></trkpt><trkpt lat="42.3950788" lon="11.203593"><ele>21.0</ele><time>2026-05-02T08:42:10.574Z</time></trkpt><trkpt lat="42.3949794" lon="11.2036379"><ele>21.0</ele><time>2026-05-02T08:42:12.574Z</time></trkpt><trkpt lat="42.3948932" lon="11.2036631"><ele>21.0</ele><time>2026-05-02T08:42:14.574Z</time></trkpt><trkpt lat="42.3947959" lon="11.2036907"><ele>21.0</ele><time>2026-05-02T08:42:16.574Z</time></trkpt><trkpt lat="42.3946981" lon="11.2037116"><ele>21.0</ele><time>2026-05-02T08:42:18.576Z</time></trkpt><trkpt lat="42.3946025" lon="11.2037337"><ele>20.0</ele><time>2026-05-02T08:42:20.575Z</time></trkpt><trkpt lat="42.3945123" lon="11.2037583"><ele>19.0</ele><time>2026-05-02T08:42:22.576Z</time></trkpt><trkpt lat="42.3944168" lon="11.2037803"><ele>18.0</ele><time>2026-05-02T08:42:24.575Z</time></trkpt><trkpt lat="42.394328" lon="11.2038029"><ele>17.0</ele><time>2026-05-02T08:42:26.575Z</time></trkpt><trkpt lat="42.3942502" lon="11.2038258"><ele>16.0</ele><time>2026-05-02T08:42:28.575Z</time></trkpt><trkpt lat="42.3941776" lon="11.2038533"><ele>15.0</ele><time>2026-05-02T08:42:30.575Z</time></trkpt><trkpt lat="42.3940945" lon="11.2038788"><ele>15.0</ele><time>2026-05-02T08:42:33.575Z</time></trkpt><trkpt lat="42.3940303" lon="11.2039036"><ele>15.0</ele><time>2026-05-02T08:42:35.576Z</time></trkpt><trkpt lat="42.3939507" lon="11.2039222"><ele>15.0</ele><time>2026-05-02T08:42:37.575Z</time></trkpt><trkpt lat="42.3938479" lon="11.2039393"><ele>15.0</ele><time>2026-05-02T08:42:39.575Z</time></trkpt><trkpt lat="42.393735" lon="11.2039635"><ele>15.0</ele><time>2026-05-02T08:42:41.575Z</time></trkpt><trkpt lat="42.3936218" lon="11.2039812"><ele>14.5</ele><time>2026-05-02T08:42:43.575Z</time></trkpt><trkpt lat="42.393514" lon="11.2040166"><ele>14.0</ele><time>2026-05-02T08:42:45.576Z</time></trkpt><trkpt lat="42.3934418" lon="11.2040686"><ele>13.5</ele><time>2026-05-02T08:42:47.574Z</time></trkpt><trkpt lat="42.3933614" lon="11.2041614"><ele>13.0</ele><time>2026-05-02T08:42:49.575Z</time></trkpt><trkpt lat="42.3933165" lon="11.2042217"><ele>12.5</ele><time>2026-05-02T08:42:50.575Z</time></trkpt><trkpt lat="42.3932652" lon="11.2042765"><ele>12.0</ele><time>2026-05-02T08:42:51.575Z</time></trkpt><trkpt lat="42.3932021" lon="11.204344"><ele>12.0</ele><time>2026-05-02T08:42:52.575Z</time></trkpt><trkpt lat="42.3931051" lon="11.2044854"><ele>12.0</ele><time>2026-05-02T08:42:53.575Z</time></trkpt><trkpt lat="42.3930024" lon="11.2046089"><ele>12.0</ele><time>2026-05-02T08:42:54.575Z</time></trkpt><trkpt lat="42.3928801" lon="11.2047531"><ele>12.0</ele><time>2026-05-02T08:42:55.575Z</time></trkpt><trkpt lat="42.3927822" lon="11.2049171"><ele>14.333333333333332</ele><time>2026-05-02T08:42:56.575Z</time></trkpt><trkpt lat="42.3926835" lon="11.2051046"><ele>16.666666666666664</ele><time>2026-05-02T08:42:57.574Z</time></trkpt><trkpt lat="42.3925874" lon="11.2052706"><ele>19.0</ele><time>2026-05-02T08:42:58.574Z</time></trkpt><trkpt lat="42.3925145" lon="11.205413"><ele>19.0</ele><time>2026-05-02T08:42:59.576Z</time></trkpt><trkpt lat="42.3924492" lon="11.2055249"><ele>19.0</ele><time>2026-05-02T08:43:00.576Z</time></trkpt><trkpt lat="42.3923701" lon="11.2055925"><ele>19.0</ele><time>2026-05-02T08:43:01.575Z</time></trkpt><trkpt lat="42.3922839" lon="11.2056432"><ele>19.0</ele><time>2026-05-02T08:43:02.574Z</time></trkpt><trkpt lat="42.3921968" lon="11.2056945"><ele>19.0</ele><time>2026-05-02T08:43:03.576Z</time></trkpt><trkpt lat="42.3920884" lon="11.2057476"><ele>20.2</ele><time>2026-05-02T08:43:04.575Z</time></trkpt><trkpt lat="42.3919837" lon="11.2057965"><ele>21.4</ele><time>2026-05-02T08:43:05.575Z</time></trkpt><trkpt lat="42.391885" lon="11.2058449"><ele>22.6</ele><time>2026-05-02T08:43:06.575Z</time></trkpt><trkpt lat="42.391792" lon="11.2058871"><ele>23.8</ele><time>2026-05-02T08:43:07.575Z</time></trkpt><trkpt lat="42.3916969" lon="11.2059335"><ele>25.0</ele><time>2026-05-02T08:43:08.576Z</time></trkpt><trkpt lat="42.3916112" lon="11.2059954"><ele>25.0</ele><time>2026-05-02T08:43:09.575Z</time></trkpt><trkpt lat="42.3915311" lon="11.2060696"><ele>25.0</ele><time>2026-05-02T08:43:10.574Z</time></trkpt><trkpt lat="42.3914505" lon="11.2061627"><ele>25.0</ele><time>2026-05-02T08:43:11.574Z</time></trkpt><trkpt lat="42.3913758" lon="11.2062655"><ele>25.0</ele><time>2026-05-02T08:43:12.576Z</time></trkpt><trkpt lat="42.3913001" lon="11.206365"><ele>25.0</ele><time>2026-05-02T08:43:13.574Z</time></trkpt><trkpt lat="42.3912265" lon="11.2064606"><ele>25.8</ele><time>2026-05-02T08:43:14.574Z</time></trkpt><trkpt lat="42.3911569" lon="11.2065693"><ele>26.6</ele><time>2026-05-02T08:43:15.574Z</time></trkpt><trkpt lat="42.3910892" lon="11.2066705"><ele>27.4</ele><time>2026-05-02T08:43:16.575Z</time></trkpt><trkpt lat="42.3910176" lon="11.2067687"><ele>28.2</ele><time>2026-05-02T08:43:17.574Z</time></trkpt><trkpt lat="42.3909433" lon="11.2068685"><ele>29.0</ele><time>2026-05-02T08:43:18.575Z</time></trkpt><trkpt lat="42.3908746" lon="11.2069553"><ele>28.999999999999996</ele><time>2026-05-02T08:43:19.576Z</time></trkpt><trkpt lat="42.3908107" lon="11.2070424"><ele>29.0</ele><time>2026-05-02T08:43:20.574Z</time></trkpt><trkpt lat="42.3907422" lon="11.2071166"><ele>29.0</ele><time>2026-05-02T08:43:21.576Z</time></trkpt><trkpt lat="42.3906778" lon="11.2071851"><ele>29.0</ele><time>2026-05-02T08:43:22.574Z</time></trkpt><trkpt lat="42.3906138" lon="11.2072546"><ele>28.999999999999996</ele><time>2026-05-02T08:43:23.575Z</time></trkpt><trkpt lat="42.3905475" lon="11.2073191"><ele>29.0</ele><time>2026-05-02T08:43:24.576Z</time></trkpt><trkpt lat="42.3904897" lon="11.2073967"><ele>29.999999999999996</ele><time>2026-05-02T08:43:25.574Z</time></trkpt><trkpt lat="42.3904308" lon="11.2074777"><ele>31.0</ele><time>2026-05-02T08:43:26.576Z</time></trkpt><trkpt lat="42.390365" lon="11.2075536"><ele>32.0</ele><time>2026-05-02T08:43:27.574Z</time></trkpt><trkpt lat="42.3903134" lon="11.20763"><ele>33.0</ele><time>2026-05-02T08:43:28.575Z</time></trkpt><trkpt lat="42.3902519" lon="11.2077034"><ele>34.0</ele><time>2026-05-02T08:43:29.575Z</time></trkpt><trkpt lat="42.3901922" lon="11.2077752"><ele>35.0</ele><time>2026-05-02T08:43:30.575Z</time></trkpt><trkpt lat="42.3901256" lon="11.2078463"><ele>35.0</ele><time>2026-05-02T08:43:31.575Z</time></trkpt><trkpt lat="42.3900684" lon="11.2079109"><ele>35.0</ele><time>2026-05-02T08:43:32.574Z</time></trkpt><trkpt lat="42.3900097" lon="11.2079642"><ele>35.0</ele><time>2026-05-02T08:43:33.574Z</time></trkpt><trkpt lat="42.3899503" lon="11.2080216"><ele>35.0</ele><time>2026-05-02T08:43:34.574Z</time></trkpt><trkpt lat="42.3898962" lon="11.2080797"><ele>35.0</ele><time>2026-05-02T08:43:35.574Z</time></trkpt><trkpt lat="42.3898494" lon="11.2082397"><ele>35.0</ele><time>2026-05-02T08:43:37.574Z</time></trkpt><trkpt lat="42.3898417" lon="11.2083395"><ele>32.83333333333333</ele><time>2026-05-02T08:43:38.576Z</time></trkpt><trkpt lat="42.3898449" lon="11.2084445"><ele>30.666666666666664</ele><time>2026-05-02T08:43:39.574Z</time></trkpt><trkpt lat="42.3898582" lon="11.2085433"><ele>28.5</ele><time>2026-05-02T08:43:40.574Z</time></trkpt><trkpt lat="42.389894" lon="11.2086365"><ele>26.333333333333332</ele><time>2026-05-02T08:43:41.575Z</time></trkpt><trkpt lat="42.3899431" lon="11.208727"><ele>24.166666666666664</ele><time>2026-05-02T08:43:42.576Z</time></trkpt><trkpt lat="42.3900024" lon="11.2088156"><ele>22.0</ele><time>2026-05-02T08:43:43.575Z</time></trkpt><trkpt lat="42.3900589" lon="11.2088903"><ele>22.0</ele><time>2026-05-02T08:43:44.574Z</time></trkpt><trkpt lat="42.3901087" lon="11.2089554"><ele>22.0</ele><time>2026-05-02T08:43:45.574Z</time></trkpt><trkpt lat="42.3901538" lon="11.2090262"><ele>22.0</ele><time>2026-05-02T08:43:46.574Z</time></trkpt><trkpt lat="42.3902003" lon="11.2090923"><ele>22.0</ele><time>2026-05-02T08:43:47.576Z</time></trkpt><trkpt lat="42.390241" lon="11.2091626"><ele>22.0</ele><time>2026-05-02T08:43:48.575Z</time></trkpt><trkpt lat="42.3902863" lon="11.2092303"><ele>22.0</ele><time>2026-05-02T08:43:49.573Z</time></trkpt><trkpt lat="42.3903475" lon="11.2093262"><ele>22.0</ele><time>2026-05-02T08:43:51.575Z</time></trkpt><trkpt lat="42.3903978" lon="11.2093945"><ele>23.833333333333332</ele><time>2026-05-02T08:43:54.574Z</time></trkpt><trkpt lat="42.3904387" lon="11.209467"><ele>25.666666666666664</ele><time>2026-05-02T08:45:43.574Z</time></trkpt><trkpt lat="42.3904931" lon="11.209421"><ele>27.5</ele><time>2026-05-02T08:45:47.574Z</time></trkpt><trkpt lat="42.3904179" lon="11.209348"><ele>29.333333333333332</ele><time>2026-05-02T08:45:50.574Z</time></trkpt><trkpt lat="42.3903297" lon="11.2092659"><ele>31.166666666666668</ele><time>2026-05-02T08:45:53.575Z</time></trkpt><trkpt lat="42.390257" lon="11.2091787"><ele>33.0</ele><time>2026-05-02T08:45:55.574Z</time></trkpt><trkpt lat="42.3901793" lon="11.2090701"><ele>33.0</ele><time>2026-05-02T08:45:57.573Z</time></trkpt><trkpt lat="42.3901407" lon="11.209002"><ele>33.0</ele><time>2026-05-02T08:45:58.574Z</time></trkpt><trkpt lat="42.3900998" lon="11.2089335"><ele>33.0</ele><time>2026-05-02T08:45:59.576Z</time></trkpt><trkpt lat="42.3900558" lon="11.208868"><ele>33.0</ele><time>2026-05-02T08:46:00.574Z</time></trkpt><trkpt lat="42.3900089" lon="11.2087966"><ele>33.0</ele><time>2026-05-02T08:46:01.576Z</time></trkpt><trkpt lat="42.3899553" lon="11.2087276"><ele>33.0</ele><time>2026-05-02T08:46:02.574Z</time></trkpt><trkpt lat="42.3899108" lon="11.2086587"><ele>33.0</ele><time>2026-05-02T08:46:03.573Z</time></trkpt><trkpt lat="42.3898588" lon="11.2085166"><ele>33.333333333333336</ele><time>2026-05-02T08:46:05.574Z</time></trkpt><trkpt lat="42.3898462" lon="11.2083429"><ele>33.666666666666664</ele><time>2026-05-02T08:46:07.574Z</time></trkpt><trkpt lat="42.3898604" lon="11.2082525"><ele>34.0</ele><time>2026-05-02T08:46:08.574Z</time></trkpt><trkpt lat="42.3898827" lon="11.2081636"><ele>34.33333333333333</ele><time>2026-05-02T08:46:09.573Z</time></trkpt><trkpt lat="42.3899257" lon="11.2080787"><ele>34.666666666666664</ele><time>2026-05-02T08:46:10.574Z</time></trkpt><trkpt lat="42.389985" lon="11.2079969"><ele>35.0</ele><time>2026-05-02T08:46:11.575Z</time></trkpt><trkpt lat="42.3900544" lon="11.207929"><ele>35.0</ele><time>2026-05-02T08:46:12.573Z</time></trkpt><trkpt lat="42.3901245" lon="11.207855"><ele>35.0</ele><time>2026-05-02T08:46:13.575Z</time></trkpt><trkpt lat="42.3901904" lon="11.2077813"><ele>35.0</ele><time>2026-05-02T08:46:14.574Z</time></trkpt><trkpt lat="42.3902598" lon="11.2076909"><ele>35.0</ele><time>2026-05-02T08:46:15.575Z</time></trkpt><trkpt lat="42.3903257" lon="11.2076018"><ele>35.0</ele><time>2026-05-02T08:46:16.574Z</time></trkpt><trkpt lat="42.39039" lon="11.2075141"><ele>35.0</ele><time>2026-05-02T08:46:17.573Z</time></trkpt><trkpt lat="42.3904557" lon="11.2074252"><ele>35.0</ele><time>2026-05-02T08:46:18.573Z</time></trkpt><trkpt lat="42.3905343" lon="11.207347"><ele>35.0</ele><time>2026-05-02T08:46:19.574Z</time></trkpt><trkpt lat="42.3906081" lon="11.2072729"><ele>35.0</ele><time>2026-05-02T08:46:20.573Z</time></trkpt><trkpt lat="42.390688" lon="11.2072013"><ele>35.0</ele><time>2026-05-02T08:46:21.574Z</time></trkpt><trkpt lat="42.3907566" lon="11.2071231"><ele>33.8</ele><time>2026-05-02T08:46:22.573Z</time></trkpt><trkpt lat="42.390825" lon="11.2070421"><ele>32.6</ele><time>2026-05-02T08:46:23.573Z</time></trkpt><trkpt lat="42.3908934" lon="11.206957"><ele>31.4</ele><time>2026-05-02T08:46:24.573Z</time></trkpt><trkpt lat="42.3909613" lon="11.2068737"><ele>30.2</ele><time>2026-05-02T08:46:25.575Z</time></trkpt><trkpt lat="42.3910339" lon="11.2067802"><ele>29.0</ele><time>2026-05-02T08:46:26.573Z</time></trkpt><trkpt lat="42.3911043" lon="11.2066871"><ele>29.0</ele><time>2026-05-02T08:46:27.574Z</time></trkpt><trkpt lat="42.3911726" lon="11.2065904"><ele>29.0</ele><time>2026-05-02T08:46:28.574Z</time></trkpt><trkpt lat="42.3912399" lon="11.2064993"><ele>29.0</ele><time>2026-05-02T08:46:29.574Z</time></trkpt><trkpt lat="42.3913128" lon="11.2064047"><ele>29.0</ele><time>2026-05-02T08:46:30.574Z</time></trkpt><trkpt lat="42.3913859" lon="11.2063084"><ele>29.0</ele><time>2026-05-02T08:46:31.574Z</time></trkpt><trkpt lat="42.3914561" lon="11.2062146"><ele>28.333333333333332</ele><time>2026-05-02T08:46:32.574Z</time></trkpt><trkpt lat="42.3915257" lon="11.2061362"><ele>27.666666666666664</ele><time>2026-05-02T08:46:33.575Z</time></trkpt><trkpt lat="42.3915834" lon="11.2060637"><ele>27.0</ele><time>2026-05-02T08:46:34.574Z</time></trkpt><trkpt lat="42.3916553" lon="11.2060042"><ele>26.333333333333336</ele><time>2026-05-02T08:46:35.576Z</time></trkpt><trkpt lat="42.3917328" lon="11.2059451"><ele>25.666666666666668</ele><time>2026-05-02T08:46:36.573Z</time></trkpt><trkpt lat="42.3918175" lon="11.2058997"><ele>25.0</ele><time>2026-05-02T08:46:37.575Z</time></trkpt><trkpt lat="42.3919109" lon="11.2058561"><ele>25.000000000000004</ele><time>2026-05-02T08:46:38.573Z</time></trkpt><trkpt lat="42.3920025" lon="11.2058189"><ele>25.0</ele><time>2026-05-02T08:46:39.574Z</time></trkpt><trkpt lat="42.3920848" lon="11.2057821"><ele>25.0</ele><time>2026-05-02T08:46:40.575Z</time></trkpt><trkpt lat="42.392162" lon="11.2057437"><ele>25.0</ele><time>2026-05-02T08:46:41.575Z</time></trkpt><trkpt lat="42.3922438" lon="11.2057022"><ele>25.000000000000004</ele><time>2026-05-02T08:46:42.574Z</time></trkpt><trkpt lat="42.3923122" lon="11.2056649"><ele>25.0</ele><time>2026-05-02T08:46:43.574Z</time></trkpt><trkpt lat="42.3923817" lon="11.2056194"><ele>23.8</ele><time>2026-05-02T08:46:44.573Z</time></trkpt><trkpt lat="42.3924489" lon="11.2055468"><ele>22.6</ele><time>2026-05-02T08:46:45.575Z</time></trkpt><trkpt lat="42.3925078" lon="11.205448"><ele>21.4</ele><time>2026-05-02T08:46:46.574Z</time></trkpt><trkpt lat="42.3925672" lon="11.2053326"><ele>20.2</ele><time>2026-05-02T08:46:47.574Z</time></trkpt><trkpt lat="42.3926294" lon="11.2052239"><ele>19.0</ele><time>2026-05-02T08:46:48.574Z</time></trkpt><trkpt lat="42.3926867" lon="11.2051104"><ele>19.0</ele><time>2026-05-02T08:46:49.573Z</time></trkpt><trkpt lat="42.3927442" lon="11.2050034"><ele>19.0</ele><time>2026-05-02T08:46:50.573Z</time></trkpt><trkpt lat="42.3928014" lon="11.2048967"><ele>19.0</ele><time>2026-05-02T08:46:51.574Z</time></trkpt><trkpt lat="42.3928684" lon="11.2047883"><ele>19.0</ele><time>2026-05-02T08:46:52.574Z</time></trkpt><trkpt lat="42.3929383" lon="11.2046865"><ele>19.0</ele><time>2026-05-02T08:46:53.574Z</time></trkpt><trkpt lat="42.3930218" lon="11.2045868"><ele>17.599999999999998</ele><time>2026-05-02T08:46:54.573Z</time></trkpt><trkpt lat="42.3931051" lon="11.204491"><ele>16.2</ele><time>2026-05-02T08:46:55.574Z</time></trkpt><trkpt lat="42.3931767" lon="11.2043982"><ele>14.799999999999999</ele><time>2026-05-02T08:46:56.574Z</time></trkpt><trkpt lat="42.3932547" lon="11.2043076"><ele>13.399999999999999</ele><time>2026-05-02T08:46:57.574Z</time></trkpt><trkpt lat="42.3933361" lon="11.2042374"><ele>12.0</ele><time>2026-05-02T08:46:58.573Z</time></trkpt><trkpt lat="42.3934007" lon="11.2041718"><ele>12.0</ele><time>2026-05-02T08:46:59.575Z</time></trkpt><trkpt lat="42.3934568" lon="11.2041147"><ele>12.0</ele><time>2026-05-02T08:47:00.574Z</time></trkpt><trkpt lat="42.3935542" lon="11.2040474"><ele>12.0</ele><time>2026-05-02T08:47:02.574Z</time></trkpt><trkpt lat="42.3936688" lon="11.2040173"><ele>12.0</ele><time>2026-05-02T08:47:04.573Z</time></trkpt><trkpt lat="42.3937379" lon="11.2039977"><ele>12.0</ele><time>2026-05-02T08:47:05.574Z</time></trkpt><trkpt lat="42.3938185" lon="11.2039811"><ele>12.0</ele><time>2026-05-02T08:47:06.573Z</time></trkpt><trkpt lat="42.3938986" lon="11.2039649"><ele>12.5</ele><time>2026-05-02T08:47:07.573Z</time></trkpt><trkpt lat="42.3939831" lon="11.203946"><ele>13.0</ele><time>2026-05-02T08:47:08.575Z</time></trkpt><trkpt lat="42.3940698" lon="11.2039251"><ele>13.5</ele><time>2026-05-02T08:47:09.574Z</time></trkpt><trkpt lat="42.3941562" lon="11.2039078"><ele>14.0</ele><time>2026-05-02T08:47:10.574Z</time></trkpt><trkpt lat="42.3942384" lon="11.2038885"><ele>14.5</ele><time>2026-05-02T08:47:11.574Z</time></trkpt><trkpt lat="42.3943272" lon="11.2038582"><ele>15.0</ele><time>2026-05-02T08:47:12.575Z</time></trkpt><trkpt lat="42.3944101" lon="11.2038352"><ele>15.0</ele><time>2026-05-02T08:47:13.573Z</time></trkpt><trkpt lat="42.3944838" lon="11.2038168"><ele>15.0</ele><time>2026-05-02T08:47:14.573Z</time></trkpt><trkpt lat="42.3945506" lon="11.2038025"><ele>15.0</ele><time>2026-05-02T08:47:15.574Z</time></trkpt><trkpt lat="42.3946151" lon="11.2037806"><ele>15.0</ele><time>2026-05-02T08:47:16.575Z</time></trkpt><trkpt lat="42.394681" lon="11.2037588"><ele>15.0</ele><time>2026-05-02T08:47:17.573Z</time></trkpt><trkpt lat="42.3947535" lon="11.2037399"><ele>15.0</ele><time>2026-05-02T08:47:18.573Z</time></trkpt><trkpt lat="42.3948354" lon="11.2037247"><ele>15.0</ele><time>2026-05-02T08:47:19.575Z</time></trkpt><trkpt lat="42.3949121" lon="11.2037059"><ele>16.0</ele><time>2026-05-02T08:47:20.573Z</time></trkpt><trkpt lat="42.3949985" lon="11.203673"><ele>17.0</ele><time>2026-05-02T08:47:21.573Z</time></trkpt><trkpt lat="42.3950835" lon="11.2036325"><ele>18.0</ele><time>2026-05-02T08:47:22.575Z</time></trkpt><trkpt lat="42.3951674" lon="11.2035887"><ele>19.0</ele><time>2026-05-02T08:47:23.574Z</time></trkpt><trkpt lat="42.3952482" lon="11.2035426"><ele>20.0</ele><time>2026-05-02T08:47:24.574Z</time></trkpt><trkpt lat="42.3953234" lon="11.2034759"><ele>21.0</ele><time>2026-05-02T08:47:25.574Z</time></trkpt><trkpt lat="42.3953886" lon="11.2034056"><ele>21.0</ele><time>2026-05-02T08:47:26.575Z</time></trkpt><trkpt lat="42.3954557" lon="11.2033313"><ele>21.0</ele><time>2026-05-02T08:47:27.574Z</time></trkpt><trkpt lat="42.3955208" lon="11.2032545"><ele>21.0</ele><time>2026-05-02T08:47:28.574Z</time></trkpt><trkpt lat="42.3955822" lon="11.2031699"><ele>21.0</ele><time>2026-05-02T08:47:29.574Z</time></trkpt><trkpt lat="42.3956434" lon="11.203075"><ele>21.0</ele><time>2026-05-02T08:47:30.574Z</time></trkpt><trkpt lat="42.3956952" lon="11.2029741"><ele>21.0</ele><time>2026-05-02T08:47:31.574Z</time></trkpt><trkpt lat="42.3957492" lon="11.2028854"><ele>22.5</ele><time>2026-05-02T08:47:32.574Z</time></trkpt><trkpt lat="42.3958017" lon="11.2027953"><ele>24.0</ele><time>2026-05-02T08:47:33.573Z</time></trkpt><trkpt lat="42.3958533" lon="11.2027051"><ele>25.5</ele><time>2026-05-02T08:47:34.573Z</time></trkpt><trkpt lat="42.3959076" lon="11.2026133"><ele>27.0</ele><time>2026-05-02T08:47:35.574Z</time></trkpt><trkpt lat="42.3959577" lon="11.2025251"><ele>28.5</ele><time>2026-05-02T08:47:36.573Z</time></trkpt><trkpt lat="42.3960039" lon="11.2024473"><ele>30.0</ele><time>2026-05-02T08:47:37.575Z</time></trkpt><trkpt lat="42.3960527" lon="11.202385"><ele>30.42857142857143</ele><time>2026-05-02T08:47:38.573Z</time></trkpt><trkpt lat="42.3961072" lon="11.2023199"><ele>30.857142857142854</ele><time>2026-05-02T08:47:39.573Z</time></trkpt><trkpt lat="42.3961649" lon="11.2022744"><ele>31.285714285714285</ele><time>2026-05-02T08:47:40.573Z</time></trkpt><trkpt lat="42.3962257" lon="11.2022287"><ele>31.714285714285715</ele><time>2026-05-02T08:47:41.575Z</time></trkpt><trkpt lat="42.3962894" lon="11.2021881"><ele>32.142857142857146</ele><time>2026-05-02T08:47:42.574Z</time></trkpt><trkpt lat="42.3963589" lon="11.2021459"><ele>32.57142857142857</ele><time>2026-05-02T08:47:43.574Z</time></trkpt><trkpt lat="42.3964302" lon="11.2020944"><ele>33.0</ele><time>2026-05-02T08:47:44.574Z</time></trkpt><trkpt lat="42.3965035" lon="11.2020434"><ele>31.166666666666668</ele><time>2026-05-02T08:47:45.575Z</time></trkpt><trkpt lat="42.3965826" lon="11.201993"><ele>29.333333333333332</ele><time>2026-05-02T08:47:46.574Z</time></trkpt><trkpt lat="42.3966583" lon="11.2019483"><ele>27.5</ele><time>2026-05-02T08:47:47.573Z</time></trkpt><trkpt lat="42.3967306" lon="11.2019053"><ele>25.666666666666664</ele><time>2026-05-02T08:47:48.573Z</time></trkpt><trkpt lat="42.3968037" lon="11.2018721"><ele>23.833333333333332</ele><time>2026-05-02T08:47:49.573Z</time></trkpt><trkpt lat="42.3968753" lon="11.2018508"><ele>22.0</ele><time>2026-05-02T08:47:50.574Z</time></trkpt><trkpt lat="42.3969559" lon="11.2018359"><ele>22.0</ele><time>2026-05-02T08:47:51.573Z</time></trkpt><trkpt lat="42.3970423" lon="11.201825"><ele>22.0</ele><time>2026-05-02T08:47:52.574Z</time></trkpt><trkpt lat="42.3971291" lon="11.201824"><ele>22.0</ele><time>2026-05-02T08:47:53.573Z</time></trkpt><trkpt lat="42.3972154" lon="11.2018266"><ele>22.0</ele><time>2026-05-02T08:47:54.574Z</time></trkpt><trkpt lat="42.397298" lon="11.201822"><ele>22.0</ele><time>2026-05-02T08:47:55.573Z</time></trkpt><trkpt lat="42.3973815" lon="11.2018258"><ele>22.0</ele><time>2026-05-02T08:47:56.573Z</time></trkpt><trkpt lat="42.3974682" lon="11.2018267"><ele>21.333333333333332</ele><time>2026-05-02T08:47:57.575Z</time></trkpt><trkpt lat="42.3975584" lon="11.2018309"><ele>20.666666666666664</ele><time>2026-05-02T08:47:58.575Z</time></trkpt><trkpt lat="42.3976469" lon="11.2018259"><ele>20.0</ele><time>2026-05-02T08:47:59.574Z</time></trkpt><trkpt lat="42.3977374" lon="11.201809"><ele>19.333333333333332</ele><time>2026-05-02T08:48:00.573Z</time></trkpt><trkpt lat="42.3978236" lon="11.2017895"><ele>18.666666666666668</ele><time>2026-05-02T08:48:01.574Z</time></trkpt><trkpt lat="42.3979084" lon="11.2017577"><ele>18.0</ele><time>2026-05-02T08:48:02.573Z</time></trkpt><trkpt lat="42.3979856" lon="11.2017128"><ele>17.2</ele><time>2026-05-02T08:48:03.573Z</time></trkpt><trkpt lat="42.3980651" lon="11.2016557"><ele>16.4</ele><time>2026-05-02T08:48:04.574Z</time></trkpt><trkpt lat="42.3981453" lon="11.2016009"><ele>15.599999999999998</ele><time>2026-05-02T08:48:05.573Z</time></trkpt><trkpt lat="42.3982308" lon="11.2015447"><ele>14.799999999999999</ele><time>2026-05-02T08:48:06.574Z</time></trkpt><trkpt lat="42.3983173" lon="11.201492"><ele>14.0</ele><time>2026-05-02T08:48:07.573Z</time></trkpt><trkpt lat="42.3984043" lon="11.2014308"><ele>14.0</ele><time>2026-05-02T08:48:08.572Z</time></trkpt><trkpt lat="42.3984883" lon="11.2013779"><ele>13.999999999999998</ele><time>2026-05-02T08:48:09.574Z</time></trkpt><trkpt lat="42.3985738" lon="11.2013216"><ele>13.999999999999998</ele><time>2026-05-02T08:48:10.572Z</time></trkpt><trkpt lat="42.3986585" lon="11.2012674"><ele>14.0</ele><time>2026-05-02T08:48:11.574Z</time></trkpt><trkpt lat="42.3987432" lon="11.2012059"><ele>14.0</ele><time>2026-05-02T08:48:12.572Z</time></trkpt><trkpt lat="42.3988311" lon="11.2011447"><ele>13.399999999999999</ele><time>2026-05-02T08:48:13.574Z</time></trkpt><trkpt lat="42.3989194" lon="11.2010842"><ele>12.799999999999999</ele><time>2026-05-02T08:48:14.572Z</time></trkpt><trkpt lat="42.3990125" lon="11.2010274"><ele>12.2</ele><time>2026-05-02T08:48:15.574Z</time></trkpt><trkpt lat="42.3990983" lon="11.2009636"><ele>11.600000000000001</ele><time>2026-05-02T08:48:16.572Z</time></trkpt><trkpt lat="42.3991859" lon="11.2009021"><ele>11.0</ele><time>2026-05-02T08:48:17.572Z</time></trkpt><trkpt lat="42.3992797" lon="11.2008324"><ele>11.0</ele><time>2026-05-02T08:48:18.573Z</time></trkpt><trkpt lat="42.3993731" lon="11.2007642"><ele>11.0</ele><time>2026-05-02T08:48:19.573Z</time></trkpt><trkpt lat="42.3994661" lon="11.200698"><ele>11.0</ele><time>2026-05-02T08:48:20.573Z</time></trkpt><trkpt lat="42.3995596" lon="11.2006294"><ele>11.0</ele><time>2026-05-02T08:48:21.574Z</time></trkpt><trkpt lat="42.3996561" lon="11.2005609"><ele>11.0</ele><time>2026-05-02T08:48:22.572Z</time></trkpt><trkpt lat="42.399751" lon="11.2004934"><ele>11.0</ele><time>2026-05-02T08:48:23.573Z</time></trkpt><trkpt lat="42.3998455" lon="11.2004252"><ele>11.0</ele><time>2026-05-02T08:48:24.574Z</time></trkpt><trkpt lat="42.3999381" lon="11.2003549"><ele>11.0</ele><time>2026-05-02T08:48:25.573Z</time></trkpt><trkpt lat="42.400035" lon="11.2002874"><ele>11.0</ele><time>2026-05-02T08:48:26.573Z</time></trkpt><trkpt lat="42.4001323" lon="11.2002205"><ele>11.0</ele><time>2026-05-02T08:48:27.573Z</time></trkpt><trkpt lat="42.4002322" lon="11.2001581"><ele>11.0</ele><time>2026-05-02T08:48:28.573Z</time></trkpt><trkpt lat="42.4003235" lon="11.200092"><ele>11.0</ele><time>2026-05-02T08:48:29.572Z</time></trkpt><trkpt lat="42.4004139" lon="11.2000276"><ele>11.0</ele><time>2026-05-02T08:48:30.573Z</time></trkpt><trkpt lat="42.4005017" lon="11.1999603"><ele>11.0</ele><time>2026-05-02T08:48:31.573Z</time></trkpt><trkpt lat="42.4005879" lon="11.1998966"><ele>11.0</ele><time>2026-05-02T08:48:32.573Z</time></trkpt><trkpt lat="42.4006743" lon="11.1998311"><ele>10.833333333333332</ele><time>2026-05-02T08:48:33.574Z</time></trkpt><trkpt lat="42.4007619" lon="11.1997687"><ele>10.666666666666666</ele><time>2026-05-02T08:48:34.574Z</time></trkpt><trkpt lat="42.4008396" lon="11.1997079"><ele>10.5</ele><time>2026-05-02T08:48:35.573Z</time></trkpt><trkpt lat="42.4009161" lon="11.1996563"><ele>10.333333333333334</ele><time>2026-05-02T08:48:36.573Z</time></trkpt><trkpt lat="42.4009834" lon="11.199602"><ele>10.166666666666668</ele><time>2026-05-02T08:48:37.574Z</time></trkpt><trkpt lat="42.4010503" lon="11.1995498"><ele>10.0</ele><time>2026-05-02T08:48:38.574Z</time></trkpt><trkpt lat="42.4011126" lon="11.1995023"><ele>10.0</ele><time>2026-05-02T08:48:39.573Z</time></trkpt><trkpt lat="42.4011821" lon="11.1994638"><ele>10.0</ele><time>2026-05-02T08:48:40.574Z</time></trkpt><trkpt lat="42.4012602" lon="11.1994447"><ele>10.0</ele><time>2026-05-02T08:48:41.574Z</time></trkpt><trkpt lat="42.4013444" lon="11.1994218"><ele>10.0</ele><time>2026-05-02T08:48:42.572Z</time></trkpt><trkpt lat="42.4014272" lon="11.1993826"><ele>10.0</ele><time>2026-05-02T08:48:43.573Z</time></trkpt><trkpt lat="42.4015184" lon="11.1993469"><ele>10.0</ele><time>2026-05-02T08:48:44.573Z</time></trkpt><trkpt lat="42.4016134" lon="11.1993393"><ele>9.6</ele><time>2026-05-02T08:48:45.573Z</time></trkpt><trkpt lat="42.4017124" lon="11.1993484"><ele>9.2</ele><time>2026-05-02T08:48:46.574Z</time></trkpt><trkpt lat="42.4018136" lon="11.1993664"><ele>8.8</ele><time>2026-05-02T08:48:47.573Z</time></trkpt><trkpt lat="42.4019122" lon="11.1993969"><ele>8.4</ele><time>2026-05-02T08:48:48.573Z</time></trkpt><trkpt lat="42.4020128" lon="11.1994253"><ele>8.0</ele><time>2026-05-02T08:48:49.572Z</time></trkpt><trkpt lat="42.4021096" lon="11.1994652"><ele>7.800000000000001</ele><time>2026-05-02T08:48:50.574Z</time></trkpt><trkpt lat="42.402205" lon="11.1995161"><ele>7.6000000000000005</ele><time>2026-05-02T08:48:51.572Z</time></trkpt><trkpt lat="42.402303" lon="11.1995692"><ele>7.3999999999999995</ele><time>2026-05-02T08:48:52.574Z</time></trkpt><trkpt lat="42.4024003" lon="11.1996232"><ele>7.199999999999999</ele><time>2026-05-02T08:48:53.574Z</time></trkpt><trkpt lat="42.4024986" lon="11.1996793"><ele>7.0</ele><time>2026-05-02T08:48:54.572Z</time></trkpt><trkpt lat="42.4025986" lon="11.1997349"><ele>7.0</ele><time>2026-05-02T08:48:55.573Z</time></trkpt><trkpt lat="42.4026965" lon="11.1997852"><ele>6.999999999999999</ele><time>2026-05-02T08:48:56.573Z</time></trkpt><trkpt lat="42.4027916" lon="11.1998352"><ele>6.999999999999999</ele><time>2026-05-02T08:48:57.574Z</time></trkpt><trkpt lat="42.4028927" lon="11.1998922"><ele>7.0</ele><time>2026-05-02T08:48:58.573Z</time></trkpt><trkpt lat="42.4029826" lon="11.1999455"><ele>7.0</ele><time>2026-05-02T08:48:59.573Z</time></trkpt><trkpt lat="42.4030702" lon="11.1999952"><ele>7.0</ele><time>2026-05-02T08:49:00.574Z</time></trkpt><trkpt lat="42.4031639" lon="11.2000448"><ele>6.999999999999999</ele><time>2026-05-02T08:49:01.574Z</time></trkpt><trkpt lat="42.4032551" lon="11.200093"><ele>6.999999999999999</ele><time>2026-05-02T08:49:02.574Z</time></trkpt><trkpt lat="42.4033529" lon="11.2001452"><ele>7.0</ele><time>2026-05-02T08:49:03.574Z</time></trkpt><trkpt lat="42.403453" lon="11.2002007"><ele>7.0</ele><time>2026-05-02T08:49:04.572Z</time></trkpt><trkpt lat="42.4035489" lon="11.2002476"><ele>7.000000000000001</ele><time>2026-05-02T08:49:05.573Z</time></trkpt><trkpt lat="42.4036322" lon="11.2002926"><ele>7.0</ele><time>2026-05-02T08:49:06.572Z</time></trkpt><trkpt lat="42.4036964" lon="11.2003322"><ele>7.0</ele><time>2026-05-02T08:49:07.573Z</time></trkpt><trkpt lat="42.4037801" lon="11.2003806"><ele>7.0</ele><time>2026-05-02T08:49:09.573Z</time></trkpt><trkpt lat="42.4038758" lon="11.2004126"><ele>7.000000000000001</ele><time>2026-05-02T08:49:42.574Z</time></trkpt><trkpt lat="42.4039381" lon="11.2004306"><ele>7.0</ele><time>2026-05-02T08:49:43.574Z</time></trkpt><trkpt lat="42.404015" lon="11.20045"><ele>7.166666666666667</ele><time>2026-05-02T08:49:44.574Z</time></trkpt><trkpt lat="42.4040933" lon="11.2004655"><ele>7.333333333333334</ele><time>2026-05-02T08:49:45.572Z</time></trkpt><trkpt lat="42.4041732" lon="11.2004762"><ele>7.5</ele><time>2026-05-02T08:49:46.574Z</time></trkpt><trkpt lat="42.4042621" lon="11.200486"><ele>7.666666666666666</ele><time>2026-05-02T08:49:47.573Z</time></trkpt><trkpt lat="42.4043508" lon="11.2004919"><ele>7.833333333333333</ele><time>2026-05-02T08:49:48.575Z</time></trkpt><trkpt lat="42.4044378" lon="11.200495"><ele>8.0</ele><time>2026-05-02T08:49:49.574Z</time></trkpt><trkpt lat="42.4045202" lon="11.2004944"><ele>7.999999999999999</ele><time>2026-05-02T08:49:50.573Z</time></trkpt><trkpt lat="42.4046059" lon="11.200488"><ele>8.0</ele><time>2026-05-02T08:49:51.573Z</time></trkpt><trkpt lat="42.4046892" lon="11.200484"><ele>8.0</ele><time>2026-05-02T08:49:52.574Z</time></trkpt><trkpt lat="42.404772" lon="11.2004774"><ele>8.0</ele><time>2026-05-02T08:49:53.572Z</time></trkpt><trkpt lat="42.4048532" lon="11.2004715"><ele>7.999999999999999</ele><time>2026-05-02T08:49:54.573Z</time></trkpt><trkpt lat="42.404932" lon="11.2004671"><ele>8.0</ele><time>2026-05-02T08:49:55.574Z</time></trkpt><trkpt lat="42.4050023" lon="11.2004598"><ele>9.0</ele><time>2026-05-02T08:49:56.573Z</time></trkpt><trkpt lat="42.4050687" lon="11.2004525"><ele>10.0</ele><time>2026-05-02T08:49:57.573Z</time></trkpt><trkpt lat="42.4051706" lon="11.2004481"><ele>11.0</ele><time>2026-05-02T08:49:59.573Z</time></trkpt><trkpt lat="42.4052496" lon="11.2004484"><ele>12.0</ele><time>2026-05-02T08:50:02.572Z</time></trkpt><trkpt lat="42.405319" lon="11.2004425"><ele>13.000000000000002</ele><time>2026-05-02T08:50:04.574Z</time></trkpt><trkpt lat="42.4054159" lon="11.2004366"><ele>14.0</ele><time>2026-05-02T08:50:06.572Z</time></trkpt><trkpt lat="42.4055184" lon="11.2004362"><ele>14.6</ele><time>2026-05-02T08:50:08.574Z</time></trkpt><trkpt lat="42.4055926" lon="11.2004343"><ele>15.2</ele><time>2026-05-02T08:50:09.574Z</time></trkpt><trkpt lat="42.4056778" lon="11.2004376"><ele>15.799999999999999</ele><time>2026-05-02T08:50:10.572Z</time></trkpt><trkpt lat="42.4057711" lon="11.2004387"><ele>16.4</ele><time>2026-05-02T08:50:11.574Z</time></trkpt><trkpt lat="42.4058801" lon="11.2004395"><ele>17.0</ele><time>2026-05-02T08:50:12.573Z</time></trkpt><trkpt lat="42.4059963" lon="11.200438"><ele>17.0</ele><time>2026-05-02T08:50:13.572Z</time></trkpt><trkpt lat="42.4061126" lon="11.2004367"><ele>17.0</ele><time>2026-05-02T08:50:14.574Z</time></trkpt><trkpt lat="42.4062341" lon="11.2004372"><ele>17.0</ele><time>2026-05-02T08:50:15.573Z</time></trkpt><trkpt lat="42.4063592" lon="11.2004317"><ele>17.0</ele><time>2026-05-02T08:50:16.573Z</time></trkpt><trkpt lat="42.4064866" lon="11.2004301"><ele>18.75</ele><time>2026-05-02T08:50:17.573Z</time></trkpt><trkpt lat="42.4066197" lon="11.2004302"><ele>20.5</ele><time>2026-05-02T08:50:18.573Z</time></trkpt><trkpt lat="42.4067572" lon="11.2004311"><ele>22.25</ele><time>2026-05-02T08:50:19.574Z</time></trkpt><trkpt lat="42.4068863" lon="11.2004292"><ele>24.0</ele><time>2026-05-02T08:50:20.573Z</time></trkpt><trkpt lat="42.4070148" lon="11.2004242"><ele>24.0</ele><time>2026-05-02T08:50:21.573Z</time></trkpt><trkpt lat="42.4071395" lon="11.2004202"><ele>24.0</ele><time>2026-05-02T08:50:22.572Z</time></trkpt><trkpt lat="42.4072715" lon="11.2004259"><ele>24.0</ele><time>2026-05-02T08:50:23.574Z</time></trkpt><trkpt lat="42.4073991" lon="11.2004295"><ele>24.0</ele><time>2026-05-02T08:50:24.573Z</time></trkpt><trkpt lat="42.4075192" lon="11.2004314"><ele>25.0</ele><time>2026-05-02T08:50:25.572Z</time></trkpt><trkpt lat="42.4076503" lon="11.2004295"><ele>26.0</ele><time>2026-05-02T08:50:26.573Z</time></trkpt><trkpt lat="42.407782" lon="11.2004268"><ele>27.0</ele><time>2026-05-02T08:50:27.574Z</time></trkpt><trkpt lat="42.4079066" lon="11.2004189"><ele>28.0</ele><time>2026-05-02T08:50:28.573Z</time></trkpt><trkpt lat="42.4080302" lon="11.2004167"><ele>28.0</ele><time>2026-05-02T08:50:29.572Z</time></trkpt><trkpt lat="42.4081567" lon="11.2004157"><ele>28.0</ele><time>2026-05-02T08:50:30.573Z</time></trkpt><trkpt lat="42.4082834" lon="11.2004213"><ele>28.0</ele><time>2026-05-02T08:50:31.572Z</time></trkpt><trkpt lat="42.4084071" lon="11.2004386"><ele>28.0</ele><time>2026-05-02T08:50:32.572Z</time></trkpt><trkpt lat="42.4085372" lon="11.2004888"><ele>28.0</ele><time>2026-05-02T08:50:33.573Z</time></trkpt><trkpt lat="42.4086655" lon="11.2005442"><ele>28.0</ele><time>2026-05-02T08:50:34.573Z</time></trkpt><trkpt lat="42.4087875" lon="11.200614"><ele>28.0</ele><time>2026-05-02T08:50:35.572Z</time></trkpt><trkpt lat="42.4089058" lon="11.2007038"><ele>28.0</ele><time>2026-05-02T08:50:36.572Z</time></trkpt><trkpt lat="42.4090169" lon="11.200808"><ele>26.75</ele><time>2026-05-02T08:50:37.573Z</time></trkpt><trkpt lat="42.4091225" lon="11.200917"><ele>25.5</ele><time>2026-05-02T08:50:38.573Z</time></trkpt><trkpt lat="42.4092334" lon="11.2010375"><ele>24.25</ele><time>2026-05-02T08:50:39.572Z</time></trkpt><trkpt lat="42.4093473" lon="11.2011588"><ele>23.0</ele><time>2026-05-02T08:50:40.572Z</time></trkpt><trkpt lat="42.4094554" lon="11.2012847"><ele>23.0</ele><time>2026-05-02T08:50:41.572Z</time></trkpt><trkpt lat="42.4095666" lon="11.2014084"><ele>23.0</ele><time>2026-05-02T08:50:42.572Z</time></trkpt><trkpt lat="42.4096801" lon="11.20154"><ele>23.0</ele><time>2026-05-02T08:50:43.572Z</time></trkpt><trkpt lat="42.4097994" lon="11.2016705"><ele>23.0</ele><time>2026-05-02T08:50:44.573Z</time></trkpt><trkpt lat="42.4099195" lon="11.2018029"><ele>21.666666666666668</ele><time>2026-05-02T08:50:45.573Z</time></trkpt><trkpt lat="42.4100385" lon="11.2019382"><ele>20.333333333333332</ele><time>2026-05-02T08:50:46.573Z</time></trkpt><trkpt lat="42.4101638" lon="11.2020736"><ele>19.0</ele><time>2026-05-02T08:50:47.572Z</time></trkpt><trkpt lat="42.410287" lon="11.202214"><ele>18.666666666666664</ele><time>2026-05-02T08:50:48.574Z</time></trkpt><trkpt lat="42.410418" lon="11.2023462"><ele>18.333333333333332</ele><time>2026-05-02T08:50:49.574Z</time></trkpt><trkpt lat="42.4105378" lon="11.2024877"><ele>18.0</ele><time>2026-05-02T08:50:50.573Z</time></trkpt><trkpt lat="42.4106659" lon="11.2026423"><ele>18.0</ele><time>2026-05-02T08:50:51.573Z</time></trkpt><trkpt lat="42.4108036" lon="11.2027783"><ele>18.0</ele><time>2026-05-02T08:50:52.573Z</time></trkpt><trkpt lat="42.4109341" lon="11.2029153"><ele>18.0</ele><time>2026-05-02T08:50:53.573Z</time></trkpt><trkpt lat="42.4110718" lon="11.2030425"><ele>18.0</ele><time>2026-05-02T08:50:54.573Z</time></trkpt><trkpt lat="42.4112122" lon="11.2031605"><ele>18.0</ele><time>2026-05-02T08:50:55.573Z</time></trkpt><trkpt lat="42.41135" lon="11.2032713"><ele>18.0</ele><time>2026-05-02T08:50:56.573Z</time></trkpt><trkpt lat="42.411491" lon="11.2033741"><ele>17.0</ele><time>2026-05-02T08:50:57.574Z</time></trkpt><trkpt lat="42.4116311" lon="11.2034797"><ele>16.0</ele><time>2026-05-02T08:50:58.572Z</time></trkpt><trkpt lat="42.4117684" lon="11.2035826"><ele>15.0</ele><time>2026-05-02T08:50:59.573Z</time></trkpt><trkpt lat="42.4119124" lon="11.2036858"><ele>15.0</ele><time>2026-05-02T08:51:00.573Z</time></trkpt><trkpt lat="42.4120493" lon="11.2037972"><ele>15.0</ele><time>2026-05-02T08:51:01.573Z</time></trkpt><trkpt lat="42.4121867" lon="11.2039038"><ele>15.0</ele><time>2026-05-02T08:51:02.571Z</time></trkpt><trkpt lat="42.4123268" lon="11.2040183"><ele>13.333333333333334</ele><time>2026-05-02T08:51:03.573Z</time></trkpt><trkpt lat="42.4124685" lon="11.2041261"><ele>11.666666666666668</ele><time>2026-05-02T08:51:04.572Z</time></trkpt><trkpt lat="42.4126066" lon="11.204225"><ele>10.0</ele><time>2026-05-02T08:51:05.572Z</time></trkpt><trkpt lat="42.4127453" lon="11.2043282"><ele>10.0</ele><time>2026-05-02T08:51:06.573Z</time></trkpt><trkpt lat="42.4128848" lon="11.2044255"><ele>10.0</ele><time>2026-05-02T08:51:07.573Z</time></trkpt><trkpt lat="42.4130285" lon="11.2045147"><ele>10.0</ele><time>2026-05-02T08:51:08.572Z</time></trkpt><trkpt lat="42.4131696" lon="11.2045909"><ele>11.666666666666668</ele><time>2026-05-02T08:51:09.572Z</time></trkpt><trkpt lat="42.4133205" lon="11.2046503"><ele>13.333333333333334</ele><time>2026-05-02T08:51:10.572Z</time></trkpt><trkpt lat="42.4134724" lon="11.2047"><ele>15.0</ele><time>2026-05-02T08:51:11.573Z</time></trkpt><trkpt lat="42.4136299" lon="11.2047399"><ele>15.0</ele><time>2026-05-02T08:51:12.574Z</time></trkpt><trkpt lat="42.4137953" lon="11.2047594"><ele>15.0</ele><time>2026-05-02T08:51:13.572Z</time></trkpt><trkpt lat="42.413959" lon="11.2047694"><ele>15.0</ele><time>2026-05-02T08:51:14.572Z</time></trkpt><trkpt lat="42.4141242" lon="11.2047777"><ele>16.333333333333332</ele><time>2026-05-02T08:51:15.572Z</time></trkpt><trkpt lat="42.41429" lon="11.2047806"><ele>17.666666666666664</ele><time>2026-05-02T08:51:16.572Z</time></trkpt><trkpt lat="42.414453" lon="11.2047764"><ele>19.0</ele><time>2026-05-02T08:51:17.572Z</time></trkpt><trkpt lat="42.4146104" lon="11.2047731"><ele>19.666666666666664</ele><time>2026-05-02T08:51:18.573Z</time></trkpt><trkpt lat="42.4147677" lon="11.2047727"><ele>20.333333333333332</ele><time>2026-05-02T08:51:19.573Z</time></trkpt><trkpt lat="42.4149239" lon="11.2047746"><ele>21.0</ele><time>2026-05-02T08:51:20.573Z</time></trkpt><trkpt lat="42.4150822" lon="11.204775"><ele>21.0</ele><time>2026-05-02T08:51:21.571Z</time></trkpt><trkpt lat="42.4152387" lon="11.2047709"><ele>21.0</ele><time>2026-05-02T08:51:22.573Z</time></trkpt><trkpt lat="42.4153956" lon="11.2047573"><ele>21.0</ele><time>2026-05-02T08:51:23.572Z</time></trkpt><trkpt lat="42.4155547" lon="11.2047323"><ele>19.0</ele><time>2026-05-02T08:51:24.573Z</time></trkpt><trkpt lat="42.4157094" lon="11.2046864"><ele>17.0</ele><time>2026-05-02T08:51:25.574Z</time></trkpt><trkpt lat="42.4158692" lon="11.2046256"><ele>15.0</ele><time>2026-05-02T08:51:26.574Z</time></trkpt><trkpt lat="42.4160325" lon="11.2045551"><ele>15.0</ele><time>2026-05-02T08:51:27.573Z</time></trkpt><trkpt lat="42.4161965" lon="11.204476"><ele>15.0</ele><time>2026-05-02T08:51:28.572Z</time></trkpt><trkpt lat="42.4163623" lon="11.2043916"><ele>15.0</ele><time>2026-05-02T08:51:29.573Z</time></trkpt><trkpt lat="42.4165333" lon="11.2043065"><ele>11.666666666666666</ele><time>2026-05-02T08:51:30.572Z</time></trkpt><trkpt lat="42.4167032" lon="11.2042169"><ele>8.333333333333334</ele><time>2026-05-02T08:51:31.573Z</time></trkpt><trkpt lat="42.4168756" lon="11.2041243"><ele>5.0</ele><time>2026-05-02T08:51:32.573Z</time></trkpt><trkpt lat="42.4170446" lon="11.2040314"><ele>3.3333333333333335</ele><time>2026-05-02T08:51:33.571Z</time></trkpt><trkpt lat="42.4172117" lon="11.2039447"><ele>1.6666666666666667</ele><time>2026-05-02T08:51:34.573Z</time></trkpt><trkpt lat="42.4173818" lon="11.2038566"><ele>0.0</ele><time>2026-05-02T08:51:35.572Z</time></trkpt><trkpt lat="42.4175501" lon="11.2037717"><ele>0.0</ele><time>2026-05-02T08:51:36.572Z</time></trkpt><trkpt lat="42.4177193" lon="11.2036972"><ele>0.0</ele><time>2026-05-02T08:51:37.572Z</time></trkpt><trkpt lat="42.4178854" lon="11.2036273"><ele>0.0</ele><time>2026-05-02T08:51:38.573Z</time></trkpt><trkpt lat="42.4180528" lon="11.2035694"><ele>0.0</ele><time>2026-05-02T08:51:39.573Z</time></trkpt><trkpt lat="42.4182195" lon="11.2035127"><ele>0.0</ele><time>2026-05-02T08:51:40.573Z</time></trkpt><trkpt lat="42.4183876" lon="11.2034524"><ele>0.0</ele><time>2026-05-02T08:51:41.573Z</time></trkpt><trkpt lat="42.4185528" lon="11.2033937"><ele>0.0</ele><time>2026-05-02T08:51:42.573Z</time></trkpt><trkpt lat="42.4187167" lon="11.2033384"><ele>0.0</ele><time>2026-05-02T08:51:43.573Z</time></trkpt><trkpt lat="42.4188795" lon="11.2032845"><ele>0.0</ele><time>2026-05-02T08:51:44.573Z</time></trkpt><trkpt lat="42.4190414" lon="11.2032241"><ele>-0.3333333333333333</ele><time>2026-05-02T08:51:45.572Z</time></trkpt><trkpt lat="42.4192034" lon="11.2031668"><ele>-0.6666666666666666</ele><time>2026-05-02T08:51:46.573Z</time></trkpt><trkpt lat="42.4193622" lon="11.2031213"><ele>-1.0</ele><time>2026-05-02T08:51:47.573Z</time></trkpt><trkpt lat="42.4195256" lon="11.2030705"><ele>-1.0</ele><time>2026-05-02T08:51:48.573Z</time></trkpt><trkpt lat="42.419686" lon="11.2030335"><ele>-1.0</ele><time>2026-05-02T08:51:49.573Z</time></trkpt><trkpt lat="42.4198529" lon="11.2029983"><ele>-1.0</ele><time>2026-05-02T08:51:50.573Z</time></trkpt><trkpt lat="42.4200221" lon="11.2029667"><ele>-1.0</ele><time>2026-05-02T08:51:51.573Z</time></trkpt><trkpt lat="42.42019" lon="11.2029304"><ele>-1.0</ele><time>2026-05-02T08:51:52.574Z</time></trkpt><trkpt lat="42.4203611" lon="11.2028999"><ele>-1.0</ele><time>2026-05-02T08:51:53.572Z</time></trkpt><trkpt lat="42.4205335" lon="11.2028743"><ele>-0.3333333333333333</ele><time>2026-05-02T08:51:54.572Z</time></trkpt><trkpt lat="42.4207049" lon="11.2028437"><ele>0.3333333333333333</ele><time>2026-05-02T08:51:55.573Z</time></trkpt><trkpt lat="42.4208744" lon="11.2028134"><ele>1.0</ele><time>2026-05-02T08:51:56.572Z</time></trkpt><trkpt lat="42.4210363" lon="11.2027882"><ele>1.0</ele><time>2026-05-02T08:51:57.573Z</time></trkpt><trkpt lat="42.4211954" lon="11.2027598"><ele>1.0</ele><time>2026-05-02T08:51:58.573Z</time></trkpt><trkpt lat="42.4213525" lon="11.2027325"><ele>1.0</ele><time>2026-05-02T08:51:59.571Z</time></trkpt><trkpt lat="42.4215089" lon="11.2027064"><ele>2.0</ele><time>2026-05-02T08:52:00.573Z</time></trkpt><trkpt lat="42.421662" lon="11.2026793"><ele>3.0</ele><time>2026-05-02T08:52:01.573Z</time></trkpt><trkpt lat="42.4218136" lon="11.2026484"><ele>4.0</ele><time>2026-05-02T08:52:02.573Z</time></trkpt><trkpt lat="42.4219626" lon="11.2026044"><ele>4.0</ele><time>2026-05-02T08:52:03.571Z</time></trkpt><trkpt lat="42.422107" lon="11.2025545"><ele>4.0</ele><time>2026-05-02T08:52:04.571Z</time></trkpt><trkpt lat="42.422252" lon="11.2024906"><ele>4.0</ele><time>2026-05-02T08:52:05.572Z</time></trkpt><trkpt lat="42.4223946" lon="11.202421"><ele>2.333333333333333</ele><time>2026-05-02T08:52:06.572Z</time></trkpt><trkpt lat="42.4225395" lon="11.2023487"><ele>0.6666666666666666</ele><time>2026-05-02T08:52:07.573Z</time></trkpt><trkpt lat="42.4226838" lon="11.2022762"><ele>-1.0</ele><time>2026-05-02T08:52:08.571Z</time></trkpt><trkpt lat="42.422827" lon="11.2022045"><ele>1.0</ele><time>2026-05-02T08:52:09.572Z</time></trkpt><trkpt lat="42.4229709" lon="11.2021281"><ele>3.0</ele><time>2026-05-02T08:52:10.571Z</time></trkpt><trkpt lat="42.42311" lon="11.2020525"><ele>5.0</ele><time>2026-05-02T08:52:11.573Z</time></trkpt><trkpt lat="42.423256" lon="11.2019828"><ele>5.0</ele><time>2026-05-02T08:52:12.573Z</time></trkpt><trkpt lat="42.4233947" lon="11.2019055"><ele>5.0</ele><time>2026-05-02T08:52:13.573Z</time></trkpt><trkpt lat="42.42353" lon="11.2018182"><ele>5.0</ele><time>2026-05-02T08:52:14.574Z</time></trkpt><trkpt lat="42.423656" lon="11.2017164"><ele>5.0</ele><time>2026-05-02T08:52:15.573Z</time></trkpt><trkpt lat="42.4237732" lon="11.2015999"><ele>4.5</ele><time>2026-05-02T08:52:16.571Z</time></trkpt><trkpt lat="42.4238805" lon="11.2014628"><ele>4.0</ele><time>2026-05-02T08:52:17.572Z</time></trkpt><trkpt lat="42.4239757" lon="11.2013075"><ele>3.5</ele><time>2026-05-02T08:52:18.574Z</time></trkpt><trkpt lat="42.4240656" lon="11.2011418"><ele>3.0</ele><time>2026-05-02T08:52:19.571Z</time></trkpt><trkpt lat="42.4241535" lon="11.200959"><ele>3.0</ele><time>2026-05-02T08:52:20.574Z</time></trkpt><trkpt lat="42.4242363" lon="11.2007675"><ele>3.0</ele><time>2026-05-02T08:52:21.572Z</time></trkpt><trkpt lat="42.4243153" lon="11.2005782"><ele>3.0</ele><time>2026-05-02T08:52:22.572Z</time></trkpt><trkpt lat="42.424396" lon="11.200399"><ele>3.0</ele><time>2026-05-02T08:52:23.572Z</time></trkpt><trkpt lat="42.4244664" lon="11.2002288"><ele>3.0</ele><time>2026-05-02T08:52:24.572Z</time></trkpt><trkpt lat="42.4245368" lon="11.2000528"><ele>3.0</ele><time>2026-05-02T08:52:25.571Z</time></trkpt><trkpt lat="42.4246059" lon="11.19988"><ele>3.0</ele><time>2026-05-02T08:52:26.572Z</time></trkpt><trkpt lat="42.4246802" lon="11.1997166"><ele>2.25</ele><time>2026-05-02T08:52:27.571Z</time></trkpt><trkpt lat="42.4247461" lon="11.1995556"><ele>1.5</ele><time>2026-05-02T08:52:28.572Z</time></trkpt><trkpt lat="42.4248208" lon="11.199404"><ele>0.75</ele><time>2026-05-02T08:52:29.572Z</time></trkpt><trkpt lat="42.4249008" lon="11.1992489"><ele>0.0</ele><time>2026-05-02T08:52:30.573Z</time></trkpt><trkpt lat="42.4249878" lon="11.1990912"><ele>0.0</ele><time>2026-05-02T08:52:31.572Z</time></trkpt><trkpt lat="42.4250744" lon="11.1989375"><ele>0.0</ele><time>2026-05-02T08:52:32.572Z</time></trkpt><trkpt lat="42.4251595" lon="11.1987929"><ele>0.0</ele><time>2026-05-02T08:52:33.572Z</time></trkpt><trkpt lat="42.4252409" lon="11.1986609"><ele>0.0</ele><time>2026-05-02T08:52:34.573Z</time></trkpt><trkpt lat="42.4253173" lon="11.198541"><ele>0.0</ele><time>2026-05-02T08:52:35.572Z</time></trkpt><trkpt lat="42.4253824" lon="11.1984344"><ele>0.0</ele><time>2026-05-02T08:52:36.572Z</time></trkpt><trkpt lat="42.4254368" lon="11.1983462"><ele>0.0</ele><time>2026-05-02T08:52:37.572Z</time></trkpt><trkpt lat="42.425481" lon="11.1982726"><ele>0.0</ele><time>2026-05-02T08:52:38.573Z</time></trkpt><trkpt lat="42.4255313" lon="11.1981794"><ele>0.0</ele><time>2026-05-02T08:52:40.571Z</time></trkpt><trkpt lat="42.4255589" lon="11.1980761"><ele>0.0</ele><time>2026-05-02T08:52:51.571Z</time></trkpt><trkpt lat="42.4255438" lon="11.1979613"><ele>0.14285714285714285</ele><time>2026-05-02T08:52:53.571Z</time></trkpt><trkpt lat="42.4255351" lon="11.1978679"><ele>0.2857142857142857</ele><time>2026-05-02T08:52:55.571Z</time></trkpt><trkpt lat="42.4255771" lon="11.1977876"><ele>0.42857142857142855</ele><time>2026-05-02T08:54:18.572Z</time></trkpt><trkpt lat="42.4255238" lon="11.1978481"><ele>0.5714285714285714</ele><time>2026-05-02T08:57:41.571Z</time></trkpt><trkpt lat="42.425584" lon="11.1977788"><ele>0.7142857142857142</ele><time>2026-05-02T09:07:03.568Z</time></trkpt><trkpt lat="42.4256468" lon="11.1977326"><ele>0.8571428571428571</ele><time>2026-05-02T09:07:05.567Z</time></trkpt><trkpt lat="42.4257246" lon="11.1977359"><ele>1.0</ele><time>2026-05-02T09:07:08.569Z</time></trkpt><trkpt lat="42.4257898" lon="11.1977214"><ele>0.9999999999999999</ele><time>2026-05-02T09:07:31.567Z</time></trkpt><trkpt lat="42.4258893" lon="11.1976284"><ele>1.0</ele><time>2026-05-02T09:07:33.569Z</time></trkpt><trkpt lat="42.4259328" lon="11.1975515"><ele>1.0</ele><time>2026-05-02T09:07:34.567Z</time></trkpt><trkpt lat="42.4259855" lon="11.1974767"><ele>1.0</ele><time>2026-05-02T09:07:35.569Z</time></trkpt><trkpt lat="42.4260479" lon="11.1974092"><ele>0.9999999999999999</ele><time>2026-05-02T09:07:36.568Z</time></trkpt><trkpt lat="42.4261113" lon="11.197343"><ele>1.0</ele><time>2026-05-02T09:07:37.567Z</time></trkpt><trkpt lat="42.4261749" lon="11.1972862"><ele>1.0</ele><time>2026-05-02T09:07:38.569Z</time></trkpt><trkpt lat="42.4262344" lon="11.1972354"><ele>0.9999999999999999</ele><time>2026-05-02T09:07:39.568Z</time></trkpt><trkpt lat="42.4262967" lon="11.197185"><ele>1.0</ele><time>2026-05-02T09:07:40.569Z</time></trkpt><trkpt lat="42.4263586" lon="11.1971372"><ele>1.0</ele><time>2026-05-02T09:07:41.567Z</time></trkpt><trkpt lat="42.4264218" lon="11.1970966"><ele>0.9999999999999999</ele><time>2026-05-02T09:07:42.568Z</time></trkpt><trkpt lat="42.4264809" lon="11.1970618"><ele>1.0</ele><time>2026-05-02T09:07:43.568Z</time></trkpt><trkpt lat="42.4265444" lon="11.1970249"><ele>1.0</ele><time>2026-05-02T09:07:44.568Z</time></trkpt><trkpt lat="42.4266116" lon="11.1969961"><ele>0.9999999999999999</ele><time>2026-05-02T09:07:45.568Z</time></trkpt><trkpt lat="42.426678" lon="11.196969"><ele>1.0</ele><time>2026-05-02T09:07:46.567Z</time></trkpt><trkpt lat="42.426743" lon="11.1969483"><ele>1.0</ele><time>2026-05-02T09:07:47.568Z</time></trkpt><trkpt lat="42.4268143" lon="11.1969301"><ele>1.0</ele><time>2026-05-02T09:07:48.568Z</time></trkpt><trkpt lat="42.4268849" lon="11.1969133"><ele>0.9999999999999999</ele><time>2026-05-02T09:07:49.568Z</time></trkpt><trkpt lat="42.4269489" lon="11.1968859"><ele>1.0</ele><time>2026-05-02T09:07:50.568Z</time></trkpt><trkpt lat="42.4270593" lon="11.1968522"><ele>0.6000000000000001</ele><time>2026-05-02T09:07:52.567Z</time></trkpt><trkpt lat="42.4271463" lon="11.1968266"><ele>0.20000000000000007</ele><time>2026-05-02T09:07:54.568Z</time></trkpt><trkpt lat="42.4272442" lon="11.1967945"><ele>-0.20000000000000007</ele><time>2026-05-02T09:07:56.568Z</time></trkpt><trkpt lat="42.4273482" lon="11.1967746"><ele>-0.6000000000000001</ele><time>2026-05-02T09:07:58.568Z</time></trkpt><trkpt lat="42.4274158" lon="11.1967686"><ele>-1.0</ele><time>2026-05-02T09:08:00.568Z</time></trkpt><trkpt lat="42.4275057" lon="11.1967911"><ele>-0.9999999999999999</ele><time>2026-05-02T09:08:03.569Z</time></trkpt><trkpt lat="42.4275699" lon="11.1968204"><ele>-1.0</ele><time>2026-05-02T09:08:05.566Z</time></trkpt><trkpt lat="42.4276537" lon="11.1968477"><ele>-1.0</ele><time>2026-05-02T09:08:08.567Z</time></trkpt><trkpt lat="42.4277203" lon="11.196833"><ele>-1.0</ele><time>2026-05-02T09:08:13.568Z</time></trkpt><trkpt lat="42.4277724" lon="11.1967406"><ele>-0.9999999999999999</ele><time>2026-05-02T09:08:19.567Z</time></trkpt><trkpt lat="42.4277803" lon="11.1966388"><ele>-1.0</ele><time>2026-05-02T09:08:20.566Z</time></trkpt><trkpt lat="42.4277836" lon="11.1964878"><ele>-0.5</ele><time>2026-05-02T09:08:21.567Z</time></trkpt><trkpt lat="42.4277906" lon="11.1963181"><ele>0.0</ele><time>2026-05-02T09:08:22.567Z</time></trkpt><trkpt lat="42.4277954" lon="11.1961151"><ele>0.5</ele><time>2026-05-02T09:08:23.567Z</time></trkpt><trkpt lat="42.4278007" lon="11.195886"><ele>1.0</ele><time>2026-05-02T09:08:24.569Z</time></trkpt><trkpt lat="42.427811" lon="11.1956433"><ele>1.0</ele><time>2026-05-02T09:08:25.567Z</time></trkpt><trkpt lat="42.4278195" lon="11.1954252"><ele>1.0</ele><time>2026-05-02T09:08:26.568Z</time></trkpt><trkpt lat="42.4278374" lon="11.1952178"><ele>1.0</ele><time>2026-05-02T09:08:27.569Z</time></trkpt><trkpt lat="42.427855" lon="11.1950314"><ele>1.0</ele><time>2026-05-02T09:08:28.567Z</time></trkpt><trkpt lat="42.427874" lon="11.1948531"><ele>1.0</ele><time>2026-05-02T09:08:29.568Z</time></trkpt><trkpt lat="42.4279013" lon="11.1946985"><ele>1.0</ele><time>2026-05-02T09:08:30.568Z</time></trkpt><trkpt lat="42.4279337" lon="11.1945471"><ele>1.0</ele><time>2026-05-02T09:08:31.569Z</time></trkpt><trkpt lat="42.4279633" lon="11.1944026"><ele>1.0</ele><time>2026-05-02T09:08:32.568Z</time></trkpt><trkpt lat="42.4279956" lon="11.1942609"><ele>1.0</ele><time>2026-05-02T09:08:33.568Z</time></trkpt><trkpt lat="42.4280333" lon="11.1941311"><ele>1.0</ele><time>2026-05-02T09:08:34.567Z</time></trkpt><trkpt lat="42.4280719" lon="11.1939988"><ele>1.0</ele><time>2026-05-02T09:08:35.567Z</time></trkpt><trkpt lat="42.4281147" lon="11.1938662"><ele>1.0</ele><time>2026-05-02T09:08:36.569Z</time></trkpt><trkpt lat="42.428158" lon="11.1937389"><ele>1.0</ele><time>2026-05-02T09:08:37.568Z</time></trkpt><trkpt lat="42.4282054" lon="11.1936168"><ele>1.0</ele><time>2026-05-02T09:08:38.567Z</time></trkpt><trkpt lat="42.4282565" lon="11.1934939"><ele>1.0</ele><time>2026-05-02T09:08:39.567Z</time></trkpt><trkpt lat="42.4283134" lon="11.1933676"><ele>1.0</ele><time>2026-05-02T09:08:40.567Z</time></trkpt><trkpt lat="42.4283734" lon="11.1932342"><ele>1.0</ele><time>2026-05-02T09:08:41.568Z</time></trkpt><trkpt lat="42.4284386" lon="11.1931065"><ele>1.0</ele><time>2026-05-02T09:08:42.568Z</time></trkpt><trkpt lat="42.4285031" lon="11.1929862"><ele>1.0</ele><time>2026-05-02T09:08:43.568Z</time></trkpt><trkpt lat="42.4285681" lon="11.1928603"><ele>1.0</ele><time>2026-05-02T09:08:44.568Z</time></trkpt><trkpt lat="42.4286327" lon="11.1927354"><ele>1.0</ele><time>2026-05-02T09:08:45.567Z</time></trkpt><trkpt lat="42.4286976" lon="11.1926121"><ele>1.0</ele><time>2026-05-02T09:08:46.567Z</time></trkpt><trkpt lat="42.4287557" lon="11.1925057"><ele>1.0</ele><time>2026-05-02T09:08:47.567Z</time></trkpt><trkpt lat="42.4288011" lon="11.1924176"><ele>0.9999999999999999</ele><time>2026-05-02T09:08:48.567Z</time></trkpt><trkpt lat="42.4288373" lon="11.1923477"><ele>1.0</ele><time>2026-05-02T09:08:49.567Z</time></trkpt><trkpt lat="42.4288639" lon="11.1922577"><ele>1.0</ele><time>2026-05-02T09:08:51.569Z</time></trkpt><trkpt lat="42.4288788" lon="11.1921702"><ele>0.9999999999999999</ele><time>2026-05-02T09:09:04.567Z</time></trkpt><trkpt lat="42.4289436" lon="11.192123"><ele>1.0</ele><time>2026-05-02T09:09:30.568Z</time></trkpt><trkpt lat="42.4289962" lon="11.192061"><ele>1.0</ele><time>2026-05-02T09:09:31.567Z</time></trkpt><trkpt lat="42.4290502" lon="11.1919744"><ele>0.6666666666666666</ele><time>2026-05-02T09:09:32.569Z</time></trkpt><trkpt lat="42.4290929" lon="11.1918933"><ele>0.3333333333333333</ele><time>2026-05-02T09:09:33.567Z</time></trkpt><trkpt lat="42.4291395" lon="11.191808"><ele>0.0</ele><time>2026-05-02T09:09:34.566Z</time></trkpt><trkpt lat="42.4291812" lon="11.1917236"><ele>-0.3333333333333333</ele><time>2026-05-02T09:09:35.567Z</time></trkpt><trkpt lat="42.4292293" lon="11.1916379"><ele>-0.6666666666666666</ele><time>2026-05-02T09:09:36.566Z</time></trkpt><trkpt lat="42.4292785" lon="11.1915418"><ele>-1.0</ele><time>2026-05-02T09:09:37.569Z</time></trkpt><trkpt lat="42.4293359" lon="11.191437"><ele>0.25</ele><time>2026-05-02T09:09:38.567Z</time></trkpt><trkpt lat="42.4293977" lon="11.1913169"><ele>1.5</ele><time>2026-05-02T09:09:39.566Z</time></trkpt><trkpt lat="42.4294597" lon="11.1911867"><ele>2.75</ele><time>2026-05-02T09:09:40.567Z</time></trkpt><trkpt lat="42.4295278" lon="11.1910492"><ele>4.0</ele><time>2026-05-02T09:09:41.568Z</time></trkpt><trkpt lat="42.4295857" lon="11.1909043"><ele>3.0</ele><time>2026-05-02T09:09:42.568Z</time></trkpt><trkpt lat="42.4296429" lon="11.1907544"><ele>2.0</ele><time>2026-05-02T09:09:43.567Z</time></trkpt><trkpt lat="42.4296958" lon="11.1905851"><ele>1.0</ele><time>2026-05-02T09:09:44.567Z</time></trkpt><trkpt lat="42.4297487" lon="11.1904119"><ele>0.0</ele><time>2026-05-02T09:09:45.567Z</time></trkpt><trkpt lat="42.4298035" lon="11.190229"><ele>0.0</ele><time>2026-05-02T09:09:46.568Z</time></trkpt><trkpt lat="42.4298541" lon="11.1900295"><ele>0.0</ele><time>2026-05-02T09:09:47.566Z</time></trkpt><trkpt lat="42.4298973" lon="11.1898133"><ele>0.0</ele><time>2026-05-02T09:09:48.567Z</time></trkpt><trkpt lat="42.4299333" lon="11.1895877"><ele>0.3333333333333333</ele><time>2026-05-02T09:09:49.567Z</time></trkpt><trkpt lat="42.4299564" lon="11.1893554"><ele>0.6666666666666666</ele><time>2026-05-02T09:09:50.568Z</time></trkpt><trkpt lat="42.4299763" lon="11.1891172"><ele>1.0</ele><time>2026-05-02T09:09:51.567Z</time></trkpt><trkpt lat="42.4299903" lon="11.1888709"><ele>1.0</ele><time>2026-05-02T09:09:52.566Z</time></trkpt><trkpt lat="42.4299989" lon="11.188626"><ele>1.0</ele><time>2026-05-02T09:09:53.566Z</time></trkpt><trkpt lat="42.4300094" lon="11.188379"><ele>1.0</ele><time>2026-05-02T09:09:54.568Z</time></trkpt><trkpt lat="42.4300254" lon="11.188133"><ele>1.0</ele><time>2026-05-02T09:09:55.566Z</time></trkpt><trkpt lat="42.4300413" lon="11.1878862"><ele>1.0</ele><time>2026-05-02T09:09:56.567Z</time></trkpt><trkpt lat="42.4300566" lon="11.1876478"><ele>1.0</ele><time>2026-05-02T09:09:57.567Z</time></trkpt><trkpt lat="42.4300657" lon="11.1874007"><ele>0.6666666666666666</ele><time>2026-05-02T09:09:58.568Z</time></trkpt><trkpt lat="42.4300811" lon="11.1871509"><ele>0.3333333333333333</ele><time>2026-05-02T09:09:59.568Z</time></trkpt><trkpt lat="42.4300948" lon="11.1869127"><ele>0.0</ele><time>2026-05-02T09:10:00.567Z</time></trkpt><trkpt lat="42.4301094" lon="11.1866699"><ele>0.0</ele><time>2026-05-02T09:10:01.566Z</time></trkpt><trkpt lat="42.4301241" lon="11.1864243"><ele>0.0</ele><time>2026-05-02T09:10:02.566Z</time></trkpt><trkpt lat="42.4301426" lon="11.186178"><ele>0.0</ele><time>2026-05-02T09:10:03.567Z</time></trkpt><trkpt lat="42.4301586" lon="11.1859335"><ele>0.0</ele><time>2026-05-02T09:10:04.567Z</time></trkpt><trkpt lat="42.430178" lon="11.1856921"><ele>0.0</ele><time>2026-05-02T09:10:05.566Z</time></trkpt><trkpt lat="42.4302093" lon="11.1854504"><ele>0.0</ele><time>2026-05-02T09:10:06.567Z</time></trkpt><trkpt lat="42.4302401" lon="11.1852219"><ele>0.0</ele><time>2026-05-02T09:10:07.567Z</time></trkpt><trkpt lat="42.4302721" lon="11.1849967"><ele>0.0</ele><time>2026-05-02T09:10:08.567Z</time></trkpt><trkpt lat="42.4303044" lon="11.1847794"><ele>0.0</ele><time>2026-05-02T09:10:09.567Z</time></trkpt><trkpt lat="42.430335" lon="11.1845691"><ele>0.3333333333333333</ele><time>2026-05-02T09:10:10.566Z</time></trkpt><trkpt lat="42.4303699" lon="11.1843546"><ele>0.6666666666666666</ele><time>2026-05-02T09:10:11.567Z</time></trkpt><trkpt lat="42.4304018" lon="11.1841384"><ele>1.0</ele><time>2026-05-02T09:10:12.567Z</time></trkpt><trkpt lat="42.4304375" lon="11.1839301"><ele>1.25</ele><time>2026-05-02T09:10:13.568Z</time></trkpt><trkpt lat="42.4304692" lon="11.1837316"><ele>1.5</ele><time>2026-05-02T09:10:14.566Z</time></trkpt><trkpt lat="42.4304945" lon="11.1835591"><ele>1.75</ele><time>2026-05-02T09:10:15.566Z</time></trkpt><trkpt lat="42.4305202" lon="11.183408"><ele>2.0</ele><time>2026-05-02T09:10:16.566Z</time></trkpt><trkpt lat="42.4305451" lon="11.1832768"><ele>1.75</ele><time>2026-05-02T09:10:17.568Z</time></trkpt><trkpt lat="42.4305797" lon="11.1831493"><ele>1.5</ele><time>2026-05-02T09:10:18.567Z</time></trkpt><trkpt lat="42.4306022" lon="11.1830172"><ele>1.25</ele><time>2026-05-02T09:10:19.566Z</time></trkpt><trkpt lat="42.4306209" lon="11.1828557"><ele>1.0</ele><time>2026-05-02T09:10:20.566Z</time></trkpt><trkpt lat="42.4306379" lon="11.1826759"><ele>1.0</ele><time>2026-05-02T09:10:21.566Z</time></trkpt><trkpt lat="42.4306721" lon="11.1824613"><ele>1.0</ele><time>2026-05-02T09:10:22.566Z</time></trkpt><trkpt lat="42.4307109" lon="11.1822379"><ele>1.0</ele><time>2026-05-02T09:10:23.567Z</time></trkpt><trkpt lat="42.4307525" lon="11.1819863"><ele>0.3333333333333333</ele><time>2026-05-02T09:10:24.567Z</time></trkpt><trkpt lat="42.4307997" lon="11.1817136"><ele>-0.3333333333333333</ele><time>2026-05-02T09:10:25.567Z</time></trkpt><trkpt lat="42.4308438" lon="11.1814282"><ele>-1.0</ele><time>2026-05-02T09:10:26.568Z</time></trkpt><trkpt lat="42.4308869" lon="11.1811506"><ele>-1.3333333333333333</ele><time>2026-05-02T09:10:27.568Z</time></trkpt><trkpt lat="42.4309259" lon="11.1808802"><ele>-1.6666666666666665</ele><time>2026-05-02T09:10:28.568Z</time></trkpt><trkpt lat="42.4309666" lon="11.1806138"><ele>-2.0</ele><time>2026-05-02T09:10:29.566Z</time></trkpt><trkpt lat="42.4310021" lon="11.1803331"><ele>-1.3333333333333333</ele><time>2026-05-02T09:10:30.567Z</time></trkpt><trkpt lat="42.431025" lon="11.1800588"><ele>-0.6666666666666666</ele><time>2026-05-02T09:10:31.566Z</time></trkpt><trkpt lat="42.4310399" lon="11.1797916"><ele>0.0</ele><time>2026-05-02T09:10:32.567Z</time></trkpt><trkpt lat="42.4310485" lon="11.1795355"><ele>0.0</ele><time>2026-05-02T09:10:33.568Z</time></trkpt><trkpt lat="42.4310557" lon="11.1792768"><ele>0.0</ele><time>2026-05-02T09:10:34.567Z</time></trkpt><trkpt lat="42.4310671" lon="11.1790109"><ele>0.0</ele><time>2026-05-02T09:10:35.569Z</time></trkpt><trkpt lat="42.4310747" lon="11.1787432"><ele>0.0</ele><time>2026-05-02T09:10:36.567Z</time></trkpt><trkpt lat="42.4310823" lon="11.1784785"><ele>0.0</ele><time>2026-05-02T09:10:37.567Z</time></trkpt><trkpt lat="42.4310904" lon="11.1782183"><ele>0.0</ele><time>2026-05-02T09:10:38.566Z</time></trkpt><trkpt lat="42.4311006" lon="11.1779745"><ele>0.0</ele><time>2026-05-02T09:10:39.567Z</time></trkpt><trkpt lat="42.4311137" lon="11.177738"><ele>0.0</ele><time>2026-05-02T09:10:40.566Z</time></trkpt><trkpt lat="42.4311343" lon="11.1775104"><ele>0.0</ele><time>2026-05-02T09:10:41.567Z</time></trkpt><trkpt lat="42.4311672" lon="11.1772831"><ele>0.3333333333333333</ele><time>2026-05-02T09:10:42.567Z</time></trkpt><trkpt lat="42.4312102" lon="11.1770601"><ele>0.6666666666666666</ele><time>2026-05-02T09:10:43.567Z</time></trkpt><trkpt lat="42.4312731" lon="11.1768456"><ele>1.0</ele><time>2026-05-02T09:10:44.566Z</time></trkpt><trkpt lat="42.4313499" lon="11.1766434"><ele>3.0</ele><time>2026-05-02T09:10:45.567Z</time></trkpt><trkpt lat="42.4314288" lon="11.1764509"><ele>5.0</ele><time>2026-05-02T09:10:46.568Z</time></trkpt><trkpt lat="42.4315081" lon="11.1762713"><ele>7.0</ele><time>2026-05-02T09:10:47.566Z</time></trkpt><trkpt lat="42.4315849" lon="11.1761003"><ele>7.0</ele><time>2026-05-02T09:10:48.567Z</time></trkpt><trkpt lat="42.4316569" lon="11.1759339"><ele>7.0</ele><time>2026-05-02T09:10:49.567Z</time></trkpt><trkpt lat="42.4317262" lon="11.1757794"><ele>7.0</ele><time>2026-05-02T09:10:50.567Z</time></trkpt><trkpt lat="42.4317952" lon="11.1756207"><ele>7.0</ele><time>2026-05-02T09:10:51.567Z</time></trkpt><trkpt lat="42.4318679" lon="11.175464"><ele>8.5</ele><time>2026-05-02T09:10:52.567Z</time></trkpt><trkpt lat="42.4319408" lon="11.1752979"><ele>10.0</ele><time>2026-05-02T09:10:53.566Z</time></trkpt><trkpt lat="42.4320119" lon="11.1751341"><ele>11.5</ele><time>2026-05-02T09:10:54.566Z</time></trkpt><trkpt lat="42.4320812" lon="11.1749713"><ele>13.0</ele><time>2026-05-02T09:10:55.566Z</time></trkpt><trkpt lat="42.4321545" lon="11.1748058"><ele>10.0</ele><time>2026-05-02T09:10:56.568Z</time></trkpt><trkpt lat="42.4322272" lon="11.1746397"><ele>7.0</ele><time>2026-05-02T09:10:57.567Z</time></trkpt><trkpt lat="42.4323007" lon="11.1744719"><ele>4.0</ele><time>2026-05-02T09:10:58.567Z</time></trkpt><trkpt lat="42.4323721" lon="11.1743105"><ele>1.0</ele><time>2026-05-02T09:10:59.567Z</time></trkpt><trkpt lat="42.4324496" lon="11.1741373"><ele>2.5</ele><time>2026-05-02T09:11:00.567Z</time></trkpt><trkpt lat="42.432522" lon="11.1739617"><ele>4.0</ele><time>2026-05-02T09:11:01.569Z</time></trkpt><trkpt lat="42.4325857" lon="11.1737799"><ele>5.5</ele><time>2026-05-02T09:11:02.567Z</time></trkpt><trkpt lat="42.4326415" lon="11.173591"><ele>7.0</ele><time>2026-05-02T09:11:03.566Z</time></trkpt><trkpt lat="42.4326853" lon="11.1733963"><ele>7.0</ele><time>2026-05-02T09:11:04.567Z</time></trkpt><trkpt lat="42.4327173" lon="11.1731925"><ele>7.0</ele><time>2026-05-02T09:11:05.567Z</time></trkpt><trkpt lat="42.4327376" lon="11.1729931"><ele>7.0</ele><time>2026-05-02T09:11:06.567Z</time></trkpt><trkpt lat="42.4327436" lon="11.1728037"><ele>7.0</ele><time>2026-05-02T09:11:07.566Z</time></trkpt><trkpt lat="42.4327352" lon="11.1726169"><ele>7.25</ele><time>2026-05-02T09:11:08.567Z</time></trkpt><trkpt lat="42.4327148" lon="11.1724316"><ele>7.5</ele><time>2026-05-02T09:11:09.568Z</time></trkpt><trkpt lat="42.4326748" lon="11.1722357"><ele>7.75</ele><time>2026-05-02T09:11:10.567Z</time></trkpt><trkpt lat="42.4326249" lon="11.1720379"><ele>8.0</ele><time>2026-05-02T09:11:11.565Z</time></trkpt><trkpt lat="42.4325613" lon="11.1718472"><ele>6.75</ele><time>2026-05-02T09:11:12.566Z</time></trkpt><trkpt lat="42.4324886" lon="11.1716706"><ele>5.5</ele><time>2026-05-02T09:11:13.566Z</time></trkpt><trkpt lat="42.4324017" lon="11.1715026"><ele>4.25</ele><time>2026-05-02T09:11:14.567Z</time></trkpt><trkpt lat="42.4323102" lon="11.1713563"><ele>3.0</ele><time>2026-05-02T09:11:15.567Z</time></trkpt><trkpt lat="42.4322147" lon="11.1712265"><ele>3.0</ele><time>2026-05-02T09:11:16.567Z</time></trkpt><trkpt lat="42.4321225" lon="11.1711135"><ele>3.0</ele><time>2026-05-02T09:11:17.565Z</time></trkpt><trkpt lat="42.4320254" lon="11.1710272"><ele>3.0</ele><time>2026-05-02T09:11:18.566Z</time></trkpt><trkpt lat="42.4319179" lon="11.1709387"><ele>3.0</ele><time>2026-05-02T09:11:19.567Z</time></trkpt><trkpt lat="42.4318046" lon="11.1708528"><ele>3.0</ele><time>2026-05-02T09:11:20.566Z</time></trkpt><trkpt lat="42.4316913" lon="11.1707634"><ele>3.0</ele><time>2026-05-02T09:11:21.566Z</time></trkpt><trkpt lat="42.4315757" lon="11.1706765"><ele>3.0</ele><time>2026-05-02T09:11:22.566Z</time></trkpt><trkpt lat="42.4314625" lon="11.1705915"><ele>3.0</ele><time>2026-05-02T09:11:23.566Z</time></trkpt><trkpt lat="42.431347" lon="11.1705054"><ele>3.75</ele><time>2026-05-02T09:11:24.566Z</time></trkpt><trkpt lat="42.4312346" lon="11.1704161"><ele>4.5</ele><time>2026-05-02T09:11:25.566Z</time></trkpt><trkpt lat="42.4311154" lon="11.1703268"><ele>5.25</ele><time>2026-05-02T09:11:26.567Z</time></trkpt><trkpt lat="42.4309982" lon="11.1702349"><ele>6.0</ele><time>2026-05-02T09:11:27.565Z</time></trkpt><trkpt lat="42.4308843" lon="11.1701386"><ele>6.0</ele><time>2026-05-02T09:11:28.566Z</time></trkpt><trkpt lat="42.4307759" lon="11.1700427"><ele>6.0</ele><time>2026-05-02T09:11:29.568Z</time></trkpt><trkpt lat="42.4306735" lon="11.1699436"><ele>6.0</ele><time>2026-05-02T09:11:30.567Z</time></trkpt><trkpt lat="42.4305735" lon="11.1698395"><ele>6.0</ele><time>2026-05-02T09:11:31.567Z</time></trkpt><trkpt lat="42.4304753" lon="11.1697255"><ele>4.5</ele><time>2026-05-02T09:11:32.566Z</time></trkpt><trkpt lat="42.4303805" lon="11.1696049"><ele>3.0</ele><time>2026-05-02T09:11:33.567Z</time></trkpt><trkpt lat="42.4302881" lon="11.1694798"><ele>1.5</ele><time>2026-05-02T09:11:34.567Z</time></trkpt><trkpt lat="42.4301972" lon="11.1693478"><ele>0.0</ele><time>2026-05-02T09:11:35.567Z</time></trkpt><trkpt lat="42.4301103" lon="11.1692048"><ele>0.0</ele><time>2026-05-02T09:11:36.566Z</time></trkpt><trkpt lat="42.4300264" lon="11.1690576"><ele>0.0</ele><time>2026-05-02T09:11:37.565Z</time></trkpt><trkpt lat="42.4299522" lon="11.1689046"><ele>0.0</ele><time>2026-05-02T09:11:38.567Z</time></trkpt><trkpt lat="42.4298892" lon="11.1687484"><ele>0.0</ele><time>2026-05-02T09:11:39.567Z</time></trkpt><trkpt lat="42.4298367" lon="11.1685916"><ele>0.0</ele><time>2026-05-02T09:11:40.567Z</time></trkpt><trkpt lat="42.4297852" lon="11.1684308"><ele>0.0</ele><time>2026-05-02T09:11:41.566Z</time></trkpt><trkpt lat="42.4297404" lon="11.1682631"><ele>0.0</ele><time>2026-05-02T09:11:42.567Z</time></trkpt><trkpt lat="42.4297004" lon="11.1680989"><ele>0.0</ele><time>2026-05-02T09:11:43.567Z</time></trkpt><trkpt lat="42.4296633" lon="11.1679264"><ele>0.5</ele><time>2026-05-02T09:11:44.566Z</time></trkpt><trkpt lat="42.4296356" lon="11.16775"><ele>1.0</ele><time>2026-05-02T09:11:45.568Z</time></trkpt><trkpt lat="42.429612" lon="11.1675714"><ele>1.5</ele><time>2026-05-02T09:11:46.567Z</time></trkpt><trkpt lat="42.4296005" lon="11.1673962"><ele>2.0</ele><time>2026-05-02T09:11:47.566Z</time></trkpt><trkpt lat="42.429594" lon="11.1672184"><ele>3.5</ele><time>2026-05-02T09:11:48.566Z</time></trkpt><trkpt lat="42.4295935" lon="11.1670459"><ele>5.0</ele><time>2026-05-02T09:11:49.566Z</time></trkpt><trkpt lat="42.4296" lon="11.1668659"><ele>6.5</ele><time>2026-05-02T09:11:50.567Z</time></trkpt><trkpt lat="42.4296095" lon="11.1666894"><ele>8.0</ele><time>2026-05-02T09:11:51.566Z</time></trkpt><trkpt lat="42.4296271" lon="11.1665165"><ele>6.0</ele><time>2026-05-02T09:11:52.567Z</time></trkpt><trkpt lat="42.4296435" lon="11.1663439"><ele>4.0</ele><time>2026-05-02T09:11:53.566Z</time></trkpt><trkpt lat="42.4296659" lon="11.1661731"><ele>2.0</ele><time>2026-05-02T09:11:54.567Z</time></trkpt><trkpt lat="42.429684" lon="11.1659976"><ele>0.0</ele><time>2026-05-02T09:11:55.568Z</time></trkpt><trkpt lat="42.4297018" lon="11.1658194"><ele>0.25</ele><time>2026-05-02T09:11:56.565Z</time></trkpt><trkpt lat="42.4297186" lon="11.165645"><ele>0.5</ele><time>2026-05-02T09:11:57.567Z</time></trkpt><trkpt lat="42.429737" lon="11.1654711"><ele>0.75</ele><time>2026-05-02T09:11:58.567Z</time></trkpt><trkpt lat="42.4297532" lon="11.1653072"><ele>1.0</ele><time>2026-05-02T09:11:59.567Z</time></trkpt><trkpt lat="42.4297712" lon="11.1651474"><ele>1.0</ele><time>2026-05-02T09:12:00.568Z</time></trkpt><trkpt lat="42.4297879" lon="11.1649912"><ele>1.0</ele><time>2026-05-02T09:12:01.568Z</time></trkpt><trkpt lat="42.4298062" lon="11.1648267"><ele>1.0</ele><time>2026-05-02T09:12:02.567Z</time></trkpt><trkpt lat="42.4298239" lon="11.1646649"><ele>1.0</ele><time>2026-05-02T09:12:03.567Z</time></trkpt><trkpt lat="42.4298417" lon="11.1645086"><ele>1.0</ele><time>2026-05-02T09:12:04.566Z</time></trkpt><trkpt lat="42.4298588" lon="11.1643409"><ele>1.0</ele><time>2026-05-02T09:12:05.566Z</time></trkpt><trkpt lat="42.429879" lon="11.1641724"><ele>1.0</ele><time>2026-05-02T09:12:06.567Z</time></trkpt><trkpt lat="42.4298977" lon="11.1639977"><ele>1.0</ele><time>2026-05-02T09:12:07.567Z</time></trkpt><trkpt lat="42.4299166" lon="11.1638275"><ele>1.0</ele><time>2026-05-02T09:12:08.566Z</time></trkpt><trkpt lat="42.4299368" lon="11.1636613"><ele>1.0</ele><time>2026-05-02T09:12:09.566Z</time></trkpt><trkpt lat="42.4299562" lon="11.1634903"><ele>1.0</ele><time>2026-05-02T09:12:10.567Z</time></trkpt><trkpt lat="42.4299713" lon="11.1633279"><ele>1.0</ele><time>2026-05-02T09:12:11.567Z</time></trkpt><trkpt lat="42.429989" lon="11.1631668"><ele>1.5</ele><time>2026-05-02T09:12:12.566Z</time></trkpt><trkpt lat="42.4300034" lon="11.1629985"><ele>2.0</ele><time>2026-05-02T09:12:13.566Z</time></trkpt><trkpt lat="42.4300201" lon="11.1628332"><ele>2.5</ele><time>2026-05-02T09:12:14.568Z</time></trkpt><trkpt lat="42.4300378" lon="11.1626718"><ele>3.0</ele><time>2026-05-02T09:12:15.565Z</time></trkpt><trkpt lat="42.4300556" lon="11.1625038"><ele>4.0</ele><time>2026-05-02T09:12:16.567Z</time></trkpt><trkpt lat="42.4300762" lon="11.1623325"><ele>5.0</ele><time>2026-05-02T09:12:17.567Z</time></trkpt><trkpt lat="42.430094" lon="11.1621506"><ele>6.0</ele><time>2026-05-02T09:12:18.567Z</time></trkpt><trkpt lat="42.4301217" lon="11.1619726"><ele>7.0</ele><time>2026-05-02T09:12:19.567Z</time></trkpt><trkpt lat="42.4301448" lon="11.1618012"><ele>7.0</ele><time>2026-05-02T09:12:20.566Z</time></trkpt><trkpt lat="42.4301729" lon="11.1616274"><ele>7.0</ele><time>2026-05-02T09:12:21.567Z</time></trkpt><trkpt lat="42.4302069" lon="11.1614546"><ele>7.0</ele><time>2026-05-02T09:12:22.567Z</time></trkpt><trkpt lat="42.4302409" lon="11.1612895"><ele>7.0</ele><time>2026-05-02T09:12:23.567Z</time></trkpt><trkpt lat="42.4302823" lon="11.1611121"><ele>7.25</ele><time>2026-05-02T09:12:24.567Z</time></trkpt><trkpt lat="42.4303266" lon="11.1609311"><ele>7.5</ele><time>2026-05-02T09:12:25.566Z</time></trkpt><trkpt lat="42.4303739" lon="11.1607566"><ele>7.75</ele><time>2026-05-02T09:12:26.567Z</time></trkpt><trkpt lat="42.4304262" lon="11.1605777"><ele>8.0</ele><time>2026-05-02T09:12:27.567Z</time></trkpt><trkpt lat="42.4304802" lon="11.1603986"><ele>7.0</ele><time>2026-05-02T09:12:28.567Z</time></trkpt><trkpt lat="42.4305384" lon="11.1602198"><ele>6.0</ele><time>2026-05-02T09:12:29.566Z</time></trkpt><trkpt lat="42.4306056" lon="11.160052"><ele>5.0</ele><time>2026-05-02T09:12:30.565Z</time></trkpt><trkpt lat="42.4306735" lon="11.1598907"><ele>4.0</ele><time>2026-05-02T09:12:31.567Z</time></trkpt><trkpt lat="42.4307446" lon="11.1597294"><ele>4.0</ele><time>2026-05-02T09:12:32.565Z</time></trkpt><trkpt lat="42.4308189" lon="11.1595704"><ele>4.0</ele><time>2026-05-02T09:12:33.567Z</time></trkpt><trkpt lat="42.4308952" lon="11.1594094"><ele>4.0</ele><time>2026-05-02T09:12:34.567Z</time></trkpt><trkpt lat="42.4309755" lon="11.1592697"><ele>4.0</ele><time>2026-05-02T09:12:35.565Z</time></trkpt><trkpt lat="42.4310532" lon="11.1591261"><ele>3.75</ele><time>2026-05-02T09:12:36.565Z</time></trkpt><trkpt lat="42.4311293" lon="11.1589883"><ele>3.5</ele><time>2026-05-02T09:12:37.565Z</time></trkpt><trkpt lat="42.4311946" lon="11.1588575"><ele>3.25</ele><time>2026-05-02T09:12:38.565Z</time></trkpt><trkpt lat="42.4312598" lon="11.1587334"><ele>3.0</ele><time>2026-05-02T09:12:39.567Z</time></trkpt><trkpt lat="42.431325" lon="11.1586084"><ele>3.2</ele><time>2026-05-02T09:12:40.567Z</time></trkpt><trkpt lat="42.431385" lon="11.1584824"><ele>3.4</ele><time>2026-05-02T09:12:41.566Z</time></trkpt><trkpt lat="42.4314418" lon="11.1583672"><ele>3.6000000000000005</ele><time>2026-05-02T09:12:42.566Z</time></trkpt><trkpt lat="42.4314968" lon="11.1582585"><ele>3.8000000000000003</ele><time>2026-05-02T09:12:43.565Z</time></trkpt><trkpt lat="42.4315494" lon="11.1581637"><ele>4.0</ele><time>2026-05-02T09:12:44.565Z</time></trkpt><trkpt lat="42.4316053" lon="11.1580729"><ele>3.9999999999999996</ele><time>2026-05-02T09:12:45.567Z</time></trkpt><trkpt lat="42.4316601" lon="11.1579836"><ele>4.0</ele><time>2026-05-02T09:12:46.565Z</time></trkpt><trkpt lat="42.4317231" lon="11.1579018"><ele>4.0</ele><time>2026-05-02T09:12:47.565Z</time></trkpt><trkpt lat="42.4317873" lon="11.157825"><ele>4.0</ele><time>2026-05-02T09:12:48.565Z</time></trkpt><trkpt lat="42.4318541" lon="11.1577489"><ele>3.9999999999999996</ele><time>2026-05-02T09:12:49.567Z</time></trkpt><trkpt lat="42.4319269" lon="11.1576891"><ele>4.0</ele><time>2026-05-02T09:12:50.567Z</time></trkpt><trkpt lat="42.4320046" lon="11.1576451"><ele>3.9999999999999996</ele><time>2026-05-02T09:12:51.567Z</time></trkpt><trkpt lat="42.4320855" lon="11.157602"><ele>4.0</ele><time>2026-05-02T09:12:52.565Z</time></trkpt><trkpt lat="42.4321702" lon="11.1575703"><ele>4.0</ele><time>2026-05-02T09:12:53.565Z</time></trkpt><trkpt lat="42.4322582" lon="11.1575444"><ele>4.0</ele><time>2026-05-02T09:12:54.565Z</time></trkpt><trkpt lat="42.4323477" lon="11.1575307"><ele>3.9999999999999996</ele><time>2026-05-02T09:12:55.566Z</time></trkpt><trkpt lat="42.4324382" lon="11.157525"><ele>4.0</ele><time>2026-05-02T09:12:56.566Z</time></trkpt><trkpt lat="42.4325329" lon="11.1575298"><ele>3.9999999999999996</ele><time>2026-05-02T09:12:57.566Z</time></trkpt><trkpt lat="42.4326251" lon="11.1575413"><ele>4.0</ele><time>2026-05-02T09:12:58.566Z</time></trkpt><trkpt lat="42.4327131" lon="11.1575571"><ele>4.0</ele><time>2026-05-02T09:12:59.567Z</time></trkpt><trkpt lat="42.4328019" lon="11.1575801"><ele>4.0</ele><time>2026-05-02T09:13:00.565Z</time></trkpt><trkpt lat="42.4328879" lon="11.1576047"><ele>3.9999999999999996</ele><time>2026-05-02T09:13:01.566Z</time></trkpt><trkpt lat="42.4329662" lon="11.1576294"><ele>4.0</ele><time>2026-05-02T09:13:02.567Z</time></trkpt><trkpt lat="42.4330405" lon="11.1576526"><ele>4.166666666666666</ele><time>2026-05-02T09:13:03.565Z</time></trkpt><trkpt lat="42.4331148" lon="11.1576599"><ele>4.333333333333333</ele><time>2026-05-02T09:13:04.565Z</time></trkpt><trkpt lat="42.4331824" lon="11.1576669"><ele>4.5</ele><time>2026-05-02T09:13:05.565Z</time></trkpt><trkpt lat="42.4332558" lon="11.1576625"><ele>4.666666666666667</ele><time>2026-05-02T09:13:06.565Z</time></trkpt><trkpt lat="42.4333335" lon="11.1576435"><ele>4.833333333333334</ele><time>2026-05-02T09:13:07.567Z</time></trkpt><trkpt lat="42.4334131" lon="11.1576057"><ele>5.0</ele><time>2026-05-02T09:13:08.566Z</time></trkpt><trkpt lat="42.4334822" lon="11.1575495"><ele>5.0</ele><time>2026-05-02T09:13:09.566Z</time></trkpt><trkpt lat="42.433537" lon="11.1574832"><ele>5.0</ele><time>2026-05-02T09:13:10.565Z</time></trkpt><trkpt lat="42.4335843" lon="11.1574129"><ele>5.0</ele><time>2026-05-02T09:13:11.566Z</time></trkpt><trkpt lat="42.4336227" lon="11.1573326"><ele>5.0</ele><time>2026-05-02T09:13:12.566Z</time></trkpt><trkpt lat="42.4336644" lon="11.1572514"><ele>5.0</ele><time>2026-05-02T09:13:13.566Z</time></trkpt><trkpt lat="42.4337073" lon="11.1571692"><ele>5.0</ele><time>2026-05-02T09:13:14.565Z</time></trkpt><trkpt lat="42.4337515" lon="11.1570878"><ele>5.0</ele><time>2026-05-02T09:13:15.566Z</time></trkpt><trkpt lat="42.433797" lon="11.1569924"><ele>4.833333333333334</ele><time>2026-05-02T09:13:16.565Z</time></trkpt><trkpt lat="42.4338392" lon="11.1569059"><ele>4.666666666666667</ele><time>2026-05-02T09:13:17.565Z</time></trkpt><trkpt lat="42.433879" lon="11.1568082"><ele>4.5</ele><time>2026-05-02T09:13:18.565Z</time></trkpt><trkpt lat="42.4339185" lon="11.1567143"><ele>4.333333333333333</ele><time>2026-05-02T09:13:19.566Z</time></trkpt><trkpt lat="42.4339485" lon="11.1566198"><ele>4.166666666666666</ele><time>2026-05-02T09:13:20.566Z</time></trkpt><trkpt lat="42.4339834" lon="11.1565196"><ele>4.0</ele><time>2026-05-02T09:13:21.566Z</time></trkpt><trkpt lat="42.434019" lon="11.1564262"><ele>5.166666666666666</ele><time>2026-05-02T09:13:22.565Z</time></trkpt><trkpt lat="42.4340524" lon="11.1563304"><ele>6.333333333333333</ele><time>2026-05-02T09:13:23.566Z</time></trkpt><trkpt lat="42.4340905" lon="11.1562353"><ele>7.5</ele><time>2026-05-02T09:13:24.565Z</time></trkpt><trkpt lat="42.434128" lon="11.1561307"><ele>8.666666666666666</ele><time>2026-05-02T09:13:25.567Z</time></trkpt><trkpt lat="42.4341673" lon="11.1560195"><ele>9.833333333333332</ele><time>2026-05-02T09:13:26.565Z</time></trkpt><trkpt lat="42.4342046" lon="11.1559059"><ele>11.0</ele><time>2026-05-02T09:13:27.567Z</time></trkpt><trkpt lat="42.434242" lon="11.1558048"><ele>12.166666666666666</ele><time>2026-05-02T09:13:28.568Z</time></trkpt><trkpt lat="42.4342758" lon="11.155698"><ele>13.333333333333332</ele><time>2026-05-02T09:13:29.566Z</time></trkpt><trkpt lat="42.4343057" lon="11.1555924"><ele>14.5</ele><time>2026-05-02T09:13:30.565Z</time></trkpt><trkpt lat="42.4343384" lon="11.1554923"><ele>15.666666666666666</ele><time>2026-05-02T09:13:31.565Z</time></trkpt><trkpt lat="42.4343743" lon="11.1553965"><ele>16.833333333333332</ele><time>2026-05-02T09:13:32.567Z</time></trkpt><trkpt lat="42.4344132" lon="11.1553116"><ele>18.0</ele><time>2026-05-02T09:13:33.567Z</time></trkpt><trkpt lat="42.4344524" lon="11.1552271"><ele>18.0</ele><time>2026-05-02T09:13:34.566Z</time></trkpt><trkpt lat="42.4344928" lon="11.1551371"><ele>18.0</ele><time>2026-05-02T09:13:35.566Z</time></trkpt><trkpt lat="42.4345317" lon="11.155042"><ele>18.0</ele><time>2026-05-02T09:13:36.566Z</time></trkpt><trkpt lat="42.4345675" lon="11.1549511"><ele>18.0</ele><time>2026-05-02T09:13:37.566Z</time></trkpt><trkpt lat="42.4345937" lon="11.1548538"><ele>18.0</ele><time>2026-05-02T09:13:38.566Z</time></trkpt><trkpt lat="42.4346254" lon="11.1547542"><ele>18.0</ele><time>2026-05-02T09:13:39.565Z</time></trkpt><trkpt lat="42.434646" lon="11.1546533"><ele>16.166666666666668</ele><time>2026-05-02T09:13:40.566Z</time></trkpt><trkpt lat="42.434665" lon="11.1545424"><ele>14.333333333333334</ele><time>2026-05-02T09:13:41.565Z</time></trkpt><trkpt lat="42.4346755" lon="11.1544202"><ele>12.5</ele><time>2026-05-02T09:13:42.565Z</time></trkpt><trkpt lat="42.434681" lon="11.1543085"><ele>10.666666666666668</ele><time>2026-05-02T09:13:43.567Z</time></trkpt><trkpt lat="42.4346899" lon="11.1541866"><ele>8.833333333333334</ele><time>2026-05-02T09:13:44.566Z</time></trkpt><trkpt lat="42.4346999" lon="11.1540616"><ele>7.0</ele><time>2026-05-02T09:13:45.566Z</time></trkpt><trkpt lat="42.4347087" lon="11.1539347"><ele>7.000000000000001</ele><time>2026-05-02T09:13:46.566Z</time></trkpt><trkpt lat="42.4347202" lon="11.1538186"><ele>7.0</ele><time>2026-05-02T09:13:47.565Z</time></trkpt><trkpt lat="42.4347227" lon="11.1537039"><ele>7.0</ele><time>2026-05-02T09:13:48.567Z</time></trkpt><trkpt lat="42.4347315" lon="11.1535939"><ele>7.0</ele><time>2026-05-02T09:13:49.565Z</time></trkpt><trkpt lat="42.4347405" lon="11.1534985"><ele>7.000000000000001</ele><time>2026-05-02T09:13:50.566Z</time></trkpt><trkpt lat="42.4347434" lon="11.1534108"><ele>7.0</ele><time>2026-05-02T09:13:51.565Z</time></trkpt><trkpt lat="42.434755" lon="11.1532547"><ele>7.3999999999999995</ele><time>2026-05-02T09:13:53.566Z</time></trkpt><trkpt lat="42.434765" lon="11.1530949"><ele>7.799999999999999</ele><time>2026-05-02T09:13:55.566Z</time></trkpt><trkpt lat="42.434768" lon="11.1529325"><ele>8.2</ele><time>2026-05-02T09:13:57.567Z</time></trkpt><trkpt lat="42.434764" lon="11.1528383"><ele>8.6</ele><time>2026-05-02T09:13:58.566Z</time></trkpt><trkpt lat="42.4347654" lon="11.1526801"><ele>9.0</ele><time>2026-05-02T09:14:00.566Z</time></trkpt><trkpt lat="42.4347652" lon="11.1525941"><ele>9.000000000000002</ele><time>2026-05-02T09:14:01.565Z</time></trkpt><trkpt lat="42.434769" lon="11.1525044"><ele>9.0</ele><time>2026-05-02T09:14:02.565Z</time></trkpt><trkpt lat="42.43477" lon="11.1524177"><ele>9.0</ele><time>2026-05-02T09:14:03.566Z</time></trkpt><trkpt lat="42.4347718" lon="11.1523214"><ele>9.0</ele><time>2026-05-02T09:14:04.567Z</time></trkpt><trkpt lat="42.4347762" lon="11.152227"><ele>9.0</ele><time>2026-05-02T09:14:05.566Z</time></trkpt><trkpt lat="42.4347829" lon="11.1521342"><ele>9.000000000000002</ele><time>2026-05-02T09:14:06.565Z</time></trkpt><trkpt lat="42.4348025" lon="11.1520396"><ele>9.0</ele><time>2026-05-02T09:14:07.565Z</time></trkpt><trkpt lat="42.4348222" lon="11.1519493"><ele>10.0</ele><time>2026-05-02T09:14:08.565Z</time></trkpt><trkpt lat="42.4348502" lon="11.1518652"><ele>11.0</ele><time>2026-05-02T09:14:09.565Z</time></trkpt><trkpt lat="42.4348889" lon="11.1517824"><ele>12.0</ele><time>2026-05-02T09:14:10.566Z</time></trkpt><trkpt lat="42.4349548" lon="11.1517014"><ele>13.0</ele><time>2026-05-02T09:14:11.565Z</time></trkpt><trkpt lat="42.4350259" lon="11.1516318"><ele>14.0</ele><time>2026-05-02T09:14:12.565Z</time></trkpt><trkpt lat="42.4351055" lon="11.1515691"><ele>15.0</ele><time>2026-05-02T09:14:13.565Z</time></trkpt><trkpt lat="42.4351991" lon="11.1515135"><ele>15.2</ele><time>2026-05-02T09:14:14.566Z</time></trkpt><trkpt lat="42.4352914" lon="11.1514495"><ele>15.4</ele><time>2026-05-02T09:14:15.565Z</time></trkpt><trkpt lat="42.4353776" lon="11.1513793"><ele>15.600000000000001</ele><time>2026-05-02T09:14:16.565Z</time></trkpt><trkpt lat="42.4354586" lon="11.1512935"><ele>15.8</ele><time>2026-05-02T09:14:17.566Z</time></trkpt><trkpt lat="42.4355375" lon="11.1511939"><ele>16.0</ele><time>2026-05-02T09:14:18.567Z</time></trkpt><trkpt lat="42.4356003" lon="11.1510771"><ele>16.0</ele><time>2026-05-02T09:14:19.565Z</time></trkpt><trkpt lat="42.4356624" lon="11.1509456"><ele>16.0</ele><time>2026-05-02T09:14:20.566Z</time></trkpt><trkpt lat="42.4357226" lon="11.1508175"><ele>16.0</ele><time>2026-05-02T09:14:21.566Z</time></trkpt><trkpt lat="42.435784" lon="11.1506929"><ele>16.0</ele><time>2026-05-02T09:14:22.566Z</time></trkpt><trkpt lat="42.4358395" lon="11.1505606"><ele>17.8</ele><time>2026-05-02T09:14:23.565Z</time></trkpt><trkpt lat="42.4358974" lon="11.1504308"><ele>19.6</ele><time>2026-05-02T09:14:24.565Z</time></trkpt><trkpt lat="42.4359562" lon="11.1503094"><ele>21.4</ele><time>2026-05-02T09:14:25.566Z</time></trkpt><trkpt lat="42.436014" lon="11.1501968"><ele>23.2</ele><time>2026-05-02T09:14:26.566Z</time></trkpt><trkpt lat="42.4360661" lon="11.1500876"><ele>25.0</ele><time>2026-05-02T09:14:27.565Z</time></trkpt><trkpt lat="42.4361209" lon="11.1499759"><ele>26.2</ele><time>2026-05-02T09:14:28.566Z</time></trkpt><trkpt lat="42.4361757" lon="11.1498633"><ele>27.4</ele><time>2026-05-02T09:14:29.566Z</time></trkpt><trkpt lat="42.4362265" lon="11.149756"><ele>28.6</ele><time>2026-05-02T09:14:30.565Z</time></trkpt><trkpt lat="42.4362832" lon="11.1496506"><ele>29.8</ele><time>2026-05-02T09:14:31.565Z</time></trkpt><trkpt lat="42.4363386" lon="11.1495512"><ele>31.0</ele><time>2026-05-02T09:14:32.567Z</time></trkpt><trkpt lat="42.4363888" lon="11.1494538"><ele>28.28571428571429</ele><time>2026-05-02T09:14:33.566Z</time></trkpt><trkpt lat="42.4364368" lon="11.1493577"><ele>25.571428571428573</ele><time>2026-05-02T09:14:34.566Z</time></trkpt><trkpt lat="42.4364796" lon="11.1492669"><ele>22.857142857142858</ele><time>2026-05-02T09:14:35.565Z</time></trkpt><trkpt lat="42.4365094" lon="11.1491756"><ele>20.142857142857142</ele><time>2026-05-02T09:14:36.566Z</time></trkpt><trkpt lat="42.4365194" lon="11.1490887"><ele>17.42857142857143</ele><time>2026-05-02T09:14:37.566Z</time></trkpt><trkpt lat="42.4365144" lon="11.1489983"><ele>14.714285714285714</ele><time>2026-05-02T09:14:38.565Z</time></trkpt><trkpt lat="42.4364949" lon="11.1489096"><ele>12.0</ele><time>2026-05-02T09:14:39.565Z</time></trkpt><trkpt lat="42.4364638" lon="11.1488283"><ele>11.333333333333334</ele><time>2026-05-02T09:14:40.565Z</time></trkpt><trkpt lat="42.4364244" lon="11.1487437"><ele>10.666666666666666</ele><time>2026-05-02T09:14:41.566Z</time></trkpt><trkpt lat="42.4363736" lon="11.1486575"><ele>10.0</ele><time>2026-05-02T09:14:42.565Z</time></trkpt><trkpt lat="42.4363169" lon="11.14858"><ele>9.333333333333332</ele><time>2026-05-02T09:14:43.566Z</time></trkpt><trkpt lat="42.4362525" lon="11.1485132"><ele>8.666666666666666</ele><time>2026-05-02T09:14:44.566Z</time></trkpt><trkpt lat="42.4361802" lon="11.1484517"><ele>8.0</ele><time>2026-05-02T09:14:45.567Z</time></trkpt><trkpt lat="42.4361116" lon="11.1483968"><ele>6.833333333333333</ele><time>2026-05-02T09:14:46.565Z</time></trkpt><trkpt lat="42.4360402" lon="11.1483475"><ele>5.666666666666666</ele><time>2026-05-02T09:14:47.566Z</time></trkpt><trkpt lat="42.4359641" lon="11.1483006"><ele>4.5</ele><time>2026-05-02T09:14:48.565Z</time></trkpt><trkpt lat="42.4358816" lon="11.1482608"><ele>3.333333333333333</ele><time>2026-05-02T09:14:49.566Z</time></trkpt><trkpt lat="42.435801" lon="11.1482155"><ele>2.1666666666666665</ele><time>2026-05-02T09:14:50.566Z</time></trkpt><trkpt lat="42.4357159" lon="11.1481778"><ele>1.0</ele><time>2026-05-02T09:14:51.564Z</time></trkpt><trkpt lat="42.4356361" lon="11.1481393"><ele>0.9999999999999999</ele><time>2026-05-02T09:14:52.565Z</time></trkpt><trkpt lat="42.4355583" lon="11.148101"><ele>1.0</ele><time>2026-05-02T09:14:53.566Z</time></trkpt><trkpt lat="42.4354834" lon="11.1480781"><ele>1.0</ele><time>2026-05-02T09:14:54.565Z</time></trkpt><trkpt lat="42.4354036" lon="11.1480422"><ele>1.0</ele><time>2026-05-02T09:14:55.566Z</time></trkpt><trkpt lat="42.435321" lon="11.1480156"><ele>0.9999999999999999</ele><time>2026-05-02T09:14:56.565Z</time></trkpt><trkpt lat="42.4352396" lon="11.147995"><ele>1.0</ele><time>2026-05-02T09:14:57.566Z</time></trkpt><trkpt lat="42.4351588" lon="11.1479894"><ele>1.5</ele><time>2026-05-02T09:14:58.564Z</time></trkpt><trkpt lat="42.4350783" lon="11.147999"><ele>2.0</ele><time>2026-05-02T09:14:59.566Z</time></trkpt><trkpt lat="42.4349984" lon="11.1480171"><ele>2.5</ele><time>2026-05-02T09:15:00.565Z</time></trkpt><trkpt lat="42.4349156" lon="11.1480373"><ele>3.0</ele><time>2026-05-02T09:15:01.566Z</time></trkpt><trkpt lat="42.4348357" lon="11.1480628"><ele>3.4999999999999996</ele><time>2026-05-02T09:15:02.565Z</time></trkpt><trkpt lat="42.4347553" lon="11.1480892"><ele>4.0</ele><time>2026-05-02T09:15:03.566Z</time></trkpt><trkpt lat="42.4346833" lon="11.1481112"><ele>4.2</ele><time>2026-05-02T09:15:04.565Z</time></trkpt><trkpt lat="42.4345745" lon="11.1481376"><ele>4.4</ele><time>2026-05-02T09:15:06.566Z</time></trkpt><trkpt lat="42.4344721" lon="11.1481442"><ele>4.6</ele><time>2026-05-02T09:15:08.566Z</time></trkpt><trkpt lat="42.4343674" lon="11.1480914"><ele>4.8</ele><time>2026-05-02T09:15:10.566Z</time></trkpt><trkpt lat="42.4343127" lon="11.1480479"><ele>5.0</ele><time>2026-05-02T09:15:11.566Z</time></trkpt><trkpt lat="42.4342659" lon="11.1479898"><ele>5.0</ele><time>2026-05-02T09:15:12.565Z</time></trkpt><trkpt lat="42.434225" lon="11.1479192"><ele>5.0</ele><time>2026-05-02T09:15:13.566Z</time></trkpt><trkpt lat="42.4341868" lon="11.1478423"><ele>5.0</ele><time>2026-05-02T09:15:14.565Z</time></trkpt><trkpt lat="42.4341482" lon="11.1477695"><ele>5.0</ele><time>2026-05-02T09:15:15.564Z</time></trkpt><trkpt lat="42.4341141" lon="11.1476976"><ele>5.0</ele><time>2026-05-02T09:15:16.565Z</time></trkpt><trkpt lat="42.4340743" lon="11.1476124"><ele>5.0</ele><time>2026-05-02T09:15:17.565Z</time></trkpt><trkpt lat="42.4340385" lon="11.1475224"><ele>5.0</ele><time>2026-05-02T09:15:18.567Z</time></trkpt><trkpt lat="42.4340018" lon="11.1474344"><ele>4.666666666666667</ele><time>2026-05-02T09:15:19.566Z</time></trkpt><trkpt lat="42.4339711" lon="11.1473487"><ele>4.333333333333334</ele><time>2026-05-02T09:15:20.564Z</time></trkpt><trkpt lat="42.433933" lon="11.1472005"><ele>4.0</ele><time>2026-05-02T09:15:22.565Z</time></trkpt><trkpt lat="42.4339024" lon="11.1470395"><ele>3.666666666666667</ele><time>2026-05-02T09:15:24.567Z</time></trkpt><trkpt lat="42.4338921" lon="11.146954"><ele>3.3333333333333335</ele><time>2026-05-02T09:15:25.565Z</time></trkpt><trkpt lat="42.4338837" lon="11.1468662"><ele>3.0</ele><time>2026-05-02T09:15:26.565Z</time></trkpt><trkpt lat="42.4338761" lon="11.1467751"><ele>2.9999999999999996</ele><time>2026-05-02T09:15:27.566Z</time></trkpt><trkpt lat="42.433867" lon="11.1466805"><ele>3.0</ele><time>2026-05-02T09:15:28.566Z</time></trkpt><trkpt lat="42.4338656" lon="11.146591"><ele>3.0</ele><time>2026-05-02T09:15:29.565Z</time></trkpt><trkpt lat="42.4338583" lon="11.1464997"><ele>3.0</ele><time>2026-05-02T09:15:30.565Z</time></trkpt><trkpt lat="42.4338499" lon="11.1464143"><ele>3.0</ele><time>2026-05-02T09:15:31.565Z</time></trkpt><trkpt lat="42.4338427" lon="11.146275"><ele>2.9999999999999996</ele><time>2026-05-02T09:15:33.565Z</time></trkpt><trkpt lat="42.4338416" lon="11.146184"><ele>3.0</ele><time>2026-05-02T09:15:35.566Z</time></trkpt><trkpt lat="42.4338326" lon="11.146088"><ele>4.8</ele><time>2026-05-02T09:15:38.566Z</time></trkpt><trkpt lat="42.4337284" lon="11.1460727"><ele>6.6</ele><time>2026-05-02T09:15:51.564Z</time></trkpt><trkpt lat="42.4336305" lon="11.1460808"><ele>8.399999999999999</ele><time>2026-05-02T09:15:53.565Z</time></trkpt><trkpt lat="42.4335282" lon="11.1460859"><ele>10.2</ele><time>2026-05-02T09:15:55.564Z</time></trkpt><trkpt lat="42.4334216" lon="11.1461038"><ele>12.0</ele><time>2026-05-02T09:15:57.566Z</time></trkpt><trkpt lat="42.4333265" lon="11.146117"><ele>12.0</ele><time>2026-05-02T09:15:59.566Z</time></trkpt><trkpt lat="42.4331964" lon="11.146124"><ele>12.0</ele><time>2026-05-02T09:16:01.565Z</time></trkpt><trkpt lat="42.4331075" lon="11.1461335"><ele>12.0</ele><time>2026-05-02T09:16:02.565Z</time></trkpt><trkpt lat="42.4329956" lon="11.146135"><ele>12.0</ele><time>2026-05-02T09:16:03.564Z</time></trkpt><trkpt lat="42.4328957" lon="11.1461421"><ele>12.0</ele><time>2026-05-02T09:16:04.565Z</time></trkpt><trkpt lat="42.4328032" lon="11.146152"><ele>12.0</ele><time>2026-05-02T09:16:05.564Z</time></trkpt><trkpt lat="42.4327258" lon="11.1461605"><ele>12.0</ele><time>2026-05-02T09:16:06.564Z</time></trkpt><trkpt lat="42.4326573" lon="11.1461553"><ele>12.0</ele><time>2026-05-02T09:16:07.565Z</time></trkpt><trkpt lat="42.4325311" lon="11.1461351"><ele>12.0</ele><time>2026-05-02T09:16:09.565Z</time></trkpt><trkpt lat="42.4324614" lon="11.1461272"><ele>12.0</ele><time>2026-05-02T09:16:10.566Z</time></trkpt><trkpt lat="42.4337284" lon="11.1460727"><ele>12.0</ele><time>2026-05-02T09:15:51.564Z</time></trkpt><trkpt lat="42.4336305" lon="11.1460808"><ele>12.0</ele><time>2026-05-02T09:15:53.565Z</time></trkpt><trkpt lat="42.4335282" lon="11.1460859"><ele>12.0</ele><time>2026-05-02T09:15:55.564Z</time></trkpt><trkpt lat="42.4334216" lon="11.1461038"><ele>12.0</ele><time>2026-05-02T09:15:57.566Z</time></trkpt><trkpt lat="42.4333265" lon="11.146117"><ele>12.0</ele><time>2026-05-02T09:15:59.566Z</time></trkpt><trkpt lat="42.4331964" lon="11.146124"><ele>12.0</ele><time>2026-05-02T09:16:01.565Z</time></trkpt><trkpt lat="42.4331075" lon="11.1461335"><ele>12.0</ele><time>2026-05-02T09:16:02.565Z</time></trkpt><trkpt lat="42.4329956" lon="11.146135"><ele>12.0</ele><time>2026-05-02T09:16:03.564Z</time></trkpt><trkpt lat="42.4328957" lon="11.1461421"><ele>12.0</ele><time>2026-05-02T09:16:04.565Z</time></trkpt><trkpt lat="42.4328032" lon="11.146152"><ele>12.0</ele><time>2026-05-02T09:16:05.564Z</time></trkpt><trkpt lat="42.4327258" lon="11.1461605"><ele>13.166666666666666</ele><time>2026-05-02T09:16:06.564Z</time></trkpt><trkpt lat="42.4326573" lon="11.1461553"><ele>14.333333333333332</ele><time>2026-05-02T09:16:07.565Z</time></trkpt><trkpt lat="42.4325311" lon="11.1461351"><ele>15.5</ele><time>2026-05-02T09:16:09.565Z</time></trkpt><trkpt lat="42.4324614" lon="11.1461272"><ele>16.666666666666664</ele><time>2026-05-02T09:16:10.566Z</time></trkpt><trkpt lat="42.4323747" lon="11.146124"><ele>17.833333333333332</ele><time>2026-05-02T09:16:11.565Z</time></trkpt><trkpt lat="42.4322906" lon="11.1461133"><ele>19.0</ele><time>2026-05-02T09:16:12.565Z</time></trkpt><trkpt lat="42.432218" lon="11.1461209"><ele>19.0</ele><time>2026-05-02T09:16:13.567Z</time></trkpt><trkpt lat="42.4321478" lon="11.1461245"><ele>19.0</ele><time>2026-05-02T09:16:14.564Z</time></trkpt><trkpt lat="42.4320814" lon="11.1461346"><ele>19.0</ele><time>2026-05-02T09:16:15.566Z</time></trkpt><trkpt lat="42.4320149" lon="11.1461361"><ele>19.0</ele><time>2026-05-02T09:16:16.564Z</time></trkpt><trkpt lat="42.431899" lon="11.1460878"><ele>19.0</ele><time>2026-05-02T09:16:18.564Z</time></trkpt><trkpt lat="42.4318102" lon="11.146055"><ele>19.0</ele><time>2026-05-02T09:16:20.565Z</time></trkpt><trkpt lat="42.4317384" lon="11.1459696"><ele>19.0</ele><time>2026-05-02T09:16:29.565Z</time></trkpt><trkpt lat="42.4316829" lon="11.1458526"><ele>19.0</ele><time>2026-05-02T09:16:31.566Z</time></trkpt><trkpt lat="42.4316342" lon="11.1457325"><ele>19.0</ele><time>2026-05-02T09:16:33.565Z</time></trkpt><trkpt lat="42.4315637" lon="11.1456394"><ele>19.0</ele><time>2026-05-02T09:16:35.564Z</time></trkpt><trkpt lat="42.4314479" lon="11.145589"><ele>19.0</ele><time>2026-05-02T09:16:37.564Z</time></trkpt><trkpt lat="42.4313848" lon="11.145572"><ele>20.714285714285715</ele><time>2026-05-02T09:16:38.566Z</time></trkpt><trkpt lat="42.4313178" lon="11.1455537"><ele>22.42857142857143</ele><time>2026-05-02T09:16:39.564Z</time></trkpt><trkpt lat="42.4312538" lon="11.1455315"><ele>24.142857142857146</ele><time>2026-05-02T09:16:40.564Z</time></trkpt><trkpt lat="42.431188" lon="11.1455061"><ele>25.857142857142858</ele><time>2026-05-02T09:16:41.565Z</time></trkpt><trkpt lat="42.4311229" lon="11.1454825"><ele>27.571428571428577</ele><time>2026-05-02T09:16:42.565Z</time></trkpt><trkpt lat="42.4310537" lon="11.1454625"><ele>29.28571428571429</ele><time>2026-05-02T09:16:43.566Z</time></trkpt><trkpt lat="42.4309925" lon="11.1454415"><ele>31.0</ele><time>2026-05-02T09:16:44.564Z</time></trkpt><trkpt lat="42.4309297" lon="11.1454171"><ele>31.0</ele><time>2026-05-02T09:16:45.566Z</time></trkpt><trkpt lat="42.4308639" lon="11.1453895"><ele>31.000000000000004</ele><time>2026-05-02T09:16:46.566Z</time></trkpt><trkpt lat="42.4307952" lon="11.1453737"><ele>31.0</ele><time>2026-05-02T09:16:47.565Z</time></trkpt><trkpt lat="42.4307259" lon="11.1453547"><ele>31.0</ele><time>2026-05-02T09:16:48.567Z</time></trkpt><trkpt lat="42.4306564" lon="11.1453521"><ele>31.000000000000004</ele><time>2026-05-02T09:16:49.564Z</time></trkpt><trkpt lat="42.4305857" lon="11.1453406"><ele>31.0</ele><time>2026-05-02T09:16:50.566Z</time></trkpt><trkpt lat="42.430519" lon="11.1453188"><ele>31.0</ele><time>2026-05-02T09:16:51.565Z</time></trkpt><trkpt lat="42.4304488" lon="11.1452968"><ele>31.666666666666668</ele><time>2026-05-02T09:16:52.564Z</time></trkpt><trkpt lat="42.4303818" lon="11.1452683"><ele>32.333333333333336</ele><time>2026-05-02T09:16:53.566Z</time></trkpt><trkpt lat="42.430317" lon="11.1452377"><ele>33.0</ele><time>2026-05-02T09:16:54.565Z</time></trkpt><trkpt lat="42.4302581" lon="11.1451972"><ele>33.666666666666664</ele><time>2026-05-02T09:16:55.565Z</time></trkpt><trkpt lat="42.430176" lon="11.1451139"><ele>34.33333333333333</ele><time>2026-05-02T09:16:57.566Z</time></trkpt><trkpt lat="42.430136" lon="11.1449795"><ele>35.0</ele><time>2026-05-02T09:16:59.565Z</time></trkpt><trkpt lat="42.4300672" lon="11.1448788"><ele>37.0</ele><time>2026-05-02T09:17:01.565Z</time></trkpt><trkpt lat="42.4299521" lon="11.1448449"><ele>39.0</ele><time>2026-05-02T09:17:03.565Z</time></trkpt><trkpt lat="42.4298916" lon="11.1448183"><ele>41.0</ele><time>2026-05-02T09:17:04.564Z</time></trkpt><trkpt lat="42.429776" lon="11.1447618"><ele>43.0</ele><time>2026-05-02T09:17:06.566Z</time></trkpt><trkpt lat="42.4297123" lon="11.1447254"><ele>45.0</ele><time>2026-05-02T09:17:07.565Z</time></trkpt><trkpt lat="42.42965" lon="11.1446861"><ele>47.0</ele><time>2026-05-02T09:17:08.565Z</time></trkpt><trkpt lat="42.4295871" lon="11.1446522"><ele>47.2</ele><time>2026-05-02T09:17:09.565Z</time></trkpt><trkpt lat="42.4294721" lon="11.1445884"><ele>47.400000000000006</ele><time>2026-05-02T09:17:11.565Z</time></trkpt><trkpt lat="42.4294117" lon="11.1445562"><ele>47.599999999999994</ele><time>2026-05-02T09:17:12.565Z</time></trkpt><trkpt lat="42.429303" lon="11.1445038"><ele>47.8</ele><time>2026-05-02T09:17:14.566Z</time></trkpt><trkpt lat="42.4291849" lon="11.1444446"><ele>48.0</ele><time>2026-05-02T09:17:16.564Z</time></trkpt><trkpt lat="42.4290792" lon="11.1443811"><ele>48.0</ele><time>2026-05-02T09:17:18.565Z</time></trkpt><trkpt lat="42.4290196" lon="11.1443444"><ele>48.0</ele><time>2026-05-02T09:17:19.565Z</time></trkpt><trkpt lat="42.4289604" lon="11.14431"><ele>48.0</ele><time>2026-05-02T09:17:20.565Z</time></trkpt><trkpt lat="42.4288476" lon="11.1442591"><ele>48.0</ele><time>2026-05-02T09:17:22.564Z</time></trkpt><trkpt lat="42.4287586" lon="11.1441781"><ele>48.0</ele><time>2026-05-02T09:17:24.565Z</time></trkpt><trkpt lat="42.4286835" lon="11.1440606"><ele>50.75</ele><time>2026-05-02T09:17:26.565Z</time></trkpt><trkpt lat="42.4285946" lon="11.1439762"><ele>53.5</ele><time>2026-05-02T09:17:28.565Z</time></trkpt><trkpt lat="42.4284801" lon="11.1439107"><ele>56.25</ele><time>2026-05-02T09:17:30.565Z</time></trkpt><trkpt lat="42.4283746" lon="11.1438446"><ele>59.0</ele><time>2026-05-02T09:17:32.565Z</time></trkpt><trkpt lat="42.4282676" lon="11.1437882"><ele>59.0</ele><time>2026-05-02T09:17:34.565Z</time></trkpt><trkpt lat="42.4281939" lon="11.1436901"><ele>59.00000000000001</ele><time>2026-05-02T09:17:36.564Z</time></trkpt><trkpt lat="42.4281523" lon="11.1435663"><ele>59.00000000000001</ele><time>2026-05-02T09:17:38.564Z</time></trkpt><trkpt lat="42.4281125" lon="11.1434406"><ele>59.0</ele><time>2026-05-02T09:17:40.564Z</time></trkpt><trkpt lat="42.4280467" lon="11.1433192"><ele>59.0</ele><time>2026-05-02T09:17:42.564Z</time></trkpt><trkpt lat="42.427945" lon="11.1432184"><ele>61.2</ele><time>2026-05-02T09:17:44.564Z</time></trkpt><trkpt lat="42.4278623" lon="11.1431519"><ele>63.400000000000006</ele><time>2026-05-02T09:17:45.565Z</time></trkpt><trkpt lat="42.4277608" lon="11.1430619"><ele>65.6</ele><time>2026-05-02T09:17:46.564Z</time></trkpt><trkpt lat="42.4276765" lon="11.1429903"><ele>67.8</ele><time>2026-05-02T09:17:47.566Z</time></trkpt><trkpt lat="42.4276014" lon="11.142928"><ele>70.0</ele><time>2026-05-02T09:17:48.564Z</time></trkpt><trkpt lat="42.4275232" lon="11.1428621"><ele>70.0</ele><time>2026-05-02T09:17:49.565Z</time></trkpt><trkpt lat="42.4274478" lon="11.1427978"><ele>70.0</ele><time>2026-05-02T09:17:50.565Z</time></trkpt><trkpt lat="42.4273685" lon="11.142729"><ele>70.0</ele><time>2026-05-02T09:17:51.565Z</time></trkpt><trkpt lat="42.4272992" lon="11.1426654"><ele>70.0</ele><time>2026-05-02T09:17:52.565Z</time></trkpt><trkpt lat="42.4272235" lon="11.1426006"><ele>70.0</ele><time>2026-05-02T09:17:53.564Z</time></trkpt><trkpt lat="42.4271517" lon="11.1425372"><ele>70.0</ele><time>2026-05-02T09:17:54.565Z</time></trkpt><trkpt lat="42.4270757" lon="11.1424638"><ele>70.6</ele><time>2026-05-02T09:17:55.564Z</time></trkpt><trkpt lat="42.4269939" lon="11.1423851"><ele>71.2</ele><time>2026-05-02T09:17:56.564Z</time></trkpt><trkpt lat="42.4269148" lon="11.1422973"><ele>71.8</ele><time>2026-05-02T09:17:57.565Z</time></trkpt><trkpt lat="42.42683" lon="11.1422114"><ele>72.4</ele><time>2026-05-02T09:17:58.564Z</time></trkpt><trkpt lat="42.4267497" lon="11.142129"><ele>73.0</ele><time>2026-05-02T09:17:59.564Z</time></trkpt><trkpt lat="42.4266684" lon="11.1420519"><ele>73.4</ele><time>2026-05-02T09:18:00.565Z</time></trkpt><trkpt lat="42.4265796" lon="11.1419823"><ele>73.8</ele><time>2026-05-02T09:18:01.564Z</time></trkpt><trkpt lat="42.4264897" lon="11.1419185"><ele>74.2</ele><time>2026-05-02T09:18:02.564Z</time></trkpt><trkpt lat="42.4263892" lon="11.1418677"><ele>74.6</ele><time>2026-05-02T09:18:03.565Z</time></trkpt><trkpt lat="42.4262953" lon="11.1418205"><ele>75.0</ele><time>2026-05-02T09:18:04.564Z</time></trkpt><trkpt lat="42.4262068" lon="11.1417718"><ele>75.8</ele><time>2026-05-02T09:18:05.565Z</time></trkpt><trkpt lat="42.4261367" lon="11.1417255"><ele>76.6</ele><time>2026-05-02T09:18:06.566Z</time></trkpt><trkpt lat="42.4260555" lon="11.1416594"><ele>77.4</ele><time>2026-05-02T09:18:07.564Z</time></trkpt><trkpt lat="42.4259859" lon="11.1415872"><ele>78.2</ele><time>2026-05-02T09:18:08.566Z</time></trkpt><trkpt lat="42.4259129" lon="11.1415095"><ele>79.0</ele><time>2026-05-02T09:18:09.564Z</time></trkpt><trkpt lat="42.4258337" lon="11.1414313"><ele>80.6</ele><time>2026-05-02T09:18:10.564Z</time></trkpt><trkpt lat="42.4257555" lon="11.1413627"><ele>82.2</ele><time>2026-05-02T09:18:11.565Z</time></trkpt><trkpt lat="42.4256713" lon="11.141282"><ele>83.8</ele><time>2026-05-02T09:18:12.564Z</time></trkpt><trkpt lat="42.4256021" lon="11.1412207"><ele>85.39999999999999</ele><time>2026-05-02T09:18:13.564Z</time></trkpt><trkpt lat="42.4255264" lon="11.1411421"><ele>87.0</ele><time>2026-05-02T09:18:14.564Z</time></trkpt><trkpt lat="42.4254524" lon="11.1410652"><ele>87.39999999999999</ele><time>2026-05-02T09:18:15.563Z</time></trkpt><trkpt lat="42.4253847" lon="11.1410073"><ele>87.8</ele><time>2026-05-02T09:18:16.564Z</time></trkpt><trkpt lat="42.4253173" lon="11.1409528"><ele>88.2</ele><time>2026-05-02T09:18:17.566Z</time></trkpt><trkpt lat="42.4252512" lon="11.1409048"><ele>88.6</ele><time>2026-05-02T09:18:18.563Z</time></trkpt><trkpt lat="42.4251623" lon="11.1408079"><ele>89.0</ele><time>2026-05-02T09:18:20.565Z</time></trkpt><trkpt lat="42.4250964" lon="11.140669"><ele>92.80000000000001</ele><time>2026-05-02T09:18:22.564Z</time></trkpt><trkpt lat="42.4250435" lon="11.1405409"><ele>96.60000000000001</ele><time>2026-05-02T09:18:24.564Z</time></trkpt><trkpt lat="42.4249714" lon="11.1404844"><ele>100.4</ele><time>2026-05-02T09:18:26.564Z</time></trkpt><trkpt lat="42.4248642" lon="11.1404923"><ele>104.2</ele><time>2026-05-02T09:18:28.565Z</time></trkpt><trkpt lat="42.4247681" lon="11.1405906"><ele>108.0</ele><time>2026-05-02T09:18:30.564Z</time></trkpt><trkpt lat="42.4247122" lon="11.1406678"><ele>106.60000000000001</ele><time>2026-05-02T09:18:31.564Z</time></trkpt><trkpt lat="42.4246479" lon="11.140743"><ele>105.20000000000002</ele><time>2026-05-02T09:18:32.565Z</time></trkpt><trkpt lat="42.42457" lon="11.1408419"><ele>103.8</ele><time>2026-05-02T09:18:33.566Z</time></trkpt><trkpt lat="42.4244901" lon="11.1409217"><ele>102.4</ele><time>2026-05-02T09:18:34.564Z</time></trkpt><trkpt lat="42.4244153" lon="11.1410055"><ele>101.0</ele><time>2026-05-02T09:18:35.565Z</time></trkpt><trkpt lat="42.4243387" lon="11.1410783"><ele>100.99999999999999</ele><time>2026-05-02T09:18:36.564Z</time></trkpt><trkpt lat="42.4242578" lon="11.1411175"><ele>101.0</ele><time>2026-05-02T09:18:37.565Z</time></trkpt><trkpt lat="42.4241736" lon="11.1411451"><ele>101.0</ele><time>2026-05-02T09:18:38.564Z</time></trkpt><trkpt lat="42.4240951" lon="11.1411708"><ele>101.0</ele><time>2026-05-02T09:18:39.566Z</time></trkpt><trkpt lat="42.4240239" lon="11.1411907"><ele>100.99999999999999</ele><time>2026-05-02T09:18:40.565Z</time></trkpt><trkpt lat="42.4239208" lon="11.1411718"><ele>101.0</ele><time>2026-05-02T09:18:42.564Z</time></trkpt><trkpt lat="42.4238051" lon="11.1410926"><ele>103.4</ele><time>2026-05-02T09:18:44.566Z</time></trkpt><trkpt lat="42.4237372" lon="11.1410565"><ele>105.8</ele><time>2026-05-02T09:18:45.564Z</time></trkpt><trkpt lat="42.4236655" lon="11.1410297"><ele>108.20000000000002</ele><time>2026-05-02T09:18:46.564Z</time></trkpt><trkpt lat="42.4235536" lon="11.1409739"><ele>110.60000000000001</ele><time>2026-05-02T09:18:48.565Z</time></trkpt><trkpt lat="42.4234575" lon="11.1408689"><ele>113.0</ele><time>2026-05-02T09:18:50.563Z</time></trkpt><trkpt lat="42.4234075" lon="11.1408076"><ele>112.99999999999999</ele><time>2026-05-02T09:18:51.564Z</time></trkpt><trkpt lat="42.4233495" lon="11.1407569"><ele>113.0</ele><time>2026-05-02T09:18:52.565Z</time></trkpt><trkpt lat="42.4232828" lon="11.140713"><ele>113.0</ele><time>2026-05-02T09:18:53.564Z</time></trkpt><trkpt lat="42.4232211" lon="11.1406817"><ele>113.0</ele><time>2026-05-02T09:18:54.565Z</time></trkpt><trkpt lat="42.4231391" lon="11.1406328"><ele>112.99999999999999</ele><time>2026-05-02T09:18:55.565Z</time></trkpt><trkpt lat="42.4230522" lon="11.1405945"><ele>113.0</ele><time>2026-05-02T09:18:56.564Z</time></trkpt><trkpt lat="42.4229704" lon="11.1405548"><ele>119.80000000000001</ele><time>2026-05-02T09:18:57.564Z</time></trkpt><trkpt lat="42.4228709" lon="11.1405369"><ele>126.60000000000001</ele><time>2026-05-02T09:18:58.566Z</time></trkpt><trkpt lat="42.4227921" lon="11.1405183"><ele>133.39999999999998</ele><time>2026-05-02T09:18:59.564Z</time></trkpt><trkpt lat="42.4227045" lon="11.1405066"><ele>140.2</ele><time>2026-05-02T09:19:00.564Z</time></trkpt><trkpt lat="42.4226026" lon="11.1405162"><ele>147.0</ele><time>2026-05-02T09:19:01.564Z</time></trkpt><trkpt lat="42.4224977" lon="11.140543"><ele>147.0</ele><time>2026-05-02T09:19:02.565Z</time></trkpt><trkpt lat="42.4223979" lon="11.1405607"><ele>147.0</ele><time>2026-05-02T09:19:03.565Z</time></trkpt><trkpt lat="42.4223089" lon="11.1405811"><ele>147.0</ele><time>2026-05-02T09:19:04.563Z</time></trkpt><trkpt lat="42.4222149" lon="11.1406206"><ele>147.0</ele><time>2026-05-02T09:19:05.564Z</time></trkpt><trkpt lat="42.4221157" lon="11.1406766"><ele>147.0</ele><time>2026-05-02T09:19:06.564Z</time></trkpt><trkpt lat="42.4220242" lon="11.1407194"><ele>145.66666666666666</ele><time>2026-05-02T09:19:07.564Z</time></trkpt><trkpt lat="42.4219448" lon="11.1407685"><ele>144.33333333333334</ele><time>2026-05-02T09:19:08.566Z</time></trkpt><trkpt lat="42.4218716" lon="11.1408402"><ele>143.0</ele><time>2026-05-02T09:19:09.564Z</time></trkpt><trkpt lat="42.4217938" lon="11.1409075"><ele>141.66666666666669</ele><time>2026-05-02T09:19:10.566Z</time></trkpt><trkpt lat="42.4217179" lon="11.1409666"><ele>140.33333333333334</ele><time>2026-05-02T09:19:11.563Z</time></trkpt><trkpt lat="42.421647" lon="11.1410333"><ele>139.0</ele><time>2026-05-02T09:19:12.565Z</time></trkpt><trkpt lat="42.4215823" lon="11.1411162"><ele>139.0</ele><time>2026-05-02T09:19:13.565Z</time></trkpt><trkpt lat="42.4215232" lon="11.1412053"><ele>139.0</ele><time>2026-05-02T09:19:14.565Z</time></trkpt><trkpt lat="42.4214733" lon="11.1412856"><ele>139.0</ele><time>2026-05-02T09:19:15.564Z</time></trkpt><trkpt lat="42.4214294" lon="11.1413526"><ele>139.0</ele><time>2026-05-02T09:19:16.563Z</time></trkpt><trkpt lat="42.421375" lon="11.1414088"><ele>139.0</ele><time>2026-05-02T09:19:17.564Z</time></trkpt><trkpt lat="42.421315" lon="11.1414589"><ele>139.0</ele><time>2026-05-02T09:19:18.565Z</time></trkpt><trkpt lat="42.4212476" lon="11.1415023"><ele>139.0</ele><time>2026-05-02T09:19:19.563Z</time></trkpt><trkpt lat="42.4211779" lon="11.1415417"><ele>140.5</ele><time>2026-05-02T09:19:20.565Z</time></trkpt><trkpt lat="42.4211054" lon="11.1415624"><ele>142.0</ele><time>2026-05-02T09:19:21.563Z</time></trkpt><trkpt lat="42.4210334" lon="11.1415687"><ele>143.5</ele><time>2026-05-02T09:19:22.565Z</time></trkpt><trkpt lat="42.4209434" lon="11.1415668"><ele>145.0</ele><time>2026-05-02T09:19:23.565Z</time></trkpt><trkpt lat="42.4208602" lon="11.1415611"><ele>146.5</ele><time>2026-05-02T09:19:24.564Z</time></trkpt><trkpt lat="42.4207705" lon="11.1415701"><ele>148.0</ele><time>2026-05-02T09:19:25.564Z</time></trkpt><trkpt lat="42.4206809" lon="11.1415821"><ele>148.0</ele><time>2026-05-02T09:19:26.565Z</time></trkpt><trkpt lat="42.4206141" lon="11.1415789"><ele>148.0</ele><time>2026-05-02T09:19:27.563Z</time></trkpt><trkpt lat="42.4205417" lon="11.1415549"><ele>148.0</ele><time>2026-05-02T09:19:28.564Z</time></trkpt><trkpt lat="42.4204679" lon="11.141505"><ele>148.0</ele><time>2026-05-02T09:19:29.564Z</time></trkpt><trkpt lat="42.4203906" lon="11.1414607"><ele>148.0</ele><time>2026-05-02T09:19:30.565Z</time></trkpt><trkpt lat="42.420301" lon="11.1414163"><ele>148.0</ele><time>2026-05-02T09:19:31.564Z</time></trkpt><trkpt lat="42.4202207" lon="11.141387"><ele>156.8</ele><time>2026-05-02T09:19:32.565Z</time></trkpt><trkpt lat="42.4201385" lon="11.1413793"><ele>165.60000000000002</ele><time>2026-05-02T09:19:33.565Z</time></trkpt><trkpt lat="42.4200366" lon="11.1413895"><ele>174.39999999999998</ele><time>2026-05-02T09:19:34.563Z</time></trkpt><trkpt lat="42.419951" lon="11.1414083"><ele>183.2</ele><time>2026-05-02T09:19:35.565Z</time></trkpt><trkpt lat="42.4198653" lon="11.1414294"><ele>192.0</ele><time>2026-05-02T09:19:36.564Z</time></trkpt><trkpt lat="42.4197974" lon="11.1415143"><ele>191.2</ele><time>2026-05-02T09:19:37.565Z</time></trkpt><trkpt lat="42.4197171" lon="11.1415818"><ele>190.39999999999998</ele><time>2026-05-02T09:19:38.564Z</time></trkpt><trkpt lat="42.4196349" lon="11.1416658"><ele>189.60000000000002</ele><time>2026-05-02T09:19:39.565Z</time></trkpt><trkpt lat="42.4195624" lon="11.1417325"><ele>188.8</ele><time>2026-05-02T09:19:40.564Z</time></trkpt><trkpt lat="42.419493" lon="11.1418057"><ele>188.0</ele><time>2026-05-02T09:19:41.563Z</time></trkpt><trkpt lat="42.4194275" lon="11.1418704"><ele>188.0</ele><time>2026-05-02T09:19:42.563Z</time></trkpt><trkpt lat="42.419357" lon="11.1419421"><ele>188.0</ele><time>2026-05-02T09:19:43.564Z</time></trkpt><trkpt lat="42.4192975" lon="11.1419991"><ele>188.0</ele><time>2026-05-02T09:19:44.564Z</time></trkpt><trkpt lat="42.419234" lon="11.1420455"><ele>188.0</ele><time>2026-05-02T09:19:45.565Z</time></trkpt><trkpt lat="42.4191389" lon="11.1420844"><ele>188.0</ele><time>2026-05-02T09:19:47.564Z</time></trkpt><trkpt lat="42.4190418" lon="11.1420586"><ele>188.0</ele><time>2026-05-02T09:19:49.564Z</time></trkpt><trkpt lat="42.4189604" lon="11.1419476"><ele>188.0</ele><time>2026-05-02T09:19:51.565Z</time></trkpt><trkpt lat="42.4188633" lon="11.141848"><ele>188.0</ele><time>2026-05-02T09:19:53.564Z</time></trkpt><trkpt lat="42.4187516" lon="11.1417833"><ele>188.0</ele><time>2026-05-02T09:19:55.564Z</time></trkpt><trkpt lat="42.4186302" lon="11.1418022"><ele>188.0</ele><time>2026-05-02T09:19:57.563Z</time></trkpt><trkpt lat="42.4185631" lon="11.1418448"><ele>188.0</ele><time>2026-05-02T09:19:58.563Z</time></trkpt><trkpt lat="42.4184978" lon="11.1418836"><ele>192.4</ele><time>2026-05-02T09:19:59.565Z</time></trkpt><trkpt lat="42.4184239" lon="11.141923"><ele>196.8</ele><time>2026-05-02T09:20:00.564Z</time></trkpt><trkpt lat="42.4183302" lon="11.1419564"><ele>201.2</ele><time>2026-05-02T09:20:01.564Z</time></trkpt><trkpt lat="42.4182334" lon="11.1419835"><ele>205.6</ele><time>2026-05-02T09:20:02.566Z</time></trkpt><trkpt lat="42.4181308" lon="11.142011"><ele>210.0</ele><time>2026-05-02T09:20:03.564Z</time></trkpt><trkpt lat="42.4180198" lon="11.1420244"><ele>214.33333333333334</ele><time>2026-05-02T09:20:04.564Z</time></trkpt><trkpt lat="42.4179462" lon="11.1420572"><ele>218.66666666666669</ele><time>2026-05-02T09:20:05.564Z</time></trkpt><trkpt lat="42.4178554" lon="11.142094"><ele>223.0</ele><time>2026-05-02T09:20:07.565Z</time></trkpt><trkpt lat="42.4178089" lon="11.1420327"><ele>227.33333333333334</ele><time>2026-05-02T09:20:09.563Z</time></trkpt><trkpt lat="42.4178511" lon="11.1419158"><ele>231.66666666666669</ele><time>2026-05-02T09:20:11.563Z</time></trkpt><trkpt lat="42.4178987" lon="11.1418323"><ele>236.0</ele><time>2026-05-02T09:20:12.565Z</time></trkpt><trkpt lat="42.4179458" lon="11.1417512"><ele>236.00000000000003</ele><time>2026-05-02T09:20:13.564Z</time></trkpt><trkpt lat="42.4180036" lon="11.1416329"><ele>236.0</ele><time>2026-05-02T09:20:15.565Z</time></trkpt><trkpt lat="42.4179418" lon="11.1415901"><ele>236.0</ele><time>2026-05-02T09:20:17.563Z</time></trkpt><trkpt lat="42.4178809" lon="11.1416607"><ele>236.0</ele><time>2026-05-02T09:20:19.565Z</time></trkpt><trkpt lat="42.4178277" lon="11.1417145"><ele>236.00000000000003</ele><time>2026-05-02T09:20:20.563Z</time></trkpt><trkpt lat="42.4177661" lon="11.1417571"><ele>236.0</ele><time>2026-05-02T09:20:21.564Z</time></trkpt><trkpt lat="42.4176531" lon="11.1418102"><ele>236.0</ele><time>2026-05-02T09:20:23.565Z</time></trkpt><trkpt lat="42.4175896" lon="11.1418333"><ele>236.00000000000003</ele><time>2026-05-02T09:20:24.563Z</time></trkpt><trkpt lat="42.4174721" lon="11.1418454"><ele>236.00000000000003</ele><time>2026-05-02T09:20:26.565Z</time></trkpt><trkpt lat="42.4173612" lon="11.1417883"><ele>236.0</ele><time>2026-05-02T09:20:28.564Z</time></trkpt><trkpt lat="42.4172667" lon="11.1417067"><ele>236.0</ele><time>2026-05-02T09:20:30.563Z</time></trkpt><trkpt lat="42.4171529" lon="11.1416563"><ele>238.83333333333334</ele><time>2026-05-02T09:20:32.564Z</time></trkpt><trkpt lat="42.4170326" lon="11.1416143"><ele>241.66666666666669</ele><time>2026-05-02T09:20:34.564Z</time></trkpt><trkpt lat="42.4169639" lon="11.1416071"><ele>244.5</ele><time>2026-05-02T09:20:35.564Z</time></trkpt><trkpt lat="42.4168878" lon="11.1415859"><ele>247.33333333333331</ele><time>2026-05-02T09:20:36.564Z</time></trkpt><trkpt lat="42.4168064" lon="11.1415714"><ele>250.16666666666666</ele><time>2026-05-02T09:20:37.564Z</time></trkpt><trkpt lat="42.4167213" lon="11.1415716"><ele>253.0</ele><time>2026-05-02T09:20:38.565Z</time></trkpt><trkpt lat="42.416633" lon="11.1415802"><ele>253.0</ele><time>2026-05-02T09:20:39.563Z</time></trkpt><trkpt lat="42.4165387" lon="11.1415909"><ele>253.0</ele><time>2026-05-02T09:20:40.564Z</time></trkpt><trkpt lat="42.416453" lon="11.141619"><ele>253.0</ele><time>2026-05-02T09:20:41.564Z</time></trkpt><trkpt lat="42.4163897" lon="11.1416344"><ele>253.0</ele><time>2026-05-02T09:20:42.564Z</time></trkpt><trkpt lat="42.4162818" lon="11.1416294"><ele>253.0</ele><time>2026-05-02T09:20:44.565Z</time></trkpt><trkpt lat="42.4161776" lon="11.1415664"><ele>257.42857142857144</ele><time>2026-05-02T09:20:46.565Z</time></trkpt><trkpt lat="42.4161134" lon="11.1415216"><ele>261.8571428571429</ele><time>2026-05-02T09:20:47.564Z</time></trkpt><trkpt lat="42.416055" lon="11.1414719"><ele>266.2857142857143</ele><time>2026-05-02T09:20:48.565Z</time></trkpt><trkpt lat="42.4159944" lon="11.141434"><ele>270.7142857142857</ele><time>2026-05-02T09:20:49.564Z</time></trkpt><trkpt lat="42.4159182" lon="11.1414027"><ele>275.1428571428571</ele><time>2026-05-02T09:20:50.564Z</time></trkpt><trkpt lat="42.4158476" lon="11.1413879"><ele>279.57142857142856</ele><time>2026-05-02T09:20:51.564Z</time></trkpt><trkpt lat="42.4157795" lon="11.1413943"><ele>284.0</ele><time>2026-05-02T09:20:52.564Z</time></trkpt><trkpt lat="42.4157075" lon="11.1414189"><ele>284.0</ele><time>2026-05-02T09:20:53.564Z</time></trkpt><trkpt lat="42.4156334" lon="11.1414567"><ele>284.0</ele><time>2026-05-02T09:20:54.565Z</time></trkpt><trkpt lat="42.4155655" lon="11.1415169"><ele>284.0</ele><time>2026-05-02T09:20:55.564Z</time></trkpt><trkpt lat="42.4154995" lon="11.1415942"><ele>284.0</ele><time>2026-05-02T09:20:56.564Z</time></trkpt><trkpt lat="42.4154373" lon="11.1416844"><ele>284.0</ele><time>2026-05-02T09:20:57.565Z</time></trkpt><trkpt lat="42.4153815" lon="11.1417726"><ele>284.0</ele><time>2026-05-02T09:20:58.563Z</time></trkpt><trkpt lat="42.4153279" lon="11.1418705"><ele>284.0</ele><time>2026-05-02T09:20:59.563Z</time></trkpt><trkpt lat="42.415271" lon="11.1419826"><ele>284.0</ele><time>2026-05-02T09:21:00.564Z</time></trkpt><trkpt lat="42.4152177" lon="11.1420941"><ele>284.0</ele><time>2026-05-02T09:21:01.563Z</time></trkpt><trkpt lat="42.4151653" lon="11.1421917"><ele>284.0</ele><time>2026-05-02T09:21:02.563Z</time></trkpt><trkpt lat="42.4151154" lon="11.1422854"><ele>284.0</ele><time>2026-05-02T09:21:03.564Z</time></trkpt><trkpt lat="42.4150598" lon="11.1423879"><ele>281.8</ele><time>2026-05-02T09:21:04.564Z</time></trkpt><trkpt lat="42.4150121" lon="11.1424854"><ele>279.59999999999997</ele><time>2026-05-02T09:21:05.563Z</time></trkpt><trkpt lat="42.4149754" lon="11.1425692"><ele>277.4</ele><time>2026-05-02T09:21:06.565Z</time></trkpt><trkpt lat="42.4149041" lon="11.1426932"><ele>275.2</ele><time>2026-05-02T09:21:08.565Z</time></trkpt><trkpt lat="42.4148356" lon="11.1427903"><ele>273.0</ele><time>2026-05-02T09:21:10.564Z</time></trkpt><trkpt lat="42.414717" lon="11.142815"><ele>277.5</ele><time>2026-05-02T09:21:12.563Z</time></trkpt><trkpt lat="42.4145844" lon="11.1428589"><ele>282.0</ele><time>2026-05-02T09:21:14.564Z</time></trkpt><trkpt lat="42.4145173" lon="11.1428917"><ele>286.5</ele><time>2026-05-02T09:21:15.564Z</time></trkpt><trkpt lat="42.4144513" lon="11.142933"><ele>291.0</ele><time>2026-05-02T09:21:16.563Z</time></trkpt><trkpt lat="42.414388" lon="11.1430025"><ele>295.5</ele><time>2026-05-02T09:21:17.564Z</time></trkpt><trkpt lat="42.4143236" lon="11.1430679"><ele>300.0</ele><time>2026-05-02T09:21:18.564Z</time></trkpt><trkpt lat="42.414237" lon="11.1431536"><ele>300.0</ele><time>2026-05-02T09:21:20.564Z</time></trkpt><trkpt lat="42.4141117" lon="11.1431893"><ele>300.0</ele><time>2026-05-02T09:21:22.564Z</time></trkpt><trkpt lat="42.4140348" lon="11.1431947"><ele>300.0</ele><time>2026-05-02T09:21:23.564Z</time></trkpt><trkpt lat="42.4139502" lon="11.1432049"><ele>300.0</ele><time>2026-05-02T09:21:24.564Z</time></trkpt><trkpt lat="42.4138608" lon="11.1432263"><ele>300.0</ele><time>2026-05-02T09:21:25.563Z</time></trkpt><trkpt lat="42.4137705" lon="11.1432557"><ele>300.5</ele><time>2026-05-02T09:21:26.564Z</time></trkpt><trkpt lat="42.4136994" lon="11.143293"><ele>301.0</ele><time>2026-05-02T09:21:27.563Z</time></trkpt><trkpt lat="42.4136386" lon="11.1433445"><ele>301.5</ele><time>2026-05-02T09:21:28.564Z</time></trkpt><trkpt lat="42.4135776" lon="11.1434117"><ele>302.0</ele><time>2026-05-02T09:21:29.563Z</time></trkpt><trkpt lat="42.4135214" lon="11.1435084"><ele>302.5</ele><time>2026-05-02T09:21:30.564Z</time></trkpt><trkpt lat="42.4134687" lon="11.1435971"><ele>303.0</ele><time>2026-05-02T09:21:31.562Z</time></trkpt><trkpt lat="42.4134175" lon="11.1436716"><ele>303.0</ele><time>2026-05-02T09:21:32.564Z</time></trkpt><trkpt lat="42.4133659" lon="11.1437456"><ele>303.0</ele><time>2026-05-02T09:21:33.563Z</time></trkpt><trkpt lat="42.4133116" lon="11.1438064"><ele>303.0</ele><time>2026-05-02T09:21:34.564Z</time></trkpt><trkpt lat="42.4132507" lon="11.143859"><ele>303.0</ele><time>2026-05-02T09:21:35.564Z</time></trkpt><trkpt lat="42.4131644" lon="11.143948"><ele>303.0</ele><time>2026-05-02T09:21:37.563Z</time></trkpt><trkpt lat="42.4130615" lon="11.143974"><ele>303.0</ele><time>2026-05-02T09:21:39.563Z</time></trkpt><trkpt lat="42.4129433" lon="11.143967"><ele>306.4</ele><time>2026-05-02T09:21:41.565Z</time></trkpt><trkpt lat="42.4128594" lon="11.1439373"><ele>309.8</ele><time>2026-05-02T09:21:42.563Z</time></trkpt><trkpt lat="42.4127723" lon="11.1439088"><ele>313.2</ele><time>2026-05-02T09:21:43.564Z</time></trkpt><trkpt lat="42.4126717" lon="11.1438772"><ele>316.6</ele><time>2026-05-02T09:21:44.563Z</time></trkpt><trkpt lat="42.4125679" lon="11.1438478"><ele>320.0</ele><time>2026-05-02T09:21:45.563Z</time></trkpt><trkpt lat="42.412468" lon="11.1438341"><ele>320.0</ele><time>2026-05-02T09:21:46.564Z</time></trkpt><trkpt lat="42.4123775" lon="11.1438312"><ele>320.0</ele><time>2026-05-02T09:21:47.563Z</time></trkpt><trkpt lat="42.4122894" lon="11.1438349"><ele>320.0</ele><time>2026-05-02T09:21:48.564Z</time></trkpt><trkpt lat="42.4122098" lon="11.1438449"><ele>320.0</ele><time>2026-05-02T09:21:49.563Z</time></trkpt><trkpt lat="42.4121197" lon="11.1438573"><ele>320.0</ele><time>2026-05-02T09:21:50.565Z</time></trkpt><trkpt lat="42.4120367" lon="11.1438771"><ele>320.0</ele><time>2026-05-02T09:21:51.564Z</time></trkpt><trkpt lat="42.4119038" lon="11.1438907"><ele>321.83333333333337</ele><time>2026-05-02T09:21:53.563Z</time></trkpt><trkpt lat="42.4118195" lon="11.1439041"><ele>323.6666666666667</ele><time>2026-05-02T09:21:54.564Z</time></trkpt><trkpt lat="42.4117148" lon="11.1439295"><ele>325.5</ele><time>2026-05-02T09:21:55.564Z</time></trkpt><trkpt lat="42.4116291" lon="11.1439492"><ele>327.3333333333333</ele><time>2026-05-02T09:21:56.562Z</time></trkpt><trkpt lat="42.411541" lon="11.1439692"><ele>329.16666666666663</ele><time>2026-05-02T09:21:57.564Z</time></trkpt><trkpt lat="42.4114678" lon="11.1439855"><ele>331.0</ele><time>2026-05-02T09:21:58.563Z</time></trkpt><trkpt lat="42.4113941" lon="11.1439891"><ele>331.4</ele><time>2026-05-02T09:21:59.563Z</time></trkpt><trkpt lat="42.4112765" lon="11.1439775"><ele>331.8</ele><time>2026-05-02T09:22:01.565Z</time></trkpt><trkpt lat="42.4111719" lon="11.1439401"><ele>332.2</ele><time>2026-05-02T09:22:03.563Z</time></trkpt><trkpt lat="42.4110859" lon="11.1438757"><ele>332.59999999999997</ele><time>2026-05-02T09:22:05.563Z</time></trkpt><trkpt lat="42.410989" lon="11.1438009"><ele>333.0</ele><time>2026-05-02T09:22:07.564Z</time></trkpt><trkpt lat="42.4108988" lon="11.1437007"><ele>333.0</ele><time>2026-05-02T09:22:09.564Z</time></trkpt><trkpt lat="42.4107974" lon="11.1435931"><ele>333.0</ele><time>2026-05-02T09:22:11.564Z</time></trkpt><trkpt lat="42.4107347" lon="11.1435448"><ele>333.0</ele><time>2026-05-02T09:22:12.565Z</time></trkpt><trkpt lat="42.4106613" lon="11.1434971"><ele>333.0</ele><time>2026-05-02T09:22:13.564Z</time></trkpt><trkpt lat="42.4105958" lon="11.1434572"><ele>333.0</ele><time>2026-05-02T09:22:14.563Z</time></trkpt><trkpt lat="42.4105159" lon="11.1434219"><ele>333.0</ele><time>2026-05-02T09:22:15.563Z</time></trkpt><trkpt lat="42.4104391" lon="11.1433907"><ele>331.79999999999995</ele><time>2026-05-02T09:22:16.563Z</time></trkpt><trkpt lat="42.4103585" lon="11.1433741"><ele>330.6</ele><time>2026-05-02T09:22:17.564Z</time></trkpt><trkpt lat="42.4102724" lon="11.1433694"><ele>329.4</ele><time>2026-05-02T09:22:18.563Z</time></trkpt><trkpt lat="42.4102055" lon="11.1433811"><ele>328.20000000000005</ele><time>2026-05-02T09:22:19.563Z</time></trkpt><trkpt lat="42.4101122" lon="11.143447"><ele>327.0</ele><time>2026-05-02T09:22:21.563Z</time></trkpt><trkpt lat="42.410028" lon="11.1435612"><ele>327.0</ele><time>2026-05-02T09:22:23.564Z</time></trkpt><trkpt lat="42.409978" lon="11.1436478"><ele>327.0</ele><time>2026-05-02T09:22:24.562Z</time></trkpt><trkpt lat="42.4099223" lon="11.1437356"><ele>327.0</ele><time>2026-05-02T09:22:25.564Z</time></trkpt><trkpt lat="42.4098407" lon="11.1438648"><ele>327.0</ele><time>2026-05-02T09:22:26.565Z</time></trkpt><trkpt lat="42.4097606" lon="11.1439958"><ele>327.0</ele><time>2026-05-02T09:22:27.564Z</time></trkpt><trkpt lat="42.4096844" lon="11.1441249"><ele>328.0</ele><time>2026-05-02T09:22:28.563Z</time></trkpt><trkpt lat="42.4096163" lon="11.1442402"><ele>329.0</ele><time>2026-05-02T09:22:29.564Z</time></trkpt><trkpt lat="42.4095507" lon="11.1443454"><ele>330.0</ele><time>2026-05-02T09:22:30.563Z</time></trkpt><trkpt lat="42.4094853" lon="11.1444309"><ele>331.0</ele><time>2026-05-02T09:22:31.565Z</time></trkpt><trkpt lat="42.4094168" lon="11.1444958"><ele>332.0</ele><time>2026-05-02T09:22:32.562Z</time></trkpt><trkpt lat="42.4093575" lon="11.1445407"><ele>332.0</ele><time>2026-05-02T09:22:33.562Z</time></trkpt><trkpt lat="42.409278" lon="11.1445765"><ele>332.0</ele><time>2026-05-02T09:22:35.564Z</time></trkpt><trkpt lat="42.4091563" lon="11.1445796"><ele>332.0</ele><time>2026-05-02T09:22:37.564Z</time></trkpt><trkpt lat="42.4090864" lon="11.1445835"><ele>332.0</ele><time>2026-05-02T09:22:38.564Z</time></trkpt><trkpt lat="42.4090195" lon="11.1445906"><ele>332.0</ele><time>2026-05-02T09:22:39.564Z</time></trkpt><trkpt lat="42.408947" lon="11.1446"><ele>332.0</ele><time>2026-05-02T09:22:40.564Z</time></trkpt><trkpt lat="42.4088784" lon="11.1446029"><ele>329.20000000000005</ele><time>2026-05-02T09:22:41.564Z</time></trkpt><trkpt lat="42.4087732" lon="11.1446211"><ele>326.40000000000003</ele><time>2026-05-02T09:22:43.562Z</time></trkpt><trkpt lat="42.4086671" lon="11.1446532"><ele>323.6</ele><time>2026-05-02T09:22:45.564Z</time></trkpt><trkpt lat="42.4085642" lon="11.1447108"><ele>320.8</ele><time>2026-05-02T09:22:47.563Z</time></trkpt><trkpt lat="42.4085001" lon="11.1447562"><ele>318.0</ele><time>2026-05-02T09:22:48.564Z</time></trkpt><trkpt lat="42.4084257" lon="11.1448103"><ele>318.0</ele><time>2026-05-02T09:22:49.564Z</time></trkpt><trkpt lat="42.4083619" lon="11.1448663"><ele>318.0</ele><time>2026-05-02T09:22:50.562Z</time></trkpt><trkpt lat="42.4083029" lon="11.1449238"><ele>318.0</ele><time>2026-05-02T09:22:51.563Z</time></trkpt><trkpt lat="42.4082485" lon="11.1449859"><ele>318.0</ele><time>2026-05-02T09:22:52.562Z</time></trkpt><trkpt lat="42.4081951" lon="11.1450472"><ele>318.0</ele><time>2026-05-02T09:22:53.564Z</time></trkpt><trkpt lat="42.408083" lon="11.1451326"><ele>318.0</ele><time>2026-05-02T09:22:55.564Z</time></trkpt><trkpt lat="42.4079708" lon="11.1451984"><ele>320.5</ele><time>2026-05-02T09:22:57.564Z</time></trkpt><trkpt lat="42.4079059" lon="11.1452188"><ele>323.0</ele><time>2026-05-02T09:22:58.563Z</time></trkpt><trkpt lat="42.4078309" lon="11.145227"><ele>325.5</ele><time>2026-05-02T09:22:59.565Z</time></trkpt><trkpt lat="42.407744" lon="11.1452336"><ele>328.0</ele><time>2026-05-02T09:23:00.564Z</time></trkpt><trkpt lat="42.4076721" lon="11.1452308"><ele>330.5</ele><time>2026-05-02T09:23:01.563Z</time></trkpt><trkpt lat="42.4076062" lon="11.1452187"><ele>333.0</ele><time>2026-05-02T09:23:02.563Z</time></trkpt><trkpt lat="42.4074863" lon="11.1451772"><ele>333.0</ele><time>2026-05-02T09:23:04.562Z</time></trkpt><trkpt lat="42.4073578" lon="11.1451656"><ele>333.0</ele><time>2026-05-02T09:23:06.563Z</time></trkpt><trkpt lat="42.4072808" lon="11.1451749"><ele>333.0</ele><time>2026-05-02T09:23:07.563Z</time></trkpt><trkpt lat="42.4072075" lon="11.1451788"><ele>333.0</ele><time>2026-05-02T09:23:08.563Z</time></trkpt><trkpt lat="42.4071344" lon="11.14518"><ele>333.0</ele><time>2026-05-02T09:23:09.562Z</time></trkpt><trkpt lat="42.4070509" lon="11.1451561"><ele>333.0</ele><time>2026-05-02T09:23:10.564Z</time></trkpt><trkpt lat="42.4069777" lon="11.1451633"><ele>334.0</ele><time>2026-05-02T09:23:11.563Z</time></trkpt><trkpt lat="42.4069059" lon="11.1451611"><ele>335.0</ele><time>2026-05-02T09:23:12.563Z</time></trkpt><trkpt lat="42.4068355" lon="11.1451572"><ele>336.0</ele><time>2026-05-02T09:23:13.562Z</time></trkpt><trkpt lat="42.4067627" lon="11.1451497"><ele>337.0</ele><time>2026-05-02T09:23:14.564Z</time></trkpt><trkpt lat="42.4066977" lon="11.1451351"><ele>338.0</ele><time>2026-05-02T09:23:15.562Z</time></trkpt><trkpt lat="42.4066241" lon="11.1451041"><ele>339.0</ele><time>2026-05-02T09:23:16.564Z</time></trkpt><trkpt lat="42.4065542" lon="11.1450526"><ele>340.0</ele><time>2026-05-02T09:23:17.562Z</time></trkpt><trkpt lat="42.406479" lon="11.1449934"><ele>340.0</ele><time>2026-05-02T09:23:18.564Z</time></trkpt><trkpt lat="42.4064302" lon="11.1449349"><ele>340.0</ele><time>2026-05-02T09:23:19.562Z</time></trkpt><trkpt lat="42.4063504" lon="11.1448677"><ele>340.0</ele><time>2026-05-02T09:23:21.563Z</time></trkpt><trkpt lat="42.4062734" lon="11.144813"><ele>340.0</ele><time>2026-05-02T09:23:23.562Z</time></trkpt><trkpt lat="42.4062398" lon="11.1447384"><ele>340.0</ele><time>2026-05-02T09:23:24.563Z</time></trkpt><trkpt lat="42.4062005" lon="11.1446592"><ele>340.0</ele><time>2026-05-02T09:23:25.563Z</time></trkpt><trkpt lat="42.4061597" lon="11.144525"><ele>341.0</ele><time>2026-05-02T09:23:27.563Z</time></trkpt><trkpt lat="42.4060957" lon="11.1444289"><ele>342.0</ele><time>2026-05-02T09:23:29.562Z</time></trkpt><trkpt lat="42.4060104" lon="11.1443307"><ele>343.0</ele><time>2026-05-02T09:23:31.564Z</time></trkpt><trkpt lat="42.4059634" lon="11.1442706"><ele>344.0</ele><time>2026-05-02T09:24:14.563Z</time></trkpt><trkpt lat="42.4059571" lon="11.1441519"><ele>345.0</ele><time>2026-05-02T09:24:17.563Z</time></trkpt><trkpt lat="42.4059802" lon="11.1440337"><ele>345.0</ele><time>2026-05-02T09:24:19.565Z</time></trkpt><trkpt lat="42.4059821" lon="11.1439262"><ele>345.0</ele><time>2026-05-02T09:24:21.567Z</time></trkpt><trkpt lat="42.4059281" lon="11.1438007"><ele>345.0</ele><time>2026-05-02T09:24:23.563Z</time></trkpt><trkpt lat="42.4058796" lon="11.1437221"><ele>345.0</ele><time>2026-05-02T09:24:24.563Z</time></trkpt><trkpt lat="42.4058314" lon="11.1436328"><ele>345.0</ele><time>2026-05-02T09:24:25.563Z</time></trkpt><trkpt lat="42.4057782" lon="11.1435222"><ele>345.0</ele><time>2026-05-02T09:24:26.565Z</time></trkpt><trkpt lat="42.4057385" lon="11.1434066"><ele>345.0</ele><time>2026-05-02T09:24:27.562Z</time></trkpt><trkpt lat="42.4057041" lon="11.1432914"><ele>345.0</ele><time>2026-05-02T09:24:28.563Z</time></trkpt><trkpt lat="42.4056695" lon="11.1431835"><ele>345.0</ele><time>2026-05-02T09:24:29.567Z</time></trkpt><trkpt lat="42.4056347" lon="11.1430758"><ele>345.0</ele><time>2026-05-02T09:24:30.568Z</time></trkpt><trkpt lat="42.4056158" lon="11.1429638"><ele>345.0</ele><time>2026-05-02T09:24:31.563Z</time></trkpt><trkpt lat="42.4055803" lon="11.1428527"><ele>345.0</ele><time>2026-05-02T09:24:32.563Z</time></trkpt><trkpt lat="42.4055371" lon="11.1427481"><ele>344.8333333333333</ele><time>2026-05-02T09:24:33.562Z</time></trkpt><trkpt lat="42.4055038" lon="11.1426454"><ele>344.6666666666667</ele><time>2026-05-02T09:24:34.563Z</time></trkpt><trkpt lat="42.4054704" lon="11.14255"><ele>344.5</ele><time>2026-05-02T09:24:35.562Z</time></trkpt><trkpt lat="42.4054379" lon="11.1424658"><ele>344.33333333333337</ele><time>2026-05-02T09:24:36.563Z</time></trkpt><trkpt lat="42.405408" lon="11.1423767"><ele>344.1666666666667</ele><time>2026-05-02T09:24:37.563Z</time></trkpt><trkpt lat="42.4053841" lon="11.1422695"><ele>344.0</ele><time>2026-05-02T09:24:38.564Z</time></trkpt><trkpt lat="42.405364" lon="11.1421443"><ele>342.0</ele><time>2026-05-02T09:24:39.563Z</time></trkpt><trkpt lat="42.4053466" lon="11.1420188"><ele>340.0</ele><time>2026-05-02T09:24:40.564Z</time></trkpt><trkpt lat="42.4053301" lon="11.1419099"><ele>338.0</ele><time>2026-05-02T09:24:41.562Z</time></trkpt><trkpt lat="42.4053108" lon="11.1418058"><ele>336.0</ele><time>2026-05-02T09:24:42.563Z</time></trkpt><trkpt lat="42.4052625" lon="11.1416569"><ele>334.0</ele><time>2026-05-02T09:24:44.564Z</time></trkpt><trkpt lat="42.4052066" lon="11.1415086"><ele>334.0</ele><time>2026-05-02T09:24:46.563Z</time></trkpt><trkpt lat="42.4051752" lon="11.1414266"><ele>334.0</ele><time>2026-05-02T09:24:47.562Z</time></trkpt><trkpt lat="42.4051184" lon="11.1412904"><ele>334.0</ele><time>2026-05-02T09:24:49.562Z</time></trkpt><trkpt lat="42.4050644" lon="11.1411663"><ele>334.0</ele><time>2026-05-02T09:24:51.562Z</time></trkpt><trkpt lat="42.4050051" lon="11.1410305"><ele>334.0</ele><time>2026-05-02T09:24:53.563Z</time></trkpt><trkpt lat="42.4049487" lon="11.1409017"><ele>334.0</ele><time>2026-05-02T09:24:55.563Z</time></trkpt><trkpt lat="42.4048989" lon="11.1407508"><ele>334.0</ele><time>2026-05-02T09:24:57.567Z</time></trkpt><trkpt lat="42.4048686" lon="11.1406667"><ele>334.0</ele><time>2026-05-02T09:24:58.563Z</time></trkpt><trkpt lat="42.4048339" lon="11.1405702"><ele>334.0</ele><time>2026-05-02T09:24:59.563Z</time></trkpt><trkpt lat="42.4047974" lon="11.1404519"><ele>334.0</ele><time>2026-05-02T09:25:00.563Z</time></trkpt><trkpt lat="42.4047552" lon="11.1403372"><ele>332.66666666666663</ele><time>2026-05-02T09:25:01.564Z</time></trkpt><trkpt lat="42.4047203" lon="11.1402154"><ele>331.3333333333333</ele><time>2026-05-02T09:25:02.562Z</time></trkpt><trkpt lat="42.4046824" lon="11.1401034"><ele>330.0</ele><time>2026-05-02T09:25:03.563Z</time></trkpt><trkpt lat="42.4046468" lon="11.1400018"><ele>328.6666666666667</ele><time>2026-05-02T09:25:04.564Z</time></trkpt><trkpt lat="42.4046046" lon="11.1399099"><ele>327.33333333333337</ele><time>2026-05-02T09:25:05.563Z</time></trkpt><trkpt lat="42.4045496" lon="11.1398249"><ele>326.0</ele><time>2026-05-02T09:25:06.562Z</time></trkpt><trkpt lat="42.404483" lon="11.1397451"><ele>326.0</ele><time>2026-05-02T09:25:07.564Z</time></trkpt><trkpt lat="42.4044097" lon="11.1396553"><ele>326.0</ele><time>2026-05-02T09:25:08.563Z</time></trkpt><trkpt lat="42.4043182" lon="11.1395478"><ele>326.0</ele><time>2026-05-02T09:25:09.562Z</time></trkpt><trkpt lat="42.4042484" lon="11.1394489"><ele>326.0</ele><time>2026-05-02T09:25:10.562Z</time></trkpt><trkpt lat="42.4041811" lon="11.1393465"><ele>326.0</ele><time>2026-05-02T09:25:11.569Z</time></trkpt><trkpt lat="42.4041306" lon="11.139279"><ele>326.0</ele><time>2026-05-02T09:25:12.563Z</time></trkpt><trkpt lat="42.4040772" lon="11.1392089"><ele>326.0</ele><time>2026-05-02T09:25:13.562Z</time></trkpt><trkpt lat="42.4040327" lon="11.1391457"><ele>326.0</ele><time>2026-05-02T09:25:14.563Z</time></trkpt><trkpt lat="42.403992" lon="11.1390701"><ele>326.0</ele><time>2026-05-02T09:25:15.562Z</time></trkpt><trkpt lat="42.4039463" lon="11.1389674"><ele>326.0</ele><time>2026-05-02T09:25:16.563Z</time></trkpt><trkpt lat="42.4039045" lon="11.1388599"><ele>326.0</ele><time>2026-05-02T09:25:17.563Z</time></trkpt><trkpt lat="42.4038728" lon="11.138767"><ele>326.1666666666667</ele><time>2026-05-02T09:25:18.563Z</time></trkpt><trkpt lat="42.4038415" lon="11.1386622"><ele>326.33333333333337</ele><time>2026-05-02T09:25:19.564Z</time></trkpt><trkpt lat="42.4038037" lon="11.138558"><ele>326.5</ele><time>2026-05-02T09:25:20.563Z</time></trkpt><trkpt lat="42.4037559" lon="11.1384567"><ele>326.6666666666667</ele><time>2026-05-02T09:25:21.563Z</time></trkpt><trkpt lat="42.4036947" lon="11.1383534"><ele>326.8333333333333</ele><time>2026-05-02T09:25:22.562Z</time></trkpt><trkpt lat="42.4036368" lon="11.1382645"><ele>327.0</ele><time>2026-05-02T09:25:23.565Z</time></trkpt><trkpt lat="42.4035462" lon="11.1381167"><ele>325.5</ele><time>2026-05-02T09:25:25.562Z</time></trkpt><trkpt lat="42.4034885" lon="11.1380397"><ele>324.0</ele><time>2026-05-02T09:25:26.562Z</time></trkpt><trkpt lat="42.4034382" lon="11.1379708"><ele>322.5</ele><time>2026-05-02T09:25:27.564Z</time></trkpt><trkpt lat="42.4033917" lon="11.1378982"><ele>321.0</ele><time>2026-05-02T09:25:28.563Z</time></trkpt><trkpt lat="42.4033399" lon="11.1378017"><ele>319.5</ele><time>2026-05-02T09:25:29.563Z</time></trkpt><trkpt lat="42.4032857" lon="11.1376947"><ele>318.0</ele><time>2026-05-02T09:25:30.563Z</time></trkpt><trkpt lat="42.403242" lon="11.1375871"><ele>318.0</ele><time>2026-05-02T09:25:31.563Z</time></trkpt><trkpt lat="42.4031993" lon="11.1374794"><ele>318.0</ele><time>2026-05-02T09:25:32.567Z</time></trkpt><trkpt lat="42.4031639" lon="11.1373584"><ele>318.0</ele><time>2026-05-02T09:25:33.564Z</time></trkpt><trkpt lat="42.4031488" lon="11.1372414"><ele>318.0</ele><time>2026-05-02T09:25:34.563Z</time></trkpt><trkpt lat="42.4031345" lon="11.1371294"><ele>318.0</ele><time>2026-05-02T09:25:35.562Z</time></trkpt><trkpt lat="42.4031192" lon="11.1370194"><ele>318.0</ele><time>2026-05-02T09:25:36.563Z</time></trkpt><trkpt lat="42.4031242" lon="11.136932"><ele>316.0</ele><time>2026-05-02T09:25:37.562Z</time></trkpt><trkpt lat="42.4031193" lon="11.1368446"><ele>314.0</ele><time>2026-05-02T09:25:38.566Z</time></trkpt><trkpt lat="42.4031133" lon="11.1367525"><ele>312.0</ele><time>2026-05-02T09:25:39.562Z</time></trkpt><trkpt lat="42.4031061" lon="11.1366641"><ele>310.0</ele><time>2026-05-02T09:25:40.562Z</time></trkpt><trkpt lat="42.4030727" lon="11.1365257"><ele>308.0</ele><time>2026-05-02T09:25:42.564Z</time></trkpt><trkpt lat="42.4030328" lon="11.1363671"><ele>306.0</ele><time>2026-05-02T09:25:44.563Z</time></trkpt><trkpt lat="42.4029983" lon="11.1362931"><ele>305.1666666666667</ele><time>2026-05-02T09:25:45.563Z</time></trkpt><trkpt lat="42.4029603" lon="11.1362104"><ele>304.3333333333333</ele><time>2026-05-02T09:25:46.563Z</time></trkpt><trkpt lat="42.4029241" lon="11.1361353"><ele>303.5</ele><time>2026-05-02T09:25:47.562Z</time></trkpt><trkpt lat="42.4028885" lon="11.1360591"><ele>302.66666666666663</ele><time>2026-05-02T09:25:48.563Z</time></trkpt><trkpt lat="42.4028396" lon="11.1359338"><ele>301.8333333333333</ele><time>2026-05-02T09:25:50.563Z</time></trkpt><trkpt lat="42.4028306" lon="11.1358332"><ele>301.0</ele><time>2026-05-02T09:25:52.564Z</time></trkpt><trkpt lat="42.4028214" lon="11.1356985"><ele>301.0</ele><time>2026-05-02T09:25:54.561Z</time></trkpt><trkpt lat="42.4028256" lon="11.13556"><ele>301.0</ele><time>2026-05-02T09:25:56.564Z</time></trkpt><trkpt lat="42.4028389" lon="11.1354417"><ele>301.0</ele><time>2026-05-02T09:25:58.563Z</time></trkpt><trkpt lat="42.4028786" lon="11.1352911"><ele>301.0</ele><time>2026-05-02T09:26:00.563Z</time></trkpt><trkpt lat="42.4029074" lon="11.1352117"><ele>301.0</ele><time>2026-05-02T09:26:01.562Z</time></trkpt><trkpt lat="42.4029681" lon="11.135064"><ele>299.42857142857144</ele><time>2026-05-02T09:26:03.563Z</time></trkpt><trkpt lat="42.4029987" lon="11.1349789"><ele>297.8571428571429</ele><time>2026-05-02T09:26:04.562Z</time></trkpt><trkpt lat="42.4030284" lon="11.1348974"><ele>296.2857142857143</ele><time>2026-05-02T09:26:05.562Z</time></trkpt><trkpt lat="42.4030565" lon="11.134814"><ele>294.7142857142857</ele><time>2026-05-02T09:26:06.561Z</time></trkpt><trkpt lat="42.4030856" lon="11.1347354"><ele>293.14285714285717</ele><time>2026-05-02T09:26:07.562Z</time></trkpt><trkpt lat="42.4031114" lon="11.1346561"><ele>291.57142857142856</ele><time>2026-05-02T09:26:08.563Z</time></trkpt><trkpt lat="42.4031554" lon="11.1345139"><ele>290.0</ele><time>2026-05-02T09:26:10.561Z</time></trkpt><trkpt lat="42.4031799" lon="11.1344338"><ele>290.0</ele><time>2026-05-02T09:26:11.564Z</time></trkpt><trkpt lat="42.4032144" lon="11.1342922"><ele>290.0</ele><time>2026-05-02T09:26:13.563Z</time></trkpt><trkpt lat="42.4032163" lon="11.134156"><ele>290.0</ele><time>2026-05-02T09:26:15.563Z</time></trkpt><trkpt lat="42.4031659" lon="11.1340137"><ele>290.0</ele><time>2026-05-02T09:26:17.562Z</time></trkpt><trkpt lat="42.403092" lon="11.1339061"><ele>290.0</ele><time>2026-05-02T09:26:19.561Z</time></trkpt><trkpt lat="42.4029994" lon="11.1338416"><ele>288.6666666666667</ele><time>2026-05-02T09:26:21.563Z</time></trkpt><trkpt lat="42.402895" lon="11.1338044"><ele>287.33333333333337</ele><time>2026-05-02T09:26:23.562Z</time></trkpt><trkpt lat="42.4027795" lon="11.1337595"><ele>286.0</ele><time>2026-05-02T09:26:25.564Z</time></trkpt><trkpt lat="42.402704" lon="11.1337408"><ele>284.6666666666667</ele><time>2026-05-02T09:26:26.562Z</time></trkpt><trkpt lat="42.4026411" lon="11.1337333"><ele>283.3333333333333</ele><time>2026-05-02T09:26:27.563Z</time></trkpt><trkpt lat="42.4025734" lon="11.1337239"><ele>282.0</ele><time>2026-05-02T09:26:28.562Z</time></trkpt><trkpt lat="42.4024523" lon="11.1337428"><ele>282.0</ele><time>2026-05-02T09:26:30.564Z</time></trkpt><trkpt lat="42.402352" lon="11.1337987"><ele>282.0</ele><time>2026-05-02T09:26:32.562Z</time></trkpt><trkpt lat="42.4022857" lon="11.1339309"><ele>282.0</ele><time>2026-05-02T09:26:34.562Z</time></trkpt><trkpt lat="42.4022524" lon="11.1340671"><ele>282.0</ele><time>2026-05-02T09:26:36.562Z</time></trkpt><trkpt lat="42.4022335" lon="11.1341664"><ele>282.0</ele><time>2026-05-02T09:26:38.562Z</time></trkpt><trkpt lat="42.4021737" lon="11.1342135"><ele>281.8</ele><time>2026-05-02T09:26:41.562Z</time></trkpt><trkpt lat="42.4021458" lon="11.1340767"><ele>281.6</ele><time>2026-05-02T09:26:44.563Z</time></trkpt><trkpt lat="42.4021372" lon="11.1339912"><ele>281.40000000000003</ele><time>2026-05-02T09:26:45.562Z</time></trkpt><trkpt lat="42.4021192" lon="11.1338373"><ele>281.2</ele><time>2026-05-02T09:26:47.563Z</time></trkpt><trkpt lat="42.4021191" lon="11.1337106"><ele>281.0</ele><time>2026-05-02T09:26:49.562Z</time></trkpt><trkpt lat="42.4021408" lon="11.1335948"><ele>281.2</ele><time>2026-05-02T09:26:51.561Z</time></trkpt><trkpt lat="42.4021787" lon="11.1334612"><ele>281.40000000000003</ele><time>2026-05-02T09:26:53.562Z</time></trkpt><trkpt lat="42.4022216" lon="11.1333228"><ele>281.6</ele><time>2026-05-02T09:26:55.562Z</time></trkpt><trkpt lat="42.4022997" lon="11.1332304"><ele>281.8</ele><time>2026-05-02T09:26:57.563Z</time></trkpt><trkpt lat="42.4023877" lon="11.1331597"><ele>282.0</ele><time>2026-05-02T09:26:59.562Z</time></trkpt><trkpt lat="42.402488" lon="11.133123"><ele>279.4</ele><time>2026-05-02T09:27:01.562Z</time></trkpt><trkpt lat="42.4025591" lon="11.1331031"><ele>276.79999999999995</ele><time>2026-05-02T09:27:02.562Z</time></trkpt><trkpt lat="42.4026313" lon="11.1330907"><ele>274.2</ele><time>2026-05-02T09:27:03.562Z</time></trkpt><trkpt lat="42.4027529" lon="11.1330672"><ele>271.59999999999997</ele><time>2026-05-02T09:27:05.562Z</time></trkpt><trkpt lat="42.4028549" lon="11.133042"><ele>269.0</ele><time>2026-05-02T09:27:07.562Z</time></trkpt><trkpt lat="42.4029413" lon="11.1330028"><ele>268.8</ele><time>2026-05-02T09:27:09.562Z</time></trkpt><trkpt lat="42.4030285" lon="11.1329288"><ele>268.59999999999997</ele><time>2026-05-02T09:27:12.564Z</time></trkpt><trkpt lat="42.4030799" lon="11.132833"><ele>268.4</ele><time>2026-05-02T09:27:14.562Z</time></trkpt><trkpt lat="42.4031081" lon="11.1327041"><ele>268.2</ele><time>2026-05-02T09:27:16.562Z</time></trkpt><trkpt lat="42.4031382" lon="11.1326059"><ele>268.0</ele><time>2026-05-02T09:27:18.562Z</time></trkpt><trkpt lat="42.4031752" lon="11.1324994"><ele>268.0</ele><time>2026-05-02T09:27:21.561Z</time></trkpt><trkpt lat="42.4032116" lon="11.1324221"><ele>268.0</ele><time>2026-05-02T09:27:24.562Z</time></trkpt><trkpt lat="42.4031729" lon="11.1325008"><ele>268.0</ele><time>2026-05-02T09:27:31.563Z</time></trkpt><trkpt lat="42.4031364" lon="11.1326277"><ele>268.0</ele><time>2026-05-02T09:27:33.562Z</time></trkpt><trkpt lat="42.4030919" lon="11.1327492"><ele>268.0</ele><time>2026-05-02T09:27:35.561Z</time></trkpt><trkpt lat="42.4030377" lon="11.1328604"><ele>268.0</ele><time>2026-05-02T09:27:37.561Z</time></trkpt><trkpt lat="42.402981" lon="11.1329569"><ele>268.16666666666663</ele><time>2026-05-02T09:27:39.562Z</time></trkpt><trkpt lat="42.4028954" lon="11.1329418"><ele>268.3333333333333</ele><time>2026-05-02T09:27:42.562Z</time></trkpt><trkpt lat="42.402833" lon="11.1329739"><ele>268.5</ele><time>2026-05-02T09:28:59.561Z</time></trkpt><trkpt lat="42.4027736" lon="11.132943"><ele>268.6666666666667</ele><time>2026-05-02T09:29:03.561Z</time></trkpt><trkpt lat="42.4027" lon="11.1329266"><ele>268.83333333333337</ele><time>2026-05-02T09:29:04.562Z</time></trkpt><trkpt lat="42.4025682" lon="11.1328667"><ele>269.0</ele><time>2026-05-02T09:29:06.562Z</time></trkpt><trkpt lat="42.4025054" lon="11.1328298"><ele>269.0</ele><time>2026-05-02T09:29:07.562Z</time></trkpt><trkpt lat="42.4024359" lon="11.1327962"><ele>269.0</ele><time>2026-05-02T09:29:08.563Z</time></trkpt><trkpt lat="42.4023654" lon="11.1327682"><ele>269.0</ele><time>2026-05-02T09:29:09.562Z</time></trkpt><trkpt lat="42.4023006" lon="11.1327517"><ele>269.0</ele><time>2026-05-02T09:29:10.562Z</time></trkpt><trkpt lat="42.4022332" lon="11.13274"><ele>269.0</ele><time>2026-05-02T09:29:11.561Z</time></trkpt><trkpt lat="42.4021697" lon="11.1327319"><ele>269.0</ele><time>2026-05-02T09:29:12.562Z</time></trkpt><trkpt lat="42.4021018" lon="11.1327294"><ele>269.0</ele><time>2026-05-02T09:29:13.562Z</time></trkpt><trkpt lat="42.402038" lon="11.132734"><ele>267.5</ele><time>2026-05-02T09:29:14.563Z</time></trkpt><trkpt lat="42.4019665" lon="11.1327472"><ele>266.0</ele><time>2026-05-02T09:29:15.561Z</time></trkpt><trkpt lat="42.4018913" lon="11.1327715"><ele>264.5</ele><time>2026-05-02T09:29:16.561Z</time></trkpt><trkpt lat="42.4018181" lon="11.1328103"><ele>263.0</ele><time>2026-05-02T09:29:17.562Z</time></trkpt><trkpt lat="42.4017398" lon="11.1328412"><ele>261.5</ele><time>2026-05-02T09:29:18.562Z</time></trkpt><trkpt lat="42.4016709" lon="11.1328723"><ele>260.0</ele><time>2026-05-02T09:29:19.561Z</time></trkpt><trkpt lat="42.4015979" lon="11.1328997"><ele>260.0</ele><time>2026-05-02T09:29:20.562Z</time></trkpt><trkpt lat="42.4015279" lon="11.1329345"><ele>260.0</ele><time>2026-05-02T09:29:21.562Z</time></trkpt><trkpt lat="42.4014636" lon="11.1329736"><ele>260.0</ele><time>2026-05-02T09:29:22.562Z</time></trkpt><trkpt lat="42.4014139" lon="11.1330271"><ele>260.0</ele><time>2026-05-02T09:29:23.561Z</time></trkpt><trkpt lat="42.4013121" lon="11.1331159"><ele>260.0</ele><time>2026-05-02T09:29:25.562Z</time></trkpt><trkpt lat="42.4011982" lon="11.1331706"><ele>259.6666666666667</ele><time>2026-05-02T09:29:27.563Z</time></trkpt><trkpt lat="42.4011149" lon="11.133176"><ele>259.33333333333337</ele><time>2026-05-02T09:29:28.561Z</time></trkpt><trkpt lat="42.4010428" lon="11.1331896"><ele>259.0</ele><time>2026-05-02T09:29:29.56Z</time></trkpt><trkpt lat="42.4009661" lon="11.1332195"><ele>258.6666666666667</ele><time>2026-05-02T09:29:30.562Z</time></trkpt><trkpt lat="42.4008856" lon="11.1332389"><ele>258.3333333333333</ele><time>2026-05-02T09:29:31.562Z</time></trkpt><trkpt lat="42.4008149" lon="11.1332515"><ele>258.0</ele><time>2026-05-02T09:29:32.56Z</time></trkpt><trkpt lat="42.4007356" lon="11.1332738"><ele>258.0</ele><time>2026-05-02T09:29:33.563Z</time></trkpt><trkpt lat="42.4006598" lon="11.1332986"><ele>258.0</ele><time>2026-05-02T09:29:34.562Z</time></trkpt><trkpt lat="42.4005912" lon="11.1333228"><ele>258.0</ele><time>2026-05-02T09:29:35.561Z</time></trkpt><trkpt lat="42.4005218" lon="11.1333439"><ele>258.0</ele><time>2026-05-02T09:29:36.562Z</time></trkpt><trkpt lat="42.4004466" lon="11.1333726"><ele>258.0</ele><time>2026-05-02T09:29:37.562Z</time></trkpt><trkpt lat="42.4003772" lon="11.1333967"><ele>258.0</ele><time>2026-05-02T09:29:38.561Z</time></trkpt><trkpt lat="42.4002929" lon="11.1334261"><ele>256.0</ele><time>2026-05-02T09:29:39.561Z</time></trkpt><trkpt lat="42.4002219" lon="11.133452"><ele>254.0</ele><time>2026-05-02T09:29:40.563Z</time></trkpt><trkpt lat="42.4001399" lon="11.1334798"><ele>252.0</ele><time>2026-05-02T09:29:41.562Z</time></trkpt><trkpt lat="42.4000559" lon="11.1334917"><ele>250.0</ele><time>2026-05-02T09:29:42.563Z</time></trkpt><trkpt lat="42.3999618" lon="11.1335277"><ele>248.0</ele><time>2026-05-02T09:29:43.562Z</time></trkpt><trkpt lat="42.3998803" lon="11.1335635"><ele>246.0</ele><time>2026-05-02T09:29:44.563Z</time></trkpt><trkpt lat="42.3997851" lon="11.1336287"><ele>246.0</ele><time>2026-05-02T09:29:45.561Z</time></trkpt><trkpt lat="42.3996778" lon="11.1336699"><ele>246.0</ele><time>2026-05-02T09:29:46.562Z</time></trkpt><trkpt lat="42.3995678" lon="11.1336979"><ele>246.0</ele><time>2026-05-02T09:29:47.562Z</time></trkpt><trkpt lat="42.3994554" lon="11.1337632"><ele>246.0</ele><time>2026-05-02T09:29:48.564Z</time></trkpt><trkpt lat="42.3993559" lon="11.1338102"><ele>246.60000000000002</ele><time>2026-05-02T09:29:49.562Z</time></trkpt><trkpt lat="42.3992441" lon="11.1338578"><ele>247.20000000000002</ele><time>2026-05-02T09:29:50.562Z</time></trkpt><trkpt lat="42.3991448" lon="11.1338923"><ele>247.79999999999998</ele><time>2026-05-02T09:29:51.562Z</time></trkpt><trkpt lat="42.3990687" lon="11.1339212"><ele>248.39999999999998</ele><time>2026-05-02T09:29:52.561Z</time></trkpt><trkpt lat="42.3989908" lon="11.1339434"><ele>249.0</ele><time>2026-05-02T09:29:53.561Z</time></trkpt><trkpt lat="42.3988722" lon="11.1339656"><ele>249.83333333333334</ele><time>2026-05-02T09:29:55.563Z</time></trkpt><trkpt lat="42.3987596" lon="11.1339623"><ele>250.66666666666669</ele><time>2026-05-02T09:29:57.561Z</time></trkpt><trkpt lat="42.3986956" lon="11.1339564"><ele>251.5</ele><time>2026-05-02T09:29:58.562Z</time></trkpt><trkpt lat="42.3986304" lon="11.1339631"><ele>252.33333333333334</ele><time>2026-05-02T09:29:59.561Z</time></trkpt><trkpt lat="42.3985615" lon="11.1339633"><ele>253.16666666666669</ele><time>2026-05-02T09:30:00.56Z</time></trkpt><trkpt lat="42.3984815" lon="11.1339751"><ele>254.0</ele><time>2026-05-02T09:30:01.562Z</time></trkpt><trkpt lat="42.3984005" lon="11.1339924"><ele>254.0</ele><time>2026-05-02T09:30:02.563Z</time></trkpt><trkpt lat="42.3982987" lon="11.1340064"><ele>253.99999999999997</ele><time>2026-05-02T09:30:03.562Z</time></trkpt><trkpt lat="42.3982034" lon="11.134023"><ele>253.99999999999997</ele><time>2026-05-02T09:30:04.562Z</time></trkpt><trkpt lat="42.3981122" lon="11.1340288"><ele>254.0</ele><time>2026-05-02T09:30:05.562Z</time></trkpt><trkpt lat="42.3980249" lon="11.1340407"><ele>254.0</ele><time>2026-05-02T09:30:06.562Z</time></trkpt><trkpt lat="42.3979322" lon="11.1340484"><ele>253.42857142857144</ele><time>2026-05-02T09:30:07.56Z</time></trkpt><trkpt lat="42.3978509" lon="11.1340659"><ele>252.85714285714283</ele><time>2026-05-02T09:30:08.562Z</time></trkpt><trkpt lat="42.3977816" lon="11.1340731"><ele>252.28571428571428</ele><time>2026-05-02T09:30:09.56Z</time></trkpt><trkpt lat="42.3977108" lon="11.1340689"><ele>251.71428571428572</ele><time>2026-05-02T09:30:10.562Z</time></trkpt><trkpt lat="42.3976399" lon="11.1340203"><ele>251.14285714285717</ele><time>2026-05-02T09:30:11.562Z</time></trkpt><trkpt lat="42.3975711" lon="11.1339951"><ele>250.57142857142856</ele><time>2026-05-02T09:30:12.561Z</time></trkpt><trkpt lat="42.3975098" lon="11.1339544"><ele>250.0</ele><time>2026-05-02T09:30:13.561Z</time></trkpt><trkpt lat="42.3974533" lon="11.1338892"><ele>250.0</ele><time>2026-05-02T09:30:14.562Z</time></trkpt><trkpt lat="42.3974152" lon="11.1337971"><ele>250.0</ele><time>2026-05-02T09:30:15.562Z</time></trkpt><trkpt lat="42.3973573" lon="11.1336787"><ele>250.0</ele><time>2026-05-02T09:30:16.562Z</time></trkpt><trkpt lat="42.3973027" lon="11.1335571"><ele>250.0</ele><time>2026-05-02T09:30:17.562Z</time></trkpt><trkpt lat="42.397259" lon="11.1334429"><ele>250.0</ele><time>2026-05-02T09:30:18.562Z</time></trkpt><trkpt lat="42.397199" lon="11.133346"><ele>249.4</ele><time>2026-05-02T09:30:19.561Z</time></trkpt><trkpt lat="42.3971349" lon="11.1332442"><ele>248.8</ele><time>2026-05-02T09:30:20.562Z</time></trkpt><trkpt lat="42.397066" lon="11.1331468"><ele>248.2</ele><time>2026-05-02T09:30:21.563Z</time></trkpt><trkpt lat="42.3969958" lon="11.133024"><ele>247.6</ele><time>2026-05-02T09:30:22.563Z</time></trkpt><trkpt lat="42.3969304" lon="11.1329161"><ele>247.0</ele><time>2026-05-02T09:30:23.563Z</time></trkpt><trkpt lat="42.396872" lon="11.1328404"><ele>247.99999999999997</ele><time>2026-05-02T09:30:24.561Z</time></trkpt><trkpt lat="42.3968117" lon="11.1327844"><ele>249.0</ele><time>2026-05-02T09:30:25.561Z</time></trkpt><trkpt lat="42.3967556" lon="11.1327257"><ele>250.0</ele><time>2026-05-02T09:30:26.562Z</time></trkpt><trkpt lat="42.396714" lon="11.1326487"><ele>251.0</ele><time>2026-05-02T09:30:27.561Z</time></trkpt><trkpt lat="42.3966785" lon="11.1325762"><ele>251.99999999999997</ele><time>2026-05-02T09:30:28.562Z</time></trkpt><trkpt lat="42.3966484" lon="11.1324984"><ele>253.0</ele><time>2026-05-02T09:30:29.562Z</time></trkpt><trkpt lat="42.3966147" lon="11.1323588"><ele>253.66666666666666</ele><time>2026-05-02T09:30:31.561Z</time></trkpt><trkpt lat="42.3965955" lon="11.1322736"><ele>254.33333333333331</ele><time>2026-05-02T09:30:32.562Z</time></trkpt><trkpt lat="42.3965729" lon="11.132165"><ele>255.0</ele><time>2026-05-02T09:30:33.562Z</time></trkpt><trkpt lat="42.3965455" lon="11.1320638"><ele>255.66666666666669</ele><time>2026-05-02T09:30:34.562Z</time></trkpt><trkpt lat="42.3965247" lon="11.1319744"><ele>256.33333333333337</ele><time>2026-05-02T09:30:35.562Z</time></trkpt><trkpt lat="42.396513" lon="11.1318163"><ele>257.0</ele><time>2026-05-02T09:30:37.562Z</time></trkpt><trkpt lat="42.3965436" lon="11.1316454"><ele>257.33333333333337</ele><time>2026-05-02T09:30:39.562Z</time></trkpt><trkpt lat="42.3965645" lon="11.1315514"><ele>257.6666666666667</ele><time>2026-05-02T09:30:40.562Z</time></trkpt><trkpt lat="42.3965858" lon="11.131459"><ele>258.0</ele><time>2026-05-02T09:30:41.562Z</time></trkpt><trkpt lat="42.3966123" lon="11.131356"><ele>258.3333333333333</ele><time>2026-05-02T09:30:42.562Z</time></trkpt><trkpt lat="42.3966256" lon="11.1312595"><ele>258.66666666666663</ele><time>2026-05-02T09:30:43.562Z</time></trkpt><trkpt lat="42.3966414" lon="11.1311475"><ele>259.0</ele><time>2026-05-02T09:30:44.561Z</time></trkpt><trkpt lat="42.3966631" lon="11.1310561"><ele>259.0</ele><time>2026-05-02T09:30:45.562Z</time></trkpt><trkpt lat="42.3966808" lon="11.1309458"><ele>259.0</ele><time>2026-05-02T09:30:47.56Z</time></trkpt><trkpt lat="42.3967169" lon="11.1308494"><ele>259.0</ele><time>2026-05-02T09:30:49.562Z</time></trkpt><trkpt lat="42.3967723" lon="11.1307929"><ele>259.0</ele><time>2026-05-02T09:30:51.56Z</time></trkpt><trkpt lat="42.396863" lon="11.1307562"><ele>259.0</ele><time>2026-05-02T09:30:53.564Z</time></trkpt><trkpt lat="42.3969392" lon="11.1307221"><ele>259.0</ele><time>2026-05-02T09:30:55.56Z</time></trkpt><trkpt lat="42.3970022" lon="11.130708"><ele>260.3333333333333</ele><time>2026-05-02T09:30:56.56Z</time></trkpt><trkpt lat="42.3970751" lon="11.1306824"><ele>261.66666666666663</ele><time>2026-05-02T09:30:57.562Z</time></trkpt><trkpt lat="42.3971483" lon="11.1306495"><ele>263.0</ele><time>2026-05-02T09:30:58.561Z</time></trkpt><trkpt lat="42.3972162" lon="11.130607"><ele>264.3333333333333</ele><time>2026-05-02T09:30:59.562Z</time></trkpt><trkpt lat="42.3972947" lon="11.1305524"><ele>265.6666666666667</ele><time>2026-05-02T09:31:00.561Z</time></trkpt><trkpt lat="42.3973925" lon="11.1304943"><ele>267.0</ele><time>2026-05-02T09:31:01.561Z</time></trkpt><trkpt lat="42.3974639" lon="11.1304251"><ele>267.0</ele><time>2026-05-02T09:31:02.562Z</time></trkpt><trkpt lat="42.3975375" lon="11.1303638"><ele>267.0</ele><time>2026-05-02T09:31:03.56Z</time></trkpt><trkpt lat="42.3976214" lon="11.1303215"><ele>267.0</ele><time>2026-05-02T09:31:04.561Z</time></trkpt><trkpt lat="42.3977031" lon="11.1302971"><ele>267.0</ele><time>2026-05-02T09:31:05.56Z</time></trkpt><trkpt lat="42.3977966" lon="11.1302945"><ele>267.0</ele><time>2026-05-02T09:31:06.561Z</time></trkpt><trkpt lat="42.3978981" lon="11.1303019"><ele>268.6</ele><time>2026-05-02T09:31:07.56Z</time></trkpt><trkpt lat="42.39803" lon="11.130336"><ele>270.2</ele><time>2026-05-02T09:31:08.562Z</time></trkpt><trkpt lat="42.3981244" lon="11.1303446"><ele>271.8</ele><time>2026-05-02T09:31:09.56Z</time></trkpt><trkpt lat="42.3982059" lon="11.1303434"><ele>273.4</ele><time>2026-05-02T09:31:10.561Z</time></trkpt><trkpt lat="42.3982837" lon="11.1303346"><ele>275.0</ele><time>2026-05-02T09:31:11.561Z</time></trkpt><trkpt lat="42.3983616" lon="11.1303251"><ele>275.0</ele><time>2026-05-02T09:31:12.561Z</time></trkpt><trkpt lat="42.3984409" lon="11.1303134"><ele>275.0</ele><time>2026-05-02T09:31:13.561Z</time></trkpt><trkpt lat="42.3985144" lon="11.1302964"><ele>275.0</ele><time>2026-05-02T09:31:14.562Z</time></trkpt><trkpt lat="42.3985897" lon="11.1302782"><ele>275.0</ele><time>2026-05-02T09:31:15.561Z</time></trkpt><trkpt lat="42.3986595" lon="11.1302537"><ele>275.0</ele><time>2026-05-02T09:31:16.561Z</time></trkpt><trkpt lat="42.3987847" lon="11.1302543"><ele>275.0</ele><time>2026-05-02T09:31:18.561Z</time></trkpt><trkpt lat="42.3989166" lon="11.1302696"><ele>276.8</ele><time>2026-05-02T09:31:20.562Z</time></trkpt><trkpt lat="42.3990333" lon="11.1302108"><ele>278.6</ele><time>2026-05-02T09:31:22.562Z</time></trkpt><trkpt lat="42.3990965" lon="11.1301666"><ele>280.4</ele><time>2026-05-02T09:31:23.561Z</time></trkpt><trkpt lat="42.3991647" lon="11.1301173"><ele>282.2</ele><time>2026-05-02T09:31:24.561Z</time></trkpt><trkpt lat="42.3992467" lon="11.1300673"><ele>284.0</ele><time>2026-05-02T09:31:25.56Z</time></trkpt><trkpt lat="42.3993332" lon="11.1300043"><ele>284.0</ele><time>2026-05-02T09:31:26.561Z</time></trkpt><trkpt lat="42.3993971" lon="11.1299424"><ele>284.0</ele><time>2026-05-02T09:31:27.56Z</time></trkpt><trkpt lat="42.3994711" lon="11.1298982"><ele>284.0</ele><time>2026-05-02T09:31:28.563Z</time></trkpt><trkpt lat="42.3995433" lon="11.1298703"><ele>284.0</ele><time>2026-05-02T09:31:29.562Z</time></trkpt><trkpt lat="42.3996027" lon="11.1298351"><ele>284.0</ele><time>2026-05-02T09:31:30.562Z</time></trkpt><trkpt lat="42.3996993" lon="11.1297946"><ele>284.0</ele><time>2026-05-02T09:31:32.563Z</time></trkpt><trkpt lat="42.3997245" lon="11.129702"><ele>286.6666666666667</ele><time>2026-05-02T09:31:44.561Z</time></trkpt><trkpt lat="42.3996588" lon="11.1296524"><ele>289.33333333333337</ele><time>2026-05-02T09:31:47.56Z</time></trkpt><trkpt lat="42.3995896" lon="11.1296515"><ele>292.0</ele><time>2026-05-02T09:31:49.561Z</time></trkpt><trkpt lat="42.3995025" lon="11.1296374"><ele>294.6666666666667</ele><time>2026-05-02T09:31:51.562Z</time></trkpt><trkpt lat="42.3994143" lon="11.1296014"><ele>297.3333333333333</ele><time>2026-05-02T09:31:53.561Z</time></trkpt><trkpt lat="42.3993249" lon="11.1295466"><ele>300.0</ele><time>2026-05-02T09:31:55.561Z</time></trkpt><trkpt lat="42.3992753" lon="11.1294912"><ele>300.0</ele><time>2026-05-02T09:31:56.562Z</time></trkpt><trkpt lat="42.399224" lon="11.129439"><ele>300.0</ele><time>2026-05-02T09:31:57.56Z</time></trkpt><trkpt lat="42.3991636" lon="11.1293797"><ele>300.0</ele><time>2026-05-02T09:31:58.562Z</time></trkpt><trkpt lat="42.3990917" lon="11.1292867"><ele>300.0</ele><time>2026-05-02T09:32:00.561Z</time></trkpt><trkpt lat="42.3990367" lon="11.1291888"><ele>300.0</ele><time>2026-05-02T09:32:02.56Z</time></trkpt><trkpt lat="42.3990154" lon="11.1290887"><ele>300.0</ele><time>2026-05-02T09:32:04.561Z</time></trkpt><trkpt lat="42.3989962" lon="11.1289219"><ele>301.4</ele><time>2026-05-02T09:32:06.562Z</time></trkpt><trkpt lat="42.3989873" lon="11.1287742"><ele>302.8</ele><time>2026-05-02T09:32:08.56Z</time></trkpt><trkpt lat="42.3989967" lon="11.1286322"><ele>304.2</ele><time>2026-05-02T09:32:10.56Z</time></trkpt><trkpt lat="42.3990378" lon="11.1284966"><ele>305.6</ele><time>2026-05-02T09:32:12.561Z</time></trkpt><trkpt lat="42.3990937" lon="11.1283902"><ele>307.0</ele><time>2026-05-02T09:32:14.56Z</time></trkpt><trkpt lat="42.3991541" lon="11.1282704"><ele>307.0</ele><time>2026-05-02T09:32:16.561Z</time></trkpt><trkpt lat="42.3992058" lon="11.1281524"><ele>307.0</ele><time>2026-05-02T09:32:18.561Z</time></trkpt><trkpt lat="42.3992647" lon="11.1280308"><ele>307.0</ele><time>2026-05-02T09:32:20.56Z</time></trkpt><trkpt lat="42.39933" lon="11.1279477"><ele>307.0</ele><time>2026-05-02T09:32:22.56Z</time></trkpt><trkpt lat="42.399392" lon="11.1278735"><ele>307.0</ele><time>2026-05-02T09:32:24.559Z</time></trkpt><trkpt lat="42.3994601" lon="11.127755"><ele>307.0</ele><time>2026-05-02T09:32:26.56Z</time></trkpt><trkpt lat="42.3995295" lon="11.1276357"><ele>307.0</ele><time>2026-05-02T09:32:28.562Z</time></trkpt><trkpt lat="42.3996038" lon="11.1275141"><ele>307.0</ele><time>2026-05-02T09:32:30.56Z</time></trkpt><trkpt lat="42.3997026" lon="11.127411"><ele>307.0</ele><time>2026-05-02T09:32:32.562Z</time></trkpt><trkpt lat="42.3997564" lon="11.1273645"><ele>307.0</ele><time>2026-05-02T09:32:33.561Z</time></trkpt><trkpt lat="42.3998134" lon="11.1273095"><ele>310.5</ele><time>2026-05-02T09:32:34.562Z</time></trkpt><trkpt lat="42.3998731" lon="11.127252"><ele>314.0</ele><time>2026-05-02T09:32:35.561Z</time></trkpt><trkpt lat="42.3999371" lon="11.1272078"><ele>317.5</ele><time>2026-05-02T09:32:36.56Z</time></trkpt><trkpt lat="42.3999903" lon="11.1271603"><ele>321.0</ele><time>2026-05-02T09:32:37.561Z</time></trkpt><trkpt lat="42.4000921" lon="11.1270382"><ele>324.5</ele><time>2026-05-02T09:32:39.561Z</time></trkpt><trkpt lat="42.400161" lon="11.1269575"><ele>328.0</ele><time>2026-05-02T09:32:40.562Z</time></trkpt><trkpt lat="42.4002164" lon="11.1268844"><ele>328.0</ele><time>2026-05-02T09:32:41.56Z</time></trkpt><trkpt lat="42.4002941" lon="11.1267691"><ele>328.0</ele><time>2026-05-02T09:32:43.56Z</time></trkpt><trkpt lat="42.4003488" lon="11.126654"><ele>328.0</ele><time>2026-05-02T09:32:45.56Z</time></trkpt><trkpt lat="42.4003942" lon="11.1265375"><ele>328.0</ele><time>2026-05-02T09:32:47.56Z</time></trkpt><trkpt lat="42.4004409" lon="11.1264175"><ele>328.0</ele><time>2026-05-02T09:32:49.562Z</time></trkpt><trkpt lat="42.4004983" lon="11.1263029"><ele>329.4</ele><time>2026-05-02T09:32:51.56Z</time></trkpt><trkpt lat="42.400536" lon="11.1261694"><ele>330.79999999999995</ele><time>2026-05-02T09:32:53.56Z</time></trkpt><trkpt lat="42.4005706" lon="11.1260808"><ele>332.2</ele><time>2026-05-02T09:32:55.561Z</time></trkpt><trkpt lat="42.4006027" lon="11.1260017"><ele>333.6</ele><time>2026-05-02T09:33:14.56Z</time></trkpt><trkpt lat="42.4006949" lon="11.1258659"><ele>335.0</ele><time>2026-05-02T09:33:16.561Z</time></trkpt><trkpt lat="42.4007742" lon="11.1257683"><ele>334.6</ele><time>2026-05-02T09:33:17.56Z</time></trkpt><trkpt lat="42.40085" lon="11.1256547"><ele>334.2</ele><time>2026-05-02T09:33:18.561Z</time></trkpt><trkpt lat="42.4009195" lon="11.1255452"><ele>333.79999999999995</ele><time>2026-05-02T09:33:19.559Z</time></trkpt><trkpt lat="42.4009794" lon="11.1254466"><ele>333.4</ele><time>2026-05-02T09:33:20.56Z</time></trkpt><trkpt lat="42.4010399" lon="11.1253573"><ele>333.0</ele><time>2026-05-02T09:33:21.56Z</time></trkpt><trkpt lat="42.4011024" lon="11.1252588"><ele>333.0</ele><time>2026-05-02T09:33:22.56Z</time></trkpt><trkpt lat="42.4011637" lon="11.1251605"><ele>333.0</ele><time>2026-05-02T09:33:23.56Z</time></trkpt><trkpt lat="42.4012236" lon="11.1250811"><ele>333.0</ele><time>2026-05-02T09:33:24.561Z</time></trkpt><trkpt lat="42.4012871" lon="11.125025"><ele>333.0</ele><time>2026-05-02T09:33:25.56Z</time></trkpt><trkpt lat="42.4013838" lon="11.1249462"><ele>333.0</ele><time>2026-05-02T09:33:27.561Z</time></trkpt><trkpt lat="42.4014318" lon="11.1248413"><ele>336.2</ele><time>2026-05-02T09:33:29.561Z</time></trkpt><trkpt lat="42.4014307" lon="11.1246933"><ele>339.4</ele><time>2026-05-02T09:33:31.559Z</time></trkpt><trkpt lat="42.401445" lon="11.1245253"><ele>342.59999999999997</ele><time>2026-05-02T09:33:33.559Z</time></trkpt><trkpt lat="42.401454" lon="11.1244364"><ele>345.79999999999995</ele><time>2026-05-02T09:33:34.559Z</time></trkpt><trkpt lat="42.4014528" lon="11.1242804"><ele>349.0</ele><time>2026-05-02T09:33:36.562Z</time></trkpt><trkpt lat="42.4014521" lon="11.1241015"><ele>351.2</ele><time>2026-05-02T09:33:38.562Z</time></trkpt><trkpt lat="42.4014524" lon="11.1240122"><ele>353.4</ele><time>2026-05-02T09:33:39.561Z</time></trkpt><trkpt lat="42.4014538" lon="11.1239221"><ele>355.6</ele><time>2026-05-02T09:33:40.56Z</time></trkpt><trkpt lat="42.4014709" lon="11.1237852"><ele>357.8</ele><time>2026-05-02T09:33:42.559Z</time></trkpt><trkpt lat="42.4014539" lon="11.1236359"><ele>360.0</ele><time>2026-05-02T09:33:44.56Z</time></trkpt><trkpt lat="42.4014153" lon="11.1234558"><ele>360.0</ele><time>2026-05-02T09:33:46.561Z</time></trkpt><trkpt lat="42.4014036" lon="11.1233464"><ele>360.0</ele><time>2026-05-02T09:33:47.561Z</time></trkpt><trkpt lat="42.4013682" lon="11.1232052"><ele>360.0</ele><time>2026-05-02T09:33:49.561Z</time></trkpt><trkpt lat="42.4013362" lon="11.1230697"><ele>360.0</ele><time>2026-05-02T09:33:51.561Z</time></trkpt><trkpt lat="42.4013111" lon="11.1229801"><ele>360.0</ele><time>2026-05-02T09:33:52.56Z</time></trkpt><trkpt lat="42.4012826" lon="11.1228905"><ele>360.0</ele><time>2026-05-02T09:33:53.56Z</time></trkpt><trkpt lat="42.4012433" lon="11.1227933"><ele>357.8333333333333</ele><time>2026-05-02T09:33:54.561Z</time></trkpt><trkpt lat="42.4011968" lon="11.1226952"><ele>355.6666666666667</ele><time>2026-05-02T09:33:55.56Z</time></trkpt><trkpt lat="42.4011678" lon="11.12261"><ele>353.5</ele><time>2026-05-02T09:33:56.561Z</time></trkpt><trkpt lat="42.4011479" lon="11.1225266"><ele>351.33333333333337</ele><time>2026-05-02T09:33:57.56Z</time></trkpt><trkpt lat="42.4011326" lon="11.12235"><ele>349.1666666666667</ele><time>2026-05-02T09:33:59.56Z</time></trkpt><trkpt lat="42.4011383" lon="11.122256"><ele>347.0</ele><time>2026-05-02T09:34:00.561Z</time></trkpt><trkpt lat="42.4011575" lon="11.1221476"><ele>346.83333333333337</ele><time>2026-05-02T09:34:01.561Z</time></trkpt><trkpt lat="42.4011801" lon="11.1220357"><ele>346.6666666666667</ele><time>2026-05-02T09:34:02.561Z</time></trkpt><trkpt lat="42.4012021" lon="11.1219255"><ele>346.5</ele><time>2026-05-02T09:34:03.56Z</time></trkpt><trkpt lat="42.401221" lon="11.1218113"><ele>346.3333333333333</ele><time>2026-05-02T09:34:04.56Z</time></trkpt><trkpt lat="42.4012418" lon="11.1217122"><ele>346.16666666666663</ele><time>2026-05-02T09:34:05.56Z</time></trkpt><trkpt lat="42.4012593" lon="11.1216128"><ele>346.0</ele><time>2026-05-02T09:34:06.559Z</time></trkpt><trkpt lat="42.4012752" lon="11.1215065"><ele>346.6</ele><time>2026-05-02T09:34:07.561Z</time></trkpt><trkpt lat="42.4012937" lon="11.1213846"><ele>347.20000000000005</ele><time>2026-05-02T09:34:08.56Z</time></trkpt><trkpt lat="42.4013137" lon="11.1212566"><ele>347.79999999999995</ele><time>2026-05-02T09:34:09.56Z</time></trkpt><trkpt lat="42.4013232" lon="11.1211342"><ele>348.4</ele><time>2026-05-02T09:34:10.56Z</time></trkpt><trkpt lat="42.4013289" lon="11.1210178"><ele>349.0</ele><time>2026-05-02T09:34:11.561Z</time></trkpt><trkpt lat="42.401344" lon="11.1209041"><ele>351.3333333333333</ele><time>2026-05-02T09:34:12.56Z</time></trkpt><trkpt lat="42.4013553" lon="11.1208098"><ele>353.66666666666663</ele><time>2026-05-02T09:34:13.561Z</time></trkpt><trkpt lat="42.4013817" lon="11.1206925"><ele>356.0</ele><time>2026-05-02T09:34:15.56Z</time></trkpt><trkpt lat="42.4014396" lon="11.1205916"><ele>358.3333333333333</ele><time>2026-05-02T09:34:17.56Z</time></trkpt><trkpt lat="42.401494" lon="11.1204993"><ele>360.6666666666667</ele><time>2026-05-02T09:34:18.562Z</time></trkpt><trkpt lat="42.401535" lon="11.1204164"><ele>363.0</ele><time>2026-05-02T09:34:19.561Z</time></trkpt><trkpt lat="42.401572" lon="11.1203421"><ele>363.0</ele><time>2026-05-02T09:34:20.56Z</time></trkpt><trkpt lat="42.4016278" lon="11.1202213"><ele>363.0</ele><time>2026-05-02T09:34:22.56Z</time></trkpt><trkpt lat="42.4016681" lon="11.120105"><ele>363.0</ele><time>2026-05-02T09:34:24.56Z</time></trkpt><trkpt lat="42.4016432" lon="11.1199604"><ele>363.0</ele><time>2026-05-02T09:35:20.559Z</time></trkpt><trkpt lat="42.4016019" lon="11.1198329"><ele>363.0</ele><time>2026-05-02T09:35:22.559Z</time></trkpt><trkpt lat="42.4015446" lon="11.1196809"><ele>362.59999999999997</ele><time>2026-05-02T09:35:24.559Z</time></trkpt><trkpt lat="42.4015152" lon="11.1195323"><ele>362.2</ele><time>2026-05-02T09:35:26.56Z</time></trkpt><trkpt lat="42.4014997" lon="11.1194088"><ele>361.8</ele><time>2026-05-02T09:35:28.561Z</time></trkpt><trkpt lat="42.4015148" lon="11.1192496"><ele>361.4</ele><time>2026-05-02T09:35:30.56Z</time></trkpt><trkpt lat="42.4015182" lon="11.1190873"><ele>361.0</ele><time>2026-05-02T09:35:32.559Z</time></trkpt><trkpt lat="42.4015177" lon="11.1189856"><ele>360.7142857142857</ele><time>2026-05-02T09:35:33.56Z</time></trkpt><trkpt lat="42.4015075" lon="11.1188757"><ele>360.4285714285714</ele><time>2026-05-02T09:35:34.56Z</time></trkpt><trkpt lat="42.4015004" lon="11.1187727"><ele>360.1428571428571</ele><time>2026-05-02T09:35:35.56Z</time></trkpt><trkpt lat="42.4014959" lon="11.1186761"><ele>359.8571428571429</ele><time>2026-05-02T09:35:36.561Z</time></trkpt><trkpt lat="42.4014829" lon="11.1185906"><ele>359.57142857142856</ele><time>2026-05-02T09:35:37.559Z</time></trkpt><trkpt lat="42.4014646" lon="11.1185042"><ele>359.2857142857143</ele><time>2026-05-02T09:35:38.56Z</time></trkpt><trkpt lat="42.4014463" lon="11.1184075"><ele>359.0</ele><time>2026-05-02T09:35:39.559Z</time></trkpt><trkpt lat="42.4014242" lon="11.1183133"><ele>357.6</ele><time>2026-05-02T09:35:40.561Z</time></trkpt><trkpt lat="42.4013922" lon="11.1182179"><ele>356.2</ele><time>2026-05-02T09:35:41.559Z</time></trkpt><trkpt lat="42.4013471" lon="11.118113"><ele>354.8</ele><time>2026-05-02T09:35:42.562Z</time></trkpt><trkpt lat="42.4012925" lon="11.1179876"><ele>353.40000000000003</ele><time>2026-05-02T09:35:43.559Z</time></trkpt><trkpt lat="42.4012448" lon="11.1178725"><ele>352.0</ele><time>2026-05-02T09:35:44.561Z</time></trkpt><trkpt lat="42.4012077" lon="11.1177759"><ele>353.2857142857143</ele><time>2026-05-02T09:35:45.56Z</time></trkpt><trkpt lat="42.4011741" lon="11.1176842"><ele>354.57142857142856</ele><time>2026-05-02T09:35:46.559Z</time></trkpt><trkpt lat="42.4011513" lon="11.1175914"><ele>355.8571428571429</ele><time>2026-05-02T09:35:47.56Z</time></trkpt><trkpt lat="42.4011292" lon="11.1175037"><ele>357.1428571428571</ele><time>2026-05-02T09:35:48.56Z</time></trkpt><trkpt lat="42.4011023" lon="11.11741"><ele>358.4285714285714</ele><time>2026-05-02T09:35:49.56Z</time></trkpt><trkpt lat="42.4010779" lon="11.1173142"><ele>359.7142857142857</ele><time>2026-05-02T09:35:50.56Z</time></trkpt><trkpt lat="42.4010587" lon="11.1172264"><ele>361.0</ele><time>2026-05-02T09:35:51.56Z</time></trkpt><trkpt lat="42.4016019" lon="11.1198329"><ele>361.0</ele><time>2026-05-02T09:35:22.559Z</time></trkpt><trkpt lat="42.4015446" lon="11.1196809"><ele>361.0</ele><time>2026-05-02T09:35:24.559Z</time></trkpt><trkpt lat="42.4015152" lon="11.1195323"><ele>361.0</ele><time>2026-05-02T09:35:26.56Z</time></trkpt><trkpt lat="42.4014997" lon="11.1194088"><ele>361.0</ele><time>2026-05-02T09:35:28.561Z</time></trkpt><trkpt lat="42.4015148" lon="11.1192496"><ele>361.0</ele><time>2026-05-02T09:35:30.56Z</time></trkpt><trkpt lat="42.4015182" lon="11.1190873"><ele>361.0</ele><time>2026-05-02T09:35:32.559Z</time></trkpt><trkpt lat="42.4015177" lon="11.1189856"><ele>361.0</ele><time>2026-05-02T09:35:33.56Z</time></trkpt><trkpt lat="42.4015075" lon="11.1188757"><ele>361.0</ele><time>2026-05-02T09:35:34.56Z</time></trkpt><trkpt lat="42.4015004" lon="11.1187727"><ele>361.0</ele><time>2026-05-02T09:35:35.56Z</time></trkpt><trkpt lat="42.4014959" lon="11.1186761"><ele>361.0</ele><time>2026-05-02T09:35:36.561Z</time></trkpt><trkpt lat="42.4014829" lon="11.1185906"><ele>360.66666666666663</ele><time>2026-05-02T09:35:37.559Z</time></trkpt><trkpt lat="42.4014646" lon="11.1185042"><ele>360.3333333333333</ele><time>2026-05-02T09:35:38.56Z</time></trkpt><trkpt lat="42.4014463" lon="11.1184075"><ele>360.0</ele><time>2026-05-02T09:35:39.559Z</time></trkpt><trkpt lat="42.4014242" lon="11.1183133"><ele>359.6666666666667</ele><time>2026-05-02T09:35:40.561Z</time></trkpt><trkpt lat="42.4013922" lon="11.1182179"><ele>359.33333333333337</ele><time>2026-05-02T09:35:41.559Z</time></trkpt><trkpt lat="42.4013471" lon="11.118113"><ele>359.0</ele><time>2026-05-02T09:35:42.562Z</time></trkpt><trkpt lat="42.4012925" lon="11.1179876"><ele>361.0</ele><time>2026-05-02T09:35:43.559Z</time></trkpt><trkpt lat="42.4012448" lon="11.1178725"><ele>363.0</ele><time>2026-05-02T09:35:44.561Z</time></trkpt><trkpt lat="42.4012077" lon="11.1177759"><ele>365.0</ele><time>2026-05-02T09:35:45.56Z</time></trkpt><trkpt lat="42.4011741" lon="11.1176842"><ele>367.0</ele><time>2026-05-02T09:35:46.559Z</time></trkpt><trkpt lat="42.4011513" lon="11.1175914"><ele>369.0</ele><time>2026-05-02T09:35:47.56Z</time></trkpt><trkpt lat="42.4011292" lon="11.1175037"><ele>371.0</ele><time>2026-05-02T09:35:48.56Z</time></trkpt><trkpt lat="42.4011023" lon="11.11741"><ele>370.83333333333337</ele><time>2026-05-02T09:35:49.56Z</time></trkpt><trkpt lat="42.4010779" lon="11.1173142"><ele>370.6666666666667</ele><time>2026-05-02T09:35:50.56Z</time></trkpt><trkpt lat="42.4010587" lon="11.1172264"><ele>370.5</ele><time>2026-05-02T09:35:51.56Z</time></trkpt><trkpt lat="42.4010446" lon="11.1171413"><ele>370.3333333333333</ele><time>2026-05-02T09:35:52.561Z</time></trkpt><trkpt lat="42.4010387" lon="11.116988"><ele>370.16666666666663</ele><time>2026-05-02T09:35:54.561Z</time></trkpt><trkpt lat="42.4010372" lon="11.1168515"><ele>370.0</ele><time>2026-05-02T09:35:56.559Z</time></trkpt><trkpt lat="42.4010146" lon="11.1167114"><ele>370.0</ele><time>2026-05-02T09:35:58.559Z</time></trkpt><trkpt lat="42.4009716" lon="11.1165891"><ele>370.0</ele><time>2026-05-02T09:36:00.56Z</time></trkpt><trkpt lat="42.4008839" lon="11.1164536"><ele>370.0</ele><time>2026-05-02T09:36:02.56Z</time></trkpt><trkpt lat="42.4008161" lon="11.1163635"><ele>370.0</ele><time>2026-05-02T09:36:03.56Z</time></trkpt><trkpt lat="42.4007461" lon="11.1162785"><ele>370.0</ele><time>2026-05-02T09:36:04.56Z</time></trkpt><trkpt lat="42.4006915" lon="11.116217"><ele>371.4</ele><time>2026-05-02T09:36:05.56Z</time></trkpt><trkpt lat="42.4006308" lon="11.1161523"><ele>372.8</ele><time>2026-05-02T09:36:06.56Z</time></trkpt><trkpt lat="42.4005646" lon="11.1160795"><ele>374.20000000000005</ele><time>2026-05-02T09:36:07.56Z</time></trkpt><trkpt lat="42.4004982" lon="11.1159705"><ele>375.6</ele><time>2026-05-02T09:36:09.559Z</time></trkpt><trkpt lat="42.4004775" lon="11.1158424"><ele>377.0</ele><time>2026-05-02T09:36:11.558Z</time></trkpt><trkpt lat="42.4004695" lon="11.1157264"><ele>377.0</ele><time>2026-05-02T09:36:13.559Z</time></trkpt><trkpt lat="42.4004788" lon="11.115571"><ele>377.0</ele><time>2026-05-02T09:36:15.56Z</time></trkpt><trkpt lat="42.4005049" lon="11.1154213"><ele>377.0</ele><time>2026-05-02T09:36:17.56Z</time></trkpt><trkpt lat="42.4004997" lon="11.1152826"><ele>377.0</ele><time>2026-05-02T09:36:19.56Z</time></trkpt><trkpt lat="42.400488" lon="11.115154"><ele>377.0</ele><time>2026-05-02T09:36:21.561Z</time></trkpt><trkpt lat="42.400478" lon="11.115024"><ele>373.40000000000003</ele><time>2026-05-02T09:36:23.56Z</time></trkpt><trkpt lat="42.4004747" lon="11.1149015"><ele>369.8</ele><time>2026-05-02T09:36:25.56Z</time></trkpt><trkpt lat="42.400464" lon="11.1147852"><ele>366.2</ele><time>2026-05-02T09:36:27.56Z</time></trkpt><trkpt lat="42.4004722" lon="11.1146666"><ele>362.6</ele><time>2026-05-02T09:36:29.559Z</time></trkpt><trkpt lat="42.4005116" lon="11.1145203"><ele>359.0</ele><time>2026-05-02T09:36:31.559Z</time></trkpt><trkpt lat="42.4005413" lon="11.1144349"><ele>359.0</ele><time>2026-05-02T09:36:32.559Z</time></trkpt><trkpt lat="42.4005783" lon="11.1143394"><ele>359.0</ele><time>2026-05-02T09:36:33.558Z</time></trkpt><trkpt lat="42.4006147" lon="11.1142482"><ele>359.0</ele><time>2026-05-02T09:36:34.559Z</time></trkpt><trkpt lat="42.4006468" lon="11.1141511"><ele>359.0</ele><time>2026-05-02T09:36:35.559Z</time></trkpt><trkpt lat="42.4006701" lon="11.1140614"><ele>359.0</ele><time>2026-05-02T09:36:36.559Z</time></trkpt><trkpt lat="42.4006926" lon="11.1139771"><ele>359.0</ele><time>2026-05-02T09:36:37.559Z</time></trkpt><trkpt lat="42.4007399" lon="11.1138414"><ele>357.0</ele><time>2026-05-02T09:36:39.559Z</time></trkpt><trkpt lat="42.4007887" lon="11.1137409"><ele>355.0</ele><time>2026-05-02T09:36:41.56Z</time></trkpt><trkpt lat="42.4008399" lon="11.1136588"><ele>353.0</ele><time>2026-05-02T09:36:44.558Z</time></trkpt><trkpt lat="42.4008873" lon="11.1135471"><ele>351.0</ele><time>2026-05-02T09:36:48.559Z</time></trkpt><trkpt lat="42.4008899" lon="11.1134246"><ele>349.0</ele><time>2026-05-02T09:36:50.559Z</time></trkpt><trkpt lat="42.4008943" lon="11.1132962"><ele>347.0</ele><time>2026-05-02T09:36:52.559Z</time></trkpt><trkpt lat="42.4009054" lon="11.1131819"><ele>347.0</ele><time>2026-05-02T09:36:54.56Z</time></trkpt><trkpt lat="42.4009141" lon="11.1130969"><ele>347.0</ele><time>2026-05-02T09:36:56.56Z</time></trkpt><trkpt lat="42.4009212" lon="11.1130023"><ele>347.0</ele><time>2026-05-02T09:36:59.56Z</time></trkpt><trkpt lat="42.4008836" lon="11.1129059"><ele>347.0</ele><time>2026-05-02T09:37:12.56Z</time></trkpt><trkpt lat="42.4008093" lon="11.1129168"><ele>347.0</ele><time>2026-05-02T09:37:14.561Z</time></trkpt><trkpt lat="42.4007462" lon="11.1129344"><ele>347.0</ele><time>2026-05-02T09:37:16.56Z</time></trkpt><trkpt lat="42.4006771" lon="11.1129661"><ele>347.0</ele><time>2026-05-02T09:37:18.559Z</time></trkpt><trkpt lat="42.4005779" lon="11.1130229"><ele>347.0</ele><time>2026-05-02T09:37:20.559Z</time></trkpt><trkpt lat="42.4005205" lon="11.1130602"><ele>347.0</ele><time>2026-05-02T09:37:21.56Z</time></trkpt><trkpt lat="42.4004619" lon="11.1131116"><ele>347.0</ele><time>2026-05-02T09:37:22.558Z</time></trkpt><trkpt lat="42.4003944" lon="11.1131754"><ele>347.0</ele><time>2026-05-02T09:37:23.56Z</time></trkpt><trkpt lat="42.4003334" lon="11.1132386"><ele>347.0</ele><time>2026-05-02T09:37:24.559Z</time></trkpt><trkpt lat="42.4002757" lon="11.1132999"><ele>347.0</ele><time>2026-05-02T09:37:25.559Z</time></trkpt><trkpt lat="42.4002199" lon="11.1133628"><ele>347.0</ele><time>2026-05-02T09:37:26.559Z</time></trkpt><trkpt lat="42.4001686" lon="11.1134214"><ele>345.0</ele><time>2026-05-02T09:37:27.558Z</time></trkpt><trkpt lat="42.400114" lon="11.1134865"><ele>343.0</ele><time>2026-05-02T09:37:28.56Z</time></trkpt><trkpt lat="42.4000583" lon="11.113554"><ele>341.0</ele><time>2026-05-02T09:37:29.561Z</time></trkpt><trkpt lat="42.4000094" lon="11.1136191"><ele>339.0</ele><time>2026-05-02T09:37:30.559Z</time></trkpt><trkpt lat="42.399962" lon="11.1136886"><ele>337.0</ele><time>2026-05-02T09:37:31.559Z</time></trkpt><trkpt lat="42.3999232" lon="11.1137755"><ele>335.0</ele><time>2026-05-02T09:37:32.558Z</time></trkpt><trkpt lat="42.3998857" lon="11.1138672"><ele>333.0</ele><time>2026-05-02T09:37:33.56Z</time></trkpt><trkpt lat="42.3998472" lon="11.1139646"><ele>333.0</ele><time>2026-05-02T09:37:34.559Z</time></trkpt><trkpt lat="42.3998115" lon="11.1140588"><ele>333.0</ele><time>2026-05-02T09:37:35.565Z</time></trkpt><trkpt lat="42.3997704" lon="11.1141655"><ele>333.0</ele><time>2026-05-02T09:37:36.559Z</time></trkpt><trkpt lat="42.3997367" lon="11.1142703"><ele>333.0</ele><time>2026-05-02T09:37:37.559Z</time></trkpt><trkpt lat="42.3996982" lon="11.1143685"><ele>333.0</ele><time>2026-05-02T09:37:38.559Z</time></trkpt><trkpt lat="42.3996687" lon="11.1144652"><ele>333.0</ele><time>2026-05-02T09:37:39.559Z</time></trkpt><trkpt lat="42.3996352" lon="11.1145573"><ele>330.8571428571429</ele><time>2026-05-02T09:37:40.558Z</time></trkpt><trkpt lat="42.3995992" lon="11.1146563"><ele>328.71428571428567</ele><time>2026-05-02T09:37:41.558Z</time></trkpt><trkpt lat="42.3995618" lon="11.114747"><ele>326.57142857142856</ele><time>2026-05-02T09:37:42.559Z</time></trkpt><trkpt lat="42.3995238" lon="11.1148267"><ele>324.42857142857144</ele><time>2026-05-02T09:37:43.559Z</time></trkpt><trkpt lat="42.3994838" lon="11.1149054"><ele>322.28571428571433</ele><time>2026-05-02T09:37:44.559Z</time></trkpt><trkpt lat="42.3994324" lon="11.1149735"><ele>320.1428571428571</ele><time>2026-05-02T09:37:45.56Z</time></trkpt><trkpt lat="42.3993762" lon="11.1150395"><ele>318.0</ele><time>2026-05-02T09:37:46.559Z</time></trkpt><trkpt lat="42.3993195" lon="11.1150978"><ele>318.0</ele><time>2026-05-02T09:37:47.559Z</time></trkpt><trkpt lat="42.3992646" lon="11.1151466"><ele>318.0</ele><time>2026-05-02T09:37:48.56Z</time></trkpt><trkpt lat="42.3992071" lon="11.1152023"><ele>318.0</ele><time>2026-05-02T09:37:49.558Z</time></trkpt><trkpt lat="42.3991436" lon="11.1152535"><ele>318.0</ele><time>2026-05-02T09:37:50.558Z</time></trkpt><trkpt lat="42.3990746" lon="11.1153012"><ele>318.0</ele><time>2026-05-02T09:37:51.558Z</time></trkpt><trkpt lat="42.3990033" lon="11.1153519"><ele>318.0</ele><time>2026-05-02T09:37:52.559Z</time></trkpt><trkpt lat="42.398927" lon="11.1154022"><ele>318.0</ele><time>2026-05-02T09:37:53.559Z</time></trkpt><trkpt lat="42.3988509" lon="11.1154449"><ele>318.0</ele><time>2026-05-02T09:37:54.558Z</time></trkpt><trkpt lat="42.398773" lon="11.115483"><ele>318.0</ele><time>2026-05-02T09:37:55.559Z</time></trkpt><trkpt lat="42.3986927" lon="11.1155124"><ele>318.0</ele><time>2026-05-02T09:37:56.559Z</time></trkpt><trkpt lat="42.3986079" lon="11.1155417"><ele>318.0</ele><time>2026-05-02T09:37:57.559Z</time></trkpt><trkpt lat="42.3985179" lon="11.1155627"><ele>318.0</ele><time>2026-05-02T09:37:58.558Z</time></trkpt><trkpt lat="42.3984226" lon="11.1155741"><ele>314.1666666666667</ele><time>2026-05-02T09:37:59.56Z</time></trkpt><trkpt lat="42.3983292" lon="11.1155796"><ele>310.3333333333333</ele><time>2026-05-02T09:38:00.558Z</time></trkpt><trkpt lat="42.3982398" lon="11.1155805"><ele>306.5</ele><time>2026-05-02T09:38:01.559Z</time></trkpt><trkpt lat="42.3981552" lon="11.1155744"><ele>302.66666666666663</ele><time>2026-05-02T09:38:02.559Z</time></trkpt><trkpt lat="42.3980666" lon="11.1155665"><ele>298.8333333333333</ele><time>2026-05-02T09:38:03.558Z</time></trkpt><trkpt lat="42.397978" lon="11.1155515"><ele>295.0</ele><time>2026-05-02T09:38:04.559Z</time></trkpt><trkpt lat="42.3978939" lon="11.1155328"><ele>292.8333333333333</ele><time>2026-05-02T09:38:05.56Z</time></trkpt><trkpt lat="42.3978098" lon="11.1155099"><ele>290.66666666666663</ele><time>2026-05-02T09:38:06.559Z</time></trkpt><trkpt lat="42.3977223" lon="11.1154825"><ele>288.5</ele><time>2026-05-02T09:38:07.559Z</time></trkpt><trkpt lat="42.3976505" lon="11.1154607"><ele>286.3333333333333</ele><time>2026-05-02T09:38:08.56Z</time></trkpt><trkpt lat="42.3975639" lon="11.115432"><ele>284.1666666666667</ele><time>2026-05-02T09:38:09.558Z</time></trkpt><trkpt lat="42.3974857" lon="11.1154011"><ele>282.0</ele><time>2026-05-02T09:38:10.558Z</time></trkpt><trkpt lat="42.3974022" lon="11.1153699"><ele>282.0</ele><time>2026-05-02T09:38:11.558Z</time></trkpt><trkpt lat="42.3973266" lon="11.1153421"><ele>282.0</ele><time>2026-05-02T09:38:12.559Z</time></trkpt><trkpt lat="42.397239" lon="11.1153112"><ele>282.0</ele><time>2026-05-02T09:38:13.559Z</time></trkpt><trkpt lat="42.3971606" lon="11.1152826"><ele>282.0</ele><time>2026-05-02T09:38:14.559Z</time></trkpt><trkpt lat="42.3970813" lon="11.1152686"><ele>282.0</ele><time>2026-05-02T09:38:15.559Z</time></trkpt><trkpt lat="42.3969951" lon="11.1152609"><ele>282.0</ele><time>2026-05-02T09:38:16.56Z</time></trkpt><trkpt lat="42.3969009" lon="11.1152601"><ele>281.6</ele><time>2026-05-02T09:38:17.559Z</time></trkpt><trkpt lat="42.3968014" lon="11.1152589"><ele>281.2</ele><time>2026-05-02T09:38:18.56Z</time></trkpt><trkpt lat="42.396701" lon="11.115266"><ele>280.8</ele><time>2026-05-02T09:38:19.559Z</time></trkpt><trkpt lat="42.3965982" lon="11.1152705"><ele>280.4</ele><time>2026-05-02T09:38:20.559Z</time></trkpt><trkpt lat="42.3965031" lon="11.1152703"><ele>280.0</ele><time>2026-05-02T09:38:21.559Z</time></trkpt><trkpt lat="42.396407" lon="11.1152738"><ele>278.8333333333333</ele><time>2026-05-02T09:38:22.56Z</time></trkpt><trkpt lat="42.3963155" lon="11.1152705"><ele>277.66666666666663</ele><time>2026-05-02T09:38:23.56Z</time></trkpt><trkpt lat="42.396225" lon="11.1152635"><ele>276.5</ele><time>2026-05-02T09:38:24.561Z</time></trkpt><trkpt lat="42.3961411" lon="11.1152462"><ele>275.3333333333333</ele><time>2026-05-02T09:38:25.559Z</time></trkpt><trkpt lat="42.3960553" lon="11.1152297"><ele>274.1666666666667</ele><time>2026-05-02T09:38:26.558Z</time></trkpt><trkpt lat="42.3959723" lon="11.1152069"><ele>273.0</ele><time>2026-05-02T09:38:27.56Z</time></trkpt><trkpt lat="42.3958865" lon="11.1151783"><ele>273.0</ele><time>2026-05-02T09:38:28.558Z</time></trkpt><trkpt lat="42.395815" lon="11.1151532"><ele>273.0</ele><time>2026-05-02T09:38:29.559Z</time></trkpt><trkpt lat="42.3957388" lon="11.1151361"><ele>273.0</ele><time>2026-05-02T09:38:30.558Z</time></trkpt><trkpt lat="42.395611" lon="11.1151303"><ele>273.0</ele><time>2026-05-02T09:38:32.559Z</time></trkpt><trkpt lat="42.3955036" lon="11.1151599"><ele>273.0</ele><time>2026-05-02T09:38:34.558Z</time></trkpt><trkpt lat="42.3954275" lon="11.1152622"><ele>269.2</ele><time>2026-05-02T09:38:36.558Z</time></trkpt><trkpt lat="42.3954138" lon="11.1153457"><ele>265.4</ele><time>2026-05-02T09:38:37.56Z</time></trkpt><trkpt lat="42.3954114" lon="11.1154543"><ele>261.59999999999997</ele><time>2026-05-02T09:38:38.56Z</time></trkpt><trkpt lat="42.3954254" lon="11.1156025"><ele>257.8</ele><time>2026-05-02T09:38:39.559Z</time></trkpt><trkpt lat="42.3954427" lon="11.1157795"><ele>254.0</ele><time>2026-05-02T09:38:40.559Z</time></trkpt><trkpt lat="42.3954581" lon="11.1159543"><ele>254.0</ele><time>2026-05-02T09:38:41.558Z</time></trkpt><trkpt lat="42.3954714" lon="11.1161281"><ele>253.99999999999997</ele><time>2026-05-02T09:38:42.559Z</time></trkpt><trkpt lat="42.3954595" lon="11.116264"><ele>253.99999999999997</ele><time>2026-05-02T09:38:43.56Z</time></trkpt><trkpt lat="42.3954366" lon="11.1163937"><ele>254.0</ele><time>2026-05-02T09:38:44.558Z</time></trkpt><trkpt lat="42.3953897" lon="11.1165146"><ele>254.0</ele><time>2026-05-02T09:38:45.558Z</time></trkpt><trkpt lat="42.3953235" lon="11.1166411"><ele>255.66666666666669</ele><time>2026-05-02T09:38:46.559Z</time></trkpt><trkpt lat="42.395241" lon="11.1168002"><ele>257.3333333333333</ele><time>2026-05-02T09:38:47.559Z</time></trkpt><trkpt lat="42.3951577" lon="11.1169801"><ele>259.0</ele><time>2026-05-02T09:38:48.559Z</time></trkpt><trkpt lat="42.3950768" lon="11.1171611"><ele>259.0</ele><time>2026-05-02T09:38:49.56Z</time></trkpt><trkpt lat="42.3950014" lon="11.1173181"><ele>259.0</ele><time>2026-05-02T09:38:50.559Z</time></trkpt><trkpt lat="42.3949321" lon="11.1174514"><ele>259.0</ele><time>2026-05-02T09:38:51.558Z</time></trkpt><trkpt lat="42.3948596" lon="11.1175773"><ele>259.0</ele><time>2026-05-02T09:38:52.559Z</time></trkpt><trkpt lat="42.3947812" lon="11.1176849"><ele>263.2</ele><time>2026-05-02T09:38:53.559Z</time></trkpt><trkpt lat="42.3947008" lon="11.1177737"><ele>267.4</ele><time>2026-05-02T09:38:54.559Z</time></trkpt><trkpt lat="42.39462" lon="11.1178386"><ele>271.6</ele><time>2026-05-02T09:38:55.558Z</time></trkpt><trkpt lat="42.3945483" lon="11.1179123"><ele>275.8</ele><time>2026-05-02T09:38:56.559Z</time></trkpt><trkpt lat="42.3944863" lon="11.1179994"><ele>280.0</ele><time>2026-05-02T09:38:57.559Z</time></trkpt><trkpt lat="42.394443" lon="11.1180836"><ele>276.16666666666663</ele><time>2026-05-02T09:38:58.558Z</time></trkpt><trkpt lat="42.3944188" lon="11.118169"><ele>272.3333333333333</ele><time>2026-05-02T09:38:59.559Z</time></trkpt><trkpt lat="42.3944225" lon="11.1182563"><ele>268.5</ele><time>2026-05-02T09:39:00.559Z</time></trkpt><trkpt lat="42.3944431" lon="11.1183579"><ele>264.6666666666667</ele><time>2026-05-02T09:39:01.559Z</time></trkpt><trkpt lat="42.3944883" lon="11.1184555"><ele>260.83333333333337</ele><time>2026-05-02T09:39:02.559Z</time></trkpt><trkpt lat="42.3945379" lon="11.1185594"><ele>257.0</ele><time>2026-05-02T09:39:03.559Z</time></trkpt><trkpt lat="42.394602" lon="11.1186558"><ele>262.0</ele><time>2026-05-02T09:39:04.559Z</time></trkpt><trkpt lat="42.3946802" lon="11.1187368"><ele>267.0</ele><time>2026-05-02T09:39:05.559Z</time></trkpt><trkpt lat="42.3947698" lon="11.11881"><ele>272.0</ele><time>2026-05-02T09:39:06.558Z</time></trkpt><trkpt lat="42.3948858" lon="11.1188803"><ele>277.0</ele><time>2026-05-02T09:39:07.559Z</time></trkpt><trkpt lat="42.3950246" lon="11.1189492"><ele>277.0</ele><time>2026-05-02T09:39:08.558Z</time></trkpt><trkpt lat="42.3951764" lon="11.119018"><ele>277.0</ele><time>2026-05-02T09:39:09.558Z</time></trkpt><trkpt lat="42.395324" lon="11.1190805"><ele>277.0</ele><time>2026-05-02T09:39:10.559Z</time></trkpt><trkpt lat="42.3954727" lon="11.1191337"><ele>270.75</ele><time>2026-05-02T09:39:11.558Z</time></trkpt><trkpt lat="42.3956137" lon="11.1191725"><ele>264.5</ele><time>2026-05-02T09:39:12.559Z</time></trkpt><trkpt lat="42.3957454" lon="11.1192033"><ele>258.25</ele><time>2026-05-02T09:39:13.559Z</time></trkpt><trkpt lat="42.3958652" lon="11.1192238"><ele>252.0</ele><time>2026-05-02T09:39:14.558Z</time></trkpt><trkpt lat="42.3959804" lon="11.1192446"><ele>252.0</ele><time>2026-05-02T09:39:15.559Z</time></trkpt><trkpt lat="42.3960837" lon="11.1192279"><ele>252.0</ele><time>2026-05-02T09:39:16.559Z</time></trkpt><trkpt lat="42.3961892" lon="11.1192078"><ele>252.0</ele><time>2026-05-02T09:39:17.558Z</time></trkpt><trkpt lat="42.3962931" lon="11.1191843"><ele>252.0</ele><time>2026-05-02T09:39:18.559Z</time></trkpt><trkpt lat="42.3963783" lon="11.1191555"><ele>252.0</ele><time>2026-05-02T09:39:19.558Z</time></trkpt><trkpt lat="42.3964771" lon="11.1191136"><ele>252.6</ele><time>2026-05-02T09:39:20.558Z</time></trkpt><trkpt lat="42.3965706" lon="11.11906"><ele>253.2</ele><time>2026-05-02T09:39:21.558Z</time></trkpt><trkpt lat="42.3966458" lon="11.1190207"><ele>253.8</ele><time>2026-05-02T09:39:22.558Z</time></trkpt><trkpt lat="42.3967428" lon="11.119013"><ele>254.4</ele><time>2026-05-02T09:39:24.558Z</time></trkpt><trkpt lat="42.3968009" lon="11.1191357"><ele>255.0</ele><time>2026-05-02T09:39:26.559Z</time></trkpt><trkpt lat="42.3967256" lon="11.1193931"><ele>255.0</ele><time>2026-05-02T09:39:28.559Z</time></trkpt><trkpt lat="42.3966767" lon="11.119546"><ele>255.0</ele><time>2026-05-02T09:39:29.559Z</time></trkpt><trkpt lat="42.3966254" lon="11.1197207"><ele>255.0</ele><time>2026-05-02T09:39:30.56Z</time></trkpt><trkpt lat="42.3965691" lon="11.1198961"><ele>255.0</ele><time>2026-05-02T09:39:31.559Z</time></trkpt><trkpt lat="42.3965152" lon="11.1200515"><ele>256.4</ele><time>2026-05-02T09:39:32.558Z</time></trkpt><trkpt lat="42.3964728" lon="11.1201935"><ele>257.8</ele><time>2026-05-02T09:39:33.558Z</time></trkpt><trkpt lat="42.3964478" lon="11.1203451"><ele>259.2</ele><time>2026-05-02T09:39:34.559Z</time></trkpt><trkpt lat="42.3964245" lon="11.1204853"><ele>260.6</ele><time>2026-05-02T09:39:35.56Z</time></trkpt><trkpt lat="42.3964056" lon="11.1206294"><ele>262.0</ele><time>2026-05-02T09:39:36.559Z</time></trkpt><trkpt lat="42.3963342" lon="11.1207588"><ele>257.75</ele><time>2026-05-02T09:39:38.559Z</time></trkpt><trkpt lat="42.3962048" lon="11.1208347"><ele>253.5</ele><time>2026-05-02T09:39:40.56Z</time></trkpt><trkpt lat="42.3961034" lon="11.1208721"><ele>249.25</ele><time>2026-05-02T09:39:41.559Z</time></trkpt><trkpt lat="42.3959943" lon="11.1209164"><ele>245.0</ele><time>2026-05-02T09:39:42.559Z</time></trkpt><trkpt lat="42.3958977" lon="11.1209623"><ele>245.0</ele><time>2026-05-02T09:39:43.558Z</time></trkpt><trkpt lat="42.3957952" lon="11.1210191"><ele>245.0</ele><time>2026-05-02T09:39:44.558Z</time></trkpt><trkpt lat="42.3956818" lon="11.1211001"><ele>245.0</ele><time>2026-05-02T09:39:45.558Z</time></trkpt><trkpt lat="42.3955926" lon="11.1211724"><ele>245.0</ele><time>2026-05-02T09:39:46.56Z</time></trkpt><trkpt lat="42.3954985" lon="11.1212505"><ele>245.75</ele><time>2026-05-02T09:39:47.559Z</time></trkpt><trkpt lat="42.3954205" lon="11.1213683"><ele>246.5</ele><time>2026-05-02T09:39:48.558Z</time></trkpt><trkpt lat="42.3953529" lon="11.1214893"><ele>247.25</ele><time>2026-05-02T09:39:49.558Z</time></trkpt><trkpt lat="42.3952928" lon="11.1216277"><ele>248.0</ele><time>2026-05-02T09:39:50.558Z</time></trkpt><trkpt lat="42.3952451" lon="11.1217596"><ele>248.00000000000003</ele><time>2026-05-02T09:39:51.56Z</time></trkpt><trkpt lat="42.3952088" lon="11.1218831"><ele>248.0</ele><time>2026-05-02T09:39:52.559Z</time></trkpt><trkpt lat="42.3951769" lon="11.1219888"><ele>248.0</ele><time>2026-05-02T09:39:53.557Z</time></trkpt><trkpt lat="42.3951424" lon="11.122073"><ele>248.0</ele><time>2026-05-02T09:39:54.558Z</time></trkpt><trkpt lat="42.3951079" lon="11.1221448"><ele>248.00000000000003</ele><time>2026-05-02T09:39:55.558Z</time></trkpt><trkpt lat="42.3950126" lon="11.1221678"><ele>248.0</ele><time>2026-05-02T09:39:56.559Z</time></trkpt><trkpt lat="42.3949226" lon="11.1221706"><ele>248.00000000000003</ele><time>2026-05-02T09:39:57.559Z</time></trkpt><trkpt lat="42.3948301" lon="11.1221656"><ele>248.0</ele><time>2026-05-02T09:39:58.558Z</time></trkpt><trkpt lat="42.3947528" lon="11.1221903"><ele>248.0</ele><time>2026-05-02T09:39:59.559Z</time></trkpt><trkpt lat="42.3946725" lon="11.1222403"><ele>248.0</ele><time>2026-05-02T09:40:00.558Z</time></trkpt><trkpt lat="42.3945974" lon="11.1223165"><ele>248.00000000000003</ele><time>2026-05-02T09:40:01.559Z</time></trkpt><trkpt lat="42.3945196" lon="11.1223618"><ele>248.0</ele><time>2026-05-02T09:40:02.558Z</time></trkpt><trkpt lat="42.3944469" lon="11.1224002"><ele>248.33333333333334</ele><time>2026-05-02T09:40:03.559Z</time></trkpt><trkpt lat="42.3943442" lon="11.1223785"><ele>248.66666666666669</ele><time>2026-05-02T09:40:04.558Z</time></trkpt><trkpt lat="42.3942595" lon="11.1223777"><ele>249.0</ele><time>2026-05-02T09:40:05.558Z</time></trkpt><trkpt lat="42.3941777" lon="11.1223749"><ele>249.33333333333331</ele><time>2026-05-02T09:40:06.559Z</time></trkpt><trkpt lat="42.394102" lon="11.1223939"><ele>249.66666666666666</ele><time>2026-05-02T09:40:07.558Z</time></trkpt><trkpt lat="42.3940373" lon="11.1224324"><ele>250.0</ele><time>2026-05-02T09:40:08.559Z</time></trkpt><trkpt lat="42.3939875" lon="11.1225"><ele>250.0</ele><time>2026-05-02T09:40:09.559Z</time></trkpt><trkpt lat="42.3939454" lon="11.1225635"><ele>250.0</ele><time>2026-05-02T09:40:10.558Z</time></trkpt><trkpt lat="42.393948" lon="11.1227133"><ele>250.0</ele><time>2026-05-02T09:40:11.559Z</time></trkpt><trkpt lat="42.393935" lon="11.1228349"><ele>250.0</ele><time>2026-05-02T09:40:12.558Z</time></trkpt><trkpt lat="42.3939273" lon="11.12298"><ele>250.0</ele><time>2026-05-02T09:40:13.559Z</time></trkpt><trkpt lat="42.393916" lon="11.1231112"><ele>247.83333333333331</ele><time>2026-05-02T09:40:14.557Z</time></trkpt><trkpt lat="42.3938929" lon="11.123233"><ele>245.66666666666666</ele><time>2026-05-02T09:40:15.558Z</time></trkpt><trkpt lat="42.393858" lon="11.1233376"><ele>243.5</ele><time>2026-05-02T09:40:16.56Z</time></trkpt><trkpt lat="42.3938185" lon="11.1234265"><ele>241.33333333333331</ele><time>2026-05-02T09:40:17.558Z</time></trkpt><trkpt lat="42.3937754" lon="11.1234997"><ele>239.16666666666666</ele><time>2026-05-02T09:40:18.559Z</time></trkpt><trkpt lat="42.3936855" lon="11.1235183"><ele>237.0</ele><time>2026-05-02T09:40:19.559Z</time></trkpt><trkpt lat="42.3935938" lon="11.1235524"><ele>237.0</ele><time>2026-05-02T09:40:20.557Z</time></trkpt><trkpt lat="42.3934894" lon="11.1235941"><ele>237.0</ele><time>2026-05-02T09:40:21.559Z</time></trkpt><trkpt lat="42.3934012" lon="11.1236342"><ele>237.0</ele><time>2026-05-02T09:40:22.558Z</time></trkpt><trkpt lat="42.3933223" lon="11.1236694"><ele>237.0</ele><time>2026-05-02T09:40:23.558Z</time></trkpt><trkpt lat="42.3932562" lon="11.1236909"><ele>237.0</ele><time>2026-05-02T09:40:24.559Z</time></trkpt><trkpt lat="42.3931545" lon="11.1237224"><ele>237.0</ele><time>2026-05-02T09:40:26.558Z</time></trkpt><trkpt lat="42.3930675" lon="11.1237346"><ele>237.0</ele><time>2026-05-02T09:40:29.559Z</time></trkpt><trkpt lat="42.3929573" lon="11.1237839"><ele>237.0</ele><time>2026-05-02T09:40:31.558Z</time></trkpt><trkpt lat="42.3928881" lon="11.1238374"><ele>237.0</ele><time>2026-05-02T09:40:32.557Z</time></trkpt><trkpt lat="42.3928261" lon="11.1238902"><ele>237.0</ele><time>2026-05-02T09:40:33.558Z</time></trkpt><trkpt lat="42.3927367" lon="11.1240012"><ele>235.6</ele><time>2026-05-02T09:40:35.558Z</time></trkpt><trkpt lat="42.3926677" lon="11.1240981"><ele>234.2</ele><time>2026-05-02T09:40:37.558Z</time></trkpt><trkpt lat="42.3926023" lon="11.1241803"><ele>232.8</ele><time>2026-05-02T09:40:39.558Z</time></trkpt><trkpt lat="42.392528" lon="11.1241427"><ele>231.4</ele><time>2026-05-02T09:40:41.559Z</time></trkpt><trkpt lat="42.3924788" lon="11.1239971"><ele>230.0</ele><time>2026-05-02T09:40:43.558Z</time></trkpt><trkpt lat="42.3924453" lon="11.1238962"><ele>229.16666666666669</ele><time>2026-05-02T09:40:44.557Z</time></trkpt><trkpt lat="42.3924142" lon="11.1237846"><ele>228.33333333333334</ele><time>2026-05-02T09:40:45.558Z</time></trkpt><trkpt lat="42.3923811" lon="11.1236712"><ele>227.5</ele><time>2026-05-02T09:40:46.56Z</time></trkpt><trkpt lat="42.3923579" lon="11.1235754"><ele>226.66666666666669</ele><time>2026-05-02T09:40:47.56Z</time></trkpt><trkpt lat="42.3923313" lon="11.1234732"><ele>225.83333333333334</ele><time>2026-05-02T09:40:48.557Z</time></trkpt><trkpt lat="42.3923042" lon="11.1233725"><ele>225.0</ele><time>2026-05-02T09:40:49.558Z</time></trkpt><trkpt lat="42.3923028" lon="11.1232777"><ele>223.5</ele><time>2026-05-02T09:40:50.559Z</time></trkpt><trkpt lat="42.3922995" lon="11.1231851"><ele>222.0</ele><time>2026-05-02T09:40:51.558Z</time></trkpt><trkpt lat="42.3922465" lon="11.1230797"><ele>220.5</ele><time>2026-05-02T09:40:53.559Z</time></trkpt><trkpt lat="42.3921668" lon="11.1231043"><ele>219.0</ele><time>2026-05-02T09:40:55.558Z</time></trkpt><trkpt lat="42.3921133" lon="11.1232218"><ele>217.5</ele><time>2026-05-02T09:40:56.558Z</time></trkpt><trkpt lat="42.3920574" lon="11.1233169"><ele>216.0</ele><time>2026-05-02T09:40:57.559Z</time></trkpt><trkpt lat="42.3919949" lon="11.1234171"><ele>214.5</ele><time>2026-05-02T09:40:58.559Z</time></trkpt><trkpt lat="42.3919336" lon="11.1235094"><ele>213.0</ele><time>2026-05-02T09:40:59.559Z</time></trkpt><trkpt lat="42.3918699" lon="11.1235909"><ele>211.5</ele><time>2026-05-02T09:41:00.557Z</time></trkpt><trkpt lat="42.3918083" lon="11.1236695"><ele>210.0</ele><time>2026-05-02T09:41:01.557Z</time></trkpt><trkpt lat="42.3917445" lon="11.1237408"><ele>208.5</ele><time>2026-05-02T09:41:02.559Z</time></trkpt><trkpt lat="42.3916865" lon="11.1238148"><ele>207.0</ele><time>2026-05-02T09:41:03.559Z</time></trkpt><trkpt lat="42.3916392" lon="11.1238768"><ele>207.00000000000003</ele><time>2026-05-02T09:41:04.558Z</time></trkpt><trkpt lat="42.391597" lon="11.1239525"><ele>207.0</ele><time>2026-05-02T09:41:05.56Z</time></trkpt><trkpt lat="42.3915708" lon="11.1240408"><ele>207.0</ele><time>2026-05-02T09:41:06.557Z</time></trkpt><trkpt lat="42.3915579" lon="11.1241376"><ele>207.0</ele><time>2026-05-02T09:41:07.558Z</time></trkpt><trkpt lat="42.3915457" lon="11.1242377"><ele>207.0</ele><time>2026-05-02T09:41:08.558Z</time></trkpt><trkpt lat="42.3915315" lon="11.1243331"><ele>207.00000000000003</ele><time>2026-05-02T09:41:09.559Z</time></trkpt><trkpt lat="42.3915241" lon="11.1244331"><ele>207.0</ele><time>2026-05-02T09:41:10.558Z</time></trkpt><trkpt lat="42.3915139" lon="11.1245282"><ele>206.85714285714286</ele><time>2026-05-02T09:41:11.558Z</time></trkpt><trkpt lat="42.3914946" lon="11.1246202"><ele>206.71428571428572</ele><time>2026-05-02T09:41:12.558Z</time></trkpt><trkpt lat="42.3914628" lon="11.1247066"><ele>206.57142857142856</ele><time>2026-05-02T09:41:13.558Z</time></trkpt><trkpt lat="42.3914319" lon="11.1247963"><ele>206.42857142857144</ele><time>2026-05-02T09:41:14.559Z</time></trkpt><trkpt lat="42.3914028" lon="11.1248834"><ele>206.28571428571428</ele><time>2026-05-02T09:41:15.558Z</time></trkpt><trkpt lat="42.3913751" lon="11.1249801"><ele>206.14285714285714</ele><time>2026-05-02T09:41:16.558Z</time></trkpt><trkpt lat="42.3913481" lon="11.1250763"><ele>206.0</ele><time>2026-05-02T09:41:17.557Z</time></trkpt><trkpt lat="42.3913153" lon="11.1251758"><ele>202.00000000000003</ele><time>2026-05-02T09:41:18.558Z</time></trkpt><trkpt lat="42.3912731" lon="11.1252785"><ele>198.0</ele><time>2026-05-02T09:41:19.558Z</time></trkpt><trkpt lat="42.3912262" lon="11.1253827"><ele>194.0</ele><time>2026-05-02T09:41:20.559Z</time></trkpt><trkpt lat="42.391177" lon="11.1254874"><ele>190.0</ele><time>2026-05-02T09:41:21.558Z</time></trkpt><trkpt lat="42.3911258" lon="11.1255858"><ele>186.0</ele><time>2026-05-02T09:41:22.559Z</time></trkpt><trkpt lat="42.3910759" lon="11.1256768"><ele>182.0</ele><time>2026-05-02T09:41:23.559Z</time></trkpt><trkpt lat="42.3910232" lon="11.125763"><ele>182.0</ele><time>2026-05-02T09:41:24.557Z</time></trkpt><trkpt lat="42.3909701" lon="11.1258315"><ele>182.0</ele><time>2026-05-02T09:41:25.557Z</time></trkpt><trkpt lat="42.3909112" lon="11.1258894"><ele>182.0</ele><time>2026-05-02T09:41:26.557Z</time></trkpt><trkpt lat="42.3908466" lon="11.125913"><ele>182.0</ele><time>2026-05-02T09:41:27.557Z</time></trkpt><trkpt lat="42.390781" lon="11.1259376"><ele>182.0</ele><time>2026-05-02T09:41:28.558Z</time></trkpt><trkpt lat="42.3907157" lon="11.125946"><ele>182.0</ele><time>2026-05-02T09:41:30.557Z</time></trkpt><trkpt lat="42.3906423" lon="11.1259794"><ele>182.0</ele><time>2026-05-02T09:42:01.557Z</time></trkpt><trkpt lat="42.3905704" lon="11.1260149"><ele>176.16666666666666</ele><time>2026-05-02T09:42:05.558Z</time></trkpt><trkpt lat="42.3905042" lon="11.1260471"><ele>170.33333333333331</ele><time>2026-05-02T09:42:08.557Z</time></trkpt><trkpt lat="42.3904209" lon="11.1261614"><ele>164.5</ele><time>2026-05-02T09:42:42.558Z</time></trkpt><trkpt lat="42.3903853" lon="11.126244"><ele>158.66666666666666</ele><time>2026-05-02T09:42:43.557Z</time></trkpt><trkpt lat="42.3903557" lon="11.1263334"><ele>152.83333333333334</ele><time>2026-05-02T09:42:44.558Z</time></trkpt><trkpt lat="42.3903404" lon="11.1264414"><ele>147.0</ele><time>2026-05-02T09:42:45.557Z</time></trkpt><trkpt lat="42.390338" lon="11.1265522"><ele>150.33333333333334</ele><time>2026-05-02T09:42:46.557Z</time></trkpt><trkpt lat="42.3903342" lon="11.1266468"><ele>153.66666666666666</ele><time>2026-05-02T09:42:47.558Z</time></trkpt><trkpt lat="42.3903246" lon="11.1267361"><ele>157.0</ele><time>2026-05-02T09:42:48.557Z</time></trkpt><trkpt lat="42.3903037" lon="11.1268368"><ele>160.33333333333331</ele><time>2026-05-02T09:42:49.558Z</time></trkpt><trkpt lat="42.3902846" lon="11.1269516"><ele>163.66666666666666</ele><time>2026-05-02T09:42:50.557Z</time></trkpt><trkpt lat="42.3902634" lon="11.127053"><ele>167.0</ele><time>2026-05-02T09:42:51.558Z</time></trkpt><trkpt lat="42.3902539" lon="11.1271496"><ele>167.0</ele><time>2026-05-02T09:42:52.558Z</time></trkpt><trkpt lat="42.3902374" lon="11.1272375"><ele>167.0</ele><time>2026-05-02T09:42:53.557Z</time></trkpt><trkpt lat="42.3902056" lon="11.127347"><ele>167.0</ele><time>2026-05-02T09:42:55.558Z</time></trkpt><trkpt lat="42.390168" lon="11.1274221"><ele>167.0</ele><time>2026-05-02T09:42:58.558Z</time></trkpt><trkpt lat="42.3901162" lon="11.127472"><ele>167.0</ele><time>2026-05-02T09:43:00.557Z</time></trkpt><trkpt lat="42.3900502" lon="11.1275315"><ele>167.0</ele><time>2026-05-02T09:43:02.558Z</time></trkpt><trkpt lat="42.3899935" lon="11.1275775"><ele>167.0</ele><time>2026-05-02T09:43:04.557Z</time></trkpt><trkpt lat="42.3898898" lon="11.1276376"><ele>165.66666666666666</ele><time>2026-05-02T09:43:24.557Z</time></trkpt><trkpt lat="42.3897681" lon="11.1276834"><ele>164.33333333333331</ele><time>2026-05-02T09:43:26.558Z</time></trkpt><trkpt lat="42.3896954" lon="11.1277137"><ele>163.0</ele><time>2026-05-02T09:43:27.558Z</time></trkpt><trkpt lat="42.3896233" lon="11.1277495"><ele>161.66666666666666</ele><time>2026-05-02T09:43:28.558Z</time></trkpt><trkpt lat="42.3895589" lon="11.1277778"><ele>160.33333333333334</ele><time>2026-05-02T09:43:29.559Z</time></trkpt><trkpt lat="42.3894959" lon="11.1278036"><ele>159.0</ele><time>2026-05-02T09:43:30.557Z</time></trkpt><trkpt lat="42.3894232" lon="11.1278122"><ele>159.0</ele><time>2026-05-02T09:43:31.558Z</time></trkpt><trkpt lat="42.3893512" lon="11.1278013"><ele>159.0</ele><time>2026-05-02T09:43:32.557Z</time></trkpt><trkpt lat="42.389278" lon="11.1277816"><ele>159.0</ele><time>2026-05-02T09:43:33.557Z</time></trkpt><trkpt lat="42.3892078" lon="11.1277471"><ele>159.0</ele><time>2026-05-02T09:43:34.559Z</time></trkpt><trkpt lat="42.3891313" lon="11.127706"><ele>159.0</ele><time>2026-05-02T09:43:35.558Z</time></trkpt><trkpt lat="42.3890568" lon="11.1276657"><ele>159.0</ele><time>2026-05-02T09:43:36.558Z</time></trkpt><trkpt lat="42.3889833" lon="11.1276289"><ele>159.0</ele><time>2026-05-02T09:43:37.557Z</time></trkpt><trkpt lat="42.388904" lon="11.1276109"><ele>159.0</ele><time>2026-05-02T09:43:38.557Z</time></trkpt><trkpt lat="42.3888199" lon="11.1276024"><ele>159.0</ele><time>2026-05-02T09:43:39.556Z</time></trkpt><trkpt lat="42.388742" lon="11.127606"><ele>159.0</ele><time>2026-05-02T09:43:40.559Z</time></trkpt><trkpt lat="42.3886627" lon="11.127608"><ele>159.0</ele><time>2026-05-02T09:43:41.559Z</time></trkpt><trkpt lat="42.3885781" lon="11.1276074"><ele>159.0</ele><time>2026-05-02T09:43:42.557Z</time></trkpt><trkpt lat="42.3884934" lon="11.1275949"><ele>156.5</ele><time>2026-05-02T09:43:43.558Z</time></trkpt><trkpt lat="42.3884138" lon="11.127581"><ele>154.0</ele><time>2026-05-02T09:43:44.557Z</time></trkpt><trkpt lat="42.38834" lon="11.1275672"><ele>151.5</ele><time>2026-05-02T09:43:45.558Z</time></trkpt><trkpt lat="42.388221" lon="11.1275518"><ele>149.0</ele><time>2026-05-02T09:43:47.558Z</time></trkpt><trkpt lat="42.3881569" lon="11.1275004"><ele>146.5</ele><time>2026-05-02T09:43:49.559Z</time></trkpt><trkpt lat="42.3881788" lon="11.1274122"><ele>144.0</ele><time>2026-05-02T09:43:51.558Z</time></trkpt><trkpt lat="42.3883002" lon="11.1273784"><ele>140.16666666666666</ele><time>2026-05-02T09:43:53.559Z</time></trkpt><trkpt lat="42.3883774" lon="11.1273766"><ele>136.33333333333334</ele><time>2026-05-02T09:43:54.558Z</time></trkpt><trkpt lat="42.3884685" lon="11.1273885"><ele>132.5</ele><time>2026-05-02T09:43:55.556Z</time></trkpt><trkpt lat="42.3885493" lon="11.1273919"><ele>128.66666666666669</ele><time>2026-05-02T09:43:56.558Z</time></trkpt><trkpt lat="42.3886244" lon="11.1273886"><ele>124.83333333333334</ele><time>2026-05-02T09:43:57.556Z</time></trkpt><trkpt lat="42.3886976" lon="11.1273784"><ele>121.0</ele><time>2026-05-02T09:43:58.557Z</time></trkpt><trkpt lat="42.3887608" lon="11.1273704"><ele>121.0</ele><time>2026-05-02T09:43:59.558Z</time></trkpt><trkpt lat="42.38887" lon="11.1273517"><ele>121.0</ele><time>2026-05-02T09:44:01.557Z</time></trkpt><trkpt lat="42.3889162" lon="11.12727"><ele>121.0</ele><time>2026-05-02T09:44:03.557Z</time></trkpt><trkpt lat="42.388866" lon="11.1271894"><ele>121.0</ele><time>2026-05-02T09:44:05.557Z</time></trkpt><trkpt lat="42.3887363" lon="11.1271711"><ele>121.0</ele><time>2026-05-02T09:44:07.557Z</time></trkpt><trkpt lat="42.3886638" lon="11.1271512"><ele>121.00000000000001</ele><time>2026-05-02T09:44:08.556Z</time></trkpt><trkpt lat="42.3885923" lon="11.127106"><ele>121.0</ele><time>2026-05-02T09:44:09.556Z</time></trkpt><trkpt lat="42.3885264" lon="11.1270485"><ele>121.0</ele><time>2026-05-02T09:44:10.56Z</time></trkpt><trkpt lat="42.3884647" lon="11.1269844"><ele>121.0</ele><time>2026-05-02T09:44:11.557Z</time></trkpt><trkpt lat="42.3884107" lon="11.1269185"><ele>121.00000000000001</ele><time>2026-05-02T09:44:12.557Z</time></trkpt><trkpt lat="42.3883225" lon="11.1268207"><ele>121.0</ele><time>2026-05-02T09:44:14.557Z</time></trkpt><trkpt lat="42.3883578" lon="11.1267165"><ele>121.00000000000001</ele><time>2026-05-02T09:44:17.557Z</time></trkpt><trkpt lat="42.3884787" lon="11.1266857"><ele>121.0</ele><time>2026-05-02T09:44:19.557Z</time></trkpt><trkpt lat="42.3885534" lon="11.1266657"><ele>121.0</ele><time>2026-05-02T09:44:20.557Z</time></trkpt><trkpt lat="42.3886193" lon="11.1266499"><ele>121.0</ele><time>2026-05-02T09:44:21.557Z</time></trkpt><trkpt lat="42.3886808" lon="11.1266235"><ele>121.00000000000001</ele><time>2026-05-02T09:44:22.557Z</time></trkpt><trkpt lat="42.3887363" lon="11.126523"><ele>121.0</ele><time>2026-05-02T09:44:24.558Z</time></trkpt><trkpt lat="42.388672" lon="11.1264246"><ele>116.16666666666667</ele><time>2026-05-02T09:44:26.558Z</time></trkpt><trkpt lat="42.388603" lon="11.1264066"><ele>111.33333333333334</ele><time>2026-05-02T09:44:27.558Z</time></trkpt><trkpt lat="42.3885296" lon="11.1263812"><ele>106.5</ele><time>2026-05-02T09:44:28.557Z</time></trkpt><trkpt lat="42.3884558" lon="11.1263475"><ele>101.66666666666667</ele><time>2026-05-02T09:44:29.556Z</time></trkpt><trkpt lat="42.3883813" lon="11.1263094"><ele>96.83333333333334</ele><time>2026-05-02T09:44:30.556Z</time></trkpt><trkpt lat="42.3883058" lon="11.1262701"><ele>92.0</ele><time>2026-05-02T09:44:31.557Z</time></trkpt><trkpt lat="42.3882119" lon="11.1262437"><ele>92.0</ele><time>2026-05-02T09:44:33.556Z</time></trkpt><trkpt lat="42.3881377" lon="11.1263002"><ele>92.0</ele><time>2026-05-02T09:44:35.556Z</time></trkpt><trkpt lat="42.3881091" lon="11.1263766"><ele>92.0</ele><time>2026-05-02T09:44:36.557Z</time></trkpt><trkpt lat="42.3880829" lon="11.1264699"><ele>92.0</ele><time>2026-05-02T09:44:37.556Z</time></trkpt><trkpt lat="42.3880433" lon="11.1265597"><ele>92.0</ele><time>2026-05-02T09:44:38.557Z</time></trkpt><trkpt lat="42.3879886" lon="11.1266317"><ele>92.0</ele><time>2026-05-02T09:44:39.556Z</time></trkpt><trkpt lat="42.3879197" lon="11.1266889"><ele>92.0</ele><time>2026-05-02T09:44:40.557Z</time></trkpt><trkpt lat="42.3878461" lon="11.1267477"><ele>92.0</ele><time>2026-05-02T09:44:41.556Z</time></trkpt><trkpt lat="42.3877707" lon="11.1268099"><ele>92.0</ele><time>2026-05-02T09:44:42.556Z</time></trkpt><trkpt lat="42.3876996" lon="11.1268806"><ele>92.0</ele><time>2026-05-02T09:44:43.557Z</time></trkpt><trkpt lat="42.3876494" lon="11.1269641"><ele>92.0</ele><time>2026-05-02T09:44:44.557Z</time></trkpt><trkpt lat="42.3876036" lon="11.1270606"><ele>92.0</ele><time>2026-05-02T09:44:45.557Z</time></trkpt><trkpt lat="42.3875741" lon="11.1271796"><ele>92.0</ele><time>2026-05-02T09:44:46.556Z</time></trkpt><trkpt lat="42.3875472" lon="11.1272957"><ele>92.0</ele><time>2026-05-02T09:44:47.557Z</time></trkpt><trkpt lat="42.3875263" lon="11.1274197"><ele>92.0</ele><time>2026-05-02T09:44:48.559Z</time></trkpt><trkpt lat="42.3875117" lon="11.1275504"><ele>92.0</ele><time>2026-05-02T09:44:49.558Z</time></trkpt><trkpt lat="42.3875065" lon="11.1276807"><ele>92.0</ele><time>2026-05-02T09:44:50.558Z</time></trkpt><trkpt lat="42.387502" lon="11.1278088"><ele>94.5</ele><time>2026-05-02T09:44:51.557Z</time></trkpt><trkpt lat="42.3875126" lon="11.1279283"><ele>97.0</ele><time>2026-05-02T09:44:52.559Z</time></trkpt><trkpt lat="42.3875271" lon="11.1280291"><ele>99.5</ele><time>2026-05-02T09:44:53.556Z</time></trkpt><trkpt lat="42.387524" lon="11.1281359"><ele>102.0</ele><time>2026-05-02T09:44:54.558Z</time></trkpt><trkpt lat="42.3874898" lon="11.1282393"><ele>104.49999999999999</ele><time>2026-05-02T09:44:55.557Z</time></trkpt><trkpt lat="42.3874546" lon="11.128344"><ele>107.0</ele><time>2026-05-02T09:44:56.562Z</time></trkpt><trkpt lat="42.3874098" lon="11.1284793"><ele>107.99999999999999</ele><time>2026-05-02T09:44:57.556Z</time></trkpt><trkpt lat="42.3873817" lon="11.1285991"><ele>109.0</ele><time>2026-05-02T09:44:58.557Z</time></trkpt><trkpt lat="42.3873557" lon="11.1287165"><ele>110.0</ele><time>2026-05-02T09:44:59.557Z</time></trkpt><trkpt lat="42.3873252" lon="11.1288215"><ele>111.0</ele><time>2026-05-02T09:45:00.556Z</time></trkpt><trkpt lat="42.3872816" lon="11.12892"><ele>111.99999999999999</ele><time>2026-05-02T09:45:01.557Z</time></trkpt><trkpt lat="42.3872268" lon="11.1290187"><ele>113.0</ele><time>2026-05-02T09:45:02.557Z</time></trkpt><trkpt lat="42.3871703" lon="11.1291158"><ele>107.66666666666666</ele><time>2026-05-02T09:45:03.557Z</time></trkpt><trkpt lat="42.3871242" lon="11.1292195"><ele>102.33333333333333</ele><time>2026-05-02T09:45:04.557Z</time></trkpt><trkpt lat="42.3870851" lon="11.1293249"><ele>97.0</ele><time>2026-05-02T09:45:05.557Z</time></trkpt><trkpt lat="42.3870607" lon="11.129441"><ele>91.66666666666666</ele><time>2026-05-02T09:45:06.556Z</time></trkpt><trkpt lat="42.3870373" lon="11.1295616"><ele>86.33333333333333</ele><time>2026-05-02T09:45:07.558Z</time></trkpt><trkpt lat="42.3870212" lon="11.1296739"><ele>81.0</ele><time>2026-05-02T09:45:08.557Z</time></trkpt><trkpt lat="42.3870096" lon="11.1297825"><ele>81.0</ele><time>2026-05-02T09:45:09.557Z</time></trkpt><trkpt lat="42.3869982" lon="11.1298805"><ele>81.0</ele><time>2026-05-02T09:45:10.556Z</time></trkpt><trkpt lat="42.3869839" lon="11.1299799"><ele>81.0</ele><time>2026-05-02T09:45:11.558Z</time></trkpt><trkpt lat="42.3869635" lon="11.1300755"><ele>81.0</ele><time>2026-05-02T09:45:12.557Z</time></trkpt><trkpt lat="42.3869254" lon="11.1301691"><ele>81.0</ele><time>2026-05-02T09:45:13.558Z</time></trkpt><trkpt lat="42.386873" lon="11.1302524"><ele>81.0</ele><time>2026-05-02T09:45:14.556Z</time></trkpt><trkpt lat="42.3868189" lon="11.1303449"><ele>81.8</ele><time>2026-05-02T09:45:15.556Z</time></trkpt><trkpt lat="42.3867774" lon="11.1304545"><ele>82.6</ele><time>2026-05-02T09:45:16.556Z</time></trkpt><trkpt lat="42.3867412" lon="11.1305831"><ele>83.4</ele><time>2026-05-02T09:45:17.557Z</time></trkpt><trkpt lat="42.3867098" lon="11.1307193"><ele>84.2</ele><time>2026-05-02T09:45:18.557Z</time></trkpt><trkpt lat="42.3866757" lon="11.1308575"><ele>85.0</ele><time>2026-05-02T09:45:19.557Z</time></trkpt><trkpt lat="42.3866379" lon="11.1309979"><ele>86.6</ele><time>2026-05-02T09:45:20.557Z</time></trkpt><trkpt lat="42.3865968" lon="11.1311373"><ele>88.2</ele><time>2026-05-02T09:45:21.559Z</time></trkpt><trkpt lat="42.3865564" lon="11.1312627"><ele>89.80000000000001</ele><time>2026-05-02T09:45:22.556Z</time></trkpt><trkpt lat="42.3865168" lon="11.1313876"><ele>91.4</ele><time>2026-05-02T09:45:23.557Z</time></trkpt><trkpt lat="42.3864597" lon="11.1314778"><ele>93.0</ele><time>2026-05-02T09:45:24.559Z</time></trkpt><trkpt lat="42.3863973" lon="11.1315735"><ele>90.0</ele><time>2026-05-02T09:45:25.557Z</time></trkpt><trkpt lat="42.3863124" lon="11.1316553"><ele>87.0</ele><time>2026-05-02T09:45:26.557Z</time></trkpt><trkpt lat="42.3862316" lon="11.1317424"><ele>84.0</ele><time>2026-05-02T09:45:27.556Z</time></trkpt><trkpt lat="42.3861481" lon="11.1318398"><ele>81.0</ele><time>2026-05-02T09:45:28.556Z</time></trkpt><trkpt lat="42.38607" lon="11.1319443"><ele>78.0</ele><time>2026-05-02T09:45:29.556Z</time></trkpt><trkpt lat="42.3859921" lon="11.1320393"><ele>78.0</ele><time>2026-05-02T09:45:30.558Z</time></trkpt><trkpt lat="42.385913" lon="11.1321264"><ele>78.0</ele><time>2026-05-02T09:45:31.556Z</time></trkpt><trkpt lat="42.3858243" lon="11.1321784"><ele>78.0</ele><time>2026-05-02T09:45:32.556Z</time></trkpt><trkpt lat="42.3857407" lon="11.1322043"><ele>78.0</ele><time>2026-05-02T09:45:33.557Z</time></trkpt><trkpt lat="42.3856513" lon="11.1322012"><ele>78.0</ele><time>2026-05-02T09:45:34.558Z</time></trkpt><trkpt lat="42.3855745" lon="11.1322061"><ele>78.0</ele><time>2026-05-02T09:45:35.557Z</time></trkpt><trkpt lat="42.3855026" lon="11.1322341"><ele>78.0</ele><time>2026-05-02T09:45:36.557Z</time></trkpt><trkpt lat="42.3854411" lon="11.1322919"><ele>78.0</ele><time>2026-05-02T09:45:37.558Z</time></trkpt><trkpt lat="42.3853876" lon="11.132377"><ele>78.0</ele><time>2026-05-02T09:45:38.557Z</time></trkpt><trkpt lat="42.385331" lon="11.1324794"><ele>78.0</ele><time>2026-05-02T09:45:39.557Z</time></trkpt><trkpt lat="42.3852643" lon="11.1325839"><ele>78.0</ele><time>2026-05-02T09:45:40.558Z</time></trkpt><trkpt lat="42.385191" lon="11.1326748"><ele>78.0</ele><time>2026-05-02T09:45:41.556Z</time></trkpt><trkpt lat="42.3851269" lon="11.1327629"><ele>78.0</ele><time>2026-05-02T09:45:42.557Z</time></trkpt><trkpt lat="42.3850733" lon="11.132842"><ele>78.0</ele><time>2026-05-02T09:45:43.557Z</time></trkpt><trkpt lat="42.3850265" lon="11.1329407"><ele>78.0</ele><time>2026-05-02T09:45:44.557Z</time></trkpt><trkpt lat="42.3849869" lon="11.1330477"><ele>78.0</ele><time>2026-05-02T09:45:45.556Z</time></trkpt><trkpt lat="42.3849456" lon="11.1331562"><ele>78.0</ele><time>2026-05-02T09:45:46.556Z</time></trkpt><trkpt lat="42.3848958" lon="11.1332528"><ele>78.6</ele><time>2026-05-02T09:45:47.557Z</time></trkpt><trkpt lat="42.3848362" lon="11.1333342"><ele>79.19999999999999</ele><time>2026-05-02T09:45:48.556Z</time></trkpt><trkpt lat="42.3847598" lon="11.1333979"><ele>79.8</ele><time>2026-05-02T09:45:49.558Z</time></trkpt><trkpt lat="42.3846766" lon="11.1334491"><ele>80.39999999999999</ele><time>2026-05-02T09:45:50.557Z</time></trkpt><trkpt lat="42.3845864" lon="11.1335011"><ele>81.0</ele><time>2026-05-02T09:45:51.556Z</time></trkpt><trkpt lat="42.3844908" lon="11.1335475"><ele>81.0</ele><time>2026-05-02T09:45:52.556Z</time></trkpt><trkpt lat="42.3843851" lon="11.1335846"><ele>81.0</ele><time>2026-05-02T09:45:53.557Z</time></trkpt><trkpt lat="42.3842772" lon="11.1336161"><ele>81.0</ele><time>2026-05-02T09:45:54.556Z</time></trkpt><trkpt lat="42.3841705" lon="11.1336492"><ele>81.0</ele><time>2026-05-02T09:45:55.557Z</time></trkpt><trkpt lat="42.3840644" lon="11.1336742"><ele>81.0</ele><time>2026-05-02T09:45:56.556Z</time></trkpt><trkpt lat="42.3839619" lon="11.1336929"><ele>81.0</ele><time>2026-05-02T09:45:57.556Z</time></trkpt><trkpt lat="42.383859" lon="11.1336799"><ele>81.0</ele><time>2026-05-02T09:45:58.556Z</time></trkpt><trkpt lat="42.3837637" lon="11.1336423"><ele>81.0</ele><time>2026-05-02T09:45:59.557Z</time></trkpt><trkpt lat="42.3836797" lon="11.133588"><ele>81.0</ele><time>2026-05-02T09:46:00.557Z</time></trkpt><trkpt lat="42.3836152" lon="11.1335055"><ele>81.0</ele><time>2026-05-02T09:46:01.556Z</time></trkpt><trkpt lat="42.383561" lon="11.1334084"><ele>82.6</ele><time>2026-05-02T09:46:02.557Z</time></trkpt><trkpt lat="42.3835057" lon="11.1332967"><ele>84.19999999999999</ele><time>2026-05-02T09:46:03.556Z</time></trkpt><trkpt lat="42.3834443" lon="11.1331781"><ele>85.80000000000001</ele><time>2026-05-02T09:46:04.557Z</time></trkpt><trkpt lat="42.383385" lon="11.1330713"><ele>87.4</ele><time>2026-05-02T09:46:05.558Z</time></trkpt><trkpt lat="42.3833212" lon="11.1329912"><ele>89.0</ele><time>2026-05-02T09:46:06.557Z</time></trkpt><trkpt lat="42.3832539" lon="11.1329292"><ele>83.2</ele><time>2026-05-02T09:46:07.556Z</time></trkpt><trkpt lat="42.383178" lon="11.1329105"><ele>77.4</ele><time>2026-05-02T09:46:08.558Z</time></trkpt><trkpt lat="42.3831021" lon="11.1329191"><ele>71.6</ele><time>2026-05-02T09:46:09.559Z</time></trkpt><trkpt lat="42.3830234" lon="11.1329703"><ele>65.8</ele><time>2026-05-02T09:46:10.557Z</time></trkpt><trkpt lat="42.3829327" lon="11.1330385"><ele>60.0</ele><time>2026-05-02T09:46:11.565Z</time></trkpt><trkpt lat="42.382832" lon="11.1331284"><ele>59.2</ele><time>2026-05-02T09:46:12.558Z</time></trkpt><trkpt lat="42.3827288" lon="11.1332079"><ele>58.4</ele><time>2026-05-02T09:46:13.557Z</time></trkpt><trkpt lat="42.38263" lon="11.1332873"><ele>57.599999999999994</ele><time>2026-05-02T09:46:14.556Z</time></trkpt><trkpt lat="42.3825352" lon="11.1333579"><ele>56.8</ele><time>2026-05-02T09:46:15.557Z</time></trkpt><trkpt lat="42.3824412" lon="11.1334273"><ele>56.0</ele><time>2026-05-02T09:46:16.562Z</time></trkpt><trkpt lat="42.3823585" lon="11.1334891"><ele>60.599999999999994</ele><time>2026-05-02T09:46:17.556Z</time></trkpt><trkpt lat="42.3822861" lon="11.1335602"><ele>65.19999999999999</ele><time>2026-05-02T09:46:18.558Z</time></trkpt><trkpt lat="42.3822107" lon="11.1336441"><ele>69.80000000000001</ele><time>2026-05-02T09:46:19.561Z</time></trkpt><trkpt lat="42.3821304" lon="11.1337347"><ele>74.4</ele><time>2026-05-02T09:46:20.562Z</time></trkpt><trkpt lat="42.382051" lon="11.1338344"><ele>79.0</ele><time>2026-05-02T09:46:21.561Z</time></trkpt><trkpt lat="42.3819717" lon="11.1339389"><ele>79.0</ele><time>2026-05-02T09:46:22.559Z</time></trkpt><trkpt lat="42.3818852" lon="11.1340466"><ele>79.0</ele><time>2026-05-02T09:46:23.561Z</time></trkpt><trkpt lat="42.381806" lon="11.1341552"><ele>79.0</ele><time>2026-05-02T09:46:24.56Z</time></trkpt><trkpt lat="42.3817311" lon="11.1342731"><ele>79.0</ele><time>2026-05-02T09:46:25.56Z</time></trkpt><trkpt lat="42.3816576" lon="11.1343802"><ele>80.4</ele><time>2026-05-02T09:46:26.559Z</time></trkpt><trkpt lat="42.3815852" lon="11.1344827"><ele>81.80000000000001</ele><time>2026-05-02T09:46:27.556Z</time></trkpt><trkpt lat="42.3815172" lon="11.1345972"><ele>83.19999999999999</ele><time>2026-05-02T09:46:28.556Z</time></trkpt><trkpt lat="42.3814486" lon="11.1346953"><ele>84.6</ele><time>2026-05-02T09:46:29.556Z</time></trkpt><trkpt lat="42.381384" lon="11.1347886"><ele>86.0</ele><time>2026-05-02T09:46:30.562Z</time></trkpt><trkpt lat="42.3813157" lon="11.134882"><ele>83.8</ele><time>2026-05-02T09:46:31.557Z</time></trkpt><trkpt lat="42.3812514" lon="11.1349943"><ele>81.6</ele><time>2026-05-02T09:46:32.558Z</time></trkpt><trkpt lat="42.3811868" lon="11.1351018"><ele>79.4</ele><time>2026-05-02T09:46:33.557Z</time></trkpt><trkpt lat="42.3811187" lon="11.1352107"><ele>77.2</ele><time>2026-05-02T09:46:34.556Z</time></trkpt><trkpt lat="42.3810483" lon="11.1353097"><ele>75.0</ele><time>2026-05-02T09:46:35.557Z</time></trkpt><trkpt lat="42.3809713" lon="11.1354048"><ele>75.0</ele><time>2026-05-02T09:46:36.556Z</time></trkpt><trkpt lat="42.3808922" lon="11.1355022"><ele>75.0</ele><time>2026-05-02T09:46:37.557Z</time></trkpt><trkpt lat="42.3807967" lon="11.135591"><ele>75.0</ele><time>2026-05-02T09:46:38.557Z</time></trkpt><trkpt lat="42.3807093" lon="11.1356756"><ele>75.0</ele><time>2026-05-02T09:46:39.556Z</time></trkpt><trkpt lat="42.3806256" lon="11.1357553"><ele>75.0</ele><time>2026-05-02T09:46:40.556Z</time></trkpt><trkpt lat="42.3805433" lon="11.1358276"><ele>71.71428571428571</ele><time>2026-05-02T09:46:41.563Z</time></trkpt><trkpt lat="42.3804721" lon="11.1358899"><ele>68.42857142857143</ele><time>2026-05-02T09:46:42.559Z</time></trkpt><trkpt lat="42.3804088" lon="11.135957"><ele>65.14285714285714</ele><time>2026-05-02T09:46:43.563Z</time></trkpt><trkpt lat="42.3803501" lon="11.1360141"><ele>61.857142857142854</ele><time>2026-05-02T09:46:44.557Z</time></trkpt><trkpt lat="42.3803006" lon="11.1360732"><ele>58.57142857142857</ele><time>2026-05-02T09:46:45.557Z</time></trkpt><trkpt lat="42.3802543" lon="11.136143"><ele>55.285714285714285</ele><time>2026-05-02T09:46:46.557Z</time></trkpt><trkpt lat="42.380208" lon="11.1362215"><ele>52.0</ele><time>2026-05-02T09:46:47.556Z</time></trkpt><trkpt lat="42.3801813" lon="11.1363037"><ele>52.0</ele><time>2026-05-02T09:46:48.556Z</time></trkpt><trkpt lat="42.3801679" lon="11.1364602"><ele>52.0</ele><time>2026-05-02T09:46:50.555Z</time></trkpt><trkpt lat="42.3802422" lon="11.1365922"><ele>52.0</ele><time>2026-05-02T09:46:52.557Z</time></trkpt><trkpt lat="42.380293" lon="11.1366429"><ele>52.0</ele><time>2026-05-02T09:46:53.557Z</time></trkpt><trkpt lat="42.3803587" lon="11.136673"><ele>52.0</ele><time>2026-05-02T09:46:54.556Z</time></trkpt><trkpt lat="42.3804378" lon="11.1366842"><ele>52.42857142857142</ele><time>2026-05-02T09:46:55.555Z</time></trkpt><trkpt lat="42.3805036" lon="11.1366918"><ele>52.85714285714286</ele><time>2026-05-02T09:46:56.557Z</time></trkpt><trkpt lat="42.3805699" lon="11.1366992"><ele>53.285714285714285</ele><time>2026-05-02T09:46:57.557Z</time></trkpt><trkpt lat="42.380636" lon="11.1367119"><ele>53.71428571428571</ele><time>2026-05-02T09:46:58.557Z</time></trkpt><trkpt lat="42.3807033" lon="11.1367234"><ele>54.14285714285714</ele><time>2026-05-02T09:46:59.556Z</time></trkpt><trkpt lat="42.3807686" lon="11.1367366"><ele>54.57142857142857</ele><time>2026-05-02T09:47:00.556Z</time></trkpt><trkpt lat="42.3808379" lon="11.1367503"><ele>55.0</ele><time>2026-05-02T09:47:01.557Z</time></trkpt><trkpt lat="42.3809068" lon="11.1367662"><ele>58.4</ele><time>2026-05-02T09:47:02.557Z</time></trkpt><trkpt lat="42.3809906" lon="11.1367676"><ele>61.8</ele><time>2026-05-02T09:47:03.556Z</time></trkpt><trkpt lat="42.3810881" lon="11.1367595"><ele>65.2</ele><time>2026-05-02T09:47:04.555Z</time></trkpt><trkpt lat="42.3811893" lon="11.1367535"><ele>68.6</ele><time>2026-05-02T09:47:05.557Z</time></trkpt><trkpt lat="42.3812894" lon="11.1367446"><ele>72.0</ele><time>2026-05-02T09:47:06.556Z</time></trkpt><trkpt lat="42.3814082" lon="11.1367411"><ele>72.0</ele><time>2026-05-02T09:47:07.558Z</time></trkpt><trkpt lat="42.3815196" lon="11.1367361"><ele>72.0</ele><time>2026-05-02T09:47:08.558Z</time></trkpt><trkpt lat="42.3816305" lon="11.1367346"><ele>72.0</ele><time>2026-05-02T09:47:09.558Z</time></trkpt><trkpt lat="42.3817392" lon="11.1367392"><ele>72.0</ele><time>2026-05-02T09:47:10.557Z</time></trkpt><trkpt lat="42.3818222" lon="11.1367705"><ele>72.0</ele><time>2026-05-02T09:47:11.556Z</time></trkpt><trkpt lat="42.3819191" lon="11.1368493"><ele>72.0</ele><time>2026-05-02T09:47:12.558Z</time></trkpt><trkpt lat="42.3820052" lon="11.1369221"><ele>72.0</ele><time>2026-05-02T09:47:13.557Z</time></trkpt><trkpt lat="42.3820826" lon="11.1370013"><ele>72.0</ele><time>2026-05-02T09:47:14.556Z</time></trkpt><trkpt lat="42.3821539" lon="11.137076"><ele>72.0</ele><time>2026-05-02T09:47:15.557Z</time></trkpt><trkpt lat="42.3822247" lon="11.1371536"><ele>72.0</ele><time>2026-05-02T09:47:16.556Z</time></trkpt><trkpt lat="42.3822854" lon="11.1372267"><ele>72.33333333333333</ele><time>2026-05-02T09:47:17.558Z</time></trkpt><trkpt lat="42.3823418" lon="11.1372934"><ele>72.66666666666667</ele><time>2026-05-02T09:47:18.556Z</time></trkpt><trkpt lat="42.3824014" lon="11.1373655"><ele>73.0</ele><time>2026-05-02T09:47:19.555Z</time></trkpt><trkpt lat="42.3824504" lon="11.1374354"><ele>73.33333333333334</ele><time>2026-05-02T09:47:20.555Z</time></trkpt><trkpt lat="42.3824869" lon="11.1375169"><ele>73.66666666666667</ele><time>2026-05-02T09:47:21.556Z</time></trkpt><trkpt lat="42.3824616" lon="11.1376519"><ele>74.0</ele><time>2026-05-02T09:47:23.557Z</time></trkpt><trkpt lat="42.3823788" lon="11.1377582"><ele>72.0</ele><time>2026-05-02T09:47:25.556Z</time></trkpt><trkpt lat="42.3823191" lon="11.1377913"><ele>70.0</ele><time>2026-05-02T09:47:26.557Z</time></trkpt><trkpt lat="42.3822413" lon="11.137815"><ele>68.0</ele><time>2026-05-02T09:47:27.555Z</time></trkpt><trkpt lat="42.3821645" lon="11.1378229"><ele>66.0</ele><time>2026-05-02T09:47:28.556Z</time></trkpt><trkpt lat="42.3820804" lon="11.137834"><ele>64.0</ele><time>2026-05-02T09:47:29.556Z</time></trkpt><trkpt lat="42.381986" lon="11.1378465"><ele>62.0</ele><time>2026-05-02T09:47:30.557Z</time></trkpt><trkpt lat="42.3818848" lon="11.1378617"><ele>60.6</ele><time>2026-05-02T09:47:31.556Z</time></trkpt><trkpt lat="42.3817853" lon="11.1378846"><ele>59.2</ele><time>2026-05-02T09:47:32.556Z</time></trkpt><trkpt lat="42.3816912" lon="11.1379131"><ele>57.8</ele><time>2026-05-02T09:47:33.557Z</time></trkpt><trkpt lat="42.3816024" lon="11.1379462"><ele>56.4</ele><time>2026-05-02T09:47:34.556Z</time></trkpt><trkpt lat="42.3815118" lon="11.1379907"><ele>55.0</ele><time>2026-05-02T09:47:35.556Z</time></trkpt><trkpt lat="42.3814276" lon="11.1380468"><ele>55.0</ele><time>2026-05-02T09:47:36.556Z</time></trkpt><trkpt lat="42.381334" lon="11.1381071"><ele>55.0</ele><time>2026-05-02T09:47:37.558Z</time></trkpt><trkpt lat="42.3812384" lon="11.1381673"><ele>55.0</ele><time>2026-05-02T09:47:38.556Z</time></trkpt><trkpt lat="42.3811413" lon="11.1382102"><ele>55.0</ele><time>2026-05-02T09:47:39.556Z</time></trkpt><trkpt lat="42.3810434" lon="11.1382363"><ele>55.0</ele><time>2026-05-02T09:47:40.558Z</time></trkpt><trkpt lat="42.3809542" lon="11.1382593"><ele>54.99999999999999</ele><time>2026-05-02T09:47:41.556Z</time></trkpt><trkpt lat="42.3808742" lon="11.1382824"><ele>55.0</ele><time>2026-05-02T09:47:42.557Z</time></trkpt><trkpt lat="42.3808062" lon="11.1382998"><ele>55.0</ele><time>2026-05-02T09:47:43.557Z</time></trkpt><trkpt lat="42.3807407" lon="11.1383211"><ele>55.0</ele><time>2026-05-02T09:47:44.556Z</time></trkpt><trkpt lat="42.380678" lon="11.1383532"><ele>54.99999999999999</ele><time>2026-05-02T09:47:45.556Z</time></trkpt><trkpt lat="42.3805553" lon="11.1384105"><ele>55.0</ele><time>2026-05-02T09:47:47.557Z</time></trkpt><trkpt lat="42.380469" lon="11.138445"><ele>52.99999999999999</ele><time>2026-05-02T09:47:48.556Z</time></trkpt><trkpt lat="42.3803899" lon="11.138462"><ele>51.0</ele><time>2026-05-02T09:47:49.556Z</time></trkpt><trkpt lat="42.3803253" lon="11.1384671"><ele>49.0</ele><time>2026-05-02T09:47:50.556Z</time></trkpt><trkpt lat="42.3802545" lon="11.1384655"><ele>47.0</ele><time>2026-05-02T09:47:51.557Z</time></trkpt><trkpt lat="42.3801719" lon="11.138464"><ele>45.0</ele><time>2026-05-02T09:47:52.556Z</time></trkpt><trkpt lat="42.3800777" lon="11.1384655"><ele>43.0</ele><time>2026-05-02T09:47:53.557Z</time></trkpt><trkpt lat="42.3799797" lon="11.1384804"><ele>43.0</ele><time>2026-05-02T09:47:54.555Z</time></trkpt><trkpt lat="42.3798816" lon="11.1385264"><ele>43.0</ele><time>2026-05-02T09:47:55.556Z</time></trkpt><trkpt lat="42.3797742" lon="11.1385921"><ele>43.0</ele><time>2026-05-02T09:47:56.556Z</time></trkpt><trkpt lat="42.3796537" lon="11.1386746"><ele>43.0</ele><time>2026-05-02T09:47:57.557Z</time></trkpt><trkpt lat="42.3795107" lon="11.1387757"><ele>44.0</ele><time>2026-05-02T09:47:58.557Z</time></trkpt><trkpt lat="42.3793706" lon="11.1388981"><ele>45.0</ele><time>2026-05-02T09:47:59.556Z</time></trkpt><trkpt lat="42.3792508" lon="11.1390136"><ele>46.0</ele><time>2026-05-02T09:48:00.555Z</time></trkpt><trkpt lat="42.3791375" lon="11.139118"><ele>46.0</ele><time>2026-05-02T09:48:01.558Z</time></trkpt><trkpt lat="42.3790436" lon="11.1392143"><ele>46.0</ele><time>2026-05-02T09:48:02.557Z</time></trkpt><trkpt lat="42.3789534" lon="11.1393086"><ele>46.0</ele><time>2026-05-02T09:48:03.557Z</time></trkpt><trkpt lat="42.3788743" lon="11.1393973"><ele>46.0</ele><time>2026-05-02T09:48:04.557Z</time></trkpt><trkpt lat="42.3788099" lon="11.1394859"><ele>46.0</ele><time>2026-05-02T09:48:05.556Z</time></trkpt><trkpt lat="42.3787641" lon="11.139574"><ele>43.85714285714286</ele><time>2026-05-02T09:48:06.558Z</time></trkpt><trkpt lat="42.3787324" lon="11.1396728"><ele>41.71428571428571</ele><time>2026-05-02T09:48:07.556Z</time></trkpt><trkpt lat="42.3787103" lon="11.1397717"><ele>39.57142857142857</ele><time>2026-05-02T09:48:08.557Z</time></trkpt><trkpt lat="42.378695" lon="11.139865"><ele>37.42857142857143</ele><time>2026-05-02T09:48:09.556Z</time></trkpt><trkpt lat="42.3786985" lon="11.1399621"><ele>35.28571428571429</ele><time>2026-05-02T09:48:10.557Z</time></trkpt><trkpt lat="42.3787002" lon="11.1400502"><ele>33.142857142857146</ele><time>2026-05-02T09:48:11.557Z</time></trkpt><trkpt lat="42.3787516" lon="11.1401076"><ele>31.0</ele><time>2026-05-02T09:48:12.556Z</time></trkpt><trkpt lat="42.3788195" lon="11.1401638"><ele>36.5</ele><time>2026-05-02T09:48:13.556Z</time></trkpt><trkpt lat="42.3789142" lon="11.1401885"><ele>42.0</ele><time>2026-05-02T09:48:14.556Z</time></trkpt><trkpt lat="42.3790312" lon="11.1402049"><ele>47.5</ele><time>2026-05-02T09:48:15.555Z</time></trkpt><trkpt lat="42.3791784" lon="11.140229"><ele>53.0</ele><time>2026-05-02T09:48:16.556Z</time></trkpt><trkpt lat="42.3793128" lon="11.1402687"><ele>53.0</ele><time>2026-05-02T09:48:17.556Z</time></trkpt><trkpt lat="42.3794318" lon="11.1403356"><ele>53.0</ele><time>2026-05-02T09:48:18.556Z</time></trkpt><trkpt lat="42.3795564" lon="11.1404263"><ele>53.0</ele><time>2026-05-02T09:48:19.555Z</time></trkpt><trkpt lat="42.3796652" lon="11.1405068"><ele>53.0</ele><time>2026-05-02T09:48:20.557Z</time></trkpt><trkpt lat="42.3797699" lon="11.1405816"><ele>51.8</ele><time>2026-05-02T09:48:21.557Z</time></trkpt><trkpt lat="42.3798582" lon="11.1406538"><ele>50.599999999999994</ele><time>2026-05-02T09:48:22.556Z</time></trkpt><trkpt lat="42.3799555" lon="11.1407112"><ele>49.400000000000006</ele><time>2026-05-02T09:48:23.556Z</time></trkpt><trkpt lat="42.3800501" lon="11.1407547"><ele>48.2</ele><time>2026-05-02T09:48:24.558Z</time></trkpt><trkpt lat="42.3801533" lon="11.1407902"><ele>47.0</ele><time>2026-05-02T09:48:25.555Z</time></trkpt><trkpt lat="42.3802693" lon="11.1408131"><ele>47.0</ele><time>2026-05-02T09:48:26.556Z</time></trkpt><trkpt lat="42.3803965" lon="11.1408063"><ele>47.0</ele><time>2026-05-02T09:48:27.557Z</time></trkpt><trkpt lat="42.3805126" lon="11.140807"><ele>47.0</ele><time>2026-05-02T09:48:28.556Z</time></trkpt><trkpt lat="42.3806104" lon="11.1407972"><ele>47.0</ele><time>2026-05-02T09:48:29.558Z</time></trkpt><trkpt lat="42.3807111" lon="11.1407991"><ele>47.0</ele><time>2026-05-02T09:48:30.556Z</time></trkpt><trkpt lat="42.3807985" lon="11.1408087"><ele>47.0</ele><time>2026-05-02T09:48:31.556Z</time></trkpt><trkpt lat="42.3808772" lon="11.1408322"><ele>47.0</ele><time>2026-05-02T09:48:32.557Z</time></trkpt><trkpt lat="42.3809627" lon="11.1408782"><ele>47.0</ele><time>2026-05-02T09:48:33.556Z</time></trkpt><trkpt lat="42.3810442" lon="11.1409374"><ele>47.0</ele><time>2026-05-02T09:48:34.556Z</time></trkpt><trkpt lat="42.3811167" lon="11.1409998"><ele>47.0</ele><time>2026-05-02T09:48:35.556Z</time></trkpt><trkpt lat="42.381195" lon="11.1410486"><ele>47.0</ele><time>2026-05-02T09:48:36.556Z</time></trkpt><trkpt lat="42.3812744" lon="11.1410943"><ele>49.0</ele><time>2026-05-02T09:48:37.555Z</time></trkpt><trkpt lat="42.3813739" lon="11.1411269"><ele>51.0</ele><time>2026-05-02T09:48:38.555Z</time></trkpt><trkpt lat="42.3814776" lon="11.1411465"><ele>53.0</ele><time>2026-05-02T09:48:39.556Z</time></trkpt><trkpt lat="42.381568" lon="11.1411551"><ele>55.0</ele><time>2026-05-02T09:48:40.558Z</time></trkpt><trkpt lat="42.3816461" lon="11.1411677"><ele>57.0</ele><time>2026-05-02T09:48:41.557Z</time></trkpt><trkpt lat="42.3817343" lon="11.1411894"><ele>57.0</ele><time>2026-05-02T09:48:42.555Z</time></trkpt><trkpt lat="42.3818179" lon="11.1412176"><ele>57.0</ele><time>2026-05-02T09:48:43.556Z</time></trkpt><trkpt lat="42.3818939" lon="11.1412687"><ele>57.0</ele><time>2026-05-02T09:48:44.556Z</time></trkpt><trkpt lat="42.3819721" lon="11.1413373"><ele>57.0</ele><time>2026-05-02T09:48:45.556Z</time></trkpt><trkpt lat="42.3820609" lon="11.1414232"><ele>57.0</ele><time>2026-05-02T09:48:46.556Z</time></trkpt><trkpt lat="42.382163" lon="11.1415284"><ele>58.0</ele><time>2026-05-02T09:48:47.556Z</time></trkpt><trkpt lat="42.3822652" lon="11.1416591"><ele>59.0</ele><time>2026-05-02T09:48:48.555Z</time></trkpt><trkpt lat="42.3823589" lon="11.141797"><ele>60.0</ele><time>2026-05-02T09:48:49.557Z</time></trkpt><trkpt lat="42.3824404" lon="11.1419326"><ele>61.0</ele><time>2026-05-02T09:48:50.556Z</time></trkpt><trkpt lat="42.3825101" lon="11.1420558"><ele>61.0</ele><time>2026-05-02T09:48:51.556Z</time></trkpt><trkpt lat="42.3825817" lon="11.1421611"><ele>60.99999999999999</ele><time>2026-05-02T09:48:52.556Z</time></trkpt><trkpt lat="42.3826604" lon="11.142258"><ele>60.99999999999999</ele><time>2026-05-02T09:48:53.556Z</time></trkpt><trkpt lat="42.3827493" lon="11.1423252"><ele>61.0</ele><time>2026-05-02T09:48:54.555Z</time></trkpt><trkpt lat="42.3828407" lon="11.1423825"><ele>61.0</ele><time>2026-05-02T09:48:55.555Z</time></trkpt><trkpt lat="42.3829493" lon="11.1423889"><ele>63.75</ele><time>2026-05-02T09:48:56.556Z</time></trkpt><trkpt lat="42.3830658" lon="11.1423288"><ele>66.5</ele><time>2026-05-02T09:48:57.557Z</time></trkpt><trkpt lat="42.3831934" lon="11.1422664"><ele>69.25</ele><time>2026-05-02T09:48:58.557Z</time></trkpt><trkpt lat="42.3833411" lon="11.142194"><ele>72.0</ele><time>2026-05-02T09:48:59.556Z</time></trkpt><trkpt lat="42.3834669" lon="11.1421135"><ele>72.0</ele><time>2026-05-02T09:49:00.557Z</time></trkpt><trkpt lat="42.3835864" lon="11.1420384"><ele>72.0</ele><time>2026-05-02T09:49:01.556Z</time></trkpt><trkpt lat="42.3837054" lon="11.1419861"><ele>72.0</ele><time>2026-05-02T09:49:02.556Z</time></trkpt><trkpt lat="42.3838317" lon="11.1419574"><ele>72.0</ele><time>2026-05-02T09:49:03.556Z</time></trkpt><trkpt lat="42.3839555" lon="11.1419474"><ele>70.4</ele><time>2026-05-02T09:49:04.555Z</time></trkpt><trkpt lat="42.3840632" lon="11.1419475"><ele>68.80000000000001</ele><time>2026-05-02T09:49:05.555Z</time></trkpt><trkpt lat="42.3841639" lon="11.1419463"><ele>67.2</ele><time>2026-05-02T09:49:06.557Z</time></trkpt><trkpt lat="42.3842651" lon="11.1419357"><ele>65.60000000000001</ele><time>2026-05-02T09:49:07.556Z</time></trkpt><trkpt lat="42.3843484" lon="11.1418984"><ele>64.0</ele><time>2026-05-02T09:49:08.556Z</time></trkpt><trkpt lat="42.3844312" lon="11.1418674"><ele>63.99999999999999</ele><time>2026-05-02T09:49:09.555Z</time></trkpt><trkpt lat="42.3845061" lon="11.1418377"><ele>64.0</ele><time>2026-05-02T09:49:10.556Z</time></trkpt><trkpt lat="42.3845832" lon="11.1418106"><ele>64.0</ele><time>2026-05-02T09:49:11.555Z</time></trkpt><trkpt lat="42.3846658" lon="11.1417847"><ele>64.0</ele><time>2026-05-02T09:49:12.556Z</time></trkpt><trkpt lat="42.3847533" lon="11.1417616"><ele>63.99999999999999</ele><time>2026-05-02T09:49:13.556Z</time></trkpt><trkpt lat="42.3848424" lon="11.1417427"><ele>64.0</ele><time>2026-05-02T09:49:14.555Z</time></trkpt><trkpt lat="42.3849405" lon="11.1417382"><ele>63.800000000000004</ele><time>2026-05-02T09:49:15.555Z</time></trkpt><trkpt lat="42.3850419" lon="11.1417492"><ele>63.60000000000001</ele><time>2026-05-02T09:49:16.556Z</time></trkpt><trkpt lat="42.3851391" lon="11.1417706"><ele>63.4</ele><time>2026-05-02T09:49:17.557Z</time></trkpt><trkpt lat="42.385236" lon="11.1418057"><ele>63.2</ele><time>2026-05-02T09:49:18.556Z</time></trkpt><trkpt lat="42.385342" lon="11.1418526"><ele>63.0</ele><time>2026-05-02T09:49:19.556Z</time></trkpt><trkpt lat="42.3854413" lon="11.1418993"><ele>65.33333333333333</ele><time>2026-05-02T09:49:20.556Z</time></trkpt><trkpt lat="42.3855279" lon="11.1419454"><ele>67.66666666666667</ele><time>2026-05-02T09:49:21.555Z</time></trkpt><trkpt lat="42.3856176" lon="11.1419855"><ele>70.0</ele><time>2026-05-02T09:49:22.556Z</time></trkpt><trkpt lat="42.385693" lon="11.1420311"><ele>72.33333333333334</ele><time>2026-05-02T09:49:23.557Z</time></trkpt><trkpt lat="42.385751" lon="11.1420753"><ele>74.66666666666667</ele><time>2026-05-02T09:49:24.557Z</time></trkpt><trkpt lat="42.3858105" lon="11.1421177"><ele>77.0</ele><time>2026-05-02T09:49:25.556Z</time></trkpt><trkpt lat="42.3858428" lon="11.142191"><ele>77.0</ele><time>2026-05-02T09:49:26.555Z</time></trkpt><trkpt lat="42.3858932" lon="11.1423316"><ele>77.0</ele><time>2026-05-02T09:49:28.555Z</time></trkpt><trkpt lat="42.3858887" lon="11.142443"><ele>77.0</ele><time>2026-05-02T09:49:29.556Z</time></trkpt><trkpt lat="42.3858816" lon="11.1425515"><ele>77.0</ele><time>2026-05-02T09:49:30.556Z</time></trkpt><trkpt lat="42.3858748" lon="11.1426737"><ele>77.0</ele><time>2026-05-02T09:49:31.556Z</time></trkpt><trkpt lat="42.3858691" lon="11.1428128"><ele>76.0</ele><time>2026-05-02T09:49:32.557Z</time></trkpt><trkpt lat="42.3858667" lon="11.1429527"><ele>75.0</ele><time>2026-05-02T09:49:33.555Z</time></trkpt><trkpt lat="42.3858928" lon="11.1430929"><ele>74.0</ele><time>2026-05-02T09:49:34.556Z</time></trkpt><trkpt lat="42.3859111" lon="11.1432266"><ele>73.0</ele><time>2026-05-02T09:49:35.555Z</time></trkpt><trkpt lat="42.3859566" lon="11.1433384"><ele>72.0</ele><time>2026-05-02T09:49:36.555Z</time></trkpt><trkpt lat="42.3860056" lon="11.1434669"><ele>72.0</ele><time>2026-05-02T09:49:37.555Z</time></trkpt><trkpt lat="42.3860704" lon="11.1435917"><ele>72.0</ele><time>2026-05-02T09:49:38.556Z</time></trkpt><trkpt lat="42.386136" lon="11.1437239"><ele>72.0</ele><time>2026-05-02T09:49:39.556Z</time></trkpt><trkpt lat="42.3861922" lon="11.14385"><ele>72.0</ele><time>2026-05-02T09:49:40.556Z</time></trkpt><trkpt lat="42.3862539" lon="11.1439866"><ele>73.4</ele><time>2026-05-02T09:49:41.557Z</time></trkpt><trkpt lat="42.3863153" lon="11.1441152"><ele>74.80000000000001</ele><time>2026-05-02T09:49:42.555Z</time></trkpt><trkpt lat="42.3863708" lon="11.1442293"><ele>76.2</ele><time>2026-05-02T09:49:43.555Z</time></trkpt><trkpt lat="42.3864143" lon="11.1443396"><ele>77.60000000000001</ele><time>2026-05-02T09:49:44.556Z</time></trkpt><trkpt lat="42.3864466" lon="11.1444392"><ele>79.0</ele><time>2026-05-02T09:49:45.555Z</time></trkpt><trkpt lat="42.386484" lon="11.1445435"><ele>79.0</ele><time>2026-05-02T09:49:46.557Z</time></trkpt><trkpt lat="42.3864604" lon="11.1446402"><ele>79.0</ele><time>2026-05-02T09:49:47.557Z</time></trkpt><trkpt lat="42.3864462" lon="11.1447307"><ele>79.0</ele><time>2026-05-02T09:49:48.557Z</time></trkpt><trkpt lat="42.3864148" lon="11.1448326"><ele>79.0</ele><time>2026-05-02T09:49:49.556Z</time></trkpt><trkpt lat="42.3863898" lon="11.1449213"><ele>79.0</ele><time>2026-05-02T09:49:50.555Z</time></trkpt><trkpt lat="42.3863646" lon="11.1450411"><ele>79.0</ele><time>2026-05-02T09:49:52.557Z</time></trkpt><trkpt lat="42.3863419" lon="11.1451254"><ele>81.80000000000001</ele><time>2026-05-02T09:50:18.556Z</time></trkpt><trkpt lat="42.3862578" lon="11.1451374"><ele>84.60000000000001</ele><time>2026-05-02T09:50:20.556Z</time></trkpt><trkpt lat="42.3861478" lon="11.1450583"><ele>87.4</ele><time>2026-05-02T09:50:22.558Z</time></trkpt><trkpt lat="42.3860876" lon="11.144993"><ele>90.2</ele><time>2026-05-02T09:50:23.555Z</time></trkpt><trkpt lat="42.3860196" lon="11.1449059"><ele>93.0</ele><time>2026-05-02T09:50:24.557Z</time></trkpt><trkpt lat="42.3859605" lon="11.1448232"><ele>93.0</ele><time>2026-05-02T09:50:25.555Z</time></trkpt><trkpt lat="42.3859029" lon="11.1447183"><ele>93.0</ele><time>2026-05-02T09:50:26.554Z</time></trkpt><trkpt lat="42.3858574" lon="11.1446218"><ele>93.0</ele><time>2026-05-02T09:50:27.556Z</time></trkpt><trkpt lat="42.3858177" lon="11.1445097"><ele>93.0</ele><time>2026-05-02T09:50:28.555Z</time></trkpt><trkpt lat="42.385784" lon="11.144386"><ele>93.0</ele><time>2026-05-02T09:50:29.555Z</time></trkpt><trkpt lat="42.3857498" lon="11.1442781"><ele>93.0</ele><time>2026-05-02T09:50:30.557Z</time></trkpt><trkpt lat="42.3857084" lon="11.1441639"><ele>93.0</ele><time>2026-05-02T09:50:31.554Z</time></trkpt><trkpt lat="42.3856416" lon="11.1440628"><ele>93.0</ele><time>2026-05-02T09:50:32.556Z</time></trkpt><trkpt lat="42.3855687" lon="11.143964"><ele>93.0</ele><time>2026-05-02T09:50:33.556Z</time></trkpt><trkpt lat="42.3854998" lon="11.1438824"><ele>93.0</ele><time>2026-05-02T09:50:34.556Z</time></trkpt><trkpt lat="42.3854304" lon="11.1438138"><ele>91.66666666666667</ele><time>2026-05-02T09:50:35.556Z</time></trkpt><trkpt lat="42.3853619" lon="11.1437666"><ele>90.33333333333333</ele><time>2026-05-02T09:50:36.556Z</time></trkpt><trkpt lat="42.3852847" lon="11.1437382"><ele>89.0</ele><time>2026-05-02T09:50:37.555Z</time></trkpt><trkpt lat="42.3852023" lon="11.1437339"><ele>87.66666666666666</ele><time>2026-05-02T09:50:38.556Z</time></trkpt><trkpt lat="42.3851083" lon="11.1437535"><ele>86.33333333333333</ele><time>2026-05-02T09:50:39.555Z</time></trkpt><trkpt lat="42.3850127" lon="11.1437859"><ele>85.0</ele><time>2026-05-02T09:50:40.556Z</time></trkpt><trkpt lat="42.3849074" lon="11.1438184"><ele>85.0</ele><time>2026-05-02T09:50:41.555Z</time></trkpt><trkpt lat="42.3847981" lon="11.1438588"><ele>85.0</ele><time>2026-05-02T09:50:42.554Z</time></trkpt><trkpt lat="42.3846817" lon="11.1439014"><ele>85.0</ele><time>2026-05-02T09:50:43.555Z</time></trkpt><trkpt lat="42.3845639" lon="11.1439485"><ele>85.0</ele><time>2026-05-02T09:50:44.555Z</time></trkpt><trkpt lat="42.3844383" lon="11.1439974"><ele>92.25</ele><time>2026-05-02T09:50:45.555Z</time></trkpt><trkpt lat="42.3843015" lon="11.144061"><ele>99.5</ele><time>2026-05-02T09:50:46.555Z</time></trkpt><trkpt lat="42.3841812" lon="11.1441114"><ele>106.75</ele><time>2026-05-02T09:50:47.555Z</time></trkpt><trkpt lat="42.3840572" lon="11.1441572"><ele>114.0</ele><time>2026-05-02T09:50:48.555Z</time></trkpt><trkpt lat="42.3839285" lon="11.1441976"><ele>111.5</ele><time>2026-05-02T09:50:49.557Z</time></trkpt><trkpt lat="42.3837995" lon="11.1442332"><ele>109.0</ele><time>2026-05-02T09:50:50.557Z</time></trkpt><trkpt lat="42.383677" lon="11.1442703"><ele>106.5</ele><time>2026-05-02T09:50:51.555Z</time></trkpt><trkpt lat="42.3835742" lon="11.1442986"><ele>104.0</ele><time>2026-05-02T09:50:52.555Z</time></trkpt><trkpt lat="42.383466" lon="11.1443198"><ele>104.0</ele><time>2026-05-02T09:50:53.556Z</time></trkpt><trkpt lat="42.3833518" lon="11.1443121"><ele>104.0</ele><time>2026-05-02T09:50:54.554Z</time></trkpt><trkpt lat="42.3832417" lon="11.1443142"><ele>104.0</ele><time>2026-05-02T09:50:55.555Z</time></trkpt><trkpt lat="42.3831319" lon="11.1442798"><ele>104.0</ele><time>2026-05-02T09:50:56.554Z</time></trkpt><trkpt lat="42.3830209" lon="11.1442609"><ele>104.0</ele><time>2026-05-02T09:50:57.556Z</time></trkpt><trkpt lat="42.3829249" lon="11.144233"><ele>102.66666666666666</ele><time>2026-05-02T09:50:58.555Z</time></trkpt><trkpt lat="42.3828288" lon="11.1442087"><ele>101.33333333333333</ele><time>2026-05-02T09:50:59.554Z</time></trkpt><trkpt lat="42.3827392" lon="11.1441889"><ele>100.0</ele><time>2026-05-02T09:51:00.554Z</time></trkpt><trkpt lat="42.3826454" lon="11.1441679"><ele>98.66666666666666</ele><time>2026-05-02T09:51:01.555Z</time></trkpt><trkpt lat="42.3825636" lon="11.1441539"><ele>97.33333333333333</ele><time>2026-05-02T09:51:02.555Z</time></trkpt><trkpt lat="42.382483" lon="11.1441496"><ele>96.0</ele><time>2026-05-02T09:51:03.555Z</time></trkpt><trkpt lat="42.3824108" lon="11.1441694"><ele>95.99999999999999</ele><time>2026-05-02T09:51:04.556Z</time></trkpt><trkpt lat="42.3823488" lon="11.144213"><ele>96.0</ele><time>2026-05-02T09:51:05.556Z</time></trkpt><trkpt lat="42.3822893" lon="11.1442832"><ele>96.0</ele><time>2026-05-02T09:51:06.555Z</time></trkpt><trkpt lat="42.3822317" lon="11.1443487"><ele>96.0</ele><time>2026-05-02T09:51:07.556Z</time></trkpt><trkpt lat="42.3821678" lon="11.1443972"><ele>96.0</ele><time>2026-05-02T09:51:08.556Z</time></trkpt><trkpt lat="42.3821066" lon="11.1444429"><ele>95.99999999999999</ele><time>2026-05-02T09:51:09.556Z</time></trkpt><trkpt lat="42.3820362" lon="11.1444268"><ele>96.0</ele><time>2026-05-02T09:51:10.555Z</time></trkpt><trkpt lat="42.3819578" lon="11.1444041"><ele>95.6</ele><time>2026-05-02T09:51:11.556Z</time></trkpt><trkpt lat="42.3818791" lon="11.1443762"><ele>95.19999999999999</ele><time>2026-05-02T09:51:12.554Z</time></trkpt><trkpt lat="42.3817964" lon="11.1443447"><ele>94.80000000000001</ele><time>2026-05-02T09:51:13.555Z</time></trkpt><trkpt lat="42.3816955" lon="11.1443263"><ele>94.4</ele><time>2026-05-02T09:51:14.555Z</time></trkpt><trkpt lat="42.3815901" lon="11.1443266"><ele>94.0</ele><time>2026-05-02T09:51:15.556Z</time></trkpt><trkpt lat="42.3814758" lon="11.1443446"><ele>94.0</ele><time>2026-05-02T09:51:16.555Z</time></trkpt><trkpt lat="42.3813545" lon="11.1443741"><ele>94.0</ele><time>2026-05-02T09:51:17.554Z</time></trkpt><trkpt lat="42.3812308" lon="11.1444007"><ele>94.0</ele><time>2026-05-02T09:51:18.556Z</time></trkpt><trkpt lat="42.3811092" lon="11.1443938"><ele>94.0</ele><time>2026-05-02T09:51:19.554Z</time></trkpt><trkpt lat="42.3809945" lon="11.1443931"><ele>92.25</ele><time>2026-05-02T09:51:20.554Z</time></trkpt><trkpt lat="42.3808853" lon="11.1444009"><ele>90.5</ele><time>2026-05-02T09:51:21.555Z</time></trkpt><trkpt lat="42.3807669" lon="11.1444248"><ele>88.75</ele><time>2026-05-02T09:51:22.555Z</time></trkpt><trkpt lat="42.3806498" lon="11.144468"><ele>87.0</ele><time>2026-05-02T09:51:23.556Z</time></trkpt><trkpt lat="42.3805305" lon="11.1445305"><ele>84.8</ele><time>2026-05-02T09:51:24.555Z</time></trkpt><trkpt lat="42.3804217" lon="11.1445869"><ele>82.6</ele><time>2026-05-02T09:51:25.555Z</time></trkpt><trkpt lat="42.3803253" lon="11.1446409"><ele>80.39999999999999</ele><time>2026-05-02T09:51:26.555Z</time></trkpt><trkpt lat="42.380229" lon="11.1446937"><ele>78.19999999999999</ele><time>2026-05-02T09:51:27.555Z</time></trkpt><trkpt lat="42.3801468" lon="11.1447594"><ele>76.0</ele><time>2026-05-02T09:51:28.554Z</time></trkpt><trkpt lat="42.3800787" lon="11.1448319"><ele>79.6</ele><time>2026-05-02T09:51:29.555Z</time></trkpt><trkpt lat="42.3800118" lon="11.1449167"><ele>83.19999999999999</ele><time>2026-05-02T09:51:30.554Z</time></trkpt><trkpt lat="42.3799754" lon="11.1450562"><ele>86.80000000000001</ele><time>2026-05-02T09:51:31.555Z</time></trkpt><trkpt lat="42.3799488" lon="11.1451828"><ele>90.4</ele><time>2026-05-02T09:51:32.554Z</time></trkpt><trkpt lat="42.3799289" lon="11.1453163"><ele>94.0</ele><time>2026-05-02T09:51:33.554Z</time></trkpt><trkpt lat="42.3799184" lon="11.1454543"><ele>94.0</ele><time>2026-05-02T09:51:34.556Z</time></trkpt><trkpt lat="42.379914" lon="11.1455872"><ele>94.0</ele><time>2026-05-02T09:51:35.555Z</time></trkpt><trkpt lat="42.3799104" lon="11.1457101"><ele>94.0</ele><time>2026-05-02T09:51:36.555Z</time></trkpt><trkpt lat="42.3798882" lon="11.1458115"><ele>94.0</ele><time>2026-05-02T09:51:37.555Z</time></trkpt><trkpt lat="42.379865" lon="11.1459082"><ele>94.0</ele><time>2026-05-02T09:51:38.554Z</time></trkpt><trkpt lat="42.3798307" lon="11.1460095"><ele>94.0</ele><time>2026-05-02T09:51:39.555Z</time></trkpt><trkpt lat="42.37979" lon="11.1461051"><ele>95.2</ele><time>2026-05-02T09:51:40.556Z</time></trkpt><trkpt lat="42.3797462" lon="11.1461976"><ele>96.4</ele><time>2026-05-02T09:51:41.555Z</time></trkpt><trkpt lat="42.3796474" lon="11.1462767"><ele>97.6</ele><time>2026-05-02T09:51:43.555Z</time></trkpt><trkpt lat="42.3795619" lon="11.1463706"><ele>98.8</ele><time>2026-05-02T09:51:45.555Z</time></trkpt><trkpt lat="42.3795019" lon="11.1464495"><ele>100.0</ele><time>2026-05-02T09:51:47.556Z</time></trkpt><trkpt lat="42.3794459" lon="11.1465123"><ele>100.0</ele><time>2026-05-02T09:52:01.555Z</time></trkpt><trkpt lat="42.379529" lon="11.146467"><ele>100.0</ele><time>2026-05-02T09:52:10.554Z</time></trkpt><trkpt lat="42.3796098" lon="11.1463681"><ele>100.0</ele><time>2026-05-02T09:52:12.554Z</time></trkpt><trkpt lat="42.3796887" lon="11.1462703"><ele>100.0</ele><time>2026-05-02T09:52:14.554Z</time></trkpt><trkpt lat="42.3797618" lon="11.1461749"><ele>100.0</ele><time>2026-05-02T09:52:16.556Z</time></trkpt><trkpt lat="42.3798184" lon="11.1460774"><ele>100.0</ele><time>2026-05-02T09:52:18.555Z</time></trkpt><trkpt lat="42.3798654" lon="11.1459801"><ele>100.0</ele><time>2026-05-02T09:52:20.555Z</time></trkpt><trkpt lat="42.3799015" lon="11.1458611"><ele>100.0</ele><time>2026-05-02T09:52:22.554Z</time></trkpt><trkpt lat="42.3799227" lon="11.1457187"><ele>100.0</ele><time>2026-05-02T09:52:24.555Z</time></trkpt><trkpt lat="42.3799265" lon="11.145567"><ele>100.0</ele><time>2026-05-02T09:52:26.555Z</time></trkpt><trkpt lat="42.3799235" lon="11.1454451"><ele>100.00000000000001</ele><time>2026-05-02T09:52:28.555Z</time></trkpt><trkpt lat="42.3799221" lon="11.145551"><ele>100.0</ele><time>2026-05-02T09:53:04.555Z</time></trkpt><trkpt lat="42.3799189" lon="11.1456368"><ele>100.0</ele><time>2026-05-02T09:53:06.554Z</time></trkpt><trkpt lat="42.3799073" lon="11.1457286"><ele>100.0</ele><time>2026-05-02T09:53:08.555Z</time></trkpt><trkpt lat="42.379895" lon="11.1458263"><ele>100.0</ele><time>2026-05-02T09:53:10.555Z</time></trkpt><trkpt lat="42.3798706" lon="11.1459212"><ele>100.00000000000001</ele><time>2026-05-02T09:53:12.554Z</time></trkpt><trkpt lat="42.3798329" lon="11.1459968"><ele>100.0</ele><time>2026-05-02T09:53:14.555Z</time></trkpt><trkpt lat="42.379885" lon="11.1459197"><ele>100.00000000000001</ele><time>2026-05-02T09:53:36.555Z</time></trkpt><trkpt lat="42.3799148" lon="11.1457666"><ele>100.0</ele><time>2026-05-02T09:53:38.555Z</time></trkpt><trkpt lat="42.3799145" lon="11.1456768"><ele>100.0</ele><time>2026-05-02T09:53:39.553Z</time></trkpt><trkpt lat="42.3799198" lon="11.1455642"><ele>100.0</ele><time>2026-05-02T09:53:41.554Z</time></trkpt><trkpt lat="42.3799055" lon="11.1454762"><ele>100.00000000000001</ele><time>2026-05-02T09:53:43.554Z</time></trkpt><trkpt lat="42.3799046" lon="11.1453747"><ele>100.0</ele><time>2026-05-02T09:53:46.555Z</time></trkpt><trkpt lat="42.3799372" lon="11.1452673"><ele>98.8</ele><time>2026-05-02T09:54:55.553Z</time></trkpt><trkpt lat="42.3799627" lon="11.1451216"><ele>97.6</ele><time>2026-05-02T09:54:57.553Z</time></trkpt><trkpt lat="42.3800106" lon="11.1449731"><ele>96.4</ele><time>2026-05-02T09:54:59.555Z</time></trkpt><trkpt lat="42.3800745" lon="11.1448492"><ele>95.2</ele><time>2026-05-02T09:55:01.553Z</time></trkpt><trkpt lat="42.3801577" lon="11.1447575"><ele>94.0</ele><time>2026-05-02T09:55:03.556Z</time></trkpt><trkpt lat="42.3802652" lon="11.1446839"><ele>93.0</ele><time>2026-05-02T09:55:05.555Z</time></trkpt><trkpt lat="42.3803291" lon="11.1446439"><ele>92.0</ele><time>2026-05-02T09:55:06.554Z</time></trkpt><trkpt lat="42.3803916" lon="11.144611"><ele>91.0</ele><time>2026-05-02T09:55:07.554Z</time></trkpt><trkpt lat="42.3804552" lon="11.1445746"><ele>90.0</ele><time>2026-05-02T09:55:08.555Z</time></trkpt><trkpt lat="42.38052" lon="11.1445337"><ele>89.0</ele><time>2026-05-02T09:55:09.553Z</time></trkpt><trkpt lat="42.3805853" lon="11.144501"><ele>88.0</ele><time>2026-05-02T09:55:10.554Z</time></trkpt><trkpt lat="42.3806506" lon="11.1444677"><ele>87.0</ele><time>2026-05-02T09:55:11.555Z</time></trkpt><trkpt lat="42.3807189" lon="11.1444398"><ele>87.0</ele><time>2026-05-02T09:55:12.554Z</time></trkpt><trkpt lat="42.3807905" lon="11.1444161"><ele>87.0</ele><time>2026-05-02T09:55:13.555Z</time></trkpt><trkpt lat="42.3808685" lon="11.1444007"><ele>87.0</ele><time>2026-05-02T09:55:14.553Z</time></trkpt><trkpt lat="42.380948" lon="11.1443956"><ele>87.0</ele><time>2026-05-02T09:55:15.553Z</time></trkpt><trkpt lat="42.3810423" lon="11.1444"><ele>87.0</ele><time>2026-05-02T09:55:16.554Z</time></trkpt><trkpt lat="42.3811332" lon="11.1444029"><ele>87.0</ele><time>2026-05-02T09:55:17.554Z</time></trkpt><trkpt lat="42.381226" lon="11.1444017"><ele>87.0</ele><time>2026-05-02T09:55:18.555Z</time></trkpt><trkpt lat="42.3813144" lon="11.1443833"><ele>87.0</ele><time>2026-05-02T09:55:19.554Z</time></trkpt><trkpt lat="42.3813958" lon="11.1443591"><ele>87.0</ele><time>2026-05-02T09:55:20.553Z</time></trkpt><trkpt lat="42.3814807" lon="11.1443309"><ele>87.0</ele><time>2026-05-02T09:55:21.554Z</time></trkpt><trkpt lat="42.3815648" lon="11.1443061"><ele>87.0</ele><time>2026-05-02T09:55:22.554Z</time></trkpt><trkpt lat="42.3816394" lon="11.1443249"><ele>87.0</ele><time>2026-05-02T09:55:23.555Z</time></trkpt><trkpt lat="42.3817223" lon="11.1443431"><ele>88.0</ele><time>2026-05-02T09:55:24.555Z</time></trkpt><trkpt lat="42.3818048" lon="11.1443744"><ele>89.0</ele><time>2026-05-02T09:55:25.553Z</time></trkpt><trkpt lat="42.3818758" lon="11.1444051"><ele>90.0</ele><time>2026-05-02T09:55:26.554Z</time></trkpt><trkpt lat="42.3819468" lon="11.1444376"><ele>91.0</ele><time>2026-05-02T09:55:27.553Z</time></trkpt><trkpt lat="42.3820104" lon="11.1444578"><ele>92.0</ele><time>2026-05-02T09:55:28.553Z</time></trkpt><trkpt lat="42.3820753" lon="11.1444549"><ele>93.0</ele><time>2026-05-02T09:55:29.553Z</time></trkpt><trkpt lat="42.3821392" lon="11.1444284"><ele>94.0</ele><time>2026-05-02T09:55:30.555Z</time></trkpt><trkpt lat="42.3821971" lon="11.1443805"><ele>94.28571428571428</ele><time>2026-05-02T09:55:31.554Z</time></trkpt><trkpt lat="42.3822455" lon="11.1443246"><ele>94.57142857142857</ele><time>2026-05-02T09:55:32.554Z</time></trkpt><trkpt lat="42.3823027" lon="11.1442648"><ele>94.85714285714286</ele><time>2026-05-02T09:55:33.554Z</time></trkpt><trkpt lat="42.3823663" lon="11.1442158"><ele>95.14285714285714</ele><time>2026-05-02T09:55:34.553Z</time></trkpt><trkpt lat="42.3824329" lon="11.1441834"><ele>95.42857142857143</ele><time>2026-05-02T09:55:35.555Z</time></trkpt><trkpt lat="42.382499" lon="11.1441639"><ele>95.71428571428571</ele><time>2026-05-02T09:55:36.554Z</time></trkpt><trkpt lat="42.3825745" lon="11.1441792"><ele>96.0</ele><time>2026-05-02T09:55:37.553Z</time></trkpt><trkpt lat="42.3826524" lon="11.1441988"><ele>96.0</ele><time>2026-05-02T09:55:38.553Z</time></trkpt><trkpt lat="42.3827351" lon="11.1442159"><ele>96.0</ele><time>2026-05-02T09:55:39.554Z</time></trkpt><trkpt lat="42.3828103" lon="11.1442342"><ele>96.0</ele><time>2026-05-02T09:55:40.554Z</time></trkpt><trkpt lat="42.3829041" lon="11.1442514"><ele>96.0</ele><time>2026-05-02T09:55:41.553Z</time></trkpt><trkpt lat="42.3829966" lon="11.1442733"><ele>96.0</ele><time>2026-05-02T09:55:42.554Z</time></trkpt><trkpt lat="42.3830836" lon="11.1442942"><ele>96.0</ele><time>2026-05-02T09:55:43.553Z</time></trkpt><trkpt lat="42.3831731" lon="11.1443141"><ele>97.33333333333333</ele><time>2026-05-02T09:55:44.553Z</time></trkpt><trkpt lat="42.3832629" lon="11.1443307"><ele>98.66666666666666</ele><time>2026-05-02T09:55:45.554Z</time></trkpt><trkpt lat="42.3833439" lon="11.144346"><ele>100.0</ele><time>2026-05-02T09:55:46.553Z</time></trkpt><trkpt lat="42.3834199" lon="11.1443569"><ele>101.33333333333333</ele><time>2026-05-02T09:55:47.554Z</time></trkpt><trkpt lat="42.3834971" lon="11.1443595"><ele>102.66666666666666</ele><time>2026-05-02T09:55:48.553Z</time></trkpt><trkpt lat="42.3835739" lon="11.1443295"><ele>104.0</ele><time>2026-05-02T09:55:49.554Z</time></trkpt><trkpt lat="42.3836548" lon="11.1443039"><ele>103.99999999999999</ele><time>2026-05-02T09:55:50.554Z</time></trkpt><trkpt lat="42.3837402" lon="11.1442834"><ele>104.0</ele><time>2026-05-02T09:55:51.554Z</time></trkpt><trkpt lat="42.3838213" lon="11.1442593"><ele>104.0</ele><time>2026-05-02T09:55:52.554Z</time></trkpt><trkpt lat="42.383912" lon="11.144234"><ele>104.0</ele><time>2026-05-02T09:55:53.554Z</time></trkpt><trkpt lat="42.3839999" lon="11.1442074"><ele>103.99999999999999</ele><time>2026-05-02T09:55:54.553Z</time></trkpt><trkpt lat="42.3840883" lon="11.1441742"><ele>104.0</ele><time>2026-05-02T09:55:55.554Z</time></trkpt><trkpt lat="42.3841691" lon="11.1441381"><ele>105.66666666666666</ele><time>2026-05-02T09:55:56.555Z</time></trkpt><trkpt lat="42.384239" lon="11.1441077"><ele>107.33333333333333</ele><time>2026-05-02T09:55:57.553Z</time></trkpt><trkpt lat="42.3843116" lon="11.1440734"><ele>109.0</ele><time>2026-05-02T09:55:58.553Z</time></trkpt><trkpt lat="42.3843882" lon="11.1440396"><ele>110.66666666666666</ele><time>2026-05-02T09:55:59.554Z</time></trkpt><trkpt lat="42.3844666" lon="11.1440052"><ele>112.33333333333333</ele><time>2026-05-02T09:56:00.554Z</time></trkpt><trkpt lat="42.3845494" lon="11.1439686"><ele>114.0</ele><time>2026-05-02T09:56:01.553Z</time></trkpt><trkpt lat="42.3846296" lon="11.143939"><ele>109.16666666666667</ele><time>2026-05-02T09:56:02.553Z</time></trkpt><trkpt lat="42.3847092" lon="11.1439129"><ele>104.33333333333333</ele><time>2026-05-02T09:56:03.554Z</time></trkpt><trkpt lat="42.3847852" lon="11.1438844"><ele>99.5</ele><time>2026-05-02T09:56:04.553Z</time></trkpt><trkpt lat="42.3848617" lon="11.1438567"><ele>94.66666666666666</ele><time>2026-05-02T09:56:05.554Z</time></trkpt><trkpt lat="42.3849423" lon="11.1438323"><ele>89.83333333333333</ele><time>2026-05-02T09:56:06.554Z</time></trkpt><trkpt lat="42.3850234" lon="11.1438073"><ele>85.0</ele><time>2026-05-02T09:56:07.553Z</time></trkpt><trkpt lat="42.3850861" lon="11.1437827"><ele>85.0</ele><time>2026-05-02T09:56:08.554Z</time></trkpt><trkpt lat="42.3851985" lon="11.1437611"><ele>85.0</ele><time>2026-05-02T09:56:10.554Z</time></trkpt><trkpt lat="42.3853206" lon="11.1437654"><ele>85.0</ele><time>2026-05-02T09:56:12.554Z</time></trkpt><trkpt lat="42.3853805" lon="11.1437945"><ele>85.0</ele><time>2026-05-02T09:56:13.554Z</time></trkpt><trkpt lat="42.3854418" lon="11.1438455"><ele>85.0</ele><time>2026-05-02T09:56:14.553Z</time></trkpt><trkpt lat="42.3855021" lon="11.1439093"><ele>85.0</ele><time>2026-05-02T09:56:15.554Z</time></trkpt><trkpt lat="42.3855668" lon="11.1439785"><ele>86.14285714285715</ele><time>2026-05-02T09:56:16.554Z</time></trkpt><trkpt lat="42.3856255" lon="11.1440517"><ele>87.28571428571428</ele><time>2026-05-02T09:56:17.553Z</time></trkpt><trkpt lat="42.3856739" lon="11.1441276"><ele>88.42857142857143</ele><time>2026-05-02T09:56:18.553Z</time></trkpt><trkpt lat="42.3857174" lon="11.1442023"><ele>89.57142857142858</ele><time>2026-05-02T09:56:19.554Z</time></trkpt><trkpt lat="42.3857495" lon="11.1442801"><ele>90.71428571428572</ele><time>2026-05-02T09:56:20.553Z</time></trkpt><trkpt lat="42.3857771" lon="11.1443723"><ele>91.85714285714286</ele><time>2026-05-02T09:56:21.554Z</time></trkpt><trkpt lat="42.3857967" lon="11.1444609"><ele>93.0</ele><time>2026-05-02T09:56:22.555Z</time></trkpt><trkpt lat="42.3858443" lon="11.1446262"><ele>93.0</ele><time>2026-05-02T09:56:24.554Z</time></trkpt><trkpt lat="42.3858852" lon="11.1447144"><ele>93.0</ele><time>2026-05-02T09:56:25.554Z</time></trkpt><trkpt lat="42.3859323" lon="11.1447928"><ele>93.0</ele><time>2026-05-02T09:56:26.554Z</time></trkpt><trkpt lat="42.3859832" lon="11.1448671"><ele>93.0</ele><time>2026-05-02T09:56:27.554Z</time></trkpt><trkpt lat="42.3860386" lon="11.1449412"><ele>93.0</ele><time>2026-05-02T09:56:28.554Z</time></trkpt><trkpt lat="42.3860943" lon="11.145013"><ele>93.0</ele><time>2026-05-02T09:56:29.553Z</time></trkpt><trkpt lat="42.3861469" lon="11.1450745"><ele>91.4</ele><time>2026-05-02T09:56:30.554Z</time></trkpt><trkpt lat="42.3862468" lon="11.1451587"><ele>89.80000000000001</ele><time>2026-05-02T09:56:32.553Z</time></trkpt><trkpt lat="42.3863245" lon="11.1451986"><ele>88.2</ele><time>2026-05-02T09:56:34.553Z</time></trkpt><trkpt lat="42.3863901" lon="11.1452393"><ele>86.6</ele><time>2026-05-02T09:57:49.554Z</time></trkpt><trkpt lat="42.3864801" lon="11.1453238"><ele>85.0</ele><time>2026-05-02T09:57:51.554Z</time></trkpt><trkpt lat="42.3865287" lon="11.1454023"><ele>85.0</ele><time>2026-05-02T09:57:52.554Z</time></trkpt><trkpt lat="42.3865799" lon="11.1454724"><ele>85.0</ele><time>2026-05-02T09:57:53.554Z</time></trkpt><trkpt lat="42.3866285" lon="11.1455549"><ele>85.0</ele><time>2026-05-02T09:57:54.552Z</time></trkpt><trkpt lat="42.3866781" lon="11.1456383"><ele>85.0</ele><time>2026-05-02T09:57:55.552Z</time></trkpt><trkpt lat="42.386716" lon="11.14571"><ele>85.0</ele><time>2026-05-02T09:57:56.553Z</time></trkpt><trkpt lat="42.3867504" lon="11.1457859"><ele>85.0</ele><time>2026-05-02T09:57:57.553Z</time></trkpt><trkpt lat="42.3867966" lon="11.1459511"><ele>87.33333333333333</ele><time>2026-05-02T09:57:59.553Z</time></trkpt><trkpt lat="42.3868592" lon="11.1460864"><ele>89.66666666666666</ele><time>2026-05-02T09:58:01.553Z</time></trkpt><trkpt lat="42.3868799" lon="11.1462308"><ele>92.0</ele><time>2026-05-02T09:58:03.554Z</time></trkpt><trkpt lat="42.3868842" lon="11.1463214"><ele>94.33333333333333</ele><time>2026-05-02T09:58:04.554Z</time></trkpt><trkpt lat="42.3868811" lon="11.1464154"><ele>96.66666666666667</ele><time>2026-05-02T09:58:05.553Z</time></trkpt><trkpt lat="42.3868819" lon="11.1465106"><ele>99.0</ele><time>2026-05-02T09:58:06.553Z</time></trkpt><trkpt lat="42.3869119" lon="11.1466932"><ele>101.83333333333333</ele><time>2026-05-02T09:58:08.554Z</time></trkpt><trkpt lat="42.3869383" lon="11.1468083"><ele>104.66666666666666</ele><time>2026-05-02T09:58:09.553Z</time></trkpt><trkpt lat="42.3869684" lon="11.1469278"><ele>107.5</ele><time>2026-05-02T09:58:10.555Z</time></trkpt><trkpt lat="42.3869939" lon="11.1470335"><ele>110.33333333333333</ele><time>2026-05-02T09:58:11.553Z</time></trkpt><trkpt lat="42.387026" lon="11.1471442"><ele>113.16666666666666</ele><time>2026-05-02T09:58:12.552Z</time></trkpt><trkpt lat="42.3870667" lon="11.147255"><ele>116.0</ele><time>2026-05-02T09:58:13.554Z</time></trkpt><trkpt lat="42.3871067" lon="11.1473598"><ele>116.49999999999999</ele><time>2026-05-02T09:58:14.552Z</time></trkpt><trkpt lat="42.3871403" lon="11.1474442"><ele>117.0</ele><time>2026-05-02T09:58:15.554Z</time></trkpt><trkpt lat="42.3871783" lon="11.1475449"><ele>117.5</ele><time>2026-05-02T09:58:17.553Z</time></trkpt><trkpt lat="42.3872025" lon="11.1476831"><ele>118.0</ele><time>2026-05-02T09:58:19.554Z</time></trkpt><trkpt lat="42.3872125" lon="11.1477716"><ele>118.49999999999999</ele><time>2026-05-02T09:58:20.555Z</time></trkpt><trkpt lat="42.3872212" lon="11.1478633"><ele>119.0</ele><time>2026-05-02T09:58:21.553Z</time></trkpt><trkpt lat="42.3872168" lon="11.1479708"><ele>118.99999999999999</ele><time>2026-05-02T09:58:22.552Z</time></trkpt><trkpt lat="42.3872101" lon="11.1480904"><ele>119.0</ele><time>2026-05-02T09:58:23.553Z</time></trkpt><trkpt lat="42.3872119" lon="11.1482085"><ele>119.0</ele><time>2026-05-02T09:58:24.554Z</time></trkpt><trkpt lat="42.3872222" lon="11.1483216"><ele>119.0</ele><time>2026-05-02T09:58:25.554Z</time></trkpt><trkpt lat="42.3872318" lon="11.1484212"><ele>118.99999999999999</ele><time>2026-05-02T09:58:26.553Z</time></trkpt><trkpt lat="42.3872456" lon="11.1485201"><ele>119.0</ele><time>2026-05-02T09:58:27.552Z</time></trkpt><trkpt lat="42.3872652" lon="11.148614"><ele>118.33333333333333</ele><time>2026-05-02T09:58:28.553Z</time></trkpt><trkpt lat="42.387294" lon="11.1487039"><ele>117.66666666666666</ele><time>2026-05-02T09:58:29.553Z</time></trkpt><trkpt lat="42.3873296" lon="11.1487909"><ele>117.0</ele><time>2026-05-02T09:58:30.553Z</time></trkpt><trkpt lat="42.3873587" lon="11.1488726"><ele>116.33333333333334</ele><time>2026-05-02T09:58:31.555Z</time></trkpt><trkpt lat="42.3873947" lon="11.1490062"><ele>115.66666666666667</ele><time>2026-05-02T09:58:33.553Z</time></trkpt><trkpt lat="42.3874124" lon="11.1491165"><ele>115.0</ele><time>2026-05-02T09:58:35.553Z</time></trkpt><trkpt lat="42.3874138" lon="11.1492332"><ele>115.00000000000001</ele><time>2026-05-02T09:58:37.554Z</time></trkpt><trkpt lat="42.3873677" lon="11.1493562"><ele>115.0</ele><time>2026-05-02T09:58:39.554Z</time></trkpt><trkpt lat="42.3873383" lon="11.1494395"><ele>115.0</ele><time>2026-05-02T09:58:40.553Z</time></trkpt><trkpt lat="42.3873117" lon="11.1495337"><ele>115.0</ele><time>2026-05-02T09:58:41.554Z</time></trkpt><trkpt lat="42.3872855" lon="11.1496364"><ele>115.00000000000001</ele><time>2026-05-02T09:58:42.552Z</time></trkpt><trkpt lat="42.3872613" lon="11.149731"><ele>115.0</ele><time>2026-05-02T09:58:43.552Z</time></trkpt><trkpt lat="42.387226" lon="11.1498196"><ele>115.50000000000001</ele><time>2026-05-02T09:58:44.553Z</time></trkpt><trkpt lat="42.3871864" lon="11.149905"><ele>116.0</ele><time>2026-05-02T09:58:45.553Z</time></trkpt><trkpt lat="42.3871421" lon="11.1499938"><ele>116.5</ele><time>2026-05-02T09:58:46.554Z</time></trkpt><trkpt lat="42.3870954" lon="11.1500915"><ele>117.0</ele><time>2026-05-02T09:58:47.552Z</time></trkpt><trkpt lat="42.3870482" lon="11.1501995"><ele>117.50000000000001</ele><time>2026-05-02T09:58:48.552Z</time></trkpt><trkpt lat="42.3870007" lon="11.1502965"><ele>118.0</ele><time>2026-05-02T09:58:49.554Z</time></trkpt><trkpt lat="42.386957" lon="11.1503819"><ele>121.0</ele><time>2026-05-02T09:58:50.554Z</time></trkpt><trkpt lat="42.3869148" lon="11.1504583"><ele>124.0</ele><time>2026-05-02T09:58:51.552Z</time></trkpt><trkpt lat="42.3868666" lon="11.1505241"><ele>127.0</ele><time>2026-05-02T09:58:52.553Z</time></trkpt><trkpt lat="42.3868164" lon="11.1505912"><ele>130.0</ele><time>2026-05-02T09:58:53.553Z</time></trkpt><trkpt lat="42.386768" lon="11.1506717"><ele>133.0</ele><time>2026-05-02T09:58:54.553Z</time></trkpt><trkpt lat="42.3867226" lon="11.1507435"><ele>136.0</ele><time>2026-05-02T09:58:55.552Z</time></trkpt><trkpt lat="42.3866744" lon="11.1508039"><ele>139.0</ele><time>2026-05-02T09:58:56.554Z</time></trkpt><trkpt lat="42.3866253" lon="11.1508656"><ele>139.0</ele><time>2026-05-02T09:58:57.553Z</time></trkpt><trkpt lat="42.3865813" lon="11.150934"><ele>139.0</ele><time>2026-05-02T09:58:58.554Z</time></trkpt><trkpt lat="42.3865467" lon="11.1510099"><ele>139.0</ele><time>2026-05-02T09:58:59.552Z</time></trkpt><trkpt lat="42.3864807" lon="11.1511566"><ele>139.0</ele><time>2026-05-02T09:59:01.553Z</time></trkpt><trkpt lat="42.3864521" lon="11.151249"><ele>139.0</ele><time>2026-05-02T09:59:02.553Z</time></trkpt><trkpt lat="42.3864257" lon="11.1513498"><ele>139.0</ele><time>2026-05-02T09:59:03.553Z</time></trkpt><trkpt lat="42.3863987" lon="11.1514448"><ele>139.0</ele><time>2026-05-02T09:59:04.553Z</time></trkpt><trkpt lat="42.386378" lon="11.151529"><ele>139.0</ele><time>2026-05-02T09:59:05.553Z</time></trkpt><trkpt lat="42.3863619" lon="11.1516681"><ele>139.0</ele><time>2026-05-02T09:59:07.553Z</time></trkpt><trkpt lat="42.3863712" lon="11.1517813"><ele>139.0</ele><time>2026-05-02T09:59:09.553Z</time></trkpt><trkpt lat="42.3863557" lon="11.1518756"><ele>139.0</ele><time>2026-05-02T09:59:42.553Z</time></trkpt><trkpt lat="42.386274" lon="11.1519435"><ele>139.0</ele><time>2026-05-02T09:59:45.552Z</time></trkpt><trkpt lat="42.3861923" lon="11.1519907"><ele>142.0</ele><time>2026-05-02T09:59:47.553Z</time></trkpt><trkpt lat="42.3861199" lon="11.1520247"><ele>145.0</ele><time>2026-05-02T09:59:49.552Z</time></trkpt><trkpt lat="42.3860393" lon="11.1520715"><ele>148.0</ele><time>2026-05-02T09:59:51.552Z</time></trkpt><trkpt lat="42.3859653" lon="11.1521178"><ele>151.0</ele><time>2026-05-02T09:59:53.552Z</time></trkpt><trkpt lat="42.3858895" lon="11.1521543"><ele>154.0</ele><time>2026-05-02T09:59:55.552Z</time></trkpt><trkpt lat="42.3858157" lon="11.1521969"><ele>157.0</ele><time>2026-05-02T09:59:57.552Z</time></trkpt><trkpt lat="42.3857434" lon="11.1522193"><ele>156.99999999999997</ele><time>2026-05-02T09:59:59.553Z</time></trkpt><trkpt lat="42.3856687" lon="11.1522373"><ele>157.0</ele><time>2026-05-02T10:00:01.552Z</time></trkpt><trkpt lat="42.3855814" lon="11.1522823"><ele>157.0</ele><time>2026-05-02T10:00:03.552Z</time></trkpt><trkpt lat="42.38551" lon="11.1523118"><ele>157.0</ele><time>2026-05-02T10:00:05.552Z</time></trkpt><trkpt lat="42.3854498" lon="11.1523509"><ele>157.0</ele><time>2026-05-02T10:00:07.552Z</time></trkpt><trkpt lat="42.3853885" lon="11.1523198"><ele>156.99999999999997</ele><time>2026-05-02T10:00:10.553Z</time></trkpt><trkpt lat="42.3853361" lon="11.1522583"><ele>157.0</ele><time>2026-05-02T10:00:12.552Z</time></trkpt><trkpt lat="42.3852632" lon="11.1522028"><ele>161.39999999999998</ele><time>2026-05-02T10:00:14.554Z</time></trkpt><trkpt lat="42.3851855" lon="11.1521484"><ele>165.79999999999998</ele><time>2026-05-02T10:00:16.552Z</time></trkpt><trkpt lat="42.3850871" lon="11.1521051"><ele>170.2</ele><time>2026-05-02T10:00:18.553Z</time></trkpt><trkpt lat="42.384982" lon="11.1520586"><ele>174.6</ele><time>2026-05-02T10:00:20.552Z</time></trkpt><trkpt lat="42.3848977" lon="11.1520107"><ele>179.0</ele><time>2026-05-02T10:00:22.554Z</time></trkpt><trkpt lat="42.3848522" lon="11.1519497"><ele>179.0</ele><time>2026-05-02T10:00:24.553Z</time></trkpt></trkseg><trkseg><trkpt lat="42.3848296" lon="11.1518532"><ele>179.0</ele><time>2026-05-02T10:14:30.548Z</time></trkpt><trkpt lat="42.3848612" lon="11.1517735"><ele>179.0</ele><time>2026-05-02T10:14:32.549Z</time></trkpt><trkpt lat="42.3849665" lon="11.1516993"><ele>179.0</ele><time>2026-05-02T10:14:34.55Z</time></trkpt><trkpt lat="42.385054" lon="11.1516419"><ele>179.0</ele><time>2026-05-02T10:14:36.549Z</time></trkpt><trkpt lat="42.3851198" lon="11.1515771"><ele>179.0</ele><time>2026-05-02T10:14:38.548Z</time></trkpt><trkpt lat="42.3851023" lon="11.151493"><ele>179.0</ele><time>2026-05-02T10:14:41.548Z</time></trkpt><trkpt lat="42.3850197" lon="11.1514949"><ele>179.0</ele><time>2026-05-02T10:14:43.547Z</time></trkpt><trkpt lat="42.384914" lon="11.1515248"><ele>179.0</ele><time>2026-05-02T10:14:45.549Z</time></trkpt><trkpt lat="42.3848513" lon="11.1515428"><ele>179.0</ele><time>2026-05-02T10:14:46.548Z</time></trkpt><trkpt lat="42.3847894" lon="11.1515666"><ele>179.0</ele><time>2026-05-02T10:14:47.548Z</time></trkpt><trkpt lat="42.3847286" lon="11.1515897"><ele>179.0</ele><time>2026-05-02T10:14:48.547Z</time></trkpt><trkpt lat="42.384622" lon="11.15164"><ele>179.0</ele><time>2026-05-02T10:14:50.548Z</time></trkpt><trkpt lat="42.3845262" lon="11.1516774"><ele>183.2</ele><time>2026-05-02T10:14:52.548Z</time></trkpt><trkpt lat="42.3844093" lon="11.1516859"><ele>187.39999999999998</ele><time>2026-05-02T10:14:54.547Z</time></trkpt><trkpt lat="42.3843026" lon="11.1516758"><ele>191.6</ele><time>2026-05-02T10:14:56.548Z</time></trkpt><trkpt lat="42.384215" lon="11.1516905"><ele>195.8</ele><time>2026-05-02T10:14:58.55Z</time></trkpt><trkpt lat="42.3841483" lon="11.1517538"><ele>200.0</ele><time>2026-05-02T10:15:00.548Z</time></trkpt><trkpt lat="42.3840721" lon="11.1518798"><ele>200.0</ele><time>2026-05-02T10:15:02.548Z</time></trkpt><trkpt lat="42.3840159" lon="11.1519922"><ele>200.0</ele><time>2026-05-02T10:15:04.548Z</time></trkpt><trkpt lat="42.3839612" lon="11.1520903"><ele>200.0</ele><time>2026-05-02T10:15:06.548Z</time></trkpt><trkpt lat="42.3838753" lon="11.1521784"><ele>200.0</ele><time>2026-05-02T10:15:08.547Z</time></trkpt><trkpt lat="42.3838183" lon="11.1522421"><ele>200.0</ele><time>2026-05-02T10:15:10.549Z</time></trkpt><trkpt lat="42.3837748" lon="11.1523306"><ele>199.83333333333334</ele><time>2026-05-02T10:16:44.549Z</time></trkpt><trkpt lat="42.3837356" lon="11.1524063"><ele>199.66666666666669</ele><time>2026-05-02T10:16:46.547Z</time></trkpt><trkpt lat="42.3836927" lon="11.152492"><ele>199.5</ele><time>2026-05-02T10:16:48.549Z</time></trkpt><trkpt lat="42.3836578" lon="11.1525914"><ele>199.33333333333331</ele><time>2026-05-02T10:16:50.548Z</time></trkpt><trkpt lat="42.3836181" lon="11.1526887"><ele>199.16666666666666</ele><time>2026-05-02T10:16:52.546Z</time></trkpt><trkpt lat="42.3835713" lon="11.1527755"><ele>199.0</ele><time>2026-05-02T10:16:54.547Z</time></trkpt><trkpt lat="42.3835495" lon="11.1528662"><ele>198.99999999999997</ele><time>2026-05-02T10:16:56.547Z</time></trkpt><trkpt lat="42.3835469" lon="11.1529775"><ele>199.0</ele><time>2026-05-02T10:18:04.548Z</time></trkpt><trkpt lat="42.3835787" lon="11.1530738"><ele>199.0</ele><time>2026-05-02T10:18:06.547Z</time></trkpt><trkpt lat="42.3835525" lon="11.1529849"><ele>199.0</ele><time>2026-05-02T10:18:07.547Z</time></trkpt><trkpt lat="42.3835943" lon="11.1531018"><ele>198.99999999999997</ele><time>2026-05-02T10:18:08.547Z</time></trkpt><trkpt lat="42.383652" lon="11.1532172"><ele>199.0</ele><time>2026-05-02T10:18:09.546Z</time></trkpt><trkpt lat="42.3837" lon="11.1533076"><ele>199.6</ele><time>2026-05-02T10:18:10.548Z</time></trkpt><trkpt lat="42.3837355" lon="11.1533856"><ele>200.2</ele><time>2026-05-02T10:18:11.548Z</time></trkpt><trkpt lat="42.3837642" lon="11.1535442"><ele>200.79999999999998</ele><time>2026-05-02T10:18:13.549Z</time></trkpt><trkpt lat="42.3837663" lon="11.1537112"><ele>201.39999999999998</ele><time>2026-05-02T10:18:15.547Z</time></trkpt><trkpt lat="42.3837346" lon="11.1538426"><ele>202.0</ele><time>2026-05-02T10:18:17.546Z</time></trkpt><trkpt lat="42.383668" lon="11.1539429"><ele>201.99999999999997</ele><time>2026-05-02T10:18:19.547Z</time></trkpt><trkpt lat="42.3836033" lon="11.1540242"><ele>202.0</ele><time>2026-05-02T10:18:21.547Z</time></trkpt><trkpt lat="42.3835874" lon="11.1541616"><ele>202.0</ele><time>2026-05-02T10:18:23.548Z</time></trkpt><trkpt lat="42.3836318" lon="11.1543007"><ele>202.0</ele><time>2026-05-02T10:18:25.547Z</time></trkpt><trkpt lat="42.3836624" lon="11.1543861"><ele>201.99999999999997</ele><time>2026-05-02T10:18:26.548Z</time></trkpt><trkpt lat="42.383691" lon="11.1544766"><ele>202.0</ele><time>2026-05-02T10:18:27.548Z</time></trkpt><trkpt lat="42.3837166" lon="11.1545612"><ele>202.57142857142856</ele><time>2026-05-02T10:18:28.547Z</time></trkpt><trkpt lat="42.3837458" lon="11.1546381"><ele>203.14285714285714</ele><time>2026-05-02T10:18:29.547Z</time></trkpt><trkpt lat="42.3837842" lon="11.1547098"><ele>203.71428571428572</ele><time>2026-05-02T10:18:30.546Z</time></trkpt><trkpt lat="42.383826" lon="11.1547813"><ele>204.28571428571428</ele><time>2026-05-02T10:18:31.547Z</time></trkpt><trkpt lat="42.3838707" lon="11.1548561"><ele>204.85714285714286</ele><time>2026-05-02T10:18:32.546Z</time></trkpt><trkpt lat="42.3839128" lon="11.1549355"><ele>205.42857142857142</ele><time>2026-05-02T10:18:33.547Z</time></trkpt><trkpt lat="42.3839492" lon="11.155018"><ele>206.0</ele><time>2026-05-02T10:18:34.546Z</time></trkpt><trkpt lat="42.3839861" lon="11.1551056"><ele>209.0</ele><time>2026-05-02T10:18:35.547Z</time></trkpt><trkpt lat="42.3840435" lon="11.1552303"><ele>212.0</ele><time>2026-05-02T10:18:37.546Z</time></trkpt><trkpt lat="42.3840706" lon="11.1553816"><ele>215.00000000000003</ele><time>2026-05-02T10:18:39.546Z</time></trkpt><trkpt lat="42.3840717" lon="11.1554705"><ele>218.0</ele><time>2026-05-02T10:18:40.548Z</time></trkpt><trkpt lat="42.3840747" lon="11.1555564"><ele>221.0</ele><time>2026-05-02T10:18:41.547Z</time></trkpt><trkpt lat="42.3840908" lon="11.1557246"><ele>221.0</ele><time>2026-05-02T10:18:43.547Z</time></trkpt><trkpt lat="42.3841292" lon="11.1558854"><ele>221.00000000000003</ele><time>2026-05-02T10:18:45.548Z</time></trkpt><trkpt lat="42.3841805" lon="11.1560264"><ele>221.00000000000003</ele><time>2026-05-02T10:18:47.547Z</time></trkpt><trkpt lat="42.3841947" lon="11.156143"><ele>221.0</ele><time>2026-05-02T10:18:49.548Z</time></trkpt><trkpt lat="42.3841498" lon="11.156246"><ele>221.0</ele><time>2026-05-02T10:18:51.547Z</time></trkpt><trkpt lat="42.3840504" lon="11.1563229"><ele>221.00000000000003</ele><time>2026-05-02T10:18:53.547Z</time></trkpt><trkpt lat="42.3839901" lon="11.1563526"><ele>221.0</ele><time>2026-05-02T10:18:54.548Z</time></trkpt><trkpt lat="42.3839275" lon="11.1563823"><ele>221.0</ele><time>2026-05-02T10:18:55.546Z</time></trkpt><trkpt lat="42.3838642" lon="11.1564157"><ele>221.0</ele><time>2026-05-02T10:18:56.546Z</time></trkpt><trkpt lat="42.3837997" lon="11.1564533"><ele>221.00000000000003</ele><time>2026-05-02T10:18:57.548Z</time></trkpt><trkpt lat="42.3837418" lon="11.1564914"><ele>221.0</ele><time>2026-05-02T10:18:58.546Z</time></trkpt><trkpt lat="42.3836377" lon="11.1565628"><ele>220.16666666666669</ele><time>2026-05-02T10:19:00.547Z</time></trkpt><trkpt lat="42.3835742" lon="11.1565975"><ele>219.33333333333334</ele><time>2026-05-02T10:19:01.546Z</time></trkpt><trkpt lat="42.3834932" lon="11.156626"><ele>218.5</ele><time>2026-05-02T10:19:02.547Z</time></trkpt><trkpt lat="42.3834077" lon="11.1566697"><ele>217.66666666666669</ele><time>2026-05-02T10:19:03.546Z</time></trkpt><trkpt lat="42.3833336" lon="11.1566955"><ele>216.83333333333334</ele><time>2026-05-02T10:19:04.548Z</time></trkpt><trkpt lat="42.3832465" lon="11.156727"><ele>216.0</ele><time>2026-05-02T10:19:05.547Z</time></trkpt><trkpt lat="42.3831753" lon="11.1567386"><ele>216.0</ele><time>2026-05-02T10:19:06.547Z</time></trkpt><trkpt lat="42.3831026" lon="11.1567597"><ele>216.0</ele><time>2026-05-02T10:19:07.547Z</time></trkpt><trkpt lat="42.3830374" lon="11.1567838"><ele>216.0</ele><time>2026-05-02T10:19:08.548Z</time></trkpt><trkpt lat="42.3829344" lon="11.1568138"><ele>216.0</ele><time>2026-05-02T10:19:10.548Z</time></trkpt><trkpt lat="42.3828722" lon="11.1568417"><ele>216.0</ele><time>2026-05-02T10:19:13.546Z</time></trkpt><trkpt lat="42.3828384" lon="11.1569281"><ele>216.0</ele><time>2026-05-02T10:19:42.547Z</time></trkpt><trkpt lat="42.3828848" lon="11.1570377"><ele>216.0</ele><time>2026-05-02T10:19:45.546Z</time></trkpt><trkpt lat="42.3829872" lon="11.1571074"><ele>216.00000000000003</ele><time>2026-05-02T10:19:47.547Z</time></trkpt><trkpt lat="42.3830916" lon="11.1571957"><ele>216.00000000000003</ele><time>2026-05-02T10:19:49.547Z</time></trkpt><trkpt lat="42.3831391" lon="11.157264"><ele>216.0</ele><time>2026-05-02T10:19:50.547Z</time></trkpt><trkpt lat="42.3831863" lon="11.1573408"><ele>216.0</ele><time>2026-05-02T10:19:51.546Z</time></trkpt><trkpt lat="42.3832514" lon="11.157478"><ele>216.4</ele><time>2026-05-02T10:19:53.546Z</time></trkpt><trkpt lat="42.3832955" lon="11.1576006"><ele>216.8</ele><time>2026-05-02T10:19:55.547Z</time></trkpt><trkpt lat="42.3833198" lon="11.157725"><ele>217.20000000000002</ele><time>2026-05-02T10:19:57.547Z</time></trkpt><trkpt lat="42.3833472" lon="11.1578543"><ele>217.60000000000002</ele><time>2026-05-02T10:19:59.547Z</time></trkpt><trkpt lat="42.3833785" lon="11.1579585"><ele>218.0</ele><time>2026-05-02T10:20:01.546Z</time></trkpt><trkpt lat="42.3834013" lon="11.158075"><ele>218.00000000000003</ele><time>2026-05-02T10:20:31.546Z</time></trkpt><trkpt lat="42.3834537" lon="11.1581817"><ele>218.0</ele><time>2026-05-02T10:20:33.547Z</time></trkpt><trkpt lat="42.3835026" lon="11.1582876"><ele>218.0</ele><time>2026-05-02T10:20:35.547Z</time></trkpt><trkpt lat="42.3835471" lon="11.1584121"><ele>218.0</ele><time>2026-05-02T10:20:37.548Z</time></trkpt><trkpt lat="42.3835658" lon="11.158499"><ele>218.00000000000003</ele><time>2026-05-02T10:20:38.546Z</time></trkpt><trkpt lat="42.3835911" lon="11.1586031"><ele>218.0</ele><time>2026-05-02T10:20:39.547Z</time></trkpt><trkpt lat="42.3836096" lon="11.1586942"><ele>216.16666666666669</ele><time>2026-05-02T10:20:40.547Z</time></trkpt><trkpt lat="42.3836283" lon="11.1587788"><ele>214.33333333333334</ele><time>2026-05-02T10:20:41.547Z</time></trkpt><trkpt lat="42.3836439" lon="11.1589017"><ele>212.5</ele><time>2026-05-02T10:20:43.546Z</time></trkpt><trkpt lat="42.3836117" lon="11.1590041"><ele>210.66666666666669</ele><time>2026-05-02T10:20:45.545Z</time></trkpt><trkpt lat="42.3835406" lon="11.1590714"><ele>208.83333333333334</ele><time>2026-05-02T10:20:47.545Z</time></trkpt><trkpt lat="42.383468" lon="11.15903"><ele>207.0</ele><time>2026-05-02T10:20:49.547Z</time></trkpt><trkpt lat="42.3833822" lon="11.1589543"><ele>206.39999999999998</ele><time>2026-05-02T10:20:51.546Z</time></trkpt><trkpt lat="42.3833063" lon="11.1589061"><ele>205.79999999999998</ele><time>2026-05-02T10:20:53.546Z</time></trkpt><trkpt lat="42.3832295" lon="11.1588333"><ele>205.2</ele><time>2026-05-02T10:20:55.547Z</time></trkpt><trkpt lat="42.3831394" lon="11.1587764"><ele>204.6</ele><time>2026-05-02T10:20:57.547Z</time></trkpt><trkpt lat="42.383043" lon="11.158748"><ele>204.0</ele><time>2026-05-02T10:20:59.547Z</time></trkpt><trkpt lat="42.3829389" lon="11.1587307"><ele>201.0</ele><time>2026-05-02T10:21:01.547Z</time></trkpt><trkpt lat="42.3828443" lon="11.1587163"><ele>198.0</ele><time>2026-05-02T10:21:03.547Z</time></trkpt><trkpt lat="42.3827348" lon="11.1587479"><ele>195.0</ele><time>2026-05-02T10:21:05.545Z</time></trkpt><trkpt lat="42.3826422" lon="11.1587683"><ele>192.0</ele><time>2026-05-02T10:21:07.545Z</time></trkpt><trkpt lat="42.3825517" lon="11.1588095"><ele>189.0</ele><time>2026-05-02T10:21:09.545Z</time></trkpt><trkpt lat="42.3824768" lon="11.158894"><ele>189.0</ele><time>2026-05-02T10:21:11.546Z</time></trkpt><trkpt lat="42.3824018" lon="11.1589213"><ele>189.0</ele><time>2026-05-02T10:21:13.546Z</time></trkpt><trkpt lat="42.3823239" lon="11.1588838"><ele>189.0</ele><time>2026-05-02T10:21:15.546Z</time></trkpt><trkpt lat="42.3822611" lon="11.1588013"><ele>189.0</ele><time>2026-05-02T10:21:17.546Z</time></trkpt><trkpt lat="42.3821971" lon="11.1587595"><ele>189.0</ele><time>2026-05-02T10:21:19.546Z</time></trkpt><trkpt lat="42.3821105" lon="11.1587853"><ele>189.0</ele><time>2026-05-02T10:21:21.546Z</time></trkpt><trkpt lat="42.3819873" lon="11.1588321"><ele>188.0</ele><time>2026-05-02T10:21:23.545Z</time></trkpt><trkpt lat="42.3819099" lon="11.1588476"><ele>187.0</ele><time>2026-05-02T10:21:24.545Z</time></trkpt><trkpt lat="42.3818328" lon="11.1588624"><ele>186.0</ele><time>2026-05-02T10:21:25.546Z</time></trkpt><trkpt lat="42.3817651" lon="11.1588353"><ele>185.0</ele><time>2026-05-02T10:21:26.547Z</time></trkpt><trkpt lat="42.3816875" lon="11.158811"><ele>184.0</ele><time>2026-05-02T10:21:27.546Z</time></trkpt><trkpt lat="42.3816052" lon="11.1587612"><ele>183.0</ele><time>2026-05-02T10:21:28.547Z</time></trkpt><trkpt lat="42.3815254" lon="11.1587168"><ele>183.0</ele><time>2026-05-02T10:21:29.546Z</time></trkpt><trkpt lat="42.3814305" lon="11.1586649"><ele>183.0</ele><time>2026-05-02T10:21:30.546Z</time></trkpt><trkpt lat="42.3813626" lon="11.1586289"><ele>183.0</ele><time>2026-05-02T10:21:31.545Z</time></trkpt><trkpt lat="42.3812913" lon="11.1585797"><ele>183.0</ele><time>2026-05-02T10:21:32.545Z</time></trkpt><trkpt lat="42.3812131" lon="11.1585212"><ele>183.0</ele><time>2026-05-02T10:21:33.546Z</time></trkpt><trkpt lat="42.3811358" lon="11.1584603"><ele>183.0</ele><time>2026-05-02T10:21:34.545Z</time></trkpt><trkpt lat="42.3810686" lon="11.1583984"><ele>182.4</ele><time>2026-05-02T10:21:35.546Z</time></trkpt><trkpt lat="42.3809962" lon="11.1583215"><ele>181.8</ele><time>2026-05-02T10:21:36.547Z</time></trkpt><trkpt lat="42.3809416" lon="11.1582554"><ele>181.2</ele><time>2026-05-02T10:21:37.546Z</time></trkpt><trkpt lat="42.3808968" lon="11.1581951"><ele>180.6</ele><time>2026-05-02T10:21:38.545Z</time></trkpt><trkpt lat="42.3808115" lon="11.1580795"><ele>180.0</ele><time>2026-05-02T10:21:40.545Z</time></trkpt><trkpt lat="42.3807093" lon="11.1580186"><ele>180.0</ele><time>2026-05-02T10:21:42.545Z</time></trkpt><trkpt lat="42.3806408" lon="11.1579878"><ele>180.0</ele><time>2026-05-02T10:21:43.546Z</time></trkpt><trkpt lat="42.3805723" lon="11.1579654"><ele>180.0</ele><time>2026-05-02T10:21:44.546Z</time></trkpt><trkpt lat="42.3804935" lon="11.1579572"><ele>180.0</ele><time>2026-05-02T10:21:45.547Z</time></trkpt><trkpt lat="42.3804308" lon="11.1579407"><ele>180.0</ele><time>2026-05-02T10:21:46.545Z</time></trkpt><trkpt lat="42.3803452" lon="11.1579113"><ele>180.0</ele><time>2026-05-02T10:21:48.545Z</time></trkpt><trkpt lat="42.3802502" lon="11.1579668"><ele>181.33333333333334</ele><time>2026-05-02T10:22:26.547Z</time></trkpt><trkpt lat="42.3801356" lon="11.157988"><ele>182.66666666666666</ele><time>2026-05-02T10:22:28.545Z</time></trkpt><trkpt lat="42.3800622" lon="11.1579914"><ele>184.0</ele><time>2026-05-02T10:22:29.547Z</time></trkpt><trkpt lat="42.3799725" lon="11.1579744"><ele>185.33333333333331</ele><time>2026-05-02T10:22:30.547Z</time></trkpt><trkpt lat="42.3798966" lon="11.1579816"><ele>186.66666666666666</ele><time>2026-05-02T10:22:31.545Z</time></trkpt><trkpt lat="42.3798341" lon="11.1580027"><ele>188.0</ele><time>2026-05-02T10:22:32.547Z</time></trkpt><trkpt lat="42.379771" lon="11.1580347"><ele>188.0</ele><time>2026-05-02T10:22:33.546Z</time></trkpt><trkpt lat="42.3796988" lon="11.1580642"><ele>188.0</ele><time>2026-05-02T10:22:34.545Z</time></trkpt><trkpt lat="42.379622" lon="11.1580841"><ele>188.0</ele><time>2026-05-02T10:22:35.547Z</time></trkpt><trkpt lat="42.3795599" lon="11.1580666"><ele>188.0</ele><time>2026-05-02T10:22:36.546Z</time></trkpt><trkpt lat="42.3794912" lon="11.1580607"><ele>188.0</ele><time>2026-05-02T10:22:37.546Z</time></trkpt><trkpt lat="42.3794248" lon="11.1580468"><ele>188.0</ele><time>2026-05-02T10:22:38.545Z</time></trkpt><trkpt lat="42.3793579" lon="11.1580386"><ele>188.0</ele><time>2026-05-02T10:22:39.547Z</time></trkpt><trkpt lat="42.3792924" lon="11.1580128"><ele>190.2</ele><time>2026-05-02T10:22:40.546Z</time></trkpt><trkpt lat="42.3791843" lon="11.1579098"><ele>192.4</ele><time>2026-05-02T10:22:42.547Z</time></trkpt><trkpt lat="42.3791366" lon="11.1578438"><ele>194.6</ele><time>2026-05-02T10:22:43.546Z</time></trkpt><trkpt lat="42.3790791" lon="11.1577174"><ele>196.79999999999998</ele><time>2026-05-02T10:22:45.546Z</time></trkpt><trkpt lat="42.3790585" lon="11.157612"><ele>199.0</ele><time>2026-05-02T10:22:46.546Z</time></trkpt><trkpt lat="42.379041" lon="11.1575114"><ele>198.99999999999997</ele><time>2026-05-02T10:22:47.546Z</time></trkpt><trkpt lat="42.3790289" lon="11.157422"><ele>199.0</ele><time>2026-05-02T10:22:48.546Z</time></trkpt><trkpt lat="42.3789496" lon="11.1573071"><ele>199.0</ele><time>2026-05-02T10:22:50.547Z</time></trkpt><trkpt lat="42.3788609" lon="11.1571976"><ele>199.0</ele><time>2026-05-02T10:22:52.546Z</time></trkpt><trkpt lat="42.3788075" lon="11.1571407"><ele>198.99999999999997</ele><time>2026-05-02T10:22:53.547Z</time></trkpt><trkpt lat="42.3787579" lon="11.1570783"><ele>199.0</ele><time>2026-05-02T10:22:54.545Z</time></trkpt><trkpt lat="42.3786995" lon="11.1570285"><ele>202.39999999999998</ele><time>2026-05-02T10:22:55.546Z</time></trkpt><trkpt lat="42.3786502" lon="11.1569681"><ele>205.8</ele><time>2026-05-02T10:22:56.545Z</time></trkpt><trkpt lat="42.3785365" lon="11.1568816"><ele>209.20000000000002</ele><time>2026-05-02T10:22:58.546Z</time></trkpt><trkpt lat="42.3784666" lon="11.1568335"><ele>212.60000000000002</ele><time>2026-05-02T10:22:59.545Z</time></trkpt><trkpt lat="42.3783966" lon="11.1567982"><ele>216.0</ele><time>2026-05-02T10:23:00.546Z</time></trkpt><trkpt lat="42.3782989" lon="11.1567111"><ele>216.0</ele><time>2026-05-02T10:23:02.546Z</time></trkpt><trkpt lat="42.37825" lon="11.1566445"><ele>216.0</ele><time>2026-05-02T10:23:03.546Z</time></trkpt><trkpt lat="42.378219" lon="11.1565591"><ele>216.0</ele><time>2026-05-02T10:23:04.545Z</time></trkpt><trkpt lat="42.3781807" lon="11.1564766"><ele>216.0</ele><time>2026-05-02T10:23:05.546Z</time></trkpt><trkpt lat="42.3781444" lon="11.1563038"><ele>216.0</ele><time>2026-05-02T10:23:07.546Z</time></trkpt><trkpt lat="42.3781547" lon="11.1561629"><ele>216.0</ele><time>2026-05-02T10:23:09.546Z</time></trkpt><trkpt lat="42.3781054" lon="11.1560094"><ele>214.16666666666666</ele><time>2026-05-02T10:23:11.546Z</time></trkpt><trkpt lat="42.3780566" lon="11.1559433"><ele>212.33333333333331</ele><time>2026-05-02T10:23:12.547Z</time></trkpt><trkpt lat="42.3779768" lon="11.1558102"><ele>210.5</ele><time>2026-05-02T10:23:14.546Z</time></trkpt><trkpt lat="42.377929" lon="11.1557452"><ele>208.66666666666666</ele><time>2026-05-02T10:23:15.547Z</time></trkpt><trkpt lat="42.3778909" lon="11.1556738"><ele>206.83333333333331</ele><time>2026-05-02T10:23:16.545Z</time></trkpt><trkpt lat="42.3778406" lon="11.1556208"><ele>205.0</ele><time>2026-05-02T10:23:17.546Z</time></trkpt><trkpt lat="42.3777855" lon="11.1555667"><ele>204.49999999999997</ele><time>2026-05-02T10:23:18.546Z</time></trkpt><trkpt lat="42.3777172" lon="11.1555452"><ele>204.0</ele><time>2026-05-02T10:23:19.546Z</time></trkpt><trkpt lat="42.3776467" lon="11.1555251"><ele>203.5</ele><time>2026-05-02T10:23:20.547Z</time></trkpt><trkpt lat="42.3775792" lon="11.1555061"><ele>203.0</ele><time>2026-05-02T10:23:21.545Z</time></trkpt><trkpt lat="42.3775004" lon="11.1554991"><ele>202.49999999999997</ele><time>2026-05-02T10:23:22.547Z</time></trkpt><trkpt lat="42.3774143" lon="11.1555006"><ele>202.0</ele><time>2026-05-02T10:23:23.547Z</time></trkpt><trkpt lat="42.3773078" lon="11.1555437"><ele>202.0</ele><time>2026-05-02T10:23:24.544Z</time></trkpt><trkpt lat="42.3772133" lon="11.1555604"><ele>202.0</ele><time>2026-05-02T10:23:25.547Z</time></trkpt><trkpt lat="42.3771212" lon="11.1555878"><ele>202.0</ele><time>2026-05-02T10:23:26.545Z</time></trkpt><trkpt lat="42.3770132" lon="11.1556482"><ele>202.0</ele><time>2026-05-02T10:23:27.545Z</time></trkpt><trkpt lat="42.3769275" lon="11.1556958"><ele>202.0</ele><time>2026-05-02T10:23:28.547Z</time></trkpt><trkpt lat="42.3768549" lon="11.1557446"><ele>201.75</ele><time>2026-05-02T10:23:29.546Z</time></trkpt><trkpt lat="42.3767134" lon="11.1557165"><ele>201.5</ele><time>2026-05-02T10:23:31.545Z</time></trkpt><trkpt lat="42.3766347" lon="11.1556942"><ele>201.25</ele><time>2026-05-02T10:23:32.547Z</time></trkpt><trkpt lat="42.3765208" lon="11.1556974"><ele>201.0</ele><time>2026-05-02T10:23:34.545Z</time></trkpt><trkpt lat="42.3764187" lon="11.1558003"><ele>204.66666666666666</ele><time>2026-05-02T10:23:36.546Z</time></trkpt><trkpt lat="42.3763567" lon="11.1558656"><ele>208.33333333333331</ele><time>2026-05-02T10:23:37.545Z</time></trkpt><trkpt lat="42.3762454" lon="11.1558979"><ele>212.0</ele><time>2026-05-02T10:23:39.545Z</time></trkpt><trkpt lat="42.3761825" lon="11.1559037"><ele>215.66666666666666</ele><time>2026-05-02T10:23:40.547Z</time></trkpt><trkpt lat="42.3761114" lon="11.1559084"><ele>219.33333333333331</ele><time>2026-05-02T10:23:41.545Z</time></trkpt><trkpt lat="42.3760484" lon="11.1559434"><ele>223.0</ele><time>2026-05-02T10:23:42.545Z</time></trkpt><trkpt lat="42.3759914" lon="11.1559932"><ele>223.0</ele><time>2026-05-02T10:23:43.546Z</time></trkpt><trkpt lat="42.3759223" lon="11.1560575"><ele>223.0</ele><time>2026-05-02T10:23:44.544Z</time></trkpt><trkpt lat="42.3758453" lon="11.1561382"><ele>223.0</ele><time>2026-05-02T10:23:45.545Z</time></trkpt><trkpt lat="42.3757682" lon="11.1562284"><ele>223.0</ele><time>2026-05-02T10:23:46.544Z</time></trkpt><trkpt lat="42.3756947" lon="11.1562865"><ele>223.0</ele><time>2026-05-02T10:23:47.545Z</time></trkpt><trkpt lat="42.3755586" lon="11.1563372"><ele>224.16666666666666</ele><time>2026-05-02T10:23:49.545Z</time></trkpt><trkpt lat="42.375485" lon="11.1563525"><ele>225.33333333333331</ele><time>2026-05-02T10:23:50.546Z</time></trkpt><trkpt lat="42.3753965" lon="11.1563679"><ele>226.5</ele><time>2026-05-02T10:23:51.545Z</time></trkpt><trkpt lat="42.3753101" lon="11.156377"><ele>227.66666666666669</ele><time>2026-05-02T10:23:52.544Z</time></trkpt><trkpt lat="42.3752352" lon="11.1563802"><ele>228.83333333333334</ele><time>2026-05-02T10:23:53.545Z</time></trkpt><trkpt lat="42.3751725" lon="11.156353"><ele>230.0</ele><time>2026-05-02T10:23:54.545Z</time></trkpt><trkpt lat="42.3751093" lon="11.156307"><ele>230.0</ele><time>2026-05-02T10:23:55.546Z</time></trkpt><trkpt lat="42.3750445" lon="11.1562413"><ele>230.0</ele><time>2026-05-02T10:23:56.546Z</time></trkpt><trkpt lat="42.3749674" lon="11.1561572"><ele>230.0</ele><time>2026-05-02T10:23:57.546Z</time></trkpt><trkpt lat="42.374879" lon="11.1560772"><ele>230.0</ele><time>2026-05-02T10:23:58.545Z</time></trkpt><trkpt lat="42.3747936" lon="11.1560035"><ele>230.0</ele><time>2026-05-02T10:23:59.544Z</time></trkpt><trkpt lat="42.3747235" lon="11.1559466"><ele>230.2</ele><time>2026-05-02T10:24:00.545Z</time></trkpt><trkpt lat="42.3746625" lon="11.1559051"><ele>230.4</ele><time>2026-05-02T10:24:01.546Z</time></trkpt><trkpt lat="42.3745471" lon="11.1558896"><ele>230.60000000000002</ele><time>2026-05-02T10:24:03.545Z</time></trkpt><trkpt lat="42.3744353" lon="11.1559578"><ele>230.8</ele><time>2026-05-02T10:24:05.545Z</time></trkpt><trkpt lat="42.3743543" lon="11.1560421"><ele>231.0</ele><time>2026-05-02T10:24:06.545Z</time></trkpt><trkpt lat="42.3742612" lon="11.1561332"><ele>231.0</ele><time>2026-05-02T10:24:07.544Z</time></trkpt><trkpt lat="42.3741594" lon="11.1562109"><ele>231.0</ele><time>2026-05-02T10:24:08.546Z</time></trkpt><trkpt lat="42.3740544" lon="11.1562873"><ele>231.0</ele><time>2026-05-02T10:24:09.544Z</time></trkpt><trkpt lat="42.3739643" lon="11.1563771"><ele>231.0</ele><time>2026-05-02T10:24:10.546Z</time></trkpt><trkpt lat="42.3738676" lon="11.1564698"><ele>228.8</ele><time>2026-05-02T10:24:11.544Z</time></trkpt><trkpt lat="42.3737679" lon="11.1565595"><ele>226.60000000000002</ele><time>2026-05-02T10:24:12.546Z</time></trkpt><trkpt lat="42.3736713" lon="11.1566444"><ele>224.4</ele><time>2026-05-02T10:24:13.544Z</time></trkpt><trkpt lat="42.373599" lon="11.1567147"><ele>222.2</ele><time>2026-05-02T10:24:14.545Z</time></trkpt><trkpt lat="42.3735319" lon="11.1567849"><ele>220.0</ele><time>2026-05-02T10:24:15.545Z</time></trkpt><trkpt lat="42.3734877" lon="11.1568505"><ele>219.99999999999997</ele><time>2026-05-02T10:24:16.544Z</time></trkpt><trkpt lat="42.3734517" lon="11.1569362"><ele>220.0</ele><time>2026-05-02T10:24:17.544Z</time></trkpt><trkpt lat="42.3734163" lon="11.1570297"><ele>220.0</ele><time>2026-05-02T10:24:18.545Z</time></trkpt><trkpt lat="42.3733778" lon="11.1571454"><ele>220.0</ele><time>2026-05-02T10:24:19.546Z</time></trkpt><trkpt lat="42.3733376" lon="11.1572735"><ele>219.99999999999997</ele><time>2026-05-02T10:24:20.546Z</time></trkpt><trkpt lat="42.3732952" lon="11.1573785"><ele>220.0</ele><time>2026-05-02T10:24:21.546Z</time></trkpt><trkpt lat="42.3732456" lon="11.1574492"><ele>219.8</ele><time>2026-05-02T10:24:22.545Z</time></trkpt><trkpt lat="42.3731932" lon="11.157517"><ele>219.6</ele><time>2026-05-02T10:24:23.544Z</time></trkpt><trkpt lat="42.3731144" lon="11.1575739"><ele>219.39999999999998</ele><time>2026-05-02T10:24:24.545Z</time></trkpt><trkpt lat="42.373025" lon="11.1576444"><ele>219.2</ele><time>2026-05-02T10:24:25.547Z</time></trkpt><trkpt lat="42.3729394" lon="11.1577101"><ele>219.0</ele><time>2026-05-02T10:24:26.545Z</time></trkpt><trkpt lat="42.3728594" lon="11.1577618"><ele>219.0</ele><time>2026-05-02T10:24:27.546Z</time></trkpt><trkpt lat="42.3727686" lon="11.1577926"><ele>219.0</ele><time>2026-05-02T10:24:28.544Z</time></trkpt><trkpt lat="42.3726861" lon="11.1578154"><ele>219.0</ele><time>2026-05-02T10:24:29.545Z</time></trkpt><trkpt lat="42.3726215" lon="11.1578489"><ele>219.0</ele><time>2026-05-02T10:24:30.547Z</time></trkpt><trkpt lat="42.3725718" lon="11.1579066"><ele>219.0</ele><time>2026-05-02T10:24:31.546Z</time></trkpt><trkpt lat="42.3725283" lon="11.1579913"><ele>219.0</ele><time>2026-05-02T10:24:32.545Z</time></trkpt><trkpt lat="42.3724793" lon="11.1580783"><ele>219.0</ele><time>2026-05-02T10:24:33.545Z</time></trkpt><trkpt lat="42.3724188" lon="11.1581577"><ele>219.0</ele><time>2026-05-02T10:24:34.546Z</time></trkpt><trkpt lat="42.3723619" lon="11.1582063"><ele>219.0</ele><time>2026-05-02T10:24:35.546Z</time></trkpt><trkpt lat="42.3723077" lon="11.1582541"><ele>219.0</ele><time>2026-05-02T10:24:36.546Z</time></trkpt><trkpt lat="42.3722449" lon="11.1582831"><ele>219.0</ele><time>2026-05-02T10:24:37.546Z</time></trkpt><trkpt lat="42.3721762" lon="11.1583269"><ele>219.0</ele><time>2026-05-02T10:24:38.544Z</time></trkpt><trkpt lat="42.3721136" lon="11.1583456"><ele>219.0</ele><time>2026-05-02T10:24:39.544Z</time></trkpt><trkpt lat="42.3720098" lon="11.1583646"><ele>220.83333333333334</ele><time>2026-05-02T10:24:41.544Z</time></trkpt><trkpt lat="42.3719317" lon="11.1583665"><ele>222.66666666666669</ele><time>2026-05-02T10:24:43.545Z</time></trkpt><trkpt lat="42.3718471" lon="11.1583686"><ele>224.5</ele><time>2026-05-02T10:24:45.545Z</time></trkpt><trkpt lat="42.3717829" lon="11.1583721"><ele>226.33333333333334</ele><time>2026-05-02T10:24:47.545Z</time></trkpt><trkpt lat="42.3716944" lon="11.1583844"><ele>228.16666666666669</ele><time>2026-05-02T10:24:50.545Z</time></trkpt><trkpt lat="42.3716221" lon="11.1583987"><ele>230.0</ele><time>2026-05-02T10:24:52.545Z</time></trkpt><trkpt lat="42.3715434" lon="11.1584252"><ele>230.00000000000003</ele><time>2026-05-02T10:24:54.544Z</time></trkpt><trkpt lat="42.3714683" lon="11.158469"><ele>230.0</ele><time>2026-05-02T10:24:56.544Z</time></trkpt><trkpt lat="42.3714036" lon="11.1585132"><ele>230.0</ele><time>2026-05-02T10:24:58.545Z</time></trkpt><trkpt lat="42.3713376" lon="11.158569"><ele>230.0</ele><time>2026-05-02T10:25:00.545Z</time></trkpt><trkpt lat="42.3712708" lon="11.1586376"><ele>230.00000000000003</ele><time>2026-05-02T10:25:02.544Z</time></trkpt><trkpt lat="42.3712067" lon="11.158699"><ele>230.0</ele><time>2026-05-02T10:25:04.544Z</time></trkpt><trkpt lat="42.3711532" lon="11.1587877"><ele>229.2</ele><time>2026-05-02T10:25:06.544Z</time></trkpt><trkpt lat="42.3711031" lon="11.1588841"><ele>228.4</ele><time>2026-05-02T10:25:08.545Z</time></trkpt><trkpt lat="42.3710407" lon="11.1589778"><ele>227.60000000000002</ele><time>2026-05-02T10:25:10.544Z</time></trkpt><trkpt lat="42.3709641" lon="11.1590624"><ele>226.8</ele><time>2026-05-02T10:25:12.545Z</time></trkpt><trkpt lat="42.3709" lon="11.1591479"><ele>226.0</ele><time>2026-05-02T10:25:14.545Z</time></trkpt><trkpt lat="42.3708245" lon="11.1592477"><ele>225.99999999999997</ele><time>2026-05-02T10:25:16.545Z</time></trkpt><trkpt lat="42.3707469" lon="11.15932"><ele>226.0</ele><time>2026-05-02T10:25:18.544Z</time></trkpt><trkpt lat="42.3706644" lon="11.1593806"><ele>226.0</ele><time>2026-05-02T10:25:20.546Z</time></trkpt><trkpt lat="42.3705879" lon="11.1594386"><ele>226.0</ele><time>2026-05-02T10:25:22.545Z</time></trkpt><trkpt lat="42.3705136" lon="11.1595139"><ele>225.99999999999997</ele><time>2026-05-02T10:25:24.545Z</time></trkpt><trkpt lat="42.3704537" lon="11.159585"><ele>226.0</ele><time>2026-05-02T10:25:26.546Z</time></trkpt><trkpt lat="42.3704036" lon="11.1596505"><ele>224.16666666666666</ele><time>2026-05-02T10:25:28.545Z</time></trkpt><trkpt lat="42.3703734" lon="11.1597299"><ele>222.33333333333331</ele><time>2026-05-02T10:25:30.545Z</time></trkpt><trkpt lat="42.3703449" lon="11.1598179"><ele>220.5</ele><time>2026-05-02T10:25:33.545Z</time></trkpt><trkpt lat="42.3703475" lon="11.1599187"><ele>218.66666666666669</ele><time>2026-05-02T10:25:54.544Z</time></trkpt><trkpt lat="42.3703761" lon="11.1600291"><ele>216.83333333333334</ele><time>2026-05-02T10:25:56.545Z</time></trkpt><trkpt lat="42.3704182" lon="11.1601651"><ele>215.0</ele><time>2026-05-02T10:25:58.545Z</time></trkpt><trkpt lat="42.3704349" lon="11.1602483"><ele>215.00000000000003</ele><time>2026-05-02T10:25:59.545Z</time></trkpt><trkpt lat="42.3704689" lon="11.1603811"><ele>215.0</ele><time>2026-05-02T10:26:01.545Z</time></trkpt><trkpt lat="42.3705143" lon="11.1605071"><ele>215.0</ele><time>2026-05-02T10:26:03.545Z</time></trkpt><trkpt lat="42.370551" lon="11.1605832"><ele>215.0</ele><time>2026-05-02T10:26:04.544Z</time></trkpt><trkpt lat="42.3705899" lon="11.1606544"><ele>215.00000000000003</ele><time>2026-05-02T10:26:05.545Z</time></trkpt><trkpt lat="42.3706279" lon="11.1607324"><ele>215.0</ele><time>2026-05-02T10:26:06.545Z</time></trkpt><trkpt lat="42.3706892" lon="11.1608717"><ele>219.6</ele><time>2026-05-02T10:26:08.544Z</time></trkpt><trkpt lat="42.3707327" lon="11.1610009"><ele>224.2</ele><time>2026-05-02T10:26:10.545Z</time></trkpt><trkpt lat="42.3707451" lon="11.1611288"><ele>228.8</ele><time>2026-05-02T10:26:12.545Z</time></trkpt><trkpt lat="42.3707404" lon="11.161253"><ele>233.4</ele><time>2026-05-02T10:26:14.545Z</time></trkpt><trkpt lat="42.3707125" lon="11.161371"><ele>238.0</ele><time>2026-05-02T10:26:16.546Z</time></trkpt><trkpt lat="42.3707193" lon="11.1614965"><ele>235.83333333333331</ele><time>2026-05-02T10:26:18.545Z</time></trkpt><trkpt lat="42.3707376" lon="11.1616117"><ele>233.66666666666666</ele><time>2026-05-02T10:26:20.545Z</time></trkpt><trkpt lat="42.3707602" lon="11.161729"><ele>231.5</ele><time>2026-05-02T10:26:22.544Z</time></trkpt><trkpt lat="42.3707774" lon="11.1618498"><ele>229.33333333333331</ele><time>2026-05-02T10:26:24.544Z</time></trkpt><trkpt lat="42.3707927" lon="11.1619638"><ele>227.16666666666666</ele><time>2026-05-02T10:26:26.544Z</time></trkpt><trkpt lat="42.3708157" lon="11.1620812"><ele>225.0</ele><time>2026-05-02T10:26:28.544Z</time></trkpt><trkpt lat="42.3708383" lon="11.1621916"><ele>225.0</ele><time>2026-05-02T10:26:30.544Z</time></trkpt><trkpt lat="42.3708696" lon="11.1622965"><ele>225.0</ele><time>2026-05-02T10:26:32.545Z</time></trkpt><trkpt lat="42.3709032" lon="11.1624048"><ele>225.0</ele><time>2026-05-02T10:26:34.544Z</time></trkpt><trkpt lat="42.3709243" lon="11.1625389"><ele>225.0</ele><time>2026-05-02T10:26:36.545Z</time></trkpt><trkpt lat="42.3709488" lon="11.1626904"><ele>225.0</ele><time>2026-05-02T10:26:38.545Z</time></trkpt><trkpt lat="42.3709709" lon="11.1627711"><ele>223.5</ele><time>2026-05-02T10:26:39.545Z</time></trkpt><trkpt lat="42.3709955" lon="11.162861"><ele>222.0</ele><time>2026-05-02T10:26:40.544Z</time></trkpt><trkpt lat="42.3710304" lon="11.1630304"><ele>220.5</ele><time>2026-05-02T10:26:42.544Z</time></trkpt><trkpt lat="42.3710498" lon="11.1631292"><ele>219.0</ele><time>2026-05-02T10:26:43.545Z</time></trkpt><trkpt lat="42.3710615" lon="11.1632165"><ele>217.5</ele><time>2026-05-02T10:26:44.545Z</time></trkpt><trkpt lat="42.3710728" lon="11.1633006"><ele>216.0</ele><time>2026-05-02T10:26:45.545Z</time></trkpt><trkpt lat="42.3710845" lon="11.1634564"><ele>214.8</ele><time>2026-05-02T10:26:47.546Z</time></trkpt><trkpt lat="42.3710938" lon="11.1636177"><ele>213.60000000000002</ele><time>2026-05-02T10:26:49.545Z</time></trkpt><trkpt lat="42.3710828" lon="11.1637619"><ele>212.4</ele><time>2026-05-02T10:26:51.545Z</time></trkpt><trkpt lat="42.3710572" lon="11.1638884"><ele>211.2</ele><time>2026-05-02T10:26:53.544Z</time></trkpt><trkpt lat="42.371034" lon="11.1640171"><ele>210.0</ele><time>2026-05-02T10:26:55.544Z</time></trkpt><trkpt lat="42.3710243" lon="11.1641548"><ele>209.0</ele><time>2026-05-02T10:26:57.543Z</time></trkpt><trkpt lat="42.3710353" lon="11.1643297"><ele>208.0</ele><time>2026-05-02T10:26:59.545Z</time></trkpt><trkpt lat="42.3710423" lon="11.1644353"><ele>207.0</ele><time>2026-05-02T10:27:00.544Z</time></trkpt><trkpt lat="42.3710439" lon="11.1645445"><ele>206.0</ele><time>2026-05-02T10:27:01.545Z</time></trkpt><trkpt lat="42.3710487" lon="11.1646551"><ele>205.0</ele><time>2026-05-02T10:27:02.544Z</time></trkpt><trkpt lat="42.37105" lon="11.1647664"><ele>204.16666666666666</ele><time>2026-05-02T10:27:03.545Z</time></trkpt><trkpt lat="42.3710564" lon="11.1648818"><ele>203.33333333333331</ele><time>2026-05-02T10:27:04.544Z</time></trkpt><trkpt lat="42.371055" lon="11.1649829"><ele>202.5</ele><time>2026-05-02T10:27:05.544Z</time></trkpt><trkpt lat="42.3710494" lon="11.1650843"><ele>201.66666666666669</ele><time>2026-05-02T10:27:06.544Z</time></trkpt><trkpt lat="42.3710412" lon="11.1651967"><ele>200.83333333333334</ele><time>2026-05-02T10:27:07.544Z</time></trkpt><trkpt lat="42.3710341" lon="11.1653086"><ele>200.0</ele><time>2026-05-02T10:27:08.544Z</time></trkpt><trkpt lat="42.3710256" lon="11.1654065"><ele>200.00000000000003</ele><time>2026-05-02T10:27:09.545Z</time></trkpt><trkpt lat="42.3710139" lon="11.1654906"><ele>200.0</ele><time>2026-05-02T10:27:10.544Z</time></trkpt><trkpt lat="42.3710053" lon="11.1655927"><ele>200.0</ele><time>2026-05-02T10:27:11.545Z</time></trkpt><trkpt lat="42.3710026" lon="11.1656827"><ele>200.0</ele><time>2026-05-02T10:27:12.545Z</time></trkpt><trkpt lat="42.3709923" lon="11.1657718"><ele>200.0</ele><time>2026-05-02T10:27:13.544Z</time></trkpt><trkpt lat="42.3709877" lon="11.1658941"><ele>200.00000000000003</ele><time>2026-05-02T10:27:15.544Z</time></trkpt><trkpt lat="42.3710173" lon="11.1659888"><ele>200.0</ele><time>2026-05-02T10:27:17.544Z</time></trkpt><trkpt lat="42.3710838" lon="11.166063"><ele>198.6</ele><time>2026-05-02T10:27:19.543Z</time></trkpt><trkpt lat="42.3711918" lon="11.166091"><ele>197.2</ele><time>2026-05-02T10:27:21.544Z</time></trkpt><trkpt lat="42.3713014" lon="11.1660919"><ele>195.8</ele><time>2026-05-02T10:27:23.544Z</time></trkpt><trkpt lat="42.3714032" lon="11.1660812"><ele>194.4</ele><time>2026-05-02T10:27:25.544Z</time></trkpt><trkpt lat="42.3714738" lon="11.1661177"><ele>193.0</ele><time>2026-05-02T10:27:27.544Z</time></trkpt><trkpt lat="42.371499" lon="11.1662095"><ele>191.60000000000002</ele><time>2026-05-02T10:27:29.544Z</time></trkpt><trkpt lat="42.3714546" lon="11.1663186"><ele>190.20000000000002</ele><time>2026-05-02T10:27:31.546Z</time></trkpt><trkpt lat="42.3714058" lon="11.1664525"><ele>188.8</ele><time>2026-05-02T10:27:33.544Z</time></trkpt><trkpt lat="42.3713976" lon="11.1665953"><ele>187.4</ele><time>2026-05-02T10:27:35.544Z</time></trkpt><trkpt lat="42.3713959" lon="11.1667299"><ele>186.0</ele><time>2026-05-02T10:27:37.543Z</time></trkpt><trkpt lat="42.3713399" lon="11.1668814"><ele>186.0</ele><time>2026-05-02T10:27:39.543Z</time></trkpt><trkpt lat="42.3712978" lon="11.1669687"><ele>186.0</ele><time>2026-05-02T10:27:40.543Z</time></trkpt><trkpt lat="42.3712584" lon="11.1670719"><ele>186.0</ele><time>2026-05-02T10:27:41.543Z</time></trkpt><trkpt lat="42.371214" lon="11.1671715"><ele>186.0</ele><time>2026-05-02T10:27:42.544Z</time></trkpt><trkpt lat="42.3711742" lon="11.1673112"><ele>186.0</ele><time>2026-05-02T10:27:43.544Z</time></trkpt><trkpt lat="42.3711362" lon="11.1674384"><ele>185.16666666666666</ele><time>2026-05-02T10:27:44.544Z</time></trkpt><trkpt lat="42.3710962" lon="11.1675467"><ele>184.33333333333334</ele><time>2026-05-02T10:27:45.543Z</time></trkpt><trkpt lat="42.3710598" lon="11.167656"><ele>183.5</ele><time>2026-05-02T10:27:46.543Z</time></trkpt><trkpt lat="42.3710182" lon="11.1677578"><ele>182.66666666666669</ele><time>2026-05-02T10:27:47.544Z</time></trkpt><trkpt lat="42.3709809" lon="11.1678464"><ele>181.83333333333334</ele><time>2026-05-02T10:27:48.544Z</time></trkpt><trkpt lat="42.37095" lon="11.1679401"><ele>181.0</ele><time>2026-05-02T10:27:49.544Z</time></trkpt><trkpt lat="42.3709171" lon="11.1680338"><ele>181.0</ele><time>2026-05-02T10:27:50.544Z</time></trkpt><trkpt lat="42.3708866" lon="11.168137"><ele>181.0</ele><time>2026-05-02T10:27:51.545Z</time></trkpt><trkpt lat="42.3708493" lon="11.1682528"><ele>181.0</ele><time>2026-05-02T10:27:52.544Z</time></trkpt><trkpt lat="42.3708116" lon="11.1683687"><ele>181.0</ele><time>2026-05-02T10:27:53.545Z</time></trkpt><trkpt lat="42.3707869" lon="11.1684678"><ele>181.0</ele><time>2026-05-02T10:27:54.543Z</time></trkpt><trkpt lat="42.3707629" lon="11.1685614"><ele>181.0</ele><time>2026-05-02T10:27:55.545Z</time></trkpt><trkpt lat="42.3707601" lon="11.1687361"><ele>181.57142857142856</ele><time>2026-05-02T10:27:57.544Z</time></trkpt><trkpt lat="42.3707742" lon="11.1688298"><ele>182.14285714285714</ele><time>2026-05-02T10:27:58.545Z</time></trkpt><trkpt lat="42.3707935" lon="11.1689313"><ele>182.71428571428572</ele><time>2026-05-02T10:27:59.544Z</time></trkpt><trkpt lat="42.370811" lon="11.1690176"><ele>183.28571428571428</ele><time>2026-05-02T10:28:00.545Z</time></trkpt><trkpt lat="42.3708296" lon="11.1691099"><ele>183.85714285714286</ele><time>2026-05-02T10:28:01.545Z</time></trkpt><trkpt lat="42.3708236" lon="11.1692032"><ele>184.42857142857142</ele><time>2026-05-02T10:28:02.544Z</time></trkpt><trkpt lat="42.3708334" lon="11.1692923"><ele>185.0</ele><time>2026-05-02T10:28:03.543Z</time></trkpt><trkpt lat="42.3708352" lon="11.1693797"><ele>185.0</ele><time>2026-05-02T10:28:04.543Z</time></trkpt><trkpt lat="42.370797" lon="11.1695382"><ele>185.0</ele><time>2026-05-02T10:28:06.545Z</time></trkpt><trkpt lat="42.3707702" lon="11.16964"><ele>185.0</ele><time>2026-05-02T10:28:07.544Z</time></trkpt><trkpt lat="42.3707363" lon="11.1697295"><ele>185.0</ele><time>2026-05-02T10:28:08.543Z</time></trkpt><trkpt lat="42.3706986" lon="11.1698125"><ele>185.0</ele><time>2026-05-02T10:28:09.544Z</time></trkpt><trkpt lat="42.370635" lon="11.1699361"><ele>184.14285714285714</ele><time>2026-05-02T10:28:11.545Z</time></trkpt><trkpt lat="42.3706217" lon="11.1700214"><ele>183.28571428571428</ele><time>2026-05-02T10:28:13.546Z</time></trkpt><trkpt lat="42.3706583" lon="11.1701115"><ele>182.42857142857144</ele><time>2026-05-02T10:28:16.543Z</time></trkpt><trkpt lat="42.3707219" lon="11.1701683"><ele>181.57142857142856</ele><time>2026-05-02T10:28:17.545Z</time></trkpt><trkpt lat="42.3707828" lon="11.1702226"><ele>180.71428571428572</ele><time>2026-05-02T10:28:18.544Z</time></trkpt><trkpt lat="42.3708578" lon="11.1702672"><ele>179.85714285714286</ele><time>2026-05-02T10:28:19.544Z</time></trkpt><trkpt lat="42.3709282" lon="11.1703091"><ele>179.0</ele><time>2026-05-02T10:28:20.543Z</time></trkpt><trkpt lat="42.370997" lon="11.1703414"><ele>179.0</ele><time>2026-05-02T10:28:21.544Z</time></trkpt><trkpt lat="42.3710685" lon="11.1703743"><ele>179.0</ele><time>2026-05-02T10:28:22.544Z</time></trkpt><trkpt lat="42.3711437" lon="11.1704111"><ele>179.0</ele><time>2026-05-02T10:28:23.544Z</time></trkpt><trkpt lat="42.3712297" lon="11.1704353"><ele>179.0</ele><time>2026-05-02T10:28:24.543Z</time></trkpt><trkpt lat="42.3713117" lon="11.1704674"><ele>179.0</ele><time>2026-05-02T10:28:25.544Z</time></trkpt><trkpt lat="42.3713912" lon="11.1704983"><ele>179.0</ele><time>2026-05-02T10:28:26.544Z</time></trkpt><trkpt lat="42.3714765" lon="11.1705405"><ele>178.0</ele><time>2026-05-02T10:28:27.544Z</time></trkpt><trkpt lat="42.3715502" lon="11.1705857"><ele>177.0</ele><time>2026-05-02T10:28:28.543Z</time></trkpt><trkpt lat="42.3716162" lon="11.1706254"><ele>176.0</ele><time>2026-05-02T10:28:29.543Z</time></trkpt><trkpt lat="42.3716826" lon="11.1706625"><ele>175.0</ele><time>2026-05-02T10:28:30.544Z</time></trkpt><trkpt lat="42.3717482" lon="11.1707047"><ele>174.0</ele><time>2026-05-02T10:28:31.543Z</time></trkpt><trkpt lat="42.3718124" lon="11.1707569"><ele>173.0</ele><time>2026-05-02T10:28:32.545Z</time></trkpt><trkpt lat="42.371872" lon="11.1708286"><ele>173.0</ele><time>2026-05-02T10:28:33.544Z</time></trkpt><trkpt lat="42.3719243" lon="11.1709056"><ele>173.0</ele><time>2026-05-02T10:28:34.544Z</time></trkpt><trkpt lat="42.3719686" lon="11.1710002"><ele>173.0</ele><time>2026-05-02T10:28:35.544Z</time></trkpt><trkpt lat="42.3720039" lon="11.1711037"><ele>173.0</ele><time>2026-05-02T10:28:36.543Z</time></trkpt><trkpt lat="42.3720456" lon="11.1712136"><ele>173.0</ele><time>2026-05-02T10:28:37.544Z</time></trkpt><trkpt lat="42.3720814" lon="11.1713075"><ele>173.0</ele><time>2026-05-02T10:28:38.544Z</time></trkpt><trkpt lat="42.3721122" lon="11.1714138"><ele>176.16666666666666</ele><time>2026-05-02T10:28:39.544Z</time></trkpt><trkpt lat="42.3721343" lon="11.1715256"><ele>179.33333333333331</ele><time>2026-05-02T10:28:40.544Z</time></trkpt><trkpt lat="42.3721587" lon="11.1716327"><ele>182.5</ele><time>2026-05-02T10:28:41.543Z</time></trkpt><trkpt lat="42.3721833" lon="11.1717184"><ele>185.66666666666666</ele><time>2026-05-02T10:28:42.545Z</time></trkpt><trkpt lat="42.3721942" lon="11.1718146"><ele>188.83333333333334</ele><time>2026-05-02T10:28:43.544Z</time></trkpt><trkpt lat="42.3722066" lon="11.1719133"><ele>192.0</ele><time>2026-05-02T10:28:44.543Z</time></trkpt><trkpt lat="42.3722211" lon="11.1720135"><ele>192.0</ele><time>2026-05-02T10:28:45.544Z</time></trkpt><trkpt lat="42.3722373" lon="11.1721146"><ele>192.0</ele><time>2026-05-02T10:28:46.544Z</time></trkpt><trkpt lat="42.3722639" lon="11.1722118"><ele>192.0</ele><time>2026-05-02T10:28:47.544Z</time></trkpt><trkpt lat="42.3723139" lon="11.1723245"><ele>192.0</ele><time>2026-05-02T10:28:48.543Z</time></trkpt><trkpt lat="42.3723588" lon="11.1724257"><ele>192.0</ele><time>2026-05-02T10:28:49.544Z</time></trkpt><trkpt lat="42.372397" lon="11.1725463"><ele>192.0</ele><time>2026-05-02T10:28:50.544Z</time></trkpt><trkpt lat="42.3724254" lon="11.1726695"><ele>188.66666666666666</ele><time>2026-05-02T10:28:51.544Z</time></trkpt><trkpt lat="42.3724502" lon="11.1727804"><ele>185.33333333333334</ele><time>2026-05-02T10:28:52.545Z</time></trkpt><trkpt lat="42.3724739" lon="11.1728856"><ele>182.0</ele><time>2026-05-02T10:28:53.544Z</time></trkpt><trkpt lat="42.3725195" lon="11.1729565"><ele>178.66666666666669</ele><time>2026-05-02T10:28:54.544Z</time></trkpt><trkpt lat="42.3725645" lon="11.1730258"><ele>175.33333333333334</ele><time>2026-05-02T10:28:55.545Z</time></trkpt><trkpt lat="42.3726347" lon="11.1730935"><ele>172.0</ele><time>2026-05-02T10:28:56.543Z</time></trkpt><trkpt lat="42.3727053" lon="11.1731572"><ele>174.2</ele><time>2026-05-02T10:28:57.544Z</time></trkpt><trkpt lat="42.3727738" lon="11.1732522"><ele>176.39999999999998</ele><time>2026-05-02T10:28:58.544Z</time></trkpt><trkpt lat="42.3728546" lon="11.1733686"><ele>178.60000000000002</ele><time>2026-05-02T10:28:59.545Z</time></trkpt><trkpt lat="42.3729292" lon="11.1734769"><ele>180.8</ele><time>2026-05-02T10:29:00.544Z</time></trkpt><trkpt lat="42.3729985" lon="11.1735698"><ele>183.0</ele><time>2026-05-02T10:29:01.545Z</time></trkpt><trkpt lat="42.3730702" lon="11.1736718"><ele>183.0</ele><time>2026-05-02T10:29:02.544Z</time></trkpt><trkpt lat="42.37313" lon="11.1737569"><ele>183.0</ele><time>2026-05-02T10:29:03.544Z</time></trkpt><trkpt lat="42.3731758" lon="11.1738338"><ele>183.0</ele><time>2026-05-02T10:29:04.544Z</time></trkpt><trkpt lat="42.3732216" lon="11.1739059"><ele>183.0</ele><time>2026-05-02T10:29:05.544Z</time></trkpt><trkpt lat="42.3732499" lon="11.1740645"><ele>183.0</ele><time>2026-05-02T10:29:07.544Z</time></trkpt><trkpt lat="42.3732749" lon="11.1741629"><ele>183.0</ele><time>2026-05-02T10:29:08.544Z</time></trkpt><trkpt lat="42.3733016" lon="11.1742648"><ele>180.16666666666666</ele><time>2026-05-02T10:29:09.543Z</time></trkpt><trkpt lat="42.3733287" lon="11.1743782"><ele>177.33333333333334</ele><time>2026-05-02T10:29:10.544Z</time></trkpt><trkpt lat="42.3733571" lon="11.1745049"><ele>174.5</ele><time>2026-05-02T10:29:11.543Z</time></trkpt><trkpt lat="42.3733892" lon="11.1746237"><ele>171.66666666666669</ele><time>2026-05-02T10:29:12.545Z</time></trkpt><trkpt lat="42.373419" lon="11.1747292"><ele>168.83333333333334</ele><time>2026-05-02T10:29:13.544Z</time></trkpt><trkpt lat="42.3734522" lon="11.1748311"><ele>166.0</ele><time>2026-05-02T10:29:14.544Z</time></trkpt><trkpt lat="42.3734801" lon="11.1749329"><ele>164.42857142857142</ele><time>2026-05-02T10:29:15.542Z</time></trkpt><trkpt lat="42.3735055" lon="11.1750311"><ele>162.85714285714286</ele><time>2026-05-02T10:29:16.544Z</time></trkpt><trkpt lat="42.3735297" lon="11.1751113"><ele>161.28571428571428</ele><time>2026-05-02T10:29:17.543Z</time></trkpt><trkpt lat="42.373562" lon="11.1751912"><ele>159.71428571428572</ele><time>2026-05-02T10:29:18.543Z</time></trkpt><trkpt lat="42.3736062" lon="11.1752725"><ele>158.14285714285714</ele><time>2026-05-02T10:29:19.544Z</time></trkpt><trkpt lat="42.3736569" lon="11.175357"><ele>156.57142857142858</ele><time>2026-05-02T10:29:20.543Z</time></trkpt><trkpt lat="42.3737094" lon="11.175448"><ele>155.0</ele><time>2026-05-02T10:29:21.543Z</time></trkpt><trkpt lat="42.3737445" lon="11.1755211"><ele>155.0</ele><time>2026-05-02T10:29:22.544Z</time></trkpt><trkpt lat="42.3737884" lon="11.1756442"><ele>155.0</ele><time>2026-05-02T10:29:24.543Z</time></trkpt><trkpt lat="42.373795" lon="11.1757749"><ele>155.0</ele><time>2026-05-02T10:29:26.544Z</time></trkpt><trkpt lat="42.3737698" lon="11.1758579"><ele>155.0</ele><time>2026-05-02T10:29:27.543Z</time></trkpt><trkpt lat="42.3737299" lon="11.1759379"><ele>155.0</ele><time>2026-05-02T10:29:28.544Z</time></trkpt><trkpt lat="42.3736712" lon="11.1760386"><ele>155.0</ele><time>2026-05-02T10:29:29.543Z</time></trkpt><trkpt lat="42.3735969" lon="11.1761546"><ele>154.8</ele><time>2026-05-02T10:29:30.545Z</time></trkpt><trkpt lat="42.3735284" lon="11.1762532"><ele>154.6</ele><time>2026-05-02T10:29:31.544Z</time></trkpt><trkpt lat="42.3734523" lon="11.1763559"><ele>154.4</ele><time>2026-05-02T10:29:32.544Z</time></trkpt><trkpt lat="42.3733715" lon="11.17646"><ele>154.2</ele><time>2026-05-02T10:29:33.543Z</time></trkpt><trkpt lat="42.3732984" lon="11.1765474"><ele>154.0</ele><time>2026-05-02T10:29:34.544Z</time></trkpt><trkpt lat="42.3732339" lon="11.1766309"><ele>153.2</ele><time>2026-05-02T10:29:35.543Z</time></trkpt><trkpt lat="42.3731566" lon="11.1766976"><ele>152.4</ele><time>2026-05-02T10:29:36.545Z</time></trkpt><trkpt lat="42.3730631" lon="11.176759"><ele>151.6</ele><time>2026-05-02T10:29:37.544Z</time></trkpt><trkpt lat="42.3729594" lon="11.1768183"><ele>150.8</ele><time>2026-05-02T10:29:38.543Z</time></trkpt><trkpt lat="42.3728574" lon="11.1768743"><ele>150.0</ele><time>2026-05-02T10:29:39.545Z</time></trkpt><trkpt lat="42.3727576" lon="11.1769064"><ele>150.0</ele><time>2026-05-02T10:29:40.543Z</time></trkpt><trkpt lat="42.3726738" lon="11.1769277"><ele>150.0</ele><time>2026-05-02T10:29:41.544Z</time></trkpt><trkpt lat="42.3726078" lon="11.1769392"><ele>150.0</ele><time>2026-05-02T10:29:42.544Z</time></trkpt><trkpt lat="42.3725112" lon="11.1769679"><ele>150.0</ele><time>2026-05-02T10:29:44.544Z</time></trkpt><trkpt lat="42.3724219" lon="11.1770172"><ele>150.0</ele><time>2026-05-02T10:29:46.543Z</time></trkpt><trkpt lat="42.3723376" lon="11.1770495"><ele>150.0</ele><time>2026-05-02T10:29:48.543Z</time></trkpt><trkpt lat="42.3722585" lon="11.1770885"><ele>152.0</ele><time>2026-05-02T10:29:50.544Z</time></trkpt><trkpt lat="42.3721676" lon="11.1771154"><ele>154.0</ele><time>2026-05-02T10:29:53.545Z</time></trkpt><trkpt lat="42.3720813" lon="11.1771843"><ele>156.0</ele><time>2026-05-02T10:29:55.544Z</time></trkpt><trkpt lat="42.3719802" lon="11.1773242"><ele>158.0</ele><time>2026-05-02T10:29:57.544Z</time></trkpt><trkpt lat="42.3719025" lon="11.1774267"><ele>160.0</ele><time>2026-05-02T10:29:58.543Z</time></trkpt><trkpt lat="42.3718116" lon="11.1775494"><ele>160.0</ele><time>2026-05-02T10:29:59.544Z</time></trkpt><trkpt lat="42.371738" lon="11.1776649"><ele>160.0</ele><time>2026-05-02T10:30:00.542Z</time></trkpt><trkpt lat="42.3716655" lon="11.1777589"><ele>160.0</ele><time>2026-05-02T10:30:01.543Z</time></trkpt><trkpt lat="42.3716107" lon="11.1778422"><ele>160.0</ele><time>2026-05-02T10:30:02.544Z</time></trkpt><trkpt lat="42.3715685" lon="11.1779313"><ele>160.0</ele><time>2026-05-02T10:30:03.544Z</time></trkpt><trkpt lat="42.3715478" lon="11.1780141"><ele>160.0</ele><time>2026-05-02T10:30:04.543Z</time></trkpt><trkpt lat="42.3715484" lon="11.1781066"><ele>162.16666666666669</ele><time>2026-05-02T10:30:05.543Z</time></trkpt><trkpt lat="42.3715753" lon="11.1782115"><ele>164.33333333333334</ele><time>2026-05-02T10:30:06.544Z</time></trkpt><trkpt lat="42.3716101" lon="11.1783384"><ele>166.5</ele><time>2026-05-02T10:30:07.544Z</time></trkpt><trkpt lat="42.3716529" lon="11.1784639"><ele>168.66666666666666</ele><time>2026-05-02T10:30:08.543Z</time></trkpt><trkpt lat="42.3716915" lon="11.1785727"><ele>170.83333333333331</ele><time>2026-05-02T10:30:09.543Z</time></trkpt><trkpt lat="42.3717164" lon="11.1786655"><ele>173.0</ele><time>2026-05-02T10:30:10.543Z</time></trkpt><trkpt lat="42.3717297" lon="11.178756"><ele>173.0</ele><time>2026-05-02T10:30:11.544Z</time></trkpt><trkpt lat="42.3717196" lon="11.178849"><ele>173.0</ele><time>2026-05-02T10:30:12.544Z</time></trkpt><trkpt lat="42.3716942" lon="11.1789619"><ele>173.0</ele><time>2026-05-02T10:30:13.544Z</time></trkpt><trkpt lat="42.3716479" lon="11.1790723"><ele>173.0</ele><time>2026-05-02T10:30:14.544Z</time></trkpt><trkpt lat="42.3715818" lon="11.1792005"><ele>173.0</ele><time>2026-05-02T10:30:15.543Z</time></trkpt><trkpt lat="42.371519" lon="11.1793199"><ele>174.0</ele><time>2026-05-02T10:30:16.543Z</time></trkpt><trkpt lat="42.3714529" lon="11.1794375"><ele>175.0</ele><time>2026-05-02T10:30:17.545Z</time></trkpt><trkpt lat="42.3713887" lon="11.179549"><ele>176.0</ele><time>2026-05-02T10:30:18.544Z</time></trkpt><trkpt lat="42.3713174" lon="11.1796605"><ele>177.0</ele><time>2026-05-02T10:30:19.544Z</time></trkpt><trkpt lat="42.3712499" lon="11.1798052"><ele>178.0</ele><time>2026-05-02T10:30:20.544Z</time></trkpt><trkpt lat="42.3711888" lon="11.1799363"><ele>173.4</ele><time>2026-05-02T10:30:21.543Z</time></trkpt><trkpt lat="42.3711233" lon="11.1800355"><ele>168.8</ele><time>2026-05-02T10:30:22.543Z</time></trkpt><trkpt lat="42.3710551" lon="11.1801469"><ele>164.2</ele><time>2026-05-02T10:30:23.543Z</time></trkpt><trkpt lat="42.3709729" lon="11.1802427"><ele>159.6</ele><time>2026-05-02T10:30:24.544Z</time></trkpt><trkpt lat="42.3708923" lon="11.1803419"><ele>155.0</ele><time>2026-05-02T10:30:25.543Z</time></trkpt><trkpt lat="42.370791" lon="11.1804391"><ele>155.0</ele><time>2026-05-02T10:30:26.543Z</time></trkpt><trkpt lat="42.3707006" lon="11.1805558"><ele>155.0</ele><time>2026-05-02T10:30:27.544Z</time></trkpt><trkpt lat="42.3706208" lon="11.1806729"><ele>155.0</ele><time>2026-05-02T10:30:28.543Z</time></trkpt><trkpt lat="42.3705483" lon="11.1807864"><ele>155.0</ele><time>2026-05-02T10:30:29.543Z</time></trkpt><trkpt lat="42.3704833" lon="11.1808723"><ele>155.0</ele><time>2026-05-02T10:30:30.544Z</time></trkpt><trkpt lat="42.3704103" lon="11.1809481"><ele>153.0</ele><time>2026-05-02T10:30:31.543Z</time></trkpt><trkpt lat="42.3703486" lon="11.1810322"><ele>151.0</ele><time>2026-05-02T10:30:32.544Z</time></trkpt><trkpt lat="42.3703004" lon="11.1811265"><ele>149.0</ele><time>2026-05-02T10:30:33.544Z</time></trkpt><trkpt lat="42.3702682" lon="11.1812198"><ele>147.0</ele><time>2026-05-02T10:30:34.545Z</time></trkpt><trkpt lat="42.3702541" lon="11.1813784"><ele>145.0</ele><time>2026-05-02T10:30:36.542Z</time></trkpt><trkpt lat="42.3702809" lon="11.1815012"><ele>145.0</ele><time>2026-05-02T10:30:38.545Z</time></trkpt><trkpt lat="42.3703208" lon="11.1816148"><ele>168.0</ele><time>2026-05-02T10:30:40.544Z</time></trkpt><trkpt lat="42.3703671" lon="11.1817113"><ele>168.0</ele><time>2026-05-02T10:30:42.544Z</time></trkpt><trkpt lat="42.370413" lon="11.1817825"><ele>168.0</ele><time>2026-05-02T10:30:44.543Z</time></trkpt><trkpt lat="42.3704725" lon="11.1818666"><ele>168.0</ele><time>2026-05-02T10:30:47.542Z</time></trkpt></trkseg><trkseg><trkpt lat="42.3706223" lon="11.1818758"><ele>177.0</ele><time>2026-05-02T10:47:02.54Z</time></trkpt><trkpt lat="42.3706884" lon="11.1818649"><ele>177.0</ele><time>2026-05-02T10:47:04.539Z</time></trkpt><trkpt lat="42.3707736" lon="11.1818889"><ele>177.0</ele><time>2026-05-02T10:47:06.539Z</time></trkpt><trkpt lat="42.3708612" lon="11.1819015"><ele>177.0</ele><time>2026-05-02T10:47:08.539Z</time></trkpt><trkpt lat="42.3709629" lon="11.1818969"><ele>177.0</ele><time>2026-05-02T10:47:10.54Z</time></trkpt><trkpt lat="42.3710714" lon="11.1818952"><ele>177.0</ele><time>2026-05-02T10:47:12.538Z</time></trkpt><trkpt lat="42.3711788" lon="11.1818993"><ele>177.0</ele><time>2026-05-02T10:47:14.539Z</time></trkpt><trkpt lat="42.3712985" lon="11.1819041"><ele>177.0</ele><time>2026-05-02T10:47:16.538Z</time></trkpt><trkpt lat="42.3714204" lon="11.1819149"><ele>177.0</ele><time>2026-05-02T10:47:18.538Z</time></trkpt><trkpt lat="42.371485" lon="11.1819232"><ele>177.0</ele><time>2026-05-02T10:47:19.54Z</time></trkpt><trkpt lat="42.3716049" lon="11.1819341"><ele>176.39999999999998</ele><time>2026-05-02T10:47:21.54Z</time></trkpt><trkpt lat="42.3716686" lon="11.1819486"><ele>175.79999999999998</ele><time>2026-05-02T10:47:22.538Z</time></trkpt><trkpt lat="42.3717924" lon="11.1819691"><ele>175.2</ele><time>2026-05-02T10:47:24.539Z</time></trkpt><trkpt lat="42.3718549" lon="11.1819826"><ele>174.6</ele><time>2026-05-02T10:47:25.539Z</time></trkpt><trkpt lat="42.3719637" lon="11.1820075"><ele>174.0</ele><time>2026-05-02T10:47:27.539Z</time></trkpt><trkpt lat="42.3720596" lon="11.1820315"><ele>174.0</ele><time>2026-05-02T10:47:29.538Z</time></trkpt><trkpt lat="42.3721552" lon="11.1820588"><ele>174.0</ele><time>2026-05-02T10:47:31.538Z</time></trkpt><trkpt lat="42.3722606" lon="11.1820879"><ele>174.0</ele><time>2026-05-02T10:47:33.539Z</time></trkpt><trkpt lat="42.3723677" lon="11.182142"><ele>174.0</ele><time>2026-05-02T10:47:35.539Z</time></trkpt><trkpt lat="42.3724712" lon="11.1821862"><ele>174.0</ele><time>2026-05-02T10:47:37.538Z</time></trkpt><trkpt lat="42.372574" lon="11.1822222"><ele>172.6</ele><time>2026-05-02T10:47:39.537Z</time></trkpt><trkpt lat="42.3726611" lon="11.1822482"><ele>171.2</ele><time>2026-05-02T10:47:41.538Z</time></trkpt><trkpt lat="42.3727482" lon="11.1822903"><ele>169.79999999999998</ele><time>2026-05-02T10:47:43.538Z</time></trkpt><trkpt lat="42.3728517" lon="11.1823049"><ele>168.39999999999998</ele><time>2026-05-02T10:47:45.54Z</time></trkpt><trkpt lat="42.372948" lon="11.1823021"><ele>167.0</ele><time>2026-05-02T10:47:47.539Z</time></trkpt><trkpt lat="42.3730369" lon="11.1822607"><ele>165.2</ele><time>2026-05-02T10:47:49.539Z</time></trkpt><trkpt lat="42.3731232" lon="11.1821996"><ele>163.39999999999998</ele><time>2026-05-02T10:47:51.539Z</time></trkpt><trkpt lat="42.3732021" lon="11.1821308"><ele>161.60000000000002</ele><time>2026-05-02T10:47:53.539Z</time></trkpt><trkpt lat="42.373278" lon="11.1820604"><ele>159.8</ele><time>2026-05-02T10:47:55.537Z</time></trkpt><trkpt lat="42.3733545" lon="11.1820027"><ele>158.0</ele><time>2026-05-02T10:47:57.539Z</time></trkpt><trkpt lat="42.3734377" lon="11.181955"><ele>158.0</ele><time>2026-05-02T10:47:59.537Z</time></trkpt><trkpt lat="42.3735226" lon="11.1819169"><ele>158.0</ele><time>2026-05-02T10:48:01.539Z</time></trkpt><trkpt lat="42.3735988" lon="11.1818951"><ele>158.0</ele><time>2026-05-02T10:48:03.538Z</time></trkpt><trkpt lat="42.3736624" lon="11.1818683"><ele>158.0</ele><time>2026-05-02T10:48:05.538Z</time></trkpt><trkpt lat="42.3737512" lon="11.1818375"><ele>158.0</ele><time>2026-05-02T10:48:08.539Z</time></trkpt><trkpt lat="42.373841" lon="11.181843"><ele>158.0</ele><time>2026-05-02T10:48:11.539Z</time></trkpt><trkpt lat="42.3738837" lon="11.1819208"><ele>158.00000000000003</ele><time>2026-05-02T10:48:13.538Z</time></trkpt><trkpt lat="42.3738817" lon="11.1820262"><ele>158.0</ele><time>2026-05-02T10:48:15.54Z</time></trkpt><trkpt lat="42.3738675" lon="11.182121"><ele>158.0</ele><time>2026-05-02T10:48:18.537Z</time></trkpt><trkpt lat="42.3738618" lon="11.1822069"><ele>158.0</ele><time>2026-05-02T10:48:21.538Z</time></trkpt><trkpt lat="42.3738376" lon="11.1822884"><ele>158.0</ele><time>2026-05-02T10:48:24.538Z</time></trkpt><trkpt lat="42.3737904" lon="11.1823475"><ele>158.00000000000003</ele><time>2026-05-02T10:48:28.537Z</time></trkpt><trkpt lat="42.3736941" lon="11.1823778"><ele>158.0</ele><time>2026-05-02T10:48:31.537Z</time></trkpt><trkpt lat="42.3736149" lon="11.1823777"><ele>154.66666666666666</ele><time>2026-05-02T10:48:33.54Z</time></trkpt><trkpt lat="42.3735413" lon="11.1824311"><ele>151.33333333333331</ele><time>2026-05-02T10:48:35.538Z</time></trkpt><trkpt lat="42.3735043" lon="11.1825203"><ele>148.0</ele><time>2026-05-02T10:48:37.538Z</time></trkpt><trkpt lat="42.373492" lon="11.1826188"><ele>144.66666666666666</ele><time>2026-05-02T10:48:39.538Z</time></trkpt><trkpt lat="42.3735091" lon="11.182717"><ele>141.33333333333334</ele><time>2026-05-02T10:48:41.539Z</time></trkpt><trkpt lat="42.3735391" lon="11.1828017"><ele>138.0</ele><time>2026-05-02T10:48:43.538Z</time></trkpt><trkpt lat="42.3735988" lon="11.1828661"><ele>138.0</ele><time>2026-05-02T10:48:45.538Z</time></trkpt><trkpt lat="42.3736833" lon="11.1828723"><ele>138.0</ele><time>2026-05-02T10:48:48.538Z</time></trkpt><trkpt lat="42.3737501" lon="11.1828772"><ele>138.0</ele><time>2026-05-02T10:48:50.538Z</time></trkpt><trkpt lat="42.3738283" lon="11.1828945"><ele>138.0</ele><time>2026-05-02T10:48:52.537Z</time></trkpt><trkpt lat="42.3739025" lon="11.1829374"><ele>138.0</ele><time>2026-05-02T10:48:54.538Z</time></trkpt><trkpt lat="42.3739911" lon="11.1830375"><ele>138.0</ele><time>2026-05-02T10:48:56.537Z</time></trkpt><trkpt lat="42.3740753" lon="11.1831529"><ele>134.4</ele><time>2026-05-02T10:48:58.538Z</time></trkpt><trkpt lat="42.3741503" lon="11.1832701"><ele>130.8</ele><time>2026-05-02T10:49:00.539Z</time></trkpt><trkpt lat="42.3741988" lon="11.1833714"><ele>127.2</ele><time>2026-05-02T10:49:02.537Z</time></trkpt><trkpt lat="42.3742088" lon="11.1834912"><ele>123.6</ele><time>2026-05-02T10:49:05.538Z</time></trkpt><trkpt lat="42.3741374" lon="11.1835011"><ele>120.0</ele><time>2026-05-02T10:49:06.538Z</time></trkpt><trkpt lat="42.3740211" lon="11.1835418"><ele>120.0</ele><time>2026-05-02T10:49:08.538Z</time></trkpt><trkpt lat="42.3739242" lon="11.1836248"><ele>120.0</ele><time>2026-05-02T10:49:10.537Z</time></trkpt><trkpt lat="42.3738572" lon="11.183712"><ele>120.0</ele><time>2026-05-02T10:49:12.538Z</time></trkpt><trkpt lat="42.3738041" lon="11.1838067"><ele>120.0</ele><time>2026-05-02T10:49:14.538Z</time></trkpt><trkpt lat="42.3737672" lon="11.1838797"><ele>120.0</ele><time>2026-05-02T10:49:16.538Z</time></trkpt><trkpt lat="42.3737405" lon="11.1839811"><ele>120.0</ele><time>2026-05-02T10:49:19.537Z</time></trkpt><trkpt lat="42.3737752" lon="11.1840555"><ele>115.6</ele><time>2026-05-02T10:49:21.538Z</time></trkpt><trkpt lat="42.3738797" lon="11.1841149"><ele>111.2</ele><time>2026-05-02T10:49:23.537Z</time></trkpt><trkpt lat="42.3739567" lon="11.1841758"><ele>106.80000000000001</ele><time>2026-05-02T10:49:25.539Z</time></trkpt><trkpt lat="42.3740268" lon="11.1842254"><ele>102.4</ele><time>2026-05-02T10:49:27.539Z</time></trkpt><trkpt lat="42.3740953" lon="11.184272"><ele>98.0</ele><time>2026-05-02T10:49:29.538Z</time></trkpt><trkpt lat="42.3741755" lon="11.1843473"><ele>97.99999999999999</ele><time>2026-05-02T10:49:31.539Z</time></trkpt><trkpt lat="42.3742272" lon="11.1844465"><ele>98.0</ele><time>2026-05-02T10:49:33.539Z</time></trkpt><trkpt lat="42.3742411" lon="11.1845617"><ele>98.0</ele><time>2026-05-02T10:49:35.537Z</time></trkpt><trkpt lat="42.3742397" lon="11.1846679"><ele>98.0</ele><time>2026-05-02T10:49:37.538Z</time></trkpt><trkpt lat="42.3742383" lon="11.1847637"><ele>97.99999999999999</ele><time>2026-05-02T10:49:39.538Z</time></trkpt><trkpt lat="42.3742424" lon="11.1848604"><ele>98.0</ele><time>2026-05-02T10:49:41.538Z</time></trkpt><trkpt lat="42.3742528" lon="11.1849547"><ele>93.80000000000001</ele><time>2026-05-02T10:49:43.539Z</time></trkpt><trkpt lat="42.3742859" lon="11.1850559"><ele>89.60000000000001</ele><time>2026-05-02T10:49:45.54Z</time></trkpt><trkpt lat="42.3743571" lon="11.1851985"><ele>85.4</ele><time>2026-05-02T10:49:47.538Z</time></trkpt><trkpt lat="42.3743953" lon="11.1852791"><ele>81.2</ele><time>2026-05-02T10:49:48.537Z</time></trkpt><trkpt lat="42.3744371" lon="11.1853806"><ele>77.0</ele><time>2026-05-02T10:49:49.538Z</time></trkpt><trkpt lat="42.3744801" lon="11.1854797"><ele>77.0</ele><time>2026-05-02T10:49:50.537Z</time></trkpt><trkpt lat="42.3745216" lon="11.1855767"><ele>77.0</ele><time>2026-05-02T10:49:51.538Z</time></trkpt><trkpt lat="42.3745735" lon="11.185666"><ele>77.0</ele><time>2026-05-02T10:49:52.538Z</time></trkpt><trkpt lat="42.3746221" lon="11.1857445"><ele>77.0</ele><time>2026-05-02T10:49:53.538Z</time></trkpt><trkpt lat="42.3746939" lon="11.1858144"><ele>77.0</ele><time>2026-05-02T10:49:54.537Z</time></trkpt><trkpt lat="42.3747563" lon="11.1858931"><ele>77.0</ele><time>2026-05-02T10:49:55.538Z</time></trkpt><trkpt lat="42.3748129" lon="11.1859704"><ele>76.14285714285714</ele><time>2026-05-02T10:49:56.539Z</time></trkpt><trkpt lat="42.3748529" lon="11.1860619"><ele>75.28571428571428</ele><time>2026-05-02T10:49:57.537Z</time></trkpt><trkpt lat="42.3748799" lon="11.1861449"><ele>74.42857142857143</ele><time>2026-05-02T10:49:58.537Z</time></trkpt><trkpt lat="42.3748996" lon="11.1862338"><ele>73.57142857142857</ele><time>2026-05-02T10:49:59.538Z</time></trkpt><trkpt lat="42.374925" lon="11.1863225"><ele>72.71428571428571</ele><time>2026-05-02T10:50:00.538Z</time></trkpt><trkpt lat="42.3749415" lon="11.1864188"><ele>71.85714285714286</ele><time>2026-05-02T10:50:01.537Z</time></trkpt><trkpt lat="42.3749498" lon="11.1865102"><ele>71.0</ele><time>2026-05-02T10:50:02.537Z</time></trkpt><trkpt lat="42.3749978" lon="11.1866425"><ele>69.39999999999999</ele><time>2026-05-02T10:50:04.538Z</time></trkpt><trkpt lat="42.3750559" lon="11.1867871"><ele>67.8</ele><time>2026-05-02T10:50:06.537Z</time></trkpt><trkpt lat="42.3750871" lon="11.1868651"><ele>66.19999999999999</ele><time>2026-05-02T10:50:07.538Z</time></trkpt><trkpt lat="42.3751659" lon="11.1869898"><ele>64.6</ele><time>2026-05-02T10:50:09.538Z</time></trkpt><trkpt lat="42.3752468" lon="11.1870637"><ele>63.0</ele><time>2026-05-02T10:50:11.538Z</time></trkpt><trkpt lat="42.3753149" lon="11.1870688"><ele>63.0</ele><time>2026-05-02T10:50:35.539Z</time></trkpt><trkpt lat="42.375404" lon="11.1869649"><ele>63.0</ele><time>2026-05-02T10:50:37.537Z</time></trkpt><trkpt lat="42.3754847" lon="11.1869032"><ele>63.0</ele><time>2026-05-02T10:50:38.537Z</time></trkpt><trkpt lat="42.375577" lon="11.1868566"><ele>63.0</ele><time>2026-05-02T10:50:39.537Z</time></trkpt><trkpt lat="42.3756872" lon="11.1868203"><ele>63.0</ele><time>2026-05-02T10:50:40.538Z</time></trkpt><trkpt lat="42.375809" lon="11.186797"><ele>67.0</ele><time>2026-05-02T10:50:41.537Z</time></trkpt><trkpt lat="42.3759254" lon="11.1867711"><ele>71.0</ele><time>2026-05-02T10:50:42.538Z</time></trkpt><trkpt lat="42.3759947" lon="11.186751"><ele>75.0</ele><time>2026-05-02T10:50:43.536Z</time></trkpt><trkpt lat="42.3760664" lon="11.1867253"><ele>79.0</ele><time>2026-05-02T10:50:44.538Z</time></trkpt><trkpt lat="42.3761757" lon="11.1866485"><ele>83.0</ele><time>2026-05-02T10:50:46.537Z</time></trkpt><trkpt lat="42.3762268" lon="11.1865974"><ele>83.0</ele><time>2026-05-02T10:50:47.539Z</time></trkpt><trkpt lat="42.3762779" lon="11.1865451"><ele>83.0</ele><time>2026-05-02T10:50:48.538Z</time></trkpt><trkpt lat="42.3763175" lon="11.1864763"><ele>83.0</ele><time>2026-05-02T10:50:49.537Z</time></trkpt><trkpt lat="42.3763395" lon="11.1863951"><ele>83.0</ele><time>2026-05-02T10:50:50.538Z</time></trkpt><trkpt lat="42.376351" lon="11.1862921"><ele>83.0</ele><time>2026-05-02T10:50:51.537Z</time></trkpt><trkpt lat="42.3763525" lon="11.1861752"><ele>83.0</ele><time>2026-05-02T10:50:52.538Z</time></trkpt><trkpt lat="42.3763507" lon="11.1860814"><ele>83.0</ele><time>2026-05-02T10:50:53.537Z</time></trkpt><trkpt lat="42.376377" lon="11.1859724"><ele>88.66666666666667</ele><time>2026-05-02T10:50:55.538Z</time></trkpt><trkpt lat="42.3764446" lon="11.1859505"><ele>94.33333333333334</ele><time>2026-05-02T10:50:57.539Z</time></trkpt><trkpt lat="42.3764769" lon="11.1860478"><ele>100.0</ele><time>2026-05-02T10:50:58.538Z</time></trkpt><trkpt lat="42.3765132" lon="11.1861612"><ele>105.66666666666667</ele><time>2026-05-02T10:50:59.537Z</time></trkpt><trkpt lat="42.376547" lon="11.1862705"><ele>111.33333333333333</ele><time>2026-05-02T10:51:00.538Z</time></trkpt><trkpt lat="42.3765784" lon="11.1863676"><ele>117.0</ele><time>2026-05-02T10:51:01.537Z</time></trkpt><trkpt lat="42.3766152" lon="11.1864458"><ele>117.0</ele><time>2026-05-02T10:51:02.538Z</time></trkpt><trkpt lat="42.3766684" lon="11.1865057"><ele>116.99999999999999</ele><time>2026-05-02T10:51:03.537Z</time></trkpt><trkpt lat="42.3767664" lon="11.186517"><ele>116.99999999999999</ele><time>2026-05-02T10:51:05.538Z</time></trkpt><trkpt lat="42.376852" lon="11.1863967"><ele>117.0</ele><time>2026-05-02T10:51:07.537Z</time></trkpt><trkpt lat="42.3768834" lon="11.1862794"><ele>117.0</ele><time>2026-05-02T10:51:08.537Z</time></trkpt><trkpt lat="42.3769259" lon="11.1861549"><ele>117.0</ele><time>2026-05-02T10:51:09.537Z</time></trkpt><trkpt lat="42.3769742" lon="11.1860342"><ele>116.99999999999999</ele><time>2026-05-02T10:51:10.537Z</time></trkpt><trkpt lat="42.3770272" lon="11.1859435"><ele>116.99999999999999</ele><time>2026-05-02T10:51:11.537Z</time></trkpt><trkpt lat="42.3770874" lon="11.185858"><ele>117.0</ele><time>2026-05-02T10:51:12.538Z</time></trkpt><trkpt lat="42.3771887" lon="11.1858211"><ele>117.0</ele><time>2026-05-02T10:51:13.537Z</time></trkpt><trkpt lat="42.3773045" lon="11.1857857"><ele>120.0</ele><time>2026-05-02T10:51:14.538Z</time></trkpt><trkpt lat="42.3774377" lon="11.185762"><ele>123.0</ele><time>2026-05-02T10:51:15.537Z</time></trkpt><trkpt lat="42.3775749" lon="11.1857424"><ele>126.0</ele><time>2026-05-02T10:51:16.537Z</time></trkpt><trkpt lat="42.3777039" lon="11.1857145"><ele>129.0</ele><time>2026-05-02T10:51:17.536Z</time></trkpt><trkpt lat="42.3778543" lon="11.1857008"><ele>129.0</ele><time>2026-05-02T10:51:19.538Z</time></trkpt><trkpt lat="42.3779865" lon="11.185692"><ele>129.0</ele><time>2026-05-02T10:51:21.538Z</time></trkpt><trkpt lat="42.3780643" lon="11.185694"><ele>129.0</ele><time>2026-05-02T10:51:22.537Z</time></trkpt><trkpt lat="42.3781662" lon="11.1856841"><ele>129.0</ele><time>2026-05-02T10:51:23.538Z</time></trkpt><trkpt lat="42.3782877" lon="11.1856878"><ele>129.0</ele><time>2026-05-02T10:51:24.538Z</time></trkpt><trkpt lat="42.3784265" lon="11.1857056"><ele>130.25</ele><time>2026-05-02T10:51:25.538Z</time></trkpt><trkpt lat="42.3785662" lon="11.1857272"><ele>131.5</ele><time>2026-05-02T10:51:26.538Z</time></trkpt><trkpt lat="42.3787109" lon="11.1857477"><ele>132.75</ele><time>2026-05-02T10:51:27.539Z</time></trkpt><trkpt lat="42.378852" lon="11.1857633"><ele>134.0</ele><time>2026-05-02T10:51:28.538Z</time></trkpt><trkpt lat="42.3789716" lon="11.1857789"><ele>134.0</ele><time>2026-05-02T10:51:29.538Z</time></trkpt><trkpt lat="42.3790956" lon="11.1857911"><ele>134.0</ele><time>2026-05-02T10:51:30.537Z</time></trkpt><trkpt lat="42.3792151" lon="11.1858094"><ele>134.0</ele><time>2026-05-02T10:51:31.538Z</time></trkpt><trkpt lat="42.3793248" lon="11.1858415"><ele>134.0</ele><time>2026-05-02T10:51:32.538Z</time></trkpt><trkpt lat="42.3794277" lon="11.1858762"><ele>134.0</ele><time>2026-05-02T10:51:33.537Z</time></trkpt><trkpt lat="42.3795323" lon="11.1859175"><ele>134.0</ele><time>2026-05-02T10:51:34.537Z</time></trkpt><trkpt lat="42.3796405" lon="11.1859498"><ele>134.0</ele><time>2026-05-02T10:51:35.536Z</time></trkpt><trkpt lat="42.3797535" lon="11.1859613"><ele>134.0</ele><time>2026-05-02T10:51:36.538Z</time></trkpt><trkpt lat="42.379877" lon="11.1859395"><ele>133.25</ele><time>2026-05-02T10:51:37.538Z</time></trkpt><trkpt lat="42.3799927" lon="11.1859158"><ele>132.5</ele><time>2026-05-02T10:51:38.537Z</time></trkpt><trkpt lat="42.3801079" lon="11.1858985"><ele>131.75</ele><time>2026-05-02T10:51:39.537Z</time></trkpt><trkpt lat="42.380223" lon="11.1858856"><ele>131.0</ele><time>2026-05-02T10:51:40.538Z</time></trkpt><trkpt lat="42.380337" lon="11.1858865"><ele>131.0</ele><time>2026-05-02T10:51:41.538Z</time></trkpt><trkpt lat="42.3804434" lon="11.1859199"><ele>131.0</ele><time>2026-05-02T10:51:42.537Z</time></trkpt><trkpt lat="42.3805563" lon="11.1859794"><ele>131.0</ele><time>2026-05-02T10:51:43.537Z</time></trkpt><trkpt lat="42.3806689" lon="11.1860705"><ele>131.0</ele><time>2026-05-02T10:51:44.537Z</time></trkpt><trkpt lat="42.3807781" lon="11.1861626"><ele>132.25</ele><time>2026-05-02T10:51:45.538Z</time></trkpt><trkpt lat="42.3808986" lon="11.1862735"><ele>133.5</ele><time>2026-05-02T10:51:46.537Z</time></trkpt><trkpt lat="42.3810127" lon="11.1863723"><ele>134.75</ele><time>2026-05-02T10:51:47.538Z</time></trkpt><trkpt lat="42.3811178" lon="11.1864662"><ele>136.0</ele><time>2026-05-02T10:51:48.537Z</time></trkpt><trkpt lat="42.3812221" lon="11.1865463"><ele>133.0</ele><time>2026-05-02T10:51:49.537Z</time></trkpt><trkpt lat="42.3813262" lon="11.1866364"><ele>130.0</ele><time>2026-05-02T10:51:50.536Z</time></trkpt><trkpt lat="42.3814292" lon="11.1867328"><ele>127.0</ele><time>2026-05-02T10:51:51.536Z</time></trkpt><trkpt lat="42.381526" lon="11.1868331"><ele>124.0</ele><time>2026-05-02T10:51:52.537Z</time></trkpt><trkpt lat="42.3816182" lon="11.1869499"><ele>124.0</ele><time>2026-05-02T10:51:53.538Z</time></trkpt><trkpt lat="42.3817044" lon="11.1870689"><ele>124.0</ele><time>2026-05-02T10:51:54.537Z</time></trkpt><trkpt lat="42.3817805" lon="11.1871889"><ele>124.0</ele><time>2026-05-02T10:51:55.538Z</time></trkpt><trkpt lat="42.3818457" lon="11.1873023"><ele>124.0</ele><time>2026-05-02T10:51:56.537Z</time></trkpt><trkpt lat="42.3818882" lon="11.1874282"><ele>124.0</ele><time>2026-05-02T10:51:57.536Z</time></trkpt><trkpt lat="42.3819141" lon="11.1875528"><ele>121.25</ele><time>2026-05-02T10:51:58.536Z</time></trkpt><trkpt lat="42.3818817" lon="11.1876966"><ele>118.5</ele><time>2026-05-02T10:51:59.537Z</time></trkpt><trkpt lat="42.3818354" lon="11.18783"><ele>115.75</ele><time>2026-05-02T10:52:00.536Z</time></trkpt><trkpt lat="42.3817652" lon="11.1879658"><ele>113.0</ele><time>2026-05-02T10:52:01.537Z</time></trkpt><trkpt lat="42.3816919" lon="11.1881007"><ele>113.0</ele><time>2026-05-02T10:52:02.536Z</time></trkpt><trkpt lat="42.3815876" lon="11.1882431"><ele>113.0</ele><time>2026-05-02T10:52:03.536Z</time></trkpt><trkpt lat="42.381498" lon="11.1883743"><ele>113.0</ele><time>2026-05-02T10:52:04.537Z</time></trkpt><trkpt lat="42.3814145" lon="11.1884989"><ele>113.0</ele><time>2026-05-02T10:52:05.536Z</time></trkpt><trkpt lat="42.3813426" lon="11.1886207"><ele>106.4</ele><time>2026-05-02T10:52:06.539Z</time></trkpt><trkpt lat="42.3812761" lon="11.1887348"><ele>99.80000000000001</ele><time>2026-05-02T10:52:07.537Z</time></trkpt><trkpt lat="42.3812274" lon="11.1888467"><ele>93.2</ele><time>2026-05-02T10:52:08.538Z</time></trkpt><trkpt lat="42.3812144" lon="11.1889596"><ele>86.6</ele><time>2026-05-02T10:52:09.537Z</time></trkpt><trkpt lat="42.3812288" lon="11.1890697"><ele>80.0</ele><time>2026-05-02T10:52:10.536Z</time></trkpt><trkpt lat="42.3812761" lon="11.1891736"><ele>86.2</ele><time>2026-05-02T10:52:11.538Z</time></trkpt><trkpt lat="42.3813545" lon="11.1892724"><ele>92.4</ele><time>2026-05-02T10:52:12.537Z</time></trkpt><trkpt lat="42.3814289" lon="11.1893566"><ele>98.6</ele><time>2026-05-02T10:52:13.537Z</time></trkpt><trkpt lat="42.3815044" lon="11.1894494"><ele>104.8</ele><time>2026-05-02T10:52:14.536Z</time></trkpt><trkpt lat="42.3815676" lon="11.1895539"><ele>111.0</ele><time>2026-05-02T10:52:15.537Z</time></trkpt><trkpt lat="42.3815961" lon="11.1896938"><ele>111.0</ele><time>2026-05-02T10:52:16.537Z</time></trkpt><trkpt lat="42.381621" lon="11.189829"><ele>111.0</ele><time>2026-05-02T10:52:17.537Z</time></trkpt><trkpt lat="42.3816513" lon="11.1899441"><ele>111.0</ele><time>2026-05-02T10:52:18.537Z</time></trkpt><trkpt lat="42.3817133" lon="11.1900374"><ele>111.0</ele><time>2026-05-02T10:52:19.536Z</time></trkpt><trkpt lat="42.3817766" lon="11.1900752"><ele>111.0</ele><time>2026-05-02T10:52:20.537Z</time></trkpt><trkpt lat="42.3818564" lon="11.1900865"><ele>111.0</ele><time>2026-05-02T10:52:21.536Z</time></trkpt><trkpt lat="42.3819427" lon="11.1900312"><ele>111.66666666666667</ele><time>2026-05-02T10:52:22.537Z</time></trkpt><trkpt lat="42.3820296" lon="11.1899774"><ele>112.33333333333334</ele><time>2026-05-02T10:52:23.537Z</time></trkpt><trkpt lat="42.3821077" lon="11.1899283"><ele>113.0</ele><time>2026-05-02T10:52:24.537Z</time></trkpt><trkpt lat="42.382187" lon="11.1898927"><ele>113.66666666666667</ele><time>2026-05-02T10:52:25.538Z</time></trkpt><trkpt lat="42.3822659" lon="11.1898732"><ele>114.33333333333334</ele><time>2026-05-02T10:52:26.537Z</time></trkpt><trkpt lat="42.3823533" lon="11.1899225"><ele>115.0</ele><time>2026-05-02T10:52:27.538Z</time></trkpt><trkpt lat="42.382438" lon="11.1899488"><ele>115.0</ele><time>2026-05-02T10:52:28.538Z</time></trkpt><trkpt lat="42.3824608" lon="11.1900619"><ele>115.0</ele><time>2026-05-02T10:52:29.536Z</time></trkpt><trkpt lat="42.3825008" lon="11.1901364"><ele>115.0</ele><time>2026-05-02T10:52:30.537Z</time></trkpt><trkpt lat="42.3824654" lon="11.1903284"><ele>115.0</ele><time>2026-05-02T10:52:31.536Z</time></trkpt><trkpt lat="42.3824552" lon="11.1904639"><ele>115.0</ele><time>2026-05-02T10:52:32.537Z</time></trkpt><trkpt lat="42.3824367" lon="11.1906591"><ele>111.0</ele><time>2026-05-02T10:52:33.537Z</time></trkpt><trkpt lat="42.382435" lon="11.1908524"><ele>107.0</ele><time>2026-05-02T10:52:34.536Z</time></trkpt><trkpt lat="42.3824408" lon="11.1910531"><ele>103.0</ele><time>2026-05-02T10:52:35.537Z</time></trkpt><trkpt lat="42.3824708" lon="11.1912978"><ele>100.33333333333334</ele><time>2026-05-02T10:52:36.537Z</time></trkpt><trkpt lat="42.3824949" lon="11.1915109"><ele>97.66666666666667</ele><time>2026-05-02T10:52:37.536Z</time></trkpt><trkpt lat="42.3825268" lon="11.1917144"><ele>95.0</ele><time>2026-05-02T10:52:38.536Z</time></trkpt><trkpt lat="42.3825539" lon="11.1919036"><ele>95.0</ele><time>2026-05-02T10:52:39.537Z</time></trkpt><trkpt lat="42.3825978" lon="11.1920756"><ele>95.0</ele><time>2026-05-02T10:52:40.536Z</time></trkpt><trkpt lat="42.3826537" lon="11.1922417"><ele>95.0</ele><time>2026-05-02T10:52:41.537Z</time></trkpt><trkpt lat="42.3827182" lon="11.1923984"><ele>95.0</ele><time>2026-05-02T10:52:42.537Z</time></trkpt><trkpt lat="42.3827878" lon="11.1925541"><ele>92.25</ele><time>2026-05-02T10:52:43.536Z</time></trkpt><trkpt lat="42.3828773" lon="11.1927059"><ele>89.5</ele><time>2026-05-02T10:52:44.537Z</time></trkpt><trkpt lat="42.3829729" lon="11.192843"><ele>86.75</ele><time>2026-05-02T10:52:45.536Z</time></trkpt><trkpt lat="42.3830663" lon="11.1929736"><ele>84.0</ele><time>2026-05-02T10:52:46.536Z</time></trkpt><trkpt lat="42.3831506" lon="11.1930947"><ele>87.5</ele><time>2026-05-02T10:52:47.537Z</time></trkpt><trkpt lat="42.3832423" lon="11.1931985"><ele>91.0</ele><time>2026-05-02T10:52:48.536Z</time></trkpt><trkpt lat="42.3833408" lon="11.1932895"><ele>94.5</ele><time>2026-05-02T10:52:49.536Z</time></trkpt><trkpt lat="42.3834519" lon="11.1933646"><ele>98.0</ele><time>2026-05-02T10:52:50.537Z</time></trkpt><trkpt lat="42.3835531" lon="11.1934353"><ele>98.0</ele><time>2026-05-02T10:52:51.539Z</time></trkpt><trkpt lat="42.3836614" lon="11.1935029"><ele>98.0</ele><time>2026-05-02T10:52:52.536Z</time></trkpt><trkpt lat="42.3837416" lon="11.19359"><ele>98.0</ele><time>2026-05-02T10:52:53.537Z</time></trkpt><trkpt lat="42.3838213" lon="11.193685"><ele>98.0</ele><time>2026-05-02T10:52:54.536Z</time></trkpt><trkpt lat="42.3838736" lon="11.193808"><ele>98.0</ele><time>2026-05-02T10:52:55.537Z</time></trkpt><trkpt lat="42.3839068" lon="11.1939358"><ele>98.5</ele><time>2026-05-02T10:52:56.536Z</time></trkpt><trkpt lat="42.3839286" lon="11.1940887"><ele>99.0</ele><time>2026-05-02T10:52:57.538Z</time></trkpt><trkpt lat="42.3839443" lon="11.1942443"><ele>99.5</ele><time>2026-05-02T10:52:58.537Z</time></trkpt><trkpt lat="42.3839645" lon="11.1944005"><ele>100.0</ele><time>2026-05-02T10:52:59.537Z</time></trkpt><trkpt lat="42.3839833" lon="11.1945446"><ele>100.0</ele><time>2026-05-02T10:53:00.536Z</time></trkpt><trkpt lat="42.3840152" lon="11.1946853"><ele>100.0</ele><time>2026-05-02T10:53:01.537Z</time></trkpt><trkpt lat="42.3840583" lon="11.1948189"><ele>100.0</ele><time>2026-05-02T10:53:02.536Z</time></trkpt><trkpt lat="42.3841042" lon="11.1949326"><ele>100.0</ele><time>2026-05-02T10:53:03.538Z</time></trkpt><trkpt lat="42.3841501" lon="11.1950294"><ele>100.0</ele><time>2026-05-02T10:53:04.537Z</time></trkpt><trkpt lat="42.3841908" lon="11.1951189"><ele>99.14285714285715</ele><time>2026-05-02T10:53:05.536Z</time></trkpt><trkpt lat="42.3842305" lon="11.1951907"><ele>98.28571428571429</ele><time>2026-05-02T10:53:06.536Z</time></trkpt><trkpt lat="42.3842739" lon="11.1952661"><ele>97.42857142857143</ele><time>2026-05-02T10:53:07.536Z</time></trkpt><trkpt lat="42.3843228" lon="11.1953304"><ele>96.57142857142858</ele><time>2026-05-02T10:53:08.536Z</time></trkpt><trkpt lat="42.384389" lon="11.1953834"><ele>95.71428571428571</ele><time>2026-05-02T10:53:09.537Z</time></trkpt><trkpt lat="42.3844567" lon="11.1954292"><ele>94.85714285714286</ele><time>2026-05-02T10:53:10.537Z</time></trkpt><trkpt lat="42.3845222" lon="11.1954603"><ele>94.0</ele><time>2026-05-02T10:53:11.536Z</time></trkpt><trkpt lat="42.3846276" lon="11.195396"><ele>94.2</ele><time>2026-05-02T10:53:13.537Z</time></trkpt><trkpt lat="42.3846839" lon="11.1952346"><ele>94.4</ele><time>2026-05-02T10:53:15.536Z</time></trkpt><trkpt lat="42.3846954" lon="11.1951347"><ele>94.6</ele><time>2026-05-02T10:53:16.539Z</time></trkpt><trkpt lat="42.3847009" lon="11.1950351"><ele>94.8</ele><time>2026-05-02T10:53:17.537Z</time></trkpt><trkpt lat="42.3847026" lon="11.1949476"><ele>95.0</ele><time>2026-05-02T10:53:18.538Z</time></trkpt><trkpt lat="42.3847057" lon="11.1947894"><ele>95.0</ele><time>2026-05-02T10:53:20.537Z</time></trkpt><trkpt lat="42.3847019" lon="11.1946686"><ele>95.0</ele><time>2026-05-02T10:53:22.536Z</time></trkpt><trkpt lat="42.3846898" lon="11.1945289"><ele>95.0</ele><time>2026-05-02T10:53:24.537Z</time></trkpt><trkpt lat="42.3846873" lon="11.1944183"><ele>95.0</ele><time>2026-05-02T10:53:26.538Z</time></trkpt><trkpt lat="42.3846806" lon="11.1943185"><ele>95.0</ele><time>2026-05-02T10:53:28.538Z</time></trkpt><trkpt lat="42.3846493" lon="11.1941812"><ele>95.83333333333334</ele><time>2026-05-02T10:53:30.538Z</time></trkpt><trkpt lat="42.3846421" lon="11.1940919"><ele>96.66666666666667</ele><time>2026-05-02T10:53:31.538Z</time></trkpt><trkpt lat="42.3846409" lon="11.1939876"><ele>97.5</ele><time>2026-05-02T10:53:32.537Z</time></trkpt><trkpt lat="42.384653" lon="11.193875"><ele>98.33333333333334</ele><time>2026-05-02T10:53:33.536Z</time></trkpt><trkpt lat="42.3846674" lon="11.1937612"><ele>99.16666666666667</ele><time>2026-05-02T10:53:34.536Z</time></trkpt><trkpt lat="42.3846951" lon="11.1936575"><ele>100.0</ele><time>2026-05-02T10:53:35.538Z</time></trkpt><trkpt lat="42.384738" lon="11.1935689"><ele>101.50000000000001</ele><time>2026-05-02T10:53:36.536Z</time></trkpt><trkpt lat="42.3847946" lon="11.1935116"><ele>103.0</ele><time>2026-05-02T10:53:37.536Z</time></trkpt><trkpt lat="42.3848628" lon="11.1934912"><ele>104.5</ele><time>2026-05-02T10:53:38.537Z</time></trkpt><trkpt lat="42.3849399" lon="11.1935031"><ele>106.0</ele><time>2026-05-02T10:53:39.537Z</time></trkpt><trkpt lat="42.3850261" lon="11.1935338"><ele>107.50000000000001</ele><time>2026-05-02T10:53:40.538Z</time></trkpt><trkpt lat="42.3851212" lon="11.1935745"><ele>109.0</ele><time>2026-05-02T10:53:41.537Z</time></trkpt><trkpt lat="42.3852255" lon="11.1936189"><ele>109.0</ele><time>2026-05-02T10:53:42.536Z</time></trkpt><trkpt lat="42.3853347" lon="11.193666"><ele>109.0</ele><time>2026-05-02T10:53:43.536Z</time></trkpt><trkpt lat="42.3854423" lon="11.1937135"><ele>109.0</ele><time>2026-05-02T10:53:44.538Z</time></trkpt><trkpt lat="42.385552" lon="11.1937456"><ele>109.0</ele><time>2026-05-02T10:53:45.537Z</time></trkpt><trkpt lat="42.3856596" lon="11.1937644"><ele>109.0</ele><time>2026-05-02T10:53:46.536Z</time></trkpt><trkpt lat="42.3857691" lon="11.19377"><ele>108.4</ele><time>2026-05-02T10:53:47.537Z</time></trkpt><trkpt lat="42.3858771" lon="11.1937657"><ele>107.80000000000001</ele><time>2026-05-02T10:53:48.536Z</time></trkpt><trkpt lat="42.3859855" lon="11.1937563"><ele>107.19999999999999</ele><time>2026-05-02T10:53:49.535Z</time></trkpt><trkpt lat="42.3860985" lon="11.1937349"><ele>106.6</ele><time>2026-05-02T10:53:50.537Z</time></trkpt><trkpt lat="42.3862101" lon="11.1937171"><ele>106.0</ele><time>2026-05-02T10:53:51.536Z</time></trkpt><trkpt lat="42.3863203" lon="11.1936935"><ele>103.6</ele><time>2026-05-02T10:53:52.535Z</time></trkpt><trkpt lat="42.386422" lon="11.1936748"><ele>101.19999999999999</ele><time>2026-05-02T10:53:53.538Z</time></trkpt><trkpt lat="42.386524" lon="11.1936432"><ele>98.80000000000001</ele><time>2026-05-02T10:53:54.537Z</time></trkpt><trkpt lat="42.3866203" lon="11.1936154"><ele>96.4</ele><time>2026-05-02T10:53:55.537Z</time></trkpt><trkpt lat="42.3867166" lon="11.1935707"><ele>94.0</ele><time>2026-05-02T10:53:56.536Z</time></trkpt><trkpt lat="42.3867986" lon="11.1935102"><ele>94.0</ele><time>2026-05-02T10:53:57.537Z</time></trkpt><trkpt lat="42.3868746" lon="11.1934476"><ele>94.0</ele><time>2026-05-02T10:53:58.537Z</time></trkpt><trkpt lat="42.3869491" lon="11.1933926"><ele>94.0</ele><time>2026-05-02T10:53:59.536Z</time></trkpt><trkpt lat="42.3870229" lon="11.1933547"><ele>94.0</ele><time>2026-05-02T10:54:00.537Z</time></trkpt><trkpt lat="42.3871035" lon="11.193361"><ele>94.0</ele><time>2026-05-02T10:54:01.536Z</time></trkpt><trkpt lat="42.3871831" lon="11.193415"><ele>94.0</ele><time>2026-05-02T10:54:02.537Z</time></trkpt><trkpt lat="42.3872557" lon="11.1934879"><ele>93.2</ele><time>2026-05-02T10:54:03.538Z</time></trkpt><trkpt lat="42.3873322" lon="11.1935677"><ele>92.4</ele><time>2026-05-02T10:54:04.537Z</time></trkpt><trkpt lat="42.3874145" lon="11.1936453"><ele>91.6</ele><time>2026-05-02T10:54:05.537Z</time></trkpt><trkpt lat="42.3874924" lon="11.1937264"><ele>90.8</ele><time>2026-05-02T10:54:06.535Z</time></trkpt><trkpt lat="42.3875637" lon="11.1937978"><ele>90.0</ele><time>2026-05-02T10:54:07.536Z</time></trkpt><trkpt lat="42.3876386" lon="11.1938629"><ele>90.0</ele><time>2026-05-02T10:54:08.536Z</time></trkpt><trkpt lat="42.3877159" lon="11.1939159"><ele>90.0</ele><time>2026-05-02T10:54:09.537Z</time></trkpt><trkpt lat="42.3878014" lon="11.193949"><ele>90.0</ele><time>2026-05-02T10:54:10.536Z</time></trkpt><trkpt lat="42.3878938" lon="11.1939674"><ele>90.0</ele><time>2026-05-02T10:54:11.537Z</time></trkpt><trkpt lat="42.3879948" lon="11.1939757"><ele>90.0</ele><time>2026-05-02T10:54:12.537Z</time></trkpt><trkpt lat="42.3881009" lon="11.1939749"><ele>89.0</ele><time>2026-05-02T10:54:13.536Z</time></trkpt><trkpt lat="42.3882094" lon="11.1939769"><ele>88.0</ele><time>2026-05-02T10:54:14.537Z</time></trkpt><trkpt lat="42.3883258" lon="11.1939812"><ele>87.0</ele><time>2026-05-02T10:54:15.535Z</time></trkpt><trkpt lat="42.3884338" lon="11.1939932"><ele>86.0</ele><time>2026-05-02T10:54:16.536Z</time></trkpt><trkpt lat="42.388545" lon="11.1940031"><ele>85.0</ele><time>2026-05-02T10:54:17.536Z</time></trkpt><trkpt lat="42.3886616" lon="11.1940195"><ele>82.25</ele><time>2026-05-02T10:54:18.537Z</time></trkpt><trkpt lat="42.3887776" lon="11.1940292"><ele>79.5</ele><time>2026-05-02T10:54:19.535Z</time></trkpt><trkpt lat="42.3888955" lon="11.1940357"><ele>76.75</ele><time>2026-05-02T10:54:20.537Z</time></trkpt><trkpt lat="42.3890106" lon="11.1940629"><ele>74.0</ele><time>2026-05-02T10:54:21.537Z</time></trkpt><trkpt lat="42.3891291" lon="11.1940916"><ele>72.25</ele><time>2026-05-02T10:54:22.536Z</time></trkpt><trkpt lat="42.3892445" lon="11.1941234"><ele>70.5</ele><time>2026-05-02T10:54:23.538Z</time></trkpt><trkpt lat="42.3893596" lon="11.1941521"><ele>68.75</ele><time>2026-05-02T10:54:24.536Z</time></trkpt><trkpt lat="42.3894751" lon="11.1941761"><ele>67.0</ele><time>2026-05-02T10:54:25.537Z</time></trkpt><trkpt lat="42.3895878" lon="11.1941923"><ele>65.0</ele><time>2026-05-02T10:54:26.537Z</time></trkpt><trkpt lat="42.3897068" lon="11.1942161"><ele>63.0</ele><time>2026-05-02T10:54:27.536Z</time></trkpt><trkpt lat="42.389822" lon="11.1942472"><ele>61.0</ele><time>2026-05-02T10:54:28.537Z</time></trkpt><trkpt lat="42.3899316" lon="11.1942653"><ele>59.0</ele><time>2026-05-02T10:54:29.537Z</time></trkpt><trkpt lat="42.3900395" lon="11.1942933"><ele>59.0</ele><time>2026-05-02T10:54:30.537Z</time></trkpt><trkpt lat="42.3901488" lon="11.1943127"><ele>59.00000000000001</ele><time>2026-05-02T10:54:31.537Z</time></trkpt><trkpt lat="42.3902565" lon="11.1943474"><ele>59.00000000000001</ele><time>2026-05-02T10:54:32.537Z</time></trkpt><trkpt lat="42.3903569" lon="11.1944059"><ele>59.0</ele><time>2026-05-02T10:54:33.537Z</time></trkpt><trkpt lat="42.3904528" lon="11.1944882"><ele>59.0</ele><time>2026-05-02T10:54:34.536Z</time></trkpt><trkpt lat="42.3905373" lon="11.1945828"><ele>57.400000000000006</ele><time>2026-05-02T10:54:35.537Z</time></trkpt><trkpt lat="42.3906184" lon="11.1946911"><ele>55.800000000000004</ele><time>2026-05-02T10:54:36.536Z</time></trkpt><trkpt lat="42.3906965" lon="11.1947989"><ele>54.2</ele><time>2026-05-02T10:54:37.536Z</time></trkpt><trkpt lat="42.3907678" lon="11.1949118"><ele>52.599999999999994</ele><time>2026-05-02T10:54:38.536Z</time></trkpt><trkpt lat="42.3908416" lon="11.1950229"><ele>51.0</ele><time>2026-05-02T10:54:39.536Z</time></trkpt><trkpt lat="42.3909177" lon="11.1951247"><ele>51.0</ele><time>2026-05-02T10:54:40.537Z</time></trkpt><trkpt lat="42.3909925" lon="11.1952297"><ele>51.0</ele><time>2026-05-02T10:54:41.536Z</time></trkpt><trkpt lat="42.3910665" lon="11.1953436"><ele>51.0</ele><time>2026-05-02T10:54:42.536Z</time></trkpt><trkpt lat="42.3911375" lon="11.1954444"><ele>51.0</ele><time>2026-05-02T10:54:43.538Z</time></trkpt><trkpt lat="42.3912143" lon="11.1955453"><ele>51.0</ele><time>2026-05-02T10:54:44.537Z</time></trkpt><trkpt lat="42.3912885" lon="11.195638"><ele>49.8</ele><time>2026-05-02T10:54:45.536Z</time></trkpt><trkpt lat="42.3913688" lon="11.195731"><ele>48.599999999999994</ele><time>2026-05-02T10:54:46.536Z</time></trkpt><trkpt lat="42.3914557" lon="11.1958158"><ele>47.4</ele><time>2026-05-02T10:54:47.536Z</time></trkpt><trkpt lat="42.3915507" lon="11.1958889"><ele>46.2</ele><time>2026-05-02T10:54:48.536Z</time></trkpt><trkpt lat="42.3916503" lon="11.1959494"><ele>45.0</ele><time>2026-05-02T10:54:49.536Z</time></trkpt><trkpt lat="42.3917522" lon="11.1959978"><ele>45.0</ele><time>2026-05-02T10:54:50.536Z</time></trkpt><trkpt lat="42.391846" lon="11.1960404"><ele>45.0</ele><time>2026-05-02T10:54:51.536Z</time></trkpt><trkpt lat="42.3919267" lon="11.1960812"><ele>45.0</ele><time>2026-05-02T10:54:52.535Z</time></trkpt><trkpt lat="42.3920384" lon="11.1961163"><ele>45.0</ele><time>2026-05-02T10:54:54.537Z</time></trkpt><trkpt lat="42.3921119" lon="11.1961156"><ele>45.0</ele><time>2026-05-02T10:54:56.536Z</time></trkpt><trkpt lat="42.392156" lon="11.1960388"><ele>45.0</ele><time>2026-05-02T10:54:58.535Z</time></trkpt><trkpt lat="42.3921879" lon="11.1958981"><ele>44.75</ele><time>2026-05-02T10:55:00.537Z</time></trkpt><trkpt lat="42.3922532" lon="11.1957551"><ele>44.5</ele><time>2026-05-02T10:55:02.536Z</time></trkpt><trkpt lat="42.3923214" lon="11.1956357"><ele>44.25</ele><time>2026-05-02T10:55:04.538Z</time></trkpt><trkpt lat="42.3923835" lon="11.1954924"><ele>44.0</ele><time>2026-05-02T10:55:06.536Z</time></trkpt><trkpt lat="42.392454" lon="11.1953707"><ele>44.0</ele><time>2026-05-02T10:55:08.536Z</time></trkpt><trkpt lat="42.3925068" lon="11.1953182"><ele>44.0</ele><time>2026-05-02T10:55:09.536Z</time></trkpt><trkpt lat="42.3925649" lon="11.1952648"><ele>44.0</ele><time>2026-05-02T10:55:10.537Z</time></trkpt><trkpt lat="42.3926247" lon="11.1952028"><ele>44.0</ele><time>2026-05-02T10:55:11.535Z</time></trkpt><trkpt lat="42.3926912" lon="11.1951359"><ele>44.0</ele><time>2026-05-02T10:55:12.536Z</time></trkpt><trkpt lat="42.3927687" lon="11.1950671"><ele>44.0</ele><time>2026-05-02T10:55:13.535Z</time></trkpt><trkpt lat="42.3928542" lon="11.194988"><ele>44.0</ele><time>2026-05-02T10:55:14.536Z</time></trkpt><trkpt lat="42.3929481" lon="11.1949022"><ele>44.0</ele><time>2026-05-02T10:55:15.537Z</time></trkpt><trkpt lat="42.3930345" lon="11.1948269"><ele>44.0</ele><time>2026-05-02T10:55:16.535Z</time></trkpt><trkpt lat="42.3931128" lon="11.1947613"><ele>44.0</ele><time>2026-05-02T10:55:17.538Z</time></trkpt><trkpt lat="42.3931809" lon="11.1947112"><ele>44.0</ele><time>2026-05-02T10:55:18.536Z</time></trkpt><trkpt lat="42.3932399" lon="11.1946618"><ele>45.0</ele><time>2026-05-02T10:55:19.536Z</time></trkpt><trkpt lat="42.3932904" lon="11.1946089"><ele>46.0</ele><time>2026-05-02T10:55:20.536Z</time></trkpt><trkpt lat="42.3933021" lon="11.1944567"><ele>47.0</ele><time>2026-05-02T10:55:22.536Z</time></trkpt><trkpt lat="42.3932441" lon="11.194306"><ele>48.0</ele><time>2026-05-02T10:55:24.536Z</time></trkpt><trkpt lat="42.3931987" lon="11.194197"><ele>49.0</ele><time>2026-05-02T10:55:25.538Z</time></trkpt><trkpt lat="42.3931389" lon="11.1940821"><ele>51.75</ele><time>2026-05-02T10:55:26.535Z</time></trkpt><trkpt lat="42.3930712" lon="11.1939537"><ele>54.5</ele><time>2026-05-02T10:55:27.536Z</time></trkpt><trkpt lat="42.3929841" lon="11.1937955"><ele>57.25</ele><time>2026-05-02T10:55:28.536Z</time></trkpt><trkpt lat="42.3928959" lon="11.1936312"><ele>60.0</ele><time>2026-05-02T10:55:29.536Z</time></trkpt><trkpt lat="42.3928269" lon="11.1934829"><ele>60.4</ele><time>2026-05-02T10:55:30.536Z</time></trkpt><trkpt lat="42.3927621" lon="11.1933594"><ele>60.8</ele><time>2026-05-02T10:55:31.536Z</time></trkpt><trkpt lat="42.3927041" lon="11.1932477"><ele>61.2</ele><time>2026-05-02T10:55:32.536Z</time></trkpt><trkpt lat="42.392659" lon="11.193153"><ele>61.6</ele><time>2026-05-02T10:55:33.538Z</time></trkpt><trkpt lat="42.3926039" lon="11.193027"><ele>62.0</ele><time>2026-05-02T10:55:35.536Z</time></trkpt><trkpt lat="42.3926653" lon="11.1929709"><ele>62.0</ele><time>2026-05-02T10:55:37.537Z</time></trkpt><trkpt lat="42.392758" lon="11.1930392"><ele>62.00000000000001</ele><time>2026-05-02T10:55:39.537Z</time></trkpt><trkpt lat="42.3928145" lon="11.1931053"><ele>62.0</ele><time>2026-05-02T10:55:40.535Z</time></trkpt><trkpt lat="42.3928705" lon="11.1931445"><ele>62.0</ele><time>2026-05-02T10:55:41.536Z</time></trkpt><trkpt lat="42.3929263" lon="11.1931894"><ele>62.00000000000001</ele><time>2026-05-02T10:55:42.535Z</time></trkpt><trkpt lat="42.3929918" lon="11.1932047"><ele>62.0</ele><time>2026-05-02T10:55:43.536Z</time></trkpt><trkpt lat="42.393051" lon="11.1931706"><ele>62.0</ele><time>2026-05-02T10:55:44.535Z</time></trkpt><trkpt lat="42.3931169" lon="11.1930221"><ele>64.6</ele><time>2026-05-02T10:55:46.535Z</time></trkpt><trkpt lat="42.393139" lon="11.1928857"><ele>67.2</ele><time>2026-05-02T10:55:47.536Z</time></trkpt><trkpt lat="42.393159" lon="11.1927328"><ele>69.8</ele><time>2026-05-02T10:55:48.536Z</time></trkpt><trkpt lat="42.3931856" lon="11.1925678"><ele>72.4</ele><time>2026-05-02T10:55:49.536Z</time></trkpt><trkpt lat="42.3931995" lon="11.1924359"><ele>75.0</ele><time>2026-05-02T10:55:50.535Z</time></trkpt><trkpt lat="42.3932243" lon="11.1923497"><ele>76.83333333333333</ele><time>2026-05-02T10:55:51.535Z</time></trkpt><trkpt lat="42.3932935" lon="11.1922698"><ele>78.66666666666667</ele><time>2026-05-02T10:55:53.536Z</time></trkpt><trkpt lat="42.3934" lon="11.1922535"><ele>80.5</ele><time>2026-05-02T10:55:55.536Z</time></trkpt><trkpt lat="42.3934829" lon="11.1921809"><ele>82.33333333333334</ele><time>2026-05-02T10:55:57.537Z</time></trkpt><trkpt lat="42.3935276" lon="11.192116"><ele>84.16666666666667</ele><time>2026-05-02T10:56:00.538Z</time></trkpt><trkpt lat="42.3934596" lon="11.1920446"><ele>86.0</ele><time>2026-05-02T10:56:08.535Z</time></trkpt><trkpt lat="42.3933719" lon="11.1919784"><ele>86.0</ele><time>2026-05-02T10:56:10.536Z</time></trkpt><trkpt lat="42.3933003" lon="11.1918968"><ele>86.0</ele><time>2026-05-02T10:56:12.535Z</time></trkpt><trkpt lat="42.3932261" lon="11.1918209"><ele>86.0</ele><time>2026-05-02T10:56:14.536Z</time></trkpt><trkpt lat="42.3931634" lon="11.1917548"><ele>86.0</ele><time>2026-05-02T10:56:16.537Z</time></trkpt><trkpt lat="42.3930863" lon="11.1916892"><ele>86.0</ele><time>2026-05-02T10:56:19.537Z</time></trkpt><trkpt lat="42.3930222" lon="11.1916305"><ele>86.0</ele><time>2026-05-02T10:56:21.538Z</time></trkpt><trkpt lat="42.3930678" lon="11.1917044"><ele>86.0</ele><time>2026-05-02T10:56:29.536Z</time></trkpt><trkpt lat="42.3931582" lon="11.1917814"><ele>86.0</ele><time>2026-05-02T10:56:32.537Z</time></trkpt><trkpt lat="42.3932517" lon="11.1918771"><ele>86.0</ele><time>2026-05-02T10:56:34.535Z</time></trkpt><trkpt lat="42.3933444" lon="11.1919616"><ele>86.0</ele><time>2026-05-02T10:56:36.537Z</time></trkpt><trkpt lat="42.393431" lon="11.1920266"><ele>86.0</ele><time>2026-05-02T10:56:38.535Z</time></trkpt><trkpt lat="42.393499" lon="11.1920693"><ele>86.0</ele><time>2026-05-02T10:56:40.536Z</time></trkpt><trkpt lat="42.3935734" lon="11.1920774"><ele>86.0</ele><time>2026-05-02T10:56:44.536Z</time></trkpt><trkpt lat="42.39362" lon="11.1919788"><ele>86.0</ele><time>2026-05-02T10:56:47.536Z</time></trkpt><trkpt lat="42.3936013" lon="11.1918266"><ele>86.0</ele><time>2026-05-02T10:56:49.537Z</time></trkpt><trkpt lat="42.3935729" lon="11.1917282"><ele>86.0</ele><time>2026-05-02T10:56:50.536Z</time></trkpt><trkpt lat="42.3935483" lon="11.1916278"><ele>86.0</ele><time>2026-05-02T10:56:51.535Z</time></trkpt><trkpt lat="42.3935258" lon="11.1915317"><ele>86.66666666666667</ele><time>2026-05-02T10:56:52.536Z</time></trkpt><trkpt lat="42.393492" lon="11.1914429"><ele>87.33333333333334</ele><time>2026-05-02T10:56:53.535Z</time></trkpt><trkpt lat="42.3934477" lon="11.1913736"><ele>88.0</ele><time>2026-05-02T10:56:54.536Z</time></trkpt><trkpt lat="42.3934" lon="11.1913138"><ele>88.66666666666667</ele><time>2026-05-02T10:56:55.536Z</time></trkpt><trkpt lat="42.393341" lon="11.1912349"><ele>89.33333333333333</ele><time>2026-05-02T10:56:56.534Z</time></trkpt><trkpt lat="42.3932941" lon="11.1911504"><ele>90.0</ele><time>2026-05-02T10:56:57.535Z</time></trkpt><trkpt lat="42.3932451" lon="11.1910476"><ele>90.0</ele><time>2026-05-02T10:56:58.535Z</time></trkpt><trkpt lat="42.3931995" lon="11.1909334"><ele>90.0</ele><time>2026-05-02T10:56:59.536Z</time></trkpt><trkpt lat="42.3931506" lon="11.1908057"><ele>90.0</ele><time>2026-05-02T10:57:00.536Z</time></trkpt><trkpt lat="42.3930996" lon="11.1906628"><ele>90.0</ele><time>2026-05-02T10:57:01.536Z</time></trkpt><trkpt lat="42.39306" lon="11.1905343"><ele>90.0</ele><time>2026-05-02T10:57:02.535Z</time></trkpt><trkpt lat="42.3930138" lon="11.190404"><ele>94.0</ele><time>2026-05-02T10:57:03.536Z</time></trkpt><trkpt lat="42.3929575" lon="11.1902984"><ele>98.0</ele><time>2026-05-02T10:57:04.537Z</time></trkpt><trkpt lat="42.392888" lon="11.1902193"><ele>102.0</ele><time>2026-05-02T10:57:05.536Z</time></trkpt><trkpt lat="42.3928286" lon="11.1901503"><ele>106.0</ele><time>2026-05-02T10:57:06.535Z</time></trkpt><trkpt lat="42.3927645" lon="11.190067"><ele>110.0</ele><time>2026-05-02T10:57:07.535Z</time></trkpt><trkpt lat="42.3927078" lon="11.1899657"><ele>114.0</ele><time>2026-05-02T10:57:08.535Z</time></trkpt><trkpt lat="42.3926482" lon="11.1898382"><ele>114.0</ele><time>2026-05-02T10:57:09.536Z</time></trkpt><trkpt lat="42.3925702" lon="11.1896752"><ele>114.0</ele><time>2026-05-02T10:57:10.536Z</time></trkpt><trkpt lat="42.3924971" lon="11.1895083"><ele>114.0</ele><time>2026-05-02T10:57:11.536Z</time></trkpt><trkpt lat="42.3924175" lon="11.1893354"><ele>114.0</ele><time>2026-05-02T10:57:12.535Z</time></trkpt><trkpt lat="42.3923538" lon="11.189183"><ele>114.0</ele><time>2026-05-02T10:57:13.536Z</time></trkpt><trkpt lat="42.3922846" lon="11.1890372"><ele>114.0</ele><time>2026-05-02T10:57:14.536Z</time></trkpt><trkpt lat="42.392232" lon="11.188897"><ele>114.0</ele><time>2026-05-02T10:57:15.536Z</time></trkpt><trkpt lat="42.3921619" lon="11.1887612"><ele>114.0</ele><time>2026-05-02T10:57:16.537Z</time></trkpt><trkpt lat="42.3920952" lon="11.1886246"><ele>120.25</ele><time>2026-05-02T10:57:17.536Z</time></trkpt><trkpt lat="42.3920262" lon="11.1884705"><ele>126.5</ele><time>2026-05-02T10:57:18.535Z</time></trkpt><trkpt lat="42.3919556" lon="11.1883156"><ele>132.75</ele><time>2026-05-02T10:57:19.535Z</time></trkpt><trkpt lat="42.3919012" lon="11.1881858"><ele>139.0</ele><time>2026-05-02T10:57:20.536Z</time></trkpt><trkpt lat="42.3918478" lon="11.188067"><ele>139.33333333333334</ele><time>2026-05-02T10:57:21.536Z</time></trkpt><trkpt lat="42.3918057" lon="11.1879699"><ele>139.66666666666669</ele><time>2026-05-02T10:57:22.535Z</time></trkpt><trkpt lat="42.3917848" lon="11.1878852"><ele>140.0</ele><time>2026-05-02T10:57:23.536Z</time></trkpt><trkpt lat="42.3917861" lon="11.1877839"><ele>140.33333333333334</ele><time>2026-05-02T10:57:24.536Z</time></trkpt><trkpt lat="42.3917916" lon="11.1876718"><ele>140.66666666666666</ele><time>2026-05-02T10:57:25.536Z</time></trkpt><trkpt lat="42.391833" lon="11.1875117"><ele>141.0</ele><time>2026-05-02T10:57:26.534Z</time></trkpt><trkpt lat="42.3918844" lon="11.187334"><ele>143.75</ele><time>2026-05-02T10:57:27.535Z</time></trkpt><trkpt lat="42.3919351" lon="11.1871629"><ele>146.5</ele><time>2026-05-02T10:57:28.536Z</time></trkpt><trkpt lat="42.3919822" lon="11.186997"><ele>149.25</ele><time>2026-05-02T10:57:29.535Z</time></trkpt><trkpt lat="42.3920218" lon="11.1868486"><ele>152.0</ele><time>2026-05-02T10:57:30.535Z</time></trkpt><trkpt lat="42.3920658" lon="11.1866775"><ele>152.0</ele><time>2026-05-02T10:57:31.535Z</time></trkpt><trkpt lat="42.3920974" lon="11.1865246"><ele>152.0</ele><time>2026-05-02T10:57:32.535Z</time></trkpt><trkpt lat="42.3921252" lon="11.1864087"><ele>152.0</ele><time>2026-05-02T10:57:33.535Z</time></trkpt><trkpt lat="42.3921533" lon="11.1863072"><ele>152.0</ele><time>2026-05-02T10:57:34.535Z</time></trkpt><trkpt lat="42.3921797" lon="11.1862108"><ele>152.0</ele><time>2026-05-02T10:57:35.537Z</time></trkpt><trkpt lat="42.3922043" lon="11.1861187"><ele>152.0</ele><time>2026-05-02T10:57:36.534Z</time></trkpt><trkpt lat="42.3922279" lon="11.1860208"><ele>153.16666666666666</ele><time>2026-05-02T10:57:37.536Z</time></trkpt><trkpt lat="42.3922537" lon="11.1859134"><ele>154.33333333333331</ele><time>2026-05-02T10:57:38.535Z</time></trkpt><trkpt lat="42.3922851" lon="11.1858109"><ele>155.5</ele><time>2026-05-02T10:57:39.536Z</time></trkpt><trkpt lat="42.3923184" lon="11.1857026"><ele>156.66666666666666</ele><time>2026-05-02T10:57:40.536Z</time></trkpt><trkpt lat="42.3923473" lon="11.1855976"><ele>157.83333333333334</ele><time>2026-05-02T10:57:41.537Z</time></trkpt><trkpt lat="42.3923715" lon="11.1854981"><ele>159.0</ele><time>2026-05-02T10:57:42.534Z</time></trkpt><trkpt lat="42.3923878" lon="11.1854129"><ele>159.0</ele><time>2026-05-02T10:57:43.536Z</time></trkpt><trkpt lat="42.3924052" lon="11.1853095"><ele>159.0</ele><time>2026-05-02T10:57:45.534Z</time></trkpt><trkpt lat="42.3923487" lon="11.1852457"><ele>159.0</ele><time>2026-05-02T10:57:47.535Z</time></trkpt><trkpt lat="42.3922808" lon="11.1853274"><ele>159.0</ele><time>2026-05-02T10:57:49.535Z</time></trkpt><trkpt lat="42.392208" lon="11.1854634"><ele>159.0</ele><time>2026-05-02T10:57:51.536Z</time></trkpt><trkpt lat="42.3921617" lon="11.1855492"><ele>159.0</ele><time>2026-05-02T10:57:52.535Z</time></trkpt><trkpt lat="42.3920643" lon="11.1856385"><ele>160.5</ele><time>2026-05-02T10:57:53.536Z</time></trkpt><trkpt lat="42.391986" lon="11.1857259"><ele>162.0</ele><time>2026-05-02T10:57:54.534Z</time></trkpt><trkpt lat="42.3918973" lon="11.1857666"><ele>163.5</ele><time>2026-05-02T10:57:55.537Z</time></trkpt><trkpt lat="42.3918124" lon="11.1858094"><ele>165.0</ele><time>2026-05-02T10:57:56.537Z</time></trkpt><trkpt lat="42.3917362" lon="11.1858331"><ele>166.5</ele><time>2026-05-02T10:57:57.535Z</time></trkpt><trkpt lat="42.3916736" lon="11.1858713"><ele>168.0</ele><time>2026-05-02T10:57:58.536Z</time></trkpt><trkpt lat="42.3916064" lon="11.1859588"><ele>168.0</ele><time>2026-05-02T10:57:59.536Z</time></trkpt><trkpt lat="42.3915689" lon="11.1860801"><ele>168.0</ele><time>2026-05-02T10:58:00.535Z</time></trkpt><trkpt lat="42.391508" lon="11.1861933"><ele>168.0</ele><time>2026-05-02T10:58:01.536Z</time></trkpt><trkpt lat="42.3914509" lon="11.1862973"><ele>168.0</ele><time>2026-05-02T10:58:02.537Z</time></trkpt><trkpt lat="42.3913957" lon="11.1863959"><ele>168.0</ele><time>2026-05-02T10:58:03.537Z</time></trkpt><trkpt lat="42.3913141" lon="11.1864912"><ele>169.83333333333334</ele><time>2026-05-02T10:58:04.535Z</time></trkpt><trkpt lat="42.3912477" lon="11.1865798"><ele>171.66666666666666</ele><time>2026-05-02T10:58:05.535Z</time></trkpt><trkpt lat="42.3911832" lon="11.1866791"><ele>173.5</ele><time>2026-05-02T10:58:06.536Z</time></trkpt><trkpt lat="42.3911334" lon="11.1867684"><ele>175.33333333333331</ele><time>2026-05-02T10:58:07.535Z</time></trkpt><trkpt lat="42.3910967" lon="11.1868559"><ele>177.16666666666666</ele><time>2026-05-02T10:58:08.535Z</time></trkpt><trkpt lat="42.3910631" lon="11.1869506"><ele>179.0</ele><time>2026-05-02T10:58:09.536Z</time></trkpt><trkpt lat="42.391034" lon="11.1870366"><ele>179.0</ele><time>2026-05-02T10:58:10.537Z</time></trkpt><trkpt lat="42.3910095" lon="11.1871218"><ele>179.0</ele><time>2026-05-02T10:58:11.535Z</time></trkpt><trkpt lat="42.3909735" lon="11.1872561"><ele>179.0</ele><time>2026-05-02T10:58:13.537Z</time></trkpt><trkpt lat="42.390949" lon="11.1873749"><ele>179.0</ele><time>2026-05-02T10:58:15.534Z</time></trkpt><trkpt lat="42.3909126" lon="11.1874856"><ele>179.0</ele><time>2026-05-02T10:58:17.535Z</time></trkpt><trkpt lat="42.3908526" lon="11.1875589"><ele>179.0</ele><time>2026-05-02T10:58:19.535Z</time></trkpt><trkpt lat="42.3907793" lon="11.1875336"><ele>179.66666666666666</ele><time>2026-05-02T10:58:21.535Z</time></trkpt><trkpt lat="42.3906894" lon="11.1874439"><ele>180.33333333333331</ele><time>2026-05-02T10:58:23.536Z</time></trkpt><trkpt lat="42.3906322" lon="11.1874036"><ele>181.0</ele><time>2026-05-02T10:58:24.536Z</time></trkpt><trkpt lat="42.3905699" lon="11.18736"><ele>181.66666666666666</ele><time>2026-05-02T10:58:25.535Z</time></trkpt><trkpt lat="42.3904941" lon="11.1873275"><ele>182.33333333333334</ele><time>2026-05-02T10:58:26.534Z</time></trkpt><trkpt lat="42.3904166" lon="11.1872962"><ele>183.0</ele><time>2026-05-02T10:58:27.536Z</time></trkpt><trkpt lat="42.3903368" lon="11.1872667"><ele>183.0</ele><time>2026-05-02T10:58:28.535Z</time></trkpt><trkpt lat="42.3902566" lon="11.1872452"><ele>183.0</ele><time>2026-05-02T10:58:29.535Z</time></trkpt><trkpt lat="42.3901486" lon="11.1872367"><ele>183.0</ele><time>2026-05-02T10:58:30.534Z</time></trkpt><trkpt lat="42.3900532" lon="11.1872242"><ele>183.0</ele><time>2026-05-02T10:58:31.534Z</time></trkpt><trkpt lat="42.3899681" lon="11.1872047"><ele>183.0</ele><time>2026-05-02T10:58:32.536Z</time></trkpt><trkpt lat="42.389892" lon="11.1872039"><ele>183.0</ele><time>2026-05-02T10:58:33.535Z</time></trkpt><trkpt lat="42.3897865" lon="11.1871988"><ele>183.0</ele><time>2026-05-02T10:58:35.534Z</time></trkpt><trkpt lat="42.3898175" lon="11.1870837"><ele>183.0</ele><time>2026-05-02T10:58:38.535Z</time></trkpt><trkpt lat="42.3899416" lon="11.1870861"><ele>183.0</ele><time>2026-05-02T10:58:40.535Z</time></trkpt><trkpt lat="42.3900066" lon="11.187075"><ele>183.0</ele><time>2026-05-02T10:58:41.536Z</time></trkpt><trkpt lat="42.3900731" lon="11.1870357"><ele>183.0</ele><time>2026-05-02T10:58:42.535Z</time></trkpt><trkpt lat="42.390137" lon="11.1869952"><ele>183.0</ele><time>2026-05-02T10:58:43.537Z</time></trkpt><trkpt lat="42.390199" lon="11.1869361"><ele>183.0</ele><time>2026-05-02T10:58:44.534Z</time></trkpt><trkpt lat="42.3902621" lon="11.1868765"><ele>183.0</ele><time>2026-05-02T10:58:45.535Z</time></trkpt><trkpt lat="42.3903249" lon="11.1868286"><ele>183.0</ele><time>2026-05-02T10:58:46.535Z</time></trkpt><trkpt lat="42.3904006" lon="11.1868076"><ele>183.0</ele><time>2026-05-02T10:58:47.535Z</time></trkpt><trkpt lat="42.3904673" lon="11.1867954"><ele>183.0</ele><time>2026-05-02T10:58:48.534Z</time></trkpt><trkpt lat="42.3905339" lon="11.1867596"><ele>183.0</ele><time>2026-05-02T10:58:49.536Z</time></trkpt><trkpt lat="42.3906085" lon="11.1866963"><ele>182.2</ele><time>2026-05-02T10:58:50.536Z</time></trkpt><trkpt lat="42.3906737" lon="11.1866194"><ele>181.4</ele><time>2026-05-02T10:58:51.535Z</time></trkpt><trkpt lat="42.3907277" lon="11.1865581"><ele>180.6</ele><time>2026-05-02T10:58:52.534Z</time></trkpt><trkpt lat="42.3907703" lon="11.186442"><ele>179.79999999999998</ele><time>2026-05-02T10:58:54.535Z</time></trkpt><trkpt lat="42.3906831" lon="11.1863106"><ele>179.0</ele><time>2026-05-02T10:58:56.536Z</time></trkpt><trkpt lat="42.3906356" lon="11.1862323"><ele>181.2</ele><time>2026-05-02T10:58:57.534Z</time></trkpt><trkpt lat="42.3906021" lon="11.1861175"><ele>183.39999999999998</ele><time>2026-05-02T10:58:58.535Z</time></trkpt><trkpt lat="42.3905716" lon="11.1859735"><ele>185.6</ele><time>2026-05-02T10:58:59.534Z</time></trkpt><trkpt lat="42.3905526" lon="11.1858374"><ele>187.8</ele><time>2026-05-02T10:59:00.535Z</time></trkpt><trkpt lat="42.3905357" lon="11.1856887"><ele>190.0</ele><time>2026-05-02T10:59:01.534Z</time></trkpt><trkpt lat="42.3905155" lon="11.1855625"><ele>197.75</ele><time>2026-05-02T10:59:02.536Z</time></trkpt><trkpt lat="42.3904692" lon="11.1853975"><ele>205.5</ele><time>2026-05-02T10:59:03.534Z</time></trkpt><trkpt lat="42.3904234" lon="11.185241"><ele>213.25</ele><time>2026-05-02T10:59:04.535Z</time></trkpt><trkpt lat="42.3903691" lon="11.1850861"><ele>221.0</ele><time>2026-05-02T10:59:05.535Z</time></trkpt><trkpt lat="42.3903186" lon="11.1849471"><ele>223.50000000000003</ele><time>2026-05-02T10:59:06.534Z</time></trkpt><trkpt lat="42.3902782" lon="11.1848169"><ele>226.0</ele><time>2026-05-02T10:59:07.534Z</time></trkpt><trkpt lat="42.390257" lon="11.1846988"><ele>228.5</ele><time>2026-05-02T10:59:08.535Z</time></trkpt><trkpt lat="42.3902564" lon="11.1845821"><ele>231.0</ele><time>2026-05-02T10:59:09.534Z</time></trkpt><trkpt lat="42.3902749" lon="11.1844762"><ele>233.50000000000003</ele><time>2026-05-02T10:59:10.536Z</time></trkpt><trkpt lat="42.3903026" lon="11.1843737"><ele>236.0</ele><time>2026-05-02T10:59:11.535Z</time></trkpt><trkpt lat="42.3903261" lon="11.1842804"><ele>236.0</ele><time>2026-05-02T10:59:12.534Z</time></trkpt><trkpt lat="42.3903965" lon="11.1842146"><ele>236.00000000000003</ele><time>2026-05-02T10:59:13.535Z</time></trkpt><trkpt lat="42.390483" lon="11.1841352"><ele>236.00000000000003</ele><time>2026-05-02T10:59:14.534Z</time></trkpt><trkpt lat="42.390555" lon="11.1840661"><ele>236.0</ele><time>2026-05-02T10:59:15.535Z</time></trkpt><trkpt lat="42.3906303" lon="11.1840054"><ele>236.0</ele><time>2026-05-02T10:59:16.536Z</time></trkpt><trkpt lat="42.3907161" lon="11.1839591"><ele>236.50000000000003</ele><time>2026-05-02T10:59:17.535Z</time></trkpt><trkpt lat="42.390801" lon="11.1838983"><ele>237.0</ele><time>2026-05-02T10:59:18.534Z</time></trkpt><trkpt lat="42.3908705" lon="11.1838455"><ele>237.5</ele><time>2026-05-02T10:59:19.536Z</time></trkpt><trkpt lat="42.3909286" lon="11.1837787"><ele>238.0</ele><time>2026-05-02T10:59:20.536Z</time></trkpt><trkpt lat="42.3909866" lon="11.183672"><ele>238.50000000000003</ele><time>2026-05-02T10:59:21.535Z</time></trkpt><trkpt lat="42.3910326" lon="11.1835572"><ele>239.0</ele><time>2026-05-02T10:59:22.534Z</time></trkpt><trkpt lat="42.3910605" lon="11.1834144"><ele>239.0</ele><time>2026-05-02T10:59:23.536Z</time></trkpt><trkpt lat="42.3910894" lon="11.183253"><ele>238.99999999999997</ele><time>2026-05-02T10:59:24.535Z</time></trkpt><trkpt lat="42.39113" lon="11.1830993"><ele>238.99999999999997</ele><time>2026-05-02T10:59:25.534Z</time></trkpt><trkpt lat="42.3911645" lon="11.1829643"><ele>239.0</ele><time>2026-05-02T10:59:26.535Z</time></trkpt><trkpt lat="42.3911996" lon="11.1828519"><ele>239.0</ele><time>2026-05-02T10:59:27.536Z</time></trkpt><trkpt lat="42.3912361" lon="11.1827402"><ele>242.50000000000003</ele><time>2026-05-02T10:59:28.534Z</time></trkpt><trkpt lat="42.3912739" lon="11.1826419"><ele>246.0</ele><time>2026-05-02T10:59:29.535Z</time></trkpt><trkpt lat="42.3912905" lon="11.1825437"><ele>249.5</ele><time>2026-05-02T10:59:30.534Z</time></trkpt><trkpt lat="42.3913361" lon="11.1823851"><ele>253.0</ele><time>2026-05-02T10:59:32.536Z</time></trkpt><trkpt lat="42.3913987" lon="11.1823291"><ele>256.5</ele><time>2026-05-02T10:59:33.535Z</time></trkpt><trkpt lat="42.3914736" lon="11.1822749"><ele>260.0</ele><time>2026-05-02T10:59:34.534Z</time></trkpt><trkpt lat="42.391583" lon="11.1822542"><ele>261.0</ele><time>2026-05-02T10:59:35.534Z</time></trkpt><trkpt lat="42.3916907" lon="11.1822347"><ele>262.0</ele><time>2026-05-02T10:59:36.535Z</time></trkpt><trkpt lat="42.3917856" lon="11.1822083"><ele>263.0</ele><time>2026-05-02T10:59:37.535Z</time></trkpt><trkpt lat="42.3918678" lon="11.1821912"><ele>264.0</ele><time>2026-05-02T10:59:38.534Z</time></trkpt><trkpt lat="42.39198" lon="11.1821387"><ele>265.0</ele><time>2026-05-02T10:59:40.535Z</time></trkpt><trkpt lat="42.3920836" lon="11.1820569"><ele>265.0</ele><time>2026-05-02T10:59:42.535Z</time></trkpt><trkpt lat="42.3921446" lon="11.1820023"><ele>265.0</ele><time>2026-05-02T10:59:43.536Z</time></trkpt><trkpt lat="42.3921809" lon="11.1819318"><ele>265.0</ele><time>2026-05-02T10:59:44.535Z</time></trkpt><trkpt lat="42.3922197" lon="11.1818578"><ele>265.0</ele><time>2026-05-02T10:59:45.534Z</time></trkpt><trkpt lat="42.3922338" lon="11.1817258"><ele>265.0</ele><time>2026-05-02T10:59:47.535Z</time></trkpt><trkpt lat="42.3921525" lon="11.1816193"><ele>265.0</ele><time>2026-05-02T10:59:49.535Z</time></trkpt><trkpt lat="42.3920889" lon="11.1815497"><ele>269.0</ele><time>2026-05-02T10:59:50.535Z</time></trkpt><trkpt lat="42.3920128" lon="11.1814409"><ele>273.0</ele><time>2026-05-02T10:59:51.535Z</time></trkpt><trkpt lat="42.3919468" lon="11.1813264"><ele>277.0</ele><time>2026-05-02T10:59:52.536Z</time></trkpt><trkpt lat="42.3918859" lon="11.1812241"><ele>281.0</ele><time>2026-05-02T10:59:53.536Z</time></trkpt><trkpt lat="42.3918124" lon="11.1810525"><ele>281.00000000000006</ele><time>2026-05-02T10:59:55.534Z</time></trkpt><trkpt lat="42.3918532" lon="11.1809704"><ele>281.0</ele><time>2026-05-02T10:59:56.535Z</time></trkpt><trkpt lat="42.3918804" lon="11.1808839"><ele>281.0</ele><time>2026-05-02T10:59:57.534Z</time></trkpt><trkpt lat="42.3919274" lon="11.1807883"><ele>281.0</ele><time>2026-05-02T10:59:58.535Z</time></trkpt><trkpt lat="42.3919682" lon="11.1807191"><ele>281.0</ele><time>2026-05-02T10:59:59.535Z</time></trkpt><trkpt lat="42.3920095" lon="11.1806515"><ele>281.00000000000006</ele><time>2026-05-02T11:00:00.534Z</time></trkpt><trkpt lat="42.3920388" lon="11.1805457"><ele>281.0</ele><time>2026-05-02T11:00:02.534Z</time></trkpt><trkpt lat="42.3920461" lon="11.1803773"><ele>284.2</ele><time>2026-05-02T11:00:12.534Z</time></trkpt><trkpt lat="42.3920563" lon="11.1802244"><ele>287.40000000000003</ele><time>2026-05-02T11:00:13.535Z</time></trkpt><trkpt lat="42.3920619" lon="11.1801004"><ele>290.6</ele><time>2026-05-02T11:00:14.534Z</time></trkpt><trkpt lat="42.3920635" lon="11.1799837"><ele>293.8</ele><time>2026-05-02T11:00:15.535Z</time></trkpt><trkpt lat="42.3920595" lon="11.1798607"><ele>297.0</ele><time>2026-05-02T11:00:16.535Z</time></trkpt><trkpt lat="42.3920349" lon="11.1797039"><ele>299.0</ele><time>2026-05-02T11:00:17.534Z</time></trkpt><trkpt lat="42.3919945" lon="11.1795604"><ele>301.0</ele><time>2026-05-02T11:00:18.536Z</time></trkpt><trkpt lat="42.3919855" lon="11.1794468"><ele>303.0</ele><time>2026-05-02T11:00:19.534Z</time></trkpt><trkpt lat="42.3919725" lon="11.1793251"><ele>305.0</ele><time>2026-05-02T11:00:20.535Z</time></trkpt><trkpt lat="42.3919516" lon="11.1792041"><ele>307.0</ele><time>2026-05-02T11:00:21.535Z</time></trkpt><trkpt lat="42.3919388" lon="11.1790624"><ele>308.0</ele><time>2026-05-02T11:00:23.536Z</time></trkpt><trkpt lat="42.3920117" lon="11.1789485"><ele>309.0</ele><time>2026-05-02T11:00:25.534Z</time></trkpt><trkpt lat="42.3920834" lon="11.1789164"><ele>310.0</ele><time>2026-05-02T11:00:26.536Z</time></trkpt><trkpt lat="42.3921605" lon="11.1788907"><ele>311.0</ele><time>2026-05-02T11:00:27.534Z</time></trkpt><trkpt lat="42.3922782" lon="11.178866"><ele>312.0</ele><time>2026-05-02T11:00:28.535Z</time></trkpt><trkpt lat="42.3923741" lon="11.1788438"><ele>312.0</ele><time>2026-05-02T11:00:29.535Z</time></trkpt><trkpt lat="42.3924626" lon="11.1788062"><ele>312.0</ele><time>2026-05-02T11:00:30.536Z</time></trkpt><trkpt lat="42.3925508" lon="11.1787705"><ele>312.0</ele><time>2026-05-02T11:00:31.536Z</time></trkpt><trkpt lat="42.3926219" lon="11.178729"><ele>312.0</ele><time>2026-05-02T11:00:32.534Z</time></trkpt><trkpt lat="42.3926806" lon="11.1786853"><ele>312.0</ele><time>2026-05-02T11:00:33.535Z</time></trkpt><trkpt lat="42.3927378" lon="11.1786249"><ele>312.0</ele><time>2026-05-02T11:00:34.534Z</time></trkpt><trkpt lat="42.3927855" lon="11.1785465"><ele>312.0</ele><time>2026-05-02T11:00:35.534Z</time></trkpt><trkpt lat="42.3928325" lon="11.178413"><ele>312.0</ele><time>2026-05-02T11:00:36.536Z</time></trkpt><trkpt lat="42.3928845" lon="11.1782801"><ele>312.0</ele><time>2026-05-02T11:00:37.534Z</time></trkpt><trkpt lat="42.3929517" lon="11.178109"><ele>312.0</ele><time>2026-05-02T11:00:38.535Z</time></trkpt><trkpt lat="42.3930067" lon="11.1779461"><ele>312.0</ele><time>2026-05-02T11:00:39.535Z</time></trkpt><trkpt lat="42.3930788" lon="11.1777852"><ele>312.0</ele><time>2026-05-02T11:00:40.534Z</time></trkpt><trkpt lat="42.3931211" lon="11.1776221"><ele>312.0</ele><time>2026-05-02T11:00:41.534Z</time></trkpt><trkpt lat="42.3931667" lon="11.1774503"><ele>312.0</ele><time>2026-05-02T11:00:42.535Z</time></trkpt><trkpt lat="42.3932132" lon="11.177297"><ele>317.75</ele><time>2026-05-02T11:00:43.534Z</time></trkpt><trkpt lat="42.3932599" lon="11.1771541"><ele>323.5</ele><time>2026-05-02T11:00:44.535Z</time></trkpt><trkpt lat="42.3933026" lon="11.1769935"><ele>329.25</ele><time>2026-05-02T11:00:45.535Z</time></trkpt><trkpt lat="42.3933403" lon="11.1768523"><ele>335.0</ele><time>2026-05-02T11:00:46.534Z</time></trkpt><trkpt lat="42.3933785" lon="11.1767275"><ele>335.0</ele><time>2026-05-02T11:00:47.534Z</time></trkpt><trkpt lat="42.3934137" lon="11.1765991"><ele>335.0</ele><time>2026-05-02T11:00:48.534Z</time></trkpt><trkpt lat="42.3934421" lon="11.17645"><ele>335.0</ele><time>2026-05-02T11:00:49.535Z</time></trkpt><trkpt lat="42.3934742" lon="11.1763164"><ele>335.0</ele><time>2026-05-02T11:00:50.533Z</time></trkpt><trkpt lat="42.3934907" lon="11.1761961"><ele>335.0</ele><time>2026-05-02T11:00:51.534Z</time></trkpt><trkpt lat="42.3935137" lon="11.1760856"><ele>337.83333333333337</ele><time>2026-05-02T11:00:52.535Z</time></trkpt><trkpt lat="42.3935255" lon="11.1759924"><ele>340.6666666666667</ele><time>2026-05-02T11:00:53.533Z</time></trkpt><trkpt lat="42.3935852" lon="11.1758932"><ele>343.5</ele><time>2026-05-02T11:00:55.534Z</time></trkpt><trkpt lat="42.3936973" lon="11.1758324"><ele>346.3333333333333</ele><time>2026-05-02T11:00:57.535Z</time></trkpt><trkpt lat="42.3937892" lon="11.1758238"><ele>349.16666666666663</ele><time>2026-05-02T11:00:58.534Z</time></trkpt><trkpt lat="42.3938585" lon="11.1757969"><ele>352.0</ele><time>2026-05-02T11:00:59.535Z</time></trkpt><trkpt lat="42.3939512" lon="11.1757608"><ele>352.0</ele><time>2026-05-02T11:01:00.533Z</time></trkpt><trkpt lat="42.3940414" lon="11.1757103"><ele>352.0</ele><time>2026-05-02T11:01:01.536Z</time></trkpt><trkpt lat="42.3941314" lon="11.1757011"><ele>352.0</ele><time>2026-05-02T11:01:02.534Z</time></trkpt><trkpt lat="42.3942266" lon="11.1757364"><ele>352.0</ele><time>2026-05-02T11:01:03.534Z</time></trkpt><trkpt lat="42.3943184" lon="11.1757883"><ele>352.0</ele><time>2026-05-02T11:01:04.534Z</time></trkpt><trkpt lat="42.3944172" lon="11.1758444"><ele>352.0</ele><time>2026-05-02T11:01:05.536Z</time></trkpt><trkpt lat="42.3945191" lon="11.1758983"><ele>352.0</ele><time>2026-05-02T11:01:06.534Z</time></trkpt><trkpt lat="42.3946334" lon="11.1759604"><ele>352.0</ele><time>2026-05-02T11:01:07.534Z</time></trkpt><trkpt lat="42.3947593" lon="11.1760218"><ele>352.0</ele><time>2026-05-02T11:01:08.535Z</time></trkpt><trkpt lat="42.3948884" lon="11.1760789"><ele>354.6</ele><time>2026-05-02T11:01:09.534Z</time></trkpt><trkpt lat="42.3949923" lon="11.1761278"><ele>357.20000000000005</ele><time>2026-05-02T11:01:10.535Z</time></trkpt><trkpt lat="42.3951045" lon="11.1761738"><ele>359.8</ele><time>2026-05-02T11:01:11.535Z</time></trkpt><trkpt lat="42.3951772" lon="11.1762317"><ele>362.4</ele><time>2026-05-02T11:01:12.535Z</time></trkpt><trkpt lat="42.3952476" lon="11.1762593"><ele>365.0</ele><time>2026-05-02T11:01:13.534Z</time></trkpt><trkpt lat="42.3953112" lon="11.1762891"><ele>365.0</ele><time>2026-05-02T11:01:14.535Z</time></trkpt><trkpt lat="42.3954251" lon="11.1763144"><ele>365.0</ele><time>2026-05-02T11:01:16.535Z</time></trkpt><trkpt lat="42.395493" lon="11.176274"><ele>365.0</ele><time>2026-05-02T11:01:17.534Z</time></trkpt><trkpt lat="42.3955524" lon="11.17624"><ele>365.0</ele><time>2026-05-02T11:01:18.535Z</time></trkpt><trkpt lat="42.3956276" lon="11.1761667"><ele>365.0</ele><time>2026-05-02T11:01:19.534Z</time></trkpt><trkpt lat="42.3956752" lon="11.1760943"><ele>365.0</ele><time>2026-05-02T11:01:20.536Z</time></trkpt><trkpt lat="42.3957157" lon="11.176023"><ele>365.8</ele><time>2026-05-02T11:01:21.535Z</time></trkpt><trkpt lat="42.3957583" lon="11.1759434"><ele>366.6</ele><time>2026-05-02T11:01:23.534Z</time></trkpt><trkpt lat="42.3957739" lon="11.17577"><ele>367.4</ele><time>2026-05-02T11:01:55.535Z</time></trkpt><trkpt lat="42.3957744" lon="11.1756497"><ele>368.2</ele><time>2026-05-02T11:01:56.534Z</time></trkpt><trkpt lat="42.3957758" lon="11.175536"><ele>369.0</ele><time>2026-05-02T11:01:57.535Z</time></trkpt><trkpt lat="42.3957637" lon="11.17538"><ele>371.5</ele><time>2026-05-02T11:01:58.534Z</time></trkpt><trkpt lat="42.3957586" lon="11.1752492"><ele>374.0</ele><time>2026-05-02T11:01:59.534Z</time></trkpt><trkpt lat="42.3957701" lon="11.1751167"><ele>376.5</ele><time>2026-05-02T11:02:00.534Z</time></trkpt><trkpt lat="42.3958022" lon="11.1749451"><ele>379.0</ele><time>2026-05-02T11:02:01.534Z</time></trkpt><trkpt lat="42.3958397" lon="11.1747803"><ele>381.79999999999995</ele><time>2026-05-02T11:02:02.534Z</time></trkpt><trkpt lat="42.3958582" lon="11.1746468"><ele>384.59999999999997</ele><time>2026-05-02T11:02:03.534Z</time></trkpt><trkpt lat="42.3958856" lon="11.1745161"><ele>387.4</ele><time>2026-05-02T11:02:04.534Z</time></trkpt><trkpt lat="42.3959043" lon="11.174375"><ele>390.2</ele><time>2026-05-02T11:02:05.534Z</time></trkpt><trkpt lat="42.3959086" lon="11.1742216"><ele>393.0</ele><time>2026-05-02T11:02:06.534Z</time></trkpt><trkpt lat="42.395915" lon="11.1740632"><ele>395.75</ele><time>2026-05-02T11:02:07.536Z</time></trkpt><trkpt lat="42.3959132" lon="11.1738828"><ele>398.5</ele><time>2026-05-02T11:02:08.533Z</time></trkpt><trkpt lat="42.3959306" lon="11.1736891"><ele>401.25</ele><time>2026-05-02T11:02:09.534Z</time></trkpt><trkpt lat="42.3959599" lon="11.1734982"><ele>404.0</ele><time>2026-05-02T11:02:10.534Z</time></trkpt><trkpt lat="42.3959918" lon="11.1733409"><ele>404.0</ele><time>2026-05-02T11:02:11.533Z</time></trkpt><trkpt lat="42.3960088" lon="11.1732142"><ele>404.0</ele><time>2026-05-02T11:02:12.533Z</time></trkpt><trkpt lat="42.396022" lon="11.1730921"><ele>404.0</ele><time>2026-05-02T11:02:13.534Z</time></trkpt><trkpt lat="42.3960378" lon="11.1729647"><ele>404.0</ele><time>2026-05-02T11:02:14.534Z</time></trkpt><trkpt lat="42.3960304" lon="11.1728526"><ele>404.0</ele><time>2026-05-02T11:02:15.535Z</time></trkpt><trkpt lat="42.3960269" lon="11.1727328"><ele>405.0</ele><time>2026-05-02T11:02:16.534Z</time></trkpt><trkpt lat="42.3960029" lon="11.1726125"><ele>406.0</ele><time>2026-05-02T11:02:17.534Z</time></trkpt><trkpt lat="42.3959841" lon="11.1724975"><ele>407.0</ele><time>2026-05-02T11:02:18.535Z</time></trkpt><trkpt lat="42.3959557" lon="11.1723912"><ele>408.0</ele><time>2026-05-02T11:02:19.535Z</time></trkpt><trkpt lat="42.3958798" lon="11.1723094"><ele>409.0</ele><time>2026-05-02T11:02:20.533Z</time></trkpt><trkpt lat="42.3958002" lon="11.1722096"><ele>410.25</ele><time>2026-05-02T11:02:21.534Z</time></trkpt><trkpt lat="42.3956865" lon="11.1720927"><ele>411.5</ele><time>2026-05-02T11:02:22.534Z</time></trkpt><trkpt lat="42.3955926" lon="11.1719918"><ele>412.75</ele><time>2026-05-02T11:02:23.533Z</time></trkpt><trkpt lat="42.3955098" lon="11.1718976"><ele>414.0</ele><time>2026-05-02T11:02:24.534Z</time></trkpt><trkpt lat="42.3954334" lon="11.1718213"><ele>415.5</ele><time>2026-05-02T11:02:25.535Z</time></trkpt><trkpt lat="42.3953705" lon="11.1716959"><ele>417.0</ele><time>2026-05-02T11:02:27.533Z</time></trkpt><trkpt lat="42.3953599" lon="11.1715919"><ele>418.5</ele><time>2026-05-02T11:02:29.533Z</time></trkpt><trkpt lat="42.3954399" lon="11.1715097"><ele>420.0</ele><time>2026-05-02T11:02:31.534Z</time></trkpt><trkpt lat="42.3955016" lon="11.1714842"><ele>421.5</ele><time>2026-05-02T11:02:32.533Z</time></trkpt><trkpt lat="42.3955714" lon="11.1714747"><ele>423.0</ele><time>2026-05-02T11:02:33.534Z</time></trkpt><trkpt lat="42.3956639" lon="11.1713899"><ele>423.79999999999995</ele><time>2026-05-02T11:02:35.533Z</time></trkpt><trkpt lat="42.3957148" lon="11.17131"><ele>424.6</ele><time>2026-05-02T11:02:36.533Z</time></trkpt><trkpt lat="42.3957722" lon="11.1712336"><ele>425.40000000000003</ele><time>2026-05-02T11:02:37.534Z</time></trkpt><trkpt lat="42.3958326" lon="11.1711637"><ele>426.20000000000005</ele><time>2026-05-02T11:02:38.534Z</time></trkpt><trkpt lat="42.3959769" lon="11.1711135"><ele>427.0</ele><time>2026-05-02T11:02:39.534Z</time></trkpt><trkpt lat="42.3960718" lon="11.17107"><ele>427.0</ele><time>2026-05-02T11:02:40.534Z</time></trkpt><trkpt lat="42.3961566" lon="11.1710506"><ele>427.00000000000006</ele><time>2026-05-02T11:02:41.535Z</time></trkpt><trkpt lat="42.3962449" lon="11.1709869"><ele>427.00000000000006</ele><time>2026-05-02T11:02:42.534Z</time></trkpt><trkpt lat="42.3963252" lon="11.1708934"><ele>427.0</ele><time>2026-05-02T11:02:43.535Z</time></trkpt><trkpt lat="42.3964007" lon="11.1707973"><ele>427.0</ele><time>2026-05-02T11:02:44.534Z</time></trkpt><trkpt lat="42.3964445" lon="11.1707048"><ele>426.8</ele><time>2026-05-02T11:02:45.534Z</time></trkpt><trkpt lat="42.3964759" lon="11.1705968"><ele>426.6</ele><time>2026-05-02T11:02:46.535Z</time></trkpt><trkpt lat="42.3965078" lon="11.1704967"><ele>426.40000000000003</ele><time>2026-05-02T11:02:47.533Z</time></trkpt><trkpt lat="42.3965416" lon="11.1703801"><ele>426.20000000000005</ele><time>2026-05-02T11:02:48.535Z</time></trkpt><trkpt lat="42.3965731" lon="11.1702653"><ele>426.0</ele><time>2026-05-02T11:02:49.535Z</time></trkpt><trkpt lat="42.3966005" lon="11.1701068"><ele>425.99999999999994</ele><time>2026-05-02T11:02:51.535Z</time></trkpt><trkpt lat="42.3966278" lon="11.1701578"><ele>426.0</ele><time>2026-05-02T11:03:23.535Z</time></trkpt><trkpt lat="42.3966314" lon="11.1702476"><ele>426.0</ele><time>2026-05-02T11:03:25.533Z</time></trkpt><trkpt lat="42.3966731" lon="11.1703358"><ele>426.0</ele><time>2026-05-02T11:03:27.535Z</time></trkpt><trkpt lat="42.3967249" lon="11.1704362"><ele>426.0</ele><time>2026-05-02T11:03:29.534Z</time></trkpt><trkpt lat="42.3967863" lon="11.1705157"><ele>425.99999999999994</ele><time>2026-05-02T11:03:31.534Z</time></trkpt><trkpt lat="42.396866" lon="11.1705208"><ele>426.0</ele><time>2026-05-02T11:03:33.534Z</time></trkpt><trkpt lat="42.3969543" lon="11.1705051"><ele>426.0</ele><time>2026-05-02T11:03:35.534Z</time></trkpt><trkpt lat="42.3970453" lon="11.1705107"><ele>426.0</ele><time>2026-05-02T11:03:37.534Z</time></trkpt><trkpt lat="42.3971101" lon="11.1705014"><ele>426.0</ele><time>2026-05-02T11:03:39.535Z</time></trkpt><trkpt lat="42.397224" lon="11.1704316"><ele>426.0</ele><time>2026-05-02T11:03:41.534Z</time></trkpt><trkpt lat="42.3972937" lon="11.1703784"><ele>426.0</ele><time>2026-05-02T11:03:42.534Z</time></trkpt><trkpt lat="42.397364" lon="11.1703224"><ele>426.0</ele><time>2026-05-02T11:03:43.533Z</time></trkpt><trkpt lat="42.3974436" lon="11.1702662"><ele>423.20000000000005</ele><time>2026-05-02T11:03:44.533Z</time></trkpt><trkpt lat="42.3975078" lon="11.1701997"><ele>420.40000000000003</ele><time>2026-05-02T11:03:45.534Z</time></trkpt><trkpt lat="42.3975812" lon="11.1701513"><ele>417.6</ele><time>2026-05-02T11:03:46.533Z</time></trkpt><trkpt lat="42.3976618" lon="11.1700381"><ele>414.8</ele><time>2026-05-02T11:03:48.533Z</time></trkpt><trkpt lat="42.3977073" lon="11.1698995"><ele>412.0</ele><time>2026-05-02T11:03:50.534Z</time></trkpt><trkpt lat="42.3977737" lon="11.1698299"><ele>412.0</ele><time>2026-05-02T11:03:52.534Z</time></trkpt><trkpt lat="42.3978371" lon="11.1697443"><ele>412.0</ele><time>2026-05-02T11:03:54.533Z</time></trkpt><trkpt lat="42.3979129" lon="11.1696152"><ele>412.0</ele><time>2026-05-02T11:03:56.533Z</time></trkpt><trkpt lat="42.3979494" lon="11.1694397"><ele>412.0</ele><time>2026-05-02T11:03:58.534Z</time></trkpt><trkpt lat="42.3979648" lon="11.1693467"><ele>412.0</ele><time>2026-05-02T11:03:59.533Z</time></trkpt><trkpt lat="42.3979867" lon="11.169256"><ele>413.33333333333337</ele><time>2026-05-02T11:04:00.533Z</time></trkpt><trkpt lat="42.3980078" lon="11.169172"><ele>414.6666666666667</ele><time>2026-05-02T11:04:01.534Z</time></trkpt><trkpt lat="42.3980365" lon="11.1690873"><ele>416.0</ele><time>2026-05-02T11:04:02.533Z</time></trkpt><trkpt lat="42.3980972" lon="11.1690059"><ele>417.33333333333337</ele><time>2026-05-02T11:04:04.533Z</time></trkpt><trkpt lat="42.3981839" lon="11.1690097"><ele>418.6666666666667</ele><time>2026-05-02T11:04:06.533Z</time></trkpt><trkpt lat="42.3982994" lon="11.1690345"><ele>420.0</ele><time>2026-05-02T11:04:08.534Z</time></trkpt><trkpt lat="42.3983995" lon="11.1690578"><ele>416.3333333333333</ele><time>2026-05-02T11:04:10.533Z</time></trkpt><trkpt lat="42.3984955" lon="11.1691266"><ele>412.66666666666663</ele><time>2026-05-02T11:04:12.533Z</time></trkpt><trkpt lat="42.3985373" lon="11.1691928"><ele>409.0</ele><time>2026-05-02T11:04:13.534Z</time></trkpt><trkpt lat="42.3985894" lon="11.169256"><ele>405.3333333333333</ele><time>2026-05-02T11:04:14.535Z</time></trkpt><trkpt lat="42.3986981" lon="11.1693386"><ele>401.66666666666663</ele><time>2026-05-02T11:04:16.534Z</time></trkpt><trkpt lat="42.3987576" lon="11.1693797"><ele>398.0</ele><time>2026-05-02T11:04:17.533Z</time></trkpt><trkpt lat="42.3988737" lon="11.1694033"><ele>396.66666666666663</ele><time>2026-05-02T11:04:19.534Z</time></trkpt><trkpt lat="42.3989858" lon="11.1693957"><ele>395.3333333333333</ele><time>2026-05-02T11:04:21.535Z</time></trkpt><trkpt lat="42.3990907" lon="11.1693375"><ele>394.0</ele><time>2026-05-02T11:04:23.534Z</time></trkpt><trkpt lat="42.3991501" lon="11.1692699"><ele>392.66666666666663</ele><time>2026-05-02T11:04:24.535Z</time></trkpt><trkpt lat="42.3992057" lon="11.1692082"><ele>391.3333333333333</ele><time>2026-05-02T11:04:25.535Z</time></trkpt><trkpt lat="42.3992709" lon="11.169191"><ele>390.0</ele><time>2026-05-02T11:04:26.533Z</time></trkpt><trkpt lat="42.399381" lon="11.1692378"><ele>390.0</ele><time>2026-05-02T11:04:28.534Z</time></trkpt><trkpt lat="42.3994433" lon="11.1693045"><ele>390.0</ele><time>2026-05-02T11:04:30.534Z</time></trkpt><trkpt lat="42.3995011" lon="11.1693993"><ele>390.0</ele><time>2026-05-02T11:04:32.534Z</time></trkpt><trkpt lat="42.3995683" lon="11.1694528"><ele>390.0</ele><time>2026-05-02T11:04:34.533Z</time></trkpt><trkpt lat="42.3996322" lon="11.1694758"><ele>390.0</ele><time>2026-05-02T11:04:35.534Z</time></trkpt><trkpt lat="42.3997008" lon="11.1694819"><ele>390.0</ele><time>2026-05-02T11:04:36.533Z</time></trkpt><trkpt lat="42.3997762" lon="11.1694871"><ele>391.5</ele><time>2026-05-02T11:04:37.534Z</time></trkpt><trkpt lat="42.3999212" lon="11.1694723"><ele>393.0</ele><time>2026-05-02T11:04:38.533Z</time></trkpt><trkpt lat="42.4000389" lon="11.1694705"><ele>394.5</ele><time>2026-05-02T11:04:39.534Z</time></trkpt><trkpt lat="42.400143" lon="11.1694879"><ele>396.0</ele><time>2026-05-02T11:04:40.533Z</time></trkpt><trkpt lat="42.4002395" lon="11.1694979"><ele>396.0</ele><time>2026-05-02T11:04:41.533Z</time></trkpt><trkpt lat="42.4003287" lon="11.169517"><ele>396.0</ele><time>2026-05-02T11:04:42.533Z</time></trkpt><trkpt lat="42.4004114" lon="11.1695175"><ele>396.0</ele><time>2026-05-02T11:04:43.533Z</time></trkpt><trkpt lat="42.4005004" lon="11.1695328"><ele>396.0</ele><time>2026-05-02T11:04:44.534Z</time></trkpt><trkpt lat="42.4005925" lon="11.1695224"><ele>396.0</ele><time>2026-05-02T11:04:45.533Z</time></trkpt><trkpt lat="42.400669" lon="11.1694983"><ele>396.0</ele><time>2026-05-02T11:04:46.535Z</time></trkpt><trkpt lat="42.4007355" lon="11.1694739"><ele>396.6666666666667</ele><time>2026-05-02T11:04:47.533Z</time></trkpt><trkpt lat="42.400813" lon="11.1694323"><ele>397.33333333333337</ele><time>2026-05-02T11:04:48.534Z</time></trkpt><trkpt lat="42.4008857" lon="11.1694465"><ele>398.0</ele><time>2026-05-02T11:04:49.533Z</time></trkpt><trkpt lat="42.4009618" lon="11.1694798"><ele>398.6666666666667</ele><time>2026-05-02T11:04:50.532Z</time></trkpt><trkpt lat="42.4010228" lon="11.169551"><ele>399.33333333333337</ele><time>2026-05-02T11:04:51.533Z</time></trkpt><trkpt lat="42.4010883" lon="11.1696151"><ele>400.0</ele><time>2026-05-02T11:04:52.534Z</time></trkpt><trkpt lat="42.4011408" lon="11.1696709"><ele>400.00000000000006</ele><time>2026-05-02T11:04:53.533Z</time></trkpt><trkpt lat="42.4011839" lon="11.1697578"><ele>400.0</ele><time>2026-05-02T11:04:54.532Z</time></trkpt><trkpt lat="42.4012133" lon="11.1698514"><ele>400.0</ele><time>2026-05-02T11:04:55.533Z</time></trkpt><trkpt lat="42.4012502" lon="11.1699343"><ele>400.0</ele><time>2026-05-02T11:04:56.534Z</time></trkpt><trkpt lat="42.4013012" lon="11.1700091"><ele>400.0</ele><time>2026-05-02T11:04:57.533Z</time></trkpt><trkpt lat="42.4013572" lon="11.170082"><ele>400.00000000000006</ele><time>2026-05-02T11:04:58.534Z</time></trkpt><trkpt lat="42.401416" lon="11.1701288"><ele>400.0</ele><time>2026-05-02T11:04:59.532Z</time></trkpt><trkpt lat="42.4014761" lon="11.1701703"><ele>399.00000000000006</ele><time>2026-05-02T11:05:00.534Z</time></trkpt><trkpt lat="42.4015499" lon="11.1702102"><ele>398.0</ele><time>2026-05-02T11:05:01.532Z</time></trkpt><trkpt lat="42.4016405" lon="11.1702558"><ele>397.0</ele><time>2026-05-02T11:05:02.534Z</time></trkpt><trkpt lat="42.4017274" lon="11.1703079"><ele>396.0</ele><time>2026-05-02T11:05:03.532Z</time></trkpt><trkpt lat="42.4018032" lon="11.1703534"><ele>395.00000000000006</ele><time>2026-05-02T11:05:04.534Z</time></trkpt><trkpt lat="42.4018718" lon="11.1703886"><ele>394.0</ele><time>2026-05-02T11:05:05.532Z</time></trkpt><trkpt lat="42.4019488" lon="11.1704036"><ele>394.00000000000006</ele><time>2026-05-02T11:05:06.534Z</time></trkpt><trkpt lat="42.4020215" lon="11.1704208"><ele>394.0</ele><time>2026-05-02T11:05:07.534Z</time></trkpt><trkpt lat="42.4021125" lon="11.170456"><ele>394.0</ele><time>2026-05-02T11:05:08.535Z</time></trkpt><trkpt lat="42.4021913" lon="11.1704833"><ele>394.0</ele><time>2026-05-02T11:05:09.534Z</time></trkpt><trkpt lat="42.4022654" lon="11.170499"><ele>394.00000000000006</ele><time>2026-05-02T11:05:10.533Z</time></trkpt><trkpt lat="42.4023372" lon="11.170534"><ele>394.0</ele><time>2026-05-02T11:05:11.532Z</time></trkpt><trkpt lat="42.4024055" lon="11.1705468"><ele>393.2</ele><time>2026-05-02T11:05:12.535Z</time></trkpt><trkpt lat="42.4025285" lon="11.1705319"><ele>392.4</ele><time>2026-05-02T11:05:14.533Z</time></trkpt><trkpt lat="42.4025863" lon="11.1704893"><ele>391.6</ele><time>2026-05-02T11:05:15.534Z</time></trkpt><trkpt lat="42.4026887" lon="11.1703418"><ele>390.8</ele><time>2026-05-02T11:05:17.532Z</time></trkpt><trkpt lat="42.4027398" lon="11.1702581"><ele>390.0</ele><time>2026-05-02T11:05:18.532Z</time></trkpt><trkpt lat="42.4028111" lon="11.1701061"><ele>390.0</ele><time>2026-05-02T11:05:19.534Z</time></trkpt><trkpt lat="42.4028636" lon="11.1699888"><ele>390.0</ele><time>2026-05-02T11:05:20.534Z</time></trkpt><trkpt lat="42.402909" lon="11.1698822"><ele>390.0</ele><time>2026-05-02T11:05:21.534Z</time></trkpt><trkpt lat="42.402941" lon="11.1697809"><ele>390.0</ele><time>2026-05-02T11:05:22.535Z</time></trkpt><trkpt lat="42.4029594" lon="11.1696788"><ele>390.0</ele><time>2026-05-02T11:05:23.533Z</time></trkpt><trkpt lat="42.4029595" lon="11.1695657"><ele>390.0</ele><time>2026-05-02T11:05:24.533Z</time></trkpt><trkpt lat="42.4029589" lon="11.1694467"><ele>390.75</ele><time>2026-05-02T11:05:25.534Z</time></trkpt><trkpt lat="42.4029467" lon="11.1692917"><ele>391.5</ele><time>2026-05-02T11:05:26.533Z</time></trkpt><trkpt lat="42.4029323" lon="11.1691275"><ele>392.25</ele><time>2026-05-02T11:05:27.533Z</time></trkpt><trkpt lat="42.4029016" lon="11.1689606"><ele>393.0</ele><time>2026-05-02T11:05:28.532Z</time></trkpt><trkpt lat="42.4028729" lon="11.1688034"><ele>393.8333333333333</ele><time>2026-05-02T11:05:29.532Z</time></trkpt><trkpt lat="42.4028672" lon="11.1686977"><ele>394.66666666666663</ele><time>2026-05-02T11:05:30.534Z</time></trkpt><trkpt lat="42.4028635" lon="11.1685988"><ele>395.5</ele><time>2026-05-02T11:05:31.533Z</time></trkpt><trkpt lat="42.4028627" lon="11.1685131"><ele>396.3333333333333</ele><time>2026-05-02T11:05:32.534Z</time></trkpt><trkpt lat="42.4029156" lon="11.1684363"><ele>397.16666666666663</ele><time>2026-05-02T11:05:33.534Z</time></trkpt><trkpt lat="42.402976" lon="11.1683675"><ele>398.0</ele><time>2026-05-02T11:05:34.534Z</time></trkpt><trkpt lat="42.4030617" lon="11.1682852"><ele>398.4</ele><time>2026-05-02T11:05:35.532Z</time></trkpt><trkpt lat="42.403153" lon="11.1682046"><ele>398.79999999999995</ele><time>2026-05-02T11:05:36.533Z</time></trkpt><trkpt lat="42.4032449" lon="11.1681305"><ele>399.2</ele><time>2026-05-02T11:05:37.532Z</time></trkpt><trkpt lat="42.4033335" lon="11.1680584"><ele>399.6</ele><time>2026-05-02T11:05:38.534Z</time></trkpt><trkpt lat="42.403398" lon="11.1680061"><ele>400.0</ele><time>2026-05-02T11:05:39.533Z</time></trkpt><trkpt lat="42.4034692" lon="11.1679436"><ele>400.00000000000006</ele><time>2026-05-02T11:05:40.532Z</time></trkpt><trkpt lat="42.4035471" lon="11.1679018"><ele>400.0</ele><time>2026-05-02T11:05:41.533Z</time></trkpt><trkpt lat="42.4036212" lon="11.1678747"><ele>400.0</ele><time>2026-05-02T11:05:42.534Z</time></trkpt><trkpt lat="42.4036983" lon="11.1678703"><ele>400.0</ele><time>2026-05-02T11:05:43.532Z</time></trkpt><trkpt lat="42.4037816" lon="11.1678924"><ele>400.00000000000006</ele><time>2026-05-02T11:05:44.533Z</time></trkpt><trkpt lat="42.403894" lon="11.1679502"><ele>400.0</ele><time>2026-05-02T11:05:45.532Z</time></trkpt><trkpt lat="42.4039837" lon="11.1679935"><ele>400.0</ele><time>2026-05-02T11:05:46.534Z</time></trkpt><trkpt lat="42.4040969" lon="11.1680473"><ele>400.0</ele><time>2026-05-02T11:05:47.532Z</time></trkpt><trkpt lat="42.4042043" lon="11.1680925"><ele>400.0</ele><time>2026-05-02T11:05:48.533Z</time></trkpt><trkpt lat="42.4043038" lon="11.1680979"><ele>400.0</ele><time>2026-05-02T11:05:49.533Z</time></trkpt><trkpt lat="42.4043965" lon="11.1680997"><ele>400.0</ele><time>2026-05-02T11:05:50.532Z</time></trkpt><trkpt lat="42.4044908" lon="11.1680911"><ele>400.00000000000006</ele><time>2026-05-02T11:05:51.533Z</time></trkpt><trkpt lat="42.4045738" lon="11.1680744"><ele>400.0</ele><time>2026-05-02T11:05:52.534Z</time></trkpt><trkpt lat="42.4046506" lon="11.1680362"><ele>400.0</ele><time>2026-05-02T11:05:53.533Z</time></trkpt><trkpt lat="42.4047079" lon="11.1679824"><ele>400.0</ele><time>2026-05-02T11:05:54.533Z</time></trkpt><trkpt lat="42.4047653" lon="11.1679262"><ele>400.00000000000006</ele><time>2026-05-02T11:05:55.533Z</time></trkpt><trkpt lat="42.4047884" lon="11.1678263"><ele>400.0</ele><time>2026-05-02T11:05:56.532Z</time></trkpt><trkpt lat="42.404813" lon="11.1677404"><ele>397.8</ele><time>2026-05-02T11:05:57.533Z</time></trkpt><trkpt lat="42.4048315" lon="11.1676342"><ele>395.6</ele><time>2026-05-02T11:05:58.534Z</time></trkpt><trkpt lat="42.4048559" lon="11.1675119"><ele>393.4</ele><time>2026-05-02T11:05:59.534Z</time></trkpt><trkpt lat="42.4048354" lon="11.1673328"><ele>391.2</ele><time>2026-05-02T11:06:00.532Z</time></trkpt><trkpt lat="42.4048462" lon="11.1671744"><ele>389.0</ele><time>2026-05-02T11:06:01.533Z</time></trkpt><trkpt lat="42.4048733" lon="11.1670149"><ele>389.0</ele><time>2026-05-02T11:06:02.533Z</time></trkpt><trkpt lat="42.4049046" lon="11.1668839"><ele>389.0</ele><time>2026-05-02T11:06:03.533Z</time></trkpt><trkpt lat="42.4049223" lon="11.166771"><ele>389.0</ele><time>2026-05-02T11:06:04.532Z</time></trkpt><trkpt lat="42.4049367" lon="11.1666615"><ele>389.0</ele><time>2026-05-02T11:06:05.533Z</time></trkpt><trkpt lat="42.4049444" lon="11.1665209"><ele>389.0</ele><time>2026-05-02T11:06:06.533Z</time></trkpt><trkpt lat="42.4049449" lon="11.1663608"><ele>390.5</ele><time>2026-05-02T11:06:07.532Z</time></trkpt><trkpt lat="42.40494" lon="11.1661883"><ele>392.0</ele><time>2026-05-02T11:06:08.533Z</time></trkpt><trkpt lat="42.4049541" lon="11.1660326"><ele>393.5</ele><time>2026-05-02T11:06:09.535Z</time></trkpt><trkpt lat="42.4049438" lon="11.1658649"><ele>395.0</ele><time>2026-05-02T11:06:10.534Z</time></trkpt><trkpt lat="42.4049325" lon="11.1657102"><ele>395.66666666666663</ele><time>2026-05-02T11:06:11.533Z</time></trkpt><trkpt lat="42.4049132" lon="11.1655856"><ele>396.3333333333333</ele><time>2026-05-02T11:06:12.532Z</time></trkpt><trkpt lat="42.4049125" lon="11.1654717"><ele>397.0</ele><time>2026-05-02T11:06:13.534Z</time></trkpt><trkpt lat="42.4049128" lon="11.1653439"><ele>397.66666666666663</ele><time>2026-05-02T11:06:14.533Z</time></trkpt><trkpt lat="42.4049229" lon="11.165252"><ele>398.3333333333333</ele><time>2026-05-02T11:06:15.534Z</time></trkpt><trkpt lat="42.4049571" lon="11.1651475"><ele>399.0</ele><time>2026-05-02T11:06:16.534Z</time></trkpt><trkpt lat="42.4049796" lon="11.1650384"><ele>399.0</ele><time>2026-05-02T11:06:17.533Z</time></trkpt><trkpt lat="42.4050254" lon="11.1649508"><ele>399.0</ele><time>2026-05-02T11:06:18.533Z</time></trkpt><trkpt lat="42.4050697" lon="11.1648835"><ele>399.0</ele><time>2026-05-02T11:06:19.533Z</time></trkpt><trkpt lat="42.4051197" lon="11.164793"><ele>399.0</ele><time>2026-05-02T11:06:20.532Z</time></trkpt><trkpt lat="42.4051573" lon="11.1647233"><ele>399.0</ele><time>2026-05-02T11:06:21.535Z</time></trkpt><trkpt lat="42.405186" lon="11.1646463"><ele>399.0</ele><time>2026-05-02T11:06:22.532Z</time></trkpt><trkpt lat="42.4052116" lon="11.164568"><ele>399.0</ele><time>2026-05-02T11:06:23.532Z</time></trkpt><trkpt lat="42.4052421" lon="11.1644871"><ele>398.79999999999995</ele><time>2026-05-02T11:06:24.533Z</time></trkpt><trkpt lat="42.4052909" lon="11.164353"><ele>398.59999999999997</ele><time>2026-05-02T11:06:26.534Z</time></trkpt><trkpt lat="42.4053563" lon="11.1642644"><ele>398.4</ele><time>2026-05-02T11:06:28.534Z</time></trkpt><trkpt lat="42.4054667" lon="11.1642567"><ele>398.2</ele><time>2026-05-02T11:06:30.533Z</time></trkpt><trkpt lat="42.4055325" lon="11.1643275"><ele>398.0</ele><time>2026-05-02T11:06:31.533Z</time></trkpt><trkpt lat="42.4055823" lon="11.1643878"><ele>397.99999999999994</ele><time>2026-05-02T11:06:32.534Z</time></trkpt><trkpt lat="42.4056439" lon="11.1644445"><ele>398.0</ele><time>2026-05-02T11:06:33.534Z</time></trkpt><trkpt lat="42.4057305" lon="11.1644957"><ele>398.0</ele><time>2026-05-02T11:06:34.532Z</time></trkpt><trkpt lat="42.4058157" lon="11.1645393"><ele>398.0</ele><time>2026-05-02T11:06:35.533Z</time></trkpt><trkpt lat="42.4058973" lon="11.1645996"><ele>397.99999999999994</ele><time>2026-05-02T11:06:36.533Z</time></trkpt><trkpt lat="42.4059564" lon="11.1646521"><ele>398.0</ele><time>2026-05-02T11:06:37.533Z</time></trkpt><trkpt lat="42.4060171" lon="11.1647066"><ele>397.99999999999994</ele><time>2026-05-02T11:06:38.533Z</time></trkpt><trkpt lat="42.4060841" lon="11.1647407"><ele>398.0</ele><time>2026-05-02T11:06:39.534Z</time></trkpt><trkpt lat="42.4061815" lon="11.1647957"><ele>398.0</ele><time>2026-05-02T11:06:41.533Z</time></trkpt><trkpt lat="42.4062548" lon="11.1648219"><ele>398.0</ele><time>2026-05-02T11:06:42.533Z</time></trkpt><trkpt lat="42.40634" lon="11.1648401"><ele>397.99999999999994</ele><time>2026-05-02T11:06:43.532Z</time></trkpt><trkpt lat="42.4064353" lon="11.1648377"><ele>398.0</ele><time>2026-05-02T11:06:44.533Z</time></trkpt><trkpt lat="42.406541" lon="11.1648314"><ele>396.99999999999994</ele><time>2026-05-02T11:06:45.533Z</time></trkpt><trkpt lat="42.4066341" lon="11.1648493"><ele>396.0</ele><time>2026-05-02T11:06:46.532Z</time></trkpt><trkpt lat="42.4067336" lon="11.1648596"><ele>395.0</ele><time>2026-05-02T11:06:47.533Z</time></trkpt><trkpt lat="42.406822" lon="11.1648887"><ele>394.0</ele><time>2026-05-02T11:06:48.532Z</time></trkpt><trkpt lat="42.4068973" lon="11.1649221"><ele>392.99999999999994</ele><time>2026-05-02T11:06:49.533Z</time></trkpt><trkpt lat="42.4069679" lon="11.1649489"><ele>392.0</ele><time>2026-05-02T11:06:50.533Z</time></trkpt><trkpt lat="42.4070415" lon="11.1649584"><ele>388.99999999999994</ele><time>2026-05-02T11:06:51.533Z</time></trkpt><trkpt lat="42.4071103" lon="11.1649711"><ele>386.0</ele><time>2026-05-02T11:06:52.533Z</time></trkpt><trkpt lat="42.4071823" lon="11.1649821"><ele>383.0</ele><time>2026-05-02T11:06:53.533Z</time></trkpt><trkpt lat="42.4072511" lon="11.1649775"><ele>380.0</ele><time>2026-05-02T11:06:54.533Z</time></trkpt><trkpt lat="42.4073154" lon="11.1649786"><ele>377.0</ele><time>2026-05-02T11:06:55.534Z</time></trkpt><trkpt lat="42.4073796" lon="11.1649668"><ele>374.0</ele><time>2026-05-02T11:06:56.532Z</time></trkpt><trkpt lat="42.407494" lon="11.1649698"><ele>373.79999999999995</ele><time>2026-05-02T11:06:58.533Z</time></trkpt><trkpt lat="42.4076022" lon="11.1649782"><ele>373.59999999999997</ele><time>2026-05-02T11:07:00.532Z</time></trkpt><trkpt lat="42.4077186" lon="11.1649443"><ele>373.4</ele><time>2026-05-02T11:07:02.533Z</time></trkpt><trkpt lat="42.4077811" lon="11.1649"><ele>373.2</ele><time>2026-05-02T11:07:03.534Z</time></trkpt><trkpt lat="42.4078559" lon="11.1648154"><ele>373.0</ele><time>2026-05-02T11:07:04.533Z</time></trkpt><trkpt lat="42.4079147" lon="11.1647541"><ele>373.0</ele><time>2026-05-02T11:07:05.532Z</time></trkpt><trkpt lat="42.407986" lon="11.1646852"><ele>373.0</ele><time>2026-05-02T11:07:06.533Z</time></trkpt><trkpt lat="42.408058" lon="11.1646254"><ele>373.0</ele><time>2026-05-02T11:07:07.533Z</time></trkpt><trkpt lat="42.4081291" lon="11.1645746"><ele>373.0</ele><time>2026-05-02T11:07:08.532Z</time></trkpt><trkpt lat="42.4081947" lon="11.1645223"><ele>373.0</ele><time>2026-05-02T11:07:09.533Z</time></trkpt><trkpt lat="42.4082576" lon="11.1644695"><ele>373.0</ele><time>2026-05-02T11:07:10.532Z</time></trkpt><trkpt lat="42.4083217" lon="11.1643931"><ele>370.79999999999995</ele><time>2026-05-02T11:07:11.532Z</time></trkpt><trkpt lat="42.4083889" lon="11.164331"><ele>368.6</ele><time>2026-05-02T11:07:12.532Z</time></trkpt><trkpt lat="42.4084983" lon="11.1642058"><ele>366.4</ele><time>2026-05-02T11:07:14.533Z</time></trkpt><trkpt lat="42.4085628" lon="11.1641362"><ele>364.20000000000005</ele><time>2026-05-02T11:07:16.532Z</time></trkpt><trkpt lat="42.4086266" lon="11.1640696"><ele>362.0</ele><time>2026-05-02T11:07:19.531Z</time></trkpt><trkpt lat="42.4086902" lon="11.163976"><ele>362.0</ele><time>2026-05-02T11:07:22.532Z</time></trkpt><trkpt lat="42.4087545" lon="11.1638643"><ele>362.0</ele><time>2026-05-02T11:07:24.533Z</time></trkpt><trkpt lat="42.408824" lon="11.163738"><ele>362.0</ele><time>2026-05-02T11:07:26.532Z</time></trkpt><trkpt lat="42.4088796" lon="11.1636076"><ele>362.0</ele><time>2026-05-02T11:07:28.532Z</time></trkpt><trkpt lat="42.4089334" lon="11.1634808"><ele>362.0</ele><time>2026-05-02T11:07:30.533Z</time></trkpt><trkpt lat="42.4089735" lon="11.1633378"><ele>358.1666666666667</ele><time>2026-05-02T11:07:32.532Z</time></trkpt><trkpt lat="42.4089992" lon="11.163165"><ele>354.33333333333337</ele><time>2026-05-02T11:07:34.533Z</time></trkpt><trkpt lat="42.4090144" lon="11.1630782"><ele>350.5</ele><time>2026-05-02T11:07:35.533Z</time></trkpt><trkpt lat="42.409027" lon="11.1629883"><ele>346.6666666666667</ele><time>2026-05-02T11:07:36.534Z</time></trkpt><trkpt lat="42.4090354" lon="11.162892"><ele>342.8333333333333</ele><time>2026-05-02T11:07:37.534Z</time></trkpt><trkpt lat="42.4090382" lon="11.162802"><ele>339.0</ele><time>2026-05-02T11:07:38.533Z</time></trkpt><trkpt lat="42.4090329" lon="11.1627042"><ele>339.0</ele><time>2026-05-02T11:07:39.532Z</time></trkpt><trkpt lat="42.4090344" lon="11.1625988"><ele>339.0</ele><time>2026-05-02T11:07:40.533Z</time></trkpt><trkpt lat="42.409031" lon="11.1625052"><ele>339.0</ele><time>2026-05-02T11:07:41.534Z</time></trkpt><trkpt lat="42.4090286" lon="11.162414"><ele>339.0</ele><time>2026-05-02T11:07:42.532Z</time></trkpt><trkpt lat="42.4090337" lon="11.1623128"><ele>339.0</ele><time>2026-05-02T11:07:43.533Z</time></trkpt><trkpt lat="42.4090437" lon="11.162213"><ele>339.0</ele><time>2026-05-02T11:07:44.532Z</time></trkpt><trkpt lat="42.4090504" lon="11.1621259"><ele>339.0</ele><time>2026-05-02T11:07:45.533Z</time></trkpt><trkpt lat="42.4090623" lon="11.1619582"><ele>340.2</ele><time>2026-05-02T11:07:47.532Z</time></trkpt><trkpt lat="42.4091065" lon="11.1618229"><ele>341.4</ele><time>2026-05-02T11:07:49.532Z</time></trkpt><trkpt lat="42.4091482" lon="11.1617163"><ele>342.6</ele><time>2026-05-02T11:07:51.531Z</time></trkpt><trkpt lat="42.4092114" lon="11.1616924"><ele>343.8</ele><time>2026-05-02T11:08:21.532Z</time></trkpt><trkpt lat="42.409294" lon="11.1616945"><ele>345.0</ele><time>2026-05-02T11:08:22.533Z</time></trkpt><trkpt lat="42.4094109" lon="11.1617199"><ele>345.0</ele><time>2026-05-02T11:08:24.531Z</time></trkpt><trkpt lat="42.409476" lon="11.1617267"><ele>345.0</ele><time>2026-05-02T11:08:25.533Z</time></trkpt><trkpt lat="42.4095429" lon="11.1617099"><ele>345.0</ele><time>2026-05-02T11:08:26.532Z</time></trkpt><trkpt lat="42.4096174" lon="11.1616775"><ele>345.0</ele><time>2026-05-02T11:08:27.532Z</time></trkpt><trkpt lat="42.4096862" lon="11.1616339"><ele>345.0</ele><time>2026-05-02T11:08:28.532Z</time></trkpt><trkpt lat="42.409753" lon="11.1615964"><ele>345.0</ele><time>2026-05-02T11:08:29.532Z</time></trkpt><trkpt lat="42.4098137" lon="11.1615555"><ele>345.0</ele><time>2026-05-02T11:08:30.532Z</time></trkpt><trkpt lat="42.4098814" lon="11.1614985"><ele>344.6666666666667</ele><time>2026-05-02T11:08:31.533Z</time></trkpt><trkpt lat="42.4099482" lon="11.1614377"><ele>344.3333333333333</ele><time>2026-05-02T11:08:32.533Z</time></trkpt><trkpt lat="42.4100174" lon="11.1613811"><ele>344.0</ele><time>2026-05-02T11:08:33.533Z</time></trkpt><trkpt lat="42.4100869" lon="11.1613051"><ele>343.66666666666663</ele><time>2026-05-02T11:08:34.532Z</time></trkpt><trkpt lat="42.4101538" lon="11.1612148"><ele>343.3333333333333</ele><time>2026-05-02T11:08:35.533Z</time></trkpt><trkpt lat="42.4102137" lon="11.1611019"><ele>343.0</ele><time>2026-05-02T11:08:36.533Z</time></trkpt><trkpt lat="42.4102688" lon="11.1609985"><ele>343.0</ele><time>2026-05-02T11:08:37.532Z</time></trkpt><trkpt lat="42.410318" lon="11.1608887"><ele>343.0</ele><time>2026-05-02T11:08:38.533Z</time></trkpt><trkpt lat="42.4103682" lon="11.1607686"><ele>343.0</ele><time>2026-05-02T11:08:39.533Z</time></trkpt><trkpt lat="42.4104048" lon="11.1606645"><ele>343.0</ele><time>2026-05-02T11:08:40.532Z</time></trkpt><trkpt lat="42.410438" lon="11.1605518"><ele>343.0</ele><time>2026-05-02T11:08:41.533Z</time></trkpt><trkpt lat="42.4104837" lon="11.1604386"><ele>341.66666666666663</ele><time>2026-05-02T11:08:42.532Z</time></trkpt><trkpt lat="42.4105344" lon="11.1603334"><ele>340.3333333333333</ele><time>2026-05-02T11:08:43.533Z</time></trkpt><trkpt lat="42.4105783" lon="11.1602454"><ele>339.0</ele><time>2026-05-02T11:08:44.532Z</time></trkpt><trkpt lat="42.4106243" lon="11.1601666"><ele>337.6666666666667</ele><time>2026-05-02T11:08:45.532Z</time></trkpt><trkpt lat="42.4106833" lon="11.1600862"><ele>336.33333333333337</ele><time>2026-05-02T11:08:46.532Z</time></trkpt><trkpt lat="42.4107345" lon="11.1599987"><ele>335.0</ele><time>2026-05-02T11:08:47.533Z</time></trkpt><trkpt lat="42.4107933" lon="11.1599082"><ele>335.6666666666667</ele><time>2026-05-02T11:08:48.531Z</time></trkpt><trkpt lat="42.4108469" lon="11.1597959"><ele>336.33333333333337</ele><time>2026-05-02T11:08:49.532Z</time></trkpt><trkpt lat="42.4108935" lon="11.1597074"><ele>337.0</ele><time>2026-05-02T11:08:50.532Z</time></trkpt><trkpt lat="42.4109484" lon="11.1596168"><ele>337.6666666666667</ele><time>2026-05-02T11:08:51.532Z</time></trkpt><trkpt lat="42.4110247" lon="11.1595618"><ele>338.3333333333333</ele><time>2026-05-02T11:08:52.532Z</time></trkpt><trkpt lat="42.4110953" lon="11.1594915"><ele>339.0</ele><time>2026-05-02T11:08:53.532Z</time></trkpt><trkpt lat="42.4111601" lon="11.1594391"><ele>339.0</ele><time>2026-05-02T11:08:54.532Z</time></trkpt><trkpt lat="42.4112393" lon="11.1594075"><ele>339.0</ele><time>2026-05-02T11:08:55.532Z</time></trkpt><trkpt lat="42.4113323" lon="11.1593802"><ele>339.0</ele><time>2026-05-02T11:08:56.532Z</time></trkpt><trkpt lat="42.4114303" lon="11.1593526"><ele>339.0</ele><time>2026-05-02T11:08:57.532Z</time></trkpt><trkpt lat="42.4115257" lon="11.1593163"><ele>339.0</ele><time>2026-05-02T11:08:58.531Z</time></trkpt><trkpt lat="42.4116263" lon="11.1592785"><ele>337.6</ele><time>2026-05-02T11:08:59.532Z</time></trkpt><trkpt lat="42.411716" lon="11.1592421"><ele>336.2</ele><time>2026-05-02T11:09:00.532Z</time></trkpt><trkpt lat="42.4117998" lon="11.1591952"><ele>334.8</ele><time>2026-05-02T11:09:01.531Z</time></trkpt><trkpt lat="42.4118867" lon="11.1591591"><ele>333.40000000000003</ele><time>2026-05-02T11:09:02.532Z</time></trkpt><trkpt lat="42.411974" lon="11.1591187"><ele>332.0</ele><time>2026-05-02T11:09:03.533Z</time></trkpt><trkpt lat="42.4120602" lon="11.1590858"><ele>332.0</ele><time>2026-05-02T11:09:04.532Z</time></trkpt><trkpt lat="42.4121398" lon="11.1590637"><ele>332.0</ele><time>2026-05-02T11:09:05.531Z</time></trkpt><trkpt lat="42.4122121" lon="11.159036"><ele>332.0</ele><time>2026-05-02T11:09:06.532Z</time></trkpt><trkpt lat="42.4122761" lon="11.159018"><ele>332.0</ele><time>2026-05-02T11:09:07.531Z</time></trkpt><trkpt lat="42.4123962" lon="11.158964"><ele>332.0</ele><time>2026-05-02T11:09:09.533Z</time></trkpt><trkpt lat="42.4124467" lon="11.1589026"><ele>332.0</ele><time>2026-05-02T11:09:10.532Z</time></trkpt><trkpt lat="42.4124932" lon="11.1588427"><ele>331.6</ele><time>2026-05-02T11:09:11.531Z</time></trkpt><trkpt lat="42.4125131" lon="11.1587413"><ele>331.20000000000005</ele><time>2026-05-02T11:09:12.532Z</time></trkpt><trkpt lat="42.4125513" lon="11.1586644"><ele>330.8</ele><time>2026-05-02T11:09:13.532Z</time></trkpt><trkpt lat="42.4125749" lon="11.1584918"><ele>330.4</ele><time>2026-05-02T11:09:15.533Z</time></trkpt><trkpt lat="42.4125839" lon="11.1583326"><ele>330.0</ele><time>2026-05-02T11:09:17.531Z</time></trkpt><trkpt lat="42.4125794" lon="11.1581869"><ele>331.2</ele><time>2026-05-02T11:09:19.532Z</time></trkpt><trkpt lat="42.4126253" lon="11.1580578"><ele>332.4</ele><time>2026-05-02T11:09:21.532Z</time></trkpt><trkpt lat="42.4127022" lon="11.157952"><ele>333.6</ele><time>2026-05-02T11:09:23.533Z</time></trkpt><trkpt lat="42.4128203" lon="11.1579184"><ele>334.8</ele><time>2026-05-02T11:09:25.533Z</time></trkpt><trkpt lat="42.4128966" lon="11.1579298"><ele>336.0</ele><time>2026-05-02T11:09:26.533Z</time></trkpt><trkpt lat="42.4129793" lon="11.1579538"><ele>333.8333333333333</ele><time>2026-05-02T11:09:27.533Z</time></trkpt><trkpt lat="42.4130602" lon="11.157977"><ele>331.6666666666667</ele><time>2026-05-02T11:09:28.533Z</time></trkpt><trkpt lat="42.413139" lon="11.1579907"><ele>329.5</ele><time>2026-05-02T11:09:29.533Z</time></trkpt><trkpt lat="42.4132182" lon="11.1579831"><ele>327.33333333333337</ele><time>2026-05-02T11:09:30.532Z</time></trkpt><trkpt lat="42.4132993" lon="11.1579864"><ele>325.1666666666667</ele><time>2026-05-02T11:09:31.531Z</time></trkpt><trkpt lat="42.4133915" lon="11.157962"><ele>323.0</ele><time>2026-05-02T11:09:32.533Z</time></trkpt><trkpt lat="42.4134958" lon="11.1579379"><ele>323.0</ele><time>2026-05-02T11:09:33.533Z</time></trkpt><trkpt lat="42.4135866" lon="11.157902"><ele>323.0</ele><time>2026-05-02T11:09:34.531Z</time></trkpt><trkpt lat="42.4136777" lon="11.1578656"><ele>323.0</ele><time>2026-05-02T11:09:35.532Z</time></trkpt><trkpt lat="42.4137686" lon="11.1578336"><ele>323.0</ele><time>2026-05-02T11:09:36.533Z</time></trkpt><trkpt lat="42.4138434" lon="11.1578029"><ele>323.0</ele><time>2026-05-02T11:09:37.532Z</time></trkpt><trkpt lat="42.4139189" lon="11.1577767"><ele>323.0</ele><time>2026-05-02T11:09:38.532Z</time></trkpt><trkpt lat="42.4140372" lon="11.1576772"><ele>321.83333333333337</ele><time>2026-05-02T11:09:40.532Z</time></trkpt><trkpt lat="42.4140991" lon="11.1576227"><ele>320.6666666666667</ele><time>2026-05-02T11:09:41.532Z</time></trkpt><trkpt lat="42.4141628" lon="11.1575789"><ele>319.5</ele><time>2026-05-02T11:09:42.533Z</time></trkpt><trkpt lat="42.4142294" lon="11.1575442"><ele>318.3333333333333</ele><time>2026-05-02T11:09:43.532Z</time></trkpt><trkpt lat="42.4142991" lon="11.1575081"><ele>317.16666666666663</ele><time>2026-05-02T11:09:44.532Z</time></trkpt><trkpt lat="42.4143775" lon="11.157499"><ele>316.0</ele><time>2026-05-02T11:09:45.531Z</time></trkpt><trkpt lat="42.4144755" lon="11.1575017"><ele>316.0</ele><time>2026-05-02T11:09:46.532Z</time></trkpt><trkpt lat="42.4145655" lon="11.1575085"><ele>316.0</ele><time>2026-05-02T11:09:47.531Z</time></trkpt><trkpt lat="42.4146498" lon="11.1575132"><ele>316.0</ele><time>2026-05-02T11:09:48.532Z</time></trkpt><trkpt lat="42.4147274" lon="11.1575192"><ele>316.0</ele><time>2026-05-02T11:09:49.532Z</time></trkpt><trkpt lat="42.4147918" lon="11.1575287"><ele>316.0</ele><time>2026-05-02T11:09:50.531Z</time></trkpt><trkpt lat="42.4148966" lon="11.1575406"><ele>316.0</ele><time>2026-05-02T11:09:52.532Z</time></trkpt><trkpt lat="42.4149623" lon="11.1575649"><ele>315.5</ele><time>2026-05-02T11:09:54.533Z</time></trkpt><trkpt lat="42.4150435" lon="11.1576047"><ele>315.0</ele><time>2026-05-02T11:09:57.532Z</time></trkpt><trkpt lat="42.41516" lon="11.1575963"><ele>314.5</ele><time>2026-05-02T11:09:59.532Z</time></trkpt><trkpt lat="42.4152337" lon="11.157574"><ele>314.0</ele><time>2026-05-02T11:10:00.531Z</time></trkpt><trkpt lat="42.4153132" lon="11.1575512"><ele>313.5</ele><time>2026-05-02T11:10:01.531Z</time></trkpt><trkpt lat="42.4153836" lon="11.1575253"><ele>313.0</ele><time>2026-05-02T11:10:02.532Z</time></trkpt><trkpt lat="42.415484" lon="11.1574966"><ele>313.2</ele><time>2026-05-02T11:10:03.532Z</time></trkpt><trkpt lat="42.4155852" lon="11.1574667"><ele>313.4</ele><time>2026-05-02T11:10:04.532Z</time></trkpt><trkpt lat="42.415686" lon="11.1574412"><ele>313.59999999999997</ele><time>2026-05-02T11:10:05.533Z</time></trkpt><trkpt lat="42.4157879" lon="11.1574101"><ele>313.8</ele><time>2026-05-02T11:10:06.532Z</time></trkpt><trkpt lat="42.4158817" lon="11.1573814"><ele>314.0</ele><time>2026-05-02T11:10:07.532Z</time></trkpt><trkpt lat="42.4159641" lon="11.1573637"><ele>316.4</ele><time>2026-05-02T11:10:08.533Z</time></trkpt><trkpt lat="42.4160517" lon="11.157322"><ele>318.79999999999995</ele><time>2026-05-02T11:10:09.532Z</time></trkpt><trkpt lat="42.4161304" lon="11.1572888"><ele>321.20000000000005</ele><time>2026-05-02T11:10:10.533Z</time></trkpt><trkpt lat="42.4162042" lon="11.1572275"><ele>323.6</ele><time>2026-05-02T11:10:11.531Z</time></trkpt><trkpt lat="42.4162778" lon="11.1571468"><ele>326.0</ele><time>2026-05-02T11:10:12.532Z</time></trkpt><trkpt lat="42.4163575" lon="11.1570503"><ele>326.0</ele><time>2026-05-02T11:10:13.532Z</time></trkpt><trkpt lat="42.4164506" lon="11.1569116"><ele>326.0</ele><time>2026-05-02T11:10:14.531Z</time></trkpt><trkpt lat="42.4165356" lon="11.1567913"><ele>326.0</ele><time>2026-05-02T11:10:15.532Z</time></trkpt><trkpt lat="42.4166021" lon="11.1566866"><ele>326.0</ele><time>2026-05-02T11:10:16.532Z</time></trkpt><trkpt lat="42.4166585" lon="11.1565948"><ele>328.0</ele><time>2026-05-02T11:10:17.531Z</time></trkpt><trkpt lat="42.416707" lon="11.1565105"><ele>330.0</ele><time>2026-05-02T11:10:18.531Z</time></trkpt><trkpt lat="42.4167411" lon="11.1564259"><ele>332.0</ele><time>2026-05-02T11:10:19.531Z</time></trkpt><trkpt lat="42.4167706" lon="11.1563166"><ele>334.0</ele><time>2026-05-02T11:10:20.533Z</time></trkpt><trkpt lat="42.4167972" lon="11.1561782"><ele>336.0</ele><time>2026-05-02T11:10:21.532Z</time></trkpt><trkpt lat="42.4168204" lon="11.1560294"><ele>336.0</ele><time>2026-05-02T11:10:22.531Z</time></trkpt><trkpt lat="42.4168533" lon="11.1558591"><ele>336.0</ele><time>2026-05-02T11:10:23.532Z</time></trkpt><trkpt lat="42.4168828" lon="11.1556778"><ele>336.0</ele><time>2026-05-02T11:10:24.532Z</time></trkpt><trkpt lat="42.4169132" lon="11.1555056"><ele>336.0</ele><time>2026-05-02T11:10:25.532Z</time></trkpt><trkpt lat="42.4169314" lon="11.1553797"><ele>337.0</ele><time>2026-05-02T11:10:26.532Z</time></trkpt><trkpt lat="42.4169475" lon="11.1552592"><ele>338.0</ele><time>2026-05-02T11:10:27.531Z</time></trkpt><trkpt lat="42.4169512" lon="11.1551643"><ele>339.0</ele><time>2026-05-02T11:10:28.532Z</time></trkpt><trkpt lat="42.4168739" lon="11.1550569"><ele>340.0</ele><time>2026-05-02T11:10:30.532Z</time></trkpt><trkpt lat="42.4167625" lon="11.1550815"><ele>341.0</ele><time>2026-05-02T11:10:32.532Z</time></trkpt><trkpt lat="42.4166989" lon="11.1551588"><ele>341.0</ele><time>2026-05-02T11:10:33.532Z</time></trkpt><trkpt lat="42.4166296" lon="11.1552412"><ele>341.0</ele><time>2026-05-02T11:10:34.532Z</time></trkpt><trkpt lat="42.4165639" lon="11.1553288"><ele>341.0</ele><time>2026-05-02T11:10:35.532Z</time></trkpt><trkpt lat="42.4164753" lon="11.1554339"><ele>341.0</ele><time>2026-05-02T11:10:36.531Z</time></trkpt><trkpt lat="42.4163438" lon="11.1555805"><ele>344.33333333333337</ele><time>2026-05-02T11:10:37.532Z</time></trkpt><trkpt lat="42.4162091" lon="11.1557415"><ele>347.6666666666667</ele><time>2026-05-02T11:10:38.531Z</time></trkpt><trkpt lat="42.4160695" lon="11.1558964"><ele>351.0</ele><time>2026-05-02T11:10:39.532Z</time></trkpt><trkpt lat="42.4159655" lon="11.1560522"><ele>351.0</ele><time>2026-05-02T11:10:40.531Z</time></trkpt><trkpt lat="42.4158649" lon="11.1561808"><ele>351.0</ele><time>2026-05-02T11:10:41.532Z</time></trkpt><trkpt lat="42.4157648" lon="11.156292"><ele>351.0</ele><time>2026-05-02T11:10:42.532Z</time></trkpt><trkpt lat="42.4156906" lon="11.1563767"><ele>351.0</ele><time>2026-05-02T11:10:43.533Z</time></trkpt><trkpt lat="42.4156257" lon="11.1564561"><ele>351.0</ele><time>2026-05-02T11:10:44.531Z</time></trkpt><trkpt lat="42.4155669" lon="11.1565154"><ele>351.0</ele><time>2026-05-02T11:10:45.533Z</time></trkpt><trkpt lat="42.4155075" lon="11.1565571"><ele>351.0</ele><time>2026-05-02T11:10:46.531Z</time></trkpt><trkpt lat="42.4154342" lon="11.1564984"><ele>351.0</ele><time>2026-05-02T11:10:48.531Z</time></trkpt><trkpt lat="42.4154508" lon="11.1563258"><ele>351.0</ele><time>2026-05-02T11:10:50.531Z</time></trkpt><trkpt lat="42.4154868" lon="11.1562062"><ele>351.0</ele><time>2026-05-02T11:10:51.531Z</time></trkpt><trkpt lat="42.4155221" lon="11.1560744"><ele>351.0</ele><time>2026-05-02T11:10:52.531Z</time></trkpt><trkpt lat="42.4155599" lon="11.1559168"><ele>351.0</ele><time>2026-05-02T11:10:53.532Z</time></trkpt><trkpt lat="42.4156066" lon="11.1557182"><ele>351.0</ele><time>2026-05-02T11:10:54.533Z</time></trkpt><trkpt lat="42.4156569" lon="11.1555006"><ele>351.0</ele><time>2026-05-02T11:10:55.531Z</time></trkpt><trkpt lat="42.4157062" lon="11.1552862"><ele>353.0</ele><time>2026-05-02T11:10:56.532Z</time></trkpt><trkpt lat="42.4157537" lon="11.1550957"><ele>355.0</ele><time>2026-05-02T11:10:57.532Z</time></trkpt><trkpt lat="42.415783" lon="11.1549232"><ele>357.0</ele><time>2026-05-02T11:10:58.532Z</time></trkpt><trkpt lat="42.4158003" lon="11.1547598"><ele>359.0</ele><time>2026-05-02T11:10:59.532Z</time></trkpt><trkpt lat="42.4157956" lon="11.1545985"><ele>359.5</ele><time>2026-05-02T11:11:00.532Z</time></trkpt><trkpt lat="42.4157685" lon="11.1544275"><ele>360.0</ele><time>2026-05-02T11:11:01.532Z</time></trkpt><trkpt lat="42.4157012" lon="11.1542543"><ele>360.5</ele><time>2026-05-02T11:11:02.531Z</time></trkpt><trkpt lat="42.4156266" lon="11.1540622"><ele>361.0</ele><time>2026-05-02T11:11:03.533Z</time></trkpt><trkpt lat="42.415548" lon="11.153901"><ele>363.8</ele><time>2026-05-02T11:11:04.532Z</time></trkpt><trkpt lat="42.4154753" lon="11.1537486"><ele>366.6</ele><time>2026-05-02T11:11:05.531Z</time></trkpt><trkpt lat="42.4154383" lon="11.1536375"><ele>369.4</ele><time>2026-05-02T11:11:06.532Z</time></trkpt><trkpt lat="42.4154031" lon="11.1535495"><ele>372.2</ele><time>2026-05-02T11:11:07.531Z</time></trkpt><trkpt lat="42.4153141" lon="11.1534946"><ele>375.0</ele><time>2026-05-02T11:11:09.531Z</time></trkpt><trkpt lat="42.4152833" lon="11.1536095"><ele>375.0</ele><time>2026-05-02T11:11:11.531Z</time></trkpt><trkpt lat="42.415308" lon="11.1537071"><ele>375.0</ele><time>2026-05-02T11:11:12.533Z</time></trkpt><trkpt lat="42.4153282" lon="11.1538131"><ele>375.0</ele><time>2026-05-02T11:11:13.532Z</time></trkpt><trkpt lat="42.4153671" lon="11.1539427"><ele>375.0</ele><time>2026-05-02T11:11:14.532Z</time></trkpt><trkpt lat="42.4153888" lon="11.1540658"><ele>375.0</ele><time>2026-05-02T11:11:15.533Z</time></trkpt><trkpt lat="42.4153963" lon="11.1541959"><ele>376.8</ele><time>2026-05-02T11:11:16.533Z</time></trkpt><trkpt lat="42.415384" lon="11.1543107"><ele>378.6</ele><time>2026-05-02T11:11:17.532Z</time></trkpt><trkpt lat="42.41535" lon="11.1544241"><ele>380.4</ele><time>2026-05-02T11:11:18.531Z</time></trkpt><trkpt lat="42.415312" lon="11.1545313"><ele>382.2</ele><time>2026-05-02T11:11:19.532Z</time></trkpt><trkpt lat="42.415212" lon="11.154659"><ele>384.0</ele><time>2026-05-02T11:11:20.531Z</time></trkpt><trkpt lat="42.4151277" lon="11.1547835"><ele>383.79999999999995</ele><time>2026-05-02T11:11:21.531Z</time></trkpt><trkpt lat="42.4150472" lon="11.1548968"><ele>383.59999999999997</ele><time>2026-05-02T11:11:22.532Z</time></trkpt><trkpt lat="42.4149833" lon="11.1550026"><ele>383.4</ele><time>2026-05-02T11:11:23.533Z</time></trkpt><trkpt lat="42.4149371" lon="11.1550644"><ele>383.2</ele><time>2026-05-02T11:11:24.532Z</time></trkpt><trkpt lat="42.4148541" lon="11.1550335"><ele>383.0</ele><time>2026-05-02T11:11:26.531Z</time></trkpt><trkpt lat="42.414871" lon="11.1548878"><ele>383.2</ele><time>2026-05-02T11:11:28.533Z</time></trkpt><trkpt lat="42.4148891" lon="11.1547647"><ele>383.4</ele><time>2026-05-02T11:11:29.532Z</time></trkpt><trkpt lat="42.4148836" lon="11.1546247"><ele>383.59999999999997</ele><time>2026-05-02T11:11:30.531Z</time></trkpt><trkpt lat="42.4148539" lon="11.1544659"><ele>383.79999999999995</ele><time>2026-05-02T11:11:31.531Z</time></trkpt><trkpt lat="42.4147941" lon="11.1543132"><ele>384.0</ele><time>2026-05-02T11:11:32.531Z</time></trkpt><trkpt lat="42.4147347" lon="11.1541625"><ele>382.2</ele><time>2026-05-02T11:11:33.532Z</time></trkpt><trkpt lat="42.4146836" lon="11.1539982"><ele>380.4</ele><time>2026-05-02T11:11:34.532Z</time></trkpt><trkpt lat="42.4146502" lon="11.1538467"><ele>378.6</ele><time>2026-05-02T11:11:35.531Z</time></trkpt><trkpt lat="42.4146246" lon="11.1537119"><ele>376.8</ele><time>2026-05-02T11:11:36.531Z</time></trkpt><trkpt lat="42.4145668" lon="11.1536185"><ele>375.0</ele><time>2026-05-02T11:11:37.532Z</time></trkpt><trkpt lat="42.4144899" lon="11.1535316"><ele>380.5</ele><time>2026-05-02T11:11:38.532Z</time></trkpt><trkpt lat="42.4144003" lon="11.1534565"><ele>386.0</ele><time>2026-05-02T11:11:39.532Z</time></trkpt><trkpt lat="42.4142814" lon="11.1533905"><ele>391.5</ele><time>2026-05-02T11:11:40.531Z</time></trkpt><trkpt lat="42.4141271" lon="11.1533258"><ele>397.0</ele><time>2026-05-02T11:11:41.531Z</time></trkpt><trkpt lat="42.4140043" lon="11.1532439"><ele>399.75</ele><time>2026-05-02T11:11:42.533Z</time></trkpt><trkpt lat="42.4138908" lon="11.153161"><ele>402.5</ele><time>2026-05-02T11:11:43.531Z</time></trkpt><trkpt lat="42.4137816" lon="11.1530176"><ele>405.25</ele><time>2026-05-02T11:11:44.531Z</time></trkpt><trkpt lat="42.4136645" lon="11.1528815"><ele>408.0</ele><time>2026-05-02T11:11:45.533Z</time></trkpt><trkpt lat="42.4135678" lon="11.1527772"><ele>408.0</ele><time>2026-05-02T11:11:46.53Z</time></trkpt><trkpt lat="42.4134815" lon="11.1526948"><ele>408.0</ele><time>2026-05-02T11:11:47.531Z</time></trkpt><trkpt lat="42.4134101" lon="11.1526295"><ele>408.0</ele><time>2026-05-02T11:11:48.531Z</time></trkpt><trkpt lat="42.4133472" lon="11.1526158"><ele>408.0</ele><time>2026-05-02T11:11:49.531Z</time></trkpt><trkpt lat="42.4133071" lon="11.1527156"><ele>408.0</ele><time>2026-05-02T11:11:51.53Z</time></trkpt><trkpt lat="42.4133166" lon="11.1528186"><ele>408.0</ele><time>2026-05-02T11:11:52.532Z</time></trkpt><trkpt lat="42.4133299" lon="11.1529339"><ele>408.0</ele><time>2026-05-02T11:11:53.531Z</time></trkpt><trkpt lat="42.4133255" lon="11.1530732"><ele>408.0</ele><time>2026-05-02T11:11:54.531Z</time></trkpt><trkpt lat="42.4133085" lon="11.1532373"><ele>408.0</ele><time>2026-05-02T11:11:55.531Z</time></trkpt><trkpt lat="42.4132595" lon="11.1534184"><ele>408.0</ele><time>2026-05-02T11:11:56.531Z</time></trkpt><trkpt lat="42.4131585" lon="11.1535748"><ele>409.5</ele><time>2026-05-02T11:11:57.531Z</time></trkpt><trkpt lat="42.413081" lon="11.1537139"><ele>411.0</ele><time>2026-05-02T11:11:58.532Z</time></trkpt><trkpt lat="42.413005" lon="11.1538263"><ele>412.5</ele><time>2026-05-02T11:11:59.531Z</time></trkpt><trkpt lat="42.4129353" lon="11.1539486"><ele>414.0</ele><time>2026-05-02T11:12:00.532Z</time></trkpt><trkpt lat="42.4128803" lon="11.15408"><ele>418.5</ele><time>2026-05-02T11:12:01.531Z</time></trkpt><trkpt lat="42.412854" lon="11.1542552"><ele>423.0</ele><time>2026-05-02T11:12:02.531Z</time></trkpt><trkpt lat="42.4128107" lon="11.1543942"><ele>427.5</ele><time>2026-05-02T11:12:03.531Z</time></trkpt><trkpt lat="42.4127614" lon="11.1545272"><ele>432.0</ele><time>2026-05-02T11:12:04.53Z</time></trkpt><trkpt lat="42.4127139" lon="11.1546496"><ele>432.0</ele><time>2026-05-02T11:12:05.532Z</time></trkpt><trkpt lat="42.4126658" lon="11.1547675"><ele>432.00000000000006</ele><time>2026-05-02T11:12:06.533Z</time></trkpt><trkpt lat="42.4125975" lon="11.1547194"><ele>432.00000000000006</ele><time>2026-05-02T11:12:07.531Z</time></trkpt><trkpt lat="42.4125393" lon="11.154627"><ele>432.0</ele><time>2026-05-02T11:12:09.532Z</time></trkpt><trkpt lat="42.412569" lon="11.1544447"><ele>432.0</ele><time>2026-05-02T11:12:11.531Z</time></trkpt><trkpt lat="42.4125701" lon="11.1543266"><ele>432.0</ele><time>2026-05-02T11:12:12.53Z</time></trkpt><trkpt lat="42.4125528" lon="11.1541847"><ele>432.0</ele><time>2026-05-02T11:12:13.532Z</time></trkpt><trkpt lat="42.4125086" lon="11.1540244"><ele>432.0</ele><time>2026-05-02T11:12:14.53Z</time></trkpt><trkpt lat="42.4124344" lon="11.1538514"><ele>432.0</ele><time>2026-05-02T11:12:15.531Z</time></trkpt><trkpt lat="42.4123678" lon="11.1536674"><ele>431.5</ele><time>2026-05-02T11:12:16.532Z</time></trkpt><trkpt lat="42.4123185" lon="11.1535088"><ele>431.0</ele><time>2026-05-02T11:12:17.531Z</time></trkpt><trkpt lat="42.4122639" lon="11.1533704"><ele>430.5</ele><time>2026-05-02T11:12:18.531Z</time></trkpt><trkpt lat="42.4122038" lon="11.1532111"><ele>430.0</ele><time>2026-05-02T11:12:19.53Z</time></trkpt><trkpt lat="42.4121446" lon="11.1530672"><ele>432.2</ele><time>2026-05-02T11:12:20.531Z</time></trkpt><trkpt lat="42.4121115" lon="11.1529172"><ele>434.4</ele><time>2026-05-02T11:12:21.531Z</time></trkpt><trkpt lat="42.4120792" lon="11.1527845"><ele>436.6</ele><time>2026-05-02T11:12:22.53Z</time></trkpt><trkpt lat="42.412037" lon="11.1526607"><ele>438.8</ele><time>2026-05-02T11:12:23.533Z</time></trkpt><trkpt lat="42.4119441" lon="11.1525828"><ele>441.0</ele><time>2026-05-02T11:12:24.53Z</time></trkpt><trkpt lat="42.4118628" lon="11.1525294"><ele>441.0</ele><time>2026-05-02T11:12:25.531Z</time></trkpt><trkpt lat="42.4117688" lon="11.1525175"><ele>441.0</ele><time>2026-05-02T11:12:26.532Z</time></trkpt><trkpt lat="42.4116665" lon="11.152543"><ele>441.0</ele><time>2026-05-02T11:12:27.531Z</time></trkpt><trkpt lat="42.4115639" lon="11.1526126"><ele>441.0</ele><time>2026-05-02T11:12:28.532Z</time></trkpt><trkpt lat="42.4114269" lon="11.1526649"><ele>444.0</ele><time>2026-05-02T11:12:29.531Z</time></trkpt><trkpt lat="42.4112754" lon="11.1527057"><ele>447.0</ele><time>2026-05-02T11:12:30.532Z</time></trkpt><trkpt lat="42.4111466" lon="11.1527605"><ele>450.0</ele><time>2026-05-02T11:12:31.532Z</time></trkpt><trkpt lat="42.4110153" lon="11.1527983"><ele>453.0</ele><time>2026-05-02T11:12:32.531Z</time></trkpt><trkpt lat="42.4109226" lon="11.1528046"><ele>453.0</ele><time>2026-05-02T11:12:33.531Z</time></trkpt><trkpt lat="42.4108326" lon="11.1527864"><ele>452.99999999999994</ele><time>2026-05-02T11:12:34.531Z</time></trkpt><trkpt lat="42.4107451" lon="11.1527465"><ele>452.99999999999994</ele><time>2026-05-02T11:12:35.531Z</time></trkpt><trkpt lat="42.4106941" lon="11.1525701"><ele>453.0</ele><time>2026-05-02T11:12:36.532Z</time></trkpt><trkpt lat="42.4106354" lon="11.1524264"><ele>453.0</ele><time>2026-05-02T11:12:37.531Z</time></trkpt><trkpt lat="42.4105729" lon="11.1522902"><ele>451.75</ele><time>2026-05-02T11:12:38.53Z</time></trkpt><trkpt lat="42.4105106" lon="11.1521796"><ele>450.5</ele><time>2026-05-02T11:12:39.53Z</time></trkpt><trkpt lat="42.4104068" lon="11.1521331"><ele>449.25</ele><time>2026-05-02T11:12:40.532Z</time></trkpt><trkpt lat="42.4102946" lon="11.1521015"><ele>448.0</ele><time>2026-05-02T11:12:41.532Z</time></trkpt><trkpt lat="42.4101563" lon="11.1521032"><ele>448.0</ele><time>2026-05-02T11:12:42.53Z</time></trkpt><trkpt lat="42.4100082" lon="11.1521313"><ele>448.0</ele><time>2026-05-02T11:12:43.531Z</time></trkpt><trkpt lat="42.4098487" lon="11.1521724"><ele>448.0</ele><time>2026-05-02T11:12:44.532Z</time></trkpt><trkpt lat="42.4096979" lon="11.152225"><ele>447.0</ele><time>2026-05-02T11:12:45.531Z</time></trkpt><trkpt lat="42.4095549" lon="11.1522583"><ele>446.0</ele><time>2026-05-02T11:12:46.531Z</time></trkpt><trkpt lat="42.4094266" lon="11.1523012"><ele>445.0</ele><time>2026-05-02T11:12:47.531Z</time></trkpt><trkpt lat="42.4093155" lon="11.1523588"><ele>444.0</ele><time>2026-05-02T11:12:48.533Z</time></trkpt><trkpt lat="42.4092137" lon="11.1524601"><ele>449.5</ele><time>2026-05-02T11:12:49.53Z</time></trkpt><trkpt lat="42.4091113" lon="11.1525801"><ele>455.0</ele><time>2026-05-02T11:12:50.531Z</time></trkpt><trkpt lat="42.4090036" lon="11.1526887"><ele>460.5</ele><time>2026-05-02T11:12:51.531Z</time></trkpt><trkpt lat="42.4088523" lon="11.1527627"><ele>466.0</ele><time>2026-05-02T11:12:52.53Z</time></trkpt><trkpt lat="42.4086895" lon="11.1528272"><ele>466.0</ele><time>2026-05-02T11:12:53.531Z</time></trkpt><trkpt lat="42.4085091" lon="11.1528772"><ele>466.0</ele><time>2026-05-02T11:12:54.531Z</time></trkpt><trkpt lat="42.408319" lon="11.1529175"><ele>466.0</ele><time>2026-05-02T11:12:55.53Z</time></trkpt><trkpt lat="42.408125" lon="11.1529602"><ele>468.0</ele><time>2026-05-02T11:12:56.533Z</time></trkpt><trkpt lat="42.4079627" lon="11.1530062"><ele>470.0</ele><time>2026-05-02T11:12:57.531Z</time></trkpt><trkpt lat="42.4078294" lon="11.153033"><ele>472.0</ele><time>2026-05-02T11:12:58.532Z</time></trkpt><trkpt lat="42.4077161" lon="11.1530541"><ele>474.0</ele><time>2026-05-02T11:12:59.53Z</time></trkpt><trkpt lat="42.4076182" lon="11.1530469"><ele>474.0</ele><time>2026-05-02T11:13:00.532Z</time></trkpt><trkpt lat="42.4075493" lon="11.153019"><ele>474.0</ele><time>2026-05-02T11:13:01.531Z</time></trkpt><trkpt lat="42.4074862" lon="11.1529994"><ele>474.0</ele><time>2026-05-02T11:13:02.531Z</time></trkpt><trkpt lat="42.4074055" lon="11.1529613"><ele>474.0</ele><time>2026-05-02T11:13:04.53Z</time></trkpt><trkpt lat="42.4073421" lon="11.1529233"><ele>474.0</ele><time>2026-05-02T11:13:06.532Z</time></trkpt><trkpt lat="42.4072695" lon="11.1529283"><ele>474.0</ele><time>2026-05-02T11:13:09.532Z</time></trkpt></trkseg><trkseg><trkpt lat="42.4072853" lon="11.1530578"><ele>474.0</ele><time>2026-05-02T11:26:05.528Z</time></trkpt><trkpt lat="42.4072967" lon="11.1531933"><ele>474.0</ele><time>2026-05-02T11:26:08.528Z</time></trkpt><trkpt lat="42.407295" lon="11.1533061"><ele>474.0</ele><time>2026-05-02T11:26:10.527Z</time></trkpt><trkpt lat="42.4072988" lon="11.1534158"><ele>474.0</ele><time>2026-05-02T11:26:12.527Z</time></trkpt><trkpt lat="42.4073007" lon="11.1535158"><ele>474.0</ele><time>2026-05-02T11:26:14.529Z</time></trkpt><trkpt lat="42.4073063" lon="11.1536081"><ele>474.0</ele><time>2026-05-02T11:26:16.527Z</time></trkpt><trkpt lat="42.4073164" lon="11.1537046"><ele>476.3333333333333</ele><time>2026-05-02T11:26:18.528Z</time></trkpt><trkpt lat="42.407337" lon="11.1538095"><ele>478.66666666666663</ele><time>2026-05-02T11:26:20.528Z</time></trkpt><trkpt lat="42.4073737" lon="11.1539125"><ele>481.0</ele><time>2026-05-02T11:26:22.528Z</time></trkpt><trkpt lat="42.4074149" lon="11.1540227"><ele>483.3333333333333</ele><time>2026-05-02T11:26:24.528Z</time></trkpt><trkpt lat="42.4074754" lon="11.1541511"><ele>485.66666666666663</ele><time>2026-05-02T11:26:26.526Z</time></trkpt><trkpt lat="42.4075031" lon="11.1542317"><ele>488.0</ele><time>2026-05-02T11:26:27.526Z</time></trkpt><trkpt lat="42.4075228" lon="11.1543184"><ele>488.16666666666663</ele><time>2026-05-02T11:26:28.527Z</time></trkpt><trkpt lat="42.4075299" lon="11.1544111"><ele>488.3333333333333</ele><time>2026-05-02T11:26:29.527Z</time></trkpt><trkpt lat="42.4075255" lon="11.1545097"><ele>488.5</ele><time>2026-05-02T11:26:30.527Z</time></trkpt><trkpt lat="42.4075139" lon="11.1546192"><ele>488.66666666666663</ele><time>2026-05-02T11:26:31.527Z</time></trkpt><trkpt lat="42.4074983" lon="11.1547312"><ele>488.8333333333333</ele><time>2026-05-02T11:26:32.527Z</time></trkpt><trkpt lat="42.4074786" lon="11.1548501"><ele>489.0</ele><time>2026-05-02T11:26:33.528Z</time></trkpt><trkpt lat="42.4074592" lon="11.1549584"><ele>489.0</ele><time>2026-05-02T11:26:34.527Z</time></trkpt><trkpt lat="42.4074391" lon="11.1550668"><ele>489.0</ele><time>2026-05-02T11:26:35.527Z</time></trkpt><trkpt lat="42.40742" lon="11.1551725"><ele>489.0</ele><time>2026-05-02T11:26:36.526Z</time></trkpt><trkpt lat="42.4073999" lon="11.1552816"><ele>489.0</ele><time>2026-05-02T11:26:37.528Z</time></trkpt><trkpt lat="42.4073717" lon="11.1553868"><ele>489.0</ele><time>2026-05-02T11:26:38.526Z</time></trkpt><trkpt lat="42.4073405" lon="11.1554874"><ele>489.0</ele><time>2026-05-02T11:26:39.526Z</time></trkpt><trkpt lat="42.4073012" lon="11.1555801"><ele>489.0</ele><time>2026-05-02T11:26:40.528Z</time></trkpt><trkpt lat="42.4072635" lon="11.1556694"><ele>489.0</ele><time>2026-05-02T11:26:41.527Z</time></trkpt><trkpt lat="42.4072199" lon="11.1557553"><ele>489.0</ele><time>2026-05-02T11:26:42.526Z</time></trkpt><trkpt lat="42.4071737" lon="11.155836"><ele>489.0</ele><time>2026-05-02T11:26:43.528Z</time></trkpt><trkpt lat="42.4071297" lon="11.1559219"><ele>489.0</ele><time>2026-05-02T11:26:44.528Z</time></trkpt><trkpt lat="42.4070879" lon="11.1560097"><ele>489.0</ele><time>2026-05-02T11:26:45.526Z</time></trkpt><trkpt lat="42.4070442" lon="11.1560994"><ele>488.8333333333333</ele><time>2026-05-02T11:26:46.527Z</time></trkpt><trkpt lat="42.4069982" lon="11.1561916"><ele>488.66666666666663</ele><time>2026-05-02T11:26:47.527Z</time></trkpt><trkpt lat="42.4069523" lon="11.1562866"><ele>488.5</ele><time>2026-05-02T11:26:48.528Z</time></trkpt><trkpt lat="42.4069101" lon="11.1563837"><ele>488.3333333333333</ele><time>2026-05-02T11:26:49.527Z</time></trkpt><trkpt lat="42.4068638" lon="11.1564763"><ele>488.16666666666663</ele><time>2026-05-02T11:26:50.527Z</time></trkpt><trkpt lat="42.4068153" lon="11.1565678"><ele>488.0</ele><time>2026-05-02T11:26:51.526Z</time></trkpt><trkpt lat="42.406764" lon="11.1566558"><ele>488.4</ele><time>2026-05-02T11:26:52.527Z</time></trkpt><trkpt lat="42.406704" lon="11.1567344"><ele>488.79999999999995</ele><time>2026-05-02T11:26:53.527Z</time></trkpt><trkpt lat="42.4066315" lon="11.1568"><ele>489.2</ele><time>2026-05-02T11:26:54.527Z</time></trkpt><trkpt lat="42.4065528" lon="11.1568545"><ele>489.6</ele><time>2026-05-02T11:26:55.526Z</time></trkpt><trkpt lat="42.4064674" lon="11.1569077"><ele>490.0</ele><time>2026-05-02T11:26:56.527Z</time></trkpt><trkpt lat="42.4063789" lon="11.1569603"><ele>491.8</ele><time>2026-05-02T11:26:57.526Z</time></trkpt><trkpt lat="42.4062853" lon="11.1570182"><ele>493.6</ele><time>2026-05-02T11:26:58.526Z</time></trkpt><trkpt lat="42.4061869" lon="11.1570777"><ele>495.4</ele><time>2026-05-02T11:26:59.527Z</time></trkpt><trkpt lat="42.4060878" lon="11.157132"><ele>497.2</ele><time>2026-05-02T11:27:00.526Z</time></trkpt><trkpt lat="42.4059936" lon="11.1571936"><ele>499.0</ele><time>2026-05-02T11:27:01.527Z</time></trkpt><trkpt lat="42.4058936" lon="11.1572745"><ele>496.6666666666667</ele><time>2026-05-02T11:27:02.527Z</time></trkpt><trkpt lat="42.405778" lon="11.157382"><ele>494.33333333333337</ele><time>2026-05-02T11:27:03.527Z</time></trkpt><trkpt lat="42.4056509" lon="11.157523"><ele>492.0</ele><time>2026-05-02T11:27:04.528Z</time></trkpt><trkpt lat="42.4055127" lon="11.1576804"><ele>497.33333333333337</ele><time>2026-05-02T11:27:05.526Z</time></trkpt><trkpt lat="42.4053739" lon="11.1578364"><ele>502.6666666666667</ele><time>2026-05-02T11:27:06.528Z</time></trkpt><trkpt lat="42.4052505" lon="11.1579802"><ele>508.0</ele><time>2026-05-02T11:27:07.526Z</time></trkpt><trkpt lat="42.4051392" lon="11.1581153"><ele>506.5</ele><time>2026-05-02T11:27:08.526Z</time></trkpt><trkpt lat="42.4050365" lon="11.1582603"><ele>505.0</ele><time>2026-05-02T11:27:09.526Z</time></trkpt><trkpt lat="42.4049447" lon="11.1584184"><ele>503.5</ele><time>2026-05-02T11:27:10.527Z</time></trkpt><trkpt lat="42.4048625" lon="11.1585687"><ele>502.0</ele><time>2026-05-02T11:27:11.527Z</time></trkpt><trkpt lat="42.4047918" lon="11.1587016"><ele>502.0</ele><time>2026-05-02T11:27:12.527Z</time></trkpt><trkpt lat="42.4047243" lon="11.1588189"><ele>502.00000000000006</ele><time>2026-05-02T11:27:13.528Z</time></trkpt><trkpt lat="42.4046477" lon="11.1589308"><ele>502.00000000000006</ele><time>2026-05-02T11:27:14.528Z</time></trkpt><trkpt lat="42.4045638" lon="11.1590452"><ele>502.0</ele><time>2026-05-02T11:27:15.526Z</time></trkpt><trkpt lat="42.4044994" lon="11.1591564"><ele>502.0</ele><time>2026-05-02T11:27:16.526Z</time></trkpt><trkpt lat="42.4044648" lon="11.1592718"><ele>503.6666666666667</ele><time>2026-05-02T11:27:17.526Z</time></trkpt><trkpt lat="42.4044569" lon="11.1593928"><ele>505.33333333333337</ele><time>2026-05-02T11:27:18.526Z</time></trkpt><trkpt lat="42.4044744" lon="11.1595188"><ele>507.0</ele><time>2026-05-02T11:27:19.526Z</time></trkpt><trkpt lat="42.4045089" lon="11.1596349"><ele>508.66666666666663</ele><time>2026-05-02T11:27:20.528Z</time></trkpt><trkpt lat="42.4045464" lon="11.1597462"><ele>510.3333333333333</ele><time>2026-05-02T11:27:21.526Z</time></trkpt><trkpt lat="42.4045787" lon="11.1598436"><ele>512.0</ele><time>2026-05-02T11:27:22.527Z</time></trkpt><trkpt lat="42.4045949" lon="11.1599435"><ele>511.99999999999994</ele><time>2026-05-02T11:27:23.527Z</time></trkpt><trkpt lat="42.4045941" lon="11.1600507"><ele>512.0</ele><time>2026-05-02T11:27:24.526Z</time></trkpt><trkpt lat="42.4045684" lon="11.1601536"><ele>512.0</ele><time>2026-05-02T11:27:25.526Z</time></trkpt><trkpt lat="42.4045317" lon="11.1602458"><ele>512.0</ele><time>2026-05-02T11:27:26.526Z</time></trkpt><trkpt lat="42.4044795" lon="11.1603175"><ele>511.99999999999994</ele><time>2026-05-02T11:27:27.526Z</time></trkpt><trkpt lat="42.4044117" lon="11.1603634"><ele>512.0</ele><time>2026-05-02T11:27:28.526Z</time></trkpt><trkpt lat="42.404332" lon="11.160396"><ele>512.0</ele><time>2026-05-02T11:27:29.526Z</time></trkpt><trkpt lat="42.4042404" lon="11.1604113"><ele>512.0</ele><time>2026-05-02T11:27:30.526Z</time></trkpt><trkpt lat="42.4041396" lon="11.1604141"><ele>512.0</ele><time>2026-05-02T11:27:31.527Z</time></trkpt><trkpt lat="42.4040306" lon="11.1604046"><ele>512.0</ele><time>2026-05-02T11:27:32.527Z</time></trkpt><trkpt lat="42.4039188" lon="11.1603956"><ele>512.0</ele><time>2026-05-02T11:27:33.527Z</time></trkpt><trkpt lat="42.4037999" lon="11.1604077"><ele>512.6</ele><time>2026-05-02T11:27:34.526Z</time></trkpt><trkpt lat="42.403689" lon="11.1604404"><ele>513.2</ele><time>2026-05-02T11:27:35.526Z</time></trkpt><trkpt lat="42.4035888" lon="11.1604726"><ele>513.8</ele><time>2026-05-02T11:27:36.526Z</time></trkpt><trkpt lat="42.4034976" lon="11.1604981"><ele>514.4</ele><time>2026-05-02T11:27:37.526Z</time></trkpt><trkpt lat="42.4034045" lon="11.1605053"><ele>515.0</ele><time>2026-05-02T11:27:38.527Z</time></trkpt><trkpt lat="42.4033083" lon="11.1604945"><ele>515.0</ele><time>2026-05-02T11:27:39.527Z</time></trkpt><trkpt lat="42.4032053" lon="11.1604757"><ele>515.0</ele><time>2026-05-02T11:27:40.527Z</time></trkpt><trkpt lat="42.4030956" lon="11.1604504"><ele>515.0</ele><time>2026-05-02T11:27:41.527Z</time></trkpt><trkpt lat="42.4029915" lon="11.160419"><ele>515.0</ele><time>2026-05-02T11:27:42.526Z</time></trkpt><trkpt lat="42.4028943" lon="11.1603883"><ele>515.0</ele><time>2026-05-02T11:27:43.527Z</time></trkpt><trkpt lat="42.4027991" lon="11.1603684"><ele>513.1666666666666</ele><time>2026-05-02T11:27:44.527Z</time></trkpt><trkpt lat="42.4027098" lon="11.1603654"><ele>511.3333333333333</ele><time>2026-05-02T11:27:45.527Z</time></trkpt><trkpt lat="42.4026258" lon="11.1603831"><ele>509.5</ele><time>2026-05-02T11:27:46.527Z</time></trkpt><trkpt lat="42.4025464" lon="11.1604241"><ele>507.66666666666663</ele><time>2026-05-02T11:27:47.527Z</time></trkpt><trkpt lat="42.4024781" lon="11.1604975"><ele>505.8333333333333</ele><time>2026-05-02T11:27:48.526Z</time></trkpt><trkpt lat="42.4024161" lon="11.1605906"><ele>504.0</ele><time>2026-05-02T11:27:49.526Z</time></trkpt><trkpt lat="42.4023523" lon="11.1606999"><ele>503.79999999999995</ele><time>2026-05-02T11:27:50.527Z</time></trkpt><trkpt lat="42.4022837" lon="11.1608124"><ele>503.59999999999997</ele><time>2026-05-02T11:27:51.528Z</time></trkpt><trkpt lat="42.4022147" lon="11.1609318"><ele>503.4</ele><time>2026-05-02T11:27:52.527Z</time></trkpt><trkpt lat="42.4021421" lon="11.1610448"><ele>503.2</ele><time>2026-05-02T11:27:53.528Z</time></trkpt><trkpt lat="42.4020618" lon="11.1611396"><ele>503.0</ele><time>2026-05-02T11:27:54.528Z</time></trkpt><trkpt lat="42.4019717" lon="11.161209"><ele>502.3333333333333</ele><time>2026-05-02T11:27:55.527Z</time></trkpt><trkpt lat="42.4018738" lon="11.1612359"><ele>501.66666666666663</ele><time>2026-05-02T11:27:56.526Z</time></trkpt><trkpt lat="42.4017852" lon="11.1612321"><ele>501.0</ele><time>2026-05-02T11:27:57.527Z</time></trkpt><trkpt lat="42.4017032" lon="11.1612133"><ele>500.33333333333337</ele><time>2026-05-02T11:27:58.527Z</time></trkpt><trkpt lat="42.4016338" lon="11.161209"><ele>499.6666666666667</ele><time>2026-05-02T11:27:59.526Z</time></trkpt><trkpt lat="42.4015863" lon="11.1613214"><ele>499.0</ele><time>2026-05-02T11:28:01.527Z</time></trkpt><trkpt lat="42.401667" lon="11.1614141"><ele>499.0</ele><time>2026-05-02T11:28:03.527Z</time></trkpt><trkpt lat="42.4017356" lon="11.1614589"><ele>499.0</ele><time>2026-05-02T11:28:04.527Z</time></trkpt><trkpt lat="42.4018087" lon="11.1615193"><ele>499.0</ele><time>2026-05-02T11:28:05.527Z</time></trkpt><trkpt lat="42.4018823" lon="11.1615983"><ele>499.0</ele><time>2026-05-02T11:28:06.527Z</time></trkpt><trkpt lat="42.4019543" lon="11.161694"><ele>499.0</ele><time>2026-05-02T11:28:07.527Z</time></trkpt><trkpt lat="42.4020184" lon="11.161805"><ele>499.79999999999995</ele><time>2026-05-02T11:28:08.527Z</time></trkpt><trkpt lat="42.4020739" lon="11.1619306"><ele>500.59999999999997</ele><time>2026-05-02T11:28:09.527Z</time></trkpt><trkpt lat="42.4021217" lon="11.1620656"><ele>501.4</ele><time>2026-05-02T11:28:10.528Z</time></trkpt><trkpt lat="42.4021594" lon="11.1622029"><ele>502.2</ele><time>2026-05-02T11:28:11.527Z</time></trkpt><trkpt lat="42.4022009" lon="11.1623431"><ele>503.0</ele><time>2026-05-02T11:28:12.526Z</time></trkpt><trkpt lat="42.402249" lon="11.1624768"><ele>504.8333333333333</ele><time>2026-05-02T11:28:13.527Z</time></trkpt><trkpt lat="42.4022996" lon="11.1625916"><ele>506.66666666666663</ele><time>2026-05-02T11:28:14.527Z</time></trkpt><trkpt lat="42.4023506" lon="11.1626904"><ele>508.5</ele><time>2026-05-02T11:28:15.526Z</time></trkpt><trkpt lat="42.402401" lon="11.1627749"><ele>510.33333333333337</ele><time>2026-05-02T11:28:16.526Z</time></trkpt><trkpt lat="42.4024375" lon="11.1628554"><ele>512.1666666666667</ele><time>2026-05-02T11:28:17.526Z</time></trkpt><trkpt lat="42.4024349" lon="11.1629856"><ele>514.0</ele><time>2026-05-02T11:28:19.526Z</time></trkpt><trkpt lat="42.4023552" lon="11.1629982"><ele>514.0</ele><time>2026-05-02T11:28:21.526Z</time></trkpt><trkpt lat="42.402237" lon="11.1629006"><ele>514.0</ele><time>2026-05-02T11:28:23.526Z</time></trkpt><trkpt lat="42.4021756" lon="11.1628168"><ele>514.0</ele><time>2026-05-02T11:28:24.526Z</time></trkpt><trkpt lat="42.4021018" lon="11.1627134"><ele>514.0</ele><time>2026-05-02T11:28:25.527Z</time></trkpt><trkpt lat="42.4020278" lon="11.162612"><ele>514.0</ele><time>2026-05-02T11:28:26.527Z</time></trkpt><trkpt lat="42.401953" lon="11.1625334"><ele>516.8</ele><time>2026-05-02T11:28:27.527Z</time></trkpt><trkpt lat="42.4018742" lon="11.162479"><ele>519.5999999999999</ele><time>2026-05-02T11:28:28.527Z</time></trkpt><trkpt lat="42.4017881" lon="11.1624456"><ele>522.4</ele><time>2026-05-02T11:28:29.527Z</time></trkpt><trkpt lat="42.4016991" lon="11.1624351"><ele>525.1999999999999</ele><time>2026-05-02T11:28:30.528Z</time></trkpt><trkpt lat="42.4016092" lon="11.1624409"><ele>528.0</ele><time>2026-05-02T11:28:31.526Z</time></trkpt><trkpt lat="42.4015074" lon="11.1624812"><ele>528.0</ele><time>2026-05-02T11:28:32.527Z</time></trkpt><trkpt lat="42.4013863" lon="11.1625503"><ele>528.0</ele><time>2026-05-02T11:28:33.526Z</time></trkpt><trkpt lat="42.4012586" lon="11.1626134"><ele>528.0</ele><time>2026-05-02T11:28:34.527Z</time></trkpt><trkpt lat="42.401149" lon="11.1626439"><ele>528.0</ele><time>2026-05-02T11:28:35.528Z</time></trkpt><trkpt lat="42.4010551" lon="11.1626903"><ele>528.25</ele><time>2026-05-02T11:28:36.528Z</time></trkpt><trkpt lat="42.4009511" lon="11.1627786"><ele>528.5</ele><time>2026-05-02T11:28:37.526Z</time></trkpt><trkpt lat="42.4008466" lon="11.1628794"><ele>528.75</ele><time>2026-05-02T11:28:38.527Z</time></trkpt><trkpt lat="42.4007383" lon="11.162979"><ele>529.0</ele><time>2026-05-02T11:28:39.528Z</time></trkpt><trkpt lat="42.4006361" lon="11.1630525"><ele>529.0</ele><time>2026-05-02T11:28:40.527Z</time></trkpt><trkpt lat="42.4005455" lon="11.1631245"><ele>529.0</ele><time>2026-05-02T11:28:41.528Z</time></trkpt><trkpt lat="42.4004645" lon="11.1632037"><ele>529.0</ele><time>2026-05-02T11:28:42.526Z</time></trkpt><trkpt lat="42.4003795" lon="11.1632639"><ele>529.0</ele><time>2026-05-02T11:28:43.527Z</time></trkpt><trkpt lat="42.4002769" lon="11.1632965"><ele>529.0</ele><time>2026-05-02T11:28:44.527Z</time></trkpt><trkpt lat="42.4001545" lon="11.163308"><ele>531.0</ele><time>2026-05-02T11:28:45.527Z</time></trkpt><trkpt lat="42.4000214" lon="11.1633324"><ele>533.0</ele><time>2026-05-02T11:28:46.527Z</time></trkpt><trkpt lat="42.3998891" lon="11.163373"><ele>535.0</ele><time>2026-05-02T11:28:47.527Z</time></trkpt><trkpt lat="42.3997705" lon="11.1633913"><ele>537.0</ele><time>2026-05-02T11:28:48.527Z</time></trkpt><trkpt lat="42.3996707" lon="11.1633945"><ele>537.4</ele><time>2026-05-02T11:28:49.527Z</time></trkpt><trkpt lat="42.3995786" lon="11.1634087"><ele>537.8000000000001</ele><time>2026-05-02T11:28:50.527Z</time></trkpt><trkpt lat="42.3994863" lon="11.1634513"><ele>538.2</ele><time>2026-05-02T11:28:51.527Z</time></trkpt><trkpt lat="42.3993882" lon="11.1635187"><ele>538.6</ele><time>2026-05-02T11:28:52.526Z</time></trkpt><trkpt lat="42.3992725" lon="11.1635939"><ele>539.0</ele><time>2026-05-02T11:28:53.527Z</time></trkpt><trkpt lat="42.3991536" lon="11.1636371"><ele>539.0</ele><time>2026-05-02T11:28:54.527Z</time></trkpt><trkpt lat="42.399046" lon="11.1636535"><ele>539.0</ele><time>2026-05-02T11:28:55.527Z</time></trkpt><trkpt lat="42.3989479" lon="11.1636453"><ele>539.0</ele><time>2026-05-02T11:28:56.526Z</time></trkpt><trkpt lat="42.3988534" lon="11.1636257"><ele>539.0</ele><time>2026-05-02T11:28:57.526Z</time></trkpt><trkpt lat="42.3987561" lon="11.1636037"><ele>539.0</ele><time>2026-05-02T11:28:58.527Z</time></trkpt><trkpt lat="42.3986558" lon="11.1635829"><ele>539.8</ele><time>2026-05-02T11:28:59.526Z</time></trkpt><trkpt lat="42.3985713" lon="11.1635705"><ele>540.5999999999999</ele><time>2026-05-02T11:29:00.527Z</time></trkpt><trkpt lat="42.3984914" lon="11.1635816"><ele>541.4</ele><time>2026-05-02T11:29:01.527Z</time></trkpt><trkpt lat="42.3984006" lon="11.1636152"><ele>542.1999999999999</ele><time>2026-05-02T11:29:02.528Z</time></trkpt><trkpt lat="42.3983058" lon="11.1636677"><ele>543.0</ele><time>2026-05-02T11:29:03.526Z</time></trkpt><trkpt lat="42.398204" lon="11.1637143"><ele>543.0</ele><time>2026-05-02T11:29:04.526Z</time></trkpt><trkpt lat="42.3980998" lon="11.1637604"><ele>543.0</ele><time>2026-05-02T11:29:05.526Z</time></trkpt><trkpt lat="42.3980027" lon="11.1638057"><ele>543.0</ele><time>2026-05-02T11:29:06.526Z</time></trkpt><trkpt lat="42.3979216" lon="11.1638412"><ele>543.0</ele><time>2026-05-02T11:29:07.526Z</time></trkpt><trkpt lat="42.3978496" lon="11.1638627"><ele>543.0</ele><time>2026-05-02T11:29:08.527Z</time></trkpt><trkpt lat="42.3977831" lon="11.1638504"><ele>543.0</ele><time>2026-05-02T11:29:09.527Z</time></trkpt><trkpt lat="42.3977112" lon="11.1637997"><ele>544.25</ele><time>2026-05-02T11:29:10.527Z</time></trkpt><trkpt lat="42.3976273" lon="11.163713"><ele>545.5</ele><time>2026-05-02T11:29:11.528Z</time></trkpt><trkpt lat="42.3975327" lon="11.1636111"><ele>546.75</ele><time>2026-05-02T11:29:12.527Z</time></trkpt><trkpt lat="42.3974233" lon="11.1634996"><ele>548.0</ele><time>2026-05-02T11:29:13.528Z</time></trkpt><trkpt lat="42.3973096" lon="11.1633793"><ele>548.0</ele><time>2026-05-02T11:29:14.526Z</time></trkpt><trkpt lat="42.3972016" lon="11.1632601"><ele>548.0</ele><time>2026-05-02T11:29:15.526Z</time></trkpt><trkpt lat="42.397101" lon="11.1631532"><ele>548.0</ele><time>2026-05-02T11:29:16.527Z</time></trkpt><trkpt lat="42.3969977" lon="11.1630545"><ele>548.0</ele><time>2026-05-02T11:29:17.527Z</time></trkpt><trkpt lat="42.3968955" lon="11.1629735"><ele>546.1999999999999</ele><time>2026-05-02T11:29:18.526Z</time></trkpt><trkpt lat="42.3968012" lon="11.1629195"><ele>544.4</ele><time>2026-05-02T11:29:19.526Z</time></trkpt><trkpt lat="42.3967076" lon="11.1628984"><ele>542.5999999999999</ele><time>2026-05-02T11:29:20.526Z</time></trkpt><trkpt lat="42.3966185" lon="11.1629201"><ele>540.8</ele><time>2026-05-02T11:29:21.526Z</time></trkpt><trkpt lat="42.396532" lon="11.1629644"><ele>539.0</ele><time>2026-05-02T11:29:22.527Z</time></trkpt><trkpt lat="42.3964411" lon="11.1630282"><ele>539.0</ele><time>2026-05-02T11:29:23.527Z</time></trkpt><trkpt lat="42.3963446" lon="11.1630898"><ele>539.0</ele><time>2026-05-02T11:29:24.526Z</time></trkpt><trkpt lat="42.3962449" lon="11.1631587"><ele>539.0</ele><time>2026-05-02T11:29:25.526Z</time></trkpt><trkpt lat="42.3961413" lon="11.1632309"><ele>539.0</ele><time>2026-05-02T11:29:26.526Z</time></trkpt><trkpt lat="42.396032" lon="11.1633087"><ele>542.0</ele><time>2026-05-02T11:29:27.527Z</time></trkpt><trkpt lat="42.3959242" lon="11.1633833"><ele>545.0</ele><time>2026-05-02T11:29:28.527Z</time></trkpt><trkpt lat="42.3958249" lon="11.1634528"><ele>548.0</ele><time>2026-05-02T11:29:29.527Z</time></trkpt><trkpt lat="42.3957305" lon="11.1635185"><ele>551.0</ele><time>2026-05-02T11:29:30.527Z</time></trkpt><trkpt lat="42.3956338" lon="11.1635646"><ele>554.0</ele><time>2026-05-02T11:29:31.527Z</time></trkpt><trkpt lat="42.3955344" lon="11.1635921"><ele>553.3333333333333</ele><time>2026-05-02T11:29:32.527Z</time></trkpt><trkpt lat="42.3954354" lon="11.1635917"><ele>552.6666666666666</ele><time>2026-05-02T11:29:33.528Z</time></trkpt><trkpt lat="42.3953465" lon="11.1635767"><ele>552.0</ele><time>2026-05-02T11:29:34.527Z</time></trkpt><trkpt lat="42.3952589" lon="11.1635587"><ele>551.3333333333334</ele><time>2026-05-02T11:29:35.526Z</time></trkpt><trkpt lat="42.3951741" lon="11.1635364"><ele>550.6666666666667</ele><time>2026-05-02T11:29:36.528Z</time></trkpt><trkpt lat="42.3950934" lon="11.1635116"><ele>550.0</ele><time>2026-05-02T11:29:37.527Z</time></trkpt><trkpt lat="42.395019" lon="11.1634887"><ele>550.0</ele><time>2026-05-02T11:29:38.526Z</time></trkpt><trkpt lat="42.3949452" lon="11.1634628"><ele>550.0</ele><time>2026-05-02T11:29:39.528Z</time></trkpt><trkpt lat="42.3948614" lon="11.1634361"><ele>550.0</ele><time>2026-05-02T11:29:40.526Z</time></trkpt><trkpt lat="42.3947677" lon="11.1634091"><ele>550.0</ele><time>2026-05-02T11:29:41.526Z</time></trkpt><trkpt lat="42.3946698" lon="11.163396"><ele>550.0</ele><time>2026-05-02T11:29:42.526Z</time></trkpt><trkpt lat="42.3945706" lon="11.1633901"><ele>551.0</ele><time>2026-05-02T11:29:43.526Z</time></trkpt><trkpt lat="42.3944662" lon="11.1633863"><ele>552.0</ele><time>2026-05-02T11:29:44.527Z</time></trkpt><trkpt lat="42.394365" lon="11.1633793"><ele>553.0</ele><time>2026-05-02T11:29:45.527Z</time></trkpt><trkpt lat="42.3942584" lon="11.1633758"><ele>554.0</ele><time>2026-05-02T11:29:46.527Z</time></trkpt><trkpt lat="42.3941551" lon="11.1633753"><ele>555.0</ele><time>2026-05-02T11:29:47.526Z</time></trkpt><trkpt lat="42.394058" lon="11.1633654"><ele>555.0</ele><time>2026-05-02T11:29:48.526Z</time></trkpt><trkpt lat="42.3939712" lon="11.163357"><ele>555.0</ele><time>2026-05-02T11:29:49.527Z</time></trkpt><trkpt lat="42.393891" lon="11.1633516"><ele>555.0</ele><time>2026-05-02T11:29:50.527Z</time></trkpt><trkpt lat="42.3938162" lon="11.1633569"><ele>555.0</ele><time>2026-05-02T11:29:51.527Z</time></trkpt><trkpt lat="42.3937469" lon="11.1633856"><ele>555.0</ele><time>2026-05-02T11:29:52.527Z</time></trkpt><trkpt lat="42.3936815" lon="11.1634272"><ele>555.0</ele><time>2026-05-02T11:29:53.527Z</time></trkpt><trkpt lat="42.3936217" lon="11.163472"><ele>554.6666666666666</ele><time>2026-05-02T11:29:54.526Z</time></trkpt><trkpt lat="42.3935625" lon="11.1635078"><ele>554.3333333333334</ele><time>2026-05-02T11:29:55.526Z</time></trkpt><trkpt lat="42.3934831" lon="11.1636078"><ele>554.0</ele><time>2026-05-02T11:29:57.525Z</time></trkpt><trkpt lat="42.3934371" lon="11.1636723"><ele>553.6666666666667</ele><time>2026-05-02T11:29:58.525Z</time></trkpt><trkpt lat="42.393391" lon="11.1637497"><ele>553.3333333333334</ele><time>2026-05-02T11:29:59.526Z</time></trkpt><trkpt lat="42.3933446" lon="11.1638373"><ele>553.0</ele><time>2026-05-02T11:30:00.526Z</time></trkpt><trkpt lat="42.3932876" lon="11.1639306"><ele>553.0</ele><time>2026-05-02T11:30:01.526Z</time></trkpt><trkpt lat="42.3932191" lon="11.1640251"><ele>553.0</ele><time>2026-05-02T11:30:02.525Z</time></trkpt><trkpt lat="42.3931445" lon="11.1641244"><ele>553.0</ele><time>2026-05-02T11:30:03.526Z</time></trkpt><trkpt lat="42.3930689" lon="11.1642252"><ele>553.0</ele><time>2026-05-02T11:30:04.526Z</time></trkpt><trkpt lat="42.3929844" lon="11.1643264"><ele>553.0</ele><time>2026-05-02T11:30:05.526Z</time></trkpt><trkpt lat="42.3929073" lon="11.164434"><ele>552.6</ele><time>2026-05-02T11:30:06.526Z</time></trkpt><trkpt lat="42.392831" lon="11.1645347"><ele>552.1999999999999</ele><time>2026-05-02T11:30:07.526Z</time></trkpt><trkpt lat="42.392758" lon="11.1646357"><ele>551.8</ele><time>2026-05-02T11:30:08.526Z</time></trkpt><trkpt lat="42.3926856" lon="11.1647369"><ele>551.4</ele><time>2026-05-02T11:30:09.525Z</time></trkpt><trkpt lat="42.3926141" lon="11.1648344"><ele>551.0</ele><time>2026-05-02T11:30:10.526Z</time></trkpt><trkpt lat="42.3925501" lon="11.1649246"><ele>554.6</ele><time>2026-05-02T11:30:11.525Z</time></trkpt><trkpt lat="42.392498" lon="11.165018"><ele>558.2</ele><time>2026-05-02T11:30:12.527Z</time></trkpt><trkpt lat="42.3924533" lon="11.1651203"><ele>561.8</ele><time>2026-05-02T11:30:13.526Z</time></trkpt><trkpt lat="42.3924218" lon="11.1652399"><ele>565.4</ele><time>2026-05-02T11:30:14.525Z</time></trkpt><trkpt lat="42.3923981" lon="11.1653669"><ele>569.0</ele><time>2026-05-02T11:30:15.525Z</time></trkpt><trkpt lat="42.3923796" lon="11.1654986"><ele>569.0</ele><time>2026-05-02T11:30:16.526Z</time></trkpt><trkpt lat="42.3923645" lon="11.1656237"><ele>569.0</ele><time>2026-05-02T11:30:17.526Z</time></trkpt><trkpt lat="42.3923557" lon="11.1657428"><ele>569.0</ele><time>2026-05-02T11:30:18.527Z</time></trkpt><trkpt lat="42.3923554" lon="11.1658542"><ele>569.0</ele><time>2026-05-02T11:30:19.525Z</time></trkpt><trkpt lat="42.3923683" lon="11.1659661"><ele>569.0</ele><time>2026-05-02T11:30:20.525Z</time></trkpt><trkpt lat="42.3923988" lon="11.1660728"><ele>569.0</ele><time>2026-05-02T11:30:21.526Z</time></trkpt><trkpt lat="42.3924436" lon="11.1661634"><ele>567.8333333333333</ele><time>2026-05-02T11:30:22.526Z</time></trkpt><trkpt lat="42.392476" lon="11.1662454"><ele>566.6666666666666</ele><time>2026-05-02T11:30:23.526Z</time></trkpt><trkpt lat="42.3924735" lon="11.1664031"><ele>565.5</ele><time>2026-05-02T11:30:25.526Z</time></trkpt><trkpt lat="42.392431" lon="11.1664695"><ele>564.3333333333334</ele><time>2026-05-02T11:30:26.525Z</time></trkpt><trkpt lat="42.3923748" lon="11.1665388"><ele>563.1666666666667</ele><time>2026-05-02T11:30:27.525Z</time></trkpt><trkpt lat="42.3923076" lon="11.1666115"><ele>562.0</ele><time>2026-05-02T11:30:28.526Z</time></trkpt><trkpt lat="42.3922325" lon="11.1666907"><ele>558.4</ele><time>2026-05-02T11:30:29.526Z</time></trkpt><trkpt lat="42.3921516" lon="11.1667729"><ele>554.8000000000001</ele><time>2026-05-02T11:30:30.526Z</time></trkpt><trkpt lat="42.392069" lon="11.1668594"><ele>551.2</ele><time>2026-05-02T11:30:31.526Z</time></trkpt><trkpt lat="42.3919771" lon="11.1669522"><ele>547.6</ele><time>2026-05-02T11:30:32.527Z</time></trkpt><trkpt lat="42.3918836" lon="11.1670508"><ele>544.0</ele><time>2026-05-02T11:30:33.525Z</time></trkpt><trkpt lat="42.3917863" lon="11.1671564"><ele>544.0</ele><time>2026-05-02T11:30:34.526Z</time></trkpt><trkpt lat="42.3916854" lon="11.1672608"><ele>544.0</ele><time>2026-05-02T11:30:35.526Z</time></trkpt><trkpt lat="42.391581" lon="11.1673647"><ele>544.0</ele><time>2026-05-02T11:30:36.525Z</time></trkpt><trkpt lat="42.3914713" lon="11.1674613"><ele>544.0</ele><time>2026-05-02T11:30:37.526Z</time></trkpt><trkpt lat="42.3913539" lon="11.167547"><ele>543.25</ele><time>2026-05-02T11:30:38.526Z</time></trkpt><trkpt lat="42.391232" lon="11.1676347"><ele>542.5</ele><time>2026-05-02T11:30:39.526Z</time></trkpt><trkpt lat="42.39111" lon="11.1677179"><ele>541.75</ele><time>2026-05-02T11:30:40.525Z</time></trkpt><trkpt lat="42.3909894" lon="11.1677876"><ele>541.0</ele><time>2026-05-02T11:30:41.526Z</time></trkpt><trkpt lat="42.390864" lon="11.1678512"><ele>541.0</ele><time>2026-05-02T11:30:42.526Z</time></trkpt><trkpt lat="42.3907405" lon="11.1679139"><ele>541.0</ele><time>2026-05-02T11:30:43.527Z</time></trkpt><trkpt lat="42.3906254" lon="11.1679725"><ele>541.0</ele><time>2026-05-02T11:30:44.526Z</time></trkpt><trkpt lat="42.3905133" lon="11.1680303"><ele>541.0</ele><time>2026-05-02T11:30:45.526Z</time></trkpt><trkpt lat="42.3904011" lon="11.1680903"><ele>541.8</ele><time>2026-05-02T11:30:46.526Z</time></trkpt><trkpt lat="42.3902923" lon="11.1681466"><ele>542.6</ele><time>2026-05-02T11:30:47.526Z</time></trkpt><trkpt lat="42.3901909" lon="11.1681945"><ele>543.4</ele><time>2026-05-02T11:30:48.526Z</time></trkpt><trkpt lat="42.3900989" lon="11.16824"><ele>544.2</ele><time>2026-05-02T11:30:49.525Z</time></trkpt><trkpt lat="42.3900198" lon="11.1682833"><ele>545.0</ele><time>2026-05-02T11:30:50.526Z</time></trkpt><trkpt lat="42.3899504" lon="11.1683196"><ele>546.5</ele><time>2026-05-02T11:30:51.526Z</time></trkpt><trkpt lat="42.3898898" lon="11.1683499"><ele>548.0</ele><time>2026-05-02T11:30:52.526Z</time></trkpt><trkpt lat="42.3897762" lon="11.1683688"><ele>549.5</ele><time>2026-05-02T11:30:54.526Z</time></trkpt><trkpt lat="42.3897077" lon="11.1683289"><ele>551.0</ele><time>2026-05-02T11:30:55.525Z</time></trkpt><trkpt lat="42.3896331" lon="11.1682739"><ele>552.5</ele><time>2026-05-02T11:30:56.525Z</time></trkpt><trkpt lat="42.3895528" lon="11.1682156"><ele>554.0</ele><time>2026-05-02T11:30:57.526Z</time></trkpt><trkpt lat="42.3894751" lon="11.1681586"><ele>554.3333333333333</ele><time>2026-05-02T11:30:58.526Z</time></trkpt><trkpt lat="42.3893908" lon="11.1680993"><ele>554.6666666666666</ele><time>2026-05-02T11:30:59.526Z</time></trkpt><trkpt lat="42.3893093" lon="11.1680402"><ele>555.0</ele><time>2026-05-02T11:31:00.526Z</time></trkpt><trkpt lat="42.3892306" lon="11.1679801"><ele>555.3333333333334</ele><time>2026-05-02T11:31:01.525Z</time></trkpt><trkpt lat="42.3891513" lon="11.1679295"><ele>555.6666666666667</ele><time>2026-05-02T11:31:02.526Z</time></trkpt><trkpt lat="42.3890736" lon="11.1679028"><ele>556.0</ele><time>2026-05-02T11:31:03.526Z</time></trkpt><trkpt lat="42.3889951" lon="11.1678832"><ele>556.0</ele><time>2026-05-02T11:31:04.526Z</time></trkpt><trkpt lat="42.38892" lon="11.1678761"><ele>556.0</ele><time>2026-05-02T11:31:05.525Z</time></trkpt><trkpt lat="42.3888495" lon="11.1678629"><ele>556.0</ele><time>2026-05-02T11:31:06.526Z</time></trkpt><trkpt lat="42.3887842" lon="11.167833"><ele>556.0</ele><time>2026-05-02T11:31:07.526Z</time></trkpt><trkpt lat="42.3887293" lon="11.1677134"><ele>556.0</ele><time>2026-05-02T11:31:09.525Z</time></trkpt><trkpt lat="42.3887149" lon="11.1676272"><ele>556.0</ele><time>2026-05-02T11:31:10.526Z</time></trkpt><trkpt lat="42.388717" lon="11.1675289"><ele>558.1666666666667</ele><time>2026-05-02T11:31:11.527Z</time></trkpt><trkpt lat="42.3887269" lon="11.1674404"><ele>560.3333333333334</ele><time>2026-05-02T11:31:12.526Z</time></trkpt><trkpt lat="42.3886919" lon="11.1673285"><ele>562.5</ele><time>2026-05-02T11:31:14.526Z</time></trkpt><trkpt lat="42.3886208" lon="11.1673397"><ele>564.6666666666666</ele><time>2026-05-02T11:31:16.526Z</time></trkpt><trkpt lat="42.3885905" lon="11.1674682"><ele>566.8333333333333</ele><time>2026-05-02T11:31:18.525Z</time></trkpt><trkpt lat="42.388568" lon="11.1675507"><ele>569.0</ele><time>2026-05-02T11:31:19.526Z</time></trkpt><trkpt lat="42.3885296" lon="11.1676238"><ele>570.6666666666666</ele><time>2026-05-02T11:31:20.526Z</time></trkpt><trkpt lat="42.3884743" lon="11.1677023"><ele>572.3333333333333</ele><time>2026-05-02T11:31:21.526Z</time></trkpt><trkpt lat="42.3884208" lon="11.167783"><ele>574.0</ele><time>2026-05-02T11:31:22.527Z</time></trkpt><trkpt lat="42.38838" lon="11.167871"><ele>575.6666666666666</ele><time>2026-05-02T11:31:23.525Z</time></trkpt><trkpt lat="42.3883622" lon="11.1679672"><ele>577.3333333333334</ele><time>2026-05-02T11:31:24.526Z</time></trkpt><trkpt lat="42.3883632" lon="11.1680588"><ele>579.0</ele><time>2026-05-02T11:31:25.525Z</time></trkpt><trkpt lat="42.3883888" lon="11.1681572"><ele>580.5</ele><time>2026-05-02T11:31:26.526Z</time></trkpt><trkpt lat="42.3884295" lon="11.1682645"><ele>582.0</ele><time>2026-05-02T11:31:27.526Z</time></trkpt><trkpt lat="42.3884921" lon="11.1683985"><ele>583.5</ele><time>2026-05-02T11:31:28.525Z</time></trkpt><trkpt lat="42.3885663" lon="11.1685587"><ele>585.0</ele><time>2026-05-02T11:31:29.526Z</time></trkpt><trkpt lat="42.3886275" lon="11.1686978"><ele>585.0</ele><time>2026-05-02T11:31:30.526Z</time></trkpt><trkpt lat="42.3886725" lon="11.1688106"><ele>585.0</ele><time>2026-05-02T11:31:31.526Z</time></trkpt><trkpt lat="42.3887037" lon="11.1689012"><ele>585.0</ele><time>2026-05-02T11:31:32.527Z</time></trkpt><trkpt lat="42.3887317" lon="11.1690415"><ele>585.0</ele><time>2026-05-02T11:31:34.526Z</time></trkpt><trkpt lat="42.3887082" lon="11.1691782"><ele>585.0</ele><time>2026-05-02T11:31:36.526Z</time></trkpt><trkpt lat="42.3886385" lon="11.1692564"><ele>585.3333333333334</ele><time>2026-05-02T11:31:38.527Z</time></trkpt><trkpt lat="42.388558" lon="11.1693035"><ele>585.6666666666666</ele><time>2026-05-02T11:32:03.525Z</time></trkpt><trkpt lat="42.3885148" lon="11.1693894"><ele>586.0</ele><time>2026-05-02T11:32:05.525Z</time></trkpt><trkpt lat="42.3884539" lon="11.1694554"><ele>586.3333333333333</ele><time>2026-05-02T11:32:07.527Z</time></trkpt><trkpt lat="42.3883724" lon="11.1694974"><ele>586.6666666666666</ele><time>2026-05-02T11:32:09.526Z</time></trkpt><trkpt lat="42.3882658" lon="11.1695637"><ele>587.0</ele><time>2026-05-02T11:32:11.525Z</time></trkpt><trkpt lat="42.3882035" lon="11.1696011"><ele>587.0</ele><time>2026-05-02T11:32:12.525Z</time></trkpt><trkpt lat="42.3880943" lon="11.1696735"><ele>587.0</ele><time>2026-05-02T11:32:14.526Z</time></trkpt><trkpt lat="42.387987" lon="11.1697566"><ele>587.0</ele><time>2026-05-02T11:32:16.525Z</time></trkpt><trkpt lat="42.3879304" lon="11.1698052"><ele>587.0</ele><time>2026-05-02T11:32:17.525Z</time></trkpt><trkpt lat="42.3878777" lon="11.1698665"><ele>587.0</ele><time>2026-05-02T11:32:18.526Z</time></trkpt><trkpt lat="42.3878236" lon="11.1699286"><ele>587.2857142857143</ele><time>2026-05-02T11:32:19.526Z</time></trkpt><trkpt lat="42.387766" lon="11.16998"><ele>587.5714285714287</ele><time>2026-05-02T11:32:20.526Z</time></trkpt><trkpt lat="42.3877173" lon="11.1700377"><ele>587.8571428571429</ele><time>2026-05-02T11:32:21.526Z</time></trkpt><trkpt lat="42.3876726" lon="11.1700993"><ele>588.1428571428571</ele><time>2026-05-02T11:32:22.526Z</time></trkpt><trkpt lat="42.3876222" lon="11.1701596"><ele>588.4285714285713</ele><time>2026-05-02T11:32:23.526Z</time></trkpt><trkpt lat="42.3875755" lon="11.1702214"><ele>588.7142857142857</ele><time>2026-05-02T11:32:24.527Z</time></trkpt><trkpt lat="42.3875248" lon="11.1702804"><ele>589.0</ele><time>2026-05-02T11:32:25.526Z</time></trkpt><trkpt lat="42.3874762" lon="11.1703366"><ele>589.0</ele><time>2026-05-02T11:32:26.526Z</time></trkpt><trkpt lat="42.3874283" lon="11.1703941"><ele>589.0</ele><time>2026-05-02T11:32:27.527Z</time></trkpt><trkpt lat="42.3873609" lon="11.1705134"><ele>589.0</ele><time>2026-05-02T11:32:29.526Z</time></trkpt><trkpt lat="42.3872928" lon="11.1706142"><ele>589.0</ele><time>2026-05-02T11:32:31.526Z</time></trkpt><trkpt lat="42.3872389" lon="11.1706951"><ele>589.0</ele><time>2026-05-02T11:32:33.525Z</time></trkpt><trkpt lat="42.3871893" lon="11.170754"><ele>589.0</ele><time>2026-05-02T11:32:35.525Z</time></trkpt><trkpt lat="42.3871325" lon="11.1708041"><ele>585.2</ele><time>2026-05-02T11:33:12.526Z</time></trkpt><trkpt lat="42.3870631" lon="11.1708728"><ele>581.4</ele><time>2026-05-02T11:33:14.527Z</time></trkpt><trkpt lat="42.3869852" lon="11.1709458"><ele>577.6</ele><time>2026-05-02T11:33:16.526Z</time></trkpt><trkpt lat="42.3869029" lon="11.1710019"><ele>573.8</ele><time>2026-05-02T11:33:18.526Z</time></trkpt><trkpt lat="42.3868089" lon="11.1710644"><ele>570.0</ele><time>2026-05-02T11:33:20.526Z</time></trkpt><trkpt lat="42.3867177" lon="11.1711084"><ele>570.0</ele><time>2026-05-02T11:33:22.525Z</time></trkpt><trkpt lat="42.386627" lon="11.1711511"><ele>570.0</ele><time>2026-05-02T11:33:24.525Z</time></trkpt><trkpt lat="42.3865402" lon="11.1712146"><ele>570.0</ele><time>2026-05-02T11:33:26.525Z</time></trkpt><trkpt lat="42.3864505" lon="11.171319"><ele>570.0</ele><time>2026-05-02T11:33:28.526Z</time></trkpt><trkpt lat="42.3863565" lon="11.1714102"><ele>570.0</ele><time>2026-05-02T11:33:30.524Z</time></trkpt><trkpt lat="42.3862642" lon="11.1715058"><ele>565.6</ele><time>2026-05-02T11:33:32.524Z</time></trkpt><trkpt lat="42.3861727" lon="11.1716006"><ele>561.2</ele><time>2026-05-02T11:33:34.525Z</time></trkpt><trkpt lat="42.3861006" lon="11.1717136"><ele>556.8</ele><time>2026-05-02T11:33:36.524Z</time></trkpt><trkpt lat="42.386056" lon="11.1718173"><ele>552.4</ele><time>2026-05-02T11:33:38.525Z</time></trkpt><trkpt lat="42.3860871" lon="11.1719187"><ele>548.0</ele><time>2026-05-02T11:33:41.525Z</time></trkpt><trkpt lat="42.3861412" lon="11.1719651"><ele>548.0</ele><time>2026-05-02T11:33:43.524Z</time></trkpt><trkpt lat="42.3862084" lon="11.1719923"><ele>548.0</ele><time>2026-05-02T11:33:45.525Z</time></trkpt><trkpt lat="42.3862937" lon="11.1720059"><ele>548.0</ele><time>2026-05-02T11:33:47.525Z</time></trkpt><trkpt lat="42.3864076" lon="11.1720166"><ele>548.0</ele><time>2026-05-02T11:33:49.525Z</time></trkpt><trkpt lat="42.3865183" lon="11.172028"><ele>548.0</ele><time>2026-05-02T11:33:51.524Z</time></trkpt><trkpt lat="42.386585" lon="11.1720385"><ele>548.0</ele><time>2026-05-02T11:33:52.525Z</time></trkpt><trkpt lat="42.3866918" lon="11.1720621"><ele>546.1999999999999</ele><time>2026-05-02T11:33:54.525Z</time></trkpt><trkpt lat="42.3867996" lon="11.1720645"><ele>544.4</ele><time>2026-05-02T11:33:56.525Z</time></trkpt><trkpt lat="42.386913" lon="11.1720527"><ele>542.5999999999999</ele><time>2026-05-02T11:33:58.524Z</time></trkpt><trkpt lat="42.3870297" lon="11.1720452"><ele>540.8</ele><time>2026-05-02T11:34:00.524Z</time></trkpt><trkpt lat="42.3870932" lon="11.1720442"><ele>539.0</ele><time>2026-05-02T11:34:01.524Z</time></trkpt><trkpt lat="42.3872176" lon="11.172062"><ele>535.0</ele><time>2026-05-02T11:34:03.525Z</time></trkpt><trkpt lat="42.3873377" lon="11.1720906"><ele>531.0</ele><time>2026-05-02T11:34:05.525Z</time></trkpt><trkpt lat="42.3874584" lon="11.1721168"><ele>527.0</ele><time>2026-05-02T11:34:07.525Z</time></trkpt><trkpt lat="42.3875684" lon="11.172117"><ele>523.0</ele><time>2026-05-02T11:34:09.524Z</time></trkpt><trkpt lat="42.3876771" lon="11.1721174"><ele>523.0</ele><time>2026-05-02T11:34:11.525Z</time></trkpt><trkpt lat="42.3877715" lon="11.1720758"><ele>523.0</ele><time>2026-05-02T11:34:13.524Z</time></trkpt><trkpt lat="42.3878847" lon="11.1720077"><ele>523.0</ele><time>2026-05-02T11:34:15.524Z</time></trkpt><trkpt lat="42.3879943" lon="11.1719837"><ele>523.0</ele><time>2026-05-02T11:34:17.524Z</time></trkpt><trkpt lat="42.3880704" lon="11.1719707"><ele>523.0</ele><time>2026-05-02T11:34:18.525Z</time></trkpt><trkpt lat="42.3881777" lon="11.1719274"><ele>519.1666666666667</ele><time>2026-05-02T11:34:20.525Z</time></trkpt><trkpt lat="42.3882846" lon="11.1718882"><ele>515.3333333333334</ele><time>2026-05-02T11:34:22.524Z</time></trkpt><trkpt lat="42.3883536" lon="11.1718546"><ele>511.5</ele><time>2026-05-02T11:34:23.525Z</time></trkpt><trkpt lat="42.3884149" lon="11.1718316"><ele>507.66666666666663</ele><time>2026-05-02T11:34:24.524Z</time></trkpt><trkpt lat="42.388477" lon="11.1717965"><ele>503.8333333333333</ele><time>2026-05-02T11:34:25.525Z</time></trkpt><trkpt lat="42.3885674" lon="11.1717667"><ele>500.0</ele><time>2026-05-02T11:34:27.526Z</time></trkpt><trkpt lat="42.3886685" lon="11.1717399"><ele>500.0</ele><time>2026-05-02T11:34:29.525Z</time></trkpt><trkpt lat="42.3887697" lon="11.1717105"><ele>500.0</ele><time>2026-05-02T11:34:31.525Z</time></trkpt><trkpt lat="42.3888336" lon="11.1716635"><ele>500.0</ele><time>2026-05-02T11:34:33.525Z</time></trkpt><trkpt lat="42.3889009" lon="11.1716231"><ele>500.0</ele><time>2026-05-02T11:34:35.525Z</time></trkpt><trkpt lat="42.3889891" lon="11.1716064"><ele>500.0</ele><time>2026-05-02T11:34:37.524Z</time></trkpt><trkpt lat="42.3891029" lon="11.1716063"><ele>501.3333333333333</ele><time>2026-05-02T11:34:39.525Z</time></trkpt><trkpt lat="42.3892134" lon="11.1716398"><ele>502.66666666666663</ele><time>2026-05-02T11:34:41.524Z</time></trkpt><trkpt lat="42.3892847" lon="11.171636"><ele>504.0</ele><time>2026-05-02T11:34:42.526Z</time></trkpt><trkpt lat="42.3893524" lon="11.1716093"><ele>505.33333333333337</ele><time>2026-05-02T11:34:43.524Z</time></trkpt><trkpt lat="42.3894186" lon="11.1715911"><ele>506.6666666666667</ele><time>2026-05-02T11:34:44.524Z</time></trkpt><trkpt lat="42.3895002" lon="11.1715777"><ele>508.0</ele><time>2026-05-02T11:34:45.524Z</time></trkpt><trkpt lat="42.3896302" lon="11.1715068"><ele>504.6666666666667</ele><time>2026-05-02T11:34:47.525Z</time></trkpt><trkpt lat="42.3896986" lon="11.1714769"><ele>501.33333333333337</ele><time>2026-05-02T11:34:48.525Z</time></trkpt><trkpt lat="42.3897596" lon="11.1714425"><ele>498.0</ele><time>2026-05-02T11:34:49.526Z</time></trkpt><trkpt lat="42.3898375" lon="11.1713983"><ele>494.66666666666663</ele><time>2026-05-02T11:34:50.525Z</time></trkpt><trkpt lat="42.3899138" lon="11.1713612"><ele>491.3333333333333</ele><time>2026-05-02T11:34:51.525Z</time></trkpt><trkpt lat="42.3899866" lon="11.1713185"><ele>488.0</ele><time>2026-05-02T11:34:52.526Z</time></trkpt><trkpt lat="42.3900607" lon="11.1712735"><ele>488.0</ele><time>2026-05-02T11:34:53.525Z</time></trkpt><trkpt lat="42.3901606" lon="11.1711805"><ele>487.99999999999994</ele><time>2026-05-02T11:34:55.525Z</time></trkpt><trkpt lat="42.3902243" lon="11.1711357"><ele>487.99999999999994</ele><time>2026-05-02T11:34:56.524Z</time></trkpt><trkpt lat="42.3902847" lon="11.1710963"><ele>488.0</ele><time>2026-05-02T11:34:57.525Z</time></trkpt><trkpt lat="42.3903447" lon="11.1710624"><ele>488.0</ele><time>2026-05-02T11:34:58.524Z</time></trkpt><trkpt lat="42.390468" lon="11.1710212"><ele>485.99999999999994</ele><time>2026-05-02T11:35:00.524Z</time></trkpt><trkpt lat="42.3905401" lon="11.1709993"><ele>484.0</ele><time>2026-05-02T11:35:01.524Z</time></trkpt><trkpt lat="42.3906064" lon="11.1709819"><ele>482.0</ele><time>2026-05-02T11:35:02.526Z</time></trkpt><trkpt lat="42.3906703" lon="11.1709682"><ele>480.0</ele><time>2026-05-02T11:35:03.526Z</time></trkpt><trkpt lat="42.3907826" lon="11.1709648"><ele>477.99999999999994</ele><time>2026-05-02T11:35:05.524Z</time></trkpt><trkpt lat="42.3909019" lon="11.170941"><ele>476.0</ele><time>2026-05-02T11:35:07.524Z</time></trkpt><trkpt lat="42.3910311" lon="11.170897"><ele>475.99999999999994</ele><time>2026-05-02T11:35:09.525Z</time></trkpt><trkpt lat="42.39113" lon="11.170813"><ele>476.0</ele><time>2026-05-02T11:35:11.526Z</time></trkpt><trkpt lat="42.391194" lon="11.1707839"><ele>476.0</ele><time>2026-05-02T11:35:12.525Z</time></trkpt><trkpt lat="42.3912579" lon="11.1707336"><ele>476.0</ele><time>2026-05-02T11:35:13.524Z</time></trkpt><trkpt lat="42.3913149" lon="11.1706907"><ele>475.99999999999994</ele><time>2026-05-02T11:35:14.526Z</time></trkpt><trkpt lat="42.3913859" lon="11.170648"><ele>476.0</ele><time>2026-05-02T11:35:15.526Z</time></trkpt><trkpt lat="42.3914467" lon="11.1705926"><ele>478.5</ele><time>2026-05-02T11:35:16.525Z</time></trkpt><trkpt lat="42.3915146" lon="11.1705407"><ele>481.0</ele><time>2026-05-02T11:35:17.524Z</time></trkpt><trkpt lat="42.3896302" lon="11.1715068"><ele>482.1666666666667</ele><time>2026-05-02T11:34:47.525Z</time></trkpt><trkpt lat="42.3896986" lon="11.1714769"><ele>483.33333333333337</ele><time>2026-05-02T11:34:48.525Z</time></trkpt><trkpt lat="42.3897596" lon="11.1714425"><ele>484.5</ele><time>2026-05-02T11:34:49.526Z</time></trkpt><trkpt lat="42.3898375" lon="11.1713983"><ele>485.66666666666663</ele><time>2026-05-02T11:34:50.525Z</time></trkpt><trkpt lat="42.3899138" lon="11.1713612"><ele>486.8333333333333</ele><time>2026-05-02T11:34:51.525Z</time></trkpt><trkpt lat="42.3899866" lon="11.1713185"><ele>488.0</ele><time>2026-05-02T11:34:52.526Z</time></trkpt><trkpt lat="42.3900607" lon="11.1712735"><ele>488.0</ele><time>2026-05-02T11:34:53.525Z</time></trkpt><trkpt lat="42.3901606" lon="11.1711805"><ele>487.99999999999994</ele><time>2026-05-02T11:34:55.525Z</time></trkpt><trkpt lat="42.3902243" lon="11.1711357"><ele>487.99999999999994</ele><time>2026-05-02T11:34:56.524Z</time></trkpt><trkpt lat="42.3902847" lon="11.1710963"><ele>488.0</ele><time>2026-05-02T11:34:57.525Z</time></trkpt><trkpt lat="42.3903447" lon="11.1710624"><ele>488.0</ele><time>2026-05-02T11:34:58.524Z</time></trkpt><trkpt lat="42.390468" lon="11.1710212"><ele>485.99999999999994</ele><time>2026-05-02T11:35:00.524Z</time></trkpt><trkpt lat="42.3905401" lon="11.1709993"><ele>484.0</ele><time>2026-05-02T11:35:01.524Z</time></trkpt><trkpt lat="42.3906064" lon="11.1709819"><ele>482.0</ele><time>2026-05-02T11:35:02.526Z</time></trkpt><trkpt lat="42.3906703" lon="11.1709682"><ele>480.0</ele><time>2026-05-02T11:35:03.526Z</time></trkpt><trkpt lat="42.3907826" lon="11.1709648"><ele>477.99999999999994</ele><time>2026-05-02T11:35:05.524Z</time></trkpt><trkpt lat="42.3909019" lon="11.170941"><ele>476.0</ele><time>2026-05-02T11:35:07.524Z</time></trkpt><trkpt lat="42.3910311" lon="11.170897"><ele>475.99999999999994</ele><time>2026-05-02T11:35:09.525Z</time></trkpt><trkpt lat="42.39113" lon="11.170813"><ele>476.0</ele><time>2026-05-02T11:35:11.526Z</time></trkpt><trkpt lat="42.391194" lon="11.1707839"><ele>476.0</ele><time>2026-05-02T11:35:12.525Z</time></trkpt><trkpt lat="42.3912579" lon="11.1707336"><ele>476.0</ele><time>2026-05-02T11:35:13.524Z</time></trkpt><trkpt lat="42.3913149" lon="11.1706907"><ele>475.99999999999994</ele><time>2026-05-02T11:35:14.526Z</time></trkpt><trkpt lat="42.3913859" lon="11.170648"><ele>476.0</ele><time>2026-05-02T11:35:15.526Z</time></trkpt><trkpt lat="42.3914467" lon="11.1705926"><ele>476.7142857142857</ele><time>2026-05-02T11:35:16.525Z</time></trkpt><trkpt lat="42.3915146" lon="11.1705407"><ele>477.42857142857144</ele><time>2026-05-02T11:35:17.524Z</time></trkpt><trkpt lat="42.391585" lon="11.1705189"><ele>478.1428571428571</ele><time>2026-05-02T11:35:18.525Z</time></trkpt><trkpt lat="42.3916603" lon="11.1705008"><ele>478.85714285714283</ele><time>2026-05-02T11:35:19.525Z</time></trkpt><trkpt lat="42.3917326" lon="11.1704892"><ele>479.57142857142856</ele><time>2026-05-02T11:35:20.525Z</time></trkpt><trkpt lat="42.3918039" lon="11.170506"><ele>480.2857142857142</ele><time>2026-05-02T11:35:21.524Z</time></trkpt><trkpt lat="42.3918662" lon="11.1705221"><ele>480.99999999999994</ele><time>2026-05-02T11:35:22.525Z</time></trkpt><trkpt lat="42.3919287" lon="11.1705481"><ele>481.0</ele><time>2026-05-02T11:35:23.525Z</time></trkpt><trkpt lat="42.3919963" lon="11.1705698"><ele>481.0</ele><time>2026-05-02T11:35:24.525Z</time></trkpt><trkpt lat="42.3921171" lon="11.1706011"><ele>481.0</ele><time>2026-05-02T11:35:26.524Z</time></trkpt><trkpt lat="42.3922265" lon="11.1706223"><ele>481.0</ele><time>2026-05-02T11:35:28.525Z</time></trkpt><trkpt lat="42.3923252" lon="11.1706467"><ele>481.0</ele><time>2026-05-02T11:35:30.525Z</time></trkpt><trkpt lat="42.3924231" lon="11.1706327"><ele>479.20000000000005</ele><time>2026-05-02T11:35:32.525Z</time></trkpt><trkpt lat="42.3925229" lon="11.1706114"><ele>477.40000000000003</ele><time>2026-05-02T11:35:34.525Z</time></trkpt><trkpt lat="42.3926278" lon="11.1706261"><ele>475.6</ele><time>2026-05-02T11:35:36.525Z</time></trkpt><trkpt lat="42.3927421" lon="11.1706245"><ele>473.8</ele><time>2026-05-02T11:35:38.525Z</time></trkpt><trkpt lat="42.3928097" lon="11.1706075"><ele>472.0</ele><time>2026-05-02T11:35:39.524Z</time></trkpt><trkpt lat="42.3928715" lon="11.1705895"><ele>472.0</ele><time>2026-05-02T11:35:40.525Z</time></trkpt><trkpt lat="42.3929893" lon="11.1705612"><ele>472.0</ele><time>2026-05-02T11:35:42.524Z</time></trkpt><trkpt lat="42.3930966" lon="11.1705338"><ele>472.0</ele><time>2026-05-02T11:35:44.524Z</time></trkpt><trkpt lat="42.393202" lon="11.1704957"><ele>472.0</ele><time>2026-05-02T11:35:46.525Z</time></trkpt><trkpt lat="42.3933081" lon="11.170447"><ele>471.6666666666667</ele><time>2026-05-02T11:35:48.525Z</time></trkpt><trkpt lat="42.393371" lon="11.1704125"><ele>471.33333333333337</ele><time>2026-05-02T11:35:49.524Z</time></trkpt><trkpt lat="42.3934326" lon="11.1703706"><ele>471.0</ele><time>2026-05-02T11:35:50.524Z</time></trkpt><trkpt lat="42.3935581" lon="11.1703244"><ele>470.66666666666663</ele><time>2026-05-02T11:35:52.524Z</time></trkpt><trkpt lat="42.3936284" lon="11.1702809"><ele>470.3333333333333</ele><time>2026-05-02T11:35:53.524Z</time></trkpt><trkpt lat="42.3936998" lon="11.1702294"><ele>470.0</ele><time>2026-05-02T11:35:54.525Z</time></trkpt><trkpt lat="42.3937656" lon="11.1701641"><ele>470.0</ele><time>2026-05-02T11:35:55.525Z</time></trkpt><trkpt lat="42.3938369" lon="11.1701289"><ele>469.99999999999994</ele><time>2026-05-02T11:35:56.524Z</time></trkpt><trkpt lat="42.393908" lon="11.1701117"><ele>470.0</ele><time>2026-05-02T11:35:57.524Z</time></trkpt><trkpt lat="42.3939755" lon="11.170108"><ele>470.0</ele><time>2026-05-02T11:35:58.524Z</time></trkpt><trkpt lat="42.3940511" lon="11.1701103"><ele>469.99999999999994</ele><time>2026-05-02T11:35:59.524Z</time></trkpt><trkpt lat="42.3941175" lon="11.1701146"><ele>470.0</ele><time>2026-05-02T11:36:00.524Z</time></trkpt><trkpt lat="42.394192" lon="11.1701118"><ele>470.0</ele><time>2026-05-02T11:36:01.525Z</time></trkpt><trkpt lat="42.3942699" lon="11.1701049"><ele>468.16666666666663</ele><time>2026-05-02T11:36:02.524Z</time></trkpt><trkpt lat="42.3943742" lon="11.1700536"><ele>466.3333333333333</ele><time>2026-05-02T11:36:04.524Z</time></trkpt><trkpt lat="42.3944386" lon="11.1700357"><ele>464.5</ele><time>2026-05-02T11:36:05.524Z</time></trkpt><trkpt lat="42.3945" lon="11.1700065"><ele>462.66666666666663</ele><time>2026-05-02T11:36:06.526Z</time></trkpt><trkpt lat="42.3945627" lon="11.1699689"><ele>460.8333333333333</ele><time>2026-05-02T11:36:07.524Z</time></trkpt><trkpt lat="42.3946283" lon="11.1699665"><ele>459.0</ele><time>2026-05-02T11:36:08.525Z</time></trkpt><trkpt lat="42.3947287" lon="11.169954"><ele>457.6</ele><time>2026-05-02T11:36:10.526Z</time></trkpt><trkpt lat="42.3948118" lon="11.1699894"><ele>456.2</ele><time>2026-05-02T11:36:12.525Z</time></trkpt><trkpt lat="42.3948744" lon="11.1700012"><ele>454.80000000000007</ele><time>2026-05-02T11:36:13.525Z</time></trkpt><trkpt lat="42.3949937" lon="11.170038"><ele>453.40000000000003</ele><time>2026-05-02T11:36:15.524Z</time></trkpt><trkpt lat="42.3951045" lon="11.1700734"><ele>452.0</ele><time>2026-05-02T11:36:17.525Z</time></trkpt><trkpt lat="42.3952194" lon="11.1701114"><ele>452.0</ele><time>2026-05-02T11:36:19.526Z</time></trkpt><trkpt lat="42.3953179" lon="11.1701313"><ele>452.00000000000006</ele><time>2026-05-02T11:36:21.524Z</time></trkpt><trkpt lat="42.3953799" lon="11.1701505"><ele>452.00000000000006</ele><time>2026-05-02T11:36:22.524Z</time></trkpt><trkpt lat="42.3954923" lon="11.1701682"><ele>452.0</ele><time>2026-05-02T11:36:24.525Z</time></trkpt><trkpt lat="42.3955629" lon="11.1701848"><ele>452.0</ele><time>2026-05-02T11:36:25.525Z</time></trkpt><trkpt lat="42.3956578" lon="11.1702362"><ele>451.14285714285717</ele><time>2026-05-02T11:36:27.524Z</time></trkpt><trkpt lat="42.3957238" lon="11.1702591"><ele>450.2857142857143</ele><time>2026-05-02T11:36:28.525Z</time></trkpt><trkpt lat="42.3957862" lon="11.1702708"><ele>449.42857142857144</ele><time>2026-05-02T11:36:29.524Z</time></trkpt><trkpt lat="42.395854" lon="11.1702792"><ele>448.57142857142856</ele><time>2026-05-02T11:36:30.525Z</time></trkpt><trkpt lat="42.3959165" lon="11.1702919"><ele>447.71428571428567</ele><time>2026-05-02T11:36:31.524Z</time></trkpt><trkpt lat="42.3960054" lon="11.170268"><ele>446.85714285714283</ele><time>2026-05-02T11:36:33.525Z</time></trkpt><trkpt lat="42.396093" lon="11.1702535"><ele>446.0</ele><time>2026-05-02T11:36:35.525Z</time></trkpt><trkpt lat="42.3961622" lon="11.1702476"><ele>446.0</ele><time>2026-05-02T11:36:37.524Z</time></trkpt><trkpt lat="42.3962252" lon="11.1702143"><ele>446.0</ele><time>2026-05-02T11:36:39.525Z</time></trkpt><trkpt lat="42.3962686" lon="11.170145"><ele>446.0</ele><time>2026-05-02T11:36:41.525Z</time></trkpt><trkpt lat="42.3962964" lon="11.1700544"><ele>446.0</ele><time>2026-05-02T11:36:43.524Z</time></trkpt><trkpt lat="42.3963672" lon="11.169997"><ele>446.0</ele><time>2026-05-02T11:36:45.524Z</time></trkpt><trkpt lat="42.3964473" lon="11.1699764"><ele>446.0</ele><time>2026-05-02T11:36:48.525Z</time></trkpt><trkpt lat="42.3965042" lon="11.1699381"><ele>446.0</ele><time>2026-05-02T11:36:59.524Z</time></trkpt><trkpt lat="42.3965177" lon="11.1698314"><ele>443.57142857142856</ele><time>2026-05-02T11:37:02.524Z</time></trkpt><trkpt lat="42.3965857" lon="11.1697918"><ele>441.1428571428571</ele><time>2026-05-02T11:37:06.524Z</time></trkpt><trkpt lat="42.3965955" lon="11.1698865"><ele>438.7142857142857</ele><time>2026-05-02T11:37:08.524Z</time></trkpt><trkpt lat="42.3966012" lon="11.1699873"><ele>436.2857142857143</ele><time>2026-05-02T11:37:10.524Z</time></trkpt><trkpt lat="42.3966131" lon="11.1700725"><ele>433.8571428571429</ele><time>2026-05-02T11:38:21.524Z</time></trkpt><trkpt lat="42.3966552" lon="11.1701659"><ele>431.42857142857144</ele><time>2026-05-02T11:38:24.523Z</time></trkpt><trkpt lat="42.3966581" lon="11.1702705"><ele>429.0</ele><time>2026-05-02T11:38:26.523Z</time></trkpt><trkpt lat="42.3966862" lon="11.1703694"><ele>428.5</ele><time>2026-05-02T11:38:28.523Z</time></trkpt><trkpt lat="42.3967342" lon="11.1704577"><ele>428.0</ele><time>2026-05-02T11:38:30.524Z</time></trkpt><trkpt lat="42.3967856" lon="11.1705348"><ele>427.5</ele><time>2026-05-02T11:38:32.524Z</time></trkpt><trkpt lat="42.3968737" lon="11.170551"><ele>427.0</ele><time>2026-05-02T11:38:34.523Z</time></trkpt><trkpt lat="42.3969416" lon="11.1705407"><ele>426.5</ele><time>2026-05-02T11:38:36.523Z</time></trkpt><trkpt lat="42.397047" lon="11.1705272"><ele>426.0</ele><time>2026-05-02T11:38:38.524Z</time></trkpt><trkpt lat="42.3971604" lon="11.1704957"><ele>422.5</ele><time>2026-05-02T11:38:40.524Z</time></trkpt><trkpt lat="42.3972297" lon="11.1704693"><ele>419.0</ele><time>2026-05-02T11:38:41.524Z</time></trkpt><trkpt lat="42.3973157" lon="11.1703897"><ele>415.5</ele><time>2026-05-02T11:38:43.524Z</time></trkpt><trkpt lat="42.3973816" lon="11.1703357"><ele>412.0</ele><time>2026-05-02T11:38:45.524Z</time></trkpt><trkpt lat="42.3974401" lon="11.170274"><ele>408.5</ele><time>2026-05-02T11:38:46.525Z</time></trkpt><trkpt lat="42.3975124" lon="11.1702293"><ele>405.0</ele><time>2026-05-02T11:38:47.523Z</time></trkpt><trkpt lat="42.3975763" lon="11.1701731"><ele>405.0</ele><time>2026-05-02T11:38:48.524Z</time></trkpt><trkpt lat="42.3976746" lon="11.1701408"><ele>405.0</ele><time>2026-05-02T11:38:49.524Z</time></trkpt><trkpt lat="42.3977163" lon="11.1700338"><ele>405.0</ele><time>2026-05-02T11:38:51.524Z</time></trkpt><trkpt lat="42.3977388" lon="11.1699163"><ele>405.0</ele><time>2026-05-02T11:38:53.524Z</time></trkpt><trkpt lat="42.3977686" lon="11.1697902"><ele>405.0</ele><time>2026-05-02T11:38:55.523Z</time></trkpt><trkpt lat="42.3978494" lon="11.1697117"><ele>406.1666666666667</ele><time>2026-05-02T11:38:57.525Z</time></trkpt><trkpt lat="42.3979142" lon="11.1696159"><ele>407.33333333333337</ele><time>2026-05-02T11:38:59.525Z</time></trkpt><trkpt lat="42.3979352" lon="11.1695345"><ele>408.5</ele><time>2026-05-02T11:39:00.525Z</time></trkpt><trkpt lat="42.3979533" lon="11.1694377"><ele>409.6666666666667</ele><time>2026-05-02T11:39:01.525Z</time></trkpt><trkpt lat="42.3979713" lon="11.1693413"><ele>410.83333333333337</ele><time>2026-05-02T11:39:02.523Z</time></trkpt><trkpt lat="42.3979939" lon="11.1691827"><ele>412.0</ele><time>2026-05-02T11:39:04.524Z</time></trkpt><trkpt lat="42.398042" lon="11.1690672"><ele>413.6</ele><time>2026-05-02T11:39:06.524Z</time></trkpt><trkpt lat="42.398106" lon="11.1689849"><ele>415.20000000000005</ele><time>2026-05-02T11:39:08.524Z</time></trkpt><trkpt lat="42.3982153" lon="11.1690119"><ele>416.8</ele><time>2026-05-02T11:39:10.524Z</time></trkpt><trkpt lat="42.3983247" lon="11.1690361"><ele>418.4</ele><time>2026-05-02T11:39:12.523Z</time></trkpt><trkpt lat="42.3984334" lon="11.1690667"><ele>420.0</ele><time>2026-05-02T11:39:14.524Z</time></trkpt><trkpt lat="42.3985343" lon="11.1691296"><ele>415.6</ele><time>2026-05-02T11:39:16.524Z</time></trkpt><trkpt lat="42.398611" lon="11.1692487"><ele>411.2</ele><time>2026-05-02T11:39:18.523Z</time></trkpt><trkpt lat="42.3986932" lon="11.1693445"><ele>406.79999999999995</ele><time>2026-05-02T11:39:20.524Z</time></trkpt><trkpt lat="42.3987525" lon="11.1693899"><ele>402.4</ele><time>2026-05-02T11:39:21.525Z</time></trkpt><trkpt lat="42.3988469" lon="11.1694238"><ele>398.0</ele><time>2026-05-02T11:39:23.524Z</time></trkpt><trkpt lat="42.3989323" lon="11.1694344"><ele>396.4</ele><time>2026-05-02T11:39:25.524Z</time></trkpt><trkpt lat="42.399026" lon="11.1694222"><ele>394.79999999999995</ele><time>2026-05-02T11:39:27.525Z</time></trkpt><trkpt lat="42.3991086" lon="11.1693474"><ele>393.2</ele><time>2026-05-02T11:39:29.523Z</time></trkpt><trkpt lat="42.3991948" lon="11.1692618"><ele>391.6</ele><time>2026-05-02T11:39:31.524Z</time></trkpt><trkpt lat="42.3992932" lon="11.1692163"><ele>390.0</ele><time>2026-05-02T11:39:33.524Z</time></trkpt><trkpt lat="42.3993895" lon="11.1692589"><ele>390.0</ele><time>2026-05-02T11:39:35.523Z</time></trkpt><trkpt lat="42.3994381" lon="11.1693274"><ele>390.0</ele><time>2026-05-02T11:39:36.524Z</time></trkpt><trkpt lat="42.3995067" lon="11.1694284"><ele>390.0</ele><time>2026-05-02T11:39:38.523Z</time></trkpt><trkpt lat="42.3996036" lon="11.1694761"><ele>390.0</ele><time>2026-05-02T11:39:40.524Z</time></trkpt><trkpt lat="42.3996698" lon="11.1694822"><ele>390.0</ele><time>2026-05-02T11:39:41.524Z</time></trkpt><trkpt lat="42.3997385" lon="11.1694897"><ele>390.0</ele><time>2026-05-02T11:39:42.523Z</time></trkpt><trkpt lat="42.3998531" lon="11.1695068"><ele>391.2</ele><time>2026-05-02T11:39:44.524Z</time></trkpt><trkpt lat="42.3999672" lon="11.169509"><ele>392.4</ele><time>2026-05-02T11:39:46.524Z</time></trkpt><trkpt lat="42.4000754" lon="11.1695134"><ele>393.6</ele><time>2026-05-02T11:39:48.523Z</time></trkpt><trkpt lat="42.4001818" lon="11.1695215"><ele>394.8</ele><time>2026-05-02T11:39:50.523Z</time></trkpt><trkpt lat="42.4002918" lon="11.1695209"><ele>396.0</ele><time>2026-05-02T11:39:52.523Z</time></trkpt><trkpt lat="42.4004068" lon="11.1695435"><ele>397.0</ele><time>2026-05-02T11:39:54.524Z</time></trkpt><trkpt lat="42.4005212" lon="11.1695474"><ele>398.0</ele><time>2026-05-02T11:39:56.524Z</time></trkpt><trkpt lat="42.4006402" lon="11.1695364"><ele>399.0</ele><time>2026-05-02T11:39:58.524Z</time></trkpt><trkpt lat="42.4007542" lon="11.1694966"><ele>400.0</ele><time>2026-05-02T11:40:00.525Z</time></trkpt><trkpt lat="42.4008641" lon="11.169487"><ele>400.0</ele><time>2026-05-02T11:40:02.525Z</time></trkpt><trkpt lat="42.4009778" lon="11.1695483"><ele>400.0</ele><time>2026-05-02T11:40:04.524Z</time></trkpt><trkpt lat="42.4010833" lon="11.1696505"><ele>400.0</ele><time>2026-05-02T11:40:06.523Z</time></trkpt><trkpt lat="42.4011689" lon="11.1697632"><ele>400.0</ele><time>2026-05-02T11:40:08.524Z</time></trkpt><trkpt lat="42.4012206" lon="11.1699002"><ele>398.8</ele><time>2026-05-02T11:40:10.524Z</time></trkpt><trkpt lat="42.4012813" lon="11.1700155"><ele>397.6</ele><time>2026-05-02T11:40:12.524Z</time></trkpt><trkpt lat="42.4013536" lon="11.1701052"><ele>396.4</ele><time>2026-05-02T11:40:14.523Z</time></trkpt><trkpt lat="42.4014125" lon="11.1701617"><ele>395.2</ele><time>2026-05-02T11:40:16.525Z</time></trkpt><trkpt lat="42.4014994" lon="11.1702235"><ele>394.0</ele><time>2026-05-02T11:40:19.524Z</time></trkpt><trkpt lat="42.4015895" lon="11.1702576"><ele>394.0</ele><time>2026-05-02T11:40:21.522Z</time></trkpt><trkpt lat="42.4016937" lon="11.1703104"><ele>394.0</ele><time>2026-05-02T11:40:23.523Z</time></trkpt><trkpt lat="42.4018022" lon="11.1703751"><ele>394.0</ele><time>2026-05-02T11:40:25.524Z</time></trkpt><trkpt lat="42.4019139" lon="11.1704217"><ele>394.0</ele><time>2026-05-02T11:40:27.522Z</time></trkpt><trkpt lat="42.402032" lon="11.170432"><ele>394.00000000000006</ele><time>2026-05-02T11:40:29.524Z</time></trkpt><trkpt lat="42.4020955" lon="11.1704478"><ele>394.0</ele><time>2026-05-02T11:40:30.522Z</time></trkpt><trkpt lat="42.4022128" lon="11.1704841"><ele>394.0</ele><time>2026-05-02T11:40:32.523Z</time></trkpt><trkpt lat="42.4022755" lon="11.1705095"><ele>394.0</ele><time>2026-05-02T11:40:33.524Z</time></trkpt><trkpt lat="42.4023423" lon="11.1705334"><ele>394.00000000000006</ele><time>2026-05-02T11:40:34.523Z</time></trkpt><trkpt lat="42.4024581" lon="11.1705565"><ele>394.0</ele><time>2026-05-02T11:40:36.522Z</time></trkpt><trkpt lat="42.4025759" lon="11.1705158"><ele>393.33333333333337</ele><time>2026-05-02T11:40:38.522Z</time></trkpt><trkpt lat="42.402674" lon="11.1704179"><ele>392.6666666666667</ele><time>2026-05-02T11:40:40.523Z</time></trkpt><trkpt lat="42.4027148" lon="11.1703462"><ele>392.0</ele><time>2026-05-02T11:40:41.523Z</time></trkpt><trkpt lat="42.4027538" lon="11.1702634"><ele>391.33333333333337</ele><time>2026-05-02T11:40:42.523Z</time></trkpt><trkpt lat="42.402794" lon="11.1701806"><ele>390.6666666666667</ele><time>2026-05-02T11:40:43.524Z</time></trkpt><trkpt lat="42.4028352" lon="11.1700966"><ele>390.0</ele><time>2026-05-02T11:40:44.522Z</time></trkpt><trkpt lat="42.4028695" lon="11.1700251"><ele>390.0</ele><time>2026-05-02T11:40:45.523Z</time></trkpt><trkpt lat="42.4029159" lon="11.1699242"><ele>390.0</ele><time>2026-05-02T11:40:47.524Z</time></trkpt><trkpt lat="42.4029598" lon="11.1697762"><ele>390.0</ele><time>2026-05-02T11:41:02.523Z</time></trkpt><trkpt lat="42.4029747" lon="11.1696836"><ele>390.0</ele><time>2026-05-02T11:41:03.523Z</time></trkpt><trkpt lat="42.4029792" lon="11.1695799"><ele>390.0</ele><time>2026-05-02T11:41:04.523Z</time></trkpt><trkpt lat="42.4029741" lon="11.1694686"><ele>390.0</ele><time>2026-05-02T11:41:05.523Z</time></trkpt><trkpt lat="42.4029619" lon="11.1693693"><ele>390.5</ele><time>2026-05-02T11:41:06.523Z</time></trkpt><trkpt lat="42.4029507" lon="11.1692702"><ele>391.0</ele><time>2026-05-02T11:41:07.522Z</time></trkpt><trkpt lat="42.402939" lon="11.1691693"><ele>391.5</ele><time>2026-05-02T11:41:08.523Z</time></trkpt><trkpt lat="42.4029281" lon="11.1690668"><ele>392.0</ele><time>2026-05-02T11:41:09.524Z</time></trkpt><trkpt lat="42.4029117" lon="11.1689592"><ele>392.5</ele><time>2026-05-02T11:41:10.523Z</time></trkpt><trkpt lat="42.4028918" lon="11.1688534"><ele>393.0</ele><time>2026-05-02T11:41:11.523Z</time></trkpt><trkpt lat="42.4028775" lon="11.1687556"><ele>393.8333333333333</ele><time>2026-05-02T11:41:12.523Z</time></trkpt><trkpt lat="42.402873" lon="11.1686608"><ele>394.66666666666663</ele><time>2026-05-02T11:41:13.522Z</time></trkpt><trkpt lat="42.4028825" lon="11.1685754"><ele>395.5</ele><time>2026-05-02T11:41:14.523Z</time></trkpt><trkpt lat="42.4029401" lon="11.1684405"><ele>396.3333333333333</ele><time>2026-05-02T11:41:16.523Z</time></trkpt><trkpt lat="42.4029893" lon="11.1683811"><ele>397.16666666666663</ele><time>2026-05-02T11:41:17.523Z</time></trkpt><trkpt lat="42.4030505" lon="11.1683206"><ele>398.0</ele><time>2026-05-02T11:41:18.523Z</time></trkpt><trkpt lat="42.4031288" lon="11.1682569"><ele>398.3333333333333</ele><time>2026-05-02T11:41:19.523Z</time></trkpt><trkpt lat="42.4032004" lon="11.1681925"><ele>398.66666666666663</ele><time>2026-05-02T11:41:20.522Z</time></trkpt><trkpt lat="42.4032721" lon="11.1681216"><ele>399.0</ele><time>2026-05-02T11:41:21.522Z</time></trkpt><trkpt lat="42.4033412" lon="11.168057"><ele>399.33333333333337</ele><time>2026-05-02T11:41:22.522Z</time></trkpt><trkpt lat="42.4034076" lon="11.1679962"><ele>399.6666666666667</ele><time>2026-05-02T11:41:23.524Z</time></trkpt><trkpt lat="42.4034697" lon="11.1679398"><ele>400.0</ele><time>2026-05-02T11:41:24.522Z</time></trkpt><trkpt lat="42.4035344" lon="11.1678937"><ele>400.00000000000006</ele><time>2026-05-02T11:41:25.523Z</time></trkpt><trkpt lat="42.4035982" lon="11.1678613"><ele>400.0</ele><time>2026-05-02T11:41:26.523Z</time></trkpt><trkpt lat="42.4036683" lon="11.1678565"><ele>400.0</ele><time>2026-05-02T11:41:27.523Z</time></trkpt><trkpt lat="42.4037345" lon="11.1678662"><ele>400.0</ele><time>2026-05-02T11:41:28.523Z</time></trkpt><trkpt lat="42.4038089" lon="11.1678932"><ele>400.0</ele><time>2026-05-02T11:41:29.524Z</time></trkpt><trkpt lat="42.4038852" lon="11.1679295"><ele>400.00000000000006</ele><time>2026-05-02T11:41:30.523Z</time></trkpt><trkpt lat="42.4039575" lon="11.1679657"><ele>400.0</ele><time>2026-05-02T11:41:31.523Z</time></trkpt><trkpt lat="42.4040273" lon="11.1679975"><ele>400.00000000000006</ele><time>2026-05-02T11:41:32.522Z</time></trkpt><trkpt lat="42.4040996" lon="11.1680254"><ele>400.0</ele><time>2026-05-02T11:41:33.523Z</time></trkpt><trkpt lat="42.4041767" lon="11.1680439"><ele>400.0</ele><time>2026-05-02T11:41:34.524Z</time></trkpt><trkpt lat="42.4042608" lon="11.1680566"><ele>400.0</ele><time>2026-05-02T11:41:35.522Z</time></trkpt><trkpt lat="42.4043475" lon="11.1680658"><ele>400.00000000000006</ele><time>2026-05-02T11:41:36.522Z</time></trkpt><trkpt lat="42.4044314" lon="11.1680679"><ele>400.0</ele><time>2026-05-02T11:41:37.522Z</time></trkpt><trkpt lat="42.4045094" lon="11.1680589"><ele>400.00000000000006</ele><time>2026-05-02T11:41:38.522Z</time></trkpt><trkpt lat="42.4045861" lon="11.1680389"><ele>400.0</ele><time>2026-05-02T11:41:39.522Z</time></trkpt><trkpt lat="42.4046491" lon="11.168012"><ele>400.0</ele><time>2026-05-02T11:41:40.523Z</time></trkpt><trkpt lat="42.4047418" lon="11.1679246"><ele>400.0</ele><time>2026-05-02T11:41:42.524Z</time></trkpt><trkpt lat="42.4047964" lon="11.167774"><ele>400.00000000000006</ele><time>2026-05-02T11:41:44.523Z</time></trkpt><trkpt lat="42.4048097" lon="11.1676892"><ele>400.0</ele><time>2026-05-02T11:41:45.523Z</time></trkpt><trkpt lat="42.4048081" lon="11.1675903"><ele>397.8</ele><time>2026-05-02T11:41:46.522Z</time></trkpt><trkpt lat="42.4048101" lon="11.1674784"><ele>395.6</ele><time>2026-05-02T11:41:47.523Z</time></trkpt><trkpt lat="42.4048044" lon="11.1673432"><ele>393.4</ele><time>2026-05-02T11:41:48.522Z</time></trkpt><trkpt lat="42.404811" lon="11.1672103"><ele>391.2</ele><time>2026-05-02T11:41:49.523Z</time></trkpt><trkpt lat="42.4048305" lon="11.1670771"><ele>389.0</ele><time>2026-05-02T11:41:50.523Z</time></trkpt><trkpt lat="42.4048636" lon="11.1669306"><ele>389.0</ele><time>2026-05-02T11:41:51.523Z</time></trkpt><trkpt lat="42.4048944" lon="11.1668111"><ele>389.0</ele><time>2026-05-02T11:41:52.523Z</time></trkpt><trkpt lat="42.4049132" lon="11.1667"><ele>389.0</ele><time>2026-05-02T11:41:53.524Z</time></trkpt><trkpt lat="42.4049238" lon="11.1665615"><ele>389.0</ele><time>2026-05-02T11:41:54.522Z</time></trkpt><trkpt lat="42.4049292" lon="11.1663889"><ele>389.0</ele><time>2026-05-02T11:41:55.522Z</time></trkpt><trkpt lat="42.4049316" lon="11.1662099"><ele>390.5</ele><time>2026-05-02T11:41:56.522Z</time></trkpt><trkpt lat="42.404931" lon="11.1660401"><ele>392.0</ele><time>2026-05-02T11:41:57.523Z</time></trkpt><trkpt lat="42.4049297" lon="11.1658894"><ele>393.5</ele><time>2026-05-02T11:41:58.523Z</time></trkpt><trkpt lat="42.4049179" lon="11.1657331"><ele>395.0</ele><time>2026-05-02T11:41:59.523Z</time></trkpt><trkpt lat="42.4049103" lon="11.1655893"><ele>395.66666666666663</ele><time>2026-05-02T11:42:00.522Z</time></trkpt><trkpt lat="42.4049024" lon="11.1654581"><ele>396.3333333333333</ele><time>2026-05-02T11:42:01.523Z</time></trkpt><trkpt lat="42.4049093" lon="11.1653412"><ele>397.0</ele><time>2026-05-02T11:42:02.523Z</time></trkpt><trkpt lat="42.4049196" lon="11.1652301"><ele>397.66666666666663</ele><time>2026-05-02T11:42:03.522Z</time></trkpt><trkpt lat="42.4049533" lon="11.1651238"><ele>398.3333333333333</ele><time>2026-05-02T11:42:04.523Z</time></trkpt><trkpt lat="42.4050011" lon="11.1650169"><ele>399.0</ele><time>2026-05-02T11:42:05.523Z</time></trkpt><trkpt lat="42.4050529" lon="11.1649062"><ele>401.0</ele><time>2026-05-02T11:42:06.522Z</time></trkpt><trkpt lat="42.4051122" lon="11.1648214"><ele>403.0</ele><time>2026-05-02T11:42:07.522Z</time></trkpt><trkpt lat="42.4051703" lon="11.1647111"><ele>405.0</ele><time>2026-05-02T11:42:08.523Z</time></trkpt><trkpt lat="42.4052176" lon="11.1646012"><ele>407.0</ele><time>2026-05-02T11:42:09.524Z</time></trkpt><trkpt lat="42.4052559" lon="11.1644993"><ele>409.0</ele><time>2026-05-02T11:42:10.523Z</time></trkpt><trkpt lat="42.4052858" lon="11.164409"><ele>411.0</ele><time>2026-05-02T11:42:11.524Z</time></trkpt><trkpt lat="42.4053653" lon="11.1643082"><ele>411.0</ele><time>2026-05-02T11:42:13.522Z</time></trkpt><trkpt lat="42.4054709" lon="11.164284"><ele>411.0</ele><time>2026-05-02T11:42:15.523Z</time></trkpt><trkpt lat="42.4055789" lon="11.1643662"><ele>411.0</ele><time>2026-05-02T11:42:17.523Z</time></trkpt><trkpt lat="42.4056469" lon="11.1644233"><ele>411.0</ele><time>2026-05-02T11:42:18.523Z</time></trkpt><trkpt lat="42.4057244" lon="11.1644845"><ele>411.0</ele><time>2026-05-02T11:42:19.523Z</time></trkpt><trkpt lat="42.4058091" lon="11.1645369"><ele>408.8333333333333</ele><time>2026-05-02T11:42:20.522Z</time></trkpt><trkpt lat="42.4058906" lon="11.1645802"><ele>406.66666666666663</ele><time>2026-05-02T11:42:21.523Z</time></trkpt><trkpt lat="42.405969" lon="11.1646173"><ele>404.5</ele><time>2026-05-02T11:42:22.523Z</time></trkpt><trkpt lat="42.4060492" lon="11.1646589"><ele>402.3333333333333</ele><time>2026-05-02T11:42:23.523Z</time></trkpt><trkpt lat="42.4061266" lon="11.164703"><ele>400.16666666666663</ele><time>2026-05-02T11:42:24.522Z</time></trkpt><trkpt lat="42.4061966" lon="11.1647482"><ele>398.0</ele><time>2026-05-02T11:42:25.523Z</time></trkpt><trkpt lat="42.4062638" lon="11.1647819"><ele>396.99999999999994</ele><time>2026-05-02T11:42:26.522Z</time></trkpt><trkpt lat="42.4063772" lon="11.1648332"><ele>396.0</ele><time>2026-05-02T11:42:28.522Z</time></trkpt><trkpt lat="42.4064442" lon="11.1648634"><ele>395.0</ele><time>2026-05-02T11:42:29.523Z</time></trkpt><trkpt lat="42.4065283" lon="11.1648651"><ele>394.0</ele><time>2026-05-02T11:42:30.523Z</time></trkpt><trkpt lat="42.4066276" lon="11.1648543"><ele>392.99999999999994</ele><time>2026-05-02T11:42:31.523Z</time></trkpt><trkpt lat="42.4066986" lon="11.164847"><ele>392.0</ele><time>2026-05-02T11:42:32.523Z</time></trkpt><trkpt lat="42.4067762" lon="11.1648743"><ele>388.99999999999994</ele><time>2026-05-02T11:42:33.523Z</time></trkpt><trkpt lat="42.4068436" lon="11.1648889"><ele>386.0</ele><time>2026-05-02T11:42:34.523Z</time></trkpt><trkpt lat="42.4069209" lon="11.1649135"><ele>383.0</ele><time>2026-05-02T11:42:35.522Z</time></trkpt><trkpt lat="42.4069837" lon="11.1649431"><ele>380.0</ele><time>2026-05-02T11:42:36.523Z</time></trkpt><trkpt lat="42.4070505" lon="11.1649673"><ele>377.0</ele><time>2026-05-02T11:42:37.522Z</time></trkpt><trkpt lat="42.4071657" lon="11.1649806"><ele>374.0</ele><time>2026-05-02T11:42:39.523Z</time></trkpt><trkpt lat="42.4072302" lon="11.1649804"><ele>372.0</ele><time>2026-05-02T11:42:40.523Z</time></trkpt><trkpt lat="42.4072979" lon="11.1649802"><ele>370.0</ele><time>2026-05-02T11:42:41.522Z</time></trkpt><trkpt lat="42.4073697" lon="11.1649703"><ele>368.0</ele><time>2026-05-02T11:42:42.523Z</time></trkpt><trkpt lat="42.4074352" lon="11.1649696"><ele>366.0</ele><time>2026-05-02T11:42:43.524Z</time></trkpt><trkpt lat="42.4075602" lon="11.1649813"><ele>364.0</ele><time>2026-05-02T11:42:45.523Z</time></trkpt><trkpt lat="42.4076667" lon="11.1649797"><ele>362.0</ele><time>2026-05-02T11:42:47.524Z</time></trkpt><trkpt lat="42.4077711" lon="11.1649408"><ele>361.0</ele><time>2026-05-02T11:42:49.523Z</time></trkpt><trkpt lat="42.407869" lon="11.164856"><ele>360.0</ele><time>2026-05-02T11:42:51.522Z</time></trkpt><trkpt lat="42.4079595" lon="11.1647474"><ele>359.0</ele><time>2026-05-02T11:42:53.523Z</time></trkpt><trkpt lat="42.4080613" lon="11.1646536"><ele>358.0</ele><time>2026-05-02T11:42:55.523Z</time></trkpt><trkpt lat="42.4081726" lon="11.1645724"><ele>358.0</ele><time>2026-05-02T11:42:57.522Z</time></trkpt><trkpt lat="42.4082767" lon="11.1644901"><ele>358.0</ele><time>2026-05-02T11:42:59.522Z</time></trkpt><trkpt lat="42.4083709" lon="11.1643885"><ele>358.0</ele><time>2026-05-02T11:43:01.523Z</time></trkpt><trkpt lat="42.4084572" lon="11.1643058"><ele>358.0</ele><time>2026-05-02T11:43:03.524Z</time></trkpt><trkpt lat="42.4085284" lon="11.1642362"><ele>358.0</ele><time>2026-05-02T11:43:05.523Z</time></trkpt><trkpt lat="42.4085813" lon="11.1641806"><ele>358.0</ele><time>2026-05-02T11:43:07.524Z</time></trkpt><trkpt lat="42.4086408" lon="11.1641058"><ele>358.0</ele><time>2026-05-02T11:43:10.523Z</time></trkpt><trkpt lat="42.4086879" lon="11.164048"><ele>358.0</ele><time>2026-05-02T11:43:12.523Z</time></trkpt><trkpt lat="42.4087492" lon="11.1639501"><ele>358.0</ele><time>2026-05-02T11:43:14.522Z</time></trkpt><trkpt lat="42.4088121" lon="11.1638413"><ele>358.0</ele><time>2026-05-02T11:43:16.522Z</time></trkpt><trkpt lat="42.4088635" lon="11.1637171"><ele>358.0</ele><time>2026-05-02T11:43:18.522Z</time></trkpt><trkpt lat="42.4089242" lon="11.1635902"><ele>354.59999999999997</ele><time>2026-05-02T11:43:20.522Z</time></trkpt><trkpt lat="42.408964" lon="11.1634438"><ele>351.2</ele><time>2026-05-02T11:43:22.523Z</time></trkpt><trkpt lat="42.4089942" lon="11.1632969"><ele>347.8</ele><time>2026-05-02T11:43:24.523Z</time></trkpt><trkpt lat="42.4090154" lon="11.1631452"><ele>344.4</ele><time>2026-05-02T11:43:26.522Z</time></trkpt><trkpt lat="42.409025" lon="11.1630601"><ele>341.0</ele><time>2026-05-02T11:43:27.523Z</time></trkpt><trkpt lat="42.409033" lon="11.162974"><ele>340.6666666666667</ele><time>2026-05-02T11:43:28.522Z</time></trkpt><trkpt lat="42.4090457" lon="11.1628058"><ele>340.33333333333337</ele><time>2026-05-02T11:43:30.522Z</time></trkpt><trkpt lat="42.4090461" lon="11.1627205"><ele>340.0</ele><time>2026-05-02T11:43:31.522Z</time></trkpt><trkpt lat="42.4090446" lon="11.1626307"><ele>339.6666666666667</ele><time>2026-05-02T11:43:32.522Z</time></trkpt><trkpt lat="42.4090445" lon="11.1625423"><ele>339.3333333333333</ele><time>2026-05-02T11:43:33.524Z</time></trkpt><trkpt lat="42.4090454" lon="11.1624556"><ele>339.0</ele><time>2026-05-02T11:43:34.523Z</time></trkpt><trkpt lat="42.4090434" lon="11.1622896"><ele>340.5</ele><time>2026-05-02T11:43:36.524Z</time></trkpt><trkpt lat="42.4090494" lon="11.162129"><ele>342.0</ele><time>2026-05-02T11:43:38.523Z</time></trkpt><trkpt lat="42.4090644" lon="11.1619683"><ele>343.5</ele><time>2026-05-02T11:43:40.523Z</time></trkpt><trkpt lat="42.4090971" lon="11.1618139"><ele>345.0</ele><time>2026-05-02T11:43:42.524Z</time></trkpt><trkpt lat="42.409173" lon="11.1617033"><ele>345.0</ele><time>2026-05-02T11:43:44.523Z</time></trkpt><trkpt lat="42.4092584" lon="11.1616474"><ele>345.0</ele><time>2026-05-02T11:43:46.521Z</time></trkpt><trkpt lat="42.4093324" lon="11.1616437"><ele>345.0</ele><time>2026-05-02T11:43:47.522Z</time></trkpt><trkpt lat="42.4094304" lon="11.1616459"><ele>345.0</ele><time>2026-05-02T11:43:48.522Z</time></trkpt><trkpt lat="42.4094965" lon="11.1616822"><ele>345.0</ele><time>2026-05-02T11:43:49.522Z</time></trkpt><trkpt lat="42.4095735" lon="11.1616664"><ele>345.0</ele><time>2026-05-02T11:43:50.523Z</time></trkpt><trkpt lat="42.409651" lon="11.1616433"><ele>344.6666666666667</ele><time>2026-05-02T11:43:51.521Z</time></trkpt><trkpt lat="42.4097214" lon="11.1616019"><ele>344.3333333333333</ele><time>2026-05-02T11:43:52.522Z</time></trkpt><trkpt lat="42.4097934" lon="11.1615548"><ele>344.0</ele><time>2026-05-02T11:43:53.522Z</time></trkpt><trkpt lat="42.409867" lon="11.1614996"><ele>343.66666666666663</ele><time>2026-05-02T11:43:54.523Z</time></trkpt><trkpt lat="42.4099462" lon="11.1614348"><ele>343.3333333333333</ele><time>2026-05-02T11:43:55.522Z</time></trkpt><trkpt lat="42.410021" lon="11.1613669"><ele>343.0</ele><time>2026-05-02T11:43:56.522Z</time></trkpt><trkpt lat="42.4100907" lon="11.1612901"><ele>343.0</ele><time>2026-05-02T11:43:57.522Z</time></trkpt><trkpt lat="42.4101548" lon="11.1612109"><ele>343.0</ele><time>2026-05-02T11:43:58.522Z</time></trkpt><trkpt lat="42.41021" lon="11.1611235"><ele>343.0</ele><time>2026-05-02T11:43:59.521Z</time></trkpt><trkpt lat="42.4102616" lon="11.1610343"><ele>343.0</ele><time>2026-05-02T11:44:00.522Z</time></trkpt><trkpt lat="42.410308" lon="11.1609395"><ele>343.0</ele><time>2026-05-02T11:44:01.521Z</time></trkpt><trkpt lat="42.4103498" lon="11.1608403"><ele>343.0</ele><time>2026-05-02T11:44:02.521Z</time></trkpt><trkpt lat="42.4103852" lon="11.1607303"><ele>343.8333333333333</ele><time>2026-05-02T11:44:03.521Z</time></trkpt><trkpt lat="42.4104234" lon="11.1606085"><ele>344.66666666666663</ele><time>2026-05-02T11:44:04.522Z</time></trkpt><trkpt lat="42.4104638" lon="11.1604915"><ele>345.5</ele><time>2026-05-02T11:44:05.522Z</time></trkpt><trkpt lat="42.410502" lon="11.1603798"><ele>346.3333333333333</ele><time>2026-05-02T11:44:06.521Z</time></trkpt><trkpt lat="42.4105476" lon="11.1602908"><ele>347.1666666666667</ele><time>2026-05-02T11:44:07.523Z</time></trkpt><trkpt lat="42.4105859" lon="11.1602172"><ele>348.0</ele><time>2026-05-02T11:44:08.521Z</time></trkpt><trkpt lat="42.4106566" lon="11.1600839"><ele>346.5</ele><time>2026-05-02T11:44:10.522Z</time></trkpt><trkpt lat="42.4107362" lon="11.1599593"><ele>345.0</ele><time>2026-05-02T11:44:12.521Z</time></trkpt><trkpt lat="42.4108207" lon="11.1598343"><ele>343.5</ele><time>2026-05-02T11:44:14.521Z</time></trkpt><trkpt lat="42.4108624" lon="11.1597684"><ele>342.0</ele><time>2026-05-02T11:44:15.521Z</time></trkpt><trkpt lat="42.4109036" lon="11.1596986"><ele>340.5</ele><time>2026-05-02T11:44:16.521Z</time></trkpt><trkpt lat="42.4109477" lon="11.159625"><ele>339.0</ele><time>2026-05-02T11:44:17.522Z</time></trkpt><trkpt lat="42.4109985" lon="11.1595574"><ele>339.0</ele><time>2026-05-02T11:44:18.522Z</time></trkpt><trkpt lat="42.4110558" lon="11.1595003"><ele>339.0</ele><time>2026-05-02T11:44:19.522Z</time></trkpt><trkpt lat="42.4111142" lon="11.1594651"><ele>339.0</ele><time>2026-05-02T11:44:20.521Z</time></trkpt><trkpt lat="42.4111764" lon="11.1594356"><ele>339.0</ele><time>2026-05-02T11:44:21.522Z</time></trkpt><trkpt lat="42.4112518" lon="11.1594117"><ele>339.0</ele><time>2026-05-02T11:44:22.522Z</time></trkpt><trkpt lat="42.4113323" lon="11.1593927"><ele>339.0</ele><time>2026-05-02T11:44:23.523Z</time></trkpt><trkpt lat="42.4114151" lon="11.1593625"><ele>339.0</ele><time>2026-05-02T11:44:24.523Z</time></trkpt><trkpt lat="42.4114975" lon="11.1593387"><ele>338.0</ele><time>2026-05-02T11:44:25.522Z</time></trkpt><trkpt lat="42.4115738" lon="11.1593087"><ele>337.0</ele><time>2026-05-02T11:44:26.521Z</time></trkpt><trkpt lat="42.4116461" lon="11.1592771"><ele>336.0</ele><time>2026-05-02T11:44:27.521Z</time></trkpt><trkpt lat="42.411716" lon="11.1592421"><ele>335.0</ele><time>2026-05-02T11:44:28.522Z</time></trkpt><trkpt lat="42.4117869" lon="11.1592061"><ele>334.0</ele><time>2026-05-02T11:44:29.522Z</time></trkpt><trkpt lat="42.4118544" lon="11.1591738"><ele>333.0</ele><time>2026-05-02T11:44:30.522Z</time></trkpt><trkpt lat="42.4119191" lon="11.159144"><ele>332.0</ele><time>2026-05-02T11:44:31.521Z</time></trkpt><trkpt lat="42.411991" lon="11.1591126"><ele>332.0</ele><time>2026-05-02T11:44:32.522Z</time></trkpt><trkpt lat="42.4120658" lon="11.159087"><ele>332.0</ele><time>2026-05-02T11:44:33.521Z</time></trkpt><trkpt lat="42.4121313" lon="11.1590604"><ele>332.0</ele><time>2026-05-02T11:44:34.523Z</time></trkpt><trkpt lat="42.4121979" lon="11.159042"><ele>332.0</ele><time>2026-05-02T11:44:35.523Z</time></trkpt><trkpt lat="42.4122613" lon="11.1590206"><ele>332.0</ele><time>2026-05-02T11:44:36.521Z</time></trkpt><trkpt lat="42.41237" lon="11.1589836"><ele>332.0</ele><time>2026-05-02T11:44:38.522Z</time></trkpt><trkpt lat="42.4124527" lon="11.1588923"><ele>331.6</ele><time>2026-05-02T11:44:40.522Z</time></trkpt><trkpt lat="42.4125129" lon="11.1587621"><ele>331.20000000000005</ele><time>2026-05-02T11:44:42.522Z</time></trkpt><trkpt lat="42.4125472" lon="11.1586098"><ele>330.8</ele><time>2026-05-02T11:44:44.521Z</time></trkpt><trkpt lat="42.4125658" lon="11.15845"><ele>330.4</ele><time>2026-05-02T11:44:46.521Z</time></trkpt><trkpt lat="42.412573" lon="11.1583594"><ele>330.0</ele><time>2026-05-02T11:44:47.523Z</time></trkpt><trkpt lat="42.4125871" lon="11.1582017"><ele>331.2</ele><time>2026-05-02T11:44:49.521Z</time></trkpt><trkpt lat="42.4126408" lon="11.1580685"><ele>332.4</ele><time>2026-05-02T11:44:51.521Z</time></trkpt><trkpt lat="42.4127353" lon="11.1579674"><ele>333.6</ele><time>2026-05-02T11:44:53.523Z</time></trkpt><trkpt lat="42.4128593" lon="11.1579454"><ele>334.8</ele><time>2026-05-02T11:44:55.521Z</time></trkpt><trkpt lat="42.4129278" lon="11.1579515"><ele>336.0</ele><time>2026-05-02T11:44:56.522Z</time></trkpt><trkpt lat="42.4129914" lon="11.1579637"><ele>334.14285714285717</ele><time>2026-05-02T11:44:57.523Z</time></trkpt><trkpt lat="42.4130622" lon="11.1579855"><ele>332.2857142857143</ele><time>2026-05-02T11:44:58.521Z</time></trkpt><trkpt lat="42.4131268" lon="11.1580054"><ele>330.42857142857144</ele><time>2026-05-02T11:44:59.521Z</time></trkpt><trkpt lat="42.4131931" lon="11.1580134"><ele>328.57142857142856</ele><time>2026-05-02T11:45:00.522Z</time></trkpt><trkpt lat="42.4132673" lon="11.1580151"><ele>326.7142857142857</ele><time>2026-05-02T11:45:01.522Z</time></trkpt><trkpt lat="42.4133429" lon="11.1580015"><ele>324.8571428571429</ele><time>2026-05-02T11:45:02.522Z</time></trkpt><trkpt lat="42.4134133" lon="11.1579851"><ele>323.0</ele><time>2026-05-02T11:45:03.521Z</time></trkpt><trkpt lat="42.4134809" lon="11.1579575"><ele>323.0</ele><time>2026-05-02T11:45:04.521Z</time></trkpt><trkpt lat="42.4135609" lon="11.1579346"><ele>323.0</ele><time>2026-05-02T11:45:05.521Z</time></trkpt><trkpt lat="42.413646" lon="11.1579026"><ele>323.0</ele><time>2026-05-02T11:45:06.521Z</time></trkpt><trkpt lat="42.413729" lon="11.1578721"><ele>323.0</ele><time>2026-05-02T11:45:07.522Z</time></trkpt><trkpt lat="42.4138119" lon="11.1578426"><ele>323.0</ele><time>2026-05-02T11:45:08.521Z</time></trkpt><trkpt lat="42.4138895" lon="11.1578046"><ele>323.0</ele><time>2026-05-02T11:45:09.521Z</time></trkpt><trkpt lat="42.4139644" lon="11.1577629"><ele>321.83333333333337</ele><time>2026-05-02T11:45:10.523Z</time></trkpt><trkpt lat="42.4140404" lon="11.1577009"><ele>320.6666666666667</ele><time>2026-05-02T11:45:11.522Z</time></trkpt><trkpt lat="42.4141126" lon="11.1576422"><ele>319.5</ele><time>2026-05-02T11:45:12.521Z</time></trkpt><trkpt lat="42.4141718" lon="11.1575911"><ele>318.3333333333333</ele><time>2026-05-02T11:45:13.522Z</time></trkpt><trkpt lat="42.4142308" lon="11.1575392"><ele>317.16666666666663</ele><time>2026-05-02T11:45:14.522Z</time></trkpt><trkpt lat="42.4143531" lon="11.1574847"><ele>316.0</ele><time>2026-05-02T11:45:16.521Z</time></trkpt><trkpt lat="42.4144671" lon="11.157473"><ele>316.0</ele><time>2026-05-02T11:45:18.522Z</time></trkpt><trkpt lat="42.4145308" lon="11.1574701"><ele>316.0</ele><time>2026-05-02T11:45:19.521Z</time></trkpt><trkpt lat="42.4146043" lon="11.157483"><ele>316.0</ele><time>2026-05-02T11:45:20.521Z</time></trkpt><trkpt lat="42.4146699" lon="11.157488"><ele>316.0</ele><time>2026-05-02T11:45:21.521Z</time></trkpt><trkpt lat="42.4147406" lon="11.1575021"><ele>316.0</ele><time>2026-05-02T11:45:22.523Z</time></trkpt><trkpt lat="42.4148619" lon="11.1575063"><ele>316.0</ele><time>2026-05-02T11:45:24.521Z</time></trkpt><trkpt lat="42.4149408" lon="11.1574888"><ele>316.0</ele><time>2026-05-02T11:45:26.523Z</time></trkpt><trkpt lat="42.4149738" lon="11.157571"><ele>316.0</ele><time>2026-05-02T11:45:29.521Z</time></trkpt><trkpt lat="42.4148928" lon="11.1576081"><ele>316.0</ele><time>2026-05-02T11:45:32.522Z</time></trkpt><trkpt lat="42.4148157" lon="11.1575901"><ele>316.0</ele><time>2026-05-02T11:45:34.521Z</time></trkpt><trkpt lat="42.4147093" lon="11.1575791"><ele>316.0</ele><time>2026-05-02T11:45:36.523Z</time></trkpt><trkpt lat="42.4145919" lon="11.1575905"><ele>316.0</ele><time>2026-05-02T11:45:38.521Z</time></trkpt><trkpt lat="42.4144812" lon="11.1576119"><ele>316.0</ele><time>2026-05-02T11:45:40.521Z</time></trkpt><trkpt lat="42.4143738" lon="11.1576597"><ele>316.0</ele><time>2026-05-02T11:45:42.521Z</time></trkpt><trkpt lat="42.414271" lon="11.1577377"><ele>316.0</ele><time>2026-05-02T11:45:44.522Z</time></trkpt><trkpt lat="42.4141999" lon="11.1578599"><ele>316.00000000000006</ele><time>2026-05-02T11:45:46.522Z</time></trkpt><trkpt lat="42.4141613" lon="11.1579375"><ele>316.0</ele><time>2026-05-02T11:45:47.521Z</time></trkpt><trkpt lat="42.414118" lon="11.158021"><ele>316.0</ele><time>2026-05-02T11:45:48.521Z</time></trkpt><trkpt lat="42.414083" lon="11.1581046"><ele>316.0</ele><time>2026-05-02T11:45:49.522Z</time></trkpt><trkpt lat="42.4140354" lon="11.1581804"><ele>316.0</ele><time>2026-05-02T11:45:50.522Z</time></trkpt><trkpt lat="42.413997" lon="11.1582583"><ele>316.00000000000006</ele><time>2026-05-02T11:45:51.522Z</time></trkpt><trkpt lat="42.4139588" lon="11.1583385"><ele>316.0</ele><time>2026-05-02T11:45:52.521Z</time></trkpt><trkpt lat="42.4139251" lon="11.1584228"><ele>315.5714285714286</ele><time>2026-05-02T11:45:53.521Z</time></trkpt><trkpt lat="42.4138915" lon="11.1585114"><ele>315.14285714285717</ele><time>2026-05-02T11:45:54.522Z</time></trkpt><trkpt lat="42.413859" lon="11.158603"><ele>314.7142857142857</ele><time>2026-05-02T11:45:55.523Z</time></trkpt><trkpt lat="42.4138249" lon="11.158692"><ele>314.28571428571433</ele><time>2026-05-02T11:45:56.522Z</time></trkpt><trkpt lat="42.4137928" lon="11.1587762"><ele>313.8571428571429</ele><time>2026-05-02T11:45:57.522Z</time></trkpt><trkpt lat="42.4137582" lon="11.1588642"><ele>313.42857142857144</ele><time>2026-05-02T11:45:58.522Z</time></trkpt><trkpt lat="42.4137187" lon="11.1589503"><ele>313.0</ele><time>2026-05-02T11:45:59.522Z</time></trkpt><trkpt lat="42.413685" lon="11.1590376"><ele>311.85714285714283</ele><time>2026-05-02T11:46:00.522Z</time></trkpt><trkpt lat="42.4136508" lon="11.1591111"><ele>310.7142857142857</ele><time>2026-05-02T11:46:01.522Z</time></trkpt><trkpt lat="42.4136477" lon="11.1592071"><ele>309.57142857142856</ele><time>2026-05-02T11:46:02.521Z</time></trkpt><trkpt lat="42.4136473" lon="11.159296"><ele>308.42857142857144</ele><time>2026-05-02T11:46:03.522Z</time></trkpt><trkpt lat="42.4136633" lon="11.1593832"><ele>307.2857142857143</ele><time>2026-05-02T11:46:04.522Z</time></trkpt><trkpt lat="42.4136794" lon="11.1594671"><ele>306.14285714285717</ele><time>2026-05-02T11:46:05.521Z</time></trkpt><trkpt lat="42.4137012" lon="11.1595569"><ele>305.0</ele><time>2026-05-02T11:46:06.521Z</time></trkpt><trkpt lat="42.4137175" lon="11.1596433"><ele>305.0</ele><time>2026-05-02T11:46:07.521Z</time></trkpt><trkpt lat="42.4137352" lon="11.15973"><ele>305.0</ele><time>2026-05-02T11:46:08.522Z</time></trkpt><trkpt lat="42.4137413" lon="11.1598164"><ele>305.0</ele><time>2026-05-02T11:46:09.522Z</time></trkpt><trkpt lat="42.4137369" lon="11.1599026"><ele>305.0</ele><time>2026-05-02T11:46:10.522Z</time></trkpt><trkpt lat="42.4137205" lon="11.15999"><ele>305.0</ele><time>2026-05-02T11:46:11.521Z</time></trkpt><trkpt lat="42.4136908" lon="11.1600705"><ele>305.0</ele><time>2026-05-02T11:46:12.522Z</time></trkpt><trkpt lat="42.4136557" lon="11.1601418"><ele>305.0</ele><time>2026-05-02T11:46:13.521Z</time></trkpt><trkpt lat="42.4136049" lon="11.1602555"><ele>303.14285714285717</ele><time>2026-05-02T11:46:15.522Z</time></trkpt><trkpt lat="42.4135942" lon="11.1603536"><ele>301.2857142857143</ele><time>2026-05-02T11:46:18.521Z</time></trkpt><trkpt lat="42.4136456" lon="11.1604125"><ele>299.42857142857144</ele><time>2026-05-02T11:46:22.522Z</time></trkpt><trkpt lat="42.4137065" lon="11.1603811"><ele>297.57142857142856</ele><time>2026-05-02T11:46:24.523Z</time></trkpt><trkpt lat="42.4137706" lon="11.1603214"><ele>295.7142857142857</ele><time>2026-05-02T11:46:26.522Z</time></trkpt><trkpt lat="42.4138079" lon="11.16024"><ele>293.85714285714283</ele><time>2026-05-02T11:46:28.522Z</time></trkpt><trkpt lat="42.4138452" lon="11.1601362"><ele>292.0</ele><time>2026-05-02T11:46:30.521Z</time></trkpt><trkpt lat="42.41388" lon="11.1600253"><ele>290.8333333333333</ele><time>2026-05-02T11:46:32.522Z</time></trkpt><trkpt lat="42.4138874" lon="11.1599048"><ele>289.66666666666663</ele><time>2026-05-02T11:46:34.522Z</time></trkpt><trkpt lat="42.4138853" lon="11.1597772"><ele>288.5</ele><time>2026-05-02T11:46:36.522Z</time></trkpt><trkpt lat="42.413876" lon="11.1596778"><ele>287.3333333333333</ele><time>2026-05-02T11:46:38.522Z</time></trkpt><trkpt lat="42.4138824" lon="11.1595778"><ele>286.1666666666667</ele><time>2026-05-02T11:46:40.522Z</time></trkpt><trkpt lat="42.4138803" lon="11.1594542"><ele>285.0</ele><time>2026-05-02T11:46:42.521Z</time></trkpt><trkpt lat="42.4139178" lon="11.1593282"><ele>285.0</ele><time>2026-05-02T11:46:44.522Z</time></trkpt><trkpt lat="42.4139887" lon="11.1592228"><ele>285.0</ele><time>2026-05-02T11:46:46.521Z</time></trkpt><trkpt lat="42.4140666" lon="11.15912"><ele>285.0</ele><time>2026-05-02T11:46:48.522Z</time></trkpt><trkpt lat="42.4141352" lon="11.1590239"><ele>285.0</ele><time>2026-05-02T11:46:50.523Z</time></trkpt><trkpt lat="42.4142078" lon="11.1589638"><ele>285.0</ele><time>2026-05-02T11:46:52.522Z</time></trkpt><trkpt lat="42.4142471" lon="11.1588688"><ele>285.6</ele><time>2026-05-02T11:46:55.523Z</time></trkpt><trkpt lat="42.4142893" lon="11.1587518"><ele>286.2</ele><time>2026-05-02T11:47:07.522Z</time></trkpt><trkpt lat="42.4143609" lon="11.1586998"><ele>286.8</ele><time>2026-05-02T11:47:09.522Z</time></trkpt><trkpt lat="42.414475" lon="11.1586636"><ele>287.4</ele><time>2026-05-02T11:47:11.521Z</time></trkpt><trkpt lat="42.4146024" lon="11.1586234"><ele>288.0</ele><time>2026-05-02T11:47:13.521Z</time></trkpt><trkpt lat="42.4146692" lon="11.1586029"><ele>288.0</ele><time>2026-05-02T11:47:14.522Z</time></trkpt><trkpt lat="42.4147581" lon="11.1586194"><ele>288.0</ele><time>2026-05-02T11:47:15.521Z</time></trkpt><trkpt lat="42.4148393" lon="11.1586307"><ele>288.0</ele><time>2026-05-02T11:47:16.521Z</time></trkpt><trkpt lat="42.4149075" lon="11.1586436"><ele>288.0</ele><time>2026-05-02T11:47:17.521Z</time></trkpt><trkpt lat="42.4149763" lon="11.1586613"><ele>288.0</ele><time>2026-05-02T11:47:18.521Z</time></trkpt><trkpt lat="42.4150543" lon="11.1586797"><ele>288.0</ele><time>2026-05-02T11:47:19.522Z</time></trkpt><trkpt lat="42.4151267" lon="11.1586911"><ele>288.0</ele><time>2026-05-02T11:47:20.52Z</time></trkpt><trkpt lat="42.4152056" lon="11.1586983"><ele>288.0</ele><time>2026-05-02T11:47:21.521Z</time></trkpt><trkpt lat="42.4152867" lon="11.1586983"><ele>288.0</ele><time>2026-05-02T11:47:22.521Z</time></trkpt><trkpt lat="42.4153675" lon="11.1587002"><ele>288.0</ele><time>2026-05-02T11:47:23.52Z</time></trkpt><trkpt lat="42.4154484" lon="11.1587034"><ele>288.0</ele><time>2026-05-02T11:47:24.52Z</time></trkpt><trkpt lat="42.4155233" lon="11.1587037"><ele>288.0</ele><time>2026-05-02T11:47:25.521Z</time></trkpt><trkpt lat="42.4155956" lon="11.1587017"><ele>287.5</ele><time>2026-05-02T11:47:26.521Z</time></trkpt><trkpt lat="42.4156689" lon="11.158711"><ele>287.0</ele><time>2026-05-02T11:47:27.52Z</time></trkpt><trkpt lat="42.4157339" lon="11.158705"><ele>286.5</ele><time>2026-05-02T11:47:28.52Z</time></trkpt><trkpt lat="42.4157977" lon="11.1587122"><ele>286.0</ele><time>2026-05-02T11:47:29.521Z</time></trkpt><trkpt lat="42.4158825" lon="11.1587089"><ele>285.5</ele><time>2026-05-02T11:47:31.52Z</time></trkpt><trkpt lat="42.4159519" lon="11.1587252"><ele>285.0</ele><time>2026-05-02T11:47:53.521Z</time></trkpt><trkpt lat="42.4161325" lon="11.158739"><ele>285.0</ele><time>2026-05-02T11:47:56.521Z</time></trkpt><trkpt lat="42.416209" lon="11.1587338"><ele>285.0</ele><time>2026-05-02T11:47:57.52Z</time></trkpt><trkpt lat="42.4162834" lon="11.1587289"><ele>285.0</ele><time>2026-05-02T11:47:58.521Z</time></trkpt><trkpt lat="42.4163539" lon="11.1587206"><ele>285.0</ele><time>2026-05-02T11:47:59.521Z</time></trkpt><trkpt lat="42.41642" lon="11.1587191"><ele>285.0</ele><time>2026-05-02T11:48:00.521Z</time></trkpt><trkpt lat="42.4164864" lon="11.1587362"><ele>285.0</ele><time>2026-05-02T11:48:01.52Z</time></trkpt><trkpt lat="42.4166128" lon="11.158801"><ele>285.5</ele><time>2026-05-02T11:48:03.522Z</time></trkpt><trkpt lat="42.416677" lon="11.1588528"><ele>286.0</ele><time>2026-05-02T11:48:04.521Z</time></trkpt><trkpt lat="42.4167441" lon="11.1588993"><ele>286.5</ele><time>2026-05-02T11:48:05.522Z</time></trkpt><trkpt lat="42.4169755" lon="11.1590575"><ele>287.0</ele><time>2026-05-02T11:48:08.521Z</time></trkpt><trkpt lat="42.4170579" lon="11.1591235"><ele>283.1666666666667</ele><time>2026-05-02T11:48:09.52Z</time></trkpt><trkpt lat="42.4171364" lon="11.1591883"><ele>279.33333333333337</ele><time>2026-05-02T11:48:10.52Z</time></trkpt><trkpt lat="42.41721" lon="11.1592451"><ele>275.5</ele><time>2026-05-02T11:48:11.521Z</time></trkpt><trkpt lat="42.4172866" lon="11.1592993"><ele>271.6666666666667</ele><time>2026-05-02T11:48:12.522Z</time></trkpt><trkpt lat="42.4173645" lon="11.159344"><ele>267.8333333333333</ele><time>2026-05-02T11:48:13.521Z</time></trkpt><trkpt lat="42.4174358" lon="11.1593756"><ele>264.0</ele><time>2026-05-02T11:48:14.52Z</time></trkpt><trkpt lat="42.4175038" lon="11.1594024"><ele>264.0</ele><time>2026-05-02T11:48:15.521Z</time></trkpt><trkpt lat="42.417565" lon="11.1594317"><ele>264.0</ele><time>2026-05-02T11:48:16.521Z</time></trkpt><trkpt lat="42.4176744" lon="11.1595182"><ele>264.0</ele><time>2026-05-02T11:48:18.521Z</time></trkpt><trkpt lat="42.4177274" lon="11.1595812"><ele>264.0</ele><time>2026-05-02T11:48:19.521Z</time></trkpt><trkpt lat="42.4177736" lon="11.1596481"><ele>264.0</ele><time>2026-05-02T11:48:20.52Z</time></trkpt><trkpt lat="42.4178211" lon="11.1597231"><ele>264.0</ele><time>2026-05-02T11:48:21.521Z</time></trkpt><trkpt lat="42.4178699" lon="11.1598083"><ele>260.0</ele><time>2026-05-02T11:48:22.52Z</time></trkpt><trkpt lat="42.4179233" lon="11.1599035"><ele>255.99999999999997</ele><time>2026-05-02T11:48:23.522Z</time></trkpt><trkpt lat="42.4179784" lon="11.1600108"><ele>251.99999999999997</ele><time>2026-05-02T11:48:24.522Z</time></trkpt><trkpt lat="42.4180259" lon="11.1601182"><ele>248.0</ele><time>2026-05-02T11:48:25.52Z</time></trkpt><trkpt lat="42.4180658" lon="11.1602332"><ele>244.0</ele><time>2026-05-02T11:48:26.52Z</time></trkpt><trkpt lat="42.4181025" lon="11.1603499"><ele>243.99999999999997</ele><time>2026-05-02T11:48:27.52Z</time></trkpt><trkpt lat="42.4181362" lon="11.1604559"><ele>244.0</ele><time>2026-05-02T11:48:28.522Z</time></trkpt><trkpt lat="42.4181731" lon="11.1605576"><ele>244.0</ele><time>2026-05-02T11:48:29.522Z</time></trkpt><trkpt lat="42.4182178" lon="11.1606457"><ele>244.0</ele><time>2026-05-02T11:48:30.521Z</time></trkpt><trkpt lat="42.4182705" lon="11.1607148"><ele>243.99999999999997</ele><time>2026-05-02T11:48:31.521Z</time></trkpt><trkpt lat="42.4183279" lon="11.1607681"><ele>244.0</ele><time>2026-05-02T11:48:32.52Z</time></trkpt><trkpt lat="42.4184404" lon="11.1608021"><ele>244.0</ele><time>2026-05-02T11:48:34.521Z</time></trkpt><trkpt lat="42.4185181" lon="11.1606818"><ele>243.99999999999997</ele><time>2026-05-02T11:48:36.52Z</time></trkpt><trkpt lat="42.4185298" lon="11.1605727"><ele>243.99999999999997</ele><time>2026-05-02T11:48:37.52Z</time></trkpt><trkpt lat="42.4185241" lon="11.1604514"><ele>244.0</ele><time>2026-05-02T11:48:38.52Z</time></trkpt><trkpt lat="42.4185054" lon="11.1603189"><ele>244.0</ele><time>2026-05-02T11:48:39.52Z</time></trkpt><trkpt lat="42.4184829" lon="11.1602011"><ele>243.99999999999997</ele><time>2026-05-02T11:48:40.52Z</time></trkpt><trkpt lat="42.4184697" lon="11.1600937"><ele>244.0</ele><time>2026-05-02T11:48:41.521Z</time></trkpt><trkpt lat="42.4184711" lon="11.1599949"><ele>244.0</ele><time>2026-05-02T11:48:42.521Z</time></trkpt><trkpt lat="42.418497" lon="11.1599085"><ele>244.0</ele><time>2026-05-02T11:48:43.52Z</time></trkpt><trkpt lat="42.4185511" lon="11.1598448"><ele>243.99999999999997</ele><time>2026-05-02T11:48:44.52Z</time></trkpt><trkpt lat="42.4186305" lon="11.1598082"><ele>244.0</ele><time>2026-05-02T11:48:45.521Z</time></trkpt><trkpt lat="42.4187262" lon="11.1598044"><ele>242.2</ele><time>2026-05-02T11:48:46.521Z</time></trkpt><trkpt lat="42.4188208" lon="11.1598173"><ele>240.39999999999998</ele><time>2026-05-02T11:48:47.521Z</time></trkpt><trkpt lat="42.4189215" lon="11.1598491"><ele>238.6</ele><time>2026-05-02T11:48:48.521Z</time></trkpt><trkpt lat="42.4190294" lon="11.1599056"><ele>236.8</ele><time>2026-05-02T11:48:49.521Z</time></trkpt><trkpt lat="42.4191372" lon="11.1599678"><ele>235.0</ele><time>2026-05-02T11:48:50.521Z</time></trkpt><trkpt lat="42.4192357" lon="11.1600253"><ele>235.0</ele><time>2026-05-02T11:48:51.521Z</time></trkpt><trkpt lat="42.4193295" lon="11.1600885"><ele>235.0</ele><time>2026-05-02T11:48:52.522Z</time></trkpt><trkpt lat="42.4194135" lon="11.160172"><ele>235.0</ele><time>2026-05-02T11:48:53.521Z</time></trkpt><trkpt lat="42.4194895" lon="11.1602753"><ele>235.0</ele><time>2026-05-02T11:48:54.522Z</time></trkpt><trkpt lat="42.4195494" lon="11.1603912"><ele>235.0</ele><time>2026-05-02T11:48:55.521Z</time></trkpt><trkpt lat="42.4195979" lon="11.1605278"><ele>235.0</ele><time>2026-05-02T11:48:56.521Z</time></trkpt><trkpt lat="42.419634" lon="11.160695"><ele>235.0</ele><time>2026-05-02T11:48:57.521Z</time></trkpt><trkpt lat="42.4196483" lon="11.1608822"><ele>235.0</ele><time>2026-05-02T11:48:58.521Z</time></trkpt><trkpt lat="42.4196523" lon="11.1610558"><ele>235.0</ele><time>2026-05-02T11:48:59.521Z</time></trkpt><trkpt lat="42.4196542" lon="11.1612233"><ele>232.8</ele><time>2026-05-02T11:49:00.52Z</time></trkpt><trkpt lat="42.4196579" lon="11.1613789"><ele>230.6</ele><time>2026-05-02T11:49:01.522Z</time></trkpt><trkpt lat="42.4196733" lon="11.1615256"><ele>228.39999999999998</ele><time>2026-05-02T11:49:02.521Z</time></trkpt><trkpt lat="42.4196928" lon="11.1616639"><ele>226.2</ele><time>2026-05-02T11:49:03.522Z</time></trkpt><trkpt lat="42.4197106" lon="11.1617881"><ele>224.0</ele><time>2026-05-02T11:49:04.52Z</time></trkpt><trkpt lat="42.4197261" lon="11.1618968"><ele>222.79999999999998</ele><time>2026-05-02T11:49:05.52Z</time></trkpt><trkpt lat="42.4197494" lon="11.1619998"><ele>221.59999999999997</ele><time>2026-05-02T11:49:06.52Z</time></trkpt><trkpt lat="42.4197988" lon="11.1620984"><ele>220.4</ele><time>2026-05-02T11:49:07.521Z</time></trkpt><trkpt lat="42.4198718" lon="11.1621989"><ele>219.2</ele><time>2026-05-02T11:49:08.521Z</time></trkpt><trkpt lat="42.419947" lon="11.1623075"><ele>218.0</ele><time>2026-05-02T11:49:09.521Z</time></trkpt><trkpt lat="42.4200172" lon="11.1624299"><ele>216.0</ele><time>2026-05-02T11:49:10.521Z</time></trkpt><trkpt lat="42.4200755" lon="11.1625535"><ele>214.0</ele><time>2026-05-02T11:49:11.521Z</time></trkpt><trkpt lat="42.4201309" lon="11.162676"><ele>212.0</ele><time>2026-05-02T11:49:12.521Z</time></trkpt><trkpt lat="42.420189" lon="11.1627925"><ele>210.0</ele><time>2026-05-02T11:49:13.52Z</time></trkpt><trkpt lat="42.420246" lon="11.1628975"><ele>208.0</ele><time>2026-05-02T11:49:14.52Z</time></trkpt><trkpt lat="42.4203014" lon="11.1629876"><ele>208.0</ele><time>2026-05-02T11:49:15.521Z</time></trkpt><trkpt lat="42.420361" lon="11.163063"><ele>208.0</ele><time>2026-05-02T11:49:16.521Z</time></trkpt><trkpt lat="42.4204284" lon="11.1631105"><ele>208.0</ele><time>2026-05-02T11:49:17.521Z</time></trkpt><trkpt lat="42.4205018" lon="11.1631322"><ele>208.0</ele><time>2026-05-02T11:49:18.522Z</time></trkpt><trkpt lat="42.4205732" lon="11.1631332"><ele>208.0</ele><time>2026-05-02T11:49:19.521Z</time></trkpt><trkpt lat="42.4206415" lon="11.1631097"><ele>208.0</ele><time>2026-05-02T11:49:20.521Z</time></trkpt><trkpt lat="42.4207008" lon="11.1630805"><ele>208.0</ele><time>2026-05-02T11:49:21.521Z</time></trkpt><trkpt lat="42.4208127" lon="11.1630193"><ele>207.66666666666666</ele><time>2026-05-02T11:49:23.521Z</time></trkpt><trkpt lat="42.4209197" lon="11.1629576"><ele>207.33333333333331</ele><time>2026-05-02T11:49:25.521Z</time></trkpt><trkpt lat="42.4209775" lon="11.1629195"><ele>207.0</ele><time>2026-05-02T11:49:26.52Z</time></trkpt><trkpt lat="42.4210345" lon="11.1628704"><ele>206.66666666666669</ele><time>2026-05-02T11:49:27.521Z</time></trkpt><trkpt lat="42.4210888" lon="11.1628101"><ele>206.33333333333334</ele><time>2026-05-02T11:49:28.521Z</time></trkpt><trkpt lat="42.4211302" lon="11.1627327"><ele>206.0</ele><time>2026-05-02T11:49:29.52Z</time></trkpt><trkpt lat="42.4211612" lon="11.1626398"><ele>206.00000000000003</ele><time>2026-05-02T11:49:30.522Z</time></trkpt><trkpt lat="42.421184" lon="11.1625413"><ele>206.0</ele><time>2026-05-02T11:49:31.52Z</time></trkpt><trkpt lat="42.4212004" lon="11.1624371"><ele>206.0</ele><time>2026-05-02T11:49:32.522Z</time></trkpt><trkpt lat="42.4212144" lon="11.1623343"><ele>206.0</ele><time>2026-05-02T11:49:33.52Z</time></trkpt><trkpt lat="42.421227" lon="11.1622268"><ele>206.00000000000003</ele><time>2026-05-02T11:49:34.522Z</time></trkpt><trkpt lat="42.4212417" lon="11.1621188"><ele>206.0</ele><time>2026-05-02T11:49:35.521Z</time></trkpt><trkpt lat="42.4212595" lon="11.1620106"><ele>206.14285714285714</ele><time>2026-05-02T11:49:36.52Z</time></trkpt><trkpt lat="42.4212765" lon="11.1619018"><ele>206.28571428571428</ele><time>2026-05-02T11:49:37.52Z</time></trkpt><trkpt lat="42.4212968" lon="11.1617929"><ele>206.42857142857144</ele><time>2026-05-02T11:49:38.521Z</time></trkpt><trkpt lat="42.4213202" lon="11.1616943"><ele>206.57142857142856</ele><time>2026-05-02T11:49:39.521Z</time></trkpt><trkpt lat="42.4213457" lon="11.1616067"><ele>206.71428571428572</ele><time>2026-05-02T11:49:40.521Z</time></trkpt><trkpt lat="42.4213767" lon="11.1615274"><ele>206.85714285714286</ele><time>2026-05-02T11:49:41.521Z</time></trkpt><trkpt lat="42.4214247" lon="11.1614663"><ele>207.0</ele><time>2026-05-02T11:49:42.521Z</time></trkpt><trkpt lat="42.4214889" lon="11.1614424"><ele>207.0</ele><time>2026-05-02T11:49:43.521Z</time></trkpt><trkpt lat="42.4215671" lon="11.1614583"><ele>207.0</ele><time>2026-05-02T11:49:44.52Z</time></trkpt><trkpt lat="42.4216464" lon="11.1615041"><ele>207.0</ele><time>2026-05-02T11:49:45.521Z</time></trkpt><trkpt lat="42.4217257" lon="11.1615576"><ele>207.0</ele><time>2026-05-02T11:49:46.521Z</time></trkpt><trkpt lat="42.4218032" lon="11.1616017"><ele>207.0</ele><time>2026-05-02T11:49:47.522Z</time></trkpt><trkpt lat="42.4218805" lon="11.1616359"><ele>207.0</ele><time>2026-05-02T11:49:48.522Z</time></trkpt><trkpt lat="42.4219633" lon="11.1616452"><ele>204.16666666666666</ele><time>2026-05-02T11:49:49.522Z</time></trkpt><trkpt lat="42.4220502" lon="11.1616384"><ele>201.33333333333334</ele><time>2026-05-02T11:49:50.521Z</time></trkpt><trkpt lat="42.4221301" lon="11.1616283"><ele>198.5</ele><time>2026-05-02T11:49:51.52Z</time></trkpt><trkpt lat="42.4222015" lon="11.1616189"><ele>195.66666666666669</ele><time>2026-05-02T11:49:52.52Z</time></trkpt><trkpt lat="42.4222681" lon="11.1616364"><ele>192.83333333333334</ele><time>2026-05-02T11:49:53.521Z</time></trkpt><trkpt lat="42.4223395" lon="11.1617507"><ele>190.0</ele><time>2026-05-02T11:49:55.522Z</time></trkpt><trkpt lat="42.422321" lon="11.1618359"><ele>190.0</ele><time>2026-05-02T11:49:56.521Z</time></trkpt><trkpt lat="42.4222739" lon="11.1619091"><ele>190.0</ele><time>2026-05-02T11:49:57.522Z</time></trkpt><trkpt lat="42.422205" lon="11.1619548"><ele>190.0</ele><time>2026-05-02T11:49:58.521Z</time></trkpt><trkpt lat="42.4221217" lon="11.1619782"><ele>190.0</ele><time>2026-05-02T11:49:59.522Z</time></trkpt><trkpt lat="42.4220458" lon="11.1619818"><ele>190.0</ele><time>2026-05-02T11:50:00.521Z</time></trkpt><trkpt lat="42.4219743" lon="11.161982"><ele>190.0</ele><time>2026-05-02T11:50:01.52Z</time></trkpt><trkpt lat="42.4219084" lon="11.1619868"><ele>190.0</ele><time>2026-05-02T11:50:02.52Z</time></trkpt><trkpt lat="42.4218074" lon="11.1620809"><ele>190.0</ele><time>2026-05-02T11:50:04.521Z</time></trkpt><trkpt lat="42.4217885" lon="11.1621705"><ele>190.0</ele><time>2026-05-02T11:50:05.52Z</time></trkpt><trkpt lat="42.4217997" lon="11.1622803"><ele>190.0</ele><time>2026-05-02T11:50:06.52Z</time></trkpt><trkpt lat="42.42184" lon="11.1623924"><ele>190.0</ele><time>2026-05-02T11:50:07.52Z</time></trkpt><trkpt lat="42.4218949" lon="11.1625069"><ele>190.0</ele><time>2026-05-02T11:50:08.52Z</time></trkpt><trkpt lat="42.421958" lon="11.1626243"><ele>188.8</ele><time>2026-05-02T11:50:09.52Z</time></trkpt><trkpt lat="42.4220255" lon="11.1627278"><ele>187.6</ele><time>2026-05-02T11:50:10.52Z</time></trkpt><trkpt lat="42.4220925" lon="11.1628256"><ele>186.39999999999998</ele><time>2026-05-02T11:50:11.521Z</time></trkpt><trkpt lat="42.4221577" lon="11.1629147"><ele>185.2</ele><time>2026-05-02T11:50:12.521Z</time></trkpt><trkpt lat="42.4222238" lon="11.1630039"><ele>184.0</ele><time>2026-05-02T11:50:13.52Z</time></trkpt><trkpt lat="42.4222918" lon="11.1630973"><ele>180.5</ele><time>2026-05-02T11:50:14.52Z</time></trkpt><trkpt lat="42.422355" lon="11.1631918"><ele>177.0</ele><time>2026-05-02T11:50:15.52Z</time></trkpt><trkpt lat="42.4224093" lon="11.1632836"><ele>173.5</ele><time>2026-05-02T11:50:16.52Z</time></trkpt><trkpt lat="42.4224578" lon="11.163374"><ele>170.0</ele><time>2026-05-02T11:50:17.522Z</time></trkpt><trkpt lat="42.4224973" lon="11.1634605"><ele>166.5</ele><time>2026-05-02T11:50:18.522Z</time></trkpt><trkpt lat="42.4225288" lon="11.1635508"><ele>163.0</ele><time>2026-05-02T11:50:19.521Z</time></trkpt><trkpt lat="42.4225475" lon="11.163653"><ele>162.16666666666669</ele><time>2026-05-02T11:50:20.52Z</time></trkpt><trkpt lat="42.4225521" lon="11.1637675"><ele>161.33333333333334</ele><time>2026-05-02T11:50:21.521Z</time></trkpt><trkpt lat="42.4225447" lon="11.1638806"><ele>160.5</ele><time>2026-05-02T11:50:22.521Z</time></trkpt><trkpt lat="42.4225255" lon="11.1639896"><ele>159.66666666666666</ele><time>2026-05-02T11:50:23.522Z</time></trkpt><trkpt lat="42.4224892" lon="11.1640904"><ele>158.83333333333331</ele><time>2026-05-02T11:50:24.521Z</time></trkpt><trkpt lat="42.4224363" lon="11.1641881"><ele>158.0</ele><time>2026-05-02T11:50:25.52Z</time></trkpt><trkpt lat="42.4223723" lon="11.1642673"><ele>158.66666666666666</ele><time>2026-05-02T11:50:26.521Z</time></trkpt><trkpt lat="42.4223072" lon="11.1643408"><ele>159.33333333333331</ele><time>2026-05-02T11:50:27.522Z</time></trkpt><trkpt lat="42.4222471" lon="11.164418"><ele>160.0</ele><time>2026-05-02T11:50:28.521Z</time></trkpt><trkpt lat="42.4221949" lon="11.1645091"><ele>160.66666666666666</ele><time>2026-05-02T11:50:29.52Z</time></trkpt><trkpt lat="42.4221558" lon="11.1646183"><ele>161.33333333333334</ele><time>2026-05-02T11:50:30.52Z</time></trkpt><trkpt lat="42.4221255" lon="11.1647396"><ele>162.0</ele><time>2026-05-02T11:50:31.521Z</time></trkpt><trkpt lat="42.422106" lon="11.1648712"><ele>162.0</ele><time>2026-05-02T11:50:32.521Z</time></trkpt><trkpt lat="42.4220965" lon="11.1650115"><ele>162.0</ele><time>2026-05-02T11:50:33.521Z</time></trkpt><trkpt lat="42.4220916" lon="11.1651552"><ele>162.0</ele><time>2026-05-02T11:50:34.522Z</time></trkpt><trkpt lat="42.4220874" lon="11.1652991"><ele>162.0</ele><time>2026-05-02T11:50:35.52Z</time></trkpt><trkpt lat="42.4220802" lon="11.165443"><ele>162.0</ele><time>2026-05-02T11:50:36.519Z</time></trkpt><trkpt lat="42.4220617" lon="11.1655849"><ele>159.79999999999998</ele><time>2026-05-02T11:50:37.52Z</time></trkpt><trkpt lat="42.4220347" lon="11.1657259"><ele>157.6</ele><time>2026-05-02T11:50:38.519Z</time></trkpt><trkpt lat="42.4220039" lon="11.1658623"><ele>155.39999999999998</ele><time>2026-05-02T11:50:39.52Z</time></trkpt><trkpt lat="42.4219686" lon="11.165985"><ele>153.2</ele><time>2026-05-02T11:50:40.52Z</time></trkpt><trkpt lat="42.4219301" lon="11.1661005"><ele>151.0</ele><time>2026-05-02T11:50:41.519Z</time></trkpt><trkpt lat="42.4218815" lon="11.1662088"><ele>151.0</ele><time>2026-05-02T11:50:42.519Z</time></trkpt><trkpt lat="42.4218179" lon="11.166304"><ele>151.0</ele><time>2026-05-02T11:50:43.519Z</time></trkpt><trkpt lat="42.4217422" lon="11.1663808"><ele>151.0</ele><time>2026-05-02T11:50:44.519Z</time></trkpt><trkpt lat="42.4216608" lon="11.1664392"><ele>151.0</ele><time>2026-05-02T11:50:45.52Z</time></trkpt><trkpt lat="42.4215839" lon="11.1664741"><ele>151.0</ele><time>2026-05-02T11:50:46.52Z</time></trkpt><trkpt lat="42.4215048" lon="11.166494"><ele>151.0</ele><time>2026-05-02T11:50:47.519Z</time></trkpt><trkpt lat="42.4214228" lon="11.1664978"><ele>151.0</ele><time>2026-05-02T11:50:48.52Z</time></trkpt><trkpt lat="42.4213486" lon="11.1664799"><ele>151.0</ele><time>2026-05-02T11:50:49.52Z</time></trkpt><trkpt lat="42.4212841" lon="11.1664488"><ele>151.0</ele><time>2026-05-02T11:50:50.52Z</time></trkpt><trkpt lat="42.4212202" lon="11.1664348"><ele>151.0</ele><time>2026-05-02T11:50:51.519Z</time></trkpt><trkpt lat="42.4211177" lon="11.1665139"><ele>151.0</ele><time>2026-05-02T11:50:53.519Z</time></trkpt><trkpt lat="42.4210947" lon="11.1666023"><ele>151.0</ele><time>2026-05-02T11:50:54.52Z</time></trkpt><trkpt lat="42.4211114" lon="11.1667122"><ele>149.8</ele><time>2026-05-02T11:50:55.52Z</time></trkpt><trkpt lat="42.4211443" lon="11.1668217"><ele>148.6</ele><time>2026-05-02T11:50:56.519Z</time></trkpt><trkpt lat="42.4211842" lon="11.1669434"><ele>147.4</ele><time>2026-05-02T11:50:57.519Z</time></trkpt><trkpt lat="42.4212231" lon="11.1670758"><ele>146.2</ele><time>2026-05-02T11:50:58.521Z</time></trkpt><trkpt lat="42.4212687" lon="11.1672118"><ele>145.0</ele><time>2026-05-02T11:50:59.52Z</time></trkpt><trkpt lat="42.4213106" lon="11.1673465"><ele>140.5</ele><time>2026-05-02T11:51:00.521Z</time></trkpt><trkpt lat="42.4213488" lon="11.1674878"><ele>136.0</ele><time>2026-05-02T11:51:01.52Z</time></trkpt><trkpt lat="42.4213854" lon="11.1676365"><ele>131.5</ele><time>2026-05-02T11:51:02.52Z</time></trkpt><trkpt lat="42.42142" lon="11.1677903"><ele>127.0</ele><time>2026-05-02T11:51:03.519Z</time></trkpt><trkpt lat="42.4214557" lon="11.1679469"><ele>127.0</ele><time>2026-05-02T11:51:04.52Z</time></trkpt><trkpt lat="42.4214928" lon="11.1681005"><ele>127.0</ele><time>2026-05-02T11:51:05.519Z</time></trkpt><trkpt lat="42.4215351" lon="11.1682393"><ele>127.0</ele><time>2026-05-02T11:51:06.52Z</time></trkpt><trkpt lat="42.4215834" lon="11.1683794"><ele>127.0</ele><time>2026-05-02T11:51:07.52Z</time></trkpt><trkpt lat="42.4216322" lon="11.1685123"><ele>126.0</ele><time>2026-05-02T11:51:08.519Z</time></trkpt><trkpt lat="42.4216773" lon="11.1686355"><ele>124.99999999999999</ele><time>2026-05-02T11:51:09.52Z</time></trkpt><trkpt lat="42.4217185" lon="11.1687522"><ele>123.99999999999999</ele><time>2026-05-02T11:51:10.519Z</time></trkpt><trkpt lat="42.4217557" lon="11.1688671"><ele>123.0</ele><time>2026-05-02T11:51:11.519Z</time></trkpt><trkpt lat="42.4217883" lon="11.1689891"><ele>122.0</ele><time>2026-05-02T11:51:12.52Z</time></trkpt><trkpt lat="42.421815" lon="11.1691081"><ele>121.8</ele><time>2026-05-02T11:51:13.519Z</time></trkpt><trkpt lat="42.4218338" lon="11.1692319"><ele>121.6</ele><time>2026-05-02T11:51:14.519Z</time></trkpt><trkpt lat="42.4218461" lon="11.1693717"><ele>121.39999999999999</ele><time>2026-05-02T11:51:15.519Z</time></trkpt><trkpt lat="42.4218418" lon="11.1695286"><ele>121.19999999999999</ele><time>2026-05-02T11:51:16.519Z</time></trkpt><trkpt lat="42.4218212" lon="11.1696995"><ele>121.0</ele><time>2026-05-02T11:51:17.519Z</time></trkpt><trkpt lat="42.4217928" lon="11.1698589"><ele>118.75</ele><time>2026-05-02T11:51:18.519Z</time></trkpt><trkpt lat="42.4217658" lon="11.1700146"><ele>116.5</ele><time>2026-05-02T11:51:19.52Z</time></trkpt><trkpt lat="42.4217414" lon="11.1701654"><ele>114.25</ele><time>2026-05-02T11:51:20.52Z</time></trkpt><trkpt lat="42.4217188" lon="11.1703143"><ele>112.0</ele><time>2026-05-02T11:51:21.519Z</time></trkpt><trkpt lat="42.4217075" lon="11.1704642"><ele>112.0</ele><time>2026-05-02T11:51:22.52Z</time></trkpt><trkpt lat="42.4217066" lon="11.1706212"><ele>112.0</ele><time>2026-05-02T11:51:23.519Z</time></trkpt><trkpt lat="42.4217156" lon="11.1707792"><ele>112.0</ele><time>2026-05-02T11:51:24.519Z</time></trkpt><trkpt lat="42.4217376" lon="11.1709364"><ele>112.0</ele><time>2026-05-02T11:51:25.519Z</time></trkpt><trkpt lat="42.4217718" lon="11.1710975"><ele>111.0</ele><time>2026-05-02T11:51:26.519Z</time></trkpt><trkpt lat="42.4218213" lon="11.171267"><ele>110.0</ele><time>2026-05-02T11:51:27.519Z</time></trkpt><trkpt lat="42.4218842" lon="11.1714341"><ele>109.0</ele><time>2026-05-02T11:51:28.519Z</time></trkpt><trkpt lat="42.4219603" lon="11.1716066"><ele>108.0</ele><time>2026-05-02T11:51:29.52Z</time></trkpt><trkpt lat="42.4220532" lon="11.1717965"><ele>108.0</ele><time>2026-05-02T11:51:30.519Z</time></trkpt><trkpt lat="42.4221448" lon="11.1719749"><ele>108.0</ele><time>2026-05-02T11:51:31.519Z</time></trkpt><trkpt lat="42.4222354" lon="11.1721373"><ele>108.0</ele><time>2026-05-02T11:51:32.52Z</time></trkpt><trkpt lat="42.4223215" lon="11.1722882"><ele>103.25</ele><time>2026-05-02T11:51:33.52Z</time></trkpt><trkpt lat="42.4224041" lon="11.172431"><ele>98.5</ele><time>2026-05-02T11:51:34.52Z</time></trkpt><trkpt lat="42.4224835" lon="11.1725723"><ele>93.75</ele><time>2026-05-02T11:51:35.52Z</time></trkpt><trkpt lat="42.4225562" lon="11.1727119"><ele>89.0</ele><time>2026-05-02T11:51:36.52Z</time></trkpt><trkpt lat="42.4226231" lon="11.1728686"><ele>89.0</ele><time>2026-05-02T11:51:37.52Z</time></trkpt><trkpt lat="42.4226777" lon="11.173037"><ele>89.0</ele><time>2026-05-02T11:51:38.519Z</time></trkpt><trkpt lat="42.4227178" lon="11.1732043"><ele>89.0</ele><time>2026-05-02T11:51:39.519Z</time></trkpt><trkpt lat="42.4227544" lon="11.1733603"><ele>89.0</ele><time>2026-05-02T11:51:40.519Z</time></trkpt><trkpt lat="42.4227902" lon="11.1735081"><ele>90.5</ele><time>2026-05-02T11:51:41.52Z</time></trkpt><trkpt lat="42.422824" lon="11.1736491"><ele>92.0</ele><time>2026-05-02T11:51:42.52Z</time></trkpt><trkpt lat="42.4228654" lon="11.1737806"><ele>93.5</ele><time>2026-05-02T11:51:43.519Z</time></trkpt><trkpt lat="42.422933" lon="11.1739063"><ele>95.0</ele><time>2026-05-02T11:51:44.52Z</time></trkpt><trkpt lat="42.4230263" lon="11.1740204"><ele>91.25</ele><time>2026-05-02T11:51:45.52Z</time></trkpt><trkpt lat="42.4231267" lon="11.1741311"><ele>87.5</ele><time>2026-05-02T11:51:46.52Z</time></trkpt><trkpt lat="42.4232249" lon="11.1742399"><ele>83.75</ele><time>2026-05-02T11:51:47.521Z</time></trkpt><trkpt lat="42.4233312" lon="11.174349"><ele>80.0</ele><time>2026-05-02T11:51:48.52Z</time></trkpt><trkpt lat="42.4234322" lon="11.1744479"><ele>80.0</ele><time>2026-05-02T11:51:49.521Z</time></trkpt><trkpt lat="42.4235259" lon="11.1745414"><ele>80.0</ele><time>2026-05-02T11:51:50.519Z</time></trkpt><trkpt lat="42.4236141" lon="11.1746337"><ele>80.0</ele><time>2026-05-02T11:51:51.52Z</time></trkpt><trkpt lat="42.4236958" lon="11.1747177"><ele>80.0</ele><time>2026-05-02T11:51:52.52Z</time></trkpt><trkpt lat="42.4237806" lon="11.1747988"><ele>80.0</ele><time>2026-05-02T11:51:53.519Z</time></trkpt><trkpt lat="42.4238779" lon="11.1748598"><ele>79.2</ele><time>2026-05-02T11:51:54.519Z</time></trkpt><trkpt lat="42.4239897" lon="11.1748965"><ele>78.4</ele><time>2026-05-02T11:51:55.519Z</time></trkpt><trkpt lat="42.4240949" lon="11.1749231"><ele>77.6</ele><time>2026-05-02T11:51:56.519Z</time></trkpt><trkpt lat="42.4241995" lon="11.1749463"><ele>76.8</ele><time>2026-05-02T11:51:57.52Z</time></trkpt><trkpt lat="42.4243043" lon="11.174975"><ele>76.0</ele><time>2026-05-02T11:51:58.521Z</time></trkpt><trkpt lat="42.424394" lon="11.1750114"><ele>76.0</ele><time>2026-05-02T11:51:59.519Z</time></trkpt><trkpt lat="42.4244808" lon="11.1750652"><ele>76.0</ele><time>2026-05-02T11:52:00.519Z</time></trkpt><trkpt lat="42.4245586" lon="11.1751426"><ele>76.0</ele><time>2026-05-02T11:52:01.52Z</time></trkpt><trkpt lat="42.4246239" lon="11.1752416"><ele>76.0</ele><time>2026-05-02T11:52:02.521Z</time></trkpt><trkpt lat="42.4246822" lon="11.1753533"><ele>76.0</ele><time>2026-05-02T11:52:03.52Z</time></trkpt><trkpt lat="42.4247337" lon="11.1754783"><ele>75.2</ele><time>2026-05-02T11:52:04.52Z</time></trkpt><trkpt lat="42.4247816" lon="11.1756162"><ele>74.39999999999999</ele><time>2026-05-02T11:52:05.52Z</time></trkpt><trkpt lat="42.4248302" lon="11.1757542"><ele>73.6</ele><time>2026-05-02T11:52:06.52Z</time></trkpt><trkpt lat="42.4248717" lon="11.1758761"><ele>72.8</ele><time>2026-05-02T11:52:07.519Z</time></trkpt><trkpt lat="42.4249129" lon="11.1760032"><ele>72.0</ele><time>2026-05-02T11:52:08.519Z</time></trkpt><trkpt lat="42.4249553" lon="11.1761259"><ele>72.0</ele><time>2026-05-02T11:52:09.519Z</time></trkpt><trkpt lat="42.424999" lon="11.176232"><ele>72.0</ele><time>2026-05-02T11:52:10.52Z</time></trkpt><trkpt lat="42.4250518" lon="11.1763364"><ele>72.0</ele><time>2026-05-02T11:52:11.52Z</time></trkpt><trkpt lat="42.4251222" lon="11.1764232"><ele>72.0</ele><time>2026-05-02T11:52:12.519Z</time></trkpt><trkpt lat="42.4252017" lon="11.1764871"><ele>72.0</ele><time>2026-05-02T11:52:13.519Z</time></trkpt><trkpt lat="42.4252923" lon="11.1765301"><ele>69.6</ele><time>2026-05-02T11:52:14.52Z</time></trkpt><trkpt lat="42.4253883" lon="11.1765593"><ele>67.2</ele><time>2026-05-02T11:52:15.52Z</time></trkpt><trkpt lat="42.4254784" lon="11.1765763"><ele>64.8</ele><time>2026-05-02T11:52:16.52Z</time></trkpt><trkpt lat="42.4255648" lon="11.1765791"><ele>62.4</ele><time>2026-05-02T11:52:17.52Z</time></trkpt><trkpt lat="42.4256503" lon="11.1765595"><ele>60.0</ele><time>2026-05-02T11:52:18.52Z</time></trkpt><trkpt lat="42.4257341" lon="11.1765217"><ele>61.6</ele><time>2026-05-02T11:52:19.52Z</time></trkpt><trkpt lat="42.4258094" lon="11.1764587"><ele>63.2</ele><time>2026-05-02T11:52:20.519Z</time></trkpt><trkpt lat="42.4258796" lon="11.1763818"><ele>64.8</ele><time>2026-05-02T11:52:21.52Z</time></trkpt><trkpt lat="42.4259419" lon="11.1762877"><ele>66.4</ele><time>2026-05-02T11:52:22.52Z</time></trkpt><trkpt lat="42.4259943" lon="11.1761788"><ele>68.0</ele><time>2026-05-02T11:52:23.521Z</time></trkpt><trkpt lat="42.4260419" lon="11.1760621"><ele>68.0</ele><time>2026-05-02T11:52:24.521Z</time></trkpt><trkpt lat="42.426081" lon="11.1759368"><ele>68.0</ele><time>2026-05-02T11:52:25.521Z</time></trkpt><trkpt lat="42.4261095" lon="11.17579"><ele>68.0</ele><time>2026-05-02T11:52:26.52Z</time></trkpt><trkpt lat="42.4261254" lon="11.1756334"><ele>68.0</ele><time>2026-05-02T11:52:27.52Z</time></trkpt><trkpt lat="42.4261339" lon="11.1754842"><ele>68.0</ele><time>2026-05-02T11:52:28.52Z</time></trkpt><trkpt lat="42.4261332" lon="11.1753361"><ele>67.25</ele><time>2026-05-02T11:52:29.519Z</time></trkpt><trkpt lat="42.4261062" lon="11.1751852"><ele>66.5</ele><time>2026-05-02T11:52:30.52Z</time></trkpt><trkpt lat="42.4260546" lon="11.1750176"><ele>65.75</ele><time>2026-05-02T11:52:31.519Z</time></trkpt><trkpt lat="42.4259971" lon="11.1748578"><ele>65.0</ele><time>2026-05-02T11:52:32.519Z</time></trkpt><trkpt lat="42.4259273" lon="11.174721"><ele>63.2</ele><time>2026-05-02T11:52:33.519Z</time></trkpt><trkpt lat="42.4258522" lon="11.174607"><ele>61.4</ele><time>2026-05-02T11:52:34.519Z</time></trkpt><trkpt lat="42.4257738" lon="11.1745055"><ele>59.599999999999994</ele><time>2026-05-02T11:52:35.52Z</time></trkpt><trkpt lat="42.4257007" lon="11.1744053"><ele>57.8</ele><time>2026-05-02T11:52:36.521Z</time></trkpt><trkpt lat="42.4256351" lon="11.1743163"><ele>56.0</ele><time>2026-05-02T11:52:37.52Z</time></trkpt><trkpt lat="42.4255829" lon="11.1742322"><ele>56.00000000000001</ele><time>2026-05-02T11:52:38.521Z</time></trkpt><trkpt lat="42.4255514" lon="11.1741388"><ele>56.0</ele><time>2026-05-02T11:52:39.52Z</time></trkpt><trkpt lat="42.425544" lon="11.1740374"><ele>56.0</ele><time>2026-05-02T11:52:40.519Z</time></trkpt><trkpt lat="42.4255524" lon="11.1739413"><ele>56.0</ele><time>2026-05-02T11:52:41.52Z</time></trkpt><trkpt lat="42.4255726" lon="11.1738471"><ele>56.00000000000001</ele><time>2026-05-02T11:52:42.52Z</time></trkpt><trkpt lat="42.4256055" lon="11.1737514"><ele>56.0</ele><time>2026-05-02T11:52:43.519Z</time></trkpt><trkpt lat="42.4256475" lon="11.173654"><ele>55.66666666666667</ele><time>2026-05-02T11:52:44.52Z</time></trkpt><trkpt lat="42.425694" lon="11.1735527"><ele>55.333333333333336</ele><time>2026-05-02T11:52:45.519Z</time></trkpt><trkpt lat="42.4257447" lon="11.1734645"><ele>55.0</ele><time>2026-05-02T11:52:46.52Z</time></trkpt><trkpt lat="42.425799" lon="11.1733836"><ele>54.66666666666667</ele><time>2026-05-02T11:52:47.52Z</time></trkpt><trkpt lat="42.4258589" lon="11.1733051"><ele>54.333333333333336</ele><time>2026-05-02T11:52:48.519Z</time></trkpt><trkpt lat="42.4259289" lon="11.1732401"><ele>54.0</ele><time>2026-05-02T11:52:49.52Z</time></trkpt><trkpt lat="42.4260047" lon="11.1731989"><ele>52.333333333333336</ele><time>2026-05-02T11:52:50.521Z</time></trkpt><trkpt lat="42.4260869" lon="11.1731762"><ele>50.666666666666664</ele><time>2026-05-02T11:52:51.52Z</time></trkpt><trkpt lat="42.4261723" lon="11.1731656"><ele>49.0</ele><time>2026-05-02T11:52:52.519Z</time></trkpt><trkpt lat="42.4262611" lon="11.1731582"><ele>47.33333333333333</ele><time>2026-05-02T11:52:53.52Z</time></trkpt><trkpt lat="42.4263507" lon="11.1731489"><ele>45.666666666666664</ele><time>2026-05-02T11:52:54.519Z</time></trkpt><trkpt lat="42.4264426" lon="11.1731402"><ele>44.0</ele><time>2026-05-02T11:52:55.521Z</time></trkpt><trkpt lat="42.4265387" lon="11.173131"><ele>43.800000000000004</ele><time>2026-05-02T11:52:56.519Z</time></trkpt><trkpt lat="42.4266344" lon="11.1731185"><ele>43.6</ele><time>2026-05-02T11:52:57.519Z</time></trkpt><trkpt lat="42.4267341" lon="11.173105"><ele>43.4</ele><time>2026-05-02T11:52:58.52Z</time></trkpt><trkpt lat="42.4268359" lon="11.1731003"><ele>43.2</ele><time>2026-05-02T11:52:59.52Z</time></trkpt><trkpt lat="42.4269407" lon="11.1730974"><ele>43.0</ele><time>2026-05-02T11:53:00.52Z</time></trkpt><trkpt lat="42.4270457" lon="11.1730929"><ele>43.5</ele><time>2026-05-02T11:53:01.52Z</time></trkpt><trkpt lat="42.4271506" lon="11.173087"><ele>44.0</ele><time>2026-05-02T11:53:02.519Z</time></trkpt><trkpt lat="42.4272424" lon="11.1730797"><ele>44.5</ele><time>2026-05-02T11:53:03.521Z</time></trkpt><trkpt lat="42.4273235" lon="11.1730753"><ele>45.0</ele><time>2026-05-02T11:53:04.52Z</time></trkpt><trkpt lat="42.4274015" lon="11.1730626"><ele>45.5</ele><time>2026-05-02T11:53:05.519Z</time></trkpt><trkpt lat="42.4274728" lon="11.1730277"><ele>46.0</ele><time>2026-05-02T11:53:06.519Z</time></trkpt><trkpt lat="42.4275355" lon="11.1729801"><ele>46.0</ele><time>2026-05-02T11:53:07.519Z</time></trkpt><trkpt lat="42.4275881" lon="11.1729167"><ele>46.0</ele><time>2026-05-02T11:53:08.519Z</time></trkpt><trkpt lat="42.427635" lon="11.1728402"><ele>46.0</ele><time>2026-05-02T11:53:09.52Z</time></trkpt><trkpt lat="42.4276749" lon="11.1727567"><ele>46.0</ele><time>2026-05-02T11:53:10.521Z</time></trkpt><trkpt lat="42.4277117" lon="11.1726674"><ele>46.0</ele><time>2026-05-02T11:53:11.52Z</time></trkpt><trkpt lat="42.4277477" lon="11.1725798"><ele>46.0</ele><time>2026-05-02T11:53:12.519Z</time></trkpt><trkpt lat="42.427783" lon="11.172493"><ele>46.0</ele><time>2026-05-02T11:53:13.52Z</time></trkpt><trkpt lat="42.4278208" lon="11.1724089"><ele>45.333333333333336</ele><time>2026-05-02T11:53:14.52Z</time></trkpt><trkpt lat="42.427867" lon="11.1723326"><ele>44.66666666666667</ele><time>2026-05-02T11:53:15.519Z</time></trkpt><trkpt lat="42.4279207" lon="11.1722638"><ele>44.0</ele><time>2026-05-02T11:53:16.52Z</time></trkpt><trkpt lat="42.4279787" lon="11.172199"><ele>43.333333333333336</ele><time>2026-05-02T11:53:17.519Z</time></trkpt><trkpt lat="42.4280397" lon="11.1721383"><ele>42.666666666666664</ele><time>2026-05-02T11:53:18.519Z</time></trkpt><trkpt lat="42.4281026" lon="11.172078"><ele>42.0</ele><time>2026-05-02T11:53:19.52Z</time></trkpt><trkpt lat="42.4281647" lon="11.1720166"><ele>42.0</ele><time>2026-05-02T11:53:20.521Z</time></trkpt><trkpt lat="42.4282286" lon="11.1719523"><ele>42.0</ele><time>2026-05-02T11:53:21.521Z</time></trkpt><trkpt lat="42.4283" lon="11.1718978"><ele>42.0</ele><time>2026-05-02T11:53:22.52Z</time></trkpt><trkpt lat="42.4283667" lon="11.1718555"><ele>42.0</ele><time>2026-05-02T11:53:23.521Z</time></trkpt><trkpt lat="42.4284348" lon="11.1718387"><ele>42.0</ele><time>2026-05-02T11:53:24.52Z</time></trkpt><trkpt lat="42.4285003" lon="11.1718444"><ele>42.0</ele><time>2026-05-02T11:53:25.52Z</time></trkpt><trkpt lat="42.4285658" lon="11.1718746"><ele>42.0</ele><time>2026-05-02T11:53:26.52Z</time></trkpt><trkpt lat="42.4286315" lon="11.1719193"><ele>42.0</ele><time>2026-05-02T11:53:27.519Z</time></trkpt><trkpt lat="42.4286978" lon="11.1719587"><ele>42.0</ele><time>2026-05-02T11:53:28.52Z</time></trkpt><trkpt lat="42.4287667" lon="11.1719832"><ele>42.0</ele><time>2026-05-02T11:53:29.52Z</time></trkpt><trkpt lat="42.4288335" lon="11.1719885"><ele>42.0</ele><time>2026-05-02T11:53:30.52Z</time></trkpt><trkpt lat="42.428897" lon="11.171976"><ele>42.0</ele><time>2026-05-02T11:53:31.52Z</time></trkpt><trkpt lat="42.4289557" lon="11.1719336"><ele>42.0</ele><time>2026-05-02T11:53:32.521Z</time></trkpt><trkpt lat="42.4290052" lon="11.1718697"><ele>42.0</ele><time>2026-05-02T11:53:33.519Z</time></trkpt><trkpt lat="42.429045" lon="11.1717979"><ele>42.0</ele><time>2026-05-02T11:53:34.519Z</time></trkpt><trkpt lat="42.4290801" lon="11.1717225"><ele>42.0</ele><time>2026-05-02T11:53:35.52Z</time></trkpt><trkpt lat="42.4291162" lon="11.171651"><ele>42.0</ele><time>2026-05-02T11:53:36.519Z</time></trkpt><trkpt lat="42.4291901" lon="11.171499"><ele>42.0</ele><time>2026-05-02T11:53:38.52Z</time></trkpt><trkpt lat="42.429235" lon="11.1714149"><ele>42.0</ele><time>2026-05-02T11:53:39.52Z</time></trkpt><trkpt lat="42.4292787" lon="11.1713395"><ele>42.0</ele><time>2026-05-02T11:53:40.52Z</time></trkpt><trkpt lat="42.4293282" lon="11.1712628"><ele>40.166666666666664</ele><time>2026-05-02T11:53:41.52Z</time></trkpt><trkpt lat="42.4293823" lon="11.1711868"><ele>38.333333333333336</ele><time>2026-05-02T11:53:42.521Z</time></trkpt><trkpt lat="42.4294393" lon="11.1711158"><ele>36.5</ele><time>2026-05-02T11:53:43.522Z</time></trkpt><trkpt lat="42.4295038" lon="11.1710533"><ele>34.66666666666667</ele><time>2026-05-02T11:53:44.521Z</time></trkpt><trkpt lat="42.4295728" lon="11.1710029"><ele>32.833333333333336</ele><time>2026-05-02T11:53:45.519Z</time></trkpt><trkpt lat="42.4296451" lon="11.1709589"><ele>31.0</ele><time>2026-05-02T11:53:46.52Z</time></trkpt><trkpt lat="42.4297208" lon="11.1709161"><ele>31.000000000000004</ele><time>2026-05-02T11:53:47.52Z</time></trkpt><trkpt lat="42.4297991" lon="11.1708737"><ele>31.0</ele><time>2026-05-02T11:53:48.519Z</time></trkpt><trkpt lat="42.4298777" lon="11.1708248"><ele>31.0</ele><time>2026-05-02T11:53:49.52Z</time></trkpt><trkpt lat="42.4299587" lon="11.1707825"><ele>31.0</ele><time>2026-05-02T11:53:50.52Z</time></trkpt><trkpt lat="42.4300304" lon="11.1707387"><ele>31.000000000000004</ele><time>2026-05-02T11:53:51.52Z</time></trkpt><trkpt lat="42.4300988" lon="11.1706991"><ele>31.0</ele><time>2026-05-02T11:53:52.52Z</time></trkpt><trkpt lat="42.4301669" lon="11.1706657"><ele>31.000000000000004</ele><time>2026-05-02T11:53:53.521Z</time></trkpt><trkpt lat="42.4302356" lon="11.1706496"><ele>31.0</ele><time>2026-05-02T11:53:54.519Z</time></trkpt><trkpt lat="42.430307" lon="11.1706465"><ele>31.0</ele><time>2026-05-02T11:53:55.519Z</time></trkpt><trkpt lat="42.4303784" lon="11.1706665"><ele>31.0</ele><time>2026-05-02T11:53:56.52Z</time></trkpt><trkpt lat="42.4304462" lon="11.1707211"><ele>31.000000000000004</ele><time>2026-05-02T11:53:57.521Z</time></trkpt><trkpt lat="42.4305163" lon="11.1707911"><ele>31.0</ele><time>2026-05-02T11:53:58.519Z</time></trkpt><trkpt lat="42.4305849" lon="11.1708669"><ele>28.833333333333336</ele><time>2026-05-02T11:53:59.519Z</time></trkpt><trkpt lat="42.4306506" lon="11.1709415"><ele>26.666666666666668</ele><time>2026-05-02T11:54:00.52Z</time></trkpt><trkpt lat="42.4307104" lon="11.171015"><ele>24.5</ele><time>2026-05-02T11:54:01.518Z</time></trkpt><trkpt lat="42.4307645" lon="11.171086"><ele>22.333333333333336</ele><time>2026-05-02T11:54:02.518Z</time></trkpt><trkpt lat="42.4308146" lon="11.1711533"><ele>20.166666666666668</ele><time>2026-05-02T11:54:03.52Z</time></trkpt><trkpt lat="42.4308633" lon="11.1712267"><ele>18.0</ele><time>2026-05-02T11:54:04.519Z</time></trkpt><trkpt lat="42.4309154" lon="11.1713015"><ele>18.0</ele><time>2026-05-02T11:54:05.519Z</time></trkpt><trkpt lat="42.4309686" lon="11.1713775"><ele>18.0</ele><time>2026-05-02T11:54:06.519Z</time></trkpt><trkpt lat="42.4310254" lon="11.1714542"><ele>18.0</ele><time>2026-05-02T11:54:07.519Z</time></trkpt><trkpt lat="42.4310837" lon="11.1715335"><ele>18.0</ele><time>2026-05-02T11:54:08.519Z</time></trkpt><trkpt lat="42.4311396" lon="11.1716066"><ele>18.0</ele><time>2026-05-02T11:54:09.518Z</time></trkpt><trkpt lat="42.4312004" lon="11.1716706"><ele>18.0</ele><time>2026-05-02T11:54:10.519Z</time></trkpt><trkpt lat="42.4312696" lon="11.1717204"><ele>17.166666666666668</ele><time>2026-05-02T11:54:11.518Z</time></trkpt><trkpt lat="42.4313474" lon="11.1717492"><ele>16.333333333333332</ele><time>2026-05-02T11:54:12.518Z</time></trkpt><trkpt lat="42.4314285" lon="11.1717685"><ele>15.5</ele><time>2026-05-02T11:54:13.519Z</time></trkpt><trkpt lat="42.431509" lon="11.1717879"><ele>14.666666666666666</ele><time>2026-05-02T11:54:14.519Z</time></trkpt><trkpt lat="42.4315905" lon="11.1718102"><ele>13.833333333333332</ele><time>2026-05-02T11:54:15.519Z</time></trkpt><trkpt lat="42.4316714" lon="11.1718281"><ele>13.0</ele><time>2026-05-02T11:54:16.519Z</time></trkpt><trkpt lat="42.4317541" lon="11.1718499"><ele>12.999999999999998</ele><time>2026-05-02T11:54:17.518Z</time></trkpt><trkpt lat="42.4318346" lon="11.1718789"><ele>13.0</ele><time>2026-05-02T11:54:18.518Z</time></trkpt><trkpt lat="42.4319088" lon="11.1719195"><ele>13.0</ele><time>2026-05-02T11:54:19.519Z</time></trkpt><trkpt lat="42.4319765" lon="11.1719759"><ele>13.0</ele><time>2026-05-02T11:54:20.519Z</time></trkpt><trkpt lat="42.4320313" lon="11.1720466"><ele>12.999999999999998</ele><time>2026-05-02T11:54:21.52Z</time></trkpt><trkpt lat="42.4320779" lon="11.1721304"><ele>13.0</ele><time>2026-05-02T11:54:22.52Z</time></trkpt><trkpt lat="42.4321208" lon="11.172213"><ele>12.285714285714285</ele><time>2026-05-02T11:54:23.519Z</time></trkpt><trkpt lat="42.4321575" lon="11.1722904"><ele>11.571428571428573</ele><time>2026-05-02T11:54:24.518Z</time></trkpt><trkpt lat="42.4321944" lon="11.1723623"><ele>10.857142857142858</ele><time>2026-05-02T11:54:25.519Z</time></trkpt><trkpt lat="42.4322339" lon="11.1724359"><ele>10.142857142857142</ele><time>2026-05-02T11:54:26.518Z</time></trkpt><trkpt lat="42.4322748" lon="11.1725157"><ele>9.428571428571427</ele><time>2026-05-02T11:54:27.52Z</time></trkpt><trkpt lat="42.4323137" lon="11.1725957"><ele>8.714285714285714</ele><time>2026-05-02T11:54:28.52Z</time></trkpt><trkpt lat="42.4323496" lon="11.1726692"><ele>8.0</ele><time>2026-05-02T11:54:29.518Z</time></trkpt><trkpt lat="42.4324131" lon="11.172796"><ele>8.0</ele><time>2026-05-02T11:54:31.519Z</time></trkpt><trkpt lat="42.4324661" lon="11.1729065"><ele>8.0</ele><time>2026-05-02T11:54:33.519Z</time></trkpt><trkpt lat="42.4325079" lon="11.1730157"><ele>8.0</ele><time>2026-05-02T11:54:35.52Z</time></trkpt><trkpt lat="42.4325441" lon="11.1731454"><ele>8.0</ele><time>2026-05-02T11:54:37.519Z</time></trkpt><trkpt lat="42.4325572" lon="11.1732954"><ele>8.0</ele><time>2026-05-02T11:54:39.519Z</time></trkpt><trkpt lat="42.4325326" lon="11.1734491"><ele>7.833333333333333</ele><time>2026-05-02T11:54:41.518Z</time></trkpt><trkpt lat="42.43248" lon="11.1735899"><ele>7.666666666666666</ele><time>2026-05-02T11:54:43.519Z</time></trkpt><trkpt lat="42.4323901" lon="11.1736963"><ele>7.5</ele><time>2026-05-02T11:54:45.519Z</time></trkpt><trkpt lat="42.4323297" lon="11.1737287"><ele>7.333333333333334</ele><time>2026-05-02T11:54:46.519Z</time></trkpt><trkpt lat="42.4322672" lon="11.1737579"><ele>7.166666666666667</ele><time>2026-05-02T11:54:47.518Z</time></trkpt><trkpt lat="42.4322031" lon="11.1738"><ele>7.0</ele><time>2026-05-02T11:54:48.518Z</time></trkpt><trkpt lat="42.4321398" lon="11.1738543"><ele>8.428571428571429</ele><time>2026-05-02T11:54:49.519Z</time></trkpt><trkpt lat="42.4320909" lon="11.1739162"><ele>9.857142857142858</ele><time>2026-05-02T11:54:50.519Z</time></trkpt><trkpt lat="42.4320509" lon="11.1739842"><ele>11.285714285714285</ele><time>2026-05-02T11:54:51.519Z</time></trkpt><trkpt lat="42.432012" lon="11.1740579"><ele>12.714285714285714</ele><time>2026-05-02T11:54:52.519Z</time></trkpt><trkpt lat="42.4319784" lon="11.1741348"><ele>14.142857142857142</ele><time>2026-05-02T11:54:53.518Z</time></trkpt><trkpt lat="42.431947" lon="11.1742183"><ele>15.57142857142857</ele><time>2026-05-02T11:54:54.518Z</time></trkpt><trkpt lat="42.431922" lon="11.1743105"><ele>17.0</ele><time>2026-05-02T11:54:55.518Z</time></trkpt><trkpt lat="42.4318984" lon="11.174405"><ele>17.0</ele><time>2026-05-02T11:54:56.518Z</time></trkpt><trkpt lat="42.4318752" lon="11.1745022"><ele>17.0</ele><time>2026-05-02T11:54:57.519Z</time></trkpt><trkpt lat="42.4318553" lon="11.1745984"><ele>17.0</ele><time>2026-05-02T11:54:58.519Z</time></trkpt><trkpt lat="42.4318379" lon="11.1746929"><ele>17.0</ele><time>2026-05-02T11:54:59.52Z</time></trkpt><trkpt lat="42.4318225" lon="11.1747813"><ele>17.0</ele><time>2026-05-02T11:55:00.518Z</time></trkpt><trkpt lat="42.431807" lon="11.1749124"><ele>17.0</ele><time>2026-05-02T11:55:02.518Z</time></trkpt><trkpt lat="42.4318075" lon="11.1749998"><ele>16.333333333333336</ele><time>2026-05-02T11:55:04.519Z</time></trkpt><trkpt lat="42.4318762" lon="11.1750744"><ele>15.666666666666668</ele><time>2026-05-02T11:55:07.518Z</time></trkpt><trkpt lat="42.4319484" lon="11.1751077"><ele>15.0</ele><time>2026-05-02T11:55:10.519Z</time></trkpt><trkpt lat="42.4320204" lon="11.1750977"><ele>14.333333333333332</ele><time>2026-05-02T11:55:22.519Z</time></trkpt><trkpt lat="42.4320688" lon="11.1750313"><ele>13.666666666666666</ele><time>2026-05-02T11:55:23.518Z</time></trkpt><trkpt lat="42.4321147" lon="11.1749361"><ele>13.0</ele><time>2026-05-02T11:55:24.519Z</time></trkpt><trkpt lat="42.432165" lon="11.1748111"><ele>10.0</ele><time>2026-05-02T11:55:25.518Z</time></trkpt><trkpt lat="42.4322243" lon="11.1746734"><ele>7.0</ele><time>2026-05-02T11:55:26.518Z</time></trkpt><trkpt lat="42.4322851" lon="11.174534"><ele>4.0</ele><time>2026-05-02T11:55:27.518Z</time></trkpt><trkpt lat="42.4323435" lon="11.1743993"><ele>1.0</ele><time>2026-05-02T11:55:28.519Z</time></trkpt><trkpt lat="42.4324023" lon="11.1742663"><ele>1.0</ele><time>2026-05-02T11:55:29.519Z</time></trkpt><trkpt lat="42.4324603" lon="11.1741327"><ele>1.0</ele><time>2026-05-02T11:55:30.519Z</time></trkpt><trkpt lat="42.432515" lon="11.1739968"><ele>1.0</ele><time>2026-05-02T11:55:31.518Z</time></trkpt><trkpt lat="42.4325691" lon="11.1738583"><ele>1.0</ele><time>2026-05-02T11:55:32.518Z</time></trkpt><trkpt lat="42.4326159" lon="11.1737105"><ele>2.5</ele><time>2026-05-02T11:55:33.519Z</time></trkpt><trkpt lat="42.4326533" lon="11.1735557"><ele>4.0</ele><time>2026-05-02T11:55:34.519Z</time></trkpt><trkpt lat="42.432686" lon="11.1733949"><ele>5.5</ele><time>2026-05-02T11:55:35.518Z</time></trkpt><trkpt lat="42.4327138" lon="11.1732299"><ele>7.0</ele><time>2026-05-02T11:55:36.518Z</time></trkpt><trkpt lat="42.4327311" lon="11.1730563"><ele>7.25</ele><time>2026-05-02T11:55:37.518Z</time></trkpt><trkpt lat="42.4327366" lon="11.1728737"><ele>7.5</ele><time>2026-05-02T11:55:38.519Z</time></trkpt><trkpt lat="42.4327299" lon="11.1726814"><ele>7.75</ele><time>2026-05-02T11:55:39.519Z</time></trkpt><trkpt lat="42.4327113" lon="11.172476"><ele>8.0</ele><time>2026-05-02T11:55:40.52Z</time></trkpt><trkpt lat="42.4326726" lon="11.1722669"><ele>6.75</ele><time>2026-05-02T11:55:41.518Z</time></trkpt><trkpt lat="42.4326193" lon="11.1720697"><ele>5.5</ele><time>2026-05-02T11:55:42.518Z</time></trkpt><trkpt lat="42.4325599" lon="11.171894"><ele>4.25</ele><time>2026-05-02T11:55:43.52Z</time></trkpt><trkpt lat="42.4324937" lon="11.1717174"><ele>3.0</ele><time>2026-05-02T11:55:44.519Z</time></trkpt><trkpt lat="42.4324107" lon="11.1715468"><ele>3.0</ele><time>2026-05-02T11:55:45.518Z</time></trkpt><trkpt lat="42.4323172" lon="11.171391"><ele>3.0</ele><time>2026-05-02T11:55:46.518Z</time></trkpt><trkpt lat="42.4322122" lon="11.171251"><ele>3.0</ele><time>2026-05-02T11:55:47.519Z</time></trkpt><trkpt lat="42.4320898" lon="11.1711229"><ele>3.0</ele><time>2026-05-02T11:55:48.518Z</time></trkpt><trkpt lat="42.4319696" lon="11.1710134"><ele>3.0</ele><time>2026-05-02T11:55:49.519Z</time></trkpt><trkpt lat="42.4318513" lon="11.1709138"><ele>3.0</ele><time>2026-05-02T11:55:50.519Z</time></trkpt><trkpt lat="42.4317274" lon="11.1708166"><ele>3.0</ele><time>2026-05-02T11:55:51.519Z</time></trkpt><trkpt lat="42.4316018" lon="11.1707233"><ele>3.0</ele><time>2026-05-02T11:55:52.518Z</time></trkpt><trkpt lat="42.4314783" lon="11.1706335"><ele>3.0</ele><time>2026-05-02T11:55:53.519Z</time></trkpt><trkpt lat="42.4313589" lon="11.1705469"><ele>3.0</ele><time>2026-05-02T11:55:54.519Z</time></trkpt><trkpt lat="42.4312453" lon="11.1704616"><ele>3.0</ele><time>2026-05-02T11:55:55.52Z</time></trkpt><trkpt lat="42.4311316" lon="11.1703753"><ele>3.75</ele><time>2026-05-02T11:55:56.518Z</time></trkpt><trkpt lat="42.431013" lon="11.1702837"><ele>4.5</ele><time>2026-05-02T11:55:57.519Z</time></trkpt><trkpt lat="42.4308894" lon="11.1701842"><ele>5.25</ele><time>2026-05-02T11:55:58.519Z</time></trkpt><trkpt lat="42.430762" lon="11.1700725"><ele>6.0</ele><time>2026-05-02T11:55:59.52Z</time></trkpt><trkpt lat="42.4306287" lon="11.1699434"><ele>4.0</ele><time>2026-05-02T11:56:00.519Z</time></trkpt><trkpt lat="42.4304841" lon="11.1697892"><ele>2.0</ele><time>2026-05-02T11:56:01.519Z</time></trkpt><trkpt lat="42.4303368" lon="11.1695996"><ele>0.0</ele><time>2026-05-02T11:56:02.518Z</time></trkpt><trkpt lat="42.430191" lon="11.1693726"><ele>0.0</ele><time>2026-05-02T11:56:03.518Z</time></trkpt><trkpt lat="42.4300568" lon="11.1691254"><ele>0.0</ele><time>2026-05-02T11:56:04.518Z</time></trkpt><trkpt lat="42.4299403" lon="11.1688811"><ele>0.0</ele><time>2026-05-02T11:56:05.519Z</time></trkpt><trkpt lat="42.4298439" lon="11.1686319"><ele>0.0</ele><time>2026-05-02T11:56:06.519Z</time></trkpt><trkpt lat="42.4297663" lon="11.1683706"><ele>0.0</ele><time>2026-05-02T11:56:07.519Z</time></trkpt><trkpt lat="42.4296998" lon="11.1680923"><ele>0.0</ele><time>2026-05-02T11:56:08.518Z</time></trkpt><trkpt lat="42.4296439" lon="11.1677956"><ele>1.0</ele><time>2026-05-02T11:56:09.518Z</time></trkpt><trkpt lat="42.429606" lon="11.1674782"><ele>2.0</ele><time>2026-05-02T11:56:10.519Z</time></trkpt><trkpt lat="42.4295911" lon="11.1671616"><ele>1.3333333333333333</ele><time>2026-05-02T11:56:11.52Z</time></trkpt><trkpt lat="42.4295963" lon="11.1668485"><ele>0.6666666666666666</ele><time>2026-05-02T11:56:12.519Z</time></trkpt><trkpt lat="42.4296177" lon="11.1665602"><ele>0.0</ele><time>2026-05-02T11:56:13.518Z</time></trkpt><trkpt lat="42.4296435" lon="11.1662957"><ele>0.0</ele><time>2026-05-02T11:56:14.518Z</time></trkpt><trkpt lat="42.4296729" lon="11.1660551"><ele>0.0</ele><time>2026-05-02T11:56:15.518Z</time></trkpt><trkpt lat="42.4296986" lon="11.1658305"><ele>0.0</ele><time>2026-05-02T11:56:16.519Z</time></trkpt><trkpt lat="42.4297193" lon="11.1656159"><ele>0.3333333333333333</ele><time>2026-05-02T11:56:17.519Z</time></trkpt><trkpt lat="42.4297413" lon="11.1654063"><ele>0.6666666666666666</ele><time>2026-05-02T11:56:18.519Z</time></trkpt><trkpt lat="42.4297638" lon="11.165199"><ele>1.0</ele><time>2026-05-02T11:56:19.52Z</time></trkpt><trkpt lat="42.4297839" lon="11.1649985"><ele>1.0</ele><time>2026-05-02T11:56:20.518Z</time></trkpt><trkpt lat="42.4298015" lon="11.1648021"><ele>1.0</ele><time>2026-05-02T11:56:21.518Z</time></trkpt><trkpt lat="42.4298252" lon="11.1646174"><ele>1.0</ele><time>2026-05-02T11:56:22.518Z</time></trkpt><trkpt lat="42.4298425" lon="11.1644364"><ele>1.0</ele><time>2026-05-02T11:56:23.518Z</time></trkpt><trkpt lat="42.4298617" lon="11.1642557"><ele>1.0</ele><time>2026-05-02T11:56:24.519Z</time></trkpt><trkpt lat="42.4298824" lon="11.1640775"><ele>1.0</ele><time>2026-05-02T11:56:25.519Z</time></trkpt><trkpt lat="42.4299028" lon="11.1639104"><ele>1.0</ele><time>2026-05-02T11:56:26.519Z</time></trkpt><trkpt lat="42.4299239" lon="11.1637549"><ele>1.0</ele><time>2026-05-02T11:56:27.519Z</time></trkpt><trkpt lat="42.4299396" lon="11.1636099"><ele>1.0</ele><time>2026-05-02T11:56:28.518Z</time></trkpt><trkpt lat="42.4299551" lon="11.1634703"><ele>1.0</ele><time>2026-05-02T11:56:29.519Z</time></trkpt><trkpt lat="42.4299696" lon="11.1633375"><ele>1.0</ele><time>2026-05-02T11:56:30.519Z</time></trkpt><trkpt lat="42.4299848" lon="11.1632098"><ele>1.0</ele><time>2026-05-02T11:56:31.52Z</time></trkpt><trkpt lat="42.4299975" lon="11.1630851"><ele>1.0</ele><time>2026-05-02T11:56:32.519Z</time></trkpt><trkpt lat="42.4300081" lon="11.1629686"><ele>1.4</ele><time>2026-05-02T11:56:33.518Z</time></trkpt><trkpt lat="42.430019" lon="11.1628668"><ele>1.8</ele><time>2026-05-02T11:56:34.518Z</time></trkpt><trkpt lat="42.430027" lon="11.1627781"><ele>2.1999999999999997</ele><time>2026-05-02T11:56:35.52Z</time></trkpt><trkpt lat="42.430043" lon="11.1626121"><ele>2.6</ele><time>2026-05-02T11:56:37.52Z</time></trkpt><trkpt lat="42.4300628" lon="11.1624627"><ele>3.0</ele><time>2026-05-02T11:56:39.519Z</time></trkpt><trkpt lat="42.4301047" lon="11.1623378"><ele>3.0</ele><time>2026-05-02T11:56:41.519Z</time></trkpt><trkpt lat="42.4301772" lon="11.1622401"><ele>3.0</ele><time>2026-05-02T11:56:43.519Z</time></trkpt><trkpt lat="42.4301466" lon="11.1621605"><ele>3.0</ele><time>2026-05-02T11:56:46.518Z</time></trkpt><trkpt lat="42.4300816" lon="11.1622275"><ele>3.0</ele><time>2026-05-02T11:56:52.519Z</time></trkpt><trkpt lat="42.4300603" lon="11.1623078"><ele>3.0</ele><time>2026-05-02T11:56:53.519Z</time></trkpt><trkpt lat="42.430031" lon="11.1624283"><ele>3.0</ele><time>2026-05-02T11:56:54.519Z</time></trkpt><trkpt lat="42.4300043" lon="11.1625677"><ele>3.0</ele><time>2026-05-02T11:56:55.52Z</time></trkpt><trkpt lat="42.4299798" lon="11.1627166"><ele>3.0</ele><time>2026-05-02T11:56:56.519Z</time></trkpt><trkpt lat="42.4299572" lon="11.162827"><ele>3.0</ele><time>2026-05-02T11:56:57.518Z</time></trkpt><trkpt lat="42.4299019" lon="11.1629557"><ele>3.0</ele><time>2026-05-02T11:56:59.518Z</time></trkpt><trkpt lat="42.4298267" lon="11.1629815"><ele>3.0</ele><time>2026-05-02T11:57:02.518Z</time></trkpt><trkpt lat="42.429763" lon="11.1629708"><ele>3.0</ele><time>2026-05-02T11:57:05.518Z</time></trkpt><trkpt lat="42.4296897" lon="11.1629194"><ele>3.0</ele><time>2026-05-02T11:57:08.519Z</time></trkpt></trkseg></trk></gpx>